﻿<?xml version="1.0" encoding="UTF-8"?>
<gpx xmlns="http://www.topografix.com/GPX/1/1" creator="HOLUX ezTour Plus" version="1.1">
<metadata>
<link href="http://www.holux.com"><text>HOLUX Technology, Inc.</text></link>
<time>2012-08-01T18:46:49Z</time></metadata>
<trk>
<name><![CDATA[raw3]]></name>
<trkseg>
<trkpt lat="64.309806824" lon="-20.305309296">
<ele>115.275391</ele>
<time>2012-07-20T10:19:04Z</time>
<speed>0.160000</speed>
<extensions>
<speed>0.2</speed>
<temp>0.00</temp>
<bpm>0</bpm>
<rpm>0.00</rpm>
</extensions>
</trkpt>
<trkpt lat="64.309776306" lon="-20.305332184">
<ele>116.740234</ele>
<time>2012-07-20T10:19:09Z</time>
<speed>0.010000</speed>
<extensions>
<speed>0.0</speed>
<temp>0.00</temp>
<bpm>0</bpm>
<rpm>0.00</rpm>
</extensions>
</trkpt>
<trkpt lat="64.309776306" lon="-20.305324554">
<ele>115.021484</ele>
<time>2012-07-20T10:19:14Z</time>
<speed>0.020000</speed>
<extensions>
<speed>0.0</speed>
<temp>0.00</temp>
<bpm>0</bpm>
<rpm>0.00</rpm>
</extensions>
</trkpt>
<trkpt lat="64.309783936" lon="-20.305320740">
<ele>112.406250</ele>
<time>2012-07-20T10:19:19Z</time>
<speed>0.030000</speed>
<extensions>
<speed>0.0</speed>
<temp>0.00</temp>
<bpm>0</bpm>
<rpm>0.00</rpm>
</extensions>
</trkpt>
<trkpt lat="64.309822083" lon="-20.305305481">
<ele>106.156250</ele>
<time>2012-07-20T10:19:24Z</time>
<speed>0.010000</speed>
<extensions>
<speed>0.0</speed>
<temp>0.00</temp>
<bpm>0</bpm>
<rpm>0.00</rpm>
</extensions>
</trkpt>
<trkpt lat="64.309837341" lon="-20.305294037">
<ele>105.437500</ele>
<time>2012-07-20T10:19:29Z</time>
<speed>0.010000</speed>
<extensions>
<speed>0.0</speed>
<temp>0.00</temp>
<bpm>0</bpm>
<rpm>0.00</rpm>
</extensions>
</trkpt>
<trkpt lat="64.309829712" lon="-20.305299759">
<ele>107.726563</ele>
<time>2012-07-20T10:19:34Z</time>
<extensions>
<speed>0.0</speed>
<temp>0.00</temp>
<bpm>0</bpm>
<rpm>0.00</rpm>
</extensions>
</trkpt>
<trkpt lat="64.309822083" lon="-20.305305481">
<ele>109.160156</ele>
<time>2012-07-20T10:19:39Z</time>
<speed>0.010000</speed>
<extensions>
<speed>0.0</speed>
<temp>0.00</temp>
<bpm>0</bpm>
<rpm>0.00</rpm>
</extensions>
</trkpt>
<trkpt lat="64.309822083" lon="-20.305305481">
<ele>109.087891</ele>
<time>2012-07-20T10:19:44Z</time>
<speed>0.010000</speed>
<extensions>
<speed>0.0</speed>
<temp>0.00</temp>
<bpm>0</bpm>
<rpm>0.00</rpm>
</extensions>
</trkpt>
<trkpt lat="64.309822083" lon="-20.305307388">
<ele>109.078125</ele>
<time>2012-07-20T10:19:49Z</time>
<extensions>
<speed>0.0</speed>
<temp>0.00</temp>
<bpm>0</bpm>
<rpm>0.00</rpm>
</extensions>
</trkpt>
<trkpt lat="64.309822083" lon="-20.305307388">
<ele>109.095703</ele>
<time>2012-07-20T10:19:54Z</time>
<extensions>
<speed>0.0</speed>
<temp>0.00</temp>
<bpm>0</bpm>
<rpm>0.00</rpm>
</extensions>
</trkpt>
<trkpt lat="64.309822083" lon="-20.305305481">
<ele>109.125000</ele>
<time>2012-07-20T10:19:59Z</time>
<speed>0.010000</speed>
<extensions>
<speed>0.0</speed>
<temp>0.00</temp>
<bpm>0</bpm>
<rpm>0.00</rpm>
</extensions>
</trkpt>
<trkpt lat="64.309822083" lon="-20.305305481">
<ele>109.154297</ele>
<time>2012-07-20T10:20:04Z</time>
<extensions>
<speed>0.0</speed>
<temp>0.00</temp>
<bpm>0</bpm>
<rpm>0.00</rpm>
</extensions>
</trkpt>
<trkpt lat="64.309822083" lon="-20.305305481">
<ele>109.166016</ele>
<time>2012-07-20T10:20:09Z</time>
<speed>0.010000</speed>
<extensions>
<speed>0.0</speed>
<temp>0.00</temp>
<bpm>0</bpm>
<rpm>0.00</rpm>
</extensions>
</trkpt>
<trkpt lat="64.309822083" lon="-20.305305481">
<ele>109.164063</ele>
<time>2012-07-20T10:20:14Z</time>
<speed>0.010000</speed>
<extensions>
<speed>0.0</speed>
<temp>0.00</temp>
<bpm>0</bpm>
<rpm>0.00</rpm>
</extensions>
</trkpt>
<trkpt lat="64.309822083" lon="-20.305305481">
<ele>109.166016</ele>
<time>2012-07-20T10:20:19Z</time>
<extensions>
<speed>0.0</speed>
<temp>0.00</temp>
<bpm>0</bpm>
<rpm>0.00</rpm>
</extensions>
</trkpt>
<trkpt lat="64.309822083" lon="-20.305305481">
<ele>109.173828</ele>
<time>2012-07-20T10:20:24Z</time>
<extensions>
<speed>0.0</speed>
<temp>0.00</temp>
<bpm>0</bpm>
<rpm>0.00</rpm>
</extensions>
</trkpt>
<trkpt lat="64.309822083" lon="-20.305305481">
<ele>109.175781</ele>
<time>2012-07-20T10:20:29Z</time>
<extensions>
<speed>0.0</speed>
<temp>0.00</temp>
<bpm>0</bpm>
<rpm>0.00</rpm>
</extensions>
</trkpt>
<trkpt lat="64.309822083" lon="-20.305305481">
<ele>109.187500</ele>
<time>2012-07-20T10:20:34Z</time>
<speed>0.010000</speed>
<extensions>
<speed>0.0</speed>
<temp>0.00</temp>
<bpm>0</bpm>
<rpm>0.00</rpm>
</extensions>
</trkpt>
<trkpt lat="64.309822083" lon="-20.305305481">
<ele>109.197266</ele>
<time>2012-07-20T10:20:39Z</time>
<extensions>
<speed>0.0</speed>
<temp>0.00</temp>
<bpm>0</bpm>
<rpm>0.00</rpm>
</extensions>
</trkpt>
<trkpt lat="64.309822083" lon="-20.305305481">
<ele>109.199219</ele>
<time>2012-07-20T10:20:44Z</time>
<speed>0.010000</speed>
<extensions>
<speed>0.0</speed>
<temp>0.00</temp>
<bpm>0</bpm>
<rpm>0.00</rpm>
</extensions>
</trkpt>
<trkpt lat="64.309822083" lon="-20.305305481">
<ele>109.199219</ele>
<time>2012-07-20T10:20:49Z</time>
<speed>0.010000</speed>
<extensions>
<speed>0.0</speed>
<temp>0.00</temp>
<bpm>0</bpm>
<rpm>0.00</rpm>
</extensions>
</trkpt>
<trkpt lat="64.309822083" lon="-20.305305481">
<ele>109.197266</ele>
<time>2012-07-20T10:20:54Z</time>
<speed>0.020000</speed>
<extensions>
<speed>0.0</speed>
<temp>0.00</temp>
<bpm>0</bpm>
<rpm>0.00</rpm>
</extensions>
</trkpt>
<trkpt lat="64.309822083" lon="-20.305305481">
<ele>109.187500</ele>
<time>2012-07-20T10:20:59Z</time>
<speed>0.010000</speed>
<extensions>
<speed>0.0</speed>
<temp>0.00</temp>
<bpm>0</bpm>
<rpm>0.00</rpm>
</extensions>
</trkpt>
<trkpt lat="64.309822083" lon="-20.305305481">
<ele>109.203125</ele>
<time>2012-07-20T10:21:04Z</time>
<speed>0.010000</speed>
<extensions>
<speed>0.0</speed>
<temp>0.00</temp>
<bpm>0</bpm>
<rpm>0.00</rpm>
</extensions>
</trkpt>
<trkpt lat="64.309822083" lon="-20.305305481">
<ele>109.195313</ele>
<time>2012-07-20T10:21:09Z</time>
<speed>0.020000</speed>
<extensions>
<speed>0.0</speed>
<temp>0.00</temp>
<bpm>0</bpm>
<rpm>0.00</rpm>
</extensions>
</trkpt>
<trkpt lat="64.309822083" lon="-20.305305481">
<ele>109.167969</ele>
<time>2012-07-20T10:21:14Z</time>
<extensions>
<speed>0.0</speed>
<temp>0.00</temp>
<bpm>0</bpm>
<rpm>0.00</rpm>
</extensions>
</trkpt>
<trkpt lat="64.309822083" lon="-20.305305481">
<ele>109.150391</ele>
<time>2012-07-20T10:21:19Z</time>
<extensions>
<speed>0.0</speed>
<temp>0.00</temp>
<bpm>0</bpm>
<rpm>0.00</rpm>
</extensions>
</trkpt>
<trkpt lat="64.309822083" lon="-20.305305481">
<ele>109.152344</ele>
<time>2012-07-20T10:21:24Z</time>
<speed>0.010000</speed>
<extensions>
<speed>0.0</speed>
<temp>0.00</temp>
<bpm>0</bpm>
<rpm>0.00</rpm>
</extensions>
</trkpt>
<trkpt lat="64.309822083" lon="-20.305305481">
<ele>109.154297</ele>
<time>2012-07-20T10:21:29Z</time>
<speed>0.010000</speed>
<extensions>
<speed>0.0</speed>
<temp>0.00</temp>
<bpm>0</bpm>
<rpm>0.00</rpm>
</extensions>
</trkpt>
<trkpt lat="64.309822083" lon="-20.305305481">
<ele>109.164063</ele>
<time>2012-07-20T10:21:34Z</time>
<speed>0.010000</speed>
<extensions>
<speed>0.0</speed>
<temp>0.00</temp>
<bpm>0</bpm>
<rpm>0.00</rpm>
</extensions>
</trkpt>
<trkpt lat="64.309822083" lon="-20.305303574">
<ele>109.169922</ele>
<time>2012-07-20T10:21:39Z</time>
<speed>0.010000</speed>
<extensions>
<speed>0.0</speed>
<temp>0.00</temp>
<bpm>0</bpm>
<rpm>0.00</rpm>
</extensions>
</trkpt>
<trkpt lat="64.309822083" lon="-20.305303574">
<ele>109.203125</ele>
<time>2012-07-20T10:21:44Z</time>
<speed>0.010000</speed>
<extensions>
<speed>0.0</speed>
<temp>0.00</temp>
<bpm>0</bpm>
<rpm>0.00</rpm>
</extensions>
</trkpt>
<trkpt lat="64.309822083" lon="-20.305303574">
<ele>109.236328</ele>
<time>2012-07-20T10:21:49Z</time>
<extensions>
<speed>0.0</speed>
<temp>0.00</temp>
<bpm>0</bpm>
<rpm>0.00</rpm>
</extensions>
</trkpt>
<trkpt lat="64.309822083" lon="-20.305303574">
<ele>109.267578</ele>
<time>2012-07-20T10:21:54Z</time>
<speed>0.020000</speed>
<extensions>
<speed>0.0</speed>
<temp>0.00</temp>
<bpm>0</bpm>
<rpm>0.00</rpm>
</extensions>
</trkpt>
<trkpt lat="64.309822083" lon="-20.305303574">
<ele>109.291016</ele>
<time>2012-07-20T10:21:59Z</time>
<speed>0.010000</speed>
<extensions>
<speed>0.0</speed>
<temp>0.00</temp>
<bpm>0</bpm>
<rpm>0.00</rpm>
</extensions>
</trkpt>
<trkpt lat="64.309822083" lon="-20.305301666">
<ele>109.314453</ele>
<time>2012-07-20T10:22:04Z</time>
<speed>0.020000</speed>
<extensions>
<speed>0.0</speed>
<temp>0.00</temp>
<bpm>0</bpm>
<rpm>0.00</rpm>
</extensions>
</trkpt>
<trkpt lat="64.309822083" lon="-20.305301666">
<ele>109.335938</ele>
<time>2012-07-20T10:22:09Z</time>
<speed>0.010000</speed>
<extensions>
<speed>0.0</speed>
<temp>0.00</temp>
<bpm>0</bpm>
<rpm>0.00</rpm>
</extensions>
</trkpt>
<trkpt lat="64.309822083" lon="-20.305301666">
<ele>109.369141</ele>
<time>2012-07-20T10:22:14Z</time>
<speed>0.010000</speed>
<extensions>
<speed>0.0</speed>
<temp>0.00</temp>
<bpm>0</bpm>
<rpm>0.00</rpm>
</extensions>
</trkpt>
<trkpt lat="64.309822083" lon="-20.305301666">
<ele>109.394531</ele>
<time>2012-07-20T10:22:19Z</time>
<speed>0.010000</speed>
<extensions>
<speed>0.0</speed>
<temp>0.00</temp>
<bpm>0</bpm>
<rpm>0.00</rpm>
</extensions>
</trkpt>
<trkpt lat="64.309822083" lon="-20.305301666">
<ele>109.412109</ele>
<time>2012-07-20T10:22:24Z</time>
<extensions>
<speed>0.0</speed>
<temp>0.00</temp>
<bpm>0</bpm>
<rpm>0.00</rpm>
</extensions>
</trkpt>
<trkpt lat="64.309822083" lon="-20.305299759">
<ele>109.425781</ele>
<time>2012-07-20T10:22:29Z</time>
<extensions>
<speed>0.0</speed>
<temp>0.00</temp>
<bpm>0</bpm>
<rpm>0.00</rpm>
</extensions>
</trkpt>
<trkpt lat="64.309822083" lon="-20.305299759">
<ele>109.431641</ele>
<time>2012-07-20T10:22:34Z</time>
<speed>0.020000</speed>
<extensions>
<speed>0.0</speed>
<temp>0.00</temp>
<bpm>0</bpm>
<rpm>0.00</rpm>
</extensions>
</trkpt>
<trkpt lat="64.309822083" lon="-20.305299759">
<ele>109.425781</ele>
<time>2012-07-20T10:22:39Z</time>
<speed>0.010000</speed>
<extensions>
<speed>0.0</speed>
<temp>0.00</temp>
<bpm>0</bpm>
<rpm>0.00</rpm>
</extensions>
</trkpt>
<trkpt lat="64.309822083" lon="-20.305299759">
<ele>109.414063</ele>
<time>2012-07-20T10:22:44Z</time>
<extensions>
<speed>0.0</speed>
<temp>0.00</temp>
<bpm>0</bpm>
<rpm>0.00</rpm>
</extensions>
</trkpt>
<trkpt lat="64.309822083" lon="-20.305299759">
<ele>109.402344</ele>
<time>2012-07-20T10:22:49Z</time>
<extensions>
<speed>0.0</speed>
<temp>0.00</temp>
<bpm>0</bpm>
<rpm>0.00</rpm>
</extensions>
</trkpt>
<trkpt lat="64.309822083" lon="-20.305299759">
<ele>109.402344</ele>
<time>2012-07-20T10:22:54Z</time>
<extensions>
<speed>0.0</speed>
<temp>0.00</temp>
<bpm>0</bpm>
<rpm>0.00</rpm>
</extensions>
</trkpt>
<trkpt lat="64.309822083" lon="-20.305299759">
<ele>109.408203</ele>
<time>2012-07-20T10:22:59Z</time>
<extensions>
<speed>0.0</speed>
<temp>0.00</temp>
<bpm>0</bpm>
<rpm>0.00</rpm>
</extensions>
</trkpt>
<trkpt lat="64.309822083" lon="-20.305297852">
<ele>109.429688</ele>
<time>2012-07-20T10:23:04Z</time>
<extensions>
<speed>0.0</speed>
<temp>0.00</temp>
<bpm>0</bpm>
<rpm>0.00</rpm>
</extensions>
</trkpt>
<trkpt lat="64.309822083" lon="-20.305297852">
<ele>109.449219</ele>
<time>2012-07-20T10:23:09Z</time>
<extensions>
<speed>0.0</speed>
<temp>0.00</temp>
<bpm>0</bpm>
<rpm>0.00</rpm>
</extensions>
</trkpt>
<trkpt lat="64.309822083" lon="-20.305297852">
<ele>109.458984</ele>
<time>2012-07-20T10:23:14Z</time>
<extensions>
<speed>0.0</speed>
<temp>0.00</temp>
<bpm>0</bpm>
<rpm>0.00</rpm>
</extensions>
</trkpt>
<trkpt lat="64.309822083" lon="-20.305297852">
<ele>109.441406</ele>
<time>2012-07-20T10:23:19Z</time>
<speed>0.020000</speed>
<extensions>
<speed>0.0</speed>
<temp>0.00</temp>
<bpm>0</bpm>
<rpm>0.00</rpm>
</extensions>
</trkpt>
<trkpt lat="64.309822083" lon="-20.305297852">
<ele>109.412109</ele>
<time>2012-07-20T10:23:24Z</time>
<extensions>
<speed>0.0</speed>
<temp>0.00</temp>
<bpm>0</bpm>
<rpm>0.00</rpm>
</extensions>
</trkpt>
<trkpt lat="64.309822083" lon="-20.305297852">
<ele>109.384766</ele>
<time>2012-07-20T10:23:29Z</time>
<extensions>
<speed>0.0</speed>
<temp>0.00</temp>
<bpm>0</bpm>
<rpm>0.00</rpm>
</extensions>
</trkpt>
<trkpt lat="64.309822083" lon="-20.305297852">
<ele>109.371094</ele>
<time>2012-07-20T10:23:34Z</time>
<speed>0.010000</speed>
<extensions>
<speed>0.0</speed>
<temp>0.00</temp>
<bpm>0</bpm>
<rpm>0.00</rpm>
</extensions>
</trkpt>
<trkpt lat="64.309822083" lon="-20.305297852">
<ele>109.357422</ele>
<time>2012-07-20T10:23:39Z</time>
<speed>0.010000</speed>
<extensions>
<speed>0.0</speed>
<temp>0.00</temp>
<bpm>0</bpm>
<rpm>0.00</rpm>
</extensions>
</trkpt>
<trkpt lat="64.309829712" lon="-20.305297852">
<ele>109.332031</ele>
<time>2012-07-20T10:23:44Z</time>
<extensions>
<speed>0.0</speed>
<temp>0.00</temp>
<bpm>0</bpm>
<rpm>0.00</rpm>
</extensions>
</trkpt>
<trkpt lat="64.309829712" lon="-20.305297852">
<ele>109.324219</ele>
<time>2012-07-20T10:23:49Z</time>
<extensions>
<speed>0.0</speed>
<temp>0.00</temp>
<bpm>0</bpm>
<rpm>0.00</rpm>
</extensions>
</trkpt>
<trkpt lat="64.309829712" lon="-20.305297852">
<ele>109.335938</ele>
<time>2012-07-20T10:23:54Z</time>
<speed>0.020000</speed>
<extensions>
<speed>0.0</speed>
<temp>0.00</temp>
<bpm>0</bpm>
<rpm>0.00</rpm>
</extensions>
</trkpt>
<trkpt lat="64.309829712" lon="-20.305295944">
<ele>109.349609</ele>
<time>2012-07-20T10:23:59Z</time>
<speed>0.010000</speed>
<extensions>
<speed>0.0</speed>
<temp>0.00</temp>
<bpm>0</bpm>
<rpm>0.00</rpm>
</extensions>
</trkpt>
<trkpt lat="64.309829712" lon="-20.305295944">
<ele>109.365234</ele>
<time>2012-07-20T10:24:04Z</time>
<extensions>
<speed>0.0</speed>
<temp>0.00</temp>
<bpm>0</bpm>
<rpm>0.00</rpm>
</extensions>
</trkpt>
<trkpt lat="64.309829712" lon="-20.305295944">
<ele>109.375000</ele>
<time>2012-07-20T10:24:09Z</time>
<speed>0.020000</speed>
<extensions>
<speed>0.0</speed>
<temp>0.00</temp>
<bpm>0</bpm>
<rpm>0.00</rpm>
</extensions>
</trkpt>
<trkpt lat="64.309829712" lon="-20.305294037">
<ele>109.384766</ele>
<time>2012-07-20T10:24:14Z</time>
<extensions>
<speed>0.0</speed>
<temp>0.00</temp>
<bpm>0</bpm>
<rpm>0.00</rpm>
</extensions>
</trkpt>
<trkpt lat="64.309829712" lon="-20.305294037">
<ele>109.400391</ele>
<time>2012-07-20T10:24:19Z</time>
<extensions>
<speed>0.0</speed>
<temp>0.00</temp>
<bpm>0</bpm>
<rpm>0.00</rpm>
</extensions>
</trkpt>
<trkpt lat="64.309829712" lon="-20.305294037">
<ele>109.417969</ele>
<time>2012-07-20T10:24:24Z</time>
<extensions>
<speed>0.0</speed>
<temp>0.00</temp>
<bpm>0</bpm>
<rpm>0.00</rpm>
</extensions>
</trkpt>
<trkpt lat="64.309829712" lon="-20.305294037">
<ele>109.427734</ele>
<time>2012-07-20T10:24:29Z</time>
<speed>0.010000</speed>
<extensions>
<speed>0.0</speed>
<temp>0.00</temp>
<bpm>0</bpm>
<rpm>0.00</rpm>
</extensions>
</trkpt>
<trkpt lat="64.309829712" lon="-20.305294037">
<ele>109.437500</ele>
<time>2012-07-20T10:24:34Z</time>
<speed>0.010000</speed>
<extensions>
<speed>0.0</speed>
<temp>0.00</temp>
<bpm>0</bpm>
<rpm>0.00</rpm>
</extensions>
</trkpt>
<trkpt lat="64.309829712" lon="-20.305294037">
<ele>109.437500</ele>
<time>2012-07-20T10:24:39Z</time>
<speed>0.010000</speed>
<extensions>
<speed>0.0</speed>
<temp>0.00</temp>
<bpm>0</bpm>
<rpm>0.00</rpm>
</extensions>
</trkpt>
<trkpt lat="64.309829712" lon="-20.305292130">
<ele>109.445313</ele>
<time>2012-07-20T10:24:44Z</time>
<speed>0.010000</speed>
<extensions>
<speed>0.0</speed>
<temp>0.00</temp>
<bpm>0</bpm>
<rpm>0.00</rpm>
</extensions>
</trkpt>
<trkpt lat="64.309829712" lon="-20.305292130">
<ele>109.458984</ele>
<time>2012-07-20T10:24:49Z</time>
<extensions>
<speed>0.0</speed>
<temp>0.00</temp>
<bpm>0</bpm>
<rpm>0.00</rpm>
</extensions>
</trkpt>
<trkpt lat="64.309829712" lon="-20.305290222">
<ele>109.474609</ele>
<time>2012-07-20T10:24:54Z</time>
<speed>0.020000</speed>
<extensions>
<speed>0.0</speed>
<temp>0.00</temp>
<bpm>0</bpm>
<rpm>0.00</rpm>
</extensions>
</trkpt>
<trkpt lat="64.309829712" lon="-20.305290222">
<ele>109.498047</ele>
<time>2012-07-20T10:24:59Z</time>
<extensions>
<speed>0.0</speed>
<temp>0.00</temp>
<bpm>0</bpm>
<rpm>0.00</rpm>
</extensions>
</trkpt>
<trkpt lat="64.309822083" lon="-20.305290222">
<ele>109.503906</ele>
<time>2012-07-20T10:25:04Z</time>
<speed>0.010000</speed>
<extensions>
<speed>0.0</speed>
<temp>0.00</temp>
<bpm>0</bpm>
<rpm>0.00</rpm>
</extensions>
</trkpt>
<trkpt lat="64.309822083" lon="-20.305292130">
<ele>109.511719</ele>
<time>2012-07-20T10:25:09Z</time>
<speed>0.020000</speed>
<extensions>
<speed>0.0</speed>
<temp>0.00</temp>
<bpm>0</bpm>
<rpm>0.00</rpm>
</extensions>
</trkpt>
<trkpt lat="64.309822083" lon="-20.305292130">
<ele>109.509766</ele>
<time>2012-07-20T10:25:14Z</time>
<extensions>
<speed>0.0</speed>
<temp>0.00</temp>
<bpm>0</bpm>
<rpm>0.00</rpm>
</extensions>
</trkpt>
<trkpt lat="64.309829712" lon="-20.305290222">
<ele>109.511719</ele>
<time>2012-07-20T10:25:19Z</time>
<extensions>
<speed>0.0</speed>
<temp>0.00</temp>
<bpm>0</bpm>
<rpm>0.00</rpm>
</extensions>
</trkpt>
<trkpt lat="64.309829712" lon="-20.305290222">
<ele>109.513672</ele>
<time>2012-07-20T10:25:24Z</time>
<extensions>
<speed>0.0</speed>
<temp>0.00</temp>
<bpm>0</bpm>
<rpm>0.00</rpm>
</extensions>
</trkpt>
<trkpt lat="64.309829712" lon="-20.305292130">
<ele>109.501953</ele>
<time>2012-07-20T10:25:29Z</time>
<speed>0.010000</speed>
<extensions>
<speed>0.0</speed>
<temp>0.00</temp>
<bpm>0</bpm>
<rpm>0.00</rpm>
</extensions>
</trkpt>
<trkpt lat="64.309829712" lon="-20.305290222">
<ele>109.476563</ele>
<time>2012-07-20T10:25:34Z</time>
<speed>0.020000</speed>
<extensions>
<speed>0.0</speed>
<temp>0.00</temp>
<bpm>0</bpm>
<rpm>0.00</rpm>
</extensions>
</trkpt>
<trkpt lat="64.309829712" lon="-20.305290222">
<ele>109.441406</ele>
<time>2012-07-20T10:25:39Z</time>
<extensions>
<speed>0.0</speed>
<temp>0.00</temp>
<bpm>0</bpm>
<rpm>0.00</rpm>
</extensions>
</trkpt>
<trkpt lat="64.309829712" lon="-20.305290222">
<ele>109.408203</ele>
<time>2012-07-20T10:25:44Z</time>
<speed>0.020000</speed>
<extensions>
<speed>0.0</speed>
<temp>0.00</temp>
<bpm>0</bpm>
<rpm>0.00</rpm>
</extensions>
</trkpt>
<trkpt lat="64.309829712" lon="-20.305290222">
<ele>109.402344</ele>
<time>2012-07-20T10:25:49Z</time>
<speed>0.020000</speed>
<extensions>
<speed>0.0</speed>
<temp>0.00</temp>
<bpm>0</bpm>
<rpm>0.00</rpm>
</extensions>
</trkpt>
<trkpt lat="64.309829712" lon="-20.305288315">
<ele>109.402344</ele>
<time>2012-07-20T10:25:54Z</time>
<speed>0.010000</speed>
<extensions>
<speed>0.0</speed>
<temp>0.00</temp>
<bpm>0</bpm>
<rpm>0.00</rpm>
</extensions>
</trkpt>
<trkpt lat="64.309829712" lon="-20.305288315">
<ele>109.390625</ele>
<time>2012-07-20T10:25:59Z</time>
<speed>0.010000</speed>
<extensions>
<speed>0.0</speed>
<temp>0.00</temp>
<bpm>0</bpm>
<rpm>0.00</rpm>
</extensions>
</trkpt>
<trkpt lat="64.309829712" lon="-20.305288315">
<ele>109.375000</ele>
<time>2012-07-20T10:26:04Z</time>
<speed>0.010000</speed>
<extensions>
<speed>0.0</speed>
<temp>0.00</temp>
<bpm>0</bpm>
<rpm>0.00</rpm>
</extensions>
</trkpt>
<trkpt lat="64.309829712" lon="-20.305286407">
<ele>109.375000</ele>
<time>2012-07-20T10:26:09Z</time>
<speed>0.020000</speed>
<extensions>
<speed>0.0</speed>
<temp>0.00</temp>
<bpm>0</bpm>
<rpm>0.00</rpm>
</extensions>
</trkpt>
<trkpt lat="64.309829712" lon="-20.305286407">
<ele>109.373047</ele>
<time>2012-07-20T10:26:14Z</time>
<speed>0.010000</speed>
<extensions>
<speed>0.0</speed>
<temp>0.00</temp>
<bpm>0</bpm>
<rpm>0.00</rpm>
</extensions>
</trkpt>
<trkpt lat="64.309829712" lon="-20.305286407">
<ele>109.369141</ele>
<time>2012-07-20T10:26:19Z</time>
<speed>0.010000</speed>
<extensions>
<speed>0.0</speed>
<temp>0.00</temp>
<bpm>0</bpm>
<rpm>0.00</rpm>
</extensions>
</trkpt>
<trkpt lat="64.309829712" lon="-20.305286407">
<ele>109.359375</ele>
<time>2012-07-20T10:26:24Z</time>
<speed>0.010000</speed>
<extensions>
<speed>0.0</speed>
<temp>0.00</temp>
<bpm>0</bpm>
<rpm>0.00</rpm>
</extensions>
</trkpt>
<trkpt lat="64.309829712" lon="-20.305286407">
<ele>109.353516</ele>
<time>2012-07-20T10:26:29Z</time>
<extensions>
<speed>0.0</speed>
<temp>0.00</temp>
<bpm>0</bpm>
<rpm>0.00</rpm>
</extensions>
</trkpt>
<trkpt lat="64.309829712" lon="-20.305284500">
<ele>109.335938</ele>
<time>2012-07-20T10:26:34Z</time>
<speed>0.020000</speed>
<extensions>
<speed>0.0</speed>
<temp>0.00</temp>
<bpm>0</bpm>
<rpm>0.00</rpm>
</extensions>
</trkpt>
<trkpt lat="64.309829712" lon="-20.305284500">
<ele>109.320313</ele>
<time>2012-07-20T10:26:39Z</time>
<extensions>
<speed>0.0</speed>
<temp>0.00</temp>
<bpm>0</bpm>
<rpm>0.00</rpm>
</extensions>
</trkpt>
<trkpt lat="64.309829712" lon="-20.305284500">
<ele>109.304688</ele>
<time>2012-07-20T10:26:44Z</time>
<speed>0.020000</speed>
<extensions>
<speed>0.0</speed>
<temp>0.00</temp>
<bpm>0</bpm>
<rpm>0.00</rpm>
</extensions>
</trkpt>
<trkpt lat="64.309829712" lon="-20.305282593">
<ele>109.271484</ele>
<time>2012-07-20T10:26:49Z</time>
<speed>0.030000</speed>
<extensions>
<speed>0.0</speed>
<temp>0.00</temp>
<bpm>0</bpm>
<rpm>0.00</rpm>
</extensions>
</trkpt>
<trkpt lat="64.309829712" lon="-20.305282593">
<ele>109.244141</ele>
<time>2012-07-20T10:26:54Z</time>
<speed>0.040000</speed>
<extensions>
<speed>0.0</speed>
<temp>0.00</temp>
<bpm>0</bpm>
<rpm>0.00</rpm>
</extensions>
</trkpt>
<trkpt lat="64.309829712" lon="-20.305280685">
<ele>109.199219</ele>
<time>2012-07-20T10:26:59Z</time>
<speed>0.010000</speed>
<extensions>
<speed>0.0</speed>
<temp>0.00</temp>
<bpm>0</bpm>
<rpm>0.00</rpm>
</extensions>
</trkpt>
<trkpt lat="64.309829712" lon="-20.305280685">
<ele>109.193359</ele>
<time>2012-07-20T10:27:04Z</time>
<speed>0.010000</speed>
<extensions>
<speed>0.0</speed>
<temp>0.00</temp>
<bpm>0</bpm>
<rpm>0.00</rpm>
</extensions>
</trkpt>
<trkpt lat="64.309829712" lon="-20.305278778">
<ele>109.193359</ele>
<time>2012-07-20T10:27:09Z</time>
<speed>0.010000</speed>
<extensions>
<speed>0.0</speed>
<temp>0.00</temp>
<bpm>0</bpm>
<rpm>0.00</rpm>
</extensions>
</trkpt>
<trkpt lat="64.309829712" lon="-20.305278778">
<ele>109.177734</ele>
<time>2012-07-20T10:27:14Z</time>
<speed>0.020000</speed>
<extensions>
<speed>0.0</speed>
<temp>0.00</temp>
<bpm>0</bpm>
<rpm>0.00</rpm>
</extensions>
</trkpt>
<trkpt lat="64.309829712" lon="-20.305278778">
<ele>109.160156</ele>
<time>2012-07-20T10:27:19Z</time>
<speed>0.010000</speed>
<extensions>
<speed>0.0</speed>
<temp>0.00</temp>
<bpm>0</bpm>
<rpm>0.00</rpm>
</extensions>
</trkpt>
<trkpt lat="64.309829712" lon="-20.305276871">
<ele>109.156250</ele>
<time>2012-07-20T10:27:24Z</time>
<speed>0.030000</speed>
<extensions>
<speed>0.0</speed>
<temp>0.00</temp>
<bpm>0</bpm>
<rpm>0.00</rpm>
</extensions>
</trkpt>
<trkpt lat="64.309829712" lon="-20.305276871">
<ele>109.146484</ele>
<time>2012-07-20T10:27:29Z</time>
<speed>0.020000</speed>
<extensions>
<speed>0.0</speed>
<temp>0.00</temp>
<bpm>0</bpm>
<rpm>0.00</rpm>
</extensions>
</trkpt>
<trkpt lat="64.309829712" lon="-20.305276871">
<ele>109.140625</ele>
<time>2012-07-20T10:27:34Z</time>
<speed>0.010000</speed>
<extensions>
<speed>0.0</speed>
<temp>0.00</temp>
<bpm>0</bpm>
<rpm>0.00</rpm>
</extensions>
</trkpt>
<trkpt lat="64.309829712" lon="-20.305274963">
<ele>109.156250</ele>
<time>2012-07-20T10:27:39Z</time>
<speed>0.020000</speed>
<extensions>
<speed>0.0</speed>
<temp>0.00</temp>
<bpm>0</bpm>
<rpm>0.00</rpm>
</extensions>
</trkpt>
<trkpt lat="64.309829712" lon="-20.305274963">
<ele>109.150391</ele>
<time>2012-07-20T10:27:44Z</time>
<speed>0.010000</speed>
<extensions>
<speed>0.0</speed>
<temp>0.00</temp>
<bpm>0</bpm>
<rpm>0.00</rpm>
</extensions>
</trkpt>
<trkpt lat="64.309829712" lon="-20.305274963">
<ele>109.148438</ele>
<time>2012-07-20T10:27:49Z</time>
<speed>0.010000</speed>
<extensions>
<speed>0.0</speed>
<temp>0.00</temp>
<bpm>0</bpm>
<rpm>0.00</rpm>
</extensions>
</trkpt>
<trkpt lat="64.309829712" lon="-20.305274963">
<ele>109.146484</ele>
<time>2012-07-20T10:27:54Z</time>
<speed>0.010000</speed>
<extensions>
<speed>0.0</speed>
<temp>0.00</temp>
<bpm>0</bpm>
<rpm>0.00</rpm>
</extensions>
</trkpt>
<trkpt lat="64.309829712" lon="-20.305273056">
<ele>109.146484</ele>
<time>2012-07-20T10:27:59Z</time>
<speed>0.010000</speed>
<extensions>
<speed>0.0</speed>
<temp>0.00</temp>
<bpm>0</bpm>
<rpm>0.00</rpm>
</extensions>
</trkpt>
<trkpt lat="64.309829712" lon="-20.305273056">
<ele>109.162109</ele>
<time>2012-07-20T10:28:04Z</time>
<extensions>
<speed>0.0</speed>
<temp>0.00</temp>
<bpm>0</bpm>
<rpm>0.00</rpm>
</extensions>
</trkpt>
<trkpt lat="64.309829712" lon="-20.305273056">
<ele>109.181641</ele>
<time>2012-07-20T10:28:09Z</time>
<speed>0.010000</speed>
<extensions>
<speed>0.0</speed>
<temp>0.00</temp>
<bpm>0</bpm>
<rpm>0.00</rpm>
</extensions>
</trkpt>
<trkpt lat="64.309829712" lon="-20.305273056">
<ele>109.193359</ele>
<time>2012-07-20T10:28:14Z</time>
<speed>0.010000</speed>
<extensions>
<speed>0.0</speed>
<temp>0.00</temp>
<bpm>0</bpm>
<rpm>0.00</rpm>
</extensions>
</trkpt>
<trkpt lat="64.309829712" lon="-20.305273056">
<ele>109.207031</ele>
<time>2012-07-20T10:28:19Z</time>
<extensions>
<speed>0.0</speed>
<temp>0.00</temp>
<bpm>0</bpm>
<rpm>0.00</rpm>
</extensions>
</trkpt>
<trkpt lat="64.309829712" lon="-20.305271149">
<ele>109.234375</ele>
<time>2012-07-20T10:28:24Z</time>
<extensions>
<speed>0.0</speed>
<temp>0.00</temp>
<bpm>0</bpm>
<rpm>0.00</rpm>
</extensions>
</trkpt>
<trkpt lat="64.309829712" lon="-20.305271149">
<ele>109.236328</ele>
<time>2012-07-20T10:28:29Z</time>
<extensions>
<speed>0.0</speed>
<temp>0.00</temp>
<bpm>0</bpm>
<rpm>0.00</rpm>
</extensions>
</trkpt>
<trkpt lat="64.309829712" lon="-20.305271149">
<ele>109.246094</ele>
<time>2012-07-20T10:28:34Z</time>
<speed>0.020000</speed>
<extensions>
<speed>0.0</speed>
<temp>0.00</temp>
<bpm>0</bpm>
<rpm>0.00</rpm>
</extensions>
</trkpt>
<trkpt lat="64.309837341" lon="-20.305269241">
<ele>109.234375</ele>
<time>2012-07-20T10:28:39Z</time>
<speed>0.030000</speed>
<extensions>
<speed>0.0</speed>
<temp>0.00</temp>
<bpm>0</bpm>
<rpm>0.00</rpm>
</extensions>
</trkpt>
<trkpt lat="64.309837341" lon="-20.305269241">
<ele>109.226563</ele>
<time>2012-07-20T10:28:44Z</time>
<speed>0.010000</speed>
<extensions>
<speed>0.0</speed>
<temp>0.00</temp>
<bpm>0</bpm>
<rpm>0.00</rpm>
</extensions>
</trkpt>
<trkpt lat="64.309837341" lon="-20.305267334">
<ele>109.224609</ele>
<time>2012-07-20T10:28:49Z</time>
<speed>0.020000</speed>
<extensions>
<speed>0.0</speed>
<temp>0.00</temp>
<bpm>0</bpm>
<rpm>0.00</rpm>
</extensions>
</trkpt>
<trkpt lat="64.309837341" lon="-20.305267334">
<ele>109.224609</ele>
<time>2012-07-20T10:28:54Z</time>
<speed>0.010000</speed>
<extensions>
<speed>0.0</speed>
<temp>0.00</temp>
<bpm>0</bpm>
<rpm>0.00</rpm>
</extensions>
</trkpt>
<trkpt lat="64.309837341" lon="-20.305267334">
<ele>109.216797</ele>
<time>2012-07-20T10:28:59Z</time>
<extensions>
<speed>0.0</speed>
<temp>0.00</temp>
<bpm>0</bpm>
<rpm>0.00</rpm>
</extensions>
</trkpt>
<trkpt lat="64.309837341" lon="-20.305265427">
<ele>109.218750</ele>
<time>2012-07-20T10:29:04Z</time>
<extensions>
<speed>0.0</speed>
<temp>0.00</temp>
<bpm>0</bpm>
<rpm>0.00</rpm>
</extensions>
</trkpt>
<trkpt lat="64.309837341" lon="-20.305265427">
<ele>109.216797</ele>
<time>2012-07-20T10:29:09Z</time>
<speed>0.020000</speed>
<extensions>
<speed>0.0</speed>
<temp>0.00</temp>
<bpm>0</bpm>
<rpm>0.00</rpm>
</extensions>
</trkpt>
<trkpt lat="64.309837341" lon="-20.305263519">
<ele>109.214844</ele>
<time>2012-07-20T10:29:14Z</time>
<speed>0.010000</speed>
<extensions>
<speed>0.0</speed>
<temp>0.00</temp>
<bpm>0</bpm>
<rpm>0.00</rpm>
</extensions>
</trkpt>
<trkpt lat="64.309837341" lon="-20.305263519">
<ele>109.189453</ele>
<time>2012-07-20T10:29:19Z</time>
<speed>0.010000</speed>
<extensions>
<speed>0.0</speed>
<temp>0.00</temp>
<bpm>0</bpm>
<rpm>0.00</rpm>
</extensions>
</trkpt>
<trkpt lat="64.309837341" lon="-20.305261612">
<ele>109.167969</ele>
<time>2012-07-20T10:29:24Z</time>
<speed>0.030000</speed>
<extensions>
<speed>0.0</speed>
<temp>0.00</temp>
<bpm>0</bpm>
<rpm>0.00</rpm>
</extensions>
</trkpt>
<trkpt lat="64.309837341" lon="-20.305261612">
<ele>109.169922</ele>
<time>2012-07-20T10:29:29Z</time>
<speed>0.020000</speed>
<extensions>
<speed>0.0</speed>
<temp>0.00</temp>
<bpm>0</bpm>
<rpm>0.00</rpm>
</extensions>
</trkpt>
<trkpt lat="64.309837341" lon="-20.305259705">
<ele>109.164063</ele>
<time>2012-07-20T10:29:34Z</time>
<speed>0.020000</speed>
<extensions>
<speed>0.0</speed>
<temp>0.00</temp>
<bpm>0</bpm>
<rpm>0.00</rpm>
</extensions>
</trkpt>
<trkpt lat="64.309837341" lon="-20.305259705">
<ele>109.158203</ele>
<time>2012-07-20T10:29:39Z</time>
<speed>0.010000</speed>
<extensions>
<speed>0.0</speed>
<temp>0.00</temp>
<bpm>0</bpm>
<rpm>0.00</rpm>
</extensions>
</trkpt>
<trkpt lat="64.309837341" lon="-20.305259705">
<ele>109.154297</ele>
<time>2012-07-20T10:29:44Z</time>
<speed>0.010000</speed>
<extensions>
<speed>0.0</speed>
<temp>0.00</temp>
<bpm>0</bpm>
<rpm>0.00</rpm>
</extensions>
</trkpt>
<trkpt lat="64.309837341" lon="-20.305257797">
<ele>109.156250</ele>
<time>2012-07-20T10:29:49Z</time>
<speed>0.010000</speed>
<extensions>
<speed>0.0</speed>
<temp>0.00</temp>
<bpm>0</bpm>
<rpm>0.00</rpm>
</extensions>
</trkpt>
<trkpt lat="64.309837341" lon="-20.305257797">
<ele>109.154297</ele>
<time>2012-07-20T10:29:54Z</time>
<extensions>
<speed>0.0</speed>
<temp>0.00</temp>
<bpm>0</bpm>
<rpm>0.00</rpm>
</extensions>
</trkpt>
<trkpt lat="64.309837341" lon="-20.305257797">
<ele>109.148438</ele>
<time>2012-07-20T10:29:59Z</time>
<speed>0.010000</speed>
<extensions>
<speed>0.0</speed>
<temp>0.00</temp>
<bpm>0</bpm>
<rpm>0.00</rpm>
</extensions>
</trkpt>
<trkpt lat="64.309837341" lon="-20.305257797">
<ele>109.148438</ele>
<time>2012-07-20T10:30:04Z</time>
<speed>0.010000</speed>
<extensions>
<speed>0.0</speed>
<temp>0.00</temp>
<bpm>0</bpm>
<rpm>0.00</rpm>
</extensions>
</trkpt>
<trkpt lat="64.309837341" lon="-20.305255890">
<ele>109.130859</ele>
<time>2012-07-20T10:30:09Z</time>
<speed>0.010000</speed>
<extensions>
<speed>0.0</speed>
<temp>0.00</temp>
<bpm>0</bpm>
<rpm>0.00</rpm>
</extensions>
</trkpt>
<trkpt lat="64.309837341" lon="-20.305255890">
<ele>109.117188</ele>
<time>2012-07-20T10:30:14Z</time>
<speed>0.030000</speed>
<extensions>
<speed>0.0</speed>
<temp>0.00</temp>
<bpm>0</bpm>
<rpm>0.00</rpm>
</extensions>
</trkpt>
<trkpt lat="64.309837341" lon="-20.305255890">
<ele>109.111328</ele>
<time>2012-07-20T10:30:19Z</time>
<speed>0.010000</speed>
<extensions>
<speed>0.0</speed>
<temp>0.00</temp>
<bpm>0</bpm>
<rpm>0.00</rpm>
</extensions>
</trkpt>
<trkpt lat="64.309837341" lon="-20.305253983">
<ele>109.109375</ele>
<time>2012-07-20T10:30:24Z</time>
<speed>0.020000</speed>
<extensions>
<speed>0.0</speed>
<temp>0.00</temp>
<bpm>0</bpm>
<rpm>0.00</rpm>
</extensions>
</trkpt>
<trkpt lat="64.309837341" lon="-20.305253983">
<ele>109.101563</ele>
<time>2012-07-20T10:30:29Z</time>
<speed>0.020000</speed>
<extensions>
<speed>0.0</speed>
<temp>0.00</temp>
<bpm>0</bpm>
<rpm>0.00</rpm>
</extensions>
</trkpt>
<trkpt lat="64.309837341" lon="-20.305253983">
<ele>109.101563</ele>
<time>2012-07-20T10:30:34Z</time>
<speed>0.010000</speed>
<extensions>
<speed>0.0</speed>
<temp>0.00</temp>
<bpm>0</bpm>
<rpm>0.00</rpm>
</extensions>
</trkpt>
<trkpt lat="64.309837341" lon="-20.305252075">
<ele>109.099609</ele>
<time>2012-07-20T10:30:39Z</time>
<speed>0.020000</speed>
<extensions>
<speed>0.0</speed>
<temp>0.00</temp>
<bpm>0</bpm>
<rpm>0.00</rpm>
</extensions>
</trkpt>
<trkpt lat="64.309837341" lon="-20.305252075">
<ele>109.101563</ele>
<time>2012-07-20T10:30:44Z</time>
<extensions>
<speed>0.0</speed>
<temp>0.00</temp>
<bpm>0</bpm>
<rpm>0.00</rpm>
</extensions>
</trkpt>
<trkpt lat="64.309837341" lon="-20.305250168">
<ele>109.087891</ele>
<time>2012-07-20T10:30:49Z</time>
<speed>0.010000</speed>
<extensions>
<speed>0.0</speed>
<temp>0.00</temp>
<bpm>0</bpm>
<rpm>0.00</rpm>
</extensions>
</trkpt>
<trkpt lat="64.309837341" lon="-20.305250168">
<ele>109.078125</ele>
<time>2012-07-20T10:30:54Z</time>
<speed>0.030000</speed>
<extensions>
<speed>0.0</speed>
<temp>0.00</temp>
<bpm>0</bpm>
<rpm>0.00</rpm>
</extensions>
</trkpt>
<trkpt lat="64.309837341" lon="-20.305248260">
<ele>109.068359</ele>
<time>2012-07-20T10:30:59Z</time>
<extensions>
<speed>0.0</speed>
<temp>0.00</temp>
<bpm>0</bpm>
<rpm>0.00</rpm>
</extensions>
</trkpt>
<trkpt lat="64.309837341" lon="-20.305248260">
<ele>109.072266</ele>
<time>2012-07-20T10:31:04Z</time>
<speed>0.020000</speed>
<extensions>
<speed>0.0</speed>
<temp>0.00</temp>
<bpm>0</bpm>
<rpm>0.00</rpm>
</extensions>
</trkpt>
<trkpt lat="64.309837341" lon="-20.305248260">
<ele>109.074219</ele>
<time>2012-07-20T10:31:09Z</time>
<speed>0.030000</speed>
<extensions>
<speed>0.0</speed>
<temp>0.00</temp>
<bpm>0</bpm>
<rpm>0.00</rpm>
</extensions>
</trkpt>
<trkpt lat="64.309837341" lon="-20.305246353">
<ele>109.062500</ele>
<time>2012-07-20T10:31:14Z</time>
<speed>0.010000</speed>
<extensions>
<speed>0.0</speed>
<temp>0.00</temp>
<bpm>0</bpm>
<rpm>0.00</rpm>
</extensions>
</trkpt>
<trkpt lat="64.309837341" lon="-20.305246353">
<ele>109.039063</ele>
<time>2012-07-20T10:31:19Z</time>
<speed>0.020000</speed>
<extensions>
<speed>0.0</speed>
<temp>0.00</temp>
<bpm>0</bpm>
<rpm>0.00</rpm>
</extensions>
</trkpt>
<trkpt lat="64.309837341" lon="-20.305242538">
<ele>109.001953</ele>
<time>2012-07-20T10:31:24Z</time>
<speed>0.080000</speed>
<extensions>
<speed>0.1</speed>
<temp>0.00</temp>
<bpm>0</bpm>
<rpm>0.00</rpm>
</extensions>
</trkpt>
<trkpt lat="64.309844971" lon="-20.305231094">
<ele>108.908203</ele>
<time>2012-07-20T10:31:29Z</time>
<speed>0.150000</speed>
<extensions>
<speed>0.2</speed>
<temp>0.00</temp>
<bpm>0</bpm>
<rpm>0.00</rpm>
</extensions>
</trkpt>
<trkpt lat="64.309844971" lon="-20.305212021">
<ele>108.808594</ele>
<time>2012-07-20T10:31:34Z</time>
<speed>0.170000</speed>
<extensions>
<speed>0.2</speed>
<temp>0.00</temp>
<bpm>0</bpm>
<rpm>0.00</rpm>
</extensions>
</trkpt>
<trkpt lat="64.309844971" lon="-20.305200577">
<ele>108.750000</ele>
<time>2012-07-20T10:31:39Z</time>
<speed>0.090000</speed>
<extensions>
<speed>0.1</speed>
<temp>0.00</temp>
<bpm>0</bpm>
<rpm>0.00</rpm>
</extensions>
</trkpt>
<trkpt lat="64.309844971" lon="-20.305192947">
<ele>108.707031</ele>
<time>2012-07-20T10:31:44Z</time>
<speed>0.060000</speed>
<extensions>
<speed>0.1</speed>
<temp>0.00</temp>
<bpm>0</bpm>
<rpm>0.00</rpm>
</extensions>
</trkpt>
<trkpt lat="64.309844971" lon="-20.305191040">
<ele>108.642578</ele>
<time>2012-07-20T10:31:49Z</time>
<extensions>
<speed>0.0</speed>
<temp>0.00</temp>
<bpm>0</bpm>
<rpm>0.00</rpm>
</extensions>
</trkpt>
<trkpt lat="64.309844971" lon="-20.305191040">
<ele>108.523438</ele>
<time>2012-07-20T10:31:54Z</time>
<extensions>
<speed>0.0</speed>
<temp>0.00</temp>
<bpm>0</bpm>
<rpm>0.00</rpm>
</extensions>
</trkpt>
<trkpt lat="64.309844971" lon="-20.305191040">
<ele>108.501953</ele>
<time>2012-07-20T10:31:59Z</time>
<extensions>
<speed>0.0</speed>
<temp>0.00</temp>
<bpm>0</bpm>
<rpm>0.00</rpm>
</extensions>
</trkpt>
<trkpt lat="64.309844971" lon="-20.305192947">
<ele>108.511719</ele>
<time>2012-07-20T10:32:04Z</time>
<extensions>
<speed>0.0</speed>
<temp>0.00</temp>
<bpm>0</bpm>
<rpm>0.00</rpm>
</extensions>
</trkpt>
<trkpt lat="64.309844971" lon="-20.305192947">
<ele>108.505859</ele>
<time>2012-07-20T10:32:09Z</time>
<speed>0.010000</speed>
<extensions>
<speed>0.0</speed>
<temp>0.00</temp>
<bpm>0</bpm>
<rpm>0.00</rpm>
</extensions>
</trkpt>
<trkpt lat="64.309844971" lon="-20.305192947">
<ele>108.496094</ele>
<time>2012-07-20T10:32:14Z</time>
<speed>0.010000</speed>
<extensions>
<speed>0.0</speed>
<temp>0.00</temp>
<bpm>0</bpm>
<rpm>0.00</rpm>
</extensions>
</trkpt>
<trkpt lat="64.309844971" lon="-20.305192947">
<ele>108.492188</ele>
<time>2012-07-20T10:32:19Z</time>
<extensions>
<speed>0.0</speed>
<temp>0.00</temp>
<bpm>0</bpm>
<rpm>0.00</rpm>
</extensions>
</trkpt>
<trkpt lat="64.309844971" lon="-20.305192947">
<ele>108.494141</ele>
<time>2012-07-20T10:32:24Z</time>
<speed>0.010000</speed>
<extensions>
<speed>0.0</speed>
<temp>0.00</temp>
<bpm>0</bpm>
<rpm>0.00</rpm>
</extensions>
</trkpt>
<trkpt lat="64.309844971" lon="-20.305192947">
<ele>108.476563</ele>
<time>2012-07-20T10:32:29Z</time>
<extensions>
<speed>0.0</speed>
<temp>0.00</temp>
<bpm>0</bpm>
<rpm>0.00</rpm>
</extensions>
</trkpt>
<trkpt lat="64.309844971" lon="-20.305192947">
<ele>108.460938</ele>
<time>2012-07-20T10:32:34Z</time>
<speed>0.010000</speed>
<extensions>
<speed>0.0</speed>
<temp>0.00</temp>
<bpm>0</bpm>
<rpm>0.00</rpm>
</extensions>
</trkpt>
<trkpt lat="64.309844971" lon="-20.305192947">
<ele>108.445313</ele>
<time>2012-07-20T10:32:39Z</time>
<speed>0.010000</speed>
<extensions>
<speed>0.0</speed>
<temp>0.00</temp>
<bpm>0</bpm>
<rpm>0.00</rpm>
</extensions>
</trkpt>
<trkpt lat="64.309852600" lon="-20.305192947">
<ele>108.439453</ele>
<time>2012-07-20T10:32:44Z</time>
<extensions>
<speed>0.0</speed>
<temp>0.00</temp>
<bpm>0</bpm>
<rpm>0.00</rpm>
</extensions>
</trkpt>
<trkpt lat="64.309844971" lon="-20.305192947">
<ele>108.482422</ele>
<time>2012-07-20T10:32:49Z</time>
<speed>0.010000</speed>
<extensions>
<speed>0.0</speed>
<temp>0.00</temp>
<bpm>0</bpm>
<rpm>0.00</rpm>
</extensions>
</trkpt>
<trkpt lat="64.309844971" lon="-20.305192947">
<ele>108.509766</ele>
<time>2012-07-20T10:32:54Z</time>
<speed>0.010000</speed>
<extensions>
<speed>0.0</speed>
<temp>0.00</temp>
<bpm>0</bpm>
<rpm>0.00</rpm>
</extensions>
</trkpt>
<trkpt lat="64.309844971" lon="-20.305192947">
<ele>108.523438</ele>
<time>2012-07-20T10:32:59Z</time>
<extensions>
<speed>0.0</speed>
<temp>0.00</temp>
<bpm>0</bpm>
<rpm>0.00</rpm>
</extensions>
</trkpt>
<trkpt lat="64.309844971" lon="-20.305192947">
<ele>108.515625</ele>
<time>2012-07-20T10:33:04Z</time>
<extensions>
<speed>0.0</speed>
<temp>0.00</temp>
<bpm>0</bpm>
<rpm>0.00</rpm>
</extensions>
</trkpt>
<trkpt lat="64.309844971" lon="-20.305192947">
<ele>108.494141</ele>
<time>2012-07-20T10:33:09Z</time>
<extensions>
<speed>0.0</speed>
<temp>0.00</temp>
<bpm>0</bpm>
<rpm>0.00</rpm>
</extensions>
</trkpt>
<trkpt lat="64.309852600" lon="-20.305192947">
<ele>108.470703</ele>
<time>2012-07-20T10:33:14Z</time>
<extensions>
<speed>0.0</speed>
<temp>0.00</temp>
<bpm>0</bpm>
<rpm>0.00</rpm>
</extensions>
</trkpt>
<trkpt lat="64.309852600" lon="-20.305192947">
<ele>108.468750</ele>
<time>2012-07-20T10:33:19Z</time>
<speed>0.010000</speed>
<extensions>
<speed>0.0</speed>
<temp>0.00</temp>
<bpm>0</bpm>
<rpm>0.00</rpm>
</extensions>
</trkpt>
<trkpt lat="64.309852600" lon="-20.305192947">
<ele>108.439453</ele>
<time>2012-07-20T10:33:24Z</time>
<extensions>
<speed>0.0</speed>
<temp>0.00</temp>
<bpm>0</bpm>
<rpm>0.00</rpm>
</extensions>
</trkpt>
<trkpt lat="64.309852600" lon="-20.305192947">
<ele>108.365234</ele>
<time>2012-07-20T10:33:29Z</time>
<speed>0.010000</speed>
<extensions>
<speed>0.0</speed>
<temp>0.00</temp>
<bpm>0</bpm>
<rpm>0.00</rpm>
</extensions>
</trkpt>
<trkpt lat="64.309852600" lon="-20.305191040">
<ele>108.263672</ele>
<time>2012-07-20T10:33:34Z</time>
<speed>0.010000</speed>
<extensions>
<speed>0.0</speed>
<temp>0.00</temp>
<bpm>0</bpm>
<rpm>0.00</rpm>
</extensions>
</trkpt>
<trkpt lat="64.309852600" lon="-20.305191040">
<ele>108.140625</ele>
<time>2012-07-20T10:33:39Z</time>
<speed>0.010000</speed>
<extensions>
<speed>0.0</speed>
<temp>0.00</temp>
<bpm>0</bpm>
<rpm>0.00</rpm>
</extensions>
</trkpt>
<trkpt lat="64.309852600" lon="-20.305191040">
<ele>108.019531</ele>
<time>2012-07-20T10:33:44Z</time>
<extensions>
<speed>0.0</speed>
<temp>0.00</temp>
<bpm>0</bpm>
<rpm>0.00</rpm>
</extensions>
</trkpt>
<trkpt lat="64.309852600" lon="-20.305191040">
<ele>107.927734</ele>
<time>2012-07-20T10:33:49Z</time>
<extensions>
<speed>0.0</speed>
<temp>0.00</temp>
<bpm>0</bpm>
<rpm>0.00</rpm>
</extensions>
</trkpt>
<trkpt lat="64.309852600" lon="-20.305189133">
<ele>107.843750</ele>
<time>2012-07-20T10:33:54Z</time>
<speed>0.010000</speed>
<extensions>
<speed>0.0</speed>
<temp>0.00</temp>
<bpm>0</bpm>
<rpm>0.00</rpm>
</extensions>
</trkpt>
<trkpt lat="64.309852600" lon="-20.305189133">
<ele>107.748047</ele>
<time>2012-07-20T10:33:59Z</time>
<speed>0.010000</speed>
<extensions>
<speed>0.0</speed>
<temp>0.00</temp>
<bpm>0</bpm>
<rpm>0.00</rpm>
</extensions>
</trkpt>
<trkpt lat="64.309852600" lon="-20.305189133">
<ele>107.658203</ele>
<time>2012-07-20T10:34:04Z</time>
<extensions>
<speed>0.0</speed>
<temp>0.00</temp>
<bpm>0</bpm>
<rpm>0.00</rpm>
</extensions>
</trkpt>
<trkpt lat="64.309852600" lon="-20.305189133">
<ele>107.644531</ele>
<time>2012-07-20T10:34:09Z</time>
<extensions>
<speed>0.0</speed>
<temp>0.00</temp>
<bpm>0</bpm>
<rpm>0.00</rpm>
</extensions>
</trkpt>
<trkpt lat="64.309852600" lon="-20.305189133">
<ele>107.619141</ele>
<time>2012-07-20T10:34:14Z</time>
<extensions>
<speed>0.0</speed>
<temp>0.00</temp>
<bpm>0</bpm>
<rpm>0.00</rpm>
</extensions>
</trkpt>
<trkpt lat="64.309852600" lon="-20.305189133">
<ele>107.562500</ele>
<time>2012-07-20T10:34:19Z</time>
<extensions>
<speed>0.0</speed>
<temp>0.00</temp>
<bpm>0</bpm>
<rpm>0.00</rpm>
</extensions>
</trkpt>
<trkpt lat="64.309852600" lon="-20.305189133">
<ele>107.556641</ele>
<time>2012-07-20T10:34:24Z</time>
<extensions>
<speed>0.0</speed>
<temp>0.00</temp>
<bpm>0</bpm>
<rpm>0.00</rpm>
</extensions>
</trkpt>
<trkpt lat="64.309852600" lon="-20.305189133">
<ele>107.570313</ele>
<time>2012-07-20T10:34:29Z</time>
<extensions>
<speed>0.0</speed>
<temp>0.00</temp>
<bpm>0</bpm>
<rpm>0.00</rpm>
</extensions>
</trkpt>
<trkpt lat="64.309852600" lon="-20.305189133">
<ele>107.546875</ele>
<time>2012-07-20T10:34:34Z</time>
<extensions>
<speed>0.0</speed>
<temp>0.00</temp>
<bpm>0</bpm>
<rpm>0.00</rpm>
</extensions>
</trkpt>
<trkpt lat="64.309852600" lon="-20.305189133">
<ele>107.525391</ele>
<time>2012-07-20T10:34:39Z</time>
<extensions>
<speed>0.0</speed>
<temp>0.00</temp>
<bpm>0</bpm>
<rpm>0.00</rpm>
</extensions>
</trkpt>
<trkpt lat="64.309852600" lon="-20.305189133">
<ele>107.513672</ele>
<time>2012-07-20T10:34:44Z</time>
<extensions>
<speed>0.0</speed>
<temp>0.00</temp>
<bpm>0</bpm>
<rpm>0.00</rpm>
</extensions>
</trkpt>
<trkpt lat="64.309852600" lon="-20.305189133">
<ele>107.496094</ele>
<time>2012-07-20T10:34:49Z</time>
<extensions>
<speed>0.0</speed>
<temp>0.00</temp>
<bpm>0</bpm>
<rpm>0.00</rpm>
</extensions>
</trkpt>
<trkpt lat="64.309852600" lon="-20.305189133">
<ele>107.466797</ele>
<time>2012-07-20T10:34:54Z</time>
<extensions>
<speed>0.0</speed>
<temp>0.00</temp>
<bpm>0</bpm>
<rpm>0.00</rpm>
</extensions>
</trkpt>
<trkpt lat="64.309852600" lon="-20.305189133">
<ele>107.460938</ele>
<time>2012-07-20T10:34:59Z</time>
<speed>0.010000</speed>
<extensions>
<speed>0.0</speed>
<temp>0.00</temp>
<bpm>0</bpm>
<rpm>0.00</rpm>
</extensions>
</trkpt>
<trkpt lat="64.309852600" lon="-20.305189133">
<ele>107.455078</ele>
<time>2012-07-20T10:35:04Z</time>
<extensions>
<speed>0.0</speed>
<temp>0.00</temp>
<bpm>0</bpm>
<rpm>0.00</rpm>
</extensions>
</trkpt>
<trkpt lat="64.309852600" lon="-20.305189133">
<ele>107.453125</ele>
<time>2012-07-20T10:35:09Z</time>
<extensions>
<speed>0.0</speed>
<temp>0.00</temp>
<bpm>0</bpm>
<rpm>0.00</rpm>
</extensions>
</trkpt>
<trkpt lat="64.309852600" lon="-20.305189133">
<ele>107.462891</ele>
<time>2012-07-20T10:35:14Z</time>
<extensions>
<speed>0.0</speed>
<temp>0.00</temp>
<bpm>0</bpm>
<rpm>0.00</rpm>
</extensions>
</trkpt>
<trkpt lat="64.309852600" lon="-20.305191040">
<ele>107.449219</ele>
<time>2012-07-20T10:35:19Z</time>
<extensions>
<speed>0.0</speed>
<temp>0.00</temp>
<bpm>0</bpm>
<rpm>0.00</rpm>
</extensions>
</trkpt>
<trkpt lat="64.309860229" lon="-20.305191040">
<ele>107.419922</ele>
<time>2012-07-20T10:35:24Z</time>
<extensions>
<speed>0.0</speed>
<temp>0.00</temp>
<bpm>0</bpm>
<rpm>0.00</rpm>
</extensions>
</trkpt>
<trkpt lat="64.309860229" lon="-20.305191040">
<ele>107.412109</ele>
<time>2012-07-20T10:35:29Z</time>
<speed>0.010000</speed>
<extensions>
<speed>0.0</speed>
<temp>0.00</temp>
<bpm>0</bpm>
<rpm>0.00</rpm>
</extensions>
</trkpt>
<trkpt lat="64.309860229" lon="-20.305191040">
<ele>107.404297</ele>
<time>2012-07-20T10:35:34Z</time>
<speed>0.010000</speed>
<extensions>
<speed>0.0</speed>
<temp>0.00</temp>
<bpm>0</bpm>
<rpm>0.00</rpm>
</extensions>
</trkpt>
<trkpt lat="64.309860229" lon="-20.305192947">
<ele>107.408203</ele>
<time>2012-07-20T10:35:39Z</time>
<extensions>
<speed>0.0</speed>
<temp>0.00</temp>
<bpm>0</bpm>
<rpm>0.00</rpm>
</extensions>
</trkpt>
<trkpt lat="64.309860229" lon="-20.305192947">
<ele>107.441406</ele>
<time>2012-07-20T10:35:44Z</time>
<speed>0.010000</speed>
<extensions>
<speed>0.0</speed>
<temp>0.00</temp>
<bpm>0</bpm>
<rpm>0.00</rpm>
</extensions>
</trkpt>
<trkpt lat="64.309860229" lon="-20.305192947">
<ele>107.462891</ele>
<time>2012-07-20T10:35:49Z</time>
<speed>0.010000</speed>
<extensions>
<speed>0.0</speed>
<temp>0.00</temp>
<bpm>0</bpm>
<rpm>0.00</rpm>
</extensions>
</trkpt>
<trkpt lat="64.309852600" lon="-20.305192947">
<ele>107.480469</ele>
<time>2012-07-20T10:35:54Z</time>
<speed>0.010000</speed>
<extensions>
<speed>0.0</speed>
<temp>0.00</temp>
<bpm>0</bpm>
<rpm>0.00</rpm>
</extensions>
</trkpt>
<trkpt lat="64.309852600" lon="-20.305194855">
<ele>107.498047</ele>
<time>2012-07-20T10:35:59Z</time>
<speed>0.010000</speed>
<extensions>
<speed>0.0</speed>
<temp>0.00</temp>
<bpm>0</bpm>
<rpm>0.00</rpm>
</extensions>
</trkpt>
<trkpt lat="64.309852600" lon="-20.305194855">
<ele>107.501953</ele>
<time>2012-07-20T10:36:04Z</time>
<extensions>
<speed>0.0</speed>
<temp>0.00</temp>
<bpm>0</bpm>
<rpm>0.00</rpm>
</extensions>
</trkpt>
<trkpt lat="64.309852600" lon="-20.305196762">
<ele>107.517578</ele>
<time>2012-07-20T10:36:09Z</time>
<speed>0.030000</speed>
<extensions>
<speed>0.0</speed>
<temp>0.00</temp>
<bpm>0</bpm>
<rpm>0.00</rpm>
</extensions>
</trkpt>
<trkpt lat="64.309852600" lon="-20.305198669">
<ele>107.550781</ele>
<time>2012-07-20T10:36:14Z</time>
<speed>0.030000</speed>
<extensions>
<speed>0.0</speed>
<temp>0.00</temp>
<bpm>0</bpm>
<rpm>0.00</rpm>
</extensions>
</trkpt>
<trkpt lat="64.309852600" lon="-20.305200577">
<ele>107.562500</ele>
<time>2012-07-20T10:36:19Z</time>
<speed>0.010000</speed>
<extensions>
<speed>0.0</speed>
<temp>0.00</temp>
<bpm>0</bpm>
<rpm>0.00</rpm>
</extensions>
</trkpt>
<trkpt lat="64.309852600" lon="-20.305200577">
<ele>107.576172</ele>
<time>2012-07-20T10:36:24Z</time>
<extensions>
<speed>0.0</speed>
<temp>0.00</temp>
<bpm>0</bpm>
<rpm>0.00</rpm>
</extensions>
</trkpt>
<trkpt lat="64.309852600" lon="-20.305200577">
<ele>107.587891</ele>
<time>2012-07-20T10:36:29Z</time>
<speed>0.010000</speed>
<extensions>
<speed>0.0</speed>
<temp>0.00</temp>
<bpm>0</bpm>
<rpm>0.00</rpm>
</extensions>
</trkpt>
<trkpt lat="64.309852600" lon="-20.305202484">
<ele>107.607422</ele>
<time>2012-07-20T10:36:34Z</time>
<speed>0.020000</speed>
<extensions>
<speed>0.0</speed>
<temp>0.00</temp>
<bpm>0</bpm>
<rpm>0.00</rpm>
</extensions>
</trkpt>
<trkpt lat="64.309852600" lon="-20.305202484">
<ele>107.615234</ele>
<time>2012-07-20T10:36:39Z</time>
<speed>0.010000</speed>
<extensions>
<speed>0.0</speed>
<temp>0.00</temp>
<bpm>0</bpm>
<rpm>0.00</rpm>
</extensions>
</trkpt>
<trkpt lat="64.309852600" lon="-20.305202484">
<ele>107.615234</ele>
<time>2012-07-20T10:36:44Z</time>
<speed>0.010000</speed>
<extensions>
<speed>0.0</speed>
<temp>0.00</temp>
<bpm>0</bpm>
<rpm>0.00</rpm>
</extensions>
</trkpt>
<trkpt lat="64.309852600" lon="-20.305204391">
<ele>107.626953</ele>
<time>2012-07-20T10:36:49Z</time>
<extensions>
<speed>0.0</speed>
<temp>0.00</temp>
<bpm>0</bpm>
<rpm>0.00</rpm>
</extensions>
</trkpt>
<trkpt lat="64.309852600" lon="-20.305204391">
<ele>107.634766</ele>
<time>2012-07-20T10:36:54Z</time>
<speed>0.020000</speed>
<extensions>
<speed>0.0</speed>
<temp>0.00</temp>
<bpm>0</bpm>
<rpm>0.00</rpm>
</extensions>
</trkpt>
<trkpt lat="64.309852600" lon="-20.305204391">
<ele>107.642578</ele>
<time>2012-07-20T10:36:59Z</time>
<extensions>
<speed>0.0</speed>
<temp>0.00</temp>
<bpm>0</bpm>
<rpm>0.00</rpm>
</extensions>
</trkpt>
<trkpt lat="64.309852600" lon="-20.305204391">
<ele>107.650391</ele>
<time>2012-07-20T10:37:04Z</time>
<extensions>
<speed>0.0</speed>
<temp>0.00</temp>
<bpm>0</bpm>
<rpm>0.00</rpm>
</extensions>
</trkpt>
<trkpt lat="64.309852600" lon="-20.305204391">
<ele>107.671875</ele>
<time>2012-07-20T10:37:09Z</time>
<speed>0.030000</speed>
<extensions>
<speed>0.0</speed>
<temp>0.00</temp>
<bpm>0</bpm>
<rpm>0.00</rpm>
</extensions>
</trkpt>
<trkpt lat="64.309852600" lon="-20.305206299">
<ele>107.683594</ele>
<time>2012-07-20T10:37:14Z</time>
<speed>0.010000</speed>
<extensions>
<speed>0.0</speed>
<temp>0.00</temp>
<bpm>0</bpm>
<rpm>0.00</rpm>
</extensions>
</trkpt>
<trkpt lat="64.309852600" lon="-20.305206299">
<ele>107.703125</ele>
<time>2012-07-20T10:37:19Z</time>
<extensions>
<speed>0.0</speed>
<temp>0.00</temp>
<bpm>0</bpm>
<rpm>0.00</rpm>
</extensions>
</trkpt>
<trkpt lat="64.309852600" lon="-20.305206299">
<ele>107.742188</ele>
<time>2012-07-20T10:37:24Z</time>
<speed>0.010000</speed>
<extensions>
<speed>0.0</speed>
<temp>0.00</temp>
<bpm>0</bpm>
<rpm>0.00</rpm>
</extensions>
</trkpt>
<trkpt lat="64.309852600" lon="-20.305206299">
<ele>107.753906</ele>
<time>2012-07-20T10:37:29Z</time>
<speed>0.010000</speed>
<extensions>
<speed>0.0</speed>
<temp>0.00</temp>
<bpm>0</bpm>
<rpm>0.00</rpm>
</extensions>
</trkpt>
<trkpt lat="64.309852600" lon="-20.305206299">
<ele>107.763672</ele>
<time>2012-07-20T10:37:34Z</time>
<speed>0.010000</speed>
<extensions>
<speed>0.0</speed>
<temp>0.00</temp>
<bpm>0</bpm>
<rpm>0.00</rpm>
</extensions>
</trkpt>
<trkpt lat="64.309852600" lon="-20.305206299">
<ele>107.759766</ele>
<time>2012-07-20T10:37:39Z</time>
<speed>0.020000</speed>
<extensions>
<speed>0.0</speed>
<temp>0.00</temp>
<bpm>0</bpm>
<rpm>0.00</rpm>
</extensions>
</trkpt>
<trkpt lat="64.309852600" lon="-20.305206299">
<ele>107.769531</ele>
<time>2012-07-20T10:37:44Z</time>
<extensions>
<speed>0.0</speed>
<temp>0.00</temp>
<bpm>0</bpm>
<rpm>0.00</rpm>
</extensions>
</trkpt>
<trkpt lat="64.309852600" lon="-20.305206299">
<ele>107.775391</ele>
<time>2012-07-20T10:37:49Z</time>
<extensions>
<speed>0.0</speed>
<temp>0.00</temp>
<bpm>0</bpm>
<rpm>0.00</rpm>
</extensions>
</trkpt>
<trkpt lat="64.309852600" lon="-20.305206299">
<ele>107.787109</ele>
<time>2012-07-20T10:37:54Z</time>
<extensions>
<speed>0.0</speed>
<temp>0.00</temp>
<bpm>0</bpm>
<rpm>0.00</rpm>
</extensions>
</trkpt>
<trkpt lat="64.309852600" lon="-20.305206299">
<ele>107.789063</ele>
<time>2012-07-20T10:37:59Z</time>
<speed>0.010000</speed>
<extensions>
<speed>0.0</speed>
<temp>0.00</temp>
<bpm>0</bpm>
<rpm>0.00</rpm>
</extensions>
</trkpt>
<trkpt lat="64.309852600" lon="-20.305206299">
<ele>107.789063</ele>
<time>2012-07-20T10:38:04Z</time>
<speed>0.010000</speed>
<extensions>
<speed>0.0</speed>
<temp>0.00</temp>
<bpm>0</bpm>
<rpm>0.00</rpm>
</extensions>
</trkpt>
<trkpt lat="64.309852600" lon="-20.305206299">
<ele>107.796875</ele>
<time>2012-07-20T10:38:09Z</time>
<extensions>
<speed>0.0</speed>
<temp>0.00</temp>
<bpm>0</bpm>
<rpm>0.00</rpm>
</extensions>
</trkpt>
<trkpt lat="64.309852600" lon="-20.305206299">
<ele>107.800781</ele>
<time>2012-07-20T10:38:14Z</time>
<speed>0.010000</speed>
<extensions>
<speed>0.0</speed>
<temp>0.00</temp>
<bpm>0</bpm>
<rpm>0.00</rpm>
</extensions>
</trkpt>
<trkpt lat="64.309852600" lon="-20.305206299">
<ele>107.818359</ele>
<time>2012-07-20T10:38:19Z</time>
<extensions>
<speed>0.0</speed>
<temp>0.00</temp>
<bpm>0</bpm>
<rpm>0.00</rpm>
</extensions>
</trkpt>
<trkpt lat="64.309852600" lon="-20.305206299">
<ele>107.818359</ele>
<time>2012-07-20T10:38:24Z</time>
<speed>0.010000</speed>
<extensions>
<speed>0.0</speed>
<temp>0.00</temp>
<bpm>0</bpm>
<rpm>0.00</rpm>
</extensions>
</trkpt>
<trkpt lat="64.309852600" lon="-20.305206299">
<ele>107.832031</ele>
<time>2012-07-20T10:38:29Z</time>
<extensions>
<speed>0.0</speed>
<temp>0.00</temp>
<bpm>0</bpm>
<rpm>0.00</rpm>
</extensions>
</trkpt>
<trkpt lat="64.309852600" lon="-20.305206299">
<ele>107.828125</ele>
<time>2012-07-20T10:38:34Z</time>
<extensions>
<speed>0.0</speed>
<temp>0.00</temp>
<bpm>0</bpm>
<rpm>0.00</rpm>
</extensions>
</trkpt>
<trkpt lat="64.309852600" lon="-20.305206299">
<ele>107.822266</ele>
<time>2012-07-20T10:38:39Z</time>
<extensions>
<speed>0.0</speed>
<temp>0.00</temp>
<bpm>0</bpm>
<rpm>0.00</rpm>
</extensions>
</trkpt>
<trkpt lat="64.309852600" lon="-20.305206299">
<ele>107.832031</ele>
<time>2012-07-20T10:38:44Z</time>
<speed>0.010000</speed>
<extensions>
<speed>0.0</speed>
<temp>0.00</temp>
<bpm>0</bpm>
<rpm>0.00</rpm>
</extensions>
</trkpt>
<trkpt lat="64.309852600" lon="-20.305206299">
<ele>107.843750</ele>
<time>2012-07-20T10:38:49Z</time>
<speed>0.010000</speed>
<extensions>
<speed>0.0</speed>
<temp>0.00</temp>
<bpm>0</bpm>
<rpm>0.00</rpm>
</extensions>
</trkpt>
<trkpt lat="64.309852600" lon="-20.305206299">
<ele>107.833984</ele>
<time>2012-07-20T10:38:54Z</time>
<extensions>
<speed>0.0</speed>
<temp>0.00</temp>
<bpm>0</bpm>
<rpm>0.00</rpm>
</extensions>
</trkpt>
<trkpt lat="64.309852600" lon="-20.305206299">
<ele>107.830078</ele>
<time>2012-07-20T10:38:59Z</time>
<extensions>
<speed>0.0</speed>
<temp>0.00</temp>
<bpm>0</bpm>
<rpm>0.00</rpm>
</extensions>
</trkpt>
<trkpt lat="64.309852600" lon="-20.305208206">
<ele>107.789063</ele>
<time>2012-07-20T10:39:04Z</time>
<speed>0.220000</speed>
<extensions>
<speed>0.2</speed>
<temp>0.00</temp>
<bpm>0</bpm>
<rpm>0.00</rpm>
</extensions>
</trkpt>
<trkpt lat="64.309822083" lon="-20.305255890">
<ele>108.900391</ele>
<time>2012-07-20T10:39:09Z</time>
<speed>2.040000</speed>
<extensions>
<speed>2.0</speed>
<temp>0.00</temp>
<bpm>0</bpm>
<rpm>0.00</rpm>
</extensions>
</trkpt>
<trkpt lat="64.309669495" lon="-20.305233002">
<ele>111.537109</ele>
<time>2012-07-20T10:39:14Z</time>
<speed>3.160000</speed>
<extensions>
<speed>3.2</speed>
<temp>0.00</temp>
<bpm>0</bpm>
<rpm>0.00</rpm>
</extensions>
</trkpt>
<trkpt lat="64.309532166" lon="-20.305152893">
<ele>112.962891</ele>
<time>2012-07-20T10:39:19Z</time>
<speed>2.940000</speed>
<extensions>
<speed>2.9</speed>
<temp>0.00</temp>
<bpm>0</bpm>
<rpm>0.00</rpm>
</extensions>
</trkpt>
<trkpt lat="64.309394836" lon="-20.304925919">
<ele>110.490234</ele>
<time>2012-07-20T10:39:24Z</time>
<speed>3.640000</speed>
<extensions>
<speed>3.6</speed>
<temp>0.00</temp>
<bpm>0</bpm>
<rpm>0.00</rpm>
</extensions>
</trkpt>
<trkpt lat="64.309295654" lon="-20.304649353">
<ele>109.451172</ele>
<time>2012-07-20T10:39:29Z</time>
<speed>3.850000</speed>
<extensions>
<speed>3.8</speed>
<temp>0.00</temp>
<bpm>0</bpm>
<rpm>0.00</rpm>
</extensions>
</trkpt>
<trkpt lat="64.309333801" lon="-20.304277420">
<ele>109.585938</ele>
<time>2012-07-20T10:39:34Z</time>
<speed>3.490000</speed>
<extensions>
<speed>3.5</speed>
<temp>0.00</temp>
<bpm>0</bpm>
<rpm>0.00</rpm>
</extensions>
</trkpt>
<trkpt lat="64.309417725" lon="-20.303939819">
<ele>109.810547</ele>
<time>2012-07-20T10:39:39Z</time>
<speed>3.870000</speed>
<extensions>
<speed>3.9</speed>
<temp>0.00</temp>
<bpm>0</bpm>
<rpm>0.00</rpm>
</extensions>
</trkpt>
<trkpt lat="64.309509277" lon="-20.303607941">
<ele>111.503906</ele>
<time>2012-07-20T10:39:44Z</time>
<speed>3.760000</speed>
<extensions>
<speed>3.8</speed>
<temp>0.00</temp>
<bpm>0</bpm>
<rpm>0.00</rpm>
</extensions>
</trkpt>
<trkpt lat="64.309593201" lon="-20.303285599">
<ele>111.873047</ele>
<time>2012-07-20T10:39:49Z</time>
<speed>3.710000</speed>
<extensions>
<speed>3.7</speed>
<temp>0.00</temp>
<bpm>0</bpm>
<rpm>0.00</rpm>
</extensions>
</trkpt>
<trkpt lat="64.309654236" lon="-20.302967072">
<ele>112.015625</ele>
<time>2012-07-20T10:39:54Z</time>
<speed>3.410000</speed>
<extensions>
<speed>3.4</speed>
<temp>0.00</temp>
<bpm>0</bpm>
<rpm>0.00</rpm>
</extensions>
</trkpt>
<trkpt lat="64.309722900" lon="-20.302627563">
<ele>111.886719</ele>
<time>2012-07-20T10:39:59Z</time>
<speed>3.680000</speed>
<extensions>
<speed>3.7</speed>
<temp>0.00</temp>
<bpm>0</bpm>
<rpm>0.00</rpm>
</extensions>
</trkpt>
<trkpt lat="64.309822083" lon="-20.302289963">
<ele>113.480469</ele>
<time>2012-07-20T10:40:04Z</time>
<speed>3.910000</speed>
<extensions>
<speed>3.9</speed>
<temp>0.00</temp>
<bpm>0</bpm>
<rpm>0.00</rpm>
</extensions>
</trkpt>
<trkpt lat="64.309906006" lon="-20.301980972">
<ele>116.230469</ele>
<time>2012-07-20T10:40:09Z</time>
<speed>3.450000</speed>
<extensions>
<speed>3.5</speed>
<temp>0.00</temp>
<bpm>0</bpm>
<rpm>0.00</rpm>
</extensions>
</trkpt>
<trkpt lat="64.309982300" lon="-20.301675797">
<ele>117.208984</ele>
<time>2012-07-20T10:40:14Z</time>
<speed>3.430000</speed>
<extensions>
<speed>3.4</speed>
<temp>0.00</temp>
<bpm>0</bpm>
<rpm>0.00</rpm>
</extensions>
</trkpt>
<trkpt lat="64.310066223" lon="-20.301351547">
<ele>116.744141</ele>
<time>2012-07-20T10:40:19Z</time>
<speed>3.490000</speed>
<extensions>
<speed>3.5</speed>
<temp>0.00</temp>
<bpm>0</bpm>
<rpm>0.00</rpm>
</extensions>
</trkpt>
<trkpt lat="64.310165405" lon="-20.301076889">
<ele>116.742188</ele>
<time>2012-07-20T10:40:24Z</time>
<speed>2.970000</speed>
<extensions>
<speed>3.0</speed>
<temp>0.00</temp>
<bpm>0</bpm>
<rpm>0.00</rpm>
</extensions>
</trkpt>
<trkpt lat="64.310256958" lon="-20.300830841">
<ele>116.941406</ele>
<time>2012-07-20T10:40:29Z</time>
<speed>3.360000</speed>
<extensions>
<speed>3.4</speed>
<temp>0.00</temp>
<bpm>0</bpm>
<rpm>0.00</rpm>
</extensions>
</trkpt>
<trkpt lat="64.310363770" lon="-20.300558090">
<ele>116.582031</ele>
<time>2012-07-20T10:40:34Z</time>
<speed>3.560000</speed>
<extensions>
<speed>3.6</speed>
<temp>0.00</temp>
<bpm>0</bpm>
<rpm>0.00</rpm>
</extensions>
</trkpt>
<trkpt lat="64.310470581" lon="-20.300287247">
<ele>116.521484</ele>
<time>2012-07-20T10:40:39Z</time>
<speed>3.590000</speed>
<extensions>
<speed>3.6</speed>
<temp>0.00</temp>
<bpm>0</bpm>
<rpm>0.00</rpm>
</extensions>
</trkpt>
<trkpt lat="64.310600281" lon="-20.300025940">
<ele>116.640625</ele>
<time>2012-07-20T10:40:44Z</time>
<speed>3.690000</speed>
<extensions>
<speed>3.7</speed>
<temp>0.00</temp>
<bpm>0</bpm>
<rpm>0.00</rpm>
</extensions>
</trkpt>
<trkpt lat="64.310729980" lon="-20.299787521">
<ele>116.726563</ele>
<time>2012-07-20T10:40:49Z</time>
<speed>3.910000</speed>
<extensions>
<speed>3.9</speed>
<temp>0.00</temp>
<bpm>0</bpm>
<rpm>0.00</rpm>
</extensions>
</trkpt>
<trkpt lat="64.310867310" lon="-20.299552917">
<ele>116.687500</ele>
<time>2012-07-20T10:40:54Z</time>
<speed>3.780000</speed>
<extensions>
<speed>3.8</speed>
<temp>0.00</temp>
<bpm>0</bpm>
<rpm>0.00</rpm>
</extensions>
</trkpt>
<trkpt lat="64.311012268" lon="-20.299314499">
<ele>117.230469</ele>
<time>2012-07-20T10:40:59Z</time>
<speed>4.010000</speed>
<extensions>
<speed>4.0</speed>
<temp>0.00</temp>
<bpm>0</bpm>
<rpm>0.00</rpm>
</extensions>
</trkpt>
<trkpt lat="64.311157227" lon="-20.299070358">
<ele>117.533203</ele>
<time>2012-07-20T10:41:04Z</time>
<speed>4.020000</speed>
<extensions>
<speed>4.0</speed>
<temp>0.00</temp>
<bpm>0</bpm>
<rpm>0.00</rpm>
</extensions>
</trkpt>
<trkpt lat="64.311294556" lon="-20.298789978">
<ele>117.945313</ele>
<time>2012-07-20T10:41:09Z</time>
<speed>3.870000</speed>
<extensions>
<speed>3.9</speed>
<temp>0.00</temp>
<bpm>0</bpm>
<rpm>0.00</rpm>
</extensions>
</trkpt>
<trkpt lat="64.311431885" lon="-20.298488617">
<ele>118.109375</ele>
<time>2012-07-20T10:41:14Z</time>
<speed>4.040000</speed>
<extensions>
<speed>4.0</speed>
<temp>0.00</temp>
<bpm>0</bpm>
<rpm>0.00</rpm>
</extensions>
</trkpt>
<trkpt lat="64.311561584" lon="-20.298187256">
<ele>118.240234</ele>
<time>2012-07-20T10:41:19Z</time>
<speed>3.990000</speed>
<extensions>
<speed>4.0</speed>
<temp>0.00</temp>
<bpm>0</bpm>
<rpm>0.00</rpm>
</extensions>
</trkpt>
<trkpt lat="64.311676025" lon="-20.297874451">
<ele>117.896484</ele>
<time>2012-07-20T10:41:24Z</time>
<speed>4.070000</speed>
<extensions>
<speed>4.1</speed>
<temp>0.00</temp>
<bpm>0</bpm>
<rpm>0.00</rpm>
</extensions>
</trkpt>
<trkpt lat="64.311790466" lon="-20.297536850">
<ele>117.816406</ele>
<time>2012-07-20T10:41:29Z</time>
<speed>4.020000</speed>
<extensions>
<speed>4.0</speed>
<temp>0.00</temp>
<bpm>0</bpm>
<rpm>0.00</rpm>
</extensions>
</trkpt>
<trkpt lat="64.311889648" lon="-20.297174454">
<ele>117.910156</ele>
<time>2012-07-20T10:41:34Z</time>
<speed>4.060000</speed>
<extensions>
<speed>4.1</speed>
<temp>0.00</temp>
<bpm>0</bpm>
<rpm>0.00</rpm>
</extensions>
</trkpt>
<trkpt lat="64.311973572" lon="-20.296802521">
<ele>117.015625</ele>
<time>2012-07-20T10:41:39Z</time>
<speed>4.120000</speed>
<extensions>
<speed>4.1</speed>
<temp>0.00</temp>
<bpm>0</bpm>
<rpm>0.00</rpm>
</extensions>
</trkpt>
<trkpt lat="64.312065125" lon="-20.296409607">
<ele>117.255859</ele>
<time>2012-07-20T10:41:44Z</time>
<speed>4.360000</speed>
<extensions>
<speed>4.4</speed>
<temp>0.00</temp>
<bpm>0</bpm>
<rpm>0.00</rpm>
</extensions>
</trkpt>
<trkpt lat="64.312149048" lon="-20.295976639">
<ele>117.037109</ele>
<time>2012-07-20T10:41:49Z</time>
<speed>4.580000</speed>
<extensions>
<speed>4.6</speed>
<temp>0.00</temp>
<bpm>0</bpm>
<rpm>0.00</rpm>
</extensions>
</trkpt>
<trkpt lat="64.312225342" lon="-20.295490265">
<ele>116.855469</ele>
<time>2012-07-20T10:41:54Z</time>
<speed>5.000000</speed>
<extensions>
<speed>5.0</speed>
<temp>0.00</temp>
<bpm>0</bpm>
<rpm>0.00</rpm>
</extensions>
</trkpt>
<trkpt lat="64.312286377" lon="-20.294986725">
<ele>116.761719</ele>
<time>2012-07-20T10:41:59Z</time>
<speed>4.970000</speed>
<extensions>
<speed>5.0</speed>
<temp>0.00</temp>
<bpm>0</bpm>
<rpm>0.00</rpm>
</extensions>
</trkpt>
<trkpt lat="64.312332153" lon="-20.294481277">
<ele>116.433594</ele>
<time>2012-07-20T10:42:04Z</time>
<speed>4.740000</speed>
<extensions>
<speed>4.7</speed>
<temp>0.00</temp>
<bpm>0</bpm>
<rpm>0.00</rpm>
</extensions>
</trkpt>
<trkpt lat="64.312370300" lon="-20.294000626">
<ele>116.013672</ele>
<time>2012-07-20T10:42:09Z</time>
<speed>4.570000</speed>
<extensions>
<speed>4.6</speed>
<temp>0.00</temp>
<bpm>0</bpm>
<rpm>0.00</rpm>
</extensions>
</trkpt>
<trkpt lat="64.312416077" lon="-20.293527603">
<ele>116.960938</ele>
<time>2012-07-20T10:42:14Z</time>
<speed>4.630000</speed>
<extensions>
<speed>4.6</speed>
<temp>0.00</temp>
<bpm>0</bpm>
<rpm>0.00</rpm>
</extensions>
</trkpt>
<trkpt lat="64.312454224" lon="-20.293064117">
<ele>117.751953</ele>
<time>2012-07-20T10:42:19Z</time>
<speed>4.460000</speed>
<extensions>
<speed>4.5</speed>
<temp>0.00</temp>
<bpm>0</bpm>
<rpm>0.00</rpm>
</extensions>
</trkpt>
<trkpt lat="64.312500000" lon="-20.292604446">
<ele>119.039063</ele>
<time>2012-07-20T10:42:24Z</time>
<speed>4.520000</speed>
<extensions>
<speed>4.5</speed>
<temp>0.00</temp>
<bpm>0</bpm>
<rpm>0.00</rpm>
</extensions>
</trkpt>
<trkpt lat="64.312545776" lon="-20.292119980">
<ele>119.373047</ele>
<time>2012-07-20T10:42:29Z</time>
<speed>4.720000</speed>
<extensions>
<speed>4.7</speed>
<temp>0.00</temp>
<bpm>0</bpm>
<rpm>0.00</rpm>
</extensions>
</trkpt>
<trkpt lat="64.312599182" lon="-20.291639328">
<ele>119.617188</ele>
<time>2012-07-20T10:42:34Z</time>
<speed>4.750000</speed>
<extensions>
<speed>4.8</speed>
<temp>0.00</temp>
<bpm>0</bpm>
<rpm>0.00</rpm>
</extensions>
</trkpt>
<trkpt lat="64.312644958" lon="-20.291152954">
<ele>120.595703</ele>
<time>2012-07-20T10:42:39Z</time>
<speed>4.940000</speed>
<extensions>
<speed>4.9</speed>
<temp>0.00</temp>
<bpm>0</bpm>
<rpm>0.00</rpm>
</extensions>
</trkpt>
<trkpt lat="64.312690735" lon="-20.290645599">
<ele>120.517578</ele>
<time>2012-07-20T10:42:44Z</time>
<speed>4.980000</speed>
<extensions>
<speed>5.0</speed>
<temp>0.00</temp>
<bpm>0</bpm>
<rpm>0.00</rpm>
</extensions>
</trkpt>
<trkpt lat="64.312736511" lon="-20.290164948">
<ele>120.529297</ele>
<time>2012-07-20T10:42:49Z</time>
<speed>4.030000</speed>
<extensions>
<speed>4.0</speed>
<temp>0.00</temp>
<bpm>0</bpm>
<rpm>0.00</rpm>
</extensions>
</trkpt>
<trkpt lat="64.312774658" lon="-20.289823532">
<ele>119.869141</ele>
<time>2012-07-20T10:42:54Z</time>
<speed>4.310000</speed>
<extensions>
<speed>4.3</speed>
<temp>0.00</temp>
<bpm>0</bpm>
<rpm>0.00</rpm>
</extensions>
</trkpt>
<trkpt lat="64.312820435" lon="-20.289331436">
<ele>119.148438</ele>
<time>2012-07-20T10:42:59Z</time>
<speed>4.970000</speed>
<extensions>
<speed>5.0</speed>
<temp>0.00</temp>
<bpm>0</bpm>
<rpm>0.00</rpm>
</extensions>
</trkpt>
<trkpt lat="64.312873840" lon="-20.288793564">
<ele>118.681641</ele>
<time>2012-07-20T10:43:04Z</time>
<speed>5.420000</speed>
<extensions>
<speed>5.4</speed>
<temp>0.00</temp>
<bpm>0</bpm>
<rpm>0.00</rpm>
</extensions>
</trkpt>
<trkpt lat="64.312934875" lon="-20.288227081">
<ele>118.960938</ele>
<time>2012-07-20T10:43:09Z</time>
<speed>5.800000</speed>
<extensions>
<speed>5.8</speed>
<temp>0.00</temp>
<bpm>0</bpm>
<rpm>0.00</rpm>
</extensions>
</trkpt>
<trkpt lat="64.312988281" lon="-20.287639618">
<ele>118.990234</ele>
<time>2012-07-20T10:43:14Z</time>
<speed>5.880000</speed>
<extensions>
<speed>5.9</speed>
<temp>0.00</temp>
<bpm>0</bpm>
<rpm>0.00</rpm>
</extensions>
</trkpt>
<trkpt lat="64.313049316" lon="-20.287065506">
<ele>118.613281</ele>
<time>2012-07-20T10:43:19Z</time>
<speed>5.340000</speed>
<extensions>
<speed>5.3</speed>
<temp>0.00</temp>
<bpm>0</bpm>
<rpm>0.00</rpm>
</extensions>
</trkpt>
<trkpt lat="64.313110352" lon="-20.286529541">
<ele>118.687500</ele>
<time>2012-07-20T10:43:24Z</time>
<speed>5.490000</speed>
<extensions>
<speed>5.5</speed>
<temp>0.00</temp>
<bpm>0</bpm>
<rpm>0.00</rpm>
</extensions>
</trkpt>
<trkpt lat="64.313163757" lon="-20.285993576">
<ele>118.699219</ele>
<time>2012-07-20T10:43:29Z</time>
<speed>5.290000</speed>
<extensions>
<speed>5.3</speed>
<temp>0.00</temp>
<bpm>0</bpm>
<rpm>0.00</rpm>
</extensions>
</trkpt>
<trkpt lat="64.313217163" lon="-20.285461426">
<ele>119.005859</ele>
<time>2012-07-20T10:43:34Z</time>
<speed>5.590000</speed>
<extensions>
<speed>5.6</speed>
<temp>0.00</temp>
<bpm>0</bpm>
<rpm>0.00</rpm>
</extensions>
</trkpt>
<trkpt lat="64.313278198" lon="-20.284910202">
<ele>119.335938</ele>
<time>2012-07-20T10:43:39Z</time>
<speed>5.430000</speed>
<extensions>
<speed>5.4</speed>
<temp>0.00</temp>
<bpm>0</bpm>
<rpm>0.00</rpm>
</extensions>
</trkpt>
<trkpt lat="64.313331604" lon="-20.284349442">
<ele>119.349609</ele>
<time>2012-07-20T10:43:44Z</time>
<speed>5.750000</speed>
<extensions>
<speed>5.8</speed>
<temp>0.00</temp>
<bpm>0</bpm>
<rpm>0.00</rpm>
</extensions>
</trkpt>
<trkpt lat="64.313392639" lon="-20.283731461">
<ele>118.955078</ele>
<time>2012-07-20T10:43:49Z</time>
<speed>6.470000</speed>
<extensions>
<speed>6.5</speed>
<temp>0.00</temp>
<bpm>0</bpm>
<rpm>0.00</rpm>
</extensions>
</trkpt>
<trkpt lat="64.313461304" lon="-20.283039093">
<ele>117.912109</ele>
<time>2012-07-20T10:43:54Z</time>
<speed>6.860000</speed>
<extensions>
<speed>6.9</speed>
<temp>0.00</temp>
<bpm>0</bpm>
<rpm>0.00</rpm>
</extensions>
</trkpt>
<trkpt lat="64.313529968" lon="-20.282325745">
<ele>116.441406</ele>
<time>2012-07-20T10:43:59Z</time>
<speed>7.210000</speed>
<extensions>
<speed>7.2</speed>
<temp>0.00</temp>
<bpm>0</bpm>
<rpm>0.00</rpm>
</extensions>
</trkpt>
<trkpt lat="64.313606262" lon="-20.281566620">
<ele>115.351563</ele>
<time>2012-07-20T10:44:04Z</time>
<speed>7.700000</speed>
<extensions>
<speed>7.7</speed>
<temp>0.00</temp>
<bpm>0</bpm>
<rpm>0.00</rpm>
</extensions>
</trkpt>
<trkpt lat="64.313690186" lon="-20.280748367">
<ele>114.085938</ele>
<time>2012-07-20T10:44:09Z</time>
<speed>8.430000</speed>
<extensions>
<speed>8.4</speed>
<temp>0.00</temp>
<bpm>0</bpm>
<rpm>0.00</rpm>
</extensions>
</trkpt>
<trkpt lat="64.313774109" lon="-20.279886246">
<ele>112.667969</ele>
<time>2012-07-20T10:44:14Z</time>
<speed>8.580000</speed>
<extensions>
<speed>8.6</speed>
<temp>0.00</temp>
<bpm>0</bpm>
<rpm>0.00</rpm>
</extensions>
</trkpt>
<trkpt lat="64.313865662" lon="-20.279026031">
<ele>111.292969</ele>
<time>2012-07-20T10:44:19Z</time>
<speed>8.550000</speed>
<extensions>
<speed>8.6</speed>
<temp>0.00</temp>
<bpm>0</bpm>
<rpm>0.00</rpm>
</extensions>
</trkpt>
<trkpt lat="64.313949585" lon="-20.278142929">
<ele>110.255859</ele>
<time>2012-07-20T10:44:24Z</time>
<speed>8.800000</speed>
<extensions>
<speed>8.8</speed>
<temp>0.00</temp>
<bpm>0</bpm>
<rpm>0.00</rpm>
</extensions>
</trkpt>
<trkpt lat="64.314041138" lon="-20.277284622">
<ele>109.650391</ele>
<time>2012-07-20T10:44:29Z</time>
<speed>8.250000</speed>
<extensions>
<speed>8.3</speed>
<temp>0.00</temp>
<bpm>0</bpm>
<rpm>0.00</rpm>
</extensions>
</trkpt>
<trkpt lat="64.314125061" lon="-20.276458740">
<ele>109.232422</ele>
<time>2012-07-20T10:44:34Z</time>
<speed>8.160000</speed>
<extensions>
<speed>8.2</speed>
<temp>0.00</temp>
<bpm>0</bpm>
<rpm>0.00</rpm>
</extensions>
</trkpt>
<trkpt lat="64.314193726" lon="-20.275653839">
<ele>109.609375</ele>
<time>2012-07-20T10:44:39Z</time>
<speed>7.760000</speed>
<extensions>
<speed>7.8</speed>
<temp>0.00</temp>
<bpm>0</bpm>
<rpm>0.00</rpm>
</extensions>
</trkpt>
<trkpt lat="64.314254761" lon="-20.274877548">
<ele>109.779297</ele>
<time>2012-07-20T10:44:44Z</time>
<speed>7.400000</speed>
<extensions>
<speed>7.4</speed>
<temp>0.00</temp>
<bpm>0</bpm>
<rpm>0.00</rpm>
</extensions>
</trkpt>
<trkpt lat="64.314285278" lon="-20.274118423">
<ele>109.316406</ele>
<time>2012-07-20T10:44:49Z</time>
<speed>7.400000</speed>
<extensions>
<speed>7.4</speed>
<temp>0.00</temp>
<bpm>0</bpm>
<rpm>0.00</rpm>
</extensions>
</trkpt>
<trkpt lat="64.314308167" lon="-20.273410797">
<ele>110.013672</ele>
<time>2012-07-20T10:44:54Z</time>
<speed>6.620000</speed>
<extensions>
<speed>6.6</speed>
<temp>0.00</temp>
<bpm>0</bpm>
<rpm>0.00</rpm>
</extensions>
</trkpt>
<trkpt lat="64.314315796" lon="-20.272760391">
<ele>110.849609</ele>
<time>2012-07-20T10:44:59Z</time>
<speed>6.410000</speed>
<extensions>
<speed>6.4</speed>
<temp>0.00</temp>
<bpm>0</bpm>
<rpm>0.00</rpm>
</extensions>
</trkpt>
<trkpt lat="64.314315796" lon="-20.272123337">
<ele>112.242188</ele>
<time>2012-07-20T10:45:04Z</time>
<speed>6.240000</speed>
<extensions>
<speed>6.2</speed>
<temp>0.00</temp>
<bpm>0</bpm>
<rpm>0.00</rpm>
</extensions>
</trkpt>
<trkpt lat="64.314292908" lon="-20.271465302">
<ele>113.333984</ele>
<time>2012-07-20T10:45:09Z</time>
<speed>6.590000</speed>
<extensions>
<speed>6.6</speed>
<temp>0.00</temp>
<bpm>0</bpm>
<rpm>0.00</rpm>
</extensions>
</trkpt>
<trkpt lat="64.314270020" lon="-20.270797729">
<ele>113.316406</ele>
<time>2012-07-20T10:45:14Z</time>
<speed>6.570000</speed>
<extensions>
<speed>6.6</speed>
<temp>0.00</temp>
<bpm>0</bpm>
<rpm>0.00</rpm>
</extensions>
</trkpt>
<trkpt lat="64.314247131" lon="-20.270133972">
<ele>114.148438</ele>
<time>2012-07-20T10:45:19Z</time>
<speed>6.210000</speed>
<extensions>
<speed>6.2</speed>
<temp>0.00</temp>
<bpm>0</bpm>
<rpm>0.00</rpm>
</extensions>
</trkpt>
<trkpt lat="64.314201355" lon="-20.269510269">
<ele>115.181641</ele>
<time>2012-07-20T10:45:24Z</time>
<speed>6.520000</speed>
<extensions>
<speed>6.5</speed>
<temp>0.00</temp>
<bpm>0</bpm>
<rpm>0.00</rpm>
</extensions>
</trkpt>
<trkpt lat="64.314147949" lon="-20.268869400">
<ele>116.406250</ele>
<time>2012-07-20T10:45:29Z</time>
<speed>6.220000</speed>
<extensions>
<speed>6.2</speed>
<temp>0.00</temp>
<bpm>0</bpm>
<rpm>0.00</rpm>
</extensions>
</trkpt>
<trkpt lat="64.314086914" lon="-20.268278122">
<ele>116.849609</ele>
<time>2012-07-20T10:45:34Z</time>
<speed>5.830000</speed>
<extensions>
<speed>5.8</speed>
<temp>0.00</temp>
<bpm>0</bpm>
<rpm>0.00</rpm>
</extensions>
</trkpt>
<trkpt lat="64.314018250" lon="-20.267713547">
<ele>117.017578</ele>
<time>2012-07-20T10:45:39Z</time>
<speed>5.920000</speed>
<extensions>
<speed>5.9</speed>
<temp>0.00</temp>
<bpm>0</bpm>
<rpm>0.00</rpm>
</extensions>
</trkpt>
<trkpt lat="64.313949585" lon="-20.267143250">
<ele>116.636719</ele>
<time>2012-07-20T10:45:44Z</time>
<speed>5.610000</speed>
<extensions>
<speed>5.6</speed>
<temp>0.00</temp>
<bpm>0</bpm>
<rpm>0.00</rpm>
</extensions>
</trkpt>
<trkpt lat="64.313888550" lon="-20.266607285">
<ele>116.986328</ele>
<time>2012-07-20T10:45:49Z</time>
<speed>5.500000</speed>
<extensions>
<speed>5.5</speed>
<temp>0.00</temp>
<bpm>0</bpm>
<rpm>0.00</rpm>
</extensions>
</trkpt>
<trkpt lat="64.313850403" lon="-20.266109467">
<ele>116.806641</ele>
<time>2012-07-20T10:45:54Z</time>
<speed>3.750000</speed>
<extensions>
<speed>3.8</speed>
<temp>0.00</temp>
<bpm>0</bpm>
<rpm>0.00</rpm>
</extensions>
</trkpt>
<trkpt lat="64.313819885" lon="-20.265804291">
<ele>116.287109</ele>
<time>2012-07-20T10:45:59Z</time>
<speed>2.650000</speed>
<extensions>
<speed>2.6</speed>
<temp>0.00</temp>
<bpm>0</bpm>
<rpm>0.00</rpm>
</extensions>
</trkpt>
<trkpt lat="64.313796997" lon="-20.265676498">
<ele>116.302734</ele>
<time>2012-07-20T10:46:04Z</time>
<speed>0.130000</speed>
<extensions>
<speed>0.1</speed>
<temp>0.00</temp>
<bpm>0</bpm>
<rpm>0.00</rpm>
</extensions>
</trkpt>
<trkpt lat="64.313796997" lon="-20.265680313">
<ele>116.453125</ele>
<time>2012-07-20T10:46:09Z</time>
<speed>0.270000</speed>
<extensions>
<speed>0.3</speed>
<temp>0.00</temp>
<bpm>0</bpm>
<rpm>0.00</rpm>
</extensions>
</trkpt>
<trkpt lat="64.313789368" lon="-20.265686035">
<ele>116.423828</ele>
<time>2012-07-20T10:46:14Z</time>
<speed>0.050000</speed>
<extensions>
<speed>0.1</speed>
<temp>0.00</temp>
<bpm>0</bpm>
<rpm>0.00</rpm>
</extensions>
</trkpt>
<trkpt lat="64.313789368" lon="-20.265687943">
<ele>116.439453</ele>
<time>2012-07-20T10:46:19Z</time>
<extensions>
<speed>0.0</speed>
<temp>0.00</temp>
<bpm>0</bpm>
<rpm>0.00</rpm>
</extensions>
</trkpt>
<trkpt lat="64.313789368" lon="-20.265668869">
<ele>116.498047</ele>
<time>2012-07-20T10:46:24Z</time>
<speed>0.100000</speed>
<extensions>
<speed>0.1</speed>
<temp>0.00</temp>
<bpm>0</bpm>
<rpm>0.00</rpm>
</extensions>
</trkpt>
<trkpt lat="64.313781738" lon="-20.265651703">
<ele>116.615234</ele>
<time>2012-07-20T10:46:29Z</time>
<speed>0.770000</speed>
<extensions>
<speed>0.8</speed>
<temp>0.00</temp>
<bpm>0</bpm>
<rpm>0.00</rpm>
</extensions>
</trkpt>
<trkpt lat="64.313774109" lon="-20.265594482">
<ele>116.804688</ele>
<time>2012-07-20T10:46:34Z</time>
<speed>0.120000</speed>
<extensions>
<speed>0.1</speed>
<temp>0.00</temp>
<bpm>0</bpm>
<rpm>0.00</rpm>
</extensions>
</trkpt>
<trkpt lat="64.313774109" lon="-20.265560150">
<ele>116.595703</ele>
<time>2012-07-20T10:46:39Z</time>
<speed>1.410000</speed>
<extensions>
<speed>1.4</speed>
<temp>0.00</temp>
<bpm>0</bpm>
<rpm>0.00</rpm>
</extensions>
</trkpt>
<trkpt lat="64.313758850" lon="-20.265274048">
<ele>116.580078</ele>
<time>2012-07-20T10:46:44Z</time>
<speed>3.580000</speed>
<extensions>
<speed>3.6</speed>
<temp>0.00</temp>
<bpm>0</bpm>
<rpm>0.00</rpm>
</extensions>
</trkpt>
<trkpt lat="64.313713074" lon="-20.264837265">
<ele>116.076172</ele>
<time>2012-07-20T10:46:49Z</time>
<speed>4.440000</speed>
<extensions>
<speed>4.4</speed>
<temp>0.00</temp>
<bpm>0</bpm>
<rpm>0.00</rpm>
</extensions>
</trkpt>
<trkpt lat="64.313667297" lon="-20.264347076">
<ele>115.093750</ele>
<time>2012-07-20T10:46:54Z</time>
<speed>5.060000</speed>
<extensions>
<speed>5.1</speed>
<temp>0.00</temp>
<bpm>0</bpm>
<rpm>0.00</rpm>
</extensions>
</trkpt>
<trkpt lat="64.313606262" lon="-20.263841629">
<ele>115.980469</ele>
<time>2012-07-20T10:46:59Z</time>
<speed>5.140000</speed>
<extensions>
<speed>5.1</speed>
<temp>0.00</temp>
<bpm>0</bpm>
<rpm>0.00</rpm>
</extensions>
</trkpt>
<trkpt lat="64.313552856" lon="-20.263338089">
<ele>116.587891</ele>
<time>2012-07-20T10:47:04Z</time>
<speed>5.360000</speed>
<extensions>
<speed>5.4</speed>
<temp>0.00</temp>
<bpm>0</bpm>
<rpm>0.00</rpm>
</extensions>
</trkpt>
<trkpt lat="64.313484192" lon="-20.262783051">
<ele>117.408203</ele>
<time>2012-07-20T10:47:09Z</time>
<speed>5.670000</speed>
<extensions>
<speed>5.7</speed>
<temp>0.00</temp>
<bpm>0</bpm>
<rpm>0.00</rpm>
</extensions>
</trkpt>
<trkpt lat="64.313415527" lon="-20.262228012">
<ele>118.408203</ele>
<time>2012-07-20T10:47:14Z</time>
<speed>5.550000</speed>
<extensions>
<speed>5.5</speed>
<temp>0.00</temp>
<bpm>0</bpm>
<rpm>0.00</rpm>
</extensions>
</trkpt>
<trkpt lat="64.313346863" lon="-20.261686325">
<ele>118.945313</ele>
<time>2012-07-20T10:47:19Z</time>
<speed>5.570000</speed>
<extensions>
<speed>5.6</speed>
<temp>0.00</temp>
<bpm>0</bpm>
<rpm>0.00</rpm>
</extensions>
</trkpt>
<trkpt lat="64.313270569" lon="-20.261127472">
<ele>118.865234</ele>
<time>2012-07-20T10:47:24Z</time>
<speed>5.630000</speed>
<extensions>
<speed>5.6</speed>
<temp>0.00</temp>
<bpm>0</bpm>
<rpm>0.00</rpm>
</extensions>
</trkpt>
<trkpt lat="64.313171387" lon="-20.260597229">
<ele>119.421875</ele>
<time>2012-07-20T10:47:29Z</time>
<speed>5.870000</speed>
<extensions>
<speed>5.9</speed>
<temp>0.00</temp>
<bpm>0</bpm>
<rpm>0.00</rpm>
</extensions>
</trkpt>
<trkpt lat="64.313072205" lon="-20.260032654">
<ele>119.527344</ele>
<time>2012-07-20T10:47:34Z</time>
<speed>6.100000</speed>
<extensions>
<speed>6.1</speed>
<temp>0.00</temp>
<bpm>0</bpm>
<rpm>0.00</rpm>
</extensions>
</trkpt>
<trkpt lat="64.312950134" lon="-20.259433746">
<ele>118.267578</ele>
<time>2012-07-20T10:47:39Z</time>
<speed>6.050000</speed>
<extensions>
<speed>6.1</speed>
<temp>0.00</temp>
<bpm>0</bpm>
<rpm>0.00</rpm>
</extensions>
</trkpt>
<trkpt lat="64.312820435" lon="-20.258878708">
<ele>117.923828</ele>
<time>2012-07-20T10:47:44Z</time>
<speed>5.980000</speed>
<extensions>
<speed>6.0</speed>
<temp>0.00</temp>
<bpm>0</bpm>
<rpm>0.00</rpm>
</extensions>
</trkpt>
<trkpt lat="64.312698364" lon="-20.258373260">
<ele>118.597656</ele>
<time>2012-07-20T10:47:49Z</time>
<speed>6.080000</speed>
<extensions>
<speed>6.1</speed>
<temp>0.00</temp>
<bpm>0</bpm>
<rpm>0.00</rpm>
</extensions>
</trkpt>
<trkpt lat="64.312553406" lon="-20.257770538">
<ele>118.076172</ele>
<time>2012-07-20T10:47:54Z</time>
<speed>6.570000</speed>
<extensions>
<speed>6.6</speed>
<temp>0.00</temp>
<bpm>0</bpm>
<rpm>0.00</rpm>
</extensions>
</trkpt>
<trkpt lat="64.312408447" lon="-20.257123947">
<ele>116.974609</ele>
<time>2012-07-20T10:47:59Z</time>
<speed>6.930000</speed>
<extensions>
<speed>6.9</speed>
<temp>0.00</temp>
<bpm>0</bpm>
<rpm>0.00</rpm>
</extensions>
</trkpt>
<trkpt lat="64.312255859" lon="-20.256484985">
<ele>115.658203</ele>
<time>2012-07-20T10:48:04Z</time>
<speed>6.860000</speed>
<extensions>
<speed>6.9</speed>
<temp>0.00</temp>
<bpm>0</bpm>
<rpm>0.00</rpm>
</extensions>
</trkpt>
<trkpt lat="64.312095642" lon="-20.255855560">
<ele>114.875000</ele>
<time>2012-07-20T10:48:09Z</time>
<speed>6.810000</speed>
<extensions>
<speed>6.8</speed>
<temp>0.00</temp>
<bpm>0</bpm>
<rpm>0.00</rpm>
</extensions>
</trkpt>
<trkpt lat="64.311950684" lon="-20.255228043">
<ele>114.857422</ele>
<time>2012-07-20T10:48:14Z</time>
<speed>6.860000</speed>
<extensions>
<speed>6.9</speed>
<temp>0.00</temp>
<bpm>0</bpm>
<rpm>0.00</rpm>
</extensions>
</trkpt>
<trkpt lat="64.311813354" lon="-20.254688263">
<ele>116.927734</ele>
<time>2012-07-20T10:48:19Z</time>
<speed>5.910000</speed>
<extensions>
<speed>5.9</speed>
<temp>0.00</temp>
<bpm>0</bpm>
<rpm>0.00</rpm>
</extensions>
</trkpt>
<trkpt lat="64.311691284" lon="-20.254148483">
<ele>118.826172</ele>
<time>2012-07-20T10:48:24Z</time>
<speed>6.000000</speed>
<extensions>
<speed>6.0</speed>
<temp>0.00</temp>
<bpm>0</bpm>
<rpm>0.00</rpm>
</extensions>
</trkpt>
<trkpt lat="64.311569214" lon="-20.253549576">
<ele>120.328125</ele>
<time>2012-07-20T10:48:29Z</time>
<speed>6.490000</speed>
<extensions>
<speed>6.5</speed>
<temp>0.00</temp>
<bpm>0</bpm>
<rpm>0.00</rpm>
</extensions>
</trkpt>
<trkpt lat="64.311454773" lon="-20.252933502">
<ele>121.679688</ele>
<time>2012-07-20T10:48:34Z</time>
<speed>6.490000</speed>
<extensions>
<speed>6.5</speed>
<temp>0.00</temp>
<bpm>0</bpm>
<rpm>0.00</rpm>
</extensions>
</trkpt>
<trkpt lat="64.311340332" lon="-20.252298355">
<ele>121.791016</ele>
<time>2012-07-20T10:48:39Z</time>
<speed>6.040000</speed>
<extensions>
<speed>6.0</speed>
<temp>0.00</temp>
<bpm>0</bpm>
<rpm>0.00</rpm>
</extensions>
</trkpt>
<trkpt lat="64.311241150" lon="-20.251628876">
<ele>119.857422</ele>
<time>2012-07-20T10:48:44Z</time>
<speed>6.530000</speed>
<extensions>
<speed>6.5</speed>
<temp>0.00</temp>
<bpm>0</bpm>
<rpm>0.00</rpm>
</extensions>
</trkpt>
<trkpt lat="64.311157227" lon="-20.251029968">
<ele>119.183594</ele>
<time>2012-07-20T10:48:49Z</time>
<speed>5.960000</speed>
<extensions>
<speed>6.0</speed>
<temp>0.00</temp>
<bpm>0</bpm>
<rpm>0.00</rpm>
</extensions>
</trkpt>
<trkpt lat="64.311073303" lon="-20.250402451">
<ele>117.322266</ele>
<time>2012-07-20T10:48:54Z</time>
<speed>5.990000</speed>
<extensions>
<speed>6.0</speed>
<temp>0.00</temp>
<bpm>0</bpm>
<rpm>0.00</rpm>
</extensions>
</trkpt>
<trkpt lat="64.311004639" lon="-20.249788284">
<ele>113.283203</ele>
<time>2012-07-20T10:48:59Z</time>
<speed>6.520000</speed>
<extensions>
<speed>6.5</speed>
<temp>0.00</temp>
<bpm>0</bpm>
<rpm>0.00</rpm>
</extensions>
</trkpt>
<trkpt lat="64.310943604" lon="-20.249172211">
<ele>112.810547</ele>
<time>2012-07-20T10:49:04Z</time>
<speed>6.400000</speed>
<extensions>
<speed>6.4</speed>
<temp>0.00</temp>
<bpm>0</bpm>
<rpm>0.00</rpm>
</extensions>
</trkpt>
<trkpt lat="64.310874939" lon="-20.248517990">
<ele>112.062500</ele>
<time>2012-07-20T10:49:09Z</time>
<speed>6.910000</speed>
<extensions>
<speed>6.9</speed>
<temp>0.00</temp>
<bpm>0</bpm>
<rpm>0.00</rpm>
</extensions>
</trkpt>
<trkpt lat="64.310821533" lon="-20.247821808">
<ele>111.398438</ele>
<time>2012-07-20T10:49:14Z</time>
<speed>6.960000</speed>
<extensions>
<speed>7.0</speed>
<temp>0.00</temp>
<bpm>0</bpm>
<rpm>0.00</rpm>
</extensions>
</trkpt>
<trkpt lat="64.310768127" lon="-20.247140884">
<ele>112.416016</ele>
<time>2012-07-20T10:49:19Z</time>
<speed>6.830000</speed>
<extensions>
<speed>6.8</speed>
<temp>0.00</temp>
<bpm>0</bpm>
<rpm>0.00</rpm>
</extensions>
</trkpt>
<trkpt lat="64.310722351" lon="-20.246490479">
<ele>113.183594</ele>
<time>2012-07-20T10:49:24Z</time>
<speed>6.130000</speed>
<extensions>
<speed>6.1</speed>
<temp>0.00</temp>
<bpm>0</bpm>
<rpm>0.00</rpm>
</extensions>
</trkpt>
<trkpt lat="64.310684204" lon="-20.245925903">
<ele>114.076172</ele>
<time>2012-07-20T10:49:29Z</time>
<speed>5.240000</speed>
<extensions>
<speed>5.2</speed>
<temp>0.00</temp>
<bpm>0</bpm>
<rpm>0.00</rpm>
</extensions>
</trkpt>
<trkpt lat="64.310653687" lon="-20.245481491">
<ele>114.316406</ele>
<time>2012-07-20T10:49:34Z</time>
<speed>4.340000</speed>
<extensions>
<speed>4.3</speed>
<temp>0.00</temp>
<bpm>0</bpm>
<rpm>0.00</rpm>
</extensions>
</trkpt>
<trkpt lat="64.310615540" lon="-20.245025635">
<ele>115.007813</ele>
<time>2012-07-20T10:49:39Z</time>
<speed>4.600000</speed>
<extensions>
<speed>4.6</speed>
<temp>0.00</temp>
<bpm>0</bpm>
<rpm>0.00</rpm>
</extensions>
</trkpt>
<trkpt lat="64.310585022" lon="-20.244583130">
<ele>115.427734</ele>
<time>2012-07-20T10:49:44Z</time>
<speed>4.420000</speed>
<extensions>
<speed>4.4</speed>
<temp>0.00</temp>
<bpm>0</bpm>
<rpm>0.00</rpm>
</extensions>
</trkpt>
<trkpt lat="64.310546875" lon="-20.244121552">
<ele>115.939453</ele>
<time>2012-07-20T10:49:49Z</time>
<speed>4.370000</speed>
<extensions>
<speed>4.4</speed>
<temp>0.00</temp>
<bpm>0</bpm>
<rpm>0.00</rpm>
</extensions>
</trkpt>
<trkpt lat="64.310508728" lon="-20.243667603">
<ele>116.425781</ele>
<time>2012-07-20T10:49:54Z</time>
<speed>4.740000</speed>
<extensions>
<speed>4.7</speed>
<temp>0.00</temp>
<bpm>0</bpm>
<rpm>0.00</rpm>
</extensions>
</trkpt>
<trkpt lat="64.310470581" lon="-20.243190765">
<ele>116.851563</ele>
<time>2012-07-20T10:49:59Z</time>
<speed>5.000000</speed>
<extensions>
<speed>5.0</speed>
<temp>0.00</temp>
<bpm>0</bpm>
<rpm>0.00</rpm>
</extensions>
</trkpt>
<trkpt lat="64.310432434" lon="-20.242706299">
<ele>117.218750</ele>
<time>2012-07-20T10:50:04Z</time>
<speed>4.770000</speed>
<extensions>
<speed>4.8</speed>
<temp>0.00</temp>
<bpm>0</bpm>
<rpm>0.00</rpm>
</extensions>
</trkpt>
<trkpt lat="64.310401917" lon="-20.242242813">
<ele>117.335938</ele>
<time>2012-07-20T10:50:09Z</time>
<speed>4.510000</speed>
<extensions>
<speed>4.5</speed>
<temp>0.00</temp>
<bpm>0</bpm>
<rpm>0.00</rpm>
</extensions>
</trkpt>
<trkpt lat="64.310363770" lon="-20.241794586">
<ele>117.611328</ele>
<time>2012-07-20T10:50:14Z</time>
<speed>4.280000</speed>
<extensions>
<speed>4.3</speed>
<temp>0.00</temp>
<bpm>0</bpm>
<rpm>0.00</rpm>
</extensions>
</trkpt>
<trkpt lat="64.310333252" lon="-20.241405487">
<ele>118.617188</ele>
<time>2012-07-20T10:50:19Z</time>
<speed>3.560000</speed>
<extensions>
<speed>3.6</speed>
<temp>0.00</temp>
<bpm>0</bpm>
<rpm>0.00</rpm>
</extensions>
</trkpt>
<trkpt lat="64.310302734" lon="-20.241027832">
<ele>119.033203</ele>
<time>2012-07-20T10:50:24Z</time>
<speed>3.730000</speed>
<extensions>
<speed>3.7</speed>
<temp>0.00</temp>
<bpm>0</bpm>
<rpm>0.00</rpm>
</extensions>
</trkpt>
<trkpt lat="64.310272217" lon="-20.240652084">
<ele>119.994141</ele>
<time>2012-07-20T10:50:29Z</time>
<speed>3.720000</speed>
<extensions>
<speed>3.7</speed>
<temp>0.00</temp>
<bpm>0</bpm>
<rpm>0.00</rpm>
</extensions>
</trkpt>
<trkpt lat="64.310241699" lon="-20.240280151">
<ele>120.388672</ele>
<time>2012-07-20T10:50:34Z</time>
<speed>3.730000</speed>
<extensions>
<speed>3.7</speed>
<temp>0.00</temp>
<bpm>0</bpm>
<rpm>0.00</rpm>
</extensions>
</trkpt>
<trkpt lat="64.310226440" lon="-20.239931107">
<ele>120.923828</ele>
<time>2012-07-20T10:50:39Z</time>
<speed>3.110000</speed>
<extensions>
<speed>3.1</speed>
<temp>0.00</temp>
<bpm>0</bpm>
<rpm>0.00</rpm>
</extensions>
</trkpt>
<trkpt lat="64.310195923" lon="-20.239585876">
<ele>121.609375</ele>
<time>2012-07-20T10:50:44Z</time>
<speed>3.370000</speed>
<extensions>
<speed>3.4</speed>
<temp>0.00</temp>
<bpm>0</bpm>
<rpm>0.00</rpm>
</extensions>
</trkpt>
<trkpt lat="64.310165405" lon="-20.239221573">
<ele>121.853516</ele>
<time>2012-07-20T10:50:49Z</time>
<speed>3.560000</speed>
<extensions>
<speed>3.6</speed>
<temp>0.00</temp>
<bpm>0</bpm>
<rpm>0.00</rpm>
</extensions>
</trkpt>
<trkpt lat="64.310142517" lon="-20.238853455">
<ele>122.845703</ele>
<time>2012-07-20T10:50:54Z</time>
<speed>3.150000</speed>
<extensions>
<speed>3.2</speed>
<temp>0.00</temp>
<bpm>0</bpm>
<rpm>0.00</rpm>
</extensions>
</trkpt>
<trkpt lat="64.310112000" lon="-20.238515854">
<ele>123.281250</ele>
<time>2012-07-20T10:50:59Z</time>
<speed>3.200000</speed>
<extensions>
<speed>3.2</speed>
<temp>0.00</temp>
<bpm>0</bpm>
<rpm>0.00</rpm>
</extensions>
</trkpt>
<trkpt lat="64.310089111" lon="-20.238187790">
<ele>123.699219</ele>
<time>2012-07-20T10:51:04Z</time>
<speed>2.970000</speed>
<extensions>
<speed>3.0</speed>
<temp>0.00</temp>
<bpm>0</bpm>
<rpm>0.00</rpm>
</extensions>
</trkpt>
<trkpt lat="64.310066223" lon="-20.237897873">
<ele>124.654297</ele>
<time>2012-07-20T10:51:09Z</time>
<speed>2.460000</speed>
<extensions>
<speed>2.5</speed>
<temp>0.00</temp>
<bpm>0</bpm>
<rpm>0.00</rpm>
</extensions>
</trkpt>
<trkpt lat="64.310050964" lon="-20.237648010">
<ele>125.601563</ele>
<time>2012-07-20T10:51:14Z</time>
<speed>2.540000</speed>
<extensions>
<speed>2.5</speed>
<temp>0.00</temp>
<bpm>0</bpm>
<rpm>0.00</rpm>
</extensions>
</trkpt>
<trkpt lat="64.310028076" lon="-20.237379074">
<ele>126.937500</ele>
<time>2012-07-20T10:51:19Z</time>
<speed>2.640000</speed>
<extensions>
<speed>2.6</speed>
<temp>0.00</temp>
<bpm>0</bpm>
<rpm>0.00</rpm>
</extensions>
</trkpt>
<trkpt lat="64.310005188" lon="-20.237108231">
<ele>127.494141</ele>
<time>2012-07-20T10:51:24Z</time>
<speed>2.780000</speed>
<extensions>
<speed>2.8</speed>
<temp>0.00</temp>
<bpm>0</bpm>
<rpm>0.00</rpm>
</extensions>
</trkpt>
<trkpt lat="64.309989929" lon="-20.236825943">
<ele>128.097656</ele>
<time>2012-07-20T10:51:29Z</time>
<speed>2.690000</speed>
<extensions>
<speed>2.7</speed>
<temp>0.00</temp>
<bpm>0</bpm>
<rpm>0.00</rpm>
</extensions>
</trkpt>
<trkpt lat="64.309959412" lon="-20.236560822">
<ele>128.433594</ele>
<time>2012-07-20T10:51:34Z</time>
<speed>2.720000</speed>
<extensions>
<speed>2.7</speed>
<temp>0.00</temp>
<bpm>0</bpm>
<rpm>0.00</rpm>
</extensions>
</trkpt>
<trkpt lat="64.309951782" lon="-20.236291885">
<ele>129.265625</ele>
<time>2012-07-20T10:51:39Z</time>
<speed>2.650000</speed>
<extensions>
<speed>2.6</speed>
<temp>0.00</temp>
<bpm>0</bpm>
<rpm>0.00</rpm>
</extensions>
</trkpt>
<trkpt lat="64.309921265" lon="-20.236000061">
<ele>129.859375</ele>
<time>2012-07-20T10:51:44Z</time>
<speed>3.200000</speed>
<extensions>
<speed>3.2</speed>
<temp>0.00</temp>
<bpm>0</bpm>
<rpm>0.00</rpm>
</extensions>
</trkpt>
<trkpt lat="64.309906006" lon="-20.235641479">
<ele>130.839844</ele>
<time>2012-07-20T10:51:49Z</time>
<speed>3.930000</speed>
<extensions>
<speed>3.9</speed>
<temp>0.00</temp>
<bpm>0</bpm>
<rpm>0.00</rpm>
</extensions>
</trkpt>
<trkpt lat="64.309875488" lon="-20.235246658">
<ele>131.808594</ele>
<time>2012-07-20T10:51:54Z</time>
<speed>3.860000</speed>
<extensions>
<speed>3.9</speed>
<temp>0.00</temp>
<bpm>0</bpm>
<rpm>0.00</rpm>
</extensions>
</trkpt>
<trkpt lat="64.309837341" lon="-20.234828949">
<ele>132.714844</ele>
<time>2012-07-20T10:51:59Z</time>
<speed>4.090000</speed>
<extensions>
<speed>4.1</speed>
<temp>0.00</temp>
<bpm>0</bpm>
<rpm>0.00</rpm>
</extensions>
</trkpt>
<trkpt lat="64.309814453" lon="-20.234443665">
<ele>132.828125</ele>
<time>2012-07-20T10:52:04Z</time>
<speed>3.640000</speed>
<extensions>
<speed>3.6</speed>
<temp>0.00</temp>
<bpm>0</bpm>
<rpm>0.00</rpm>
</extensions>
</trkpt>
<trkpt lat="64.309791565" lon="-20.234079361">
<ele>133.769531</ele>
<time>2012-07-20T10:52:09Z</time>
<speed>3.700000</speed>
<extensions>
<speed>3.7</speed>
<temp>0.00</temp>
<bpm>0</bpm>
<rpm>0.00</rpm>
</extensions>
</trkpt>
<trkpt lat="64.309761047" lon="-20.233713150">
<ele>134.257813</ele>
<time>2012-07-20T10:52:14Z</time>
<speed>3.680000</speed>
<extensions>
<speed>3.7</speed>
<temp>0.00</temp>
<bpm>0</bpm>
<rpm>0.00</rpm>
</extensions>
</trkpt>
<trkpt lat="64.309738159" lon="-20.233331680">
<ele>134.136719</ele>
<time>2012-07-20T10:52:19Z</time>
<speed>3.780000</speed>
<extensions>
<speed>3.8</speed>
<temp>0.00</temp>
<bpm>0</bpm>
<rpm>0.00</rpm>
</extensions>
</trkpt>
<trkpt lat="64.309707642" lon="-20.232912064">
<ele>134.554688</ele>
<time>2012-07-20T10:52:24Z</time>
<speed>4.330000</speed>
<extensions>
<speed>4.3</speed>
<temp>0.00</temp>
<bpm>0</bpm>
<rpm>0.00</rpm>
</extensions>
</trkpt>
<trkpt lat="64.309669495" lon="-20.232482910">
<ele>135.117188</ele>
<time>2012-07-20T10:52:29Z</time>
<speed>4.030000</speed>
<extensions>
<speed>4.0</speed>
<temp>0.00</temp>
<bpm>0</bpm>
<rpm>0.00</rpm>
</extensions>
</trkpt>
<trkpt lat="64.309638977" lon="-20.232076645">
<ele>135.722656</ele>
<time>2012-07-20T10:52:34Z</time>
<speed>3.910000</speed>
<extensions>
<speed>3.9</speed>
<temp>0.00</temp>
<bpm>0</bpm>
<rpm>0.00</rpm>
</extensions>
</trkpt>
<trkpt lat="64.309608459" lon="-20.231695175">
<ele>136.566406</ele>
<time>2012-07-20T10:52:39Z</time>
<speed>3.960000</speed>
<extensions>
<speed>4.0</speed>
<temp>0.00</temp>
<bpm>0</bpm>
<rpm>0.00</rpm>
</extensions>
</trkpt>
<trkpt lat="64.309577942" lon="-20.231267929">
<ele>136.976563</ele>
<time>2012-07-20T10:52:44Z</time>
<speed>3.980000</speed>
<extensions>
<speed>4.0</speed>
<temp>0.00</temp>
<bpm>0</bpm>
<rpm>0.00</rpm>
</extensions>
</trkpt>
<trkpt lat="64.309547424" lon="-20.230846405">
<ele>137.406250</ele>
<time>2012-07-20T10:52:49Z</time>
<speed>3.970000</speed>
<extensions>
<speed>4.0</speed>
<temp>0.00</temp>
<bpm>0</bpm>
<rpm>0.00</rpm>
</extensions>
</trkpt>
<trkpt lat="64.309516907" lon="-20.230442047">
<ele>138.320313</ele>
<time>2012-07-20T10:52:54Z</time>
<speed>3.740000</speed>
<extensions>
<speed>3.7</speed>
<temp>0.00</temp>
<bpm>0</bpm>
<rpm>0.00</rpm>
</extensions>
</trkpt>
<trkpt lat="64.309486389" lon="-20.230113983">
<ele>138.601563</ele>
<time>2012-07-20T10:52:59Z</time>
<speed>3.460000</speed>
<extensions>
<speed>3.5</speed>
<temp>0.00</temp>
<bpm>0</bpm>
<rpm>0.00</rpm>
</extensions>
</trkpt>
<trkpt lat="64.309455872" lon="-20.229694366">
<ele>138.781250</ele>
<time>2012-07-20T10:53:04Z</time>
<speed>4.130000</speed>
<extensions>
<speed>4.1</speed>
<temp>0.00</temp>
<bpm>0</bpm>
<rpm>0.00</rpm>
</extensions>
</trkpt>
<trkpt lat="64.309417725" lon="-20.229263306">
<ele>139.000000</ele>
<time>2012-07-20T10:53:09Z</time>
<speed>4.420000</speed>
<extensions>
<speed>4.4</speed>
<temp>0.00</temp>
<bpm>0</bpm>
<rpm>0.00</rpm>
</extensions>
</trkpt>
<trkpt lat="64.309387207" lon="-20.228796005">
<ele>138.679688</ele>
<time>2012-07-20T10:53:14Z</time>
<speed>4.780000</speed>
<extensions>
<speed>4.8</speed>
<temp>0.00</temp>
<bpm>0</bpm>
<rpm>0.00</rpm>
</extensions>
</trkpt>
<trkpt lat="64.309349060" lon="-20.228326797">
<ele>139.132813</ele>
<time>2012-07-20T10:53:19Z</time>
<speed>4.500000</speed>
<extensions>
<speed>4.5</speed>
<temp>0.00</temp>
<bpm>0</bpm>
<rpm>0.00</rpm>
</extensions>
</trkpt>
<trkpt lat="64.309318542" lon="-20.227880478">
<ele>139.445313</ele>
<time>2012-07-20T10:53:24Z</time>
<speed>4.370000</speed>
<extensions>
<speed>4.4</speed>
<temp>0.00</temp>
<bpm>0</bpm>
<rpm>0.00</rpm>
</extensions>
</trkpt>
<trkpt lat="64.309288025" lon="-20.227437973">
<ele>140.000000</ele>
<time>2012-07-20T10:53:29Z</time>
<speed>4.330000</speed>
<extensions>
<speed>4.3</speed>
<temp>0.00</temp>
<bpm>0</bpm>
<rpm>0.00</rpm>
</extensions>
</trkpt>
<trkpt lat="64.309249878" lon="-20.227020264">
<ele>140.644531</ele>
<time>2012-07-20T10:53:34Z</time>
<speed>4.010000</speed>
<extensions>
<speed>4.0</speed>
<temp>0.00</temp>
<bpm>0</bpm>
<rpm>0.00</rpm>
</extensions>
</trkpt>
<trkpt lat="64.309219360" lon="-20.226570129">
<ele>141.312500</ele>
<time>2012-07-20T10:53:39Z</time>
<speed>4.270000</speed>
<extensions>
<speed>4.3</speed>
<temp>0.00</temp>
<bpm>0</bpm>
<rpm>0.00</rpm>
</extensions>
</trkpt>
<trkpt lat="64.309188843" lon="-20.226139069">
<ele>141.886719</ele>
<time>2012-07-20T10:53:44Z</time>
<speed>4.260000</speed>
<extensions>
<speed>4.3</speed>
<temp>0.00</temp>
<bpm>0</bpm>
<rpm>0.00</rpm>
</extensions>
</trkpt>
<trkpt lat="64.309150696" lon="-20.225748062">
<ele>142.027344</ele>
<time>2012-07-20T10:53:49Z</time>
<speed>4.020000</speed>
<extensions>
<speed>4.0</speed>
<temp>0.00</temp>
<bpm>0</bpm>
<rpm>0.00</rpm>
</extensions>
</trkpt>
<trkpt lat="64.309120178" lon="-20.225299835">
<ele>142.687500</ele>
<time>2012-07-20T10:53:54Z</time>
<speed>4.460000</speed>
<extensions>
<speed>4.5</speed>
<temp>0.00</temp>
<bpm>0</bpm>
<rpm>0.00</rpm>
</extensions>
</trkpt>
<trkpt lat="64.309089661" lon="-20.224899292">
<ele>143.304688</ele>
<time>2012-07-20T10:53:59Z</time>
<speed>3.250000</speed>
<extensions>
<speed>3.2</speed>
<temp>0.00</temp>
<bpm>0</bpm>
<rpm>0.00</rpm>
</extensions>
</trkpt>
<trkpt lat="64.309066772" lon="-20.224596024">
<ele>144.164063</ele>
<time>2012-07-20T10:54:04Z</time>
<speed>3.030000</speed>
<extensions>
<speed>3.0</speed>
<temp>0.00</temp>
<bpm>0</bpm>
<rpm>0.00</rpm>
</extensions>
</trkpt>
<trkpt lat="64.309043884" lon="-20.224300385">
<ele>144.855469</ele>
<time>2012-07-20T10:54:09Z</time>
<speed>2.770000</speed>
<extensions>
<speed>2.8</speed>
<temp>0.00</temp>
<bpm>0</bpm>
<rpm>0.00</rpm>
</extensions>
</trkpt>
<trkpt lat="64.309020996" lon="-20.224046707">
<ele>145.515625</ele>
<time>2012-07-20T10:54:14Z</time>
<speed>2.570000</speed>
<extensions>
<speed>2.6</speed>
<temp>0.00</temp>
<bpm>0</bpm>
<rpm>0.00</rpm>
</extensions>
</trkpt>
<trkpt lat="64.308998108" lon="-20.223783493">
<ele>146.210938</ele>
<time>2012-07-20T10:54:19Z</time>
<speed>2.540000</speed>
<extensions>
<speed>2.5</speed>
<temp>0.00</temp>
<bpm>0</bpm>
<rpm>0.00</rpm>
</extensions>
</trkpt>
<trkpt lat="64.308982849" lon="-20.223514557">
<ele>146.726563</ele>
<time>2012-07-20T10:54:24Z</time>
<speed>2.590000</speed>
<extensions>
<speed>2.6</speed>
<temp>0.00</temp>
<bpm>0</bpm>
<rpm>0.00</rpm>
</extensions>
</trkpt>
<trkpt lat="64.308959961" lon="-20.223262787">
<ele>147.339844</ele>
<time>2012-07-20T10:54:29Z</time>
<speed>2.540000</speed>
<extensions>
<speed>2.5</speed>
<temp>0.00</temp>
<bpm>0</bpm>
<rpm>0.00</rpm>
</extensions>
</trkpt>
<trkpt lat="64.308944702" lon="-20.223007202">
<ele>147.781250</ele>
<time>2012-07-20T10:54:34Z</time>
<speed>2.600000</speed>
<extensions>
<speed>2.6</speed>
<temp>0.00</temp>
<bpm>0</bpm>
<rpm>0.00</rpm>
</extensions>
</trkpt>
<trkpt lat="64.308929443" lon="-20.222761154">
<ele>147.890625</ele>
<time>2012-07-20T10:54:39Z</time>
<speed>2.180000</speed>
<extensions>
<speed>2.2</speed>
<temp>0.00</temp>
<bpm>0</bpm>
<rpm>0.00</rpm>
</extensions>
</trkpt>
<trkpt lat="64.308906555" lon="-20.222526550">
<ele>148.152344</ele>
<time>2012-07-20T10:54:44Z</time>
<speed>2.710000</speed>
<extensions>
<speed>2.7</speed>
<temp>0.00</temp>
<bpm>0</bpm>
<rpm>0.00</rpm>
</extensions>
</trkpt>
<trkpt lat="64.308883667" lon="-20.222255707">
<ele>148.175781</ele>
<time>2012-07-20T10:54:49Z</time>
<speed>2.780000</speed>
<extensions>
<speed>2.8</speed>
<temp>0.00</temp>
<bpm>0</bpm>
<rpm>0.00</rpm>
</extensions>
</trkpt>
<trkpt lat="64.308860779" lon="-20.221971512">
<ele>148.441406</ele>
<time>2012-07-20T10:54:54Z</time>
<speed>2.680000</speed>
<extensions>
<speed>2.7</speed>
<temp>0.00</temp>
<bpm>0</bpm>
<rpm>0.00</rpm>
</extensions>
</trkpt>
<trkpt lat="64.308837891" lon="-20.221693039">
<ele>149.113281</ele>
<time>2012-07-20T10:54:59Z</time>
<speed>2.470000</speed>
<extensions>
<speed>2.5</speed>
<temp>0.00</temp>
<bpm>0</bpm>
<rpm>0.00</rpm>
</extensions>
</trkpt>
<trkpt lat="64.308830261" lon="-20.221422195">
<ele>149.937500</ele>
<time>2012-07-20T10:55:04Z</time>
<speed>2.880000</speed>
<extensions>
<speed>2.9</speed>
<temp>0.00</temp>
<bpm>0</bpm>
<rpm>0.00</rpm>
</extensions>
</trkpt>
<trkpt lat="64.308807373" lon="-20.221147537">
<ele>149.886719</ele>
<time>2012-07-20T10:55:09Z</time>
<speed>1.970000</speed>
<extensions>
<speed>2.0</speed>
<temp>0.00</temp>
<bpm>0</bpm>
<rpm>0.00</rpm>
</extensions>
</trkpt>
<trkpt lat="64.308792114" lon="-20.220888138">
<ele>147.148438</ele>
<time>2012-07-20T10:55:14Z</time>
<speed>2.980000</speed>
<extensions>
<speed>3.0</speed>
<temp>0.00</temp>
<bpm>0</bpm>
<rpm>0.00</rpm>
</extensions>
</trkpt>
<trkpt lat="64.308769226" lon="-20.220592499">
<ele>148.121094</ele>
<time>2012-07-20T10:55:19Z</time>
<speed>2.990000</speed>
<extensions>
<speed>3.0</speed>
<temp>0.00</temp>
<bpm>0</bpm>
<rpm>0.00</rpm>
</extensions>
</trkpt>
<trkpt lat="64.308746338" lon="-20.220306396">
<ele>149.242188</ele>
<time>2012-07-20T10:55:24Z</time>
<speed>2.890000</speed>
<extensions>
<speed>2.9</speed>
<temp>0.00</temp>
<bpm>0</bpm>
<rpm>0.00</rpm>
</extensions>
</trkpt>
<trkpt lat="64.308723450" lon="-20.220026016">
<ele>150.007813</ele>
<time>2012-07-20T10:55:29Z</time>
<speed>2.690000</speed>
<extensions>
<speed>2.7</speed>
<temp>0.00</temp>
<bpm>0</bpm>
<rpm>0.00</rpm>
</extensions>
</trkpt>
<trkpt lat="64.308700562" lon="-20.219758987">
<ele>150.457031</ele>
<time>2012-07-20T10:55:34Z</time>
<speed>2.460000</speed>
<extensions>
<speed>2.5</speed>
<temp>0.00</temp>
<bpm>0</bpm>
<rpm>0.00</rpm>
</extensions>
</trkpt>
<trkpt lat="64.308677673" lon="-20.219501495">
<ele>151.414063</ele>
<time>2012-07-20T10:55:39Z</time>
<speed>2.660000</speed>
<extensions>
<speed>2.7</speed>
<temp>0.00</temp>
<bpm>0</bpm>
<rpm>0.00</rpm>
</extensions>
</trkpt>
<trkpt lat="64.308654785" lon="-20.219234467">
<ele>152.257813</ele>
<time>2012-07-20T10:55:44Z</time>
<speed>2.720000</speed>
<extensions>
<speed>2.7</speed>
<temp>0.00</temp>
<bpm>0</bpm>
<rpm>0.00</rpm>
</extensions>
</trkpt>
<trkpt lat="64.308639526" lon="-20.218959808">
<ele>152.597656</ele>
<time>2012-07-20T10:55:49Z</time>
<speed>2.870000</speed>
<extensions>
<speed>2.9</speed>
<temp>0.00</temp>
<bpm>0</bpm>
<rpm>0.00</rpm>
</extensions>
</trkpt>
<trkpt lat="64.308624268" lon="-20.218658447">
<ele>153.074219</ele>
<time>2012-07-20T10:55:54Z</time>
<speed>2.720000</speed>
<extensions>
<speed>2.7</speed>
<temp>0.00</temp>
<bpm>0</bpm>
<rpm>0.00</rpm>
</extensions>
</trkpt>
<trkpt lat="64.308601379" lon="-20.218385696">
<ele>154.183594</ele>
<time>2012-07-20T10:55:59Z</time>
<speed>2.650000</speed>
<extensions>
<speed>2.6</speed>
<temp>0.00</temp>
<bpm>0</bpm>
<rpm>0.00</rpm>
</extensions>
</trkpt>
<trkpt lat="64.308578491" lon="-20.218122482">
<ele>154.664063</ele>
<time>2012-07-20T10:56:04Z</time>
<speed>2.780000</speed>
<extensions>
<speed>2.8</speed>
<temp>0.00</temp>
<bpm>0</bpm>
<rpm>0.00</rpm>
</extensions>
</trkpt>
<trkpt lat="64.308555603" lon="-20.217853546">
<ele>155.535156</ele>
<time>2012-07-20T10:56:09Z</time>
<speed>2.490000</speed>
<extensions>
<speed>2.5</speed>
<temp>0.00</temp>
<bpm>0</bpm>
<rpm>0.00</rpm>
</extensions>
</trkpt>
<trkpt lat="64.308532715" lon="-20.217584610">
<ele>155.835938</ele>
<time>2012-07-20T10:56:14Z</time>
<speed>2.490000</speed>
<extensions>
<speed>2.5</speed>
<temp>0.00</temp>
<bpm>0</bpm>
<rpm>0.00</rpm>
</extensions>
</trkpt>
<trkpt lat="64.308509827" lon="-20.217351913">
<ele>156.039063</ele>
<time>2012-07-20T10:56:19Z</time>
<speed>2.150000</speed>
<extensions>
<speed>2.1</speed>
<temp>0.00</temp>
<bpm>0</bpm>
<rpm>0.00</rpm>
</extensions>
</trkpt>
<trkpt lat="64.308502197" lon="-20.217103958">
<ele>156.652344</ele>
<time>2012-07-20T10:56:24Z</time>
<speed>2.660000</speed>
<extensions>
<speed>2.7</speed>
<temp>0.00</temp>
<bpm>0</bpm>
<rpm>0.00</rpm>
</extensions>
</trkpt>
<trkpt lat="64.308471680" lon="-20.216831207">
<ele>157.082031</ele>
<time>2012-07-20T10:56:29Z</time>
<speed>2.630000</speed>
<extensions>
<speed>2.6</speed>
<temp>0.00</temp>
<bpm>0</bpm>
<rpm>0.00</rpm>
</extensions>
</trkpt>
<trkpt lat="64.308448792" lon="-20.216552734">
<ele>157.332031</ele>
<time>2012-07-20T10:56:34Z</time>
<speed>2.640000</speed>
<extensions>
<speed>2.6</speed>
<temp>0.00</temp>
<bpm>0</bpm>
<rpm>0.00</rpm>
</extensions>
</trkpt>
<trkpt lat="64.308433533" lon="-20.216276169">
<ele>158.191406</ele>
<time>2012-07-20T10:56:39Z</time>
<speed>2.650000</speed>
<extensions>
<speed>2.6</speed>
<temp>0.00</temp>
<bpm>0</bpm>
<rpm>0.00</rpm>
</extensions>
</trkpt>
<trkpt lat="64.308410645" lon="-20.215999603">
<ele>158.867188</ele>
<time>2012-07-20T10:56:44Z</time>
<speed>2.580000</speed>
<extensions>
<speed>2.6</speed>
<temp>0.00</temp>
<bpm>0</bpm>
<rpm>0.00</rpm>
</extensions>
</trkpt>
<trkpt lat="64.308387756" lon="-20.215728760">
<ele>159.453125</ele>
<time>2012-07-20T10:56:49Z</time>
<speed>2.590000</speed>
<extensions>
<speed>2.6</speed>
<temp>0.00</temp>
<bpm>0</bpm>
<rpm>0.00</rpm>
</extensions>
</trkpt>
<trkpt lat="64.308372498" lon="-20.215459824">
<ele>160.109375</ele>
<time>2012-07-20T10:56:54Z</time>
<speed>2.650000</speed>
<extensions>
<speed>2.6</speed>
<temp>0.00</temp>
<bpm>0</bpm>
<rpm>0.00</rpm>
</extensions>
</trkpt>
<trkpt lat="64.308349609" lon="-20.215192795">
<ele>160.781250</ele>
<time>2012-07-20T10:56:59Z</time>
<speed>2.610000</speed>
<extensions>
<speed>2.6</speed>
<temp>0.00</temp>
<bpm>0</bpm>
<rpm>0.00</rpm>
</extensions>
</trkpt>
<trkpt lat="64.308326721" lon="-20.214931488">
<ele>161.269531</ele>
<time>2012-07-20T10:57:04Z</time>
<speed>2.530000</speed>
<extensions>
<speed>2.5</speed>
<temp>0.00</temp>
<bpm>0</bpm>
<rpm>0.00</rpm>
</extensions>
</trkpt>
<trkpt lat="64.308311462" lon="-20.214658737">
<ele>162.011719</ele>
<time>2012-07-20T10:57:09Z</time>
<speed>2.550000</speed>
<extensions>
<speed>2.6</speed>
<temp>0.00</temp>
<bpm>0</bpm>
<rpm>0.00</rpm>
</extensions>
</trkpt>
<trkpt lat="64.308296204" lon="-20.214401245">
<ele>162.628906</ele>
<time>2012-07-20T10:57:14Z</time>
<speed>2.620000</speed>
<extensions>
<speed>2.6</speed>
<temp>0.00</temp>
<bpm>0</bpm>
<rpm>0.00</rpm>
</extensions>
</trkpt>
<trkpt lat="64.308273315" lon="-20.214143753">
<ele>163.515625</ele>
<time>2012-07-20T10:57:19Z</time>
<speed>2.630000</speed>
<extensions>
<speed>2.6</speed>
<temp>0.00</temp>
<bpm>0</bpm>
<rpm>0.00</rpm>
</extensions>
</trkpt>
<trkpt lat="64.308250427" lon="-20.213874817">
<ele>164.046875</ele>
<time>2012-07-20T10:57:24Z</time>
<speed>2.680000</speed>
<extensions>
<speed>2.7</speed>
<temp>0.00</temp>
<bpm>0</bpm>
<rpm>0.00</rpm>
</extensions>
</trkpt>
<trkpt lat="64.308235168" lon="-20.213609695">
<ele>164.453125</ele>
<time>2012-07-20T10:57:29Z</time>
<speed>2.550000</speed>
<extensions>
<speed>2.6</speed>
<temp>0.00</temp>
<bpm>0</bpm>
<rpm>0.00</rpm>
</extensions>
</trkpt>
<trkpt lat="64.308212280" lon="-20.213342667">
<ele>164.972656</ele>
<time>2012-07-20T10:57:34Z</time>
<speed>2.820000</speed>
<extensions>
<speed>2.8</speed>
<temp>0.00</temp>
<bpm>0</bpm>
<rpm>0.00</rpm>
</extensions>
</trkpt>
<trkpt lat="64.308197021" lon="-20.213075638">
<ele>165.906250</ele>
<time>2012-07-20T10:57:39Z</time>
<speed>2.980000</speed>
<extensions>
<speed>3.0</speed>
<temp>0.00</temp>
<bpm>0</bpm>
<rpm>0.00</rpm>
</extensions>
</trkpt>
<trkpt lat="64.308166504" lon="-20.212739944">
<ele>166.027344</ele>
<time>2012-07-20T10:57:44Z</time>
<speed>2.980000</speed>
<extensions>
<speed>3.0</speed>
<temp>0.00</temp>
<bpm>0</bpm>
<rpm>0.00</rpm>
</extensions>
</trkpt>
<trkpt lat="64.308143616" lon="-20.212450027">
<ele>166.742188</ele>
<time>2012-07-20T10:57:49Z</time>
<speed>3.000000</speed>
<extensions>
<speed>3.0</speed>
<temp>0.00</temp>
<bpm>0</bpm>
<rpm>0.00</rpm>
</extensions>
</trkpt>
<trkpt lat="64.308120728" lon="-20.212141037">
<ele>166.921875</ele>
<time>2012-07-20T10:57:54Z</time>
<speed>3.020000</speed>
<extensions>
<speed>3.0</speed>
<temp>0.00</temp>
<bpm>0</bpm>
<rpm>0.00</rpm>
</extensions>
</trkpt>
<trkpt lat="64.308105469" lon="-20.211870193">
<ele>167.429688</ele>
<time>2012-07-20T10:57:59Z</time>
<speed>2.730000</speed>
<extensions>
<speed>2.7</speed>
<temp>0.00</temp>
<bpm>0</bpm>
<rpm>0.00</rpm>
</extensions>
</trkpt>
<trkpt lat="64.308090210" lon="-20.211572647">
<ele>168.097656</ele>
<time>2012-07-20T10:58:04Z</time>
<speed>2.780000</speed>
<extensions>
<speed>2.8</speed>
<temp>0.00</temp>
<bpm>0</bpm>
<rpm>0.00</rpm>
</extensions>
</trkpt>
<trkpt lat="64.308067322" lon="-20.211275101">
<ele>168.253906</ele>
<time>2012-07-20T10:58:09Z</time>
<speed>2.820000</speed>
<extensions>
<speed>2.8</speed>
<temp>0.00</temp>
<bpm>0</bpm>
<rpm>0.00</rpm>
</extensions>
</trkpt>
<trkpt lat="64.308036804" lon="-20.210996628">
<ele>168.464844</ele>
<time>2012-07-20T10:58:14Z</time>
<speed>2.760000</speed>
<extensions>
<speed>2.8</speed>
<temp>0.00</temp>
<bpm>0</bpm>
<rpm>0.00</rpm>
</extensions>
</trkpt>
<trkpt lat="64.308013916" lon="-20.210710526">
<ele>168.503906</ele>
<time>2012-07-20T10:58:19Z</time>
<speed>2.820000</speed>
<extensions>
<speed>2.8</speed>
<temp>0.00</temp>
<bpm>0</bpm>
<rpm>0.00</rpm>
</extensions>
</trkpt>
<trkpt lat="64.307998657" lon="-20.210397720">
<ele>168.691406</ele>
<time>2012-07-20T10:58:24Z</time>
<speed>3.110000</speed>
<extensions>
<speed>3.1</speed>
<temp>0.00</temp>
<bpm>0</bpm>
<rpm>0.00</rpm>
</extensions>
</trkpt>
<trkpt lat="64.307975769" lon="-20.210098267">
<ele>168.585938</ele>
<time>2012-07-20T10:58:29Z</time>
<speed>3.220000</speed>
<extensions>
<speed>3.2</speed>
<temp>0.00</temp>
<bpm>0</bpm>
<rpm>0.00</rpm>
</extensions>
</trkpt>
<trkpt lat="64.307952881" lon="-20.209775925">
<ele>169.015625</ele>
<time>2012-07-20T10:58:34Z</time>
<speed>3.500000</speed>
<extensions>
<speed>3.5</speed>
<temp>0.00</temp>
<bpm>0</bpm>
<rpm>0.00</rpm>
</extensions>
</trkpt>
<trkpt lat="64.307922363" lon="-20.209417343">
<ele>169.539063</ele>
<time>2012-07-20T10:58:39Z</time>
<speed>3.520000</speed>
<extensions>
<speed>3.5</speed>
<temp>0.00</temp>
<bpm>0</bpm>
<rpm>0.00</rpm>
</extensions>
</trkpt>
<trkpt lat="64.307899475" lon="-20.209060669">
<ele>170.113281</ele>
<time>2012-07-20T10:58:44Z</time>
<speed>3.610000</speed>
<extensions>
<speed>3.6</speed>
<temp>0.00</temp>
<bpm>0</bpm>
<rpm>0.00</rpm>
</extensions>
</trkpt>
<trkpt lat="64.307868958" lon="-20.208681107">
<ele>170.746094</ele>
<time>2012-07-20T10:58:49Z</time>
<speed>3.700000</speed>
<extensions>
<speed>3.7</speed>
<temp>0.00</temp>
<bpm>0</bpm>
<rpm>0.00</rpm>
</extensions>
</trkpt>
<trkpt lat="64.307846069" lon="-20.208322525">
<ele>171.777344</ele>
<time>2012-07-20T10:58:54Z</time>
<speed>3.620000</speed>
<extensions>
<speed>3.6</speed>
<temp>0.00</temp>
<bpm>0</bpm>
<rpm>0.00</rpm>
</extensions>
</trkpt>
<trkpt lat="64.307815552" lon="-20.207946777">
<ele>172.113281</ele>
<time>2012-07-20T10:58:59Z</time>
<speed>3.820000</speed>
<extensions>
<speed>3.8</speed>
<temp>0.00</temp>
<bpm>0</bpm>
<rpm>0.00</rpm>
</extensions>
</trkpt>
<trkpt lat="64.307785034" lon="-20.207557678">
<ele>172.281250</ele>
<time>2012-07-20T10:59:04Z</time>
<speed>3.650000</speed>
<extensions>
<speed>3.7</speed>
<temp>0.00</temp>
<bpm>0</bpm>
<rpm>0.00</rpm>
</extensions>
</trkpt>
<trkpt lat="64.307754517" lon="-20.207183838">
<ele>172.703125</ele>
<time>2012-07-20T10:59:09Z</time>
<speed>3.580000</speed>
<extensions>
<speed>3.6</speed>
<temp>0.00</temp>
<bpm>0</bpm>
<rpm>0.00</rpm>
</extensions>
</trkpt>
<trkpt lat="64.307723999" lon="-20.206802368">
<ele>173.175781</ele>
<time>2012-07-20T10:59:14Z</time>
<speed>3.910000</speed>
<extensions>
<speed>3.9</speed>
<temp>0.00</temp>
<bpm>0</bpm>
<rpm>0.00</rpm>
</extensions>
</trkpt>
<trkpt lat="64.307685852" lon="-20.206401825">
<ele>173.171875</ele>
<time>2012-07-20T10:59:19Z</time>
<speed>4.180000</speed>
<extensions>
<speed>4.2</speed>
<temp>0.00</temp>
<bpm>0</bpm>
<rpm>0.00</rpm>
</extensions>
</trkpt>
<trkpt lat="64.307655334" lon="-20.205997467">
<ele>173.066406</ele>
<time>2012-07-20T10:59:24Z</time>
<speed>3.940000</speed>
<extensions>
<speed>3.9</speed>
<temp>0.00</temp>
<bpm>0</bpm>
<rpm>0.00</rpm>
</extensions>
</trkpt>
<trkpt lat="64.307632446" lon="-20.205587387">
<ele>173.250000</ele>
<time>2012-07-20T10:59:29Z</time>
<speed>3.710000</speed>
<extensions>
<speed>3.7</speed>
<temp>0.00</temp>
<bpm>0</bpm>
<rpm>0.00</rpm>
</extensions>
</trkpt>
<trkpt lat="64.307594299" lon="-20.205190659">
<ele>173.503906</ele>
<time>2012-07-20T10:59:34Z</time>
<speed>4.330000</speed>
<extensions>
<speed>4.3</speed>
<temp>0.00</temp>
<bpm>0</bpm>
<rpm>0.00</rpm>
</extensions>
</trkpt>
<trkpt lat="64.307571411" lon="-20.204772949">
<ele>174.082031</ele>
<time>2012-07-20T10:59:39Z</time>
<speed>4.060000</speed>
<extensions>
<speed>4.1</speed>
<temp>0.00</temp>
<bpm>0</bpm>
<rpm>0.00</rpm>
</extensions>
</trkpt>
<trkpt lat="64.307533264" lon="-20.204317093">
<ele>174.105469</ele>
<time>2012-07-20T10:59:44Z</time>
<speed>4.620000</speed>
<extensions>
<speed>4.6</speed>
<temp>0.00</temp>
<bpm>0</bpm>
<rpm>0.00</rpm>
</extensions>
</trkpt>
<trkpt lat="64.307495117" lon="-20.203811646">
<ele>174.167969</ele>
<time>2012-07-20T10:59:49Z</time>
<speed>5.150000</speed>
<extensions>
<speed>5.2</speed>
<temp>0.00</temp>
<bpm>0</bpm>
<rpm>0.00</rpm>
</extensions>
</trkpt>
<trkpt lat="64.307449341" lon="-20.203268051">
<ele>173.968750</ele>
<time>2012-07-20T10:59:54Z</time>
<speed>5.180000</speed>
<extensions>
<speed>5.2</speed>
<temp>0.00</temp>
<bpm>0</bpm>
<rpm>0.00</rpm>
</extensions>
</trkpt>
<trkpt lat="64.307411194" lon="-20.202781677">
<ele>174.414063</ele>
<time>2012-07-20T10:59:59Z</time>
<speed>4.950000</speed>
<extensions>
<speed>4.9</speed>
<temp>0.00</temp>
<bpm>0</bpm>
<rpm>0.00</rpm>
</extensions>
</trkpt>
<trkpt lat="64.307380676" lon="-20.202264786">
<ele>174.593750</ele>
<time>2012-07-20T11:00:04Z</time>
<speed>5.170000</speed>
<extensions>
<speed>5.2</speed>
<temp>0.00</temp>
<bpm>0</bpm>
<rpm>0.00</rpm>
</extensions>
</trkpt>
<trkpt lat="64.307334900" lon="-20.201721191">
<ele>174.824219</ele>
<time>2012-07-20T11:00:09Z</time>
<speed>5.480000</speed>
<extensions>
<speed>5.5</speed>
<temp>0.00</temp>
<bpm>0</bpm>
<rpm>0.00</rpm>
</extensions>
</trkpt>
<trkpt lat="64.307296753" lon="-20.201154709">
<ele>175.203125</ele>
<time>2012-07-20T11:00:14Z</time>
<speed>5.400000</speed>
<extensions>
<speed>5.4</speed>
<temp>0.00</temp>
<bpm>0</bpm>
<rpm>0.00</rpm>
</extensions>
</trkpt>
<trkpt lat="64.307250977" lon="-20.200643539">
<ele>176.105469</ele>
<time>2012-07-20T11:00:19Z</time>
<speed>4.640000</speed>
<extensions>
<speed>4.6</speed>
<temp>0.00</temp>
<bpm>0</bpm>
<rpm>0.00</rpm>
</extensions>
</trkpt>
<trkpt lat="64.307212830" lon="-20.200134277">
<ele>175.414063</ele>
<time>2012-07-20T11:00:24Z</time>
<speed>4.850000</speed>
<extensions>
<speed>4.8</speed>
<temp>0.00</temp>
<bpm>0</bpm>
<rpm>0.00</rpm>
</extensions>
</trkpt>
<trkpt lat="64.307182312" lon="-20.199674606">
<ele>176.152344</ele>
<time>2012-07-20T11:00:29Z</time>
<speed>4.440000</speed>
<extensions>
<speed>4.4</speed>
<temp>0.00</temp>
<bpm>0</bpm>
<rpm>0.00</rpm>
</extensions>
</trkpt>
<trkpt lat="64.307151794" lon="-20.199247360">
<ele>176.542969</ele>
<time>2012-07-20T11:00:34Z</time>
<speed>4.290000</speed>
<extensions>
<speed>4.3</speed>
<temp>0.00</temp>
<bpm>0</bpm>
<rpm>0.00</rpm>
</extensions>
</trkpt>
<trkpt lat="64.307113647" lon="-20.198802948">
<ele>176.878906</ele>
<time>2012-07-20T11:00:39Z</time>
<speed>4.420000</speed>
<extensions>
<speed>4.4</speed>
<temp>0.00</temp>
<bpm>0</bpm>
<rpm>0.00</rpm>
</extensions>
</trkpt>
<trkpt lat="64.307090759" lon="-20.198368073">
<ele>177.777344</ele>
<time>2012-07-20T11:00:44Z</time>
<speed>4.080000</speed>
<extensions>
<speed>4.1</speed>
<temp>0.00</temp>
<bpm>0</bpm>
<rpm>0.00</rpm>
</extensions>
</trkpt>
<trkpt lat="64.307052612" lon="-20.197965622">
<ele>178.218750</ele>
<time>2012-07-20T11:00:49Z</time>
<speed>3.730000</speed>
<extensions>
<speed>3.7</speed>
<temp>0.00</temp>
<bpm>0</bpm>
<rpm>0.00</rpm>
</extensions>
</trkpt>
<trkpt lat="64.307029724" lon="-20.197580338">
<ele>176.945313</ele>
<time>2012-07-20T11:00:54Z</time>
<speed>3.560000</speed>
<extensions>
<speed>3.6</speed>
<temp>0.00</temp>
<bpm>0</bpm>
<rpm>0.00</rpm>
</extensions>
</trkpt>
<trkpt lat="64.306999207" lon="-20.197229385">
<ele>177.761719</ele>
<time>2012-07-20T11:00:59Z</time>
<speed>3.580000</speed>
<extensions>
<speed>3.6</speed>
<temp>0.00</temp>
<bpm>0</bpm>
<rpm>0.00</rpm>
</extensions>
</trkpt>
<trkpt lat="64.306968689" lon="-20.196876526">
<ele>178.562500</ele>
<time>2012-07-20T11:01:04Z</time>
<speed>3.410000</speed>
<extensions>
<speed>3.4</speed>
<temp>0.00</temp>
<bpm>0</bpm>
<rpm>0.00</rpm>
</extensions>
</trkpt>
<trkpt lat="64.306945801" lon="-20.196554184">
<ele>179.132813</ele>
<time>2012-07-20T11:01:09Z</time>
<speed>3.140000</speed>
<extensions>
<speed>3.1</speed>
<temp>0.00</temp>
<bpm>0</bpm>
<rpm>0.00</rpm>
</extensions>
</trkpt>
<trkpt lat="64.306907654" lon="-20.196229935">
<ele>179.871094</ele>
<time>2012-07-20T11:01:14Z</time>
<speed>3.030000</speed>
<extensions>
<speed>3.0</speed>
<temp>0.00</temp>
<bpm>0</bpm>
<rpm>0.00</rpm>
</extensions>
</trkpt>
<trkpt lat="64.306892395" lon="-20.195936203">
<ele>180.730469</ele>
<time>2012-07-20T11:01:19Z</time>
<speed>2.730000</speed>
<extensions>
<speed>2.7</speed>
<temp>0.00</temp>
<bpm>0</bpm>
<rpm>0.00</rpm>
</extensions>
</trkpt>
<trkpt lat="64.306869507" lon="-20.195653915">
<ele>181.781250</ele>
<time>2012-07-20T11:01:24Z</time>
<speed>2.590000</speed>
<extensions>
<speed>2.6</speed>
<temp>0.00</temp>
<bpm>0</bpm>
<rpm>0.00</rpm>
</extensions>
</trkpt>
<trkpt lat="64.306823730" lon="-20.195392609">
<ele>182.031250</ele>
<time>2012-07-20T11:01:29Z</time>
<speed>2.710000</speed>
<extensions>
<speed>2.7</speed>
<temp>0.00</temp>
<bpm>0</bpm>
<rpm>0.00</rpm>
</extensions>
</trkpt>
<trkpt lat="64.306800842" lon="-20.195133209">
<ele>182.566406</ele>
<time>2012-07-20T11:01:34Z</time>
<speed>2.500000</speed>
<extensions>
<speed>2.5</speed>
<temp>0.00</temp>
<bpm>0</bpm>
<rpm>0.00</rpm>
</extensions>
</trkpt>
<trkpt lat="64.306777954" lon="-20.194889069">
<ele>183.492188</ele>
<time>2012-07-20T11:01:39Z</time>
<speed>2.310000</speed>
<extensions>
<speed>2.3</speed>
<temp>0.00</temp>
<bpm>0</bpm>
<rpm>0.00</rpm>
</extensions>
</trkpt>
<trkpt lat="64.306762695" lon="-20.194616318">
<ele>184.054688</ele>
<time>2012-07-20T11:01:44Z</time>
<speed>2.740000</speed>
<extensions>
<speed>2.7</speed>
<temp>0.00</temp>
<bpm>0</bpm>
<rpm>0.00</rpm>
</extensions>
</trkpt>
<trkpt lat="64.306732178" lon="-20.194311142">
<ele>184.109375</ele>
<time>2012-07-20T11:01:49Z</time>
<speed>3.200000</speed>
<extensions>
<speed>3.2</speed>
<temp>0.00</temp>
<bpm>0</bpm>
<rpm>0.00</rpm>
</extensions>
</trkpt>
<trkpt lat="64.306701660" lon="-20.193986893">
<ele>184.351563</ele>
<time>2012-07-20T11:01:54Z</time>
<speed>3.180000</speed>
<extensions>
<speed>3.2</speed>
<temp>0.00</temp>
<bpm>0</bpm>
<rpm>0.00</rpm>
</extensions>
</trkpt>
<trkpt lat="64.306663513" lon="-20.193651199">
<ele>184.910156</ele>
<time>2012-07-20T11:01:59Z</time>
<speed>3.580000</speed>
<extensions>
<speed>3.6</speed>
<temp>0.00</temp>
<bpm>0</bpm>
<rpm>0.00</rpm>
</extensions>
</trkpt>
<trkpt lat="64.306625366" lon="-20.193298340">
<ele>185.457031</ele>
<time>2012-07-20T11:02:04Z</time>
<speed>3.450000</speed>
<extensions>
<speed>3.5</speed>
<temp>0.00</temp>
<bpm>0</bpm>
<rpm>0.00</rpm>
</extensions>
</trkpt>
<trkpt lat="64.306594849" lon="-20.192920685">
<ele>185.953125</ele>
<time>2012-07-20T11:02:09Z</time>
<speed>3.620000</speed>
<extensions>
<speed>3.6</speed>
<temp>0.00</temp>
<bpm>0</bpm>
<rpm>0.00</rpm>
</extensions>
</trkpt>
<trkpt lat="64.306564331" lon="-20.192594528">
<ele>185.925781</ele>
<time>2012-07-20T11:02:14Z</time>
<speed>3.070000</speed>
<extensions>
<speed>3.1</speed>
<temp>0.00</temp>
<bpm>0</bpm>
<rpm>0.00</rpm>
</extensions>
</trkpt>
<trkpt lat="64.306533813" lon="-20.192186356">
<ele>185.871094</ele>
<time>2012-07-20T11:02:19Z</time>
<speed>4.150000</speed>
<extensions>
<speed>4.1</speed>
<temp>0.00</temp>
<bpm>0</bpm>
<rpm>0.00</rpm>
</extensions>
</trkpt>
<trkpt lat="64.306488037" lon="-20.191776276">
<ele>186.957031</ele>
<time>2012-07-20T11:02:24Z</time>
<speed>4.290000</speed>
<extensions>
<speed>4.3</speed>
<temp>0.00</temp>
<bpm>0</bpm>
<rpm>0.00</rpm>
</extensions>
</trkpt>
<trkpt lat="64.306449890" lon="-20.191356659">
<ele>187.855469</ele>
<time>2012-07-20T11:02:29Z</time>
<speed>4.240000</speed>
<extensions>
<speed>4.2</speed>
<temp>0.00</temp>
<bpm>0</bpm>
<rpm>0.00</rpm>
</extensions>
</trkpt>
<trkpt lat="64.306411743" lon="-20.190917969">
<ele>188.402344</ele>
<time>2012-07-20T11:02:34Z</time>
<speed>4.310000</speed>
<extensions>
<speed>4.3</speed>
<temp>0.00</temp>
<bpm>0</bpm>
<rpm>0.00</rpm>
</extensions>
</trkpt>
<trkpt lat="64.306365967" lon="-20.190504074">
<ele>189.003906</ele>
<time>2012-07-20T11:02:39Z</time>
<speed>3.810000</speed>
<extensions>
<speed>3.8</speed>
<temp>0.00</temp>
<bpm>0</bpm>
<rpm>0.00</rpm>
</extensions>
</trkpt>
<trkpt lat="64.306335449" lon="-20.190093994">
<ele>189.960938</ele>
<time>2012-07-20T11:02:44Z</time>
<speed>4.260000</speed>
<extensions>
<speed>4.3</speed>
<temp>0.00</temp>
<bpm>0</bpm>
<rpm>0.00</rpm>
</extensions>
</trkpt>
<trkpt lat="64.306289673" lon="-20.189624786">
<ele>190.363281</ele>
<time>2012-07-20T11:02:49Z</time>
<speed>4.910000</speed>
<extensions>
<speed>4.9</speed>
<temp>0.00</temp>
<bpm>0</bpm>
<rpm>0.00</rpm>
</extensions>
</trkpt>
<trkpt lat="64.306236267" lon="-20.189126968">
<ele>190.648438</ele>
<time>2012-07-20T11:02:54Z</time>
<speed>4.860000</speed>
<extensions>
<speed>4.9</speed>
<temp>0.00</temp>
<bpm>0</bpm>
<rpm>0.00</rpm>
</extensions>
</trkpt>
<trkpt lat="64.306182861" lon="-20.188629150">
<ele>190.496094</ele>
<time>2012-07-20T11:02:59Z</time>
<speed>4.950000</speed>
<extensions>
<speed>4.9</speed>
<temp>0.00</temp>
<bpm>0</bpm>
<rpm>0.00</rpm>
</extensions>
</trkpt>
<trkpt lat="64.306137085" lon="-20.188119888">
<ele>190.539063</ele>
<time>2012-07-20T11:03:04Z</time>
<speed>5.030000</speed>
<extensions>
<speed>5.0</speed>
<temp>0.00</temp>
<bpm>0</bpm>
<rpm>0.00</rpm>
</extensions>
</trkpt>
<trkpt lat="64.306083679" lon="-20.187601089">
<ele>190.121094</ele>
<time>2012-07-20T11:03:09Z</time>
<speed>5.070000</speed>
<extensions>
<speed>5.1</speed>
<temp>0.00</temp>
<bpm>0</bpm>
<rpm>0.00</rpm>
</extensions>
</trkpt>
<trkpt lat="64.306037903" lon="-20.187108994">
<ele>190.265625</ele>
<time>2012-07-20T11:03:14Z</time>
<speed>5.210000</speed>
<extensions>
<speed>5.2</speed>
<temp>0.00</temp>
<bpm>0</bpm>
<rpm>0.00</rpm>
</extensions>
</trkpt>
<trkpt lat="64.305984497" lon="-20.186538696">
<ele>189.746094</ele>
<time>2012-07-20T11:03:19Z</time>
<speed>5.480000</speed>
<extensions>
<speed>5.5</speed>
<temp>0.00</temp>
<bpm>0</bpm>
<rpm>0.00</rpm>
</extensions>
</trkpt>
<trkpt lat="64.305938721" lon="-20.186012268">
<ele>189.738281</ele>
<time>2012-07-20T11:03:24Z</time>
<speed>5.230000</speed>
<extensions>
<speed>5.2</speed>
<temp>0.00</temp>
<bpm>0</bpm>
<rpm>0.00</rpm>
</extensions>
</trkpt>
<trkpt lat="64.305885315" lon="-20.185493469">
<ele>190.132813</ele>
<time>2012-07-20T11:03:29Z</time>
<speed>5.100000</speed>
<extensions>
<speed>5.1</speed>
<temp>0.00</temp>
<bpm>0</bpm>
<rpm>0.00</rpm>
</extensions>
</trkpt>
<trkpt lat="64.305847168" lon="-20.185016632">
<ele>190.687500</ele>
<time>2012-07-20T11:03:34Z</time>
<speed>4.590000</speed>
<extensions>
<speed>4.6</speed>
<temp>0.00</temp>
<bpm>0</bpm>
<rpm>0.00</rpm>
</extensions>
</trkpt>
<trkpt lat="64.305801392" lon="-20.184577942">
<ele>190.917969</ele>
<time>2012-07-20T11:03:39Z</time>
<speed>4.540000</speed>
<extensions>
<speed>4.5</speed>
<temp>0.00</temp>
<bpm>0</bpm>
<rpm>0.00</rpm>
</extensions>
</trkpt>
<trkpt lat="64.305755615" lon="-20.184141159">
<ele>191.175781</ele>
<time>2012-07-20T11:03:44Z</time>
<speed>4.570000</speed>
<extensions>
<speed>4.6</speed>
<temp>0.00</temp>
<bpm>0</bpm>
<rpm>0.00</rpm>
</extensions>
</trkpt>
<trkpt lat="64.305717468" lon="-20.183710098">
<ele>192.050781</ele>
<time>2012-07-20T11:03:49Z</time>
<speed>4.240000</speed>
<extensions>
<speed>4.2</speed>
<temp>0.00</temp>
<bpm>0</bpm>
<rpm>0.00</rpm>
</extensions>
</trkpt>
<trkpt lat="64.305679321" lon="-20.183269501">
<ele>192.980469</ele>
<time>2012-07-20T11:03:54Z</time>
<speed>4.320000</speed>
<extensions>
<speed>4.3</speed>
<temp>0.00</temp>
<bpm>0</bpm>
<rpm>0.00</rpm>
</extensions>
</trkpt>
<trkpt lat="64.305648804" lon="-20.182809830">
<ele>193.515625</ele>
<time>2012-07-20T11:03:59Z</time>
<speed>4.450000</speed>
<extensions>
<speed>4.5</speed>
<temp>0.00</temp>
<bpm>0</bpm>
<rpm>0.00</rpm>
</extensions>
</trkpt>
<trkpt lat="64.305625916" lon="-20.182409286">
<ele>193.921875</ele>
<time>2012-07-20T11:04:04Z</time>
<speed>3.750000</speed>
<extensions>
<speed>3.8</speed>
<temp>0.00</temp>
<bpm>0</bpm>
<rpm>0.00</rpm>
</extensions>
</trkpt>
<trkpt lat="64.305595398" lon="-20.182046890">
<ele>194.933594</ele>
<time>2012-07-20T11:04:09Z</time>
<speed>3.800000</speed>
<extensions>
<speed>3.8</speed>
<temp>0.00</temp>
<bpm>0</bpm>
<rpm>0.00</rpm>
</extensions>
</trkpt>
<trkpt lat="64.305572510" lon="-20.181648254">
<ele>195.339844</ele>
<time>2012-07-20T11:04:14Z</time>
<speed>4.060000</speed>
<extensions>
<speed>4.1</speed>
<temp>0.00</temp>
<bpm>0</bpm>
<rpm>0.00</rpm>
</extensions>
</trkpt>
<trkpt lat="64.305557251" lon="-20.181230545">
<ele>195.914063</ele>
<time>2012-07-20T11:04:19Z</time>
<speed>3.850000</speed>
<extensions>
<speed>3.8</speed>
<temp>0.00</temp>
<bpm>0</bpm>
<rpm>0.00</rpm>
</extensions>
</trkpt>
<trkpt lat="64.305549622" lon="-20.180818558">
<ele>196.328125</ele>
<time>2012-07-20T11:04:24Z</time>
<speed>3.880000</speed>
<extensions>
<speed>3.9</speed>
<temp>0.00</temp>
<bpm>0</bpm>
<rpm>0.00</rpm>
</extensions>
</trkpt>
<trkpt lat="64.305541992" lon="-20.180395126">
<ele>196.914063</ele>
<time>2012-07-20T11:04:29Z</time>
<speed>4.210000</speed>
<extensions>
<speed>4.2</speed>
<temp>0.00</temp>
<bpm>0</bpm>
<rpm>0.00</rpm>
</extensions>
</trkpt>
<trkpt lat="64.305534363" lon="-20.179977417">
<ele>197.574219</ele>
<time>2012-07-20T11:04:34Z</time>
<speed>3.270000</speed>
<extensions>
<speed>3.3</speed>
<temp>0.00</temp>
<bpm>0</bpm>
<rpm>0.00</rpm>
</extensions>
</trkpt>
<trkpt lat="64.305534363" lon="-20.179664612">
<ele>198.148438</ele>
<time>2012-07-20T11:04:39Z</time>
<speed>3.150000</speed>
<extensions>
<speed>3.2</speed>
<temp>0.00</temp>
<bpm>0</bpm>
<rpm>0.00</rpm>
</extensions>
</trkpt>
<trkpt lat="64.305549622" lon="-20.179372787">
<ele>197.992188</ele>
<time>2012-07-20T11:04:44Z</time>
<speed>2.510000</speed>
<extensions>
<speed>2.5</speed>
<temp>0.00</temp>
<bpm>0</bpm>
<rpm>0.00</rpm>
</extensions>
</trkpt>
<trkpt lat="64.305534363" lon="-20.179325104">
<ele>196.960938</ele>
<time>2012-07-20T11:04:49Z</time>
<speed>0.040000</speed>
<extensions>
<speed>0.0</speed>
<temp>0.00</temp>
<bpm>0</bpm>
<rpm>0.00</rpm>
</extensions>
</trkpt>
<trkpt lat="64.305526733" lon="-20.179328918">
<ele>196.812500</ele>
<time>2012-07-20T11:04:54Z</time>
<speed>0.040000</speed>
<extensions>
<speed>0.0</speed>
<temp>0.00</temp>
<bpm>0</bpm>
<rpm>0.00</rpm>
</extensions>
</trkpt>
<trkpt lat="64.305526733" lon="-20.179325104">
<ele>196.769531</ele>
<time>2012-07-20T11:04:59Z</time>
<speed>0.750000</speed>
<extensions>
<speed>0.8</speed>
<temp>0.00</temp>
<bpm>0</bpm>
<rpm>0.00</rpm>
</extensions>
</trkpt>
<trkpt lat="64.305534363" lon="-20.179334641">
<ele>196.453125</ele>
<time>2012-07-20T11:05:04Z</time>
<speed>0.030000</speed>
<extensions>
<speed>0.0</speed>
<temp>0.00</temp>
<bpm>0</bpm>
<rpm>0.00</rpm>
</extensions>
</trkpt>
<trkpt lat="64.305534363" lon="-20.179334641">
<ele>196.429688</ele>
<time>2012-07-20T11:05:09Z</time>
<speed>0.010000</speed>
<extensions>
<speed>0.0</speed>
<temp>0.00</temp>
<bpm>0</bpm>
<rpm>0.00</rpm>
</extensions>
</trkpt>
<trkpt lat="64.305534363" lon="-20.179336548">
<ele>196.445313</ele>
<time>2012-07-20T11:05:14Z</time>
<speed>0.550000</speed>
<extensions>
<speed>0.6</speed>
<temp>0.00</temp>
<bpm>0</bpm>
<rpm>0.00</rpm>
</extensions>
</trkpt>
<trkpt lat="64.305526733" lon="-20.179332733">
<ele>196.437500</ele>
<time>2012-07-20T11:05:19Z</time>
<speed>0.020000</speed>
<extensions>
<speed>0.0</speed>
<temp>0.00</temp>
<bpm>0</bpm>
<rpm>0.00</rpm>
</extensions>
</trkpt>
<trkpt lat="64.305526733" lon="-20.179332733">
<ele>196.378906</ele>
<time>2012-07-20T11:05:24Z</time>
<extensions>
<speed>0.0</speed>
<temp>0.00</temp>
<bpm>0</bpm>
<rpm>0.00</rpm>
</extensions>
</trkpt>
<trkpt lat="64.305526733" lon="-20.179332733">
<ele>196.351563</ele>
<time>2012-07-20T11:05:29Z</time>
<extensions>
<speed>0.0</speed>
<temp>0.00</temp>
<bpm>0</bpm>
<rpm>0.00</rpm>
</extensions>
</trkpt>
<trkpt lat="64.305526733" lon="-20.179332733">
<ele>196.316406</ele>
<time>2012-07-20T11:05:34Z</time>
<speed>0.010000</speed>
<extensions>
<speed>0.0</speed>
<temp>0.00</temp>
<bpm>0</bpm>
<rpm>0.00</rpm>
</extensions>
</trkpt>
<trkpt lat="64.305526733" lon="-20.179330826">
<ele>196.382813</ele>
<time>2012-07-20T11:05:39Z</time>
<speed>0.020000</speed>
<extensions>
<speed>0.0</speed>
<temp>0.00</temp>
<bpm>0</bpm>
<rpm>0.00</rpm>
</extensions>
</trkpt>
<trkpt lat="64.305526733" lon="-20.179332733">
<ele>196.410156</ele>
<time>2012-07-20T11:05:44Z</time>
<speed>0.050000</speed>
<extensions>
<speed>0.1</speed>
<temp>0.00</temp>
<bpm>0</bpm>
<rpm>0.00</rpm>
</extensions>
</trkpt>
<trkpt lat="64.305526733" lon="-20.179332733">
<ele>196.417969</ele>
<time>2012-07-20T11:05:49Z</time>
<speed>0.060000</speed>
<extensions>
<speed>0.1</speed>
<temp>0.00</temp>
<bpm>0</bpm>
<rpm>0.00</rpm>
</extensions>
</trkpt>
<trkpt lat="64.305526733" lon="-20.179332733">
<ele>196.425781</ele>
<time>2012-07-20T11:05:54Z</time>
<speed>0.010000</speed>
<extensions>
<speed>0.0</speed>
<temp>0.00</temp>
<bpm>0</bpm>
<rpm>0.00</rpm>
</extensions>
</trkpt>
<trkpt lat="64.305526733" lon="-20.179332733">
<ele>196.417969</ele>
<time>2012-07-20T11:05:59Z</time>
<speed>0.010000</speed>
<extensions>
<speed>0.0</speed>
<temp>0.00</temp>
<bpm>0</bpm>
<rpm>0.00</rpm>
</extensions>
</trkpt>
<trkpt lat="64.305526733" lon="-20.179332733">
<ele>196.414063</ele>
<time>2012-07-20T11:06:04Z</time>
<speed>0.150000</speed>
<extensions>
<speed>0.2</speed>
<temp>0.00</temp>
<bpm>0</bpm>
<rpm>0.00</rpm>
</extensions>
</trkpt>
<trkpt lat="64.305519104" lon="-20.179313660">
<ele>196.542969</ele>
<time>2012-07-20T11:06:09Z</time>
<speed>0.150000</speed>
<extensions>
<speed>0.2</speed>
<temp>0.00</temp>
<bpm>0</bpm>
<rpm>0.00</rpm>
</extensions>
</trkpt>
<trkpt lat="64.305526733" lon="-20.179197311">
<ele>196.132813</ele>
<time>2012-07-20T11:06:14Z</time>
<speed>2.200000</speed>
<extensions>
<speed>2.2</speed>
<temp>0.00</temp>
<bpm>0</bpm>
<rpm>0.00</rpm>
</extensions>
</trkpt>
<trkpt lat="64.305526733" lon="-20.178880692">
<ele>196.144531</ele>
<time>2012-07-20T11:06:19Z</time>
<speed>3.640000</speed>
<extensions>
<speed>3.6</speed>
<temp>0.00</temp>
<bpm>0</bpm>
<rpm>0.00</rpm>
</extensions>
</trkpt>
<trkpt lat="64.305526733" lon="-20.178442001">
<ele>196.492188</ele>
<time>2012-07-20T11:06:24Z</time>
<speed>4.510000</speed>
<extensions>
<speed>4.5</speed>
<temp>0.00</temp>
<bpm>0</bpm>
<rpm>0.00</rpm>
</extensions>
</trkpt>
<trkpt lat="64.305534363" lon="-20.177940369">
<ele>196.714844</ele>
<time>2012-07-20T11:06:29Z</time>
<speed>4.960000</speed>
<extensions>
<speed>5.0</speed>
<temp>0.00</temp>
<bpm>0</bpm>
<rpm>0.00</rpm>
</extensions>
</trkpt>
<trkpt lat="64.305534363" lon="-20.177408218">
<ele>196.800781</ele>
<time>2012-07-20T11:06:34Z</time>
<speed>5.250000</speed>
<extensions>
<speed>5.2</speed>
<temp>0.00</temp>
<bpm>0</bpm>
<rpm>0.00</rpm>
</extensions>
</trkpt>
<trkpt lat="64.305541992" lon="-20.176816940">
<ele>196.769531</ele>
<time>2012-07-20T11:06:39Z</time>
<speed>5.580000</speed>
<extensions>
<speed>5.6</speed>
<temp>0.00</temp>
<bpm>0</bpm>
<rpm>0.00</rpm>
</extensions>
</trkpt>
<trkpt lat="64.305534363" lon="-20.176212311">
<ele>196.726563</ele>
<time>2012-07-20T11:06:44Z</time>
<speed>5.730000</speed>
<extensions>
<speed>5.7</speed>
<temp>0.00</temp>
<bpm>0</bpm>
<rpm>0.00</rpm>
</extensions>
</trkpt>
<trkpt lat="64.305541992" lon="-20.175596237">
<ele>196.796875</ele>
<time>2012-07-20T11:06:49Z</time>
<speed>6.070000</speed>
<extensions>
<speed>6.1</speed>
<temp>0.00</temp>
<bpm>0</bpm>
<rpm>0.00</rpm>
</extensions>
</trkpt>
<trkpt lat="64.305534363" lon="-20.175014496">
<ele>196.421875</ele>
<time>2012-07-20T11:06:54Z</time>
<speed>5.770000</speed>
<extensions>
<speed>5.8</speed>
<temp>0.00</temp>
<bpm>0</bpm>
<rpm>0.00</rpm>
</extensions>
</trkpt>
<trkpt lat="64.305541992" lon="-20.174396515">
<ele>196.656250</ele>
<time>2012-07-20T11:06:59Z</time>
<speed>6.110000</speed>
<extensions>
<speed>6.1</speed>
<temp>0.00</temp>
<bpm>0</bpm>
<rpm>0.00</rpm>
</extensions>
</trkpt>
<trkpt lat="64.305541992" lon="-20.173774719">
<ele>196.066406</ele>
<time>2012-07-20T11:07:04Z</time>
<speed>6.160000</speed>
<extensions>
<speed>6.2</speed>
<temp>0.00</temp>
<bpm>0</bpm>
<rpm>0.00</rpm>
</extensions>
</trkpt>
<trkpt lat="64.305541992" lon="-20.173120499">
<ele>196.085938</ele>
<time>2012-07-20T11:07:09Z</time>
<speed>6.110000</speed>
<extensions>
<speed>6.1</speed>
<temp>0.00</temp>
<bpm>0</bpm>
<rpm>0.00</rpm>
</extensions>
</trkpt>
<trkpt lat="64.305541992" lon="-20.172494888">
<ele>195.675781</ele>
<time>2012-07-20T11:07:14Z</time>
<speed>6.260000</speed>
<extensions>
<speed>6.3</speed>
<temp>0.00</temp>
<bpm>0</bpm>
<rpm>0.00</rpm>
</extensions>
</trkpt>
<trkpt lat="64.305549622" lon="-20.171850204">
<ele>195.238281</ele>
<time>2012-07-20T11:07:19Z</time>
<speed>6.440000</speed>
<extensions>
<speed>6.4</speed>
<temp>0.00</temp>
<bpm>0</bpm>
<rpm>0.00</rpm>
</extensions>
</trkpt>
<trkpt lat="64.305572510" lon="-20.171167374">
<ele>194.261719</ele>
<time>2012-07-20T11:07:24Z</time>
<speed>7.070000</speed>
<extensions>
<speed>7.1</speed>
<temp>0.00</temp>
<bpm>0</bpm>
<rpm>0.00</rpm>
</extensions>
</trkpt>
<trkpt lat="64.305610657" lon="-20.170406342">
<ele>193.027344</ele>
<time>2012-07-20T11:07:29Z</time>
<speed>7.840000</speed>
<extensions>
<speed>7.8</speed>
<temp>0.00</temp>
<bpm>0</bpm>
<rpm>0.00</rpm>
</extensions>
</trkpt>
<trkpt lat="64.305671692" lon="-20.169582367">
<ele>191.601563</ele>
<time>2012-07-20T11:07:34Z</time>
<speed>8.390000</speed>
<extensions>
<speed>8.4</speed>
<temp>0.00</temp>
<bpm>0</bpm>
<rpm>0.00</rpm>
</extensions>
</trkpt>
<trkpt lat="64.305770874" lon="-20.168697357">
<ele>189.445313</ele>
<time>2012-07-20T11:07:39Z</time>
<speed>9.260000</speed>
<extensions>
<speed>9.3</speed>
<temp>0.00</temp>
<bpm>0</bpm>
<rpm>0.00</rpm>
</extensions>
</trkpt>
<trkpt lat="64.305908203" lon="-20.167791367">
<ele>187.835938</ele>
<time>2012-07-20T11:07:44Z</time>
<speed>9.170000</speed>
<extensions>
<speed>9.2</speed>
<temp>0.00</temp>
<bpm>0</bpm>
<rpm>0.00</rpm>
</extensions>
</trkpt>
<trkpt lat="64.306076050" lon="-20.166967392">
<ele>187.031250</ele>
<time>2012-07-20T11:07:49Z</time>
<speed>8.540000</speed>
<extensions>
<speed>8.5</speed>
<temp>0.00</temp>
<bpm>0</bpm>
<rpm>0.00</rpm>
</extensions>
</trkpt>
<trkpt lat="64.306266785" lon="-20.166250229">
<ele>186.992188</ele>
<time>2012-07-20T11:07:54Z</time>
<speed>7.670000</speed>
<extensions>
<speed>7.7</speed>
<temp>0.00</temp>
<bpm>0</bpm>
<rpm>0.00</rpm>
</extensions>
</trkpt>
<trkpt lat="64.306465149" lon="-20.165662766">
<ele>187.355469</ele>
<time>2012-07-20T11:07:59Z</time>
<speed>7.060000</speed>
<extensions>
<speed>7.1</speed>
<temp>0.00</temp>
<bpm>0</bpm>
<rpm>0.00</rpm>
</extensions>
</trkpt>
<trkpt lat="64.306655884" lon="-20.165145874">
<ele>188.113281</ele>
<time>2012-07-20T11:08:04Z</time>
<speed>6.410000</speed>
<extensions>
<speed>6.4</speed>
<temp>0.00</temp>
<bpm>0</bpm>
<rpm>0.00</rpm>
</extensions>
</trkpt>
<trkpt lat="64.306846619" lon="-20.164714813">
<ele>188.343750</ele>
<time>2012-07-20T11:08:09Z</time>
<speed>6.050000</speed>
<extensions>
<speed>6.1</speed>
<temp>0.00</temp>
<bpm>0</bpm>
<rpm>0.00</rpm>
</extensions>
</trkpt>
<trkpt lat="64.307052612" lon="-20.164302826">
<ele>188.796875</ele>
<time>2012-07-20T11:08:14Z</time>
<speed>6.160000</speed>
<extensions>
<speed>6.2</speed>
<temp>0.00</temp>
<bpm>0</bpm>
<rpm>0.00</rpm>
</extensions>
</trkpt>
<trkpt lat="64.307266235" lon="-20.163883209">
<ele>189.031250</ele>
<time>2012-07-20T11:08:19Z</time>
<speed>6.140000</speed>
<extensions>
<speed>6.1</speed>
<temp>0.00</temp>
<bpm>0</bpm>
<rpm>0.00</rpm>
</extensions>
</trkpt>
<trkpt lat="64.307479858" lon="-20.163482666">
<ele>188.792969</ele>
<time>2012-07-20T11:08:24Z</time>
<speed>5.770000</speed>
<extensions>
<speed>5.8</speed>
<temp>0.00</temp>
<bpm>0</bpm>
<rpm>0.00</rpm>
</extensions>
</trkpt>
<trkpt lat="64.307670593" lon="-20.163120270">
<ele>189.468750</ele>
<time>2012-07-20T11:08:29Z</time>
<speed>5.680000</speed>
<extensions>
<speed>5.7</speed>
<temp>0.00</temp>
<bpm>0</bpm>
<rpm>0.00</rpm>
</extensions>
</trkpt>
<trkpt lat="64.307853699" lon="-20.162755966">
<ele>190.027344</ele>
<time>2012-07-20T11:08:34Z</time>
<speed>5.270000</speed>
<extensions>
<speed>5.3</speed>
<temp>0.00</temp>
<bpm>0</bpm>
<rpm>0.00</rpm>
</extensions>
</trkpt>
<trkpt lat="64.308021545" lon="-20.162424088">
<ele>190.257813</ele>
<time>2012-07-20T11:08:39Z</time>
<speed>4.750000</speed>
<extensions>
<speed>4.8</speed>
<temp>0.00</temp>
<bpm>0</bpm>
<rpm>0.00</rpm>
</extensions>
</trkpt>
<trkpt lat="64.308204651" lon="-20.162107468">
<ele>189.664063</ele>
<time>2012-07-20T11:08:44Z</time>
<speed>4.850000</speed>
<extensions>
<speed>4.8</speed>
<temp>0.00</temp>
<bpm>0</bpm>
<rpm>0.00</rpm>
</extensions>
</trkpt>
<trkpt lat="64.308357239" lon="-20.161813736">
<ele>190.539063</ele>
<time>2012-07-20T11:08:49Z</time>
<speed>4.240000</speed>
<extensions>
<speed>4.2</speed>
<temp>0.00</temp>
<bpm>0</bpm>
<rpm>0.00</rpm>
</extensions>
</trkpt>
<trkpt lat="64.308486938" lon="-20.161560059">
<ele>190.121094</ele>
<time>2012-07-20T11:08:54Z</time>
<speed>3.560000</speed>
<extensions>
<speed>3.6</speed>
<temp>0.00</temp>
<bpm>0</bpm>
<rpm>0.00</rpm>
</extensions>
</trkpt>
<trkpt lat="64.308639526" lon="-20.161262512">
<ele>189.218750</ele>
<time>2012-07-20T11:08:59Z</time>
<speed>4.670000</speed>
<extensions>
<speed>4.7</speed>
<temp>0.00</temp>
<bpm>0</bpm>
<rpm>0.00</rpm>
</extensions>
</trkpt>
<trkpt lat="64.308807373" lon="-20.160943985">
<ele>188.394531</ele>
<time>2012-07-20T11:09:04Z</time>
<speed>4.930000</speed>
<extensions>
<speed>4.9</speed>
<temp>0.00</temp>
<bpm>0</bpm>
<rpm>0.00</rpm>
</extensions>
</trkpt>
<trkpt lat="64.308982849" lon="-20.160627365">
<ele>188.156250</ele>
<time>2012-07-20T11:09:09Z</time>
<speed>5.040000</speed>
<extensions>
<speed>5.0</speed>
<temp>0.00</temp>
<bpm>0</bpm>
<rpm>0.00</rpm>
</extensions>
</trkpt>
<trkpt lat="64.309165955" lon="-20.160285950">
<ele>188.804688</ele>
<time>2012-07-20T11:09:14Z</time>
<speed>5.040000</speed>
<extensions>
<speed>5.0</speed>
<temp>0.00</temp>
<bpm>0</bpm>
<rpm>0.00</rpm>
</extensions>
</trkpt>
<trkpt lat="64.309349060" lon="-20.159936905">
<ele>188.355469</ele>
<time>2012-07-20T11:09:19Z</time>
<speed>5.290000</speed>
<extensions>
<speed>5.3</speed>
<temp>0.00</temp>
<bpm>0</bpm>
<rpm>0.00</rpm>
</extensions>
</trkpt>
<trkpt lat="64.309516907" lon="-20.159618378">
<ele>187.937500</ele>
<time>2012-07-20T11:09:24Z</time>
<speed>5.020000</speed>
<extensions>
<speed>5.0</speed>
<temp>0.00</temp>
<bpm>0</bpm>
<rpm>0.00</rpm>
</extensions>
</trkpt>
<trkpt lat="64.309677124" lon="-20.159309387">
<ele>189.128906</ele>
<time>2012-07-20T11:09:29Z</time>
<speed>4.280000</speed>
<extensions>
<speed>4.3</speed>
<temp>0.00</temp>
<bpm>0</bpm>
<rpm>0.00</rpm>
</extensions>
</trkpt>
<trkpt lat="64.309822083" lon="-20.159025192">
<ele>190.160156</ele>
<time>2012-07-20T11:09:34Z</time>
<speed>4.230000</speed>
<extensions>
<speed>4.2</speed>
<temp>0.00</temp>
<bpm>0</bpm>
<rpm>0.00</rpm>
</extensions>
</trkpt>
<trkpt lat="64.309967041" lon="-20.158765793">
<ele>190.621094</ele>
<time>2012-07-20T11:09:39Z</time>
<speed>4.090000</speed>
<extensions>
<speed>4.1</speed>
<temp>0.00</temp>
<bpm>0</bpm>
<rpm>0.00</rpm>
</extensions>
</trkpt>
<trkpt lat="64.310112000" lon="-20.158491135">
<ele>191.769531</ele>
<time>2012-07-20T11:09:44Z</time>
<speed>4.220000</speed>
<extensions>
<speed>4.2</speed>
<temp>0.00</temp>
<bpm>0</bpm>
<rpm>0.00</rpm>
</extensions>
</trkpt>
<trkpt lat="64.310256958" lon="-20.158210754">
<ele>192.382813</ele>
<time>2012-07-20T11:09:49Z</time>
<speed>4.300000</speed>
<extensions>
<speed>4.3</speed>
<temp>0.00</temp>
<bpm>0</bpm>
<rpm>0.00</rpm>
</extensions>
</trkpt>
<trkpt lat="64.310409546" lon="-20.157915115">
<ele>192.843750</ele>
<time>2012-07-20T11:09:54Z</time>
<speed>4.360000</speed>
<extensions>
<speed>4.4</speed>
<temp>0.00</temp>
<bpm>0</bpm>
<rpm>0.00</rpm>
</extensions>
</trkpt>
<trkpt lat="64.310569763" lon="-20.157625198">
<ele>192.773438</ele>
<time>2012-07-20T11:09:59Z</time>
<speed>4.530000</speed>
<extensions>
<speed>4.5</speed>
<temp>0.00</temp>
<bpm>0</bpm>
<rpm>0.00</rpm>
</extensions>
</trkpt>
<trkpt lat="64.310722351" lon="-20.157333374">
<ele>193.359375</ele>
<time>2012-07-20T11:10:04Z</time>
<speed>4.440000</speed>
<extensions>
<speed>4.4</speed>
<temp>0.00</temp>
<bpm>0</bpm>
<rpm>0.00</rpm>
</extensions>
</trkpt>
<trkpt lat="64.310882568" lon="-20.157047272">
<ele>194.062500</ele>
<time>2012-07-20T11:10:09Z</time>
<speed>4.530000</speed>
<extensions>
<speed>4.5</speed>
<temp>0.00</temp>
<bpm>0</bpm>
<rpm>0.00</rpm>
</extensions>
</trkpt>
<trkpt lat="64.311035156" lon="-20.156734467">
<ele>194.902344</ele>
<time>2012-07-20T11:10:14Z</time>
<speed>4.560000</speed>
<extensions>
<speed>4.6</speed>
<temp>0.00</temp>
<bpm>0</bpm>
<rpm>0.00</rpm>
</extensions>
</trkpt>
<trkpt lat="64.311203003" lon="-20.156429291">
<ele>194.546875</ele>
<time>2012-07-20T11:10:19Z</time>
<speed>4.760000</speed>
<extensions>
<speed>4.8</speed>
<temp>0.00</temp>
<bpm>0</bpm>
<rpm>0.00</rpm>
</extensions>
</trkpt>
<trkpt lat="64.311370850" lon="-20.156114578">
<ele>194.484375</ele>
<time>2012-07-20T11:10:24Z</time>
<speed>4.890000</speed>
<extensions>
<speed>4.9</speed>
<temp>0.00</temp>
<bpm>0</bpm>
<rpm>0.00</rpm>
</extensions>
</trkpt>
<trkpt lat="64.311538696" lon="-20.155780792">
<ele>194.433594</ele>
<time>2012-07-20T11:10:29Z</time>
<speed>5.000000</speed>
<extensions>
<speed>5.0</speed>
<temp>0.00</temp>
<bpm>0</bpm>
<rpm>0.00</rpm>
</extensions>
</trkpt>
<trkpt lat="64.311714172" lon="-20.155456543">
<ele>194.429688</ele>
<time>2012-07-20T11:10:34Z</time>
<speed>5.000000</speed>
<extensions>
<speed>5.0</speed>
<temp>0.00</temp>
<bpm>0</bpm>
<rpm>0.00</rpm>
</extensions>
</trkpt>
<trkpt lat="64.311882019" lon="-20.155122757">
<ele>194.226563</ele>
<time>2012-07-20T11:10:39Z</time>
<speed>5.170000</speed>
<extensions>
<speed>5.2</speed>
<temp>0.00</temp>
<bpm>0</bpm>
<rpm>0.00</rpm>
</extensions>
</trkpt>
<trkpt lat="64.312072754" lon="-20.154775620">
<ele>193.964844</ele>
<time>2012-07-20T11:10:44Z</time>
<speed>5.310000</speed>
<extensions>
<speed>5.3</speed>
<temp>0.00</temp>
<bpm>0</bpm>
<rpm>0.00</rpm>
</extensions>
</trkpt>
<trkpt lat="64.312255859" lon="-20.154420853">
<ele>193.480469</ele>
<time>2012-07-20T11:10:49Z</time>
<speed>5.440000</speed>
<extensions>
<speed>5.4</speed>
<temp>0.00</temp>
<bpm>0</bpm>
<rpm>0.00</rpm>
</extensions>
</trkpt>
<trkpt lat="64.312438965" lon="-20.154079437">
<ele>194.191406</ele>
<time>2012-07-20T11:10:54Z</time>
<speed>5.290000</speed>
<extensions>
<speed>5.3</speed>
<temp>0.00</temp>
<bpm>0</bpm>
<rpm>0.00</rpm>
</extensions>
</trkpt>
<trkpt lat="64.312629700" lon="-20.153707504">
<ele>194.390625</ele>
<time>2012-07-20T11:10:59Z</time>
<speed>5.570000</speed>
<extensions>
<speed>5.6</speed>
<temp>0.00</temp>
<bpm>0</bpm>
<rpm>0.00</rpm>
</extensions>
</trkpt>
<trkpt lat="64.312820435" lon="-20.153347015">
<ele>194.843750</ele>
<time>2012-07-20T11:11:04Z</time>
<speed>5.480000</speed>
<extensions>
<speed>5.5</speed>
<temp>0.00</temp>
<bpm>0</bpm>
<rpm>0.00</rpm>
</extensions>
</trkpt>
<trkpt lat="64.313011169" lon="-20.152971268">
<ele>194.644531</ele>
<time>2012-07-20T11:11:09Z</time>
<speed>5.680000</speed>
<extensions>
<speed>5.7</speed>
<temp>0.00</temp>
<bpm>0</bpm>
<rpm>0.00</rpm>
</extensions>
</trkpt>
<trkpt lat="64.313209534" lon="-20.152597427">
<ele>194.195313</ele>
<time>2012-07-20T11:11:14Z</time>
<speed>5.810000</speed>
<extensions>
<speed>5.8</speed>
<temp>0.00</temp>
<bpm>0</bpm>
<rpm>0.00</rpm>
</extensions>
</trkpt>
<trkpt lat="64.313415527" lon="-20.152212143">
<ele>194.726563</ele>
<time>2012-07-20T11:11:19Z</time>
<speed>5.950000</speed>
<extensions>
<speed>6.0</speed>
<temp>0.00</temp>
<bpm>0</bpm>
<rpm>0.00</rpm>
</extensions>
</trkpt>
<trkpt lat="64.313621521" lon="-20.151811600">
<ele>194.855469</ele>
<time>2012-07-20T11:11:24Z</time>
<speed>6.030000</speed>
<extensions>
<speed>6.0</speed>
<temp>0.00</temp>
<bpm>0</bpm>
<rpm>0.00</rpm>
</extensions>
</trkpt>
<trkpt lat="64.313827515" lon="-20.151409149">
<ele>194.406250</ele>
<time>2012-07-20T11:11:29Z</time>
<speed>5.990000</speed>
<extensions>
<speed>6.0</speed>
<temp>0.00</temp>
<bpm>0</bpm>
<rpm>0.00</rpm>
</extensions>
</trkpt>
<trkpt lat="64.314041138" lon="-20.151016235">
<ele>194.468750</ele>
<time>2012-07-20T11:11:34Z</time>
<speed>6.130000</speed>
<extensions>
<speed>6.1</speed>
<temp>0.00</temp>
<bpm>0</bpm>
<rpm>0.00</rpm>
</extensions>
</trkpt>
<trkpt lat="64.314254761" lon="-20.150630951">
<ele>194.082031</ele>
<time>2012-07-20T11:11:39Z</time>
<speed>5.970000</speed>
<extensions>
<speed>6.0</speed>
<temp>0.00</temp>
<bpm>0</bpm>
<rpm>0.00</rpm>
</extensions>
</trkpt>
<trkpt lat="64.314453125" lon="-20.150245667">
<ele>194.445313</ele>
<time>2012-07-20T11:11:44Z</time>
<speed>5.510000</speed>
<extensions>
<speed>5.5</speed>
<temp>0.00</temp>
<bpm>0</bpm>
<rpm>0.00</rpm>
</extensions>
</trkpt>
<trkpt lat="64.314643860" lon="-20.149883270">
<ele>194.917969</ele>
<time>2012-07-20T11:11:49Z</time>
<speed>5.380000</speed>
<extensions>
<speed>5.4</speed>
<temp>0.00</temp>
<bpm>0</bpm>
<rpm>0.00</rpm>
</extensions>
</trkpt>
<trkpt lat="64.314819336" lon="-20.149562836">
<ele>195.542969</ele>
<time>2012-07-20T11:11:54Z</time>
<speed>4.780000</speed>
<extensions>
<speed>4.8</speed>
<temp>0.00</temp>
<bpm>0</bpm>
<rpm>0.00</rpm>
</extensions>
</trkpt>
<trkpt lat="64.314979553" lon="-20.149271011">
<ele>197.207031</ele>
<time>2012-07-20T11:11:59Z</time>
<speed>4.180000</speed>
<extensions>
<speed>4.2</speed>
<temp>0.00</temp>
<bpm>0</bpm>
<rpm>0.00</rpm>
</extensions>
</trkpt>
<trkpt lat="64.315132141" lon="-20.148998260">
<ele>198.484375</ele>
<time>2012-07-20T11:12:04Z</time>
<speed>4.300000</speed>
<extensions>
<speed>4.3</speed>
<temp>0.00</temp>
<bpm>0</bpm>
<rpm>0.00</rpm>
</extensions>
</trkpt>
<trkpt lat="64.315269470" lon="-20.148746490">
<ele>199.828125</ele>
<time>2012-07-20T11:12:09Z</time>
<speed>3.680000</speed>
<extensions>
<speed>3.7</speed>
<temp>0.00</temp>
<bpm>0</bpm>
<rpm>0.00</rpm>
</extensions>
</trkpt>
<trkpt lat="64.315383911" lon="-20.148527145">
<ele>200.718750</ele>
<time>2012-07-20T11:12:14Z</time>
<speed>3.540000</speed>
<extensions>
<speed>3.5</speed>
<temp>0.00</temp>
<bpm>0</bpm>
<rpm>0.00</rpm>
</extensions>
</trkpt>
<trkpt lat="64.315513611" lon="-20.148292542">
<ele>202.042969</ele>
<time>2012-07-20T11:12:19Z</time>
<speed>3.580000</speed>
<extensions>
<speed>3.6</speed>
<temp>0.00</temp>
<bpm>0</bpm>
<rpm>0.00</rpm>
</extensions>
</trkpt>
<trkpt lat="64.315635681" lon="-20.148048401">
<ele>203.347656</ele>
<time>2012-07-20T11:12:24Z</time>
<speed>3.480000</speed>
<extensions>
<speed>3.5</speed>
<temp>0.00</temp>
<bpm>0</bpm>
<rpm>0.00</rpm>
</extensions>
</trkpt>
<trkpt lat="64.315757751" lon="-20.147781372">
<ele>203.269531</ele>
<time>2012-07-20T11:12:29Z</time>
<speed>3.710000</speed>
<extensions>
<speed>3.7</speed>
<temp>0.00</temp>
<bpm>0</bpm>
<rpm>0.00</rpm>
</extensions>
</trkpt>
<trkpt lat="64.315864563" lon="-20.147571564">
<ele>203.742188</ele>
<time>2012-07-20T11:12:34Z</time>
<speed>2.410000</speed>
<extensions>
<speed>2.4</speed>
<temp>0.00</temp>
<bpm>0</bpm>
<rpm>0.00</rpm>
</extensions>
</trkpt>
<trkpt lat="64.315963745" lon="-20.147329330">
<ele>203.257813</ele>
<time>2012-07-20T11:12:39Z</time>
<speed>3.430000</speed>
<extensions>
<speed>3.4</speed>
<temp>0.00</temp>
<bpm>0</bpm>
<rpm>0.00</rpm>
</extensions>
</trkpt>
<trkpt lat="64.316062927" lon="-20.147068024">
<ele>203.937500</ele>
<time>2012-07-20T11:12:44Z</time>
<speed>3.490000</speed>
<extensions>
<speed>3.5</speed>
<temp>0.00</temp>
<bpm>0</bpm>
<rpm>0.00</rpm>
</extensions>
</trkpt>
<trkpt lat="64.316162109" lon="-20.146791458">
<ele>205.433594</ele>
<time>2012-07-20T11:12:49Z</time>
<speed>3.600000</speed>
<extensions>
<speed>3.6</speed>
<temp>0.00</temp>
<bpm>0</bpm>
<rpm>0.00</rpm>
</extensions>
</trkpt>
<trkpt lat="64.316253662" lon="-20.146472931">
<ele>206.765625</ele>
<time>2012-07-20T11:12:54Z</time>
<speed>3.710000</speed>
<extensions>
<speed>3.7</speed>
<temp>0.00</temp>
<bpm>0</bpm>
<rpm>0.00</rpm>
</extensions>
</trkpt>
<trkpt lat="64.316352844" lon="-20.146139145">
<ele>207.808594</ele>
<time>2012-07-20T11:12:59Z</time>
<speed>4.260000</speed>
<extensions>
<speed>4.3</speed>
<temp>0.00</temp>
<bpm>0</bpm>
<rpm>0.00</rpm>
</extensions>
</trkpt>
<trkpt lat="64.316452026" lon="-20.145757675">
<ele>207.898438</ele>
<time>2012-07-20T11:13:04Z</time>
<speed>4.280000</speed>
<extensions>
<speed>4.3</speed>
<temp>0.00</temp>
<bpm>0</bpm>
<rpm>0.00</rpm>
</extensions>
</trkpt>
<trkpt lat="64.316535950" lon="-20.145372391">
<ele>208.968750</ele>
<time>2012-07-20T11:13:09Z</time>
<speed>4.540000</speed>
<extensions>
<speed>4.5</speed>
<temp>0.00</temp>
<bpm>0</bpm>
<rpm>0.00</rpm>
</extensions>
</trkpt>
<trkpt lat="64.316635132" lon="-20.144933701">
<ele>209.011719</ele>
<time>2012-07-20T11:13:14Z</time>
<speed>4.900000</speed>
<extensions>
<speed>4.9</speed>
<temp>0.00</temp>
<bpm>0</bpm>
<rpm>0.00</rpm>
</extensions>
</trkpt>
<trkpt lat="64.316726685" lon="-20.144540787">
<ele>209.535156</ele>
<time>2012-07-20T11:13:19Z</time>
<speed>3.900000</speed>
<extensions>
<speed>3.9</speed>
<temp>0.00</temp>
<bpm>0</bpm>
<rpm>0.00</rpm>
</extensions>
</trkpt>
<trkpt lat="64.316802979" lon="-20.144180298">
<ele>209.679688</ele>
<time>2012-07-20T11:13:24Z</time>
<speed>4.120000</speed>
<extensions>
<speed>4.1</speed>
<temp>0.00</temp>
<bpm>0</bpm>
<rpm>0.00</rpm>
</extensions>
</trkpt>
<trkpt lat="64.316894531" lon="-20.143733978">
<ele>209.652344</ele>
<time>2012-07-20T11:13:29Z</time>
<speed>4.760000</speed>
<extensions>
<speed>4.8</speed>
<temp>0.00</temp>
<bpm>0</bpm>
<rpm>0.00</rpm>
</extensions>
</trkpt>
<trkpt lat="64.316993713" lon="-20.143304825">
<ele>209.847656</ele>
<time>2012-07-20T11:13:34Z</time>
<speed>4.610000</speed>
<extensions>
<speed>4.6</speed>
<temp>0.00</temp>
<bpm>0</bpm>
<rpm>0.00</rpm>
</extensions>
</trkpt>
<trkpt lat="64.317085266" lon="-20.142881393">
<ele>209.855469</ele>
<time>2012-07-20T11:13:39Z</time>
<speed>4.420000</speed>
<extensions>
<speed>4.4</speed>
<temp>0.00</temp>
<bpm>0</bpm>
<rpm>0.00</rpm>
</extensions>
</trkpt>
<trkpt lat="64.317176819" lon="-20.142469406">
<ele>210.636719</ele>
<time>2012-07-20T11:13:44Z</time>
<speed>4.550000</speed>
<extensions>
<speed>4.5</speed>
<temp>0.00</temp>
<bpm>0</bpm>
<rpm>0.00</rpm>
</extensions>
</trkpt>
<trkpt lat="64.317260742" lon="-20.142080307">
<ele>211.132813</ele>
<time>2012-07-20T11:13:49Z</time>
<speed>3.810000</speed>
<extensions>
<speed>3.8</speed>
<temp>0.00</temp>
<bpm>0</bpm>
<rpm>0.00</rpm>
</extensions>
</trkpt>
<trkpt lat="64.317344666" lon="-20.141742706">
<ele>213.441406</ele>
<time>2012-07-20T11:13:54Z</time>
<speed>3.980000</speed>
<extensions>
<speed>4.0</speed>
<temp>0.00</temp>
<bpm>0</bpm>
<rpm>0.00</rpm>
</extensions>
</trkpt>
<trkpt lat="64.317420959" lon="-20.141427994">
<ele>214.207031</ele>
<time>2012-07-20T11:13:59Z</time>
<speed>3.460000</speed>
<extensions>
<speed>3.5</speed>
<temp>0.00</temp>
<bpm>0</bpm>
<rpm>0.00</rpm>
</extensions>
</trkpt>
<trkpt lat="64.317489624" lon="-20.141107559">
<ele>213.675781</ele>
<time>2012-07-20T11:14:04Z</time>
<speed>3.600000</speed>
<extensions>
<speed>3.6</speed>
<temp>0.00</temp>
<bpm>0</bpm>
<rpm>0.00</rpm>
</extensions>
</trkpt>
<trkpt lat="64.317573547" lon="-20.140768051">
<ele>213.394531</ele>
<time>2012-07-20T11:14:09Z</time>
<speed>3.810000</speed>
<extensions>
<speed>3.8</speed>
<temp>0.00</temp>
<bpm>0</bpm>
<rpm>0.00</rpm>
</extensions>
</trkpt>
<trkpt lat="64.317649841" lon="-20.140466690">
<ele>213.847656</ele>
<time>2012-07-20T11:14:14Z</time>
<speed>3.350000</speed>
<extensions>
<speed>3.4</speed>
<temp>0.00</temp>
<bpm>0</bpm>
<rpm>0.00</rpm>
</extensions>
</trkpt>
<trkpt lat="64.317749023" lon="-20.140148163">
<ele>213.773438</ele>
<time>2012-07-20T11:14:19Z</time>
<speed>4.170000</speed>
<extensions>
<speed>4.2</speed>
<temp>0.00</temp>
<bpm>0</bpm>
<rpm>0.00</rpm>
</extensions>
</trkpt>
<trkpt lat="64.317863464" lon="-20.139789581">
<ele>213.179688</ele>
<time>2012-07-20T11:14:24Z</time>
<speed>4.530000</speed>
<extensions>
<speed>4.5</speed>
<temp>0.00</temp>
<bpm>0</bpm>
<rpm>0.00</rpm>
</extensions>
</trkpt>
<trkpt lat="64.318016052" lon="-20.139417648">
<ele>213.085938</ele>
<time>2012-07-20T11:14:29Z</time>
<speed>5.270000</speed>
<extensions>
<speed>5.3</speed>
<temp>0.00</temp>
<bpm>0</bpm>
<rpm>0.00</rpm>
</extensions>
</trkpt>
<trkpt lat="64.318222046" lon="-20.138999939">
<ele>211.617188</ele>
<time>2012-07-20T11:14:34Z</time>
<speed>6.410000</speed>
<extensions>
<speed>6.4</speed>
<temp>0.00</temp>
<bpm>0</bpm>
<rpm>0.00</rpm>
</extensions>
</trkpt>
<trkpt lat="64.318458557" lon="-20.138597488">
<ele>210.906250</ele>
<time>2012-07-20T11:14:39Z</time>
<speed>6.530000</speed>
<extensions>
<speed>6.5</speed>
<temp>0.00</temp>
<bpm>0</bpm>
<rpm>0.00</rpm>
</extensions>
</trkpt>
<trkpt lat="64.318702698" lon="-20.138223648">
<ele>210.343750</ele>
<time>2012-07-20T11:14:44Z</time>
<speed>6.290000</speed>
<extensions>
<speed>6.3</speed>
<temp>0.00</temp>
<bpm>0</bpm>
<rpm>0.00</rpm>
</extensions>
</trkpt>
<trkpt lat="64.318931580" lon="-20.137872696">
<ele>210.402344</ele>
<time>2012-07-20T11:14:49Z</time>
<speed>5.810000</speed>
<extensions>
<speed>5.8</speed>
<temp>0.00</temp>
<bpm>0</bpm>
<rpm>0.00</rpm>
</extensions>
</trkpt>
<trkpt lat="64.319122314" lon="-20.137537003">
<ele>210.332031</ele>
<time>2012-07-20T11:14:54Z</time>
<speed>5.210000</speed>
<extensions>
<speed>5.2</speed>
<temp>0.00</temp>
<bpm>0</bpm>
<rpm>0.00</rpm>
</extensions>
</trkpt>
<trkpt lat="64.319297791" lon="-20.137189865">
<ele>210.437500</ele>
<time>2012-07-20T11:14:59Z</time>
<speed>5.150000</speed>
<extensions>
<speed>5.2</speed>
<temp>0.00</temp>
<bpm>0</bpm>
<rpm>0.00</rpm>
</extensions>
</trkpt>
<trkpt lat="64.319458008" lon="-20.136838913">
<ele>211.316406</ele>
<time>2012-07-20T11:15:04Z</time>
<speed>4.790000</speed>
<extensions>
<speed>4.8</speed>
<temp>0.00</temp>
<bpm>0</bpm>
<rpm>0.00</rpm>
</extensions>
</trkpt>
<trkpt lat="64.319610596" lon="-20.136487961">
<ele>212.238281</ele>
<time>2012-07-20T11:15:09Z</time>
<speed>4.750000</speed>
<extensions>
<speed>4.8</speed>
<temp>0.00</temp>
<bpm>0</bpm>
<rpm>0.00</rpm>
</extensions>
</trkpt>
<trkpt lat="64.319747925" lon="-20.136127472">
<ele>213.125000</ele>
<time>2012-07-20T11:15:14Z</time>
<speed>4.740000</speed>
<extensions>
<speed>4.7</speed>
<temp>0.00</temp>
<bpm>0</bpm>
<rpm>0.00</rpm>
</extensions>
</trkpt>
<trkpt lat="64.319885254" lon="-20.135784149">
<ele>214.542969</ele>
<time>2012-07-20T11:15:19Z</time>
<speed>4.130000</speed>
<extensions>
<speed>4.1</speed>
<temp>0.00</temp>
<bpm>0</bpm>
<rpm>0.00</rpm>
</extensions>
</trkpt>
<trkpt lat="64.320014954" lon="-20.135450363">
<ele>215.074219</ele>
<time>2012-07-20T11:15:24Z</time>
<speed>4.340000</speed>
<extensions>
<speed>4.3</speed>
<temp>0.00</temp>
<bpm>0</bpm>
<rpm>0.00</rpm>
</extensions>
</trkpt>
<trkpt lat="64.320152283" lon="-20.135162354">
<ele>214.359375</ele>
<time>2012-07-20T11:15:29Z</time>
<speed>4.340000</speed>
<extensions>
<speed>4.3</speed>
<temp>0.00</temp>
<bpm>0</bpm>
<rpm>0.00</rpm>
</extensions>
</trkpt>
<trkpt lat="64.320281982" lon="-20.134939194">
<ele>215.046875</ele>
<time>2012-07-20T11:15:34Z</time>
<speed>3.170000</speed>
<extensions>
<speed>3.2</speed>
<temp>0.00</temp>
<bpm>0</bpm>
<rpm>0.00</rpm>
</extensions>
</trkpt>
<trkpt lat="64.320381165" lon="-20.134780884">
<ele>215.300781</ele>
<time>2012-07-20T11:15:39Z</time>
<speed>2.350000</speed>
<extensions>
<speed>2.4</speed>
<temp>0.00</temp>
<bpm>0</bpm>
<rpm>0.00</rpm>
</extensions>
</trkpt>
<trkpt lat="64.320411682" lon="-20.134683609">
<ele>215.468750</ele>
<time>2012-07-20T11:15:44Z</time>
<speed>0.760000</speed>
<extensions>
<speed>0.8</speed>
<temp>0.00</temp>
<bpm>0</bpm>
<rpm>0.00</rpm>
</extensions>
</trkpt>
<trkpt lat="64.320419312" lon="-20.134658813">
<ele>215.519531</ele>
<time>2012-07-20T11:15:49Z</time>
<speed>0.020000</speed>
<extensions>
<speed>0.0</speed>
<temp>0.00</temp>
<bpm>0</bpm>
<rpm>0.00</rpm>
</extensions>
</trkpt>
<trkpt lat="64.320419312" lon="-20.134658813">
<ele>215.425781</ele>
<time>2012-07-20T11:15:54Z</time>
<extensions>
<speed>0.0</speed>
<temp>0.00</temp>
<bpm>0</bpm>
<rpm>0.00</rpm>
</extensions>
</trkpt>
<trkpt lat="64.320419312" lon="-20.134658813">
<ele>215.433594</ele>
<time>2012-07-20T11:15:59Z</time>
<extensions>
<speed>0.0</speed>
<temp>0.00</temp>
<bpm>0</bpm>
<rpm>0.00</rpm>
</extensions>
</trkpt>
<trkpt lat="64.320419312" lon="-20.134658813">
<ele>215.437500</ele>
<time>2012-07-20T11:16:04Z</time>
<speed>0.010000</speed>
<extensions>
<speed>0.0</speed>
<temp>0.00</temp>
<bpm>0</bpm>
<rpm>0.00</rpm>
</extensions>
</trkpt>
<trkpt lat="64.320419312" lon="-20.134660721">
<ele>215.437500</ele>
<time>2012-07-20T11:16:09Z</time>
<speed>0.010000</speed>
<extensions>
<speed>0.0</speed>
<temp>0.00</temp>
<bpm>0</bpm>
<rpm>0.00</rpm>
</extensions>
</trkpt>
<trkpt lat="64.320419312" lon="-20.134660721">
<ele>215.437500</ele>
<time>2012-07-20T11:16:14Z</time>
<speed>0.010000</speed>
<extensions>
<speed>0.0</speed>
<temp>0.00</temp>
<bpm>0</bpm>
<rpm>0.00</rpm>
</extensions>
</trkpt>
<trkpt lat="64.320419312" lon="-20.134660721">
<ele>215.437500</ele>
<time>2012-07-20T11:16:19Z</time>
<extensions>
<speed>0.0</speed>
<temp>0.00</temp>
<bpm>0</bpm>
<rpm>0.00</rpm>
</extensions>
</trkpt>
<trkpt lat="64.320434570" lon="-20.134645462">
<ele>215.503906</ele>
<time>2012-07-20T11:16:24Z</time>
<speed>0.420000</speed>
<extensions>
<speed>0.4</speed>
<temp>0.00</temp>
<bpm>0</bpm>
<rpm>0.00</rpm>
</extensions>
</trkpt>
<trkpt lat="64.320434570" lon="-20.134639740">
<ele>215.582031</ele>
<time>2012-07-20T11:16:29Z</time>
<speed>0.020000</speed>
<extensions>
<speed>0.0</speed>
<temp>0.00</temp>
<bpm>0</bpm>
<rpm>0.00</rpm>
</extensions>
</trkpt>
<trkpt lat="64.320434570" lon="-20.134639740">
<ele>215.593750</ele>
<time>2012-07-20T11:16:34Z</time>
<extensions>
<speed>0.0</speed>
<temp>0.00</temp>
<bpm>0</bpm>
<rpm>0.00</rpm>
</extensions>
</trkpt>
<trkpt lat="64.320457458" lon="-20.134643555">
<ele>216.445313</ele>
<time>2012-07-20T11:16:39Z</time>
<speed>0.960000</speed>
<extensions>
<speed>1.0</speed>
<temp>0.00</temp>
<bpm>0</bpm>
<rpm>0.00</rpm>
</extensions>
</trkpt>
<trkpt lat="64.320549011" lon="-20.134632111">
<ele>216.796875</ele>
<time>2012-07-20T11:16:44Z</time>
<speed>2.750000</speed>
<extensions>
<speed>2.7</speed>
<temp>0.00</temp>
<bpm>0</bpm>
<rpm>0.00</rpm>
</extensions>
</trkpt>
<trkpt lat="64.320693970" lon="-20.134565353">
<ele>218.042969</ele>
<time>2012-07-20T11:16:49Z</time>
<speed>3.290000</speed>
<extensions>
<speed>3.3</speed>
<temp>0.00</temp>
<bpm>0</bpm>
<rpm>0.00</rpm>
</extensions>
</trkpt>
<trkpt lat="64.320854187" lon="-20.134511948">
<ele>219.320313</ele>
<time>2012-07-20T11:16:54Z</time>
<speed>3.570000</speed>
<extensions>
<speed>3.6</speed>
<temp>0.00</temp>
<bpm>0</bpm>
<rpm>0.00</rpm>
</extensions>
</trkpt>
<trkpt lat="64.321029663" lon="-20.134502411">
<ele>220.066406</ele>
<time>2012-07-20T11:16:59Z</time>
<speed>3.900000</speed>
<extensions>
<speed>3.9</speed>
<temp>0.00</temp>
<bpm>0</bpm>
<rpm>0.00</rpm>
</extensions>
</trkpt>
<trkpt lat="64.321205139" lon="-20.134511948">
<ele>220.855469</ele>
<time>2012-07-20T11:17:04Z</time>
<speed>3.680000</speed>
<extensions>
<speed>3.7</speed>
<temp>0.00</temp>
<bpm>0</bpm>
<rpm>0.00</rpm>
</extensions>
</trkpt>
<trkpt lat="64.321380615" lon="-20.134544373">
<ele>221.593750</ele>
<time>2012-07-20T11:17:09Z</time>
<speed>3.840000</speed>
<extensions>
<speed>3.8</speed>
<temp>0.00</temp>
<bpm>0</bpm>
<rpm>0.00</rpm>
</extensions>
</trkpt>
<trkpt lat="64.321556091" lon="-20.134563446">
<ele>222.265625</ele>
<time>2012-07-20T11:17:14Z</time>
<speed>3.870000</speed>
<extensions>
<speed>3.9</speed>
<temp>0.00</temp>
<bpm>0</bpm>
<rpm>0.00</rpm>
</extensions>
</trkpt>
<trkpt lat="64.321746826" lon="-20.134580612">
<ele>223.074219</ele>
<time>2012-07-20T11:17:19Z</time>
<speed>4.310000</speed>
<extensions>
<speed>4.3</speed>
<temp>0.00</temp>
<bpm>0</bpm>
<rpm>0.00</rpm>
</extensions>
</trkpt>
<trkpt lat="64.321929932" lon="-20.134567261">
<ele>223.046875</ele>
<time>2012-07-20T11:17:24Z</time>
<speed>4.350000</speed>
<extensions>
<speed>4.3</speed>
<temp>0.00</temp>
<bpm>0</bpm>
<rpm>0.00</rpm>
</extensions>
</trkpt>
<trkpt lat="64.322113037" lon="-20.134542465">
<ele>222.976563</ele>
<time>2012-07-20T11:17:29Z</time>
<speed>4.320000</speed>
<extensions>
<speed>4.3</speed>
<temp>0.00</temp>
<bpm>0</bpm>
<rpm>0.00</rpm>
</extensions>
</trkpt>
<trkpt lat="64.322319031" lon="-20.134511948">
<ele>222.539063</ele>
<time>2012-07-20T11:17:34Z</time>
<speed>4.630000</speed>
<extensions>
<speed>4.6</speed>
<temp>0.00</temp>
<bpm>0</bpm>
<rpm>0.00</rpm>
</extensions>
</trkpt>
<trkpt lat="64.322532654" lon="-20.134462357">
<ele>221.363281</ele>
<time>2012-07-20T11:17:39Z</time>
<speed>4.650000</speed>
<extensions>
<speed>4.6</speed>
<temp>0.00</temp>
<bpm>0</bpm>
<rpm>0.00</rpm>
</extensions>
</trkpt>
<trkpt lat="64.322723389" lon="-20.134403229">
<ele>221.242188</ele>
<time>2012-07-20T11:17:44Z</time>
<speed>4.010000</speed>
<extensions>
<speed>4.0</speed>
<temp>0.00</temp>
<bpm>0</bpm>
<rpm>0.00</rpm>
</extensions>
</trkpt>
<trkpt lat="64.322891235" lon="-20.134305954">
<ele>221.148438</ele>
<time>2012-07-20T11:17:49Z</time>
<speed>4.120000</speed>
<extensions>
<speed>4.1</speed>
<temp>0.00</temp>
<bpm>0</bpm>
<rpm>0.00</rpm>
</extensions>
</trkpt>
<trkpt lat="64.323066711" lon="-20.134231567">
<ele>221.593750</ele>
<time>2012-07-20T11:17:54Z</time>
<speed>3.750000</speed>
<extensions>
<speed>3.8</speed>
<temp>0.00</temp>
<bpm>0</bpm>
<rpm>0.00</rpm>
</extensions>
</trkpt>
<trkpt lat="64.323226929" lon="-20.134143829">
<ele>221.652344</ele>
<time>2012-07-20T11:17:59Z</time>
<speed>3.700000</speed>
<extensions>
<speed>3.7</speed>
<temp>0.00</temp>
<bpm>0</bpm>
<rpm>0.00</rpm>
</extensions>
</trkpt>
<trkpt lat="64.323402405" lon="-20.134019852">
<ele>222.054688</ele>
<time>2012-07-20T11:18:04Z</time>
<speed>4.420000</speed>
<extensions>
<speed>4.4</speed>
<temp>0.00</temp>
<bpm>0</bpm>
<rpm>0.00</rpm>
</extensions>
</trkpt>
<trkpt lat="64.323585510" lon="-20.133857727">
<ele>222.281250</ele>
<time>2012-07-20T11:18:09Z</time>
<speed>4.780000</speed>
<extensions>
<speed>4.8</speed>
<temp>0.00</temp>
<bpm>0</bpm>
<rpm>0.00</rpm>
</extensions>
</trkpt>
<trkpt lat="64.323791504" lon="-20.133678436">
<ele>222.382813</ele>
<time>2012-07-20T11:18:14Z</time>
<speed>4.640000</speed>
<extensions>
<speed>4.6</speed>
<temp>0.00</temp>
<bpm>0</bpm>
<rpm>0.00</rpm>
</extensions>
</trkpt>
<trkpt lat="64.323966980" lon="-20.133487701">
<ele>222.496094</ele>
<time>2012-07-20T11:18:19Z</time>
<speed>4.140000</speed>
<extensions>
<speed>4.1</speed>
<temp>0.00</temp>
<bpm>0</bpm>
<rpm>0.00</rpm>
</extensions>
</trkpt>
<trkpt lat="64.324134827" lon="-20.133300781">
<ele>222.925781</ele>
<time>2012-07-20T11:18:24Z</time>
<speed>4.470000</speed>
<extensions>
<speed>4.5</speed>
<temp>0.00</temp>
<bpm>0</bpm>
<rpm>0.00</rpm>
</extensions>
</trkpt>
<trkpt lat="64.324333191" lon="-20.133100510">
<ele>222.550781</ele>
<time>2012-07-20T11:18:29Z</time>
<speed>4.680000</speed>
<extensions>
<speed>4.7</speed>
<temp>0.00</temp>
<bpm>0</bpm>
<rpm>0.00</rpm>
</extensions>
</trkpt>
<trkpt lat="64.324516296" lon="-20.132888794">
<ele>223.183594</ele>
<time>2012-07-20T11:18:34Z</time>
<speed>4.470000</speed>
<extensions>
<speed>4.5</speed>
<temp>0.00</temp>
<bpm>0</bpm>
<rpm>0.00</rpm>
</extensions>
</trkpt>
<trkpt lat="64.324684143" lon="-20.132675171">
<ele>222.539063</ele>
<time>2012-07-20T11:18:39Z</time>
<speed>4.050000</speed>
<extensions>
<speed>4.0</speed>
<temp>0.00</temp>
<bpm>0</bpm>
<rpm>0.00</rpm>
</extensions>
</trkpt>
<trkpt lat="64.324813843" lon="-20.132467270">
<ele>222.144531</ele>
<time>2012-07-20T11:18:44Z</time>
<speed>3.860000</speed>
<extensions>
<speed>3.9</speed>
<temp>0.00</temp>
<bpm>0</bpm>
<rpm>0.00</rpm>
</extensions>
</trkpt>
<trkpt lat="64.324867249" lon="-20.132068634">
<ele>222.304688</ele>
<time>2012-07-20T11:18:49Z</time>
<speed>4.360000</speed>
<extensions>
<speed>4.4</speed>
<temp>0.00</temp>
<bpm>0</bpm>
<rpm>0.00</rpm>
</extensions>
</trkpt>
<trkpt lat="64.324920654" lon="-20.131664276">
<ele>221.582031</ele>
<time>2012-07-20T11:18:54Z</time>
<speed>4.020000</speed>
<extensions>
<speed>4.0</speed>
<temp>0.00</temp>
<bpm>0</bpm>
<rpm>0.00</rpm>
</extensions>
</trkpt>
<trkpt lat="64.324966431" lon="-20.131261826">
<ele>221.304688</ele>
<time>2012-07-20T11:18:59Z</time>
<speed>3.970000</speed>
<extensions>
<speed>4.0</speed>
<temp>0.00</temp>
<bpm>0</bpm>
<rpm>0.00</rpm>
</extensions>
</trkpt>
<trkpt lat="64.325019836" lon="-20.130884171">
<ele>221.121094</ele>
<time>2012-07-20T11:19:04Z</time>
<speed>3.750000</speed>
<extensions>
<speed>3.8</speed>
<temp>0.00</temp>
<bpm>0</bpm>
<rpm>0.00</rpm>
</extensions>
</trkpt>
<trkpt lat="64.325065613" lon="-20.130516052">
<ele>221.121094</ele>
<time>2012-07-20T11:19:09Z</time>
<speed>4.070000</speed>
<extensions>
<speed>4.1</speed>
<temp>0.00</temp>
<bpm>0</bpm>
<rpm>0.00</rpm>
</extensions>
</trkpt>
<trkpt lat="64.325134277" lon="-20.130146027">
<ele>221.214844</ele>
<time>2012-07-20T11:19:14Z</time>
<speed>3.640000</speed>
<extensions>
<speed>3.6</speed>
<temp>0.00</temp>
<bpm>0</bpm>
<rpm>0.00</rpm>
</extensions>
</trkpt>
<trkpt lat="64.325225830" lon="-20.129854202">
<ele>221.875000</ele>
<time>2012-07-20T11:19:19Z</time>
<speed>3.580000</speed>
<extensions>
<speed>3.6</speed>
<temp>0.00</temp>
<bpm>0</bpm>
<rpm>0.00</rpm>
</extensions>
</trkpt>
<trkpt lat="64.325347900" lon="-20.129682541">
<ele>222.421875</ele>
<time>2012-07-20T11:19:24Z</time>
<speed>2.530000</speed>
<extensions>
<speed>2.5</speed>
<temp>0.00</temp>
<bpm>0</bpm>
<rpm>0.00</rpm>
</extensions>
</trkpt>
<trkpt lat="64.325370789" lon="-20.129438400">
<ele>223.585938</ele>
<time>2012-07-20T11:19:29Z</time>
<speed>2.150000</speed>
<extensions>
<speed>2.1</speed>
<temp>0.00</temp>
<bpm>0</bpm>
<rpm>0.00</rpm>
</extensions>
</trkpt>
<trkpt lat="64.325386047" lon="-20.129251480">
<ele>223.773438</ele>
<time>2012-07-20T11:19:34Z</time>
<speed>0.630000</speed>
<extensions>
<speed>0.6</speed>
<temp>0.00</temp>
<bpm>0</bpm>
<rpm>0.00</rpm>
</extensions>
</trkpt>
<trkpt lat="64.325393677" lon="-20.129255295">
<ele>223.863281</ele>
<time>2012-07-20T11:19:39Z</time>
<speed>0.060000</speed>
<extensions>
<speed>0.1</speed>
<temp>0.00</temp>
<bpm>0</bpm>
<rpm>0.00</rpm>
</extensions>
</trkpt>
<trkpt lat="64.325393677" lon="-20.129251480">
<ele>223.648438</ele>
<time>2012-07-20T11:19:44Z</time>
<speed>0.690000</speed>
<extensions>
<speed>0.7</speed>
<temp>0.00</temp>
<bpm>0</bpm>
<rpm>0.00</rpm>
</extensions>
</trkpt>
<trkpt lat="64.325393677" lon="-20.129240036">
<ele>223.531250</ele>
<time>2012-07-20T11:19:49Z</time>
<speed>0.060000</speed>
<extensions>
<speed>0.1</speed>
<temp>0.00</temp>
<bpm>0</bpm>
<rpm>0.00</rpm>
</extensions>
</trkpt>
<trkpt lat="64.325386047" lon="-20.129245758">
<ele>223.500000</ele>
<time>2012-07-20T11:19:54Z</time>
<speed>0.100000</speed>
<extensions>
<speed>0.1</speed>
<temp>0.00</temp>
<bpm>0</bpm>
<rpm>0.00</rpm>
</extensions>
</trkpt>
<trkpt lat="64.325386047" lon="-20.129247665">
<ele>223.464844</ele>
<time>2012-07-20T11:19:59Z</time>
<speed>0.060000</speed>
<extensions>
<speed>0.1</speed>
<temp>0.00</temp>
<bpm>0</bpm>
<rpm>0.00</rpm>
</extensions>
</trkpt>
<trkpt lat="64.325386047" lon="-20.129249573">
<ele>223.535156</ele>
<time>2012-07-20T11:20:04Z</time>
<speed>0.020000</speed>
<extensions>
<speed>0.0</speed>
<temp>0.00</temp>
<bpm>0</bpm>
<rpm>0.00</rpm>
</extensions>
</trkpt>
<trkpt lat="64.325386047" lon="-20.129253387">
<ele>223.660156</ele>
<time>2012-07-20T11:20:09Z</time>
<speed>0.010000</speed>
<extensions>
<speed>0.0</speed>
<temp>0.00</temp>
<bpm>0</bpm>
<rpm>0.00</rpm>
</extensions>
</trkpt>
<trkpt lat="64.325386047" lon="-20.129255295">
<ele>223.761719</ele>
<time>2012-07-20T11:20:14Z</time>
<extensions>
<speed>0.0</speed>
<temp>0.00</temp>
<bpm>0</bpm>
<rpm>0.00</rpm>
</extensions>
</trkpt>
<trkpt lat="64.325386047" lon="-20.129255295">
<ele>223.765625</ele>
<time>2012-07-20T11:20:19Z</time>
<speed>0.030000</speed>
<extensions>
<speed>0.0</speed>
<temp>0.00</temp>
<bpm>0</bpm>
<rpm>0.00</rpm>
</extensions>
</trkpt>
<trkpt lat="64.325386047" lon="-20.129257202">
<ele>223.785156</ele>
<time>2012-07-20T11:20:24Z</time>
<speed>0.010000</speed>
<extensions>
<speed>0.0</speed>
<temp>0.00</temp>
<bpm>0</bpm>
<rpm>0.00</rpm>
</extensions>
</trkpt>
<trkpt lat="64.325386047" lon="-20.129257202">
<ele>223.800781</ele>
<time>2012-07-20T11:20:29Z</time>
<speed>0.010000</speed>
<extensions>
<speed>0.0</speed>
<temp>0.00</temp>
<bpm>0</bpm>
<rpm>0.00</rpm>
</extensions>
</trkpt>
<trkpt lat="64.325386047" lon="-20.129257202">
<ele>223.816406</ele>
<time>2012-07-20T11:20:34Z</time>
<extensions>
<speed>0.0</speed>
<temp>0.00</temp>
<bpm>0</bpm>
<rpm>0.00</rpm>
</extensions>
</trkpt>
<trkpt lat="64.325386047" lon="-20.129257202">
<ele>223.847656</ele>
<time>2012-07-20T11:20:39Z</time>
<speed>0.010000</speed>
<extensions>
<speed>0.0</speed>
<temp>0.00</temp>
<bpm>0</bpm>
<rpm>0.00</rpm>
</extensions>
</trkpt>
<trkpt lat="64.325386047" lon="-20.129257202">
<ele>223.859375</ele>
<time>2012-07-20T11:20:44Z</time>
<speed>0.010000</speed>
<extensions>
<speed>0.0</speed>
<temp>0.00</temp>
<bpm>0</bpm>
<rpm>0.00</rpm>
</extensions>
</trkpt>
<trkpt lat="64.325386047" lon="-20.129259109">
<ele>223.906250</ele>
<time>2012-07-20T11:20:49Z</time>
<speed>0.010000</speed>
<extensions>
<speed>0.0</speed>
<temp>0.00</temp>
<bpm>0</bpm>
<rpm>0.00</rpm>
</extensions>
</trkpt>
<trkpt lat="64.325386047" lon="-20.129259109">
<ele>223.976563</ele>
<time>2012-07-20T11:20:54Z</time>
<speed>0.020000</speed>
<extensions>
<speed>0.0</speed>
<temp>0.00</temp>
<bpm>0</bpm>
<rpm>0.00</rpm>
</extensions>
</trkpt>
<trkpt lat="64.325386047" lon="-20.129261017">
<ele>224.027344</ele>
<time>2012-07-20T11:20:59Z</time>
<speed>0.010000</speed>
<extensions>
<speed>0.0</speed>
<temp>0.00</temp>
<bpm>0</bpm>
<rpm>0.00</rpm>
</extensions>
</trkpt>
<trkpt lat="64.325386047" lon="-20.129261017">
<ele>224.058594</ele>
<time>2012-07-20T11:21:04Z</time>
<extensions>
<speed>0.0</speed>
<temp>0.00</temp>
<bpm>0</bpm>
<rpm>0.00</rpm>
</extensions>
</trkpt>
<trkpt lat="64.325386047" lon="-20.129261017">
<ele>224.085938</ele>
<time>2012-07-20T11:21:09Z</time>
<extensions>
<speed>0.0</speed>
<temp>0.00</temp>
<bpm>0</bpm>
<rpm>0.00</rpm>
</extensions>
</trkpt>
<trkpt lat="64.325386047" lon="-20.129261017">
<ele>224.117188</ele>
<time>2012-07-20T11:21:14Z</time>
<speed>0.010000</speed>
<extensions>
<speed>0.0</speed>
<temp>0.00</temp>
<bpm>0</bpm>
<rpm>0.00</rpm>
</extensions>
</trkpt>
<trkpt lat="64.325386047" lon="-20.129262924">
<ele>224.144531</ele>
<time>2012-07-20T11:21:19Z</time>
<speed>0.010000</speed>
<extensions>
<speed>0.0</speed>
<temp>0.00</temp>
<bpm>0</bpm>
<rpm>0.00</rpm>
</extensions>
</trkpt>
<trkpt lat="64.325386047" lon="-20.129262924">
<ele>224.175781</ele>
<time>2012-07-20T11:21:24Z</time>
<speed>0.020000</speed>
<extensions>
<speed>0.0</speed>
<temp>0.00</temp>
<bpm>0</bpm>
<rpm>0.00</rpm>
</extensions>
</trkpt>
<trkpt lat="64.325386047" lon="-20.129262924">
<ele>224.218750</ele>
<time>2012-07-20T11:21:29Z</time>
<speed>0.020000</speed>
<extensions>
<speed>0.0</speed>
<temp>0.00</temp>
<bpm>0</bpm>
<rpm>0.00</rpm>
</extensions>
</trkpt>
<trkpt lat="64.325386047" lon="-20.129262924">
<ele>224.269531</ele>
<time>2012-07-20T11:21:34Z</time>
<speed>0.010000</speed>
<extensions>
<speed>0.0</speed>
<temp>0.00</temp>
<bpm>0</bpm>
<rpm>0.00</rpm>
</extensions>
</trkpt>
<trkpt lat="64.325386047" lon="-20.129262924">
<ele>224.308594</ele>
<time>2012-07-20T11:21:39Z</time>
<speed>0.020000</speed>
<extensions>
<speed>0.0</speed>
<temp>0.00</temp>
<bpm>0</bpm>
<rpm>0.00</rpm>
</extensions>
</trkpt>
<trkpt lat="64.325386047" lon="-20.129262924">
<ele>224.343750</ele>
<time>2012-07-20T11:21:44Z</time>
<speed>0.020000</speed>
<extensions>
<speed>0.0</speed>
<temp>0.00</temp>
<bpm>0</bpm>
<rpm>0.00</rpm>
</extensions>
</trkpt>
<trkpt lat="64.325378418" lon="-20.129264832">
<ele>224.398438</ele>
<time>2012-07-20T11:21:49Z</time>
<speed>0.010000</speed>
<extensions>
<speed>0.0</speed>
<temp>0.00</temp>
<bpm>0</bpm>
<rpm>0.00</rpm>
</extensions>
</trkpt>
<trkpt lat="64.325378418" lon="-20.129264832">
<ele>224.441406</ele>
<time>2012-07-20T11:21:54Z</time>
<speed>0.010000</speed>
<extensions>
<speed>0.0</speed>
<temp>0.00</temp>
<bpm>0</bpm>
<rpm>0.00</rpm>
</extensions>
</trkpt>
<trkpt lat="64.325378418" lon="-20.129264832">
<ele>224.476563</ele>
<time>2012-07-20T11:21:59Z</time>
<extensions>
<speed>0.0</speed>
<temp>0.00</temp>
<bpm>0</bpm>
<rpm>0.00</rpm>
</extensions>
</trkpt>
<trkpt lat="64.325378418" lon="-20.129264832">
<ele>224.503906</ele>
<time>2012-07-20T11:22:04Z</time>
<extensions>
<speed>0.0</speed>
<temp>0.00</temp>
<bpm>0</bpm>
<rpm>0.00</rpm>
</extensions>
</trkpt>
<trkpt lat="64.325378418" lon="-20.129266739">
<ele>224.539063</ele>
<time>2012-07-20T11:22:09Z</time>
<speed>0.020000</speed>
<extensions>
<speed>0.0</speed>
<temp>0.00</temp>
<bpm>0</bpm>
<rpm>0.00</rpm>
</extensions>
</trkpt>
<trkpt lat="64.325378418" lon="-20.129266739">
<ele>224.558594</ele>
<time>2012-07-20T11:22:14Z</time>
<extensions>
<speed>0.0</speed>
<temp>0.00</temp>
<bpm>0</bpm>
<rpm>0.00</rpm>
</extensions>
</trkpt>
<trkpt lat="64.325378418" lon="-20.129266739">
<ele>224.578125</ele>
<time>2012-07-20T11:22:19Z</time>
<speed>0.010000</speed>
<extensions>
<speed>0.0</speed>
<temp>0.00</temp>
<bpm>0</bpm>
<rpm>0.00</rpm>
</extensions>
</trkpt>
<trkpt lat="64.325378418" lon="-20.129264832">
<ele>224.593750</ele>
<time>2012-07-20T11:22:24Z</time>
<speed>0.010000</speed>
<extensions>
<speed>0.0</speed>
<temp>0.00</temp>
<bpm>0</bpm>
<rpm>0.00</rpm>
</extensions>
</trkpt>
<trkpt lat="64.325378418" lon="-20.129264832">
<ele>224.605469</ele>
<time>2012-07-20T11:22:29Z</time>
<speed>0.040000</speed>
<extensions>
<speed>0.0</speed>
<temp>0.00</temp>
<bpm>0</bpm>
<rpm>0.00</rpm>
</extensions>
</trkpt>
<trkpt lat="64.325386047" lon="-20.129262924">
<ele>224.648438</ele>
<time>2012-07-20T11:22:34Z</time>
<speed>0.060000</speed>
<extensions>
<speed>0.1</speed>
<temp>0.00</temp>
<bpm>0</bpm>
<rpm>0.00</rpm>
</extensions>
</trkpt>
<trkpt lat="64.325386047" lon="-20.129261017">
<ele>224.714844</ele>
<time>2012-07-20T11:22:39Z</time>
<speed>0.010000</speed>
<extensions>
<speed>0.0</speed>
<temp>0.00</temp>
<bpm>0</bpm>
<rpm>0.00</rpm>
</extensions>
</trkpt>
<trkpt lat="64.325386047" lon="-20.129261017">
<ele>224.726563</ele>
<time>2012-07-20T11:22:44Z</time>
<extensions>
<speed>0.0</speed>
<temp>0.00</temp>
<bpm>0</bpm>
<rpm>0.00</rpm>
</extensions>
</trkpt>
<trkpt lat="64.325386047" lon="-20.129261017">
<ele>224.722656</ele>
<time>2012-07-20T11:22:49Z</time>
<speed>0.010000</speed>
<extensions>
<speed>0.0</speed>
<temp>0.00</temp>
<bpm>0</bpm>
<rpm>0.00</rpm>
</extensions>
</trkpt>
<trkpt lat="64.325386047" lon="-20.129261017">
<ele>224.742188</ele>
<time>2012-07-20T11:22:54Z</time>
<speed>0.010000</speed>
<extensions>
<speed>0.0</speed>
<temp>0.00</temp>
<bpm>0</bpm>
<rpm>0.00</rpm>
</extensions>
</trkpt>
<trkpt lat="64.325386047" lon="-20.129261017">
<ele>224.757813</ele>
<time>2012-07-20T11:22:59Z</time>
<extensions>
<speed>0.0</speed>
<temp>0.00</temp>
<bpm>0</bpm>
<rpm>0.00</rpm>
</extensions>
</trkpt>
<trkpt lat="64.325386047" lon="-20.129261017">
<ele>224.796875</ele>
<time>2012-07-20T11:23:04Z</time>
<speed>0.010000</speed>
<extensions>
<speed>0.0</speed>
<temp>0.00</temp>
<bpm>0</bpm>
<rpm>0.00</rpm>
</extensions>
</trkpt>
<trkpt lat="64.325386047" lon="-20.129261017">
<ele>224.824219</ele>
<time>2012-07-20T11:23:09Z</time>
<extensions>
<speed>0.0</speed>
<temp>0.00</temp>
<bpm>0</bpm>
<rpm>0.00</rpm>
</extensions>
</trkpt>
<trkpt lat="64.325386047" lon="-20.129261017">
<ele>224.851563</ele>
<time>2012-07-20T11:23:14Z</time>
<speed>0.010000</speed>
<extensions>
<speed>0.0</speed>
<temp>0.00</temp>
<bpm>0</bpm>
<rpm>0.00</rpm>
</extensions>
</trkpt>
<trkpt lat="64.325386047" lon="-20.129261017">
<ele>224.875000</ele>
<time>2012-07-20T11:23:19Z</time>
<extensions>
<speed>0.0</speed>
<temp>0.00</temp>
<bpm>0</bpm>
<rpm>0.00</rpm>
</extensions>
</trkpt>
<trkpt lat="64.325386047" lon="-20.129262924">
<ele>224.902344</ele>
<time>2012-07-20T11:23:24Z</time>
<speed>0.020000</speed>
<extensions>
<speed>0.0</speed>
<temp>0.00</temp>
<bpm>0</bpm>
<rpm>0.00</rpm>
</extensions>
</trkpt>
<trkpt lat="64.325386047" lon="-20.129262924">
<ele>224.937500</ele>
<time>2012-07-20T11:23:29Z</time>
<speed>0.020000</speed>
<extensions>
<speed>0.0</speed>
<temp>0.00</temp>
<bpm>0</bpm>
<rpm>0.00</rpm>
</extensions>
</trkpt>
<trkpt lat="64.325386047" lon="-20.129262924">
<ele>224.964844</ele>
<time>2012-07-20T11:23:34Z</time>
<extensions>
<speed>0.0</speed>
<temp>0.00</temp>
<bpm>0</bpm>
<rpm>0.00</rpm>
</extensions>
</trkpt>
<trkpt lat="64.325386047" lon="-20.129264832">
<ele>224.996094</ele>
<time>2012-07-20T11:23:39Z</time>
<speed>0.020000</speed>
<extensions>
<speed>0.0</speed>
<temp>0.00</temp>
<bpm>0</bpm>
<rpm>0.00</rpm>
</extensions>
</trkpt>
<trkpt lat="64.325386047" lon="-20.129264832">
<ele>225.027344</ele>
<time>2012-07-20T11:23:44Z</time>
<extensions>
<speed>0.0</speed>
<temp>0.00</temp>
<bpm>0</bpm>
<rpm>0.00</rpm>
</extensions>
</trkpt>
<trkpt lat="64.325386047" lon="-20.129266739">
<ele>225.070313</ele>
<time>2012-07-20T11:23:49Z</time>
<extensions>
<speed>0.0</speed>
<temp>0.00</temp>
<bpm>0</bpm>
<rpm>0.00</rpm>
</extensions>
</trkpt>
<trkpt lat="64.325386047" lon="-20.129266739">
<ele>225.097656</ele>
<time>2012-07-20T11:23:54Z</time>
<speed>0.010000</speed>
<extensions>
<speed>0.0</speed>
<temp>0.00</temp>
<bpm>0</bpm>
<rpm>0.00</rpm>
</extensions>
</trkpt>
<trkpt lat="64.325386047" lon="-20.129266739">
<ele>225.121094</ele>
<time>2012-07-20T11:23:59Z</time>
<extensions>
<speed>0.0</speed>
<temp>0.00</temp>
<bpm>0</bpm>
<rpm>0.00</rpm>
</extensions>
</trkpt>
<trkpt lat="64.325386047" lon="-20.129266739">
<ele>225.140625</ele>
<time>2012-07-20T11:24:04Z</time>
<extensions>
<speed>0.0</speed>
<temp>0.00</temp>
<bpm>0</bpm>
<rpm>0.00</rpm>
</extensions>
</trkpt>
<trkpt lat="64.325386047" lon="-20.129268646">
<ele>225.164063</ele>
<time>2012-07-20T11:24:09Z</time>
<extensions>
<speed>0.0</speed>
<temp>0.00</temp>
<bpm>0</bpm>
<rpm>0.00</rpm>
</extensions>
</trkpt>
<trkpt lat="64.325386047" lon="-20.129268646">
<ele>225.191406</ele>
<time>2012-07-20T11:24:14Z</time>
<extensions>
<speed>0.0</speed>
<temp>0.00</temp>
<bpm>0</bpm>
<rpm>0.00</rpm>
</extensions>
</trkpt>
<trkpt lat="64.325386047" lon="-20.129268646">
<ele>225.210938</ele>
<time>2012-07-20T11:24:19Z</time>
<extensions>
<speed>0.0</speed>
<temp>0.00</temp>
<bpm>0</bpm>
<rpm>0.00</rpm>
</extensions>
</trkpt>
<trkpt lat="64.325386047" lon="-20.129268646">
<ele>225.226563</ele>
<time>2012-07-20T11:24:24Z</time>
<extensions>
<speed>0.0</speed>
<temp>0.00</temp>
<bpm>0</bpm>
<rpm>0.00</rpm>
</extensions>
</trkpt>
<trkpt lat="64.325386047" lon="-20.129270554">
<ele>225.234375</ele>
<time>2012-07-20T11:24:29Z</time>
<extensions>
<speed>0.0</speed>
<temp>0.00</temp>
<bpm>0</bpm>
<rpm>0.00</rpm>
</extensions>
</trkpt>
<trkpt lat="64.325386047" lon="-20.129270554">
<ele>225.234375</ele>
<time>2012-07-20T11:24:34Z</time>
<extensions>
<speed>0.0</speed>
<temp>0.00</temp>
<bpm>0</bpm>
<rpm>0.00</rpm>
</extensions>
</trkpt>
<trkpt lat="64.325386047" lon="-20.129270554">
<ele>225.238281</ele>
<time>2012-07-20T11:24:39Z</time>
<speed>0.010000</speed>
<extensions>
<speed>0.0</speed>
<temp>0.00</temp>
<bpm>0</bpm>
<rpm>0.00</rpm>
</extensions>
</trkpt>
<trkpt lat="64.325386047" lon="-20.129270554">
<ele>225.246094</ele>
<time>2012-07-20T11:24:44Z</time>
<speed>0.010000</speed>
<extensions>
<speed>0.0</speed>
<temp>0.00</temp>
<bpm>0</bpm>
<rpm>0.00</rpm>
</extensions>
</trkpt>
<trkpt lat="64.325386047" lon="-20.129270554">
<ele>225.246094</ele>
<time>2012-07-20T11:24:49Z</time>
<extensions>
<speed>0.0</speed>
<temp>0.00</temp>
<bpm>0</bpm>
<rpm>0.00</rpm>
</extensions>
</trkpt>
<trkpt lat="64.325386047" lon="-20.129270554">
<ele>225.242188</ele>
<time>2012-07-20T11:24:54Z</time>
<extensions>
<speed>0.0</speed>
<temp>0.00</temp>
<bpm>0</bpm>
<rpm>0.00</rpm>
</extensions>
</trkpt>
<trkpt lat="64.325386047" lon="-20.129270554">
<ele>225.246094</ele>
<time>2012-07-20T11:24:59Z</time>
<extensions>
<speed>0.0</speed>
<temp>0.00</temp>
<bpm>0</bpm>
<rpm>0.00</rpm>
</extensions>
</trkpt>
<trkpt lat="64.325386047" lon="-20.129270554">
<ele>225.261719</ele>
<time>2012-07-20T11:25:04Z</time>
<speed>0.010000</speed>
<extensions>
<speed>0.0</speed>
<temp>0.00</temp>
<bpm>0</bpm>
<rpm>0.00</rpm>
</extensions>
</trkpt>
<trkpt lat="64.325386047" lon="-20.129272461">
<ele>225.277344</ele>
<time>2012-07-20T11:25:09Z</time>
<extensions>
<speed>0.0</speed>
<temp>0.00</temp>
<bpm>0</bpm>
<rpm>0.00</rpm>
</extensions>
</trkpt>
<trkpt lat="64.325386047" lon="-20.129270554">
<ele>225.300781</ele>
<time>2012-07-20T11:25:14Z</time>
<speed>0.010000</speed>
<extensions>
<speed>0.0</speed>
<temp>0.00</temp>
<bpm>0</bpm>
<rpm>0.00</rpm>
</extensions>
</trkpt>
<trkpt lat="64.325386047" lon="-20.129272461">
<ele>225.335938</ele>
<time>2012-07-20T11:25:19Z</time>
<speed>0.010000</speed>
<extensions>
<speed>0.0</speed>
<temp>0.00</temp>
<bpm>0</bpm>
<rpm>0.00</rpm>
</extensions>
</trkpt>
<trkpt lat="64.325386047" lon="-20.129272461">
<ele>225.351563</ele>
<time>2012-07-20T11:25:24Z</time>
<speed>0.010000</speed>
<extensions>
<speed>0.0</speed>
<temp>0.00</temp>
<bpm>0</bpm>
<rpm>0.00</rpm>
</extensions>
</trkpt>
<trkpt lat="64.325386047" lon="-20.129272461">
<ele>225.359375</ele>
<time>2012-07-20T11:25:29Z</time>
<speed>0.010000</speed>
<extensions>
<speed>0.0</speed>
<temp>0.00</temp>
<bpm>0</bpm>
<rpm>0.00</rpm>
</extensions>
</trkpt>
<trkpt lat="64.325386047" lon="-20.129272461">
<ele>225.375000</ele>
<time>2012-07-20T11:25:34Z</time>
<extensions>
<speed>0.0</speed>
<temp>0.00</temp>
<bpm>0</bpm>
<rpm>0.00</rpm>
</extensions>
</trkpt>
<trkpt lat="64.325386047" lon="-20.129272461">
<ele>225.390625</ele>
<time>2012-07-20T11:25:39Z</time>
<extensions>
<speed>0.0</speed>
<temp>0.00</temp>
<bpm>0</bpm>
<rpm>0.00</rpm>
</extensions>
</trkpt>
<trkpt lat="64.325386047" lon="-20.129272461">
<ele>225.406250</ele>
<time>2012-07-20T11:25:44Z</time>
<extensions>
<speed>0.0</speed>
<temp>0.00</temp>
<bpm>0</bpm>
<rpm>0.00</rpm>
</extensions>
</trkpt>
<trkpt lat="64.325386047" lon="-20.129272461">
<ele>225.429688</ele>
<time>2012-07-20T11:25:49Z</time>
<extensions>
<speed>0.0</speed>
<temp>0.00</temp>
<bpm>0</bpm>
<rpm>0.00</rpm>
</extensions>
</trkpt>
<trkpt lat="64.325386047" lon="-20.129272461">
<ele>225.433594</ele>
<time>2012-07-20T11:25:54Z</time>
<speed>0.010000</speed>
<extensions>
<speed>0.0</speed>
<temp>0.00</temp>
<bpm>0</bpm>
<rpm>0.00</rpm>
</extensions>
</trkpt>
<trkpt lat="64.325386047" lon="-20.129272461">
<ele>225.437500</ele>
<time>2012-07-20T11:25:59Z</time>
<speed>0.010000</speed>
<extensions>
<speed>0.0</speed>
<temp>0.00</temp>
<bpm>0</bpm>
<rpm>0.00</rpm>
</extensions>
</trkpt>
<trkpt lat="64.325386047" lon="-20.129272461">
<ele>225.425781</ele>
<time>2012-07-20T11:26:04Z</time>
<extensions>
<speed>0.0</speed>
<temp>0.00</temp>
<bpm>0</bpm>
<rpm>0.00</rpm>
</extensions>
</trkpt>
<trkpt lat="64.325386047" lon="-20.129272461">
<ele>225.394531</ele>
<time>2012-07-20T11:26:09Z</time>
<extensions>
<speed>0.0</speed>
<temp>0.00</temp>
<bpm>0</bpm>
<rpm>0.00</rpm>
</extensions>
</trkpt>
<trkpt lat="64.325386047" lon="-20.129272461">
<ele>225.371094</ele>
<time>2012-07-20T11:26:14Z</time>
<speed>0.010000</speed>
<extensions>
<speed>0.0</speed>
<temp>0.00</temp>
<bpm>0</bpm>
<rpm>0.00</rpm>
</extensions>
</trkpt>
<trkpt lat="64.325386047" lon="-20.129272461">
<ele>225.363281</ele>
<time>2012-07-20T11:26:19Z</time>
<extensions>
<speed>0.0</speed>
<temp>0.00</temp>
<bpm>0</bpm>
<rpm>0.00</rpm>
</extensions>
</trkpt>
<trkpt lat="64.325386047" lon="-20.129272461">
<ele>225.343750</ele>
<time>2012-07-20T11:26:24Z</time>
<speed>0.010000</speed>
<extensions>
<speed>0.0</speed>
<temp>0.00</temp>
<bpm>0</bpm>
<rpm>0.00</rpm>
</extensions>
</trkpt>
<trkpt lat="64.325386047" lon="-20.129272461">
<ele>225.332031</ele>
<time>2012-07-20T11:26:29Z</time>
<extensions>
<speed>0.0</speed>
<temp>0.00</temp>
<bpm>0</bpm>
<rpm>0.00</rpm>
</extensions>
</trkpt>
<trkpt lat="64.325386047" lon="-20.129272461">
<ele>225.292969</ele>
<time>2012-07-20T11:26:34Z</time>
<extensions>
<speed>0.0</speed>
<temp>0.00</temp>
<bpm>0</bpm>
<rpm>0.00</rpm>
</extensions>
</trkpt>
<trkpt lat="64.325386047" lon="-20.129272461">
<ele>225.273438</ele>
<time>2012-07-20T11:26:39Z</time>
<speed>0.010000</speed>
<extensions>
<speed>0.0</speed>
<temp>0.00</temp>
<bpm>0</bpm>
<rpm>0.00</rpm>
</extensions>
</trkpt>
<trkpt lat="64.325386047" lon="-20.129272461">
<ele>225.238281</ele>
<time>2012-07-20T11:26:44Z</time>
<extensions>
<speed>0.0</speed>
<temp>0.00</temp>
<bpm>0</bpm>
<rpm>0.00</rpm>
</extensions>
</trkpt>
<trkpt lat="64.325386047" lon="-20.129272461">
<ele>225.218750</ele>
<time>2012-07-20T11:26:49Z</time>
<extensions>
<speed>0.0</speed>
<temp>0.00</temp>
<bpm>0</bpm>
<rpm>0.00</rpm>
</extensions>
</trkpt>
<trkpt lat="64.325386047" lon="-20.129272461">
<ele>225.195313</ele>
<time>2012-07-20T11:26:54Z</time>
<extensions>
<speed>0.0</speed>
<temp>0.00</temp>
<bpm>0</bpm>
<rpm>0.00</rpm>
</extensions>
</trkpt>
<trkpt lat="64.325386047" lon="-20.129272461">
<ele>225.160156</ele>
<time>2012-07-20T11:26:59Z</time>
<extensions>
<speed>0.0</speed>
<temp>0.00</temp>
<bpm>0</bpm>
<rpm>0.00</rpm>
</extensions>
</trkpt>
<trkpt lat="64.325386047" lon="-20.129272461">
<ele>225.109375</ele>
<time>2012-07-20T11:27:04Z</time>
<extensions>
<speed>0.0</speed>
<temp>0.00</temp>
<bpm>0</bpm>
<rpm>0.00</rpm>
</extensions>
</trkpt>
<trkpt lat="64.325386047" lon="-20.129272461">
<ele>225.085938</ele>
<time>2012-07-20T11:27:09Z</time>
<extensions>
<speed>0.0</speed>
<temp>0.00</temp>
<bpm>0</bpm>
<rpm>0.00</rpm>
</extensions>
</trkpt>
<trkpt lat="64.325386047" lon="-20.129272461">
<ele>225.035156</ele>
<time>2012-07-20T11:27:14Z</time>
<extensions>
<speed>0.0</speed>
<temp>0.00</temp>
<bpm>0</bpm>
<rpm>0.00</rpm>
</extensions>
</trkpt>
<trkpt lat="64.325386047" lon="-20.129272461">
<ele>225.031250</ele>
<time>2012-07-20T11:27:19Z</time>
<extensions>
<speed>0.0</speed>
<temp>0.00</temp>
<bpm>0</bpm>
<rpm>0.00</rpm>
</extensions>
</trkpt>
<trkpt lat="64.325386047" lon="-20.129272461">
<ele>225.015625</ele>
<time>2012-07-20T11:27:24Z</time>
<extensions>
<speed>0.0</speed>
<temp>0.00</temp>
<bpm>0</bpm>
<rpm>0.00</rpm>
</extensions>
</trkpt>
<trkpt lat="64.325386047" lon="-20.129274368">
<ele>225.007813</ele>
<time>2012-07-20T11:27:29Z</time>
<extensions>
<speed>0.0</speed>
<temp>0.00</temp>
<bpm>0</bpm>
<rpm>0.00</rpm>
</extensions>
</trkpt>
<trkpt lat="64.325386047" lon="-20.129274368">
<ele>224.988281</ele>
<time>2012-07-20T11:27:34Z</time>
<extensions>
<speed>0.0</speed>
<temp>0.00</temp>
<bpm>0</bpm>
<rpm>0.00</rpm>
</extensions>
</trkpt>
<trkpt lat="64.325386047" lon="-20.129274368">
<ele>224.980469</ele>
<time>2012-07-20T11:27:39Z</time>
<speed>0.010000</speed>
<extensions>
<speed>0.0</speed>
<temp>0.00</temp>
<bpm>0</bpm>
<rpm>0.00</rpm>
</extensions>
</trkpt>
<trkpt lat="64.325386047" lon="-20.129274368">
<ele>224.972656</ele>
<time>2012-07-20T11:27:44Z</time>
<speed>0.010000</speed>
<extensions>
<speed>0.0</speed>
<temp>0.00</temp>
<bpm>0</bpm>
<rpm>0.00</rpm>
</extensions>
</trkpt>
<trkpt lat="64.325386047" lon="-20.129274368">
<ele>224.960938</ele>
<time>2012-07-20T11:27:49Z</time>
<extensions>
<speed>0.0</speed>
<temp>0.00</temp>
<bpm>0</bpm>
<rpm>0.00</rpm>
</extensions>
</trkpt>
<trkpt lat="64.325386047" lon="-20.129276276">
<ele>224.937500</ele>
<time>2012-07-20T11:27:54Z</time>
<extensions>
<speed>0.0</speed>
<temp>0.00</temp>
<bpm>0</bpm>
<rpm>0.00</rpm>
</extensions>
</trkpt>
<trkpt lat="64.325386047" lon="-20.129276276">
<ele>224.925781</ele>
<time>2012-07-20T11:27:59Z</time>
<extensions>
<speed>0.0</speed>
<temp>0.00</temp>
<bpm>0</bpm>
<rpm>0.00</rpm>
</extensions>
</trkpt>
<trkpt lat="64.325386047" lon="-20.129276276">
<ele>224.898438</ele>
<time>2012-07-20T11:28:04Z</time>
<extensions>
<speed>0.0</speed>
<temp>0.00</temp>
<bpm>0</bpm>
<rpm>0.00</rpm>
</extensions>
</trkpt>
<trkpt lat="64.325386047" lon="-20.129276276">
<ele>224.871094</ele>
<time>2012-07-20T11:28:09Z</time>
<extensions>
<speed>0.0</speed>
<temp>0.00</temp>
<bpm>0</bpm>
<rpm>0.00</rpm>
</extensions>
</trkpt>
<trkpt lat="64.325386047" lon="-20.129276276">
<ele>224.839844</ele>
<time>2012-07-20T11:28:14Z</time>
<extensions>
<speed>0.0</speed>
<temp>0.00</temp>
<bpm>0</bpm>
<rpm>0.00</rpm>
</extensions>
</trkpt>
<trkpt lat="64.325386047" lon="-20.129276276">
<ele>224.828125</ele>
<time>2012-07-20T11:28:19Z</time>
<extensions>
<speed>0.0</speed>
<temp>0.00</temp>
<bpm>0</bpm>
<rpm>0.00</rpm>
</extensions>
</trkpt>
<trkpt lat="64.325386047" lon="-20.129278183">
<ele>224.816406</ele>
<time>2012-07-20T11:28:24Z</time>
<extensions>
<speed>0.0</speed>
<temp>0.00</temp>
<bpm>0</bpm>
<rpm>0.00</rpm>
</extensions>
</trkpt>
<trkpt lat="64.325386047" lon="-20.129278183">
<ele>224.769531</ele>
<time>2012-07-20T11:28:29Z</time>
<extensions>
<speed>0.0</speed>
<temp>0.00</temp>
<bpm>0</bpm>
<rpm>0.00</rpm>
</extensions>
</trkpt>
<trkpt lat="64.325386047" lon="-20.129278183">
<ele>224.753906</ele>
<time>2012-07-20T11:28:34Z</time>
<extensions>
<speed>0.0</speed>
<temp>0.00</temp>
<bpm>0</bpm>
<rpm>0.00</rpm>
</extensions>
</trkpt>
<trkpt lat="64.325386047" lon="-20.129278183">
<ele>224.746094</ele>
<time>2012-07-20T11:28:39Z</time>
<extensions>
<speed>0.0</speed>
<temp>0.00</temp>
<bpm>0</bpm>
<rpm>0.00</rpm>
</extensions>
</trkpt>
<trkpt lat="64.325386047" lon="-20.129278183">
<ele>224.750000</ele>
<time>2012-07-20T11:28:44Z</time>
<extensions>
<speed>0.0</speed>
<temp>0.00</temp>
<bpm>0</bpm>
<rpm>0.00</rpm>
</extensions>
</trkpt>
<trkpt lat="64.325386047" lon="-20.129280090">
<ele>224.746094</ele>
<time>2012-07-20T11:28:49Z</time>
<extensions>
<speed>0.0</speed>
<temp>0.00</temp>
<bpm>0</bpm>
<rpm>0.00</rpm>
</extensions>
</trkpt>
<trkpt lat="64.325386047" lon="-20.129280090">
<ele>224.761719</ele>
<time>2012-07-20T11:28:54Z</time>
<speed>0.010000</speed>
<extensions>
<speed>0.0</speed>
<temp>0.00</temp>
<bpm>0</bpm>
<rpm>0.00</rpm>
</extensions>
</trkpt>
<trkpt lat="64.325386047" lon="-20.129280090">
<ele>224.757813</ele>
<time>2012-07-20T11:28:59Z</time>
<speed>0.010000</speed>
<extensions>
<speed>0.0</speed>
<temp>0.00</temp>
<bpm>0</bpm>
<rpm>0.00</rpm>
</extensions>
</trkpt>
<trkpt lat="64.325386047" lon="-20.129280090">
<ele>224.761719</ele>
<time>2012-07-20T11:29:04Z</time>
<extensions>
<speed>0.0</speed>
<temp>0.00</temp>
<bpm>0</bpm>
<rpm>0.00</rpm>
</extensions>
</trkpt>
<trkpt lat="64.325386047" lon="-20.129281998">
<ele>224.757813</ele>
<time>2012-07-20T11:29:09Z</time>
<extensions>
<speed>0.0</speed>
<temp>0.00</temp>
<bpm>0</bpm>
<rpm>0.00</rpm>
</extensions>
</trkpt>
<trkpt lat="64.325386047" lon="-20.129281998">
<ele>224.773438</ele>
<time>2012-07-20T11:29:14Z</time>
<extensions>
<speed>0.0</speed>
<temp>0.00</temp>
<bpm>0</bpm>
<rpm>0.00</rpm>
</extensions>
</trkpt>
<trkpt lat="64.325386047" lon="-20.129281998">
<ele>224.765625</ele>
<time>2012-07-20T11:29:19Z</time>
<speed>0.010000</speed>
<extensions>
<speed>0.0</speed>
<temp>0.00</temp>
<bpm>0</bpm>
<rpm>0.00</rpm>
</extensions>
</trkpt>
<trkpt lat="64.325386047" lon="-20.129283905">
<ele>224.773438</ele>
<time>2012-07-20T11:29:24Z</time>
<extensions>
<speed>0.0</speed>
<temp>0.00</temp>
<bpm>0</bpm>
<rpm>0.00</rpm>
</extensions>
</trkpt>
<trkpt lat="64.325386047" lon="-20.129283905">
<ele>224.761719</ele>
<time>2012-07-20T11:29:29Z</time>
<extensions>
<speed>0.0</speed>
<temp>0.00</temp>
<bpm>0</bpm>
<rpm>0.00</rpm>
</extensions>
</trkpt>
<trkpt lat="64.325386047" lon="-20.129283905">
<ele>224.773438</ele>
<time>2012-07-20T11:29:34Z</time>
<speed>0.010000</speed>
<extensions>
<speed>0.0</speed>
<temp>0.00</temp>
<bpm>0</bpm>
<rpm>0.00</rpm>
</extensions>
</trkpt>
<trkpt lat="64.325386047" lon="-20.129283905">
<ele>224.769531</ele>
<time>2012-07-20T11:29:39Z</time>
<extensions>
<speed>0.0</speed>
<temp>0.00</temp>
<bpm>0</bpm>
<rpm>0.00</rpm>
</extensions>
</trkpt>
<trkpt lat="64.325386047" lon="-20.129285812">
<ele>224.769531</ele>
<time>2012-07-20T11:29:44Z</time>
<extensions>
<speed>0.0</speed>
<temp>0.00</temp>
<bpm>0</bpm>
<rpm>0.00</rpm>
</extensions>
</trkpt>
<trkpt lat="64.325386047" lon="-20.129285812">
<ele>224.773438</ele>
<time>2012-07-20T11:29:49Z</time>
<extensions>
<speed>0.0</speed>
<temp>0.00</temp>
<bpm>0</bpm>
<rpm>0.00</rpm>
</extensions>
</trkpt>
<trkpt lat="64.325386047" lon="-20.129285812">
<ele>224.777344</ele>
<time>2012-07-20T11:29:54Z</time>
<extensions>
<speed>0.0</speed>
<temp>0.00</temp>
<bpm>0</bpm>
<rpm>0.00</rpm>
</extensions>
</trkpt>
<trkpt lat="64.325386047" lon="-20.129287720">
<ele>224.781250</ele>
<time>2012-07-20T11:29:59Z</time>
<extensions>
<speed>0.0</speed>
<temp>0.00</temp>
<bpm>0</bpm>
<rpm>0.00</rpm>
</extensions>
</trkpt>
<trkpt lat="64.325386047" lon="-20.129287720">
<ele>224.777344</ele>
<time>2012-07-20T11:30:04Z</time>
<extensions>
<speed>0.0</speed>
<temp>0.00</temp>
<bpm>0</bpm>
<rpm>0.00</rpm>
</extensions>
</trkpt>
<trkpt lat="64.325386047" lon="-20.129287720">
<ele>224.773438</ele>
<time>2012-07-20T11:30:09Z</time>
<speed>0.010000</speed>
<extensions>
<speed>0.0</speed>
<temp>0.00</temp>
<bpm>0</bpm>
<rpm>0.00</rpm>
</extensions>
</trkpt>
<trkpt lat="64.325386047" lon="-20.129287720">
<ele>224.777344</ele>
<time>2012-07-20T11:30:14Z</time>
<extensions>
<speed>0.0</speed>
<temp>0.00</temp>
<bpm>0</bpm>
<rpm>0.00</rpm>
</extensions>
</trkpt>
<trkpt lat="64.325386047" lon="-20.129287720">
<ele>224.781250</ele>
<time>2012-07-20T11:30:19Z</time>
<extensions>
<speed>0.0</speed>
<temp>0.00</temp>
<bpm>0</bpm>
<rpm>0.00</rpm>
</extensions>
</trkpt>
<trkpt lat="64.325386047" lon="-20.129289627">
<ele>224.789063</ele>
<time>2012-07-20T11:30:24Z</time>
<extensions>
<speed>0.0</speed>
<temp>0.00</temp>
<bpm>0</bpm>
<rpm>0.00</rpm>
</extensions>
</trkpt>
<trkpt lat="64.325386047" lon="-20.129289627">
<ele>224.796875</ele>
<time>2012-07-20T11:30:29Z</time>
<extensions>
<speed>0.0</speed>
<temp>0.00</temp>
<bpm>0</bpm>
<rpm>0.00</rpm>
</extensions>
</trkpt>
<trkpt lat="64.325386047" lon="-20.129289627">
<ele>224.800781</ele>
<time>2012-07-20T11:30:34Z</time>
<extensions>
<speed>0.0</speed>
<temp>0.00</temp>
<bpm>0</bpm>
<rpm>0.00</rpm>
</extensions>
</trkpt>
<trkpt lat="64.325386047" lon="-20.129289627">
<ele>224.808594</ele>
<time>2012-07-20T11:30:39Z</time>
<extensions>
<speed>0.0</speed>
<temp>0.00</temp>
<bpm>0</bpm>
<rpm>0.00</rpm>
</extensions>
</trkpt>
<trkpt lat="64.325386047" lon="-20.129289627">
<ele>224.816406</ele>
<time>2012-07-20T11:30:44Z</time>
<extensions>
<speed>0.0</speed>
<temp>0.00</temp>
<bpm>0</bpm>
<rpm>0.00</rpm>
</extensions>
</trkpt>
<trkpt lat="64.325386047" lon="-20.129289627">
<ele>224.816406</ele>
<time>2012-07-20T11:30:49Z</time>
<extensions>
<speed>0.0</speed>
<temp>0.00</temp>
<bpm>0</bpm>
<rpm>0.00</rpm>
</extensions>
</trkpt>
<trkpt lat="64.325386047" lon="-20.129289627">
<ele>224.820313</ele>
<time>2012-07-20T11:30:54Z</time>
<speed>0.010000</speed>
<extensions>
<speed>0.0</speed>
<temp>0.00</temp>
<bpm>0</bpm>
<rpm>0.00</rpm>
</extensions>
</trkpt>
<trkpt lat="64.325386047" lon="-20.129289627">
<ele>224.820313</ele>
<time>2012-07-20T11:30:59Z</time>
<speed>0.020000</speed>
<extensions>
<speed>0.0</speed>
<temp>0.00</temp>
<bpm>0</bpm>
<rpm>0.00</rpm>
</extensions>
</trkpt>
<trkpt lat="64.325386047" lon="-20.129291534">
<ele>224.824219</ele>
<time>2012-07-20T11:31:04Z</time>
<extensions>
<speed>0.0</speed>
<temp>0.00</temp>
<bpm>0</bpm>
<rpm>0.00</rpm>
</extensions>
</trkpt>
<trkpt lat="64.325386047" lon="-20.129291534">
<ele>224.820313</ele>
<time>2012-07-20T11:31:09Z</time>
<extensions>
<speed>0.0</speed>
<temp>0.00</temp>
<bpm>0</bpm>
<rpm>0.00</rpm>
</extensions>
</trkpt>
<trkpt lat="64.325386047" lon="-20.129291534">
<ele>224.820313</ele>
<time>2012-07-20T11:31:14Z</time>
<speed>0.010000</speed>
<extensions>
<speed>0.0</speed>
<temp>0.00</temp>
<bpm>0</bpm>
<rpm>0.00</rpm>
</extensions>
</trkpt>
<trkpt lat="64.325386047" lon="-20.129291534">
<ele>224.812500</ele>
<time>2012-07-20T11:31:19Z</time>
<speed>0.010000</speed>
<extensions>
<speed>0.0</speed>
<temp>0.00</temp>
<bpm>0</bpm>
<rpm>0.00</rpm>
</extensions>
</trkpt>
<trkpt lat="64.325386047" lon="-20.129291534">
<ele>224.804688</ele>
<time>2012-07-20T11:31:24Z</time>
<speed>0.010000</speed>
<extensions>
<speed>0.0</speed>
<temp>0.00</temp>
<bpm>0</bpm>
<rpm>0.00</rpm>
</extensions>
</trkpt>
<trkpt lat="64.325386047" lon="-20.129291534">
<ele>224.789063</ele>
<time>2012-07-20T11:31:29Z</time>
<extensions>
<speed>0.0</speed>
<temp>0.00</temp>
<bpm>0</bpm>
<rpm>0.00</rpm>
</extensions>
</trkpt>
<trkpt lat="64.325386047" lon="-20.129291534">
<ele>224.785156</ele>
<time>2012-07-20T11:31:34Z</time>
<extensions>
<speed>0.0</speed>
<temp>0.00</temp>
<bpm>0</bpm>
<rpm>0.00</rpm>
</extensions>
</trkpt>
<trkpt lat="64.325386047" lon="-20.129291534">
<ele>224.773438</ele>
<time>2012-07-20T11:31:39Z</time>
<extensions>
<speed>0.0</speed>
<temp>0.00</temp>
<bpm>0</bpm>
<rpm>0.00</rpm>
</extensions>
</trkpt>
<trkpt lat="64.325386047" lon="-20.129291534">
<ele>224.757813</ele>
<time>2012-07-20T11:31:44Z</time>
<speed>0.010000</speed>
<extensions>
<speed>0.0</speed>
<temp>0.00</temp>
<bpm>0</bpm>
<rpm>0.00</rpm>
</extensions>
</trkpt>
<trkpt lat="64.325386047" lon="-20.129291534">
<ele>224.753906</ele>
<time>2012-07-20T11:31:49Z</time>
<speed>0.010000</speed>
<extensions>
<speed>0.0</speed>
<temp>0.00</temp>
<bpm>0</bpm>
<rpm>0.00</rpm>
</extensions>
</trkpt>
<trkpt lat="64.325386047" lon="-20.129291534">
<ele>224.750000</ele>
<time>2012-07-20T11:31:54Z</time>
<extensions>
<speed>0.0</speed>
<temp>0.00</temp>
<bpm>0</bpm>
<rpm>0.00</rpm>
</extensions>
</trkpt>
<trkpt lat="64.325386047" lon="-20.129291534">
<ele>224.742188</ele>
<time>2012-07-20T11:31:59Z</time>
<speed>0.010000</speed>
<extensions>
<speed>0.0</speed>
<temp>0.00</temp>
<bpm>0</bpm>
<rpm>0.00</rpm>
</extensions>
</trkpt>
<trkpt lat="64.325386047" lon="-20.129291534">
<ele>224.738281</ele>
<time>2012-07-20T11:32:04Z</time>
<extensions>
<speed>0.0</speed>
<temp>0.00</temp>
<bpm>0</bpm>
<rpm>0.00</rpm>
</extensions>
</trkpt>
<trkpt lat="64.325386047" lon="-20.129291534">
<ele>224.714844</ele>
<time>2012-07-20T11:32:09Z</time>
<speed>0.010000</speed>
<extensions>
<speed>0.0</speed>
<temp>0.00</temp>
<bpm>0</bpm>
<rpm>0.00</rpm>
</extensions>
</trkpt>
<trkpt lat="64.325386047" lon="-20.129289627">
<ele>224.699219</ele>
<time>2012-07-20T11:32:14Z</time>
<extensions>
<speed>0.0</speed>
<temp>0.00</temp>
<bpm>0</bpm>
<rpm>0.00</rpm>
</extensions>
</trkpt>
<trkpt lat="64.325386047" lon="-20.129289627">
<ele>224.675781</ele>
<time>2012-07-20T11:32:19Z</time>
<extensions>
<speed>0.0</speed>
<temp>0.00</temp>
<bpm>0</bpm>
<rpm>0.00</rpm>
</extensions>
</trkpt>
<trkpt lat="64.325386047" lon="-20.129289627">
<ele>224.664063</ele>
<time>2012-07-20T11:32:24Z</time>
<extensions>
<speed>0.0</speed>
<temp>0.00</temp>
<bpm>0</bpm>
<rpm>0.00</rpm>
</extensions>
</trkpt>
<trkpt lat="64.325386047" lon="-20.129289627">
<ele>224.644531</ele>
<time>2012-07-20T11:32:29Z</time>
<extensions>
<speed>0.0</speed>
<temp>0.00</temp>
<bpm>0</bpm>
<rpm>0.00</rpm>
</extensions>
</trkpt>
<trkpt lat="64.325386047" lon="-20.129289627">
<ele>224.636719</ele>
<time>2012-07-20T11:32:34Z</time>
<extensions>
<speed>0.0</speed>
<temp>0.00</temp>
<bpm>0</bpm>
<rpm>0.00</rpm>
</extensions>
</trkpt>
<trkpt lat="64.325386047" lon="-20.129289627">
<ele>224.625000</ele>
<time>2012-07-20T11:32:39Z</time>
<speed>0.010000</speed>
<extensions>
<speed>0.0</speed>
<temp>0.00</temp>
<bpm>0</bpm>
<rpm>0.00</rpm>
</extensions>
</trkpt>
<trkpt lat="64.325386047" lon="-20.129289627">
<ele>224.625000</ele>
<time>2012-07-20T11:32:44Z</time>
<extensions>
<speed>0.0</speed>
<temp>0.00</temp>
<bpm>0</bpm>
<rpm>0.00</rpm>
</extensions>
</trkpt>
<trkpt lat="64.325386047" lon="-20.129289627">
<ele>224.625000</ele>
<time>2012-07-20T11:32:49Z</time>
<extensions>
<speed>0.0</speed>
<temp>0.00</temp>
<bpm>0</bpm>
<rpm>0.00</rpm>
</extensions>
</trkpt>
<trkpt lat="64.325386047" lon="-20.129289627">
<ele>224.625000</ele>
<time>2012-07-20T11:32:54Z</time>
<speed>0.020000</speed>
<extensions>
<speed>0.0</speed>
<temp>0.00</temp>
<bpm>0</bpm>
<rpm>0.00</rpm>
</extensions>
</trkpt>
<trkpt lat="64.325386047" lon="-20.129289627">
<ele>224.625000</ele>
<time>2012-07-20T11:32:59Z</time>
<extensions>
<speed>0.0</speed>
<temp>0.00</temp>
<bpm>0</bpm>
<rpm>0.00</rpm>
</extensions>
</trkpt>
<trkpt lat="64.325386047" lon="-20.129291534">
<ele>224.628906</ele>
<time>2012-07-20T11:33:04Z</time>
<speed>0.010000</speed>
<extensions>
<speed>0.0</speed>
<temp>0.00</temp>
<bpm>0</bpm>
<rpm>0.00</rpm>
</extensions>
</trkpt>
<trkpt lat="64.325386047" lon="-20.129291534">
<ele>224.625000</ele>
<time>2012-07-20T11:33:09Z</time>
<speed>0.010000</speed>
<extensions>
<speed>0.0</speed>
<temp>0.00</temp>
<bpm>0</bpm>
<rpm>0.00</rpm>
</extensions>
</trkpt>
<trkpt lat="64.325386047" lon="-20.129291534">
<ele>224.621094</ele>
<time>2012-07-20T11:33:14Z</time>
<extensions>
<speed>0.0</speed>
<temp>0.00</temp>
<bpm>0</bpm>
<rpm>0.00</rpm>
</extensions>
</trkpt>
<trkpt lat="64.325386047" lon="-20.129291534">
<ele>224.617188</ele>
<time>2012-07-20T11:33:19Z</time>
<speed>0.020000</speed>
<extensions>
<speed>0.0</speed>
<temp>0.00</temp>
<bpm>0</bpm>
<rpm>0.00</rpm>
</extensions>
</trkpt>
<trkpt lat="64.325386047" lon="-20.129291534">
<ele>224.617188</ele>
<time>2012-07-20T11:33:24Z</time>
<extensions>
<speed>0.0</speed>
<temp>0.00</temp>
<bpm>0</bpm>
<rpm>0.00</rpm>
</extensions>
</trkpt>
<trkpt lat="64.325386047" lon="-20.129291534">
<ele>224.617188</ele>
<time>2012-07-20T11:33:29Z</time>
<extensions>
<speed>0.0</speed>
<temp>0.00</temp>
<bpm>0</bpm>
<rpm>0.00</rpm>
</extensions>
</trkpt>
<trkpt lat="64.325386047" lon="-20.129291534">
<ele>224.625000</ele>
<time>2012-07-20T11:33:34Z</time>
<extensions>
<speed>0.0</speed>
<temp>0.00</temp>
<bpm>0</bpm>
<rpm>0.00</rpm>
</extensions>
</trkpt>
<trkpt lat="64.325386047" lon="-20.129291534">
<ele>224.632813</ele>
<time>2012-07-20T11:33:39Z</time>
<extensions>
<speed>0.0</speed>
<temp>0.00</temp>
<bpm>0</bpm>
<rpm>0.00</rpm>
</extensions>
</trkpt>
<trkpt lat="64.325386047" lon="-20.129293442">
<ele>224.644531</ele>
<time>2012-07-20T11:33:44Z</time>
<speed>0.010000</speed>
<extensions>
<speed>0.0</speed>
<temp>0.00</temp>
<bpm>0</bpm>
<rpm>0.00</rpm>
</extensions>
</trkpt>
<trkpt lat="64.325386047" lon="-20.129293442">
<ele>224.656250</ele>
<time>2012-07-20T11:33:49Z</time>
<speed>0.010000</speed>
<extensions>
<speed>0.0</speed>
<temp>0.00</temp>
<bpm>0</bpm>
<rpm>0.00</rpm>
</extensions>
</trkpt>
<trkpt lat="64.325386047" lon="-20.129293442">
<ele>224.671875</ele>
<time>2012-07-20T11:33:54Z</time>
<speed>0.010000</speed>
<extensions>
<speed>0.0</speed>
<temp>0.00</temp>
<bpm>0</bpm>
<rpm>0.00</rpm>
</extensions>
</trkpt>
<trkpt lat="64.325386047" lon="-20.129293442">
<ele>224.691406</ele>
<time>2012-07-20T11:33:59Z</time>
<speed>0.020000</speed>
<extensions>
<speed>0.0</speed>
<temp>0.00</temp>
<bpm>0</bpm>
<rpm>0.00</rpm>
</extensions>
</trkpt>
<trkpt lat="64.325386047" lon="-20.129291534">
<ele>224.703125</ele>
<time>2012-07-20T11:34:04Z</time>
<speed>0.010000</speed>
<extensions>
<speed>0.0</speed>
<temp>0.00</temp>
<bpm>0</bpm>
<rpm>0.00</rpm>
</extensions>
</trkpt>
<trkpt lat="64.325386047" lon="-20.129291534">
<ele>224.726563</ele>
<time>2012-07-20T11:34:09Z</time>
<speed>0.010000</speed>
<extensions>
<speed>0.0</speed>
<temp>0.00</temp>
<bpm>0</bpm>
<rpm>0.00</rpm>
</extensions>
</trkpt>
<trkpt lat="64.325386047" lon="-20.129291534">
<ele>224.750000</ele>
<time>2012-07-20T11:34:14Z</time>
<speed>0.010000</speed>
<extensions>
<speed>0.0</speed>
<temp>0.00</temp>
<bpm>0</bpm>
<rpm>0.00</rpm>
</extensions>
</trkpt>
<trkpt lat="64.325386047" lon="-20.129291534">
<ele>224.753906</ele>
<time>2012-07-20T11:34:19Z</time>
<speed>0.010000</speed>
<extensions>
<speed>0.0</speed>
<temp>0.00</temp>
<bpm>0</bpm>
<rpm>0.00</rpm>
</extensions>
</trkpt>
<trkpt lat="64.325386047" lon="-20.129291534">
<ele>224.769531</ele>
<time>2012-07-20T11:34:24Z</time>
<speed>0.010000</speed>
<extensions>
<speed>0.0</speed>
<temp>0.00</temp>
<bpm>0</bpm>
<rpm>0.00</rpm>
</extensions>
</trkpt>
<trkpt lat="64.325386047" lon="-20.129291534">
<ele>224.785156</ele>
<time>2012-07-20T11:34:29Z</time>
<speed>0.010000</speed>
<extensions>
<speed>0.0</speed>
<temp>0.00</temp>
<bpm>0</bpm>
<rpm>0.00</rpm>
</extensions>
</trkpt>
<trkpt lat="64.325386047" lon="-20.129291534">
<ele>224.796875</ele>
<time>2012-07-20T11:34:34Z</time>
<speed>0.010000</speed>
<extensions>
<speed>0.0</speed>
<temp>0.00</temp>
<bpm>0</bpm>
<rpm>0.00</rpm>
</extensions>
</trkpt>
<trkpt lat="64.325386047" lon="-20.129291534">
<ele>224.800781</ele>
<time>2012-07-20T11:34:39Z</time>
<speed>0.010000</speed>
<extensions>
<speed>0.0</speed>
<temp>0.00</temp>
<bpm>0</bpm>
<rpm>0.00</rpm>
</extensions>
</trkpt>
<trkpt lat="64.325386047" lon="-20.129291534">
<ele>224.812500</ele>
<time>2012-07-20T11:34:44Z</time>
<speed>0.010000</speed>
<extensions>
<speed>0.0</speed>
<temp>0.00</temp>
<bpm>0</bpm>
<rpm>0.00</rpm>
</extensions>
</trkpt>
<trkpt lat="64.325386047" lon="-20.129293442">
<ele>224.832031</ele>
<time>2012-07-20T11:34:49Z</time>
<speed>0.020000</speed>
<extensions>
<speed>0.0</speed>
<temp>0.00</temp>
<bpm>0</bpm>
<rpm>0.00</rpm>
</extensions>
</trkpt>
<trkpt lat="64.325386047" lon="-20.129293442">
<ele>224.863281</ele>
<time>2012-07-20T11:34:54Z</time>
<extensions>
<speed>0.0</speed>
<temp>0.00</temp>
<bpm>0</bpm>
<rpm>0.00</rpm>
</extensions>
</trkpt>
<trkpt lat="64.325386047" lon="-20.129293442">
<ele>224.871094</ele>
<time>2012-07-20T11:34:59Z</time>
<extensions>
<speed>0.0</speed>
<temp>0.00</temp>
<bpm>0</bpm>
<rpm>0.00</rpm>
</extensions>
</trkpt>
<trkpt lat="64.325386047" lon="-20.129293442">
<ele>224.882813</ele>
<time>2012-07-20T11:35:04Z</time>
<extensions>
<speed>0.0</speed>
<temp>0.00</temp>
<bpm>0</bpm>
<rpm>0.00</rpm>
</extensions>
</trkpt>
<trkpt lat="64.325386047" lon="-20.129295349">
<ele>224.902344</ele>
<time>2012-07-20T11:35:09Z</time>
<speed>0.010000</speed>
<extensions>
<speed>0.0</speed>
<temp>0.00</temp>
<bpm>0</bpm>
<rpm>0.00</rpm>
</extensions>
</trkpt>
<trkpt lat="64.325378418" lon="-20.129295349">
<ele>224.933594</ele>
<time>2012-07-20T11:35:14Z</time>
<extensions>
<speed>0.0</speed>
<temp>0.00</temp>
<bpm>0</bpm>
<rpm>0.00</rpm>
</extensions>
</trkpt>
<trkpt lat="64.325378418" lon="-20.129295349">
<ele>224.964844</ele>
<time>2012-07-20T11:35:19Z</time>
<speed>0.010000</speed>
<extensions>
<speed>0.0</speed>
<temp>0.00</temp>
<bpm>0</bpm>
<rpm>0.00</rpm>
</extensions>
</trkpt>
<trkpt lat="64.325378418" lon="-20.129295349">
<ele>224.976563</ele>
<time>2012-07-20T11:35:24Z</time>
<extensions>
<speed>0.0</speed>
<temp>0.00</temp>
<bpm>0</bpm>
<rpm>0.00</rpm>
</extensions>
</trkpt>
<trkpt lat="64.325378418" lon="-20.129295349">
<ele>224.984375</ele>
<time>2012-07-20T11:35:29Z</time>
<extensions>
<speed>0.0</speed>
<temp>0.00</temp>
<bpm>0</bpm>
<rpm>0.00</rpm>
</extensions>
</trkpt>
<trkpt lat="64.325378418" lon="-20.129295349">
<ele>224.984375</ele>
<time>2012-07-20T11:35:34Z</time>
<speed>0.010000</speed>
<extensions>
<speed>0.0</speed>
<temp>0.00</temp>
<bpm>0</bpm>
<rpm>0.00</rpm>
</extensions>
</trkpt>
<trkpt lat="64.325378418" lon="-20.129295349">
<ele>224.984375</ele>
<time>2012-07-20T11:35:39Z</time>
<speed>0.030000</speed>
<extensions>
<speed>0.0</speed>
<temp>0.00</temp>
<bpm>0</bpm>
<rpm>0.00</rpm>
</extensions>
</trkpt>
<trkpt lat="64.325378418" lon="-20.129295349">
<ele>224.976563</ele>
<time>2012-07-20T11:35:44Z</time>
<extensions>
<speed>0.0</speed>
<temp>0.00</temp>
<bpm>0</bpm>
<rpm>0.00</rpm>
</extensions>
</trkpt>
<trkpt lat="64.325378418" lon="-20.129295349">
<ele>224.957031</ele>
<time>2012-07-20T11:35:49Z</time>
<speed>0.020000</speed>
<extensions>
<speed>0.0</speed>
<temp>0.00</temp>
<bpm>0</bpm>
<rpm>0.00</rpm>
</extensions>
</trkpt>
<trkpt lat="64.325378418" lon="-20.129295349">
<ele>224.929688</ele>
<time>2012-07-20T11:35:54Z</time>
<speed>0.010000</speed>
<extensions>
<speed>0.0</speed>
<temp>0.00</temp>
<bpm>0</bpm>
<rpm>0.00</rpm>
</extensions>
</trkpt>
<trkpt lat="64.325378418" lon="-20.129293442">
<ele>224.914063</ele>
<time>2012-07-20T11:35:59Z</time>
<speed>0.010000</speed>
<extensions>
<speed>0.0</speed>
<temp>0.00</temp>
<bpm>0</bpm>
<rpm>0.00</rpm>
</extensions>
</trkpt>
<trkpt lat="64.325378418" lon="-20.129293442">
<ele>224.902344</ele>
<time>2012-07-20T11:36:04Z</time>
<speed>0.010000</speed>
<extensions>
<speed>0.0</speed>
<temp>0.00</temp>
<bpm>0</bpm>
<rpm>0.00</rpm>
</extensions>
</trkpt>
<trkpt lat="64.325378418" lon="-20.129293442">
<ele>224.890625</ele>
<time>2012-07-20T11:36:09Z</time>
<speed>0.010000</speed>
<extensions>
<speed>0.0</speed>
<temp>0.00</temp>
<bpm>0</bpm>
<rpm>0.00</rpm>
</extensions>
</trkpt>
<trkpt lat="64.325378418" lon="-20.129293442">
<ele>224.882813</ele>
<time>2012-07-20T11:36:14Z</time>
<extensions>
<speed>0.0</speed>
<temp>0.00</temp>
<bpm>0</bpm>
<rpm>0.00</rpm>
</extensions>
</trkpt>
<trkpt lat="64.325378418" lon="-20.129293442">
<ele>224.882813</ele>
<time>2012-07-20T11:36:19Z</time>
<speed>0.010000</speed>
<extensions>
<speed>0.0</speed>
<temp>0.00</temp>
<bpm>0</bpm>
<rpm>0.00</rpm>
</extensions>
</trkpt>
<trkpt lat="64.325378418" lon="-20.129291534">
<ele>224.878906</ele>
<time>2012-07-20T11:36:24Z</time>
<extensions>
<speed>0.0</speed>
<temp>0.00</temp>
<bpm>0</bpm>
<rpm>0.00</rpm>
</extensions>
</trkpt>
<trkpt lat="64.325378418" lon="-20.129291534">
<ele>224.875000</ele>
<time>2012-07-20T11:36:29Z</time>
<speed>0.010000</speed>
<extensions>
<speed>0.0</speed>
<temp>0.00</temp>
<bpm>0</bpm>
<rpm>0.00</rpm>
</extensions>
</trkpt>
<trkpt lat="64.325378418" lon="-20.129291534">
<ele>224.859375</ele>
<time>2012-07-20T11:36:34Z</time>
<speed>0.010000</speed>
<extensions>
<speed>0.0</speed>
<temp>0.00</temp>
<bpm>0</bpm>
<rpm>0.00</rpm>
</extensions>
</trkpt>
<trkpt lat="64.325378418" lon="-20.129291534">
<ele>224.851563</ele>
<time>2012-07-20T11:36:39Z</time>
<extensions>
<speed>0.0</speed>
<temp>0.00</temp>
<bpm>0</bpm>
<rpm>0.00</rpm>
</extensions>
</trkpt>
<trkpt lat="64.325378418" lon="-20.129291534">
<ele>224.835938</ele>
<time>2012-07-20T11:36:44Z</time>
<extensions>
<speed>0.0</speed>
<temp>0.00</temp>
<bpm>0</bpm>
<rpm>0.00</rpm>
</extensions>
</trkpt>
<trkpt lat="64.325378418" lon="-20.129291534">
<ele>224.816406</ele>
<time>2012-07-20T11:36:49Z</time>
<speed>0.010000</speed>
<extensions>
<speed>0.0</speed>
<temp>0.00</temp>
<bpm>0</bpm>
<rpm>0.00</rpm>
</extensions>
</trkpt>
<trkpt lat="64.325378418" lon="-20.129291534">
<ele>224.812500</ele>
<time>2012-07-20T11:36:54Z</time>
<extensions>
<speed>0.0</speed>
<temp>0.00</temp>
<bpm>0</bpm>
<rpm>0.00</rpm>
</extensions>
</trkpt>
<trkpt lat="64.325386047" lon="-20.129291534">
<ele>224.796875</ele>
<time>2012-07-20T11:36:59Z</time>
<speed>0.020000</speed>
<extensions>
<speed>0.0</speed>
<temp>0.00</temp>
<bpm>0</bpm>
<rpm>0.00</rpm>
</extensions>
</trkpt>
<trkpt lat="64.325386047" lon="-20.129291534">
<ele>224.785156</ele>
<time>2012-07-20T11:37:04Z</time>
<extensions>
<speed>0.0</speed>
<temp>0.00</temp>
<bpm>0</bpm>
<rpm>0.00</rpm>
</extensions>
</trkpt>
<trkpt lat="64.325386047" lon="-20.129289627">
<ele>224.773438</ele>
<time>2012-07-20T11:37:09Z</time>
<extensions>
<speed>0.0</speed>
<temp>0.00</temp>
<bpm>0</bpm>
<rpm>0.00</rpm>
</extensions>
</trkpt>
<trkpt lat="64.325386047" lon="-20.129289627">
<ele>224.757813</ele>
<time>2012-07-20T11:37:14Z</time>
<extensions>
<speed>0.0</speed>
<temp>0.00</temp>
<bpm>0</bpm>
<rpm>0.00</rpm>
</extensions>
</trkpt>
<trkpt lat="64.325386047" lon="-20.129289627">
<ele>224.742188</ele>
<time>2012-07-20T11:37:19Z</time>
<speed>0.010000</speed>
<extensions>
<speed>0.0</speed>
<temp>0.00</temp>
<bpm>0</bpm>
<rpm>0.00</rpm>
</extensions>
</trkpt>
<trkpt lat="64.325386047" lon="-20.129289627">
<ele>224.726563</ele>
<time>2012-07-20T11:37:24Z</time>
<extensions>
<speed>0.0</speed>
<temp>0.00</temp>
<bpm>0</bpm>
<rpm>0.00</rpm>
</extensions>
</trkpt>
<trkpt lat="64.325386047" lon="-20.129289627">
<ele>224.710938</ele>
<time>2012-07-20T11:37:29Z</time>
<extensions>
<speed>0.0</speed>
<temp>0.00</temp>
<bpm>0</bpm>
<rpm>0.00</rpm>
</extensions>
</trkpt>
<trkpt lat="64.325386047" lon="-20.129289627">
<ele>224.695313</ele>
<time>2012-07-20T11:37:34Z</time>
<speed>0.010000</speed>
<extensions>
<speed>0.0</speed>
<temp>0.00</temp>
<bpm>0</bpm>
<rpm>0.00</rpm>
</extensions>
</trkpt>
<trkpt lat="64.325386047" lon="-20.129287720">
<ele>224.675781</ele>
<time>2012-07-20T11:37:39Z</time>
<extensions>
<speed>0.0</speed>
<temp>0.00</temp>
<bpm>0</bpm>
<rpm>0.00</rpm>
</extensions>
</trkpt>
<trkpt lat="64.325386047" lon="-20.129287720">
<ele>224.664063</ele>
<time>2012-07-20T11:37:44Z</time>
<extensions>
<speed>0.0</speed>
<temp>0.00</temp>
<bpm>0</bpm>
<rpm>0.00</rpm>
</extensions>
</trkpt>
<trkpt lat="64.325386047" lon="-20.129287720">
<ele>224.648438</ele>
<time>2012-07-20T11:37:49Z</time>
<extensions>
<speed>0.0</speed>
<temp>0.00</temp>
<bpm>0</bpm>
<rpm>0.00</rpm>
</extensions>
</trkpt>
<trkpt lat="64.325386047" lon="-20.129287720">
<ele>224.632813</ele>
<time>2012-07-20T11:37:54Z</time>
<extensions>
<speed>0.0</speed>
<temp>0.00</temp>
<bpm>0</bpm>
<rpm>0.00</rpm>
</extensions>
</trkpt>
<trkpt lat="64.325386047" lon="-20.129287720">
<ele>224.625000</ele>
<time>2012-07-20T11:37:59Z</time>
<extensions>
<speed>0.0</speed>
<temp>0.00</temp>
<bpm>0</bpm>
<rpm>0.00</rpm>
</extensions>
</trkpt>
<trkpt lat="64.325386047" lon="-20.129287720">
<ele>224.613281</ele>
<time>2012-07-20T11:38:04Z</time>
<extensions>
<speed>0.0</speed>
<temp>0.00</temp>
<bpm>0</bpm>
<rpm>0.00</rpm>
</extensions>
</trkpt>
<trkpt lat="64.325386047" lon="-20.129287720">
<ele>224.605469</ele>
<time>2012-07-20T11:38:09Z</time>
<speed>0.010000</speed>
<extensions>
<speed>0.0</speed>
<temp>0.00</temp>
<bpm>0</bpm>
<rpm>0.00</rpm>
</extensions>
</trkpt>
<trkpt lat="64.325386047" lon="-20.129287720">
<ele>224.593750</ele>
<time>2012-07-20T11:38:14Z</time>
<speed>0.010000</speed>
<extensions>
<speed>0.0</speed>
<temp>0.00</temp>
<bpm>0</bpm>
<rpm>0.00</rpm>
</extensions>
</trkpt>
<trkpt lat="64.325386047" lon="-20.129287720">
<ele>224.578125</ele>
<time>2012-07-20T11:38:19Z</time>
<speed>0.010000</speed>
<extensions>
<speed>0.0</speed>
<temp>0.00</temp>
<bpm>0</bpm>
<rpm>0.00</rpm>
</extensions>
</trkpt>
<trkpt lat="64.325386047" lon="-20.129287720">
<ele>224.570313</ele>
<time>2012-07-20T11:38:24Z</time>
<extensions>
<speed>0.0</speed>
<temp>0.00</temp>
<bpm>0</bpm>
<rpm>0.00</rpm>
</extensions>
</trkpt>
<trkpt lat="64.325386047" lon="-20.129285812">
<ele>224.574219</ele>
<time>2012-07-20T11:38:29Z</time>
<extensions>
<speed>0.0</speed>
<temp>0.00</temp>
<bpm>0</bpm>
<rpm>0.00</rpm>
</extensions>
</trkpt>
<trkpt lat="64.325386047" lon="-20.129285812">
<ele>224.570313</ele>
<time>2012-07-20T11:38:34Z</time>
<speed>0.010000</speed>
<extensions>
<speed>0.0</speed>
<temp>0.00</temp>
<bpm>0</bpm>
<rpm>0.00</rpm>
</extensions>
</trkpt>
<trkpt lat="64.325386047" lon="-20.129285812">
<ele>224.566406</ele>
<time>2012-07-20T11:38:39Z</time>
<extensions>
<speed>0.0</speed>
<temp>0.00</temp>
<bpm>0</bpm>
<rpm>0.00</rpm>
</extensions>
</trkpt>
<trkpt lat="64.325386047" lon="-20.129285812">
<ele>224.558594</ele>
<time>2012-07-20T11:38:44Z</time>
<extensions>
<speed>0.0</speed>
<temp>0.00</temp>
<bpm>0</bpm>
<rpm>0.00</rpm>
</extensions>
</trkpt>
<trkpt lat="64.325386047" lon="-20.129285812">
<ele>224.546875</ele>
<time>2012-07-20T11:38:49Z</time>
<extensions>
<speed>0.0</speed>
<temp>0.00</temp>
<bpm>0</bpm>
<rpm>0.00</rpm>
</extensions>
</trkpt>
<trkpt lat="64.325386047" lon="-20.129285812">
<ele>224.535156</ele>
<time>2012-07-20T11:38:54Z</time>
<extensions>
<speed>0.0</speed>
<temp>0.00</temp>
<bpm>0</bpm>
<rpm>0.00</rpm>
</extensions>
</trkpt>
<trkpt lat="64.325386047" lon="-20.129283905">
<ele>224.527344</ele>
<time>2012-07-20T11:38:59Z</time>
<extensions>
<speed>0.0</speed>
<temp>0.00</temp>
<bpm>0</bpm>
<rpm>0.00</rpm>
</extensions>
</trkpt>
<trkpt lat="64.325386047" lon="-20.129283905">
<ele>224.519531</ele>
<time>2012-07-20T11:39:04Z</time>
<extensions>
<speed>0.0</speed>
<temp>0.00</temp>
<bpm>0</bpm>
<rpm>0.00</rpm>
</extensions>
</trkpt>
<trkpt lat="64.325386047" lon="-20.129283905">
<ele>224.507813</ele>
<time>2012-07-20T11:39:09Z</time>
<extensions>
<speed>0.0</speed>
<temp>0.00</temp>
<bpm>0</bpm>
<rpm>0.00</rpm>
</extensions>
</trkpt>
<trkpt lat="64.325386047" lon="-20.129283905">
<ele>224.484375</ele>
<time>2012-07-20T11:39:14Z</time>
<speed>0.010000</speed>
<extensions>
<speed>0.0</speed>
<temp>0.00</temp>
<bpm>0</bpm>
<rpm>0.00</rpm>
</extensions>
</trkpt>
<trkpt lat="64.325386047" lon="-20.129283905">
<ele>224.460938</ele>
<time>2012-07-20T11:39:19Z</time>
<extensions>
<speed>0.0</speed>
<temp>0.00</temp>
<bpm>0</bpm>
<rpm>0.00</rpm>
</extensions>
</trkpt>
<trkpt lat="64.325386047" lon="-20.129283905">
<ele>224.453125</ele>
<time>2012-07-20T11:39:24Z</time>
<extensions>
<speed>0.0</speed>
<temp>0.00</temp>
<bpm>0</bpm>
<rpm>0.00</rpm>
</extensions>
</trkpt>
<trkpt lat="64.325386047" lon="-20.129281998">
<ele>224.441406</ele>
<time>2012-07-20T11:39:29Z</time>
<extensions>
<speed>0.0</speed>
<temp>0.00</temp>
<bpm>0</bpm>
<rpm>0.00</rpm>
</extensions>
</trkpt>
<trkpt lat="64.325386047" lon="-20.129281998">
<ele>224.425781</ele>
<time>2012-07-20T11:39:34Z</time>
<speed>0.010000</speed>
<extensions>
<speed>0.0</speed>
<temp>0.00</temp>
<bpm>0</bpm>
<rpm>0.00</rpm>
</extensions>
</trkpt>
<trkpt lat="64.325386047" lon="-20.129281998">
<ele>224.421875</ele>
<time>2012-07-20T11:39:39Z</time>
<speed>0.010000</speed>
<extensions>
<speed>0.0</speed>
<temp>0.00</temp>
<bpm>0</bpm>
<rpm>0.00</rpm>
</extensions>
</trkpt>
<trkpt lat="64.325386047" lon="-20.129281998">
<ele>224.390625</ele>
<time>2012-07-20T11:39:44Z</time>
<extensions>
<speed>0.0</speed>
<temp>0.00</temp>
<bpm>0</bpm>
<rpm>0.00</rpm>
</extensions>
</trkpt>
<trkpt lat="64.325386047" lon="-20.129281998">
<ele>224.390625</ele>
<time>2012-07-20T11:39:49Z</time>
<extensions>
<speed>0.0</speed>
<temp>0.00</temp>
<bpm>0</bpm>
<rpm>0.00</rpm>
</extensions>
</trkpt>
<trkpt lat="64.325386047" lon="-20.129281998">
<ele>224.367188</ele>
<time>2012-07-20T11:39:54Z</time>
<speed>0.010000</speed>
<extensions>
<speed>0.0</speed>
<temp>0.00</temp>
<bpm>0</bpm>
<rpm>0.00</rpm>
</extensions>
</trkpt>
<trkpt lat="64.325386047" lon="-20.129281998">
<ele>224.355469</ele>
<time>2012-07-20T11:39:59Z</time>
<extensions>
<speed>0.0</speed>
<temp>0.00</temp>
<bpm>0</bpm>
<rpm>0.00</rpm>
</extensions>
</trkpt>
<trkpt lat="64.325386047" lon="-20.129280090">
<ele>224.339844</ele>
<time>2012-07-20T11:40:04Z</time>
<extensions>
<speed>0.0</speed>
<temp>0.00</temp>
<bpm>0</bpm>
<rpm>0.00</rpm>
</extensions>
</trkpt>
<trkpt lat="64.325386047" lon="-20.129280090">
<ele>224.316406</ele>
<time>2012-07-20T11:40:09Z</time>
<speed>0.010000</speed>
<extensions>
<speed>0.0</speed>
<temp>0.00</temp>
<bpm>0</bpm>
<rpm>0.00</rpm>
</extensions>
</trkpt>
<trkpt lat="64.325386047" lon="-20.129280090">
<ele>224.300781</ele>
<time>2012-07-20T11:40:14Z</time>
<extensions>
<speed>0.0</speed>
<temp>0.00</temp>
<bpm>0</bpm>
<rpm>0.00</rpm>
</extensions>
</trkpt>
<trkpt lat="64.325386047" lon="-20.129280090">
<ele>224.289063</ele>
<time>2012-07-20T11:40:19Z</time>
<speed>0.010000</speed>
<extensions>
<speed>0.0</speed>
<temp>0.00</temp>
<bpm>0</bpm>
<rpm>0.00</rpm>
</extensions>
</trkpt>
<trkpt lat="64.325386047" lon="-20.129280090">
<ele>224.273438</ele>
<time>2012-07-20T11:40:24Z</time>
<speed>0.010000</speed>
<extensions>
<speed>0.0</speed>
<temp>0.00</temp>
<bpm>0</bpm>
<rpm>0.00</rpm>
</extensions>
</trkpt>
<trkpt lat="64.325386047" lon="-20.129280090">
<ele>224.261719</ele>
<time>2012-07-20T11:40:29Z</time>
<extensions>
<speed>0.0</speed>
<temp>0.00</temp>
<bpm>0</bpm>
<rpm>0.00</rpm>
</extensions>
</trkpt>
<trkpt lat="64.325386047" lon="-20.129280090">
<ele>224.246094</ele>
<time>2012-07-20T11:40:34Z</time>
<extensions>
<speed>0.0</speed>
<temp>0.00</temp>
<bpm>0</bpm>
<rpm>0.00</rpm>
</extensions>
</trkpt>
<trkpt lat="64.325386047" lon="-20.129280090">
<ele>224.242188</ele>
<time>2012-07-20T11:40:39Z</time>
<extensions>
<speed>0.0</speed>
<temp>0.00</temp>
<bpm>0</bpm>
<rpm>0.00</rpm>
</extensions>
</trkpt>
<trkpt lat="64.325386047" lon="-20.129280090">
<ele>224.230469</ele>
<time>2012-07-20T11:40:44Z</time>
<extensions>
<speed>0.0</speed>
<temp>0.00</temp>
<bpm>0</bpm>
<rpm>0.00</rpm>
</extensions>
</trkpt>
<trkpt lat="64.325386047" lon="-20.129280090">
<ele>224.218750</ele>
<time>2012-07-20T11:40:49Z</time>
<extensions>
<speed>0.0</speed>
<temp>0.00</temp>
<bpm>0</bpm>
<rpm>0.00</rpm>
</extensions>
</trkpt>
<trkpt lat="64.325386047" lon="-20.129280090">
<ele>224.207031</ele>
<time>2012-07-20T11:40:54Z</time>
<extensions>
<speed>0.0</speed>
<temp>0.00</temp>
<bpm>0</bpm>
<rpm>0.00</rpm>
</extensions>
</trkpt>
<trkpt lat="64.325386047" lon="-20.129278183">
<ele>224.191406</ele>
<time>2012-07-20T11:40:59Z</time>
<speed>0.010000</speed>
<extensions>
<speed>0.0</speed>
<temp>0.00</temp>
<bpm>0</bpm>
<rpm>0.00</rpm>
</extensions>
</trkpt>
<trkpt lat="64.325386047" lon="-20.129278183">
<ele>224.179688</ele>
<time>2012-07-20T11:41:04Z</time>
<extensions>
<speed>0.0</speed>
<temp>0.00</temp>
<bpm>0</bpm>
<rpm>0.00</rpm>
</extensions>
</trkpt>
<trkpt lat="64.325386047" lon="-20.129278183">
<ele>224.167969</ele>
<time>2012-07-20T11:41:09Z</time>
<extensions>
<speed>0.0</speed>
<temp>0.00</temp>
<bpm>0</bpm>
<rpm>0.00</rpm>
</extensions>
</trkpt>
<trkpt lat="64.325386047" lon="-20.129278183">
<ele>224.152344</ele>
<time>2012-07-20T11:41:14Z</time>
<extensions>
<speed>0.0</speed>
<temp>0.00</temp>
<bpm>0</bpm>
<rpm>0.00</rpm>
</extensions>
</trkpt>
<trkpt lat="64.325386047" lon="-20.129278183">
<ele>224.140625</ele>
<time>2012-07-20T11:41:19Z</time>
<extensions>
<speed>0.0</speed>
<temp>0.00</temp>
<bpm>0</bpm>
<rpm>0.00</rpm>
</extensions>
</trkpt>
<trkpt lat="64.325386047" lon="-20.129278183">
<ele>224.125000</ele>
<time>2012-07-20T11:41:24Z</time>
<extensions>
<speed>0.0</speed>
<temp>0.00</temp>
<bpm>0</bpm>
<rpm>0.00</rpm>
</extensions>
</trkpt>
<trkpt lat="64.325386047" lon="-20.129278183">
<ele>224.117188</ele>
<time>2012-07-20T11:41:29Z</time>
<extensions>
<speed>0.0</speed>
<temp>0.00</temp>
<bpm>0</bpm>
<rpm>0.00</rpm>
</extensions>
</trkpt>
<trkpt lat="64.325386047" lon="-20.129278183">
<ele>224.101563</ele>
<time>2012-07-20T11:41:34Z</time>
<speed>0.010000</speed>
<extensions>
<speed>0.0</speed>
<temp>0.00</temp>
<bpm>0</bpm>
<rpm>0.00</rpm>
</extensions>
</trkpt>
<trkpt lat="64.325386047" lon="-20.129278183">
<ele>224.089844</ele>
<time>2012-07-20T11:41:39Z</time>
<extensions>
<speed>0.0</speed>
<temp>0.00</temp>
<bpm>0</bpm>
<rpm>0.00</rpm>
</extensions>
</trkpt>
<trkpt lat="64.325386047" lon="-20.129278183">
<ele>224.078125</ele>
<time>2012-07-20T11:41:44Z</time>
<extensions>
<speed>0.0</speed>
<temp>0.00</temp>
<bpm>0</bpm>
<rpm>0.00</rpm>
</extensions>
</trkpt>
<trkpt lat="64.325386047" lon="-20.129278183">
<ele>224.074219</ele>
<time>2012-07-20T11:41:49Z</time>
<extensions>
<speed>0.0</speed>
<temp>0.00</temp>
<bpm>0</bpm>
<rpm>0.00</rpm>
</extensions>
</trkpt>
<trkpt lat="64.325386047" lon="-20.129278183">
<ele>224.062500</ele>
<time>2012-07-20T11:41:54Z</time>
<extensions>
<speed>0.0</speed>
<temp>0.00</temp>
<bpm>0</bpm>
<rpm>0.00</rpm>
</extensions>
</trkpt>
<trkpt lat="64.325386047" lon="-20.129278183">
<ele>224.046875</ele>
<time>2012-07-20T11:41:59Z</time>
<extensions>
<speed>0.0</speed>
<temp>0.00</temp>
<bpm>0</bpm>
<rpm>0.00</rpm>
</extensions>
</trkpt>
<trkpt lat="64.325386047" lon="-20.129278183">
<ele>224.035156</ele>
<time>2012-07-20T11:42:04Z</time>
<extensions>
<speed>0.0</speed>
<temp>0.00</temp>
<bpm>0</bpm>
<rpm>0.00</rpm>
</extensions>
</trkpt>
<trkpt lat="64.325386047" lon="-20.129278183">
<ele>224.023438</ele>
<time>2012-07-20T11:42:09Z</time>
<speed>0.010000</speed>
<extensions>
<speed>0.0</speed>
<temp>0.00</temp>
<bpm>0</bpm>
<rpm>0.00</rpm>
</extensions>
</trkpt>
<trkpt lat="64.325386047" lon="-20.129278183">
<ele>224.007813</ele>
<time>2012-07-20T11:42:14Z</time>
<speed>0.010000</speed>
<extensions>
<speed>0.0</speed>
<temp>0.00</temp>
<bpm>0</bpm>
<rpm>0.00</rpm>
</extensions>
</trkpt>
<trkpt lat="64.325386047" lon="-20.129278183">
<ele>223.992188</ele>
<time>2012-07-20T11:42:19Z</time>
<extensions>
<speed>0.0</speed>
<temp>0.00</temp>
<bpm>0</bpm>
<rpm>0.00</rpm>
</extensions>
</trkpt>
<trkpt lat="64.325386047" lon="-20.129276276">
<ele>223.980469</ele>
<time>2012-07-20T11:42:24Z</time>
<extensions>
<speed>0.0</speed>
<temp>0.00</temp>
<bpm>0</bpm>
<rpm>0.00</rpm>
</extensions>
</trkpt>
<trkpt lat="64.325386047" lon="-20.129276276">
<ele>223.960938</ele>
<time>2012-07-20T11:42:29Z</time>
<extensions>
<speed>0.0</speed>
<temp>0.00</temp>
<bpm>0</bpm>
<rpm>0.00</rpm>
</extensions>
</trkpt>
<trkpt lat="64.325386047" lon="-20.129276276">
<ele>223.945313</ele>
<time>2012-07-20T11:42:34Z</time>
<extensions>
<speed>0.0</speed>
<temp>0.00</temp>
<bpm>0</bpm>
<rpm>0.00</rpm>
</extensions>
</trkpt>
<trkpt lat="64.325386047" lon="-20.129276276">
<ele>223.929688</ele>
<time>2012-07-20T11:42:39Z</time>
<extensions>
<speed>0.0</speed>
<temp>0.00</temp>
<bpm>0</bpm>
<rpm>0.00</rpm>
</extensions>
</trkpt>
<trkpt lat="64.325386047" lon="-20.129276276">
<ele>223.914063</ele>
<time>2012-07-20T11:42:44Z</time>
<extensions>
<speed>0.0</speed>
<temp>0.00</temp>
<bpm>0</bpm>
<rpm>0.00</rpm>
</extensions>
</trkpt>
<trkpt lat="64.325386047" lon="-20.129276276">
<ele>223.902344</ele>
<time>2012-07-20T11:42:49Z</time>
<extensions>
<speed>0.0</speed>
<temp>0.00</temp>
<bpm>0</bpm>
<rpm>0.00</rpm>
</extensions>
</trkpt>
<trkpt lat="64.325386047" lon="-20.129276276">
<ele>223.890625</ele>
<time>2012-07-20T11:42:54Z</time>
<extensions>
<speed>0.0</speed>
<temp>0.00</temp>
<bpm>0</bpm>
<rpm>0.00</rpm>
</extensions>
</trkpt>
<trkpt lat="64.325386047" lon="-20.129276276">
<ele>223.878906</ele>
<time>2012-07-20T11:42:59Z</time>
<extensions>
<speed>0.0</speed>
<temp>0.00</temp>
<bpm>0</bpm>
<rpm>0.00</rpm>
</extensions>
</trkpt>
<trkpt lat="64.325386047" lon="-20.129276276">
<ele>223.867188</ele>
<time>2012-07-20T11:43:04Z</time>
<extensions>
<speed>0.0</speed>
<temp>0.00</temp>
<bpm>0</bpm>
<rpm>0.00</rpm>
</extensions>
</trkpt>
<trkpt lat="64.325386047" lon="-20.129276276">
<ele>223.855469</ele>
<time>2012-07-20T11:43:09Z</time>
<extensions>
<speed>0.0</speed>
<temp>0.00</temp>
<bpm>0</bpm>
<rpm>0.00</rpm>
</extensions>
</trkpt>
<trkpt lat="64.325386047" lon="-20.129276276">
<ele>223.847656</ele>
<time>2012-07-20T11:43:14Z</time>
<speed>0.010000</speed>
<extensions>
<speed>0.0</speed>
<temp>0.00</temp>
<bpm>0</bpm>
<rpm>0.00</rpm>
</extensions>
</trkpt>
<trkpt lat="64.325386047" lon="-20.129274368">
<ele>223.835938</ele>
<time>2012-07-20T11:43:19Z</time>
<extensions>
<speed>0.0</speed>
<temp>0.00</temp>
<bpm>0</bpm>
<rpm>0.00</rpm>
</extensions>
</trkpt>
<trkpt lat="64.325386047" lon="-20.129274368">
<ele>223.828125</ele>
<time>2012-07-20T11:43:24Z</time>
<speed>0.010000</speed>
<extensions>
<speed>0.0</speed>
<temp>0.00</temp>
<bpm>0</bpm>
<rpm>0.00</rpm>
</extensions>
</trkpt>
<trkpt lat="64.325386047" lon="-20.129274368">
<ele>223.816406</ele>
<time>2012-07-20T11:43:29Z</time>
<extensions>
<speed>0.0</speed>
<temp>0.00</temp>
<bpm>0</bpm>
<rpm>0.00</rpm>
</extensions>
</trkpt>
<trkpt lat="64.325386047" lon="-20.129274368">
<ele>223.804688</ele>
<time>2012-07-20T11:43:34Z</time>
<speed>0.010000</speed>
<extensions>
<speed>0.0</speed>
<temp>0.00</temp>
<bpm>0</bpm>
<rpm>0.00</rpm>
</extensions>
</trkpt>
<trkpt lat="64.325386047" lon="-20.129274368">
<ele>223.792969</ele>
<time>2012-07-20T11:43:39Z</time>
<speed>0.010000</speed>
<extensions>
<speed>0.0</speed>
<temp>0.00</temp>
<bpm>0</bpm>
<rpm>0.00</rpm>
</extensions>
</trkpt>
<trkpt lat="64.325386047" lon="-20.129272461">
<ele>223.777344</ele>
<time>2012-07-20T11:43:44Z</time>
<extensions>
<speed>0.0</speed>
<temp>0.00</temp>
<bpm>0</bpm>
<rpm>0.00</rpm>
</extensions>
</trkpt>
<trkpt lat="64.325386047" lon="-20.129272461">
<ele>223.765625</ele>
<time>2012-07-20T11:43:49Z</time>
<extensions>
<speed>0.0</speed>
<temp>0.00</temp>
<bpm>0</bpm>
<rpm>0.00</rpm>
</extensions>
</trkpt>
<trkpt lat="64.325386047" lon="-20.129272461">
<ele>223.753906</ele>
<time>2012-07-20T11:43:54Z</time>
<extensions>
<speed>0.0</speed>
<temp>0.00</temp>
<bpm>0</bpm>
<rpm>0.00</rpm>
</extensions>
</trkpt>
<trkpt lat="64.325386047" lon="-20.129272461">
<ele>223.742188</ele>
<time>2012-07-20T11:43:59Z</time>
<extensions>
<speed>0.0</speed>
<temp>0.00</temp>
<bpm>0</bpm>
<rpm>0.00</rpm>
</extensions>
</trkpt>
<trkpt lat="64.325386047" lon="-20.129272461">
<ele>223.730469</ele>
<time>2012-07-20T11:44:04Z</time>
<extensions>
<speed>0.0</speed>
<temp>0.00</temp>
<bpm>0</bpm>
<rpm>0.00</rpm>
</extensions>
</trkpt>
<trkpt lat="64.325386047" lon="-20.129270554">
<ele>223.718750</ele>
<time>2012-07-20T11:44:09Z</time>
<extensions>
<speed>0.0</speed>
<temp>0.00</temp>
<bpm>0</bpm>
<rpm>0.00</rpm>
</extensions>
</trkpt>
<trkpt lat="64.325386047" lon="-20.129270554">
<ele>223.703125</ele>
<time>2012-07-20T11:44:14Z</time>
<extensions>
<speed>0.0</speed>
<temp>0.00</temp>
<bpm>0</bpm>
<rpm>0.00</rpm>
</extensions>
</trkpt>
<trkpt lat="64.325386047" lon="-20.129270554">
<ele>223.691406</ele>
<time>2012-07-20T11:44:19Z</time>
<extensions>
<speed>0.0</speed>
<temp>0.00</temp>
<bpm>0</bpm>
<rpm>0.00</rpm>
</extensions>
</trkpt>
<trkpt lat="64.325386047" lon="-20.129270554">
<ele>223.675781</ele>
<time>2012-07-20T11:44:24Z</time>
<extensions>
<speed>0.0</speed>
<temp>0.00</temp>
<bpm>0</bpm>
<rpm>0.00</rpm>
</extensions>
</trkpt>
<trkpt lat="64.325386047" lon="-20.129270554">
<ele>223.664063</ele>
<time>2012-07-20T11:44:29Z</time>
<extensions>
<speed>0.0</speed>
<temp>0.00</temp>
<bpm>0</bpm>
<rpm>0.00</rpm>
</extensions>
</trkpt>
<trkpt lat="64.325386047" lon="-20.129270554">
<ele>223.648438</ele>
<time>2012-07-20T11:44:34Z</time>
<speed>0.010000</speed>
<extensions>
<speed>0.0</speed>
<temp>0.00</temp>
<bpm>0</bpm>
<rpm>0.00</rpm>
</extensions>
</trkpt>
<trkpt lat="64.325386047" lon="-20.129270554">
<ele>223.632813</ele>
<time>2012-07-20T11:44:39Z</time>
<extensions>
<speed>0.0</speed>
<temp>0.00</temp>
<bpm>0</bpm>
<rpm>0.00</rpm>
</extensions>
</trkpt>
<trkpt lat="64.325386047" lon="-20.129270554">
<ele>223.609375</ele>
<time>2012-07-20T11:44:44Z</time>
<extensions>
<speed>0.0</speed>
<temp>0.00</temp>
<bpm>0</bpm>
<rpm>0.00</rpm>
</extensions>
</trkpt>
<trkpt lat="64.325386047" lon="-20.129270554">
<ele>223.589844</ele>
<time>2012-07-20T11:44:49Z</time>
<extensions>
<speed>0.0</speed>
<temp>0.00</temp>
<bpm>0</bpm>
<rpm>0.00</rpm>
</extensions>
</trkpt>
<trkpt lat="64.325386047" lon="-20.129270554">
<ele>223.570313</ele>
<time>2012-07-20T11:44:54Z</time>
<speed>0.010000</speed>
<extensions>
<speed>0.0</speed>
<temp>0.00</temp>
<bpm>0</bpm>
<rpm>0.00</rpm>
</extensions>
</trkpt>
<trkpt lat="64.325386047" lon="-20.129270554">
<ele>223.554688</ele>
<time>2012-07-20T11:44:59Z</time>
<speed>0.010000</speed>
<extensions>
<speed>0.0</speed>
<temp>0.00</temp>
<bpm>0</bpm>
<rpm>0.00</rpm>
</extensions>
</trkpt>
<trkpt lat="64.325386047" lon="-20.129268646">
<ele>223.539063</ele>
<time>2012-07-20T11:45:04Z</time>
<extensions>
<speed>0.0</speed>
<temp>0.00</temp>
<bpm>0</bpm>
<rpm>0.00</rpm>
</extensions>
</trkpt>
<trkpt lat="64.325386047" lon="-20.129268646">
<ele>223.523438</ele>
<time>2012-07-20T11:45:09Z</time>
<extensions>
<speed>0.0</speed>
<temp>0.00</temp>
<bpm>0</bpm>
<rpm>0.00</rpm>
</extensions>
</trkpt>
<trkpt lat="64.325386047" lon="-20.129268646">
<ele>223.507813</ele>
<time>2012-07-20T11:45:14Z</time>
<speed>0.010000</speed>
<extensions>
<speed>0.0</speed>
<temp>0.00</temp>
<bpm>0</bpm>
<rpm>0.00</rpm>
</extensions>
</trkpt>
<trkpt lat="64.325386047" lon="-20.129268646">
<ele>223.492188</ele>
<time>2012-07-20T11:45:19Z</time>
<extensions>
<speed>0.0</speed>
<temp>0.00</temp>
<bpm>0</bpm>
<rpm>0.00</rpm>
</extensions>
</trkpt>
<trkpt lat="64.325386047" lon="-20.129268646">
<ele>223.476563</ele>
<time>2012-07-20T11:45:24Z</time>
<extensions>
<speed>0.0</speed>
<temp>0.00</temp>
<bpm>0</bpm>
<rpm>0.00</rpm>
</extensions>
</trkpt>
<trkpt lat="64.325386047" lon="-20.129268646">
<ele>223.464844</ele>
<time>2012-07-20T11:45:29Z</time>
<extensions>
<speed>0.0</speed>
<temp>0.00</temp>
<bpm>0</bpm>
<rpm>0.00</rpm>
</extensions>
</trkpt>
<trkpt lat="64.325386047" lon="-20.129268646">
<ele>223.449219</ele>
<time>2012-07-20T11:45:34Z</time>
<speed>0.010000</speed>
<extensions>
<speed>0.0</speed>
<temp>0.00</temp>
<bpm>0</bpm>
<rpm>0.00</rpm>
</extensions>
</trkpt>
<trkpt lat="64.325386047" lon="-20.129268646">
<ele>223.437500</ele>
<time>2012-07-20T11:45:39Z</time>
<speed>0.010000</speed>
<extensions>
<speed>0.0</speed>
<temp>0.00</temp>
<bpm>0</bpm>
<rpm>0.00</rpm>
</extensions>
</trkpt>
<trkpt lat="64.325386047" lon="-20.129268646">
<ele>223.429688</ele>
<time>2012-07-20T11:45:44Z</time>
<extensions>
<speed>0.0</speed>
<temp>0.00</temp>
<bpm>0</bpm>
<rpm>0.00</rpm>
</extensions>
</trkpt>
<trkpt lat="64.325386047" lon="-20.129268646">
<ele>223.421875</ele>
<time>2012-07-20T11:45:49Z</time>
<extensions>
<speed>0.0</speed>
<temp>0.00</temp>
<bpm>0</bpm>
<rpm>0.00</rpm>
</extensions>
</trkpt>
<trkpt lat="64.325386047" lon="-20.129268646">
<ele>223.414063</ele>
<time>2012-07-20T11:45:54Z</time>
<extensions>
<speed>0.0</speed>
<temp>0.00</temp>
<bpm>0</bpm>
<rpm>0.00</rpm>
</extensions>
</trkpt>
<trkpt lat="64.325386047" lon="-20.129268646">
<ele>223.402344</ele>
<time>2012-07-20T11:45:59Z</time>
<speed>0.010000</speed>
<extensions>
<speed>0.0</speed>
<temp>0.00</temp>
<bpm>0</bpm>
<rpm>0.00</rpm>
</extensions>
</trkpt>
<trkpt lat="64.325386047" lon="-20.129268646">
<ele>223.398438</ele>
<time>2012-07-20T11:46:04Z</time>
<extensions>
<speed>0.0</speed>
<temp>0.00</temp>
<bpm>0</bpm>
<rpm>0.00</rpm>
</extensions>
</trkpt>
<trkpt lat="64.325386047" lon="-20.129268646">
<ele>223.394531</ele>
<time>2012-07-20T11:46:09Z</time>
<extensions>
<speed>0.0</speed>
<temp>0.00</temp>
<bpm>0</bpm>
<rpm>0.00</rpm>
</extensions>
</trkpt>
<trkpt lat="64.325386047" lon="-20.129268646">
<ele>223.386719</ele>
<time>2012-07-20T11:46:14Z</time>
<extensions>
<speed>0.0</speed>
<temp>0.00</temp>
<bpm>0</bpm>
<rpm>0.00</rpm>
</extensions>
</trkpt>
<trkpt lat="64.325386047" lon="-20.129268646">
<ele>223.382813</ele>
<time>2012-07-20T11:46:19Z</time>
<extensions>
<speed>0.0</speed>
<temp>0.00</temp>
<bpm>0</bpm>
<rpm>0.00</rpm>
</extensions>
</trkpt>
<trkpt lat="64.325386047" lon="-20.129268646">
<ele>223.375000</ele>
<time>2012-07-20T11:46:24Z</time>
<speed>0.010000</speed>
<extensions>
<speed>0.0</speed>
<temp>0.00</temp>
<bpm>0</bpm>
<rpm>0.00</rpm>
</extensions>
</trkpt>
<trkpt lat="64.325386047" lon="-20.129268646">
<ele>223.363281</ele>
<time>2012-07-20T11:46:29Z</time>
<extensions>
<speed>0.0</speed>
<temp>0.00</temp>
<bpm>0</bpm>
<rpm>0.00</rpm>
</extensions>
</trkpt>
<trkpt lat="64.325386047" lon="-20.129268646">
<ele>223.363281</ele>
<time>2012-07-20T11:46:34Z</time>
<extensions>
<speed>0.0</speed>
<temp>0.00</temp>
<bpm>0</bpm>
<rpm>0.00</rpm>
</extensions>
</trkpt>
<trkpt lat="64.325386047" lon="-20.129268646">
<ele>223.363281</ele>
<time>2012-07-20T11:46:39Z</time>
<speed>0.010000</speed>
<extensions>
<speed>0.0</speed>
<temp>0.00</temp>
<bpm>0</bpm>
<rpm>0.00</rpm>
</extensions>
</trkpt>
<trkpt lat="64.325386047" lon="-20.129268646">
<ele>223.359375</ele>
<time>2012-07-20T11:46:44Z</time>
<extensions>
<speed>0.0</speed>
<temp>0.00</temp>
<bpm>0</bpm>
<rpm>0.00</rpm>
</extensions>
</trkpt>
<trkpt lat="64.325386047" lon="-20.129268646">
<ele>223.363281</ele>
<time>2012-07-20T11:46:49Z</time>
<extensions>
<speed>0.0</speed>
<temp>0.00</temp>
<bpm>0</bpm>
<rpm>0.00</rpm>
</extensions>
</trkpt>
<trkpt lat="64.325386047" lon="-20.129268646">
<ele>223.359375</ele>
<time>2012-07-20T11:46:54Z</time>
<speed>0.010000</speed>
<extensions>
<speed>0.0</speed>
<temp>0.00</temp>
<bpm>0</bpm>
<rpm>0.00</rpm>
</extensions>
</trkpt>
<trkpt lat="64.325386047" lon="-20.129268646">
<ele>223.363281</ele>
<time>2012-07-20T11:46:59Z</time>
<speed>0.010000</speed>
<extensions>
<speed>0.0</speed>
<temp>0.00</temp>
<bpm>0</bpm>
<rpm>0.00</rpm>
</extensions>
</trkpt>
<trkpt lat="64.325386047" lon="-20.129270554">
<ele>223.367188</ele>
<time>2012-07-20T11:47:04Z</time>
<extensions>
<speed>0.0</speed>
<temp>0.00</temp>
<bpm>0</bpm>
<rpm>0.00</rpm>
</extensions>
</trkpt>
<trkpt lat="64.325386047" lon="-20.129270554">
<ele>223.371094</ele>
<time>2012-07-20T11:47:09Z</time>
<extensions>
<speed>0.0</speed>
<temp>0.00</temp>
<bpm>0</bpm>
<rpm>0.00</rpm>
</extensions>
</trkpt>
<trkpt lat="64.325386047" lon="-20.129270554">
<ele>223.378906</ele>
<time>2012-07-20T11:47:14Z</time>
<speed>0.010000</speed>
<extensions>
<speed>0.0</speed>
<temp>0.00</temp>
<bpm>0</bpm>
<rpm>0.00</rpm>
</extensions>
</trkpt>
<trkpt lat="64.325386047" lon="-20.129270554">
<ele>223.390625</ele>
<time>2012-07-20T11:47:19Z</time>
<speed>0.010000</speed>
<extensions>
<speed>0.0</speed>
<temp>0.00</temp>
<bpm>0</bpm>
<rpm>0.00</rpm>
</extensions>
</trkpt>
<trkpt lat="64.325386047" lon="-20.129270554">
<ele>223.402344</ele>
<time>2012-07-20T11:47:24Z</time>
<speed>0.010000</speed>
<extensions>
<speed>0.0</speed>
<temp>0.00</temp>
<bpm>0</bpm>
<rpm>0.00</rpm>
</extensions>
</trkpt>
<trkpt lat="64.325386047" lon="-20.129270554">
<ele>223.410156</ele>
<time>2012-07-20T11:47:29Z</time>
<extensions>
<speed>0.0</speed>
<temp>0.00</temp>
<bpm>0</bpm>
<rpm>0.00</rpm>
</extensions>
</trkpt>
<trkpt lat="64.325386047" lon="-20.129270554">
<ele>223.410156</ele>
<time>2012-07-20T11:47:34Z</time>
<speed>0.010000</speed>
<extensions>
<speed>0.0</speed>
<temp>0.00</temp>
<bpm>0</bpm>
<rpm>0.00</rpm>
</extensions>
</trkpt>
<trkpt lat="64.325386047" lon="-20.129270554">
<ele>223.417969</ele>
<time>2012-07-20T11:47:39Z</time>
<extensions>
<speed>0.0</speed>
<temp>0.00</temp>
<bpm>0</bpm>
<rpm>0.00</rpm>
</extensions>
</trkpt>
<trkpt lat="64.325386047" lon="-20.129270554">
<ele>223.406250</ele>
<time>2012-07-20T11:47:44Z</time>
<speed>0.010000</speed>
<extensions>
<speed>0.0</speed>
<temp>0.00</temp>
<bpm>0</bpm>
<rpm>0.00</rpm>
</extensions>
</trkpt>
<trkpt lat="64.325386047" lon="-20.129270554">
<ele>223.398438</ele>
<time>2012-07-20T11:47:49Z</time>
<extensions>
<speed>0.0</speed>
<temp>0.00</temp>
<bpm>0</bpm>
<rpm>0.00</rpm>
</extensions>
</trkpt>
<trkpt lat="64.325386047" lon="-20.129270554">
<ele>223.390625</ele>
<time>2012-07-20T11:47:54Z</time>
<speed>0.020000</speed>
<extensions>
<speed>0.0</speed>
<temp>0.00</temp>
<bpm>0</bpm>
<rpm>0.00</rpm>
</extensions>
</trkpt>
<trkpt lat="64.325386047" lon="-20.129268646">
<ele>223.371094</ele>
<time>2012-07-20T11:47:59Z</time>
<speed>0.010000</speed>
<extensions>
<speed>0.0</speed>
<temp>0.00</temp>
<bpm>0</bpm>
<rpm>0.00</rpm>
</extensions>
</trkpt>
<trkpt lat="64.325386047" lon="-20.129268646">
<ele>223.347656</ele>
<time>2012-07-20T11:48:04Z</time>
<speed>0.020000</speed>
<extensions>
<speed>0.0</speed>
<temp>0.00</temp>
<bpm>0</bpm>
<rpm>0.00</rpm>
</extensions>
</trkpt>
<trkpt lat="64.325386047" lon="-20.129268646">
<ele>223.335938</ele>
<time>2012-07-20T11:48:09Z</time>
<speed>0.010000</speed>
<extensions>
<speed>0.0</speed>
<temp>0.00</temp>
<bpm>0</bpm>
<rpm>0.00</rpm>
</extensions>
</trkpt>
<trkpt lat="64.325386047" lon="-20.129268646">
<ele>223.328125</ele>
<time>2012-07-20T11:48:14Z</time>
<speed>0.010000</speed>
<extensions>
<speed>0.0</speed>
<temp>0.00</temp>
<bpm>0</bpm>
<rpm>0.00</rpm>
</extensions>
</trkpt>
<trkpt lat="64.325386047" lon="-20.129270554">
<ele>223.316406</ele>
<time>2012-07-20T11:48:19Z</time>
<extensions>
<speed>0.0</speed>
<temp>0.00</temp>
<bpm>0</bpm>
<rpm>0.00</rpm>
</extensions>
</trkpt>
<trkpt lat="64.325386047" lon="-20.129270554">
<ele>223.324219</ele>
<time>2012-07-20T11:48:24Z</time>
<speed>0.020000</speed>
<extensions>
<speed>0.0</speed>
<temp>0.00</temp>
<bpm>0</bpm>
<rpm>0.00</rpm>
</extensions>
</trkpt>
<trkpt lat="64.325386047" lon="-20.129270554">
<ele>223.312500</ele>
<time>2012-07-20T11:48:29Z</time>
<extensions>
<speed>0.0</speed>
<temp>0.00</temp>
<bpm>0</bpm>
<rpm>0.00</rpm>
</extensions>
</trkpt>
<trkpt lat="64.325386047" lon="-20.129268646">
<ele>223.296875</ele>
<time>2012-07-20T11:48:34Z</time>
<speed>0.030000</speed>
<extensions>
<speed>0.0</speed>
<temp>0.00</temp>
<bpm>0</bpm>
<rpm>0.00</rpm>
</extensions>
</trkpt>
<trkpt lat="64.325386047" lon="-20.129268646">
<ele>223.285156</ele>
<time>2012-07-20T11:48:39Z</time>
<extensions>
<speed>0.0</speed>
<temp>0.00</temp>
<bpm>0</bpm>
<rpm>0.00</rpm>
</extensions>
</trkpt>
<trkpt lat="64.325386047" lon="-20.129268646">
<ele>223.285156</ele>
<time>2012-07-20T11:48:44Z</time>
<speed>0.010000</speed>
<extensions>
<speed>0.0</speed>
<temp>0.00</temp>
<bpm>0</bpm>
<rpm>0.00</rpm>
</extensions>
</trkpt>
<trkpt lat="64.325386047" lon="-20.129268646">
<ele>223.289063</ele>
<time>2012-07-20T11:48:49Z</time>
<speed>0.010000</speed>
<extensions>
<speed>0.0</speed>
<temp>0.00</temp>
<bpm>0</bpm>
<rpm>0.00</rpm>
</extensions>
</trkpt>
<trkpt lat="64.325386047" lon="-20.129268646">
<ele>223.312500</ele>
<time>2012-07-20T11:48:54Z</time>
<extensions>
<speed>0.0</speed>
<temp>0.00</temp>
<bpm>0</bpm>
<rpm>0.00</rpm>
</extensions>
</trkpt>
<trkpt lat="64.325386047" lon="-20.129266739">
<ele>223.316406</ele>
<time>2012-07-20T11:48:59Z</time>
<speed>0.010000</speed>
<extensions>
<speed>0.0</speed>
<temp>0.00</temp>
<bpm>0</bpm>
<rpm>0.00</rpm>
</extensions>
</trkpt>
<trkpt lat="64.325386047" lon="-20.129266739">
<ele>223.324219</ele>
<time>2012-07-20T11:49:04Z</time>
<speed>0.020000</speed>
<extensions>
<speed>0.0</speed>
<temp>0.00</temp>
<bpm>0</bpm>
<rpm>0.00</rpm>
</extensions>
</trkpt>
<trkpt lat="64.325386047" lon="-20.129266739">
<ele>223.324219</ele>
<time>2012-07-20T11:49:09Z</time>
<speed>0.010000</speed>
<extensions>
<speed>0.0</speed>
<temp>0.00</temp>
<bpm>0</bpm>
<rpm>0.00</rpm>
</extensions>
</trkpt>
<trkpt lat="64.325386047" lon="-20.129266739">
<ele>223.335938</ele>
<time>2012-07-20T11:49:14Z</time>
<extensions>
<speed>0.0</speed>
<temp>0.00</temp>
<bpm>0</bpm>
<rpm>0.00</rpm>
</extensions>
</trkpt>
<trkpt lat="64.325386047" lon="-20.129266739">
<ele>223.328125</ele>
<time>2012-07-20T11:49:19Z</time>
<extensions>
<speed>0.0</speed>
<temp>0.00</temp>
<bpm>0</bpm>
<rpm>0.00</rpm>
</extensions>
</trkpt>
<trkpt lat="64.325386047" lon="-20.129266739">
<ele>223.320313</ele>
<time>2012-07-20T11:49:24Z</time>
<speed>0.010000</speed>
<extensions>
<speed>0.0</speed>
<temp>0.00</temp>
<bpm>0</bpm>
<rpm>0.00</rpm>
</extensions>
</trkpt>
<trkpt lat="64.325386047" lon="-20.129266739">
<ele>223.312500</ele>
<time>2012-07-20T11:49:29Z</time>
<extensions>
<speed>0.0</speed>
<temp>0.00</temp>
<bpm>0</bpm>
<rpm>0.00</rpm>
</extensions>
</trkpt>
<trkpt lat="64.325386047" lon="-20.129266739">
<ele>223.324219</ele>
<time>2012-07-20T11:49:34Z</time>
<extensions>
<speed>0.0</speed>
<temp>0.00</temp>
<bpm>0</bpm>
<rpm>0.00</rpm>
</extensions>
</trkpt>
<trkpt lat="64.325386047" lon="-20.129266739">
<ele>223.328125</ele>
<time>2012-07-20T11:49:39Z</time>
<speed>0.010000</speed>
<extensions>
<speed>0.0</speed>
<temp>0.00</temp>
<bpm>0</bpm>
<rpm>0.00</rpm>
</extensions>
</trkpt>
<trkpt lat="64.325386047" lon="-20.129266739">
<ele>223.308594</ele>
<time>2012-07-20T11:49:44Z</time>
<speed>0.030000</speed>
<extensions>
<speed>0.0</speed>
<temp>0.00</temp>
<bpm>0</bpm>
<rpm>0.00</rpm>
</extensions>
</trkpt>
<trkpt lat="64.325386047" lon="-20.129268646">
<ele>223.304688</ele>
<time>2012-07-20T11:49:49Z</time>
<speed>0.030000</speed>
<extensions>
<speed>0.0</speed>
<temp>0.00</temp>
<bpm>0</bpm>
<rpm>0.00</rpm>
</extensions>
</trkpt>
<trkpt lat="64.325386047" lon="-20.129268646">
<ele>223.312500</ele>
<time>2012-07-20T11:49:54Z</time>
<speed>0.020000</speed>
<extensions>
<speed>0.0</speed>
<temp>0.00</temp>
<bpm>0</bpm>
<rpm>0.00</rpm>
</extensions>
</trkpt>
<trkpt lat="64.325386047" lon="-20.129268646">
<ele>223.316406</ele>
<time>2012-07-20T11:49:59Z</time>
<speed>0.030000</speed>
<extensions>
<speed>0.0</speed>
<temp>0.00</temp>
<bpm>0</bpm>
<rpm>0.00</rpm>
</extensions>
</trkpt>
<trkpt lat="64.325386047" lon="-20.129268646">
<ele>223.339844</ele>
<time>2012-07-20T11:50:04Z</time>
<extensions>
<speed>0.0</speed>
<temp>0.00</temp>
<bpm>0</bpm>
<rpm>0.00</rpm>
</extensions>
</trkpt>
<trkpt lat="64.325386047" lon="-20.129268646">
<ele>223.351563</ele>
<time>2012-07-20T11:50:09Z</time>
<extensions>
<speed>0.0</speed>
<temp>0.00</temp>
<bpm>0</bpm>
<rpm>0.00</rpm>
</extensions>
</trkpt>
<trkpt lat="64.325386047" lon="-20.129268646">
<ele>223.375000</ele>
<time>2012-07-20T11:50:14Z</time>
<extensions>
<speed>0.0</speed>
<temp>0.00</temp>
<bpm>0</bpm>
<rpm>0.00</rpm>
</extensions>
</trkpt>
<trkpt lat="64.325386047" lon="-20.129270554">
<ele>223.390625</ele>
<time>2012-07-20T11:50:19Z</time>
<speed>0.010000</speed>
<extensions>
<speed>0.0</speed>
<temp>0.00</temp>
<bpm>0</bpm>
<rpm>0.00</rpm>
</extensions>
</trkpt>
<trkpt lat="64.325386047" lon="-20.129270554">
<ele>223.382813</ele>
<time>2012-07-20T11:50:24Z</time>
<speed>0.010000</speed>
<extensions>
<speed>0.0</speed>
<temp>0.00</temp>
<bpm>0</bpm>
<rpm>0.00</rpm>
</extensions>
</trkpt>
<trkpt lat="64.325386047" lon="-20.129270554">
<ele>223.398438</ele>
<time>2012-07-20T11:50:29Z</time>
<extensions>
<speed>0.0</speed>
<temp>0.00</temp>
<bpm>0</bpm>
<rpm>0.00</rpm>
</extensions>
</trkpt>
<trkpt lat="64.325378418" lon="-20.129270554">
<ele>223.410156</ele>
<time>2012-07-20T11:50:34Z</time>
<extensions>
<speed>0.0</speed>
<temp>0.00</temp>
<bpm>0</bpm>
<rpm>0.00</rpm>
</extensions>
</trkpt>
<trkpt lat="64.325378418" lon="-20.129270554">
<ele>223.414063</ele>
<time>2012-07-20T11:50:39Z</time>
<extensions>
<speed>0.0</speed>
<temp>0.00</temp>
<bpm>0</bpm>
<rpm>0.00</rpm>
</extensions>
</trkpt>
<trkpt lat="64.325378418" lon="-20.129270554">
<ele>223.402344</ele>
<time>2012-07-20T11:50:44Z</time>
<extensions>
<speed>0.0</speed>
<temp>0.00</temp>
<bpm>0</bpm>
<rpm>0.00</rpm>
</extensions>
</trkpt>
<trkpt lat="64.325378418" lon="-20.129272461">
<ele>223.390625</ele>
<time>2012-07-20T11:50:49Z</time>
<extensions>
<speed>0.0</speed>
<temp>0.00</temp>
<bpm>0</bpm>
<rpm>0.00</rpm>
</extensions>
</trkpt>
<trkpt lat="64.325378418" lon="-20.129272461">
<ele>223.386719</ele>
<time>2012-07-20T11:50:54Z</time>
<extensions>
<speed>0.0</speed>
<temp>0.00</temp>
<bpm>0</bpm>
<rpm>0.00</rpm>
</extensions>
</trkpt>
<trkpt lat="64.325378418" lon="-20.129272461">
<ele>223.378906</ele>
<time>2012-07-20T11:50:59Z</time>
<extensions>
<speed>0.0</speed>
<temp>0.00</temp>
<bpm>0</bpm>
<rpm>0.00</rpm>
</extensions>
</trkpt>
<trkpt lat="64.325378418" lon="-20.129272461">
<ele>223.367188</ele>
<time>2012-07-20T11:51:04Z</time>
<extensions>
<speed>0.0</speed>
<temp>0.00</temp>
<bpm>0</bpm>
<rpm>0.00</rpm>
</extensions>
</trkpt>
<trkpt lat="64.325378418" lon="-20.129272461">
<ele>223.355469</ele>
<time>2012-07-20T11:51:09Z</time>
<extensions>
<speed>0.0</speed>
<temp>0.00</temp>
<bpm>0</bpm>
<rpm>0.00</rpm>
</extensions>
</trkpt>
<trkpt lat="64.325378418" lon="-20.129272461">
<ele>223.363281</ele>
<time>2012-07-20T11:51:14Z</time>
<extensions>
<speed>0.0</speed>
<temp>0.00</temp>
<bpm>0</bpm>
<rpm>0.00</rpm>
</extensions>
</trkpt>
<trkpt lat="64.325378418" lon="-20.129272461">
<ele>223.378906</ele>
<time>2012-07-20T11:51:19Z</time>
<extensions>
<speed>0.0</speed>
<temp>0.00</temp>
<bpm>0</bpm>
<rpm>0.00</rpm>
</extensions>
</trkpt>
<trkpt lat="64.325378418" lon="-20.129272461">
<ele>223.386719</ele>
<time>2012-07-20T11:51:24Z</time>
<speed>0.010000</speed>
<extensions>
<speed>0.0</speed>
<temp>0.00</temp>
<bpm>0</bpm>
<rpm>0.00</rpm>
</extensions>
</trkpt>
<trkpt lat="64.325378418" lon="-20.129272461">
<ele>223.390625</ele>
<time>2012-07-20T11:51:29Z</time>
<extensions>
<speed>0.0</speed>
<temp>0.00</temp>
<bpm>0</bpm>
<rpm>0.00</rpm>
</extensions>
</trkpt>
<trkpt lat="64.325378418" lon="-20.129272461">
<ele>223.398438</ele>
<time>2012-07-20T11:51:34Z</time>
<extensions>
<speed>0.0</speed>
<temp>0.00</temp>
<bpm>0</bpm>
<rpm>0.00</rpm>
</extensions>
</trkpt>
<trkpt lat="64.325378418" lon="-20.129272461">
<ele>223.410156</ele>
<time>2012-07-20T11:51:39Z</time>
<extensions>
<speed>0.0</speed>
<temp>0.00</temp>
<bpm>0</bpm>
<rpm>0.00</rpm>
</extensions>
</trkpt>
<trkpt lat="64.325378418" lon="-20.129272461">
<ele>223.414063</ele>
<time>2012-07-20T11:51:44Z</time>
<extensions>
<speed>0.0</speed>
<temp>0.00</temp>
<bpm>0</bpm>
<rpm>0.00</rpm>
</extensions>
</trkpt>
<trkpt lat="64.325378418" lon="-20.129272461">
<ele>223.414063</ele>
<time>2012-07-20T11:51:49Z</time>
<extensions>
<speed>0.0</speed>
<temp>0.00</temp>
<bpm>0</bpm>
<rpm>0.00</rpm>
</extensions>
</trkpt>
<trkpt lat="64.325378418" lon="-20.129272461">
<ele>223.414063</ele>
<time>2012-07-20T11:51:54Z</time>
<speed>0.010000</speed>
<extensions>
<speed>0.0</speed>
<temp>0.00</temp>
<bpm>0</bpm>
<rpm>0.00</rpm>
</extensions>
</trkpt>
<trkpt lat="64.325378418" lon="-20.129272461">
<ele>223.410156</ele>
<time>2012-07-20T11:51:59Z</time>
<extensions>
<speed>0.0</speed>
<temp>0.00</temp>
<bpm>0</bpm>
<rpm>0.00</rpm>
</extensions>
</trkpt>
<trkpt lat="64.325378418" lon="-20.129272461">
<ele>223.406250</ele>
<time>2012-07-20T11:52:04Z</time>
<extensions>
<speed>0.0</speed>
<temp>0.00</temp>
<bpm>0</bpm>
<rpm>0.00</rpm>
</extensions>
</trkpt>
<trkpt lat="64.325378418" lon="-20.129272461">
<ele>223.402344</ele>
<time>2012-07-20T11:52:09Z</time>
<extensions>
<speed>0.0</speed>
<temp>0.00</temp>
<bpm>0</bpm>
<rpm>0.00</rpm>
</extensions>
</trkpt>
<trkpt lat="64.325378418" lon="-20.129272461">
<ele>223.398438</ele>
<time>2012-07-20T11:52:14Z</time>
<extensions>
<speed>0.0</speed>
<temp>0.00</temp>
<bpm>0</bpm>
<rpm>0.00</rpm>
</extensions>
</trkpt>
<trkpt lat="64.325378418" lon="-20.129272461">
<ele>223.394531</ele>
<time>2012-07-20T11:52:19Z</time>
<extensions>
<speed>0.0</speed>
<temp>0.00</temp>
<bpm>0</bpm>
<rpm>0.00</rpm>
</extensions>
</trkpt>
<trkpt lat="64.325378418" lon="-20.129274368">
<ele>223.386719</ele>
<time>2012-07-20T11:52:24Z</time>
<extensions>
<speed>0.0</speed>
<temp>0.00</temp>
<bpm>0</bpm>
<rpm>0.00</rpm>
</extensions>
</trkpt>
<trkpt lat="64.325378418" lon="-20.129274368">
<ele>223.382813</ele>
<time>2012-07-20T11:52:29Z</time>
<extensions>
<speed>0.0</speed>
<temp>0.00</temp>
<bpm>0</bpm>
<rpm>0.00</rpm>
</extensions>
</trkpt>
<trkpt lat="64.325378418" lon="-20.129274368">
<ele>223.386719</ele>
<time>2012-07-20T11:52:34Z</time>
<speed>0.010000</speed>
<extensions>
<speed>0.0</speed>
<temp>0.00</temp>
<bpm>0</bpm>
<rpm>0.00</rpm>
</extensions>
</trkpt>
<trkpt lat="64.325378418" lon="-20.129274368">
<ele>223.386719</ele>
<time>2012-07-20T11:52:39Z</time>
<speed>0.010000</speed>
<extensions>
<speed>0.0</speed>
<temp>0.00</temp>
<bpm>0</bpm>
<rpm>0.00</rpm>
</extensions>
</trkpt>
<trkpt lat="64.325378418" lon="-20.129274368">
<ele>223.382813</ele>
<time>2012-07-20T11:52:44Z</time>
<extensions>
<speed>0.0</speed>
<temp>0.00</temp>
<bpm>0</bpm>
<rpm>0.00</rpm>
</extensions>
</trkpt>
<trkpt lat="64.325378418" lon="-20.129274368">
<ele>223.371094</ele>
<time>2012-07-20T11:52:49Z</time>
<extensions>
<speed>0.0</speed>
<temp>0.00</temp>
<bpm>0</bpm>
<rpm>0.00</rpm>
</extensions>
</trkpt>
<trkpt lat="64.325378418" lon="-20.129276276">
<ele>223.367188</ele>
<time>2012-07-20T11:52:54Z</time>
<speed>0.010000</speed>
<extensions>
<speed>0.0</speed>
<temp>0.00</temp>
<bpm>0</bpm>
<rpm>0.00</rpm>
</extensions>
</trkpt>
<trkpt lat="64.325378418" lon="-20.129276276">
<ele>223.367188</ele>
<time>2012-07-20T11:52:59Z</time>
<speed>0.010000</speed>
<extensions>
<speed>0.0</speed>
<temp>0.00</temp>
<bpm>0</bpm>
<rpm>0.00</rpm>
</extensions>
</trkpt>
<trkpt lat="64.325378418" lon="-20.129276276">
<ele>223.359375</ele>
<time>2012-07-20T11:53:04Z</time>
<extensions>
<speed>0.0</speed>
<temp>0.00</temp>
<bpm>0</bpm>
<rpm>0.00</rpm>
</extensions>
</trkpt>
<trkpt lat="64.325378418" lon="-20.129276276">
<ele>223.343750</ele>
<time>2012-07-20T11:53:09Z</time>
<extensions>
<speed>0.0</speed>
<temp>0.00</temp>
<bpm>0</bpm>
<rpm>0.00</rpm>
</extensions>
</trkpt>
<trkpt lat="64.325378418" lon="-20.129276276">
<ele>223.343750</ele>
<time>2012-07-20T11:53:14Z</time>
<speed>0.010000</speed>
<extensions>
<speed>0.0</speed>
<temp>0.00</temp>
<bpm>0</bpm>
<rpm>0.00</rpm>
</extensions>
</trkpt>
<trkpt lat="64.325378418" lon="-20.129276276">
<ele>223.324219</ele>
<time>2012-07-20T11:53:19Z</time>
<speed>0.020000</speed>
<extensions>
<speed>0.0</speed>
<temp>0.00</temp>
<bpm>0</bpm>
<rpm>0.00</rpm>
</extensions>
</trkpt>
<trkpt lat="64.325378418" lon="-20.129276276">
<ele>223.296875</ele>
<time>2012-07-20T11:53:24Z</time>
<extensions>
<speed>0.0</speed>
<temp>0.00</temp>
<bpm>0</bpm>
<rpm>0.00</rpm>
</extensions>
</trkpt>
<trkpt lat="64.325378418" lon="-20.129276276">
<ele>223.273438</ele>
<time>2012-07-20T11:53:29Z</time>
<extensions>
<speed>0.0</speed>
<temp>0.00</temp>
<bpm>0</bpm>
<rpm>0.00</rpm>
</extensions>
</trkpt>
<trkpt lat="64.325378418" lon="-20.129274368">
<ele>223.246094</ele>
<time>2012-07-20T11:53:34Z</time>
<extensions>
<speed>0.0</speed>
<temp>0.00</temp>
<bpm>0</bpm>
<rpm>0.00</rpm>
</extensions>
</trkpt>
<trkpt lat="64.325386047" lon="-20.129274368">
<ele>223.226563</ele>
<time>2012-07-20T11:53:39Z</time>
<extensions>
<speed>0.0</speed>
<temp>0.00</temp>
<bpm>0</bpm>
<rpm>0.00</rpm>
</extensions>
</trkpt>
<trkpt lat="64.325378418" lon="-20.129274368">
<ele>223.210938</ele>
<time>2012-07-20T11:53:44Z</time>
<extensions>
<speed>0.0</speed>
<temp>0.00</temp>
<bpm>0</bpm>
<rpm>0.00</rpm>
</extensions>
</trkpt>
<trkpt lat="64.325378418" lon="-20.129274368">
<ele>223.214844</ele>
<time>2012-07-20T11:53:49Z</time>
<speed>0.020000</speed>
<extensions>
<speed>0.0</speed>
<temp>0.00</temp>
<bpm>0</bpm>
<rpm>0.00</rpm>
</extensions>
</trkpt>
<trkpt lat="64.325378418" lon="-20.129274368">
<ele>223.210938</ele>
<time>2012-07-20T11:53:54Z</time>
<extensions>
<speed>0.0</speed>
<temp>0.00</temp>
<bpm>0</bpm>
<rpm>0.00</rpm>
</extensions>
</trkpt>
<trkpt lat="64.325378418" lon="-20.129274368">
<ele>223.203125</ele>
<time>2012-07-20T11:53:59Z</time>
<speed>0.020000</speed>
<extensions>
<speed>0.0</speed>
<temp>0.00</temp>
<bpm>0</bpm>
<rpm>0.00</rpm>
</extensions>
</trkpt>
<trkpt lat="64.325378418" lon="-20.129274368">
<ele>223.187500</ele>
<time>2012-07-20T11:54:04Z</time>
<extensions>
<speed>0.0</speed>
<temp>0.00</temp>
<bpm>0</bpm>
<rpm>0.00</rpm>
</extensions>
</trkpt>
<trkpt lat="64.325378418" lon="-20.129274368">
<ele>223.187500</ele>
<time>2012-07-20T11:54:09Z</time>
<speed>0.010000</speed>
<extensions>
<speed>0.0</speed>
<temp>0.00</temp>
<bpm>0</bpm>
<rpm>0.00</rpm>
</extensions>
</trkpt>
<trkpt lat="64.325378418" lon="-20.129274368">
<ele>223.179688</ele>
<time>2012-07-20T11:54:14Z</time>
<extensions>
<speed>0.0</speed>
<temp>0.00</temp>
<bpm>0</bpm>
<rpm>0.00</rpm>
</extensions>
</trkpt>
<trkpt lat="64.325378418" lon="-20.129274368">
<ele>223.171875</ele>
<time>2012-07-20T11:54:19Z</time>
<extensions>
<speed>0.0</speed>
<temp>0.00</temp>
<bpm>0</bpm>
<rpm>0.00</rpm>
</extensions>
</trkpt>
<trkpt lat="64.325378418" lon="-20.129274368">
<ele>223.164063</ele>
<time>2012-07-20T11:54:24Z</time>
<speed>0.020000</speed>
<extensions>
<speed>0.0</speed>
<temp>0.00</temp>
<bpm>0</bpm>
<rpm>0.00</rpm>
</extensions>
</trkpt>
<trkpt lat="64.325378418" lon="-20.129276276">
<ele>223.160156</ele>
<time>2012-07-20T11:54:29Z</time>
<speed>0.020000</speed>
<extensions>
<speed>0.0</speed>
<temp>0.00</temp>
<bpm>0</bpm>
<rpm>0.00</rpm>
</extensions>
</trkpt>
<trkpt lat="64.325378418" lon="-20.129274368">
<ele>223.132813</ele>
<time>2012-07-20T11:54:34Z</time>
<speed>0.010000</speed>
<extensions>
<speed>0.0</speed>
<temp>0.00</temp>
<bpm>0</bpm>
<rpm>0.00</rpm>
</extensions>
</trkpt>
<trkpt lat="64.325370789" lon="-20.129264832">
<ele>221.980469</ele>
<time>2012-07-20T11:54:39Z</time>
<speed>0.040000</speed>
<extensions>
<speed>0.0</speed>
<temp>0.00</temp>
<bpm>0</bpm>
<rpm>0.00</rpm>
</extensions>
</trkpt>
<trkpt lat="64.325370789" lon="-20.129247665">
<ele>220.476563</ele>
<time>2012-07-20T11:54:44Z</time>
<speed>0.050000</speed>
<extensions>
<speed>0.1</speed>
<temp>0.00</temp>
<bpm>0</bpm>
<rpm>0.00</rpm>
</extensions>
</trkpt>
<trkpt lat="64.325355530" lon="-20.129217148">
<ele>218.558594</ele>
<time>2012-07-20T11:54:49Z</time>
<speed>0.020000</speed>
<extensions>
<speed>0.0</speed>
<temp>0.00</temp>
<bpm>0</bpm>
<rpm>0.00</rpm>
</extensions>
</trkpt>
<trkpt lat="64.325347900" lon="-20.129213333">
<ele>217.019531</ele>
<time>2012-07-20T11:54:54Z</time>
<extensions>
<speed>0.0</speed>
<temp>0.00</temp>
<bpm>0</bpm>
<rpm>0.00</rpm>
</extensions>
</trkpt>
<trkpt lat="64.325355530" lon="-20.129203796">
<ele>215.140625</ele>
<time>2012-07-20T11:54:59Z</time>
<speed>0.010000</speed>
<extensions>
<speed>0.0</speed>
<temp>0.00</temp>
<bpm>0</bpm>
<rpm>0.00</rpm>
</extensions>
</trkpt>
<trkpt lat="64.325355530" lon="-20.129201889">
<ele>213.082031</ele>
<time>2012-07-20T11:55:04Z</time>
<speed>0.010000</speed>
<extensions>
<speed>0.0</speed>
<temp>0.00</temp>
<bpm>0</bpm>
<rpm>0.00</rpm>
</extensions>
</trkpt>
<trkpt lat="64.325363159" lon="-20.129222870">
<ele>211.777344</ele>
<time>2012-07-20T11:55:09Z</time>
<extensions>
<speed>0.0</speed>
<temp>0.00</temp>
<bpm>0</bpm>
<rpm>0.00</rpm>
</extensions>
</trkpt>
<trkpt lat="64.325355530" lon="-20.129232407">
<ele>210.667969</ele>
<time>2012-07-20T11:55:14Z</time>
<speed>0.010000</speed>
<extensions>
<speed>0.0</speed>
<temp>0.00</temp>
<bpm>0</bpm>
<rpm>0.00</rpm>
</extensions>
</trkpt>
<trkpt lat="64.325355530" lon="-20.129230499">
<ele>209.152344</ele>
<time>2012-07-20T11:55:19Z</time>
<speed>0.010000</speed>
<extensions>
<speed>0.0</speed>
<temp>0.00</temp>
<bpm>0</bpm>
<rpm>0.00</rpm>
</extensions>
</trkpt>
<trkpt lat="64.325355530" lon="-20.129228592">
<ele>209.128906</ele>
<time>2012-07-20T11:55:24Z</time>
<extensions>
<speed>0.0</speed>
<temp>0.00</temp>
<bpm>0</bpm>
<rpm>0.00</rpm>
</extensions>
</trkpt>
<trkpt lat="64.325355530" lon="-20.129228592">
<ele>209.121094</ele>
<time>2012-07-20T11:55:29Z</time>
<speed>0.020000</speed>
<extensions>
<speed>0.0</speed>
<temp>0.00</temp>
<bpm>0</bpm>
<rpm>0.00</rpm>
</extensions>
</trkpt>
<trkpt lat="64.325355530" lon="-20.129228592">
<ele>209.101563</ele>
<time>2012-07-20T11:55:34Z</time>
<speed>0.010000</speed>
<extensions>
<speed>0.0</speed>
<temp>0.00</temp>
<bpm>0</bpm>
<rpm>0.00</rpm>
</extensions>
</trkpt>
<trkpt lat="64.325355530" lon="-20.129228592">
<ele>209.109375</ele>
<time>2012-07-20T11:55:39Z</time>
<speed>0.010000</speed>
<extensions>
<speed>0.0</speed>
<temp>0.00</temp>
<bpm>0</bpm>
<rpm>0.00</rpm>
</extensions>
</trkpt>
<trkpt lat="64.325363159" lon="-20.129228592">
<ele>209.105469</ele>
<time>2012-07-20T11:55:44Z</time>
<extensions>
<speed>0.0</speed>
<temp>0.00</temp>
<bpm>0</bpm>
<rpm>0.00</rpm>
</extensions>
</trkpt>
<trkpt lat="64.325363159" lon="-20.129228592">
<ele>209.113281</ele>
<time>2012-07-20T11:55:49Z</time>
<speed>0.010000</speed>
<extensions>
<speed>0.0</speed>
<temp>0.00</temp>
<bpm>0</bpm>
<rpm>0.00</rpm>
</extensions>
</trkpt>
<trkpt lat="64.325363159" lon="-20.129228592">
<ele>209.132813</ele>
<time>2012-07-20T11:55:54Z</time>
<speed>0.010000</speed>
<extensions>
<speed>0.0</speed>
<temp>0.00</temp>
<bpm>0</bpm>
<rpm>0.00</rpm>
</extensions>
</trkpt>
<trkpt lat="64.325363159" lon="-20.129228592">
<ele>209.152344</ele>
<time>2012-07-20T11:55:59Z</time>
<speed>0.010000</speed>
<extensions>
<speed>0.0</speed>
<temp>0.00</temp>
<bpm>0</bpm>
<rpm>0.00</rpm>
</extensions>
</trkpt>
<trkpt lat="64.325363159" lon="-20.129228592">
<ele>209.167969</ele>
<time>2012-07-20T11:56:04Z</time>
<extensions>
<speed>0.0</speed>
<temp>0.00</temp>
<bpm>0</bpm>
<rpm>0.00</rpm>
</extensions>
</trkpt>
<trkpt lat="64.325363159" lon="-20.129228592">
<ele>209.175781</ele>
<time>2012-07-20T11:56:09Z</time>
<speed>0.020000</speed>
<extensions>
<speed>0.0</speed>
<temp>0.00</temp>
<bpm>0</bpm>
<rpm>0.00</rpm>
</extensions>
</trkpt>
<trkpt lat="64.325363159" lon="-20.129230499">
<ele>209.191406</ele>
<time>2012-07-20T11:56:14Z</time>
<extensions>
<speed>0.0</speed>
<temp>0.00</temp>
<bpm>0</bpm>
<rpm>0.00</rpm>
</extensions>
</trkpt>
<trkpt lat="64.325363159" lon="-20.129230499">
<ele>209.218750</ele>
<time>2012-07-20T11:56:19Z</time>
<speed>0.010000</speed>
<extensions>
<speed>0.0</speed>
<temp>0.00</temp>
<bpm>0</bpm>
<rpm>0.00</rpm>
</extensions>
</trkpt>
<trkpt lat="64.325363159" lon="-20.129230499">
<ele>209.253906</ele>
<time>2012-07-20T11:56:24Z</time>
<speed>0.010000</speed>
<extensions>
<speed>0.0</speed>
<temp>0.00</temp>
<bpm>0</bpm>
<rpm>0.00</rpm>
</extensions>
</trkpt>
<trkpt lat="64.325363159" lon="-20.129232407">
<ele>209.277344</ele>
<time>2012-07-20T11:56:29Z</time>
<speed>0.020000</speed>
<extensions>
<speed>0.0</speed>
<temp>0.00</temp>
<bpm>0</bpm>
<rpm>0.00</rpm>
</extensions>
</trkpt>
<trkpt lat="64.325363159" lon="-20.129232407">
<ele>209.320313</ele>
<time>2012-07-20T11:56:34Z</time>
<speed>0.020000</speed>
<extensions>
<speed>0.0</speed>
<temp>0.00</temp>
<bpm>0</bpm>
<rpm>0.00</rpm>
</extensions>
</trkpt>
<trkpt lat="64.325355530" lon="-20.129234314">
<ele>209.359375</ele>
<time>2012-07-20T11:56:39Z</time>
<speed>0.010000</speed>
<extensions>
<speed>0.0</speed>
<temp>0.00</temp>
<bpm>0</bpm>
<rpm>0.00</rpm>
</extensions>
</trkpt>
<trkpt lat="64.325355530" lon="-20.129236221">
<ele>209.390625</ele>
<time>2012-07-20T11:56:44Z</time>
<speed>0.010000</speed>
<extensions>
<speed>0.0</speed>
<temp>0.00</temp>
<bpm>0</bpm>
<rpm>0.00</rpm>
</extensions>
</trkpt>
<trkpt lat="64.325355530" lon="-20.129236221">
<ele>209.421875</ele>
<time>2012-07-20T11:56:49Z</time>
<speed>0.010000</speed>
<extensions>
<speed>0.0</speed>
<temp>0.00</temp>
<bpm>0</bpm>
<rpm>0.00</rpm>
</extensions>
</trkpt>
<trkpt lat="64.325363159" lon="-20.129238129">
<ele>209.460938</ele>
<time>2012-07-20T11:56:54Z</time>
<speed>0.030000</speed>
<extensions>
<speed>0.0</speed>
<temp>0.00</temp>
<bpm>0</bpm>
<rpm>0.00</rpm>
</extensions>
</trkpt>
<trkpt lat="64.325355530" lon="-20.129238129">
<ele>209.500000</ele>
<time>2012-07-20T11:56:59Z</time>
<speed>0.010000</speed>
<extensions>
<speed>0.0</speed>
<temp>0.00</temp>
<bpm>0</bpm>
<rpm>0.00</rpm>
</extensions>
</trkpt>
<trkpt lat="64.325355530" lon="-20.129238129">
<ele>209.542969</ele>
<time>2012-07-20T11:57:04Z</time>
<speed>0.010000</speed>
<extensions>
<speed>0.0</speed>
<temp>0.00</temp>
<bpm>0</bpm>
<rpm>0.00</rpm>
</extensions>
</trkpt>
<trkpt lat="64.325355530" lon="-20.129238129">
<ele>209.570313</ele>
<time>2012-07-20T11:57:09Z</time>
<speed>0.010000</speed>
<extensions>
<speed>0.0</speed>
<temp>0.00</temp>
<bpm>0</bpm>
<rpm>0.00</rpm>
</extensions>
</trkpt>
<trkpt lat="64.325355530" lon="-20.129240036">
<ele>209.593750</ele>
<time>2012-07-20T11:57:14Z</time>
<speed>0.010000</speed>
<extensions>
<speed>0.0</speed>
<temp>0.00</temp>
<bpm>0</bpm>
<rpm>0.00</rpm>
</extensions>
</trkpt>
<trkpt lat="64.325355530" lon="-20.129240036">
<ele>209.617188</ele>
<time>2012-07-20T11:57:19Z</time>
<extensions>
<speed>0.0</speed>
<temp>0.00</temp>
<bpm>0</bpm>
<rpm>0.00</rpm>
</extensions>
</trkpt>
<trkpt lat="64.325355530" lon="-20.129240036">
<ele>209.648438</ele>
<time>2012-07-20T11:57:24Z</time>
<extensions>
<speed>0.0</speed>
<temp>0.00</temp>
<bpm>0</bpm>
<rpm>0.00</rpm>
</extensions>
</trkpt>
<trkpt lat="64.325355530" lon="-20.129240036">
<ele>209.675781</ele>
<time>2012-07-20T11:57:29Z</time>
<speed>0.010000</speed>
<extensions>
<speed>0.0</speed>
<temp>0.00</temp>
<bpm>0</bpm>
<rpm>0.00</rpm>
</extensions>
</trkpt>
<trkpt lat="64.325355530" lon="-20.129240036">
<ele>209.691406</ele>
<time>2012-07-20T11:57:34Z</time>
<speed>0.010000</speed>
<extensions>
<speed>0.0</speed>
<temp>0.00</temp>
<bpm>0</bpm>
<rpm>0.00</rpm>
</extensions>
</trkpt>
<trkpt lat="64.325355530" lon="-20.129240036">
<ele>209.722656</ele>
<time>2012-07-20T11:57:39Z</time>
<extensions>
<speed>0.0</speed>
<temp>0.00</temp>
<bpm>0</bpm>
<rpm>0.00</rpm>
</extensions>
</trkpt>
<trkpt lat="64.325355530" lon="-20.129240036">
<ele>209.742188</ele>
<time>2012-07-20T11:57:44Z</time>
<extensions>
<speed>0.0</speed>
<temp>0.00</temp>
<bpm>0</bpm>
<rpm>0.00</rpm>
</extensions>
</trkpt>
<trkpt lat="64.325355530" lon="-20.129241943">
<ele>209.773438</ele>
<time>2012-07-20T11:57:49Z</time>
<speed>0.020000</speed>
<extensions>
<speed>0.0</speed>
<temp>0.00</temp>
<bpm>0</bpm>
<rpm>0.00</rpm>
</extensions>
</trkpt>
<trkpt lat="64.325355530" lon="-20.129241943">
<ele>209.800781</ele>
<time>2012-07-20T11:57:54Z</time>
<speed>0.020000</speed>
<extensions>
<speed>0.0</speed>
<temp>0.00</temp>
<bpm>0</bpm>
<rpm>0.00</rpm>
</extensions>
</trkpt>
<trkpt lat="64.325355530" lon="-20.129241943">
<ele>209.851563</ele>
<time>2012-07-20T11:57:59Z</time>
<speed>0.010000</speed>
<extensions>
<speed>0.0</speed>
<temp>0.00</temp>
<bpm>0</bpm>
<rpm>0.00</rpm>
</extensions>
</trkpt>
<trkpt lat="64.325355530" lon="-20.129243851">
<ele>209.894531</ele>
<time>2012-07-20T11:58:04Z</time>
<extensions>
<speed>0.0</speed>
<temp>0.00</temp>
<bpm>0</bpm>
<rpm>0.00</rpm>
</extensions>
</trkpt>
<trkpt lat="64.325355530" lon="-20.129243851">
<ele>209.937500</ele>
<time>2012-07-20T11:58:09Z</time>
<speed>0.010000</speed>
<extensions>
<speed>0.0</speed>
<temp>0.00</temp>
<bpm>0</bpm>
<rpm>0.00</rpm>
</extensions>
</trkpt>
<trkpt lat="64.325355530" lon="-20.129243851">
<ele>209.972656</ele>
<time>2012-07-20T11:58:14Z</time>
<speed>0.030000</speed>
<extensions>
<speed>0.0</speed>
<temp>0.00</temp>
<bpm>0</bpm>
<rpm>0.00</rpm>
</extensions>
</trkpt>
<trkpt lat="64.325355530" lon="-20.129245758">
<ele>210.007813</ele>
<time>2012-07-20T11:58:19Z</time>
<speed>0.010000</speed>
<extensions>
<speed>0.0</speed>
<temp>0.00</temp>
<bpm>0</bpm>
<rpm>0.00</rpm>
</extensions>
</trkpt>
<trkpt lat="64.325355530" lon="-20.129245758">
<ele>210.035156</ele>
<time>2012-07-20T11:58:24Z</time>
<speed>0.020000</speed>
<extensions>
<speed>0.0</speed>
<temp>0.00</temp>
<bpm>0</bpm>
<rpm>0.00</rpm>
</extensions>
</trkpt>
<trkpt lat="64.325355530" lon="-20.129247665">
<ele>210.082031</ele>
<time>2012-07-20T11:58:29Z</time>
<speed>0.030000</speed>
<extensions>
<speed>0.0</speed>
<temp>0.00</temp>
<bpm>0</bpm>
<rpm>0.00</rpm>
</extensions>
</trkpt>
<trkpt lat="64.325355530" lon="-20.129249573">
<ele>210.125000</ele>
<time>2012-07-20T11:58:34Z</time>
<extensions>
<speed>0.0</speed>
<temp>0.00</temp>
<bpm>0</bpm>
<rpm>0.00</rpm>
</extensions>
</trkpt>
<trkpt lat="64.325355530" lon="-20.129249573">
<ele>210.164063</ele>
<time>2012-07-20T11:58:39Z</time>
<speed>0.010000</speed>
<extensions>
<speed>0.0</speed>
<temp>0.00</temp>
<bpm>0</bpm>
<rpm>0.00</rpm>
</extensions>
</trkpt>
<trkpt lat="64.325355530" lon="-20.129249573">
<ele>210.210938</ele>
<time>2012-07-20T11:58:44Z</time>
<speed>0.010000</speed>
<extensions>
<speed>0.0</speed>
<temp>0.00</temp>
<bpm>0</bpm>
<rpm>0.00</rpm>
</extensions>
</trkpt>
<trkpt lat="64.325355530" lon="-20.129249573">
<ele>210.273438</ele>
<time>2012-07-20T11:58:49Z</time>
<speed>0.030000</speed>
<extensions>
<speed>0.0</speed>
<temp>0.00</temp>
<bpm>0</bpm>
<rpm>0.00</rpm>
</extensions>
</trkpt>
<trkpt lat="64.325355530" lon="-20.129249573">
<ele>210.351563</ele>
<time>2012-07-20T11:58:54Z</time>
<speed>0.020000</speed>
<extensions>
<speed>0.0</speed>
<temp>0.00</temp>
<bpm>0</bpm>
<rpm>0.00</rpm>
</extensions>
</trkpt>
<trkpt lat="64.325355530" lon="-20.129251480">
<ele>210.406250</ele>
<time>2012-07-20T11:58:59Z</time>
<speed>0.010000</speed>
<extensions>
<speed>0.0</speed>
<temp>0.00</temp>
<bpm>0</bpm>
<rpm>0.00</rpm>
</extensions>
</trkpt>
<trkpt lat="64.325355530" lon="-20.129251480">
<ele>210.437500</ele>
<time>2012-07-20T11:59:04Z</time>
<speed>0.010000</speed>
<extensions>
<speed>0.0</speed>
<temp>0.00</temp>
<bpm>0</bpm>
<rpm>0.00</rpm>
</extensions>
</trkpt>
<trkpt lat="64.325355530" lon="-20.129253387">
<ele>210.476563</ele>
<time>2012-07-20T11:59:09Z</time>
<speed>0.030000</speed>
<extensions>
<speed>0.0</speed>
<temp>0.00</temp>
<bpm>0</bpm>
<rpm>0.00</rpm>
</extensions>
</trkpt>
<trkpt lat="64.325355530" lon="-20.129253387">
<ele>210.527344</ele>
<time>2012-07-20T11:59:14Z</time>
<speed>0.030000</speed>
<extensions>
<speed>0.0</speed>
<temp>0.00</temp>
<bpm>0</bpm>
<rpm>0.00</rpm>
</extensions>
</trkpt>
<trkpt lat="64.325355530" lon="-20.129255295">
<ele>210.578125</ele>
<time>2012-07-20T11:59:19Z</time>
<speed>0.010000</speed>
<extensions>
<speed>0.0</speed>
<temp>0.00</temp>
<bpm>0</bpm>
<rpm>0.00</rpm>
</extensions>
</trkpt>
<trkpt lat="64.325355530" lon="-20.129255295">
<ele>210.605469</ele>
<time>2012-07-20T11:59:24Z</time>
<speed>0.010000</speed>
<extensions>
<speed>0.0</speed>
<temp>0.00</temp>
<bpm>0</bpm>
<rpm>0.00</rpm>
</extensions>
</trkpt>
<trkpt lat="64.325355530" lon="-20.129257202">
<ele>210.636719</ele>
<time>2012-07-20T11:59:29Z</time>
<speed>0.020000</speed>
<extensions>
<speed>0.0</speed>
<temp>0.00</temp>
<bpm>0</bpm>
<rpm>0.00</rpm>
</extensions>
</trkpt>
<trkpt lat="64.325355530" lon="-20.129257202">
<ele>210.671875</ele>
<time>2012-07-20T11:59:34Z</time>
<speed>0.030000</speed>
<extensions>
<speed>0.0</speed>
<temp>0.00</temp>
<bpm>0</bpm>
<rpm>0.00</rpm>
</extensions>
</trkpt>
<trkpt lat="64.325355530" lon="-20.129259109">
<ele>210.703125</ele>
<time>2012-07-20T11:59:39Z</time>
<speed>0.010000</speed>
<extensions>
<speed>0.0</speed>
<temp>0.00</temp>
<bpm>0</bpm>
<rpm>0.00</rpm>
</extensions>
</trkpt>
<trkpt lat="64.325355530" lon="-20.129261017">
<ele>210.726563</ele>
<time>2012-07-20T11:59:44Z</time>
<speed>0.010000</speed>
<extensions>
<speed>0.0</speed>
<temp>0.00</temp>
<bpm>0</bpm>
<rpm>0.00</rpm>
</extensions>
</trkpt>
<trkpt lat="64.325355530" lon="-20.129261017">
<ele>210.746094</ele>
<time>2012-07-20T11:59:49Z</time>
<speed>0.010000</speed>
<extensions>
<speed>0.0</speed>
<temp>0.00</temp>
<bpm>0</bpm>
<rpm>0.00</rpm>
</extensions>
</trkpt>
<trkpt lat="64.325355530" lon="-20.129261017">
<ele>210.781250</ele>
<time>2012-07-20T11:59:54Z</time>
<extensions>
<speed>0.0</speed>
<temp>0.00</temp>
<bpm>0</bpm>
<rpm>0.00</rpm>
</extensions>
</trkpt>
<trkpt lat="64.325355530" lon="-20.129261017">
<ele>210.808594</ele>
<time>2012-07-20T11:59:59Z</time>
<speed>0.040000</speed>
<extensions>
<speed>0.0</speed>
<temp>0.00</temp>
<bpm>0</bpm>
<rpm>0.00</rpm>
</extensions>
</trkpt>
<trkpt lat="64.325355530" lon="-20.129261017">
<ele>210.828125</ele>
<time>2012-07-20T12:00:04Z</time>
<speed>0.030000</speed>
<extensions>
<speed>0.0</speed>
<temp>0.00</temp>
<bpm>0</bpm>
<rpm>0.00</rpm>
</extensions>
</trkpt>
<trkpt lat="64.325355530" lon="-20.129261017">
<ele>210.863281</ele>
<time>2012-07-20T12:00:09Z</time>
<speed>0.010000</speed>
<extensions>
<speed>0.0</speed>
<temp>0.00</temp>
<bpm>0</bpm>
<rpm>0.00</rpm>
</extensions>
</trkpt>
<trkpt lat="64.325347900" lon="-20.129261017">
<ele>210.875000</ele>
<time>2012-07-20T12:00:14Z</time>
<extensions>
<speed>0.0</speed>
<temp>0.00</temp>
<bpm>0</bpm>
<rpm>0.00</rpm>
</extensions>
</trkpt>
<trkpt lat="64.325347900" lon="-20.129261017">
<ele>210.898438</ele>
<time>2012-07-20T12:00:19Z</time>
<speed>0.010000</speed>
<extensions>
<speed>0.0</speed>
<temp>0.00</temp>
<bpm>0</bpm>
<rpm>0.00</rpm>
</extensions>
</trkpt>
<trkpt lat="64.325347900" lon="-20.129259109">
<ele>210.902344</ele>
<time>2012-07-20T12:00:24Z</time>
<speed>0.010000</speed>
<extensions>
<speed>0.0</speed>
<temp>0.00</temp>
<bpm>0</bpm>
<rpm>0.00</rpm>
</extensions>
</trkpt>
<trkpt lat="64.325347900" lon="-20.129261017">
<ele>210.921875</ele>
<time>2012-07-20T12:00:29Z</time>
<extensions>
<speed>0.0</speed>
<temp>0.00</temp>
<bpm>0</bpm>
<rpm>0.00</rpm>
</extensions>
</trkpt>
<trkpt lat="64.325347900" lon="-20.129259109">
<ele>210.941406</ele>
<time>2012-07-20T12:00:34Z</time>
<extensions>
<speed>0.0</speed>
<temp>0.00</temp>
<bpm>0</bpm>
<rpm>0.00</rpm>
</extensions>
</trkpt>
<trkpt lat="64.325347900" lon="-20.129261017">
<ele>210.957031</ele>
<time>2012-07-20T12:00:39Z</time>
<speed>0.010000</speed>
<extensions>
<speed>0.0</speed>
<temp>0.00</temp>
<bpm>0</bpm>
<rpm>0.00</rpm>
</extensions>
</trkpt>
<trkpt lat="64.325347900" lon="-20.129261017">
<ele>210.964844</ele>
<time>2012-07-20T12:00:44Z</time>
<speed>0.020000</speed>
<extensions>
<speed>0.0</speed>
<temp>0.00</temp>
<bpm>0</bpm>
<rpm>0.00</rpm>
</extensions>
</trkpt>
<trkpt lat="64.325347900" lon="-20.129261017">
<ele>210.992188</ele>
<time>2012-07-20T12:00:49Z</time>
<extensions>
<speed>0.0</speed>
<temp>0.00</temp>
<bpm>0</bpm>
<rpm>0.00</rpm>
</extensions>
</trkpt>
<trkpt lat="64.325347900" lon="-20.129261017">
<ele>211.031250</ele>
<time>2012-07-20T12:00:54Z</time>
<extensions>
<speed>0.0</speed>
<temp>0.00</temp>
<bpm>0</bpm>
<rpm>0.00</rpm>
</extensions>
</trkpt>
<trkpt lat="64.325347900" lon="-20.129261017">
<ele>211.027344</ele>
<time>2012-07-20T12:00:59Z</time>
<speed>0.010000</speed>
<extensions>
<speed>0.0</speed>
<temp>0.00</temp>
<bpm>0</bpm>
<rpm>0.00</rpm>
</extensions>
</trkpt>
<trkpt lat="64.325347900" lon="-20.129261017">
<ele>211.039063</ele>
<time>2012-07-20T12:01:04Z</time>
<speed>0.010000</speed>
<extensions>
<speed>0.0</speed>
<temp>0.00</temp>
<bpm>0</bpm>
<rpm>0.00</rpm>
</extensions>
</trkpt>
<trkpt lat="64.325347900" lon="-20.129261017">
<ele>211.035156</ele>
<time>2012-07-20T12:01:09Z</time>
<speed>0.020000</speed>
<extensions>
<speed>0.0</speed>
<temp>0.00</temp>
<bpm>0</bpm>
<rpm>0.00</rpm>
</extensions>
</trkpt>
<trkpt lat="64.325347900" lon="-20.129261017">
<ele>211.039063</ele>
<time>2012-07-20T12:01:14Z</time>
<speed>0.020000</speed>
<extensions>
<speed>0.0</speed>
<temp>0.00</temp>
<bpm>0</bpm>
<rpm>0.00</rpm>
</extensions>
</trkpt>
<trkpt lat="64.325347900" lon="-20.129259109">
<ele>211.058594</ele>
<time>2012-07-20T12:01:19Z</time>
<speed>0.030000</speed>
<extensions>
<speed>0.0</speed>
<temp>0.00</temp>
<bpm>0</bpm>
<rpm>0.00</rpm>
</extensions>
</trkpt>
<trkpt lat="64.325347900" lon="-20.129259109">
<ele>211.066406</ele>
<time>2012-07-20T12:01:24Z</time>
<speed>0.010000</speed>
<extensions>
<speed>0.0</speed>
<temp>0.00</temp>
<bpm>0</bpm>
<rpm>0.00</rpm>
</extensions>
</trkpt>
<trkpt lat="64.325347900" lon="-20.129259109">
<ele>211.066406</ele>
<time>2012-07-20T12:01:29Z</time>
<speed>0.010000</speed>
<extensions>
<speed>0.0</speed>
<temp>0.00</temp>
<bpm>0</bpm>
<rpm>0.00</rpm>
</extensions>
</trkpt>
<trkpt lat="64.325347900" lon="-20.129259109">
<ele>211.066406</ele>
<time>2012-07-20T12:01:34Z</time>
<extensions>
<speed>0.0</speed>
<temp>0.00</temp>
<bpm>0</bpm>
<rpm>0.00</rpm>
</extensions>
</trkpt>
<trkpt lat="64.325347900" lon="-20.129259109">
<ele>211.074219</ele>
<time>2012-07-20T12:01:39Z</time>
<speed>0.010000</speed>
<extensions>
<speed>0.0</speed>
<temp>0.00</temp>
<bpm>0</bpm>
<rpm>0.00</rpm>
</extensions>
</trkpt>
<trkpt lat="64.325347900" lon="-20.129259109">
<ele>211.085938</ele>
<time>2012-07-20T12:01:44Z</time>
<extensions>
<speed>0.0</speed>
<temp>0.00</temp>
<bpm>0</bpm>
<rpm>0.00</rpm>
</extensions>
</trkpt>
<trkpt lat="64.325347900" lon="-20.129259109">
<ele>211.105469</ele>
<time>2012-07-20T12:01:49Z</time>
<extensions>
<speed>0.0</speed>
<temp>0.00</temp>
<bpm>0</bpm>
<rpm>0.00</rpm>
</extensions>
</trkpt>
<trkpt lat="64.325347900" lon="-20.129259109">
<ele>211.125000</ele>
<time>2012-07-20T12:01:54Z</time>
<speed>0.010000</speed>
<extensions>
<speed>0.0</speed>
<temp>0.00</temp>
<bpm>0</bpm>
<rpm>0.00</rpm>
</extensions>
</trkpt>
<trkpt lat="64.325347900" lon="-20.129259109">
<ele>211.167969</ele>
<time>2012-07-20T12:01:59Z</time>
<speed>0.010000</speed>
<extensions>
<speed>0.0</speed>
<temp>0.00</temp>
<bpm>0</bpm>
<rpm>0.00</rpm>
</extensions>
</trkpt>
<trkpt lat="64.325347900" lon="-20.129259109">
<ele>211.191406</ele>
<time>2012-07-20T12:02:04Z</time>
<extensions>
<speed>0.0</speed>
<temp>0.00</temp>
<bpm>0</bpm>
<rpm>0.00</rpm>
</extensions>
</trkpt>
<trkpt lat="64.325347900" lon="-20.129259109">
<ele>211.207031</ele>
<time>2012-07-20T12:02:09Z</time>
<extensions>
<speed>0.0</speed>
<temp>0.00</temp>
<bpm>0</bpm>
<rpm>0.00</rpm>
</extensions>
</trkpt>
<trkpt lat="64.325347900" lon="-20.129259109">
<ele>211.226563</ele>
<time>2012-07-20T12:02:14Z</time>
<extensions>
<speed>0.0</speed>
<temp>0.00</temp>
<bpm>0</bpm>
<rpm>0.00</rpm>
</extensions>
</trkpt>
<trkpt lat="64.325347900" lon="-20.129259109">
<ele>211.234375</ele>
<time>2012-07-20T12:02:19Z</time>
<extensions>
<speed>0.0</speed>
<temp>0.00</temp>
<bpm>0</bpm>
<rpm>0.00</rpm>
</extensions>
</trkpt>
<trkpt lat="64.325347900" lon="-20.129259109">
<ele>211.238281</ele>
<time>2012-07-20T12:02:24Z</time>
<speed>0.010000</speed>
<extensions>
<speed>0.0</speed>
<temp>0.00</temp>
<bpm>0</bpm>
<rpm>0.00</rpm>
</extensions>
</trkpt>
<trkpt lat="64.325347900" lon="-20.129259109">
<ele>211.234375</ele>
<time>2012-07-20T12:02:29Z</time>
<speed>0.030000</speed>
<extensions>
<speed>0.0</speed>
<temp>0.00</temp>
<bpm>0</bpm>
<rpm>0.00</rpm>
</extensions>
</trkpt>
<trkpt lat="64.325347900" lon="-20.129259109">
<ele>211.238281</ele>
<time>2012-07-20T12:02:34Z</time>
<speed>0.010000</speed>
<extensions>
<speed>0.0</speed>
<temp>0.00</temp>
<bpm>0</bpm>
<rpm>0.00</rpm>
</extensions>
</trkpt>
<trkpt lat="64.325347900" lon="-20.129259109">
<ele>211.234375</ele>
<time>2012-07-20T12:02:39Z</time>
<speed>0.010000</speed>
<extensions>
<speed>0.0</speed>
<temp>0.00</temp>
<bpm>0</bpm>
<rpm>0.00</rpm>
</extensions>
</trkpt>
<trkpt lat="64.325347900" lon="-20.129257202">
<ele>211.214844</ele>
<time>2012-07-20T12:02:44Z</time>
<speed>0.010000</speed>
<extensions>
<speed>0.0</speed>
<temp>0.00</temp>
<bpm>0</bpm>
<rpm>0.00</rpm>
</extensions>
</trkpt>
<trkpt lat="64.325347900" lon="-20.129257202">
<ele>211.218750</ele>
<time>2012-07-20T12:02:49Z</time>
<extensions>
<speed>0.0</speed>
<temp>0.00</temp>
<bpm>0</bpm>
<rpm>0.00</rpm>
</extensions>
</trkpt>
<trkpt lat="64.325347900" lon="-20.129257202">
<ele>211.226563</ele>
<time>2012-07-20T12:02:54Z</time>
<speed>0.020000</speed>
<extensions>
<speed>0.0</speed>
<temp>0.00</temp>
<bpm>0</bpm>
<rpm>0.00</rpm>
</extensions>
</trkpt>
<trkpt lat="64.325347900" lon="-20.129257202">
<ele>211.230469</ele>
<time>2012-07-20T12:02:59Z</time>
<extensions>
<speed>0.0</speed>
<temp>0.00</temp>
<bpm>0</bpm>
<rpm>0.00</rpm>
</extensions>
</trkpt>
<trkpt lat="64.325347900" lon="-20.129257202">
<ele>211.242188</ele>
<time>2012-07-20T12:03:04Z</time>
<speed>0.010000</speed>
<extensions>
<speed>0.0</speed>
<temp>0.00</temp>
<bpm>0</bpm>
<rpm>0.00</rpm>
</extensions>
</trkpt>
<trkpt lat="64.325340271" lon="-20.129257202">
<ele>211.238281</ele>
<time>2012-07-20T12:03:09Z</time>
<speed>0.020000</speed>
<extensions>
<speed>0.0</speed>
<temp>0.00</temp>
<bpm>0</bpm>
<rpm>0.00</rpm>
</extensions>
</trkpt>
<trkpt lat="64.325340271" lon="-20.129257202">
<ele>211.257813</ele>
<time>2012-07-20T12:03:14Z</time>
<extensions>
<speed>0.0</speed>
<temp>0.00</temp>
<bpm>0</bpm>
<rpm>0.00</rpm>
</extensions>
</trkpt>
<trkpt lat="64.325340271" lon="-20.129257202">
<ele>211.269531</ele>
<time>2012-07-20T12:03:19Z</time>
<speed>0.010000</speed>
<extensions>
<speed>0.0</speed>
<temp>0.00</temp>
<bpm>0</bpm>
<rpm>0.00</rpm>
</extensions>
</trkpt>
<trkpt lat="64.325340271" lon="-20.129257202">
<ele>211.277344</ele>
<time>2012-07-20T12:03:24Z</time>
<extensions>
<speed>0.0</speed>
<temp>0.00</temp>
<bpm>0</bpm>
<rpm>0.00</rpm>
</extensions>
</trkpt>
<trkpt lat="64.325340271" lon="-20.129257202">
<ele>211.281250</ele>
<time>2012-07-20T12:03:29Z</time>
<extensions>
<speed>0.0</speed>
<temp>0.00</temp>
<bpm>0</bpm>
<rpm>0.00</rpm>
</extensions>
</trkpt>
<trkpt lat="64.325340271" lon="-20.129257202">
<ele>211.292969</ele>
<time>2012-07-20T12:03:34Z</time>
<extensions>
<speed>0.0</speed>
<temp>0.00</temp>
<bpm>0</bpm>
<rpm>0.00</rpm>
</extensions>
</trkpt>
<trkpt lat="64.325340271" lon="-20.129257202">
<ele>211.300781</ele>
<time>2012-07-20T12:03:39Z</time>
<speed>0.010000</speed>
<extensions>
<speed>0.0</speed>
<temp>0.00</temp>
<bpm>0</bpm>
<rpm>0.00</rpm>
</extensions>
</trkpt>
<trkpt lat="64.325340271" lon="-20.129257202">
<ele>211.296875</ele>
<time>2012-07-20T12:03:44Z</time>
<extensions>
<speed>0.0</speed>
<temp>0.00</temp>
<bpm>0</bpm>
<rpm>0.00</rpm>
</extensions>
</trkpt>
<trkpt lat="64.325340271" lon="-20.129257202">
<ele>211.292969</ele>
<time>2012-07-20T12:03:49Z</time>
<speed>0.010000</speed>
<extensions>
<speed>0.0</speed>
<temp>0.00</temp>
<bpm>0</bpm>
<rpm>0.00</rpm>
</extensions>
</trkpt>
<trkpt lat="64.325340271" lon="-20.129257202">
<ele>211.292969</ele>
<time>2012-07-20T12:03:54Z</time>
<speed>0.010000</speed>
<extensions>
<speed>0.0</speed>
<temp>0.00</temp>
<bpm>0</bpm>
<rpm>0.00</rpm>
</extensions>
</trkpt>
<trkpt lat="64.325340271" lon="-20.129257202">
<ele>211.304688</ele>
<time>2012-07-20T12:03:59Z</time>
<extensions>
<speed>0.0</speed>
<temp>0.00</temp>
<bpm>0</bpm>
<rpm>0.00</rpm>
</extensions>
</trkpt>
<trkpt lat="64.325340271" lon="-20.129257202">
<ele>211.300781</ele>
<time>2012-07-20T12:04:04Z</time>
<extensions>
<speed>0.0</speed>
<temp>0.00</temp>
<bpm>0</bpm>
<rpm>0.00</rpm>
</extensions>
</trkpt>
<trkpt lat="64.325340271" lon="-20.129257202">
<ele>211.316406</ele>
<time>2012-07-20T12:04:09Z</time>
<speed>0.010000</speed>
<extensions>
<speed>0.0</speed>
<temp>0.00</temp>
<bpm>0</bpm>
<rpm>0.00</rpm>
</extensions>
</trkpt>
<trkpt lat="64.325340271" lon="-20.129257202">
<ele>211.324219</ele>
<time>2012-07-20T12:04:14Z</time>
<extensions>
<speed>0.0</speed>
<temp>0.00</temp>
<bpm>0</bpm>
<rpm>0.00</rpm>
</extensions>
</trkpt>
<trkpt lat="64.325340271" lon="-20.129257202">
<ele>211.335938</ele>
<time>2012-07-20T12:04:19Z</time>
<speed>0.020000</speed>
<extensions>
<speed>0.0</speed>
<temp>0.00</temp>
<bpm>0</bpm>
<rpm>0.00</rpm>
</extensions>
</trkpt>
<trkpt lat="64.325340271" lon="-20.129259109">
<ele>211.351563</ele>
<time>2012-07-20T12:04:24Z</time>
<speed>0.010000</speed>
<extensions>
<speed>0.0</speed>
<temp>0.00</temp>
<bpm>0</bpm>
<rpm>0.00</rpm>
</extensions>
</trkpt>
<trkpt lat="64.325340271" lon="-20.129259109">
<ele>211.367188</ele>
<time>2012-07-20T12:04:29Z</time>
<speed>0.020000</speed>
<extensions>
<speed>0.0</speed>
<temp>0.00</temp>
<bpm>0</bpm>
<rpm>0.00</rpm>
</extensions>
</trkpt>
<trkpt lat="64.325340271" lon="-20.129259109">
<ele>211.378906</ele>
<time>2012-07-20T12:04:34Z</time>
<extensions>
<speed>0.0</speed>
<temp>0.00</temp>
<bpm>0</bpm>
<rpm>0.00</rpm>
</extensions>
</trkpt>
<trkpt lat="64.325340271" lon="-20.129259109">
<ele>211.386719</ele>
<time>2012-07-20T12:04:39Z</time>
<speed>0.010000</speed>
<extensions>
<speed>0.0</speed>
<temp>0.00</temp>
<bpm>0</bpm>
<rpm>0.00</rpm>
</extensions>
</trkpt>
<trkpt lat="64.325340271" lon="-20.129261017">
<ele>211.414063</ele>
<time>2012-07-20T12:04:44Z</time>
<extensions>
<speed>0.0</speed>
<temp>0.00</temp>
<bpm>0</bpm>
<rpm>0.00</rpm>
</extensions>
</trkpt>
<trkpt lat="64.325340271" lon="-20.129261017">
<ele>211.429688</ele>
<time>2012-07-20T12:04:49Z</time>
<speed>0.010000</speed>
<extensions>
<speed>0.0</speed>
<temp>0.00</temp>
<bpm>0</bpm>
<rpm>0.00</rpm>
</extensions>
</trkpt>
<trkpt lat="64.325340271" lon="-20.129261017">
<ele>211.449219</ele>
<time>2012-07-20T12:04:54Z</time>
<extensions>
<speed>0.0</speed>
<temp>0.00</temp>
<bpm>0</bpm>
<rpm>0.00</rpm>
</extensions>
</trkpt>
<trkpt lat="64.325340271" lon="-20.129261017">
<ele>211.468750</ele>
<time>2012-07-20T12:04:59Z</time>
<extensions>
<speed>0.0</speed>
<temp>0.00</temp>
<bpm>0</bpm>
<rpm>0.00</rpm>
</extensions>
</trkpt>
<trkpt lat="64.325340271" lon="-20.129262924">
<ele>211.480469</ele>
<time>2012-07-20T12:05:04Z</time>
<speed>0.010000</speed>
<extensions>
<speed>0.0</speed>
<temp>0.00</temp>
<bpm>0</bpm>
<rpm>0.00</rpm>
</extensions>
</trkpt>
<trkpt lat="64.325340271" lon="-20.129268646">
<ele>211.800781</ele>
<time>2012-07-20T12:05:09Z</time>
<extensions>
<speed>0.0</speed>
<temp>0.00</temp>
<bpm>0</bpm>
<rpm>0.00</rpm>
</extensions>
</trkpt>
<trkpt lat="64.325332642" lon="-20.129278183">
<ele>212.683594</ele>
<time>2012-07-20T12:05:14Z</time>
<speed>0.010000</speed>
<extensions>
<speed>0.0</speed>
<temp>0.00</temp>
<bpm>0</bpm>
<rpm>0.00</rpm>
</extensions>
</trkpt>
<trkpt lat="64.325332642" lon="-20.129291534">
<ele>213.671875</ele>
<time>2012-07-20T12:05:19Z</time>
<speed>0.020000</speed>
<extensions>
<speed>0.0</speed>
<temp>0.00</temp>
<bpm>0</bpm>
<rpm>0.00</rpm>
</extensions>
</trkpt>
<trkpt lat="64.325332642" lon="-20.129299164">
<ele>214.171875</ele>
<time>2012-07-20T12:05:24Z</time>
<speed>0.020000</speed>
<extensions>
<speed>0.0</speed>
<temp>0.00</temp>
<bpm>0</bpm>
<rpm>0.00</rpm>
</extensions>
</trkpt>
<trkpt lat="64.325332642" lon="-20.129318237">
<ele>215.035156</ele>
<time>2012-07-20T12:05:29Z</time>
<speed>0.030000</speed>
<extensions>
<speed>0.0</speed>
<temp>0.00</temp>
<bpm>0</bpm>
<rpm>0.00</rpm>
</extensions>
</trkpt>
<trkpt lat="64.325332642" lon="-20.129331589">
<ele>215.804688</ele>
<time>2012-07-20T12:05:34Z</time>
<speed>0.040000</speed>
<extensions>
<speed>0.0</speed>
<temp>0.00</temp>
<bpm>0</bpm>
<rpm>0.00</rpm>
</extensions>
</trkpt>
<trkpt lat="64.325340271" lon="-20.129337311">
<ele>216.238281</ele>
<time>2012-07-20T12:05:39Z</time>
<speed>0.020000</speed>
<extensions>
<speed>0.0</speed>
<temp>0.00</temp>
<bpm>0</bpm>
<rpm>0.00</rpm>
</extensions>
</trkpt>
<trkpt lat="64.325340271" lon="-20.129348755">
<ele>216.578125</ele>
<time>2012-07-20T12:05:44Z</time>
<extensions>
<speed>0.0</speed>
<temp>0.00</temp>
<bpm>0</bpm>
<rpm>0.00</rpm>
</extensions>
</trkpt>
<trkpt lat="64.325340271" lon="-20.129348755">
<ele>216.730469</ele>
<time>2012-07-20T12:05:49Z</time>
<extensions>
<speed>0.0</speed>
<temp>0.00</temp>
<bpm>0</bpm>
<rpm>0.00</rpm>
</extensions>
</trkpt>
<trkpt lat="64.325332642" lon="-20.129348755">
<ele>217.421875</ele>
<time>2012-07-20T12:05:54Z</time>
<extensions>
<speed>0.0</speed>
<temp>0.00</temp>
<bpm>0</bpm>
<rpm>0.00</rpm>
</extensions>
</trkpt>
<trkpt lat="64.325325012" lon="-20.129346848">
<ele>217.992188</ele>
<time>2012-07-20T12:05:59Z</time>
<extensions>
<speed>0.0</speed>
<temp>0.00</temp>
<bpm>0</bpm>
<rpm>0.00</rpm>
</extensions>
</trkpt>
<trkpt lat="64.325309753" lon="-20.129339218">
<ele>218.398438</ele>
<time>2012-07-20T12:06:04Z</time>
<speed>0.010000</speed>
<extensions>
<speed>0.0</speed>
<temp>0.00</temp>
<bpm>0</bpm>
<rpm>0.00</rpm>
</extensions>
</trkpt>
<trkpt lat="64.325302124" lon="-20.129335403">
<ele>218.867188</ele>
<time>2012-07-20T12:06:09Z</time>
<speed>0.020000</speed>
<extensions>
<speed>0.0</speed>
<temp>0.00</temp>
<bpm>0</bpm>
<rpm>0.00</rpm>
</extensions>
</trkpt>
<trkpt lat="64.325302124" lon="-20.129335403">
<ele>218.925781</ele>
<time>2012-07-20T12:06:14Z</time>
<speed>0.010000</speed>
<extensions>
<speed>0.0</speed>
<temp>0.00</temp>
<bpm>0</bpm>
<rpm>0.00</rpm>
</extensions>
</trkpt>
<trkpt lat="64.325302124" lon="-20.129333496">
<ele>218.921875</ele>
<time>2012-07-20T12:06:19Z</time>
<extensions>
<speed>0.0</speed>
<temp>0.00</temp>
<bpm>0</bpm>
<rpm>0.00</rpm>
</extensions>
</trkpt>
<trkpt lat="64.325302124" lon="-20.129333496">
<ele>218.906250</ele>
<time>2012-07-20T12:06:24Z</time>
<extensions>
<speed>0.0</speed>
<temp>0.00</temp>
<bpm>0</bpm>
<rpm>0.00</rpm>
</extensions>
</trkpt>
<trkpt lat="64.325302124" lon="-20.129333496">
<ele>218.902344</ele>
<time>2012-07-20T12:06:29Z</time>
<extensions>
<speed>0.0</speed>
<temp>0.00</temp>
<bpm>0</bpm>
<rpm>0.00</rpm>
</extensions>
</trkpt>
<trkpt lat="64.325302124" lon="-20.129333496">
<ele>218.886719</ele>
<time>2012-07-20T12:06:34Z</time>
<extensions>
<speed>0.0</speed>
<temp>0.00</temp>
<bpm>0</bpm>
<rpm>0.00</rpm>
</extensions>
</trkpt>
<trkpt lat="64.325302124" lon="-20.129333496">
<ele>218.867188</ele>
<time>2012-07-20T12:06:39Z</time>
<speed>0.020000</speed>
<extensions>
<speed>0.0</speed>
<temp>0.00</temp>
<bpm>0</bpm>
<rpm>0.00</rpm>
</extensions>
</trkpt>
<trkpt lat="64.325302124" lon="-20.129331589">
<ele>218.847656</ele>
<time>2012-07-20T12:06:44Z</time>
<speed>0.010000</speed>
<extensions>
<speed>0.0</speed>
<temp>0.00</temp>
<bpm>0</bpm>
<rpm>0.00</rpm>
</extensions>
</trkpt>
<trkpt lat="64.325302124" lon="-20.129331589">
<ele>218.824219</ele>
<time>2012-07-20T12:06:49Z</time>
<speed>0.010000</speed>
<extensions>
<speed>0.0</speed>
<temp>0.00</temp>
<bpm>0</bpm>
<rpm>0.00</rpm>
</extensions>
</trkpt>
<trkpt lat="64.325302124" lon="-20.129331589">
<ele>218.808594</ele>
<time>2012-07-20T12:06:54Z</time>
<extensions>
<speed>0.0</speed>
<temp>0.00</temp>
<bpm>0</bpm>
<rpm>0.00</rpm>
</extensions>
</trkpt>
<trkpt lat="64.325302124" lon="-20.129331589">
<ele>218.796875</ele>
<time>2012-07-20T12:06:59Z</time>
<speed>0.010000</speed>
<extensions>
<speed>0.0</speed>
<temp>0.00</temp>
<bpm>0</bpm>
<rpm>0.00</rpm>
</extensions>
</trkpt>
<trkpt lat="64.325302124" lon="-20.129329681">
<ele>218.777344</ele>
<time>2012-07-20T12:07:04Z</time>
<speed>0.010000</speed>
<extensions>
<speed>0.0</speed>
<temp>0.00</temp>
<bpm>0</bpm>
<rpm>0.00</rpm>
</extensions>
</trkpt>
<trkpt lat="64.325302124" lon="-20.129329681">
<ele>218.769531</ele>
<time>2012-07-20T12:07:09Z</time>
<speed>0.010000</speed>
<extensions>
<speed>0.0</speed>
<temp>0.00</temp>
<bpm>0</bpm>
<rpm>0.00</rpm>
</extensions>
</trkpt>
<trkpt lat="64.325302124" lon="-20.129329681">
<ele>218.742188</ele>
<time>2012-07-20T12:07:14Z</time>
<speed>0.010000</speed>
<extensions>
<speed>0.0</speed>
<temp>0.00</temp>
<bpm>0</bpm>
<rpm>0.00</rpm>
</extensions>
</trkpt>
<trkpt lat="64.325302124" lon="-20.129329681">
<ele>218.730469</ele>
<time>2012-07-20T12:07:19Z</time>
<speed>0.020000</speed>
<extensions>
<speed>0.0</speed>
<temp>0.00</temp>
<bpm>0</bpm>
<rpm>0.00</rpm>
</extensions>
</trkpt>
<trkpt lat="64.325309753" lon="-20.129327774">
<ele>218.714844</ele>
<time>2012-07-20T12:07:24Z</time>
<speed>0.020000</speed>
<extensions>
<speed>0.0</speed>
<temp>0.00</temp>
<bpm>0</bpm>
<rpm>0.00</rpm>
</extensions>
</trkpt>
<trkpt lat="64.325309753" lon="-20.129327774">
<ele>218.695313</ele>
<time>2012-07-20T12:07:29Z</time>
<speed>0.020000</speed>
<extensions>
<speed>0.0</speed>
<temp>0.00</temp>
<bpm>0</bpm>
<rpm>0.00</rpm>
</extensions>
</trkpt>
<trkpt lat="64.325309753" lon="-20.129325867">
<ele>218.679688</ele>
<time>2012-07-20T12:07:34Z</time>
<speed>0.010000</speed>
<extensions>
<speed>0.0</speed>
<temp>0.00</temp>
<bpm>0</bpm>
<rpm>0.00</rpm>
</extensions>
</trkpt>
<trkpt lat="64.325309753" lon="-20.129325867">
<ele>218.679688</ele>
<time>2012-07-20T12:07:39Z</time>
<speed>0.010000</speed>
<extensions>
<speed>0.0</speed>
<temp>0.00</temp>
<bpm>0</bpm>
<rpm>0.00</rpm>
</extensions>
</trkpt>
<trkpt lat="64.325309753" lon="-20.129323959">
<ele>218.679688</ele>
<time>2012-07-20T12:07:44Z</time>
<speed>0.030000</speed>
<extensions>
<speed>0.0</speed>
<temp>0.00</temp>
<bpm>0</bpm>
<rpm>0.00</rpm>
</extensions>
</trkpt>
<trkpt lat="64.325309753" lon="-20.129323959">
<ele>218.679688</ele>
<time>2012-07-20T12:07:49Z</time>
<speed>0.020000</speed>
<extensions>
<speed>0.0</speed>
<temp>0.00</temp>
<bpm>0</bpm>
<rpm>0.00</rpm>
</extensions>
</trkpt>
<trkpt lat="64.325309753" lon="-20.129322052">
<ele>218.683594</ele>
<time>2012-07-20T12:07:54Z</time>
<speed>0.030000</speed>
<extensions>
<speed>0.0</speed>
<temp>0.00</temp>
<bpm>0</bpm>
<rpm>0.00</rpm>
</extensions>
</trkpt>
<trkpt lat="64.325309753" lon="-20.129320145">
<ele>218.710938</ele>
<time>2012-07-20T12:07:59Z</time>
<speed>0.010000</speed>
<extensions>
<speed>0.0</speed>
<temp>0.00</temp>
<bpm>0</bpm>
<rpm>0.00</rpm>
</extensions>
</trkpt>
<trkpt lat="64.325309753" lon="-20.129320145">
<ele>218.730469</ele>
<time>2012-07-20T12:08:04Z</time>
<speed>0.040000</speed>
<extensions>
<speed>0.0</speed>
<temp>0.00</temp>
<bpm>0</bpm>
<rpm>0.00</rpm>
</extensions>
</trkpt>
<trkpt lat="64.325309753" lon="-20.129318237">
<ele>218.765625</ele>
<time>2012-07-20T12:08:09Z</time>
<speed>0.010000</speed>
<extensions>
<speed>0.0</speed>
<temp>0.00</temp>
<bpm>0</bpm>
<rpm>0.00</rpm>
</extensions>
</trkpt>
<trkpt lat="64.325309753" lon="-20.129316330">
<ele>218.777344</ele>
<time>2012-07-20T12:08:14Z</time>
<speed>0.010000</speed>
<extensions>
<speed>0.0</speed>
<temp>0.00</temp>
<bpm>0</bpm>
<rpm>0.00</rpm>
</extensions>
</trkpt>
<trkpt lat="64.325309753" lon="-20.129316330">
<ele>218.808594</ele>
<time>2012-07-20T12:08:19Z</time>
<speed>0.040000</speed>
<extensions>
<speed>0.0</speed>
<temp>0.00</temp>
<bpm>0</bpm>
<rpm>0.00</rpm>
</extensions>
</trkpt>
<trkpt lat="64.325309753" lon="-20.129316330">
<ele>218.812500</ele>
<time>2012-07-20T12:08:24Z</time>
<speed>0.020000</speed>
<extensions>
<speed>0.0</speed>
<temp>0.00</temp>
<bpm>0</bpm>
<rpm>0.00</rpm>
</extensions>
</trkpt>
<trkpt lat="64.325309753" lon="-20.129314423">
<ele>218.835938</ele>
<time>2012-07-20T12:08:29Z</time>
<speed>0.020000</speed>
<extensions>
<speed>0.0</speed>
<temp>0.00</temp>
<bpm>0</bpm>
<rpm>0.00</rpm>
</extensions>
</trkpt>
<trkpt lat="64.325309753" lon="-20.129312515">
<ele>218.875000</ele>
<time>2012-07-20T12:08:34Z</time>
<speed>0.020000</speed>
<extensions>
<speed>0.0</speed>
<temp>0.00</temp>
<bpm>0</bpm>
<rpm>0.00</rpm>
</extensions>
</trkpt>
<trkpt lat="64.325309753" lon="-20.129312515">
<ele>218.898438</ele>
<time>2012-07-20T12:08:39Z</time>
<speed>0.010000</speed>
<extensions>
<speed>0.0</speed>
<temp>0.00</temp>
<bpm>0</bpm>
<rpm>0.00</rpm>
</extensions>
</trkpt>
<trkpt lat="64.325309753" lon="-20.129312515">
<ele>218.941406</ele>
<time>2012-07-20T12:08:44Z</time>
<extensions>
<speed>0.0</speed>
<temp>0.00</temp>
<bpm>0</bpm>
<rpm>0.00</rpm>
</extensions>
</trkpt>
<trkpt lat="64.325309753" lon="-20.129310608">
<ele>218.964844</ele>
<time>2012-07-20T12:08:49Z</time>
<speed>0.010000</speed>
<extensions>
<speed>0.0</speed>
<temp>0.00</temp>
<bpm>0</bpm>
<rpm>0.00</rpm>
</extensions>
</trkpt>
<trkpt lat="64.325309753" lon="-20.129310608">
<ele>218.996094</ele>
<time>2012-07-20T12:08:54Z</time>
<extensions>
<speed>0.0</speed>
<temp>0.00</temp>
<bpm>0</bpm>
<rpm>0.00</rpm>
</extensions>
</trkpt>
<trkpt lat="64.325309753" lon="-20.129310608">
<ele>219.011719</ele>
<time>2012-07-20T12:08:59Z</time>
<speed>0.030000</speed>
<extensions>
<speed>0.0</speed>
<temp>0.00</temp>
<bpm>0</bpm>
<rpm>0.00</rpm>
</extensions>
</trkpt>
<trkpt lat="64.325309753" lon="-20.129308701">
<ele>219.058594</ele>
<time>2012-07-20T12:09:04Z</time>
<extensions>
<speed>0.0</speed>
<temp>0.00</temp>
<bpm>0</bpm>
<rpm>0.00</rpm>
</extensions>
</trkpt>
<trkpt lat="64.325309753" lon="-20.129308701">
<ele>219.140625</ele>
<time>2012-07-20T12:09:09Z</time>
<speed>0.010000</speed>
<extensions>
<speed>0.0</speed>
<temp>0.00</temp>
<bpm>0</bpm>
<rpm>0.00</rpm>
</extensions>
</trkpt>
<trkpt lat="64.325309753" lon="-20.129308701">
<ele>219.187500</ele>
<time>2012-07-20T12:09:14Z</time>
<speed>0.020000</speed>
<extensions>
<speed>0.0</speed>
<temp>0.00</temp>
<bpm>0</bpm>
<rpm>0.00</rpm>
</extensions>
</trkpt>
<trkpt lat="64.325309753" lon="-20.129308701">
<ele>219.226563</ele>
<time>2012-07-20T12:09:19Z</time>
<speed>0.030000</speed>
<extensions>
<speed>0.0</speed>
<temp>0.00</temp>
<bpm>0</bpm>
<rpm>0.00</rpm>
</extensions>
</trkpt>
<trkpt lat="64.325309753" lon="-20.129306793">
<ele>219.269531</ele>
<time>2012-07-20T12:09:24Z</time>
<speed>0.030000</speed>
<extensions>
<speed>0.0</speed>
<temp>0.00</temp>
<bpm>0</bpm>
<rpm>0.00</rpm>
</extensions>
</trkpt>
<trkpt lat="64.325317383" lon="-20.129306793">
<ele>219.316406</ele>
<time>2012-07-20T12:09:29Z</time>
<speed>0.030000</speed>
<extensions>
<speed>0.0</speed>
<temp>0.00</temp>
<bpm>0</bpm>
<rpm>0.00</rpm>
</extensions>
</trkpt>
<trkpt lat="64.325317383" lon="-20.129306793">
<ele>219.347656</ele>
<time>2012-07-20T12:09:34Z</time>
<speed>0.020000</speed>
<extensions>
<speed>0.0</speed>
<temp>0.00</temp>
<bpm>0</bpm>
<rpm>0.00</rpm>
</extensions>
</trkpt>
<trkpt lat="64.325317383" lon="-20.129306793">
<ele>219.394531</ele>
<time>2012-07-20T12:09:39Z</time>
<speed>0.010000</speed>
<extensions>
<speed>0.0</speed>
<temp>0.00</temp>
<bpm>0</bpm>
<rpm>0.00</rpm>
</extensions>
</trkpt>
<trkpt lat="64.325317383" lon="-20.129306793">
<ele>219.472656</ele>
<time>2012-07-20T12:09:44Z</time>
<speed>0.030000</speed>
<extensions>
<speed>0.0</speed>
<temp>0.00</temp>
<bpm>0</bpm>
<rpm>0.00</rpm>
</extensions>
</trkpt>
<trkpt lat="64.325317383" lon="-20.129304886">
<ele>219.519531</ele>
<time>2012-07-20T12:09:49Z</time>
<extensions>
<speed>0.0</speed>
<temp>0.00</temp>
<bpm>0</bpm>
<rpm>0.00</rpm>
</extensions>
</trkpt>
<trkpt lat="64.325317383" lon="-20.129304886">
<ele>219.566406</ele>
<time>2012-07-20T12:09:54Z</time>
<speed>0.050000</speed>
<extensions>
<speed>0.1</speed>
<temp>0.00</temp>
<bpm>0</bpm>
<rpm>0.00</rpm>
</extensions>
</trkpt>
<trkpt lat="64.325317383" lon="-20.129304886">
<ele>219.593750</ele>
<time>2012-07-20T12:09:59Z</time>
<speed>0.020000</speed>
<extensions>
<speed>0.0</speed>
<temp>0.00</temp>
<bpm>0</bpm>
<rpm>0.00</rpm>
</extensions>
</trkpt>
<trkpt lat="64.325317383" lon="-20.129304886">
<ele>219.597656</ele>
<time>2012-07-20T12:10:04Z</time>
<speed>0.020000</speed>
<extensions>
<speed>0.0</speed>
<temp>0.00</temp>
<bpm>0</bpm>
<rpm>0.00</rpm>
</extensions>
</trkpt>
<trkpt lat="64.325317383" lon="-20.129304886">
<ele>219.613281</ele>
<time>2012-07-20T12:10:09Z</time>
<speed>0.040000</speed>
<extensions>
<speed>0.0</speed>
<temp>0.00</temp>
<bpm>0</bpm>
<rpm>0.00</rpm>
</extensions>
</trkpt>
<trkpt lat="64.325317383" lon="-20.129304886">
<ele>219.617188</ele>
<time>2012-07-20T12:10:14Z</time>
<speed>0.030000</speed>
<extensions>
<speed>0.0</speed>
<temp>0.00</temp>
<bpm>0</bpm>
<rpm>0.00</rpm>
</extensions>
</trkpt>
<trkpt lat="64.325317383" lon="-20.129304886">
<ele>219.621094</ele>
<time>2012-07-20T12:10:19Z</time>
<extensions>
<speed>0.0</speed>
<temp>0.00</temp>
<bpm>0</bpm>
<rpm>0.00</rpm>
</extensions>
</trkpt>
<trkpt lat="64.325317383" lon="-20.129304886">
<ele>219.585938</ele>
<time>2012-07-20T12:10:24Z</time>
<speed>0.020000</speed>
<extensions>
<speed>0.0</speed>
<temp>0.00</temp>
<bpm>0</bpm>
<rpm>0.00</rpm>
</extensions>
</trkpt>
<trkpt lat="64.325317383" lon="-20.129304886">
<ele>219.562500</ele>
<time>2012-07-20T12:10:29Z</time>
<extensions>
<speed>0.0</speed>
<temp>0.00</temp>
<bpm>0</bpm>
<rpm>0.00</rpm>
</extensions>
</trkpt>
<trkpt lat="64.325317383" lon="-20.129304886">
<ele>219.546875</ele>
<time>2012-07-20T12:10:34Z</time>
<extensions>
<speed>0.0</speed>
<temp>0.00</temp>
<bpm>0</bpm>
<rpm>0.00</rpm>
</extensions>
</trkpt>
<trkpt lat="64.325317383" lon="-20.129304886">
<ele>219.496094</ele>
<time>2012-07-20T12:10:39Z</time>
<speed>0.020000</speed>
<extensions>
<speed>0.0</speed>
<temp>0.00</temp>
<bpm>0</bpm>
<rpm>0.00</rpm>
</extensions>
</trkpt>
<trkpt lat="64.325317383" lon="-20.129306793">
<ele>219.453125</ele>
<time>2012-07-20T12:10:44Z</time>
<speed>0.010000</speed>
<extensions>
<speed>0.0</speed>
<temp>0.00</temp>
<bpm>0</bpm>
<rpm>0.00</rpm>
</extensions>
</trkpt>
<trkpt lat="64.325317383" lon="-20.129306793">
<ele>219.390625</ele>
<time>2012-07-20T12:10:49Z</time>
<extensions>
<speed>0.0</speed>
<temp>0.00</temp>
<bpm>0</bpm>
<rpm>0.00</rpm>
</extensions>
</trkpt>
<trkpt lat="64.325317383" lon="-20.129306793">
<ele>219.328125</ele>
<time>2012-07-20T12:10:54Z</time>
<speed>0.010000</speed>
<extensions>
<speed>0.0</speed>
<temp>0.00</temp>
<bpm>0</bpm>
<rpm>0.00</rpm>
</extensions>
</trkpt>
<trkpt lat="64.325317383" lon="-20.129308701">
<ele>219.285156</ele>
<time>2012-07-20T12:10:59Z</time>
<speed>0.010000</speed>
<extensions>
<speed>0.0</speed>
<temp>0.00</temp>
<bpm>0</bpm>
<rpm>0.00</rpm>
</extensions>
</trkpt>
<trkpt lat="64.325317383" lon="-20.129308701">
<ele>219.238281</ele>
<time>2012-07-20T12:11:04Z</time>
<speed>0.020000</speed>
<extensions>
<speed>0.0</speed>
<temp>0.00</temp>
<bpm>0</bpm>
<rpm>0.00</rpm>
</extensions>
</trkpt>
<trkpt lat="64.325317383" lon="-20.129308701">
<ele>219.179688</ele>
<time>2012-07-20T12:11:09Z</time>
<extensions>
<speed>0.0</speed>
<temp>0.00</temp>
<bpm>0</bpm>
<rpm>0.00</rpm>
</extensions>
</trkpt>
<trkpt lat="64.325317383" lon="-20.129308701">
<ele>219.136719</ele>
<time>2012-07-20T12:11:14Z</time>
<extensions>
<speed>0.0</speed>
<temp>0.00</temp>
<bpm>0</bpm>
<rpm>0.00</rpm>
</extensions>
</trkpt>
<trkpt lat="64.325317383" lon="-20.129310608">
<ele>219.117188</ele>
<time>2012-07-20T12:11:19Z</time>
<speed>0.010000</speed>
<extensions>
<speed>0.0</speed>
<temp>0.00</temp>
<bpm>0</bpm>
<rpm>0.00</rpm>
</extensions>
</trkpt>
<trkpt lat="64.325317383" lon="-20.129310608">
<ele>219.105469</ele>
<time>2012-07-20T12:11:24Z</time>
<extensions>
<speed>0.0</speed>
<temp>0.00</temp>
<bpm>0</bpm>
<rpm>0.00</rpm>
</extensions>
</trkpt>
<trkpt lat="64.325317383" lon="-20.129310608">
<ele>219.105469</ele>
<time>2012-07-20T12:11:29Z</time>
<speed>0.010000</speed>
<extensions>
<speed>0.0</speed>
<temp>0.00</temp>
<bpm>0</bpm>
<rpm>0.00</rpm>
</extensions>
</trkpt>
<trkpt lat="64.325317383" lon="-20.129310608">
<ele>219.085938</ele>
<time>2012-07-20T12:11:34Z</time>
<speed>0.010000</speed>
<extensions>
<speed>0.0</speed>
<temp>0.00</temp>
<bpm>0</bpm>
<rpm>0.00</rpm>
</extensions>
</trkpt>
<trkpt lat="64.325317383" lon="-20.129310608">
<ele>219.054688</ele>
<time>2012-07-20T12:11:39Z</time>
<extensions>
<speed>0.0</speed>
<temp>0.00</temp>
<bpm>0</bpm>
<rpm>0.00</rpm>
</extensions>
</trkpt>
<trkpt lat="64.325317383" lon="-20.129310608">
<ele>218.996094</ele>
<time>2012-07-20T12:11:44Z</time>
<speed>0.030000</speed>
<extensions>
<speed>0.0</speed>
<temp>0.00</temp>
<bpm>0</bpm>
<rpm>0.00</rpm>
</extensions>
</trkpt>
<trkpt lat="64.325317383" lon="-20.129312515">
<ele>218.957031</ele>
<time>2012-07-20T12:11:49Z</time>
<speed>0.010000</speed>
<extensions>
<speed>0.0</speed>
<temp>0.00</temp>
<bpm>0</bpm>
<rpm>0.00</rpm>
</extensions>
</trkpt>
<trkpt lat="64.325317383" lon="-20.129312515">
<ele>218.910156</ele>
<time>2012-07-20T12:11:54Z</time>
<extensions>
<speed>0.0</speed>
<temp>0.00</temp>
<bpm>0</bpm>
<rpm>0.00</rpm>
</extensions>
</trkpt>
<trkpt lat="64.325317383" lon="-20.129312515">
<ele>218.875000</ele>
<time>2012-07-20T12:11:59Z</time>
<speed>0.020000</speed>
<extensions>
<speed>0.0</speed>
<temp>0.00</temp>
<bpm>0</bpm>
<rpm>0.00</rpm>
</extensions>
</trkpt>
<trkpt lat="64.325317383" lon="-20.129314423">
<ele>218.863281</ele>
<time>2012-07-20T12:12:04Z</time>
<speed>0.020000</speed>
<extensions>
<speed>0.0</speed>
<temp>0.00</temp>
<bpm>0</bpm>
<rpm>0.00</rpm>
</extensions>
</trkpt>
<trkpt lat="64.325317383" lon="-20.129314423">
<ele>218.785156</ele>
<time>2012-07-20T12:12:09Z</time>
<speed>0.030000</speed>
<extensions>
<speed>0.0</speed>
<temp>0.00</temp>
<bpm>0</bpm>
<rpm>0.00</rpm>
</extensions>
</trkpt>
<trkpt lat="64.325309753" lon="-20.129314423">
<ele>218.722656</ele>
<time>2012-07-20T12:12:14Z</time>
<speed>0.040000</speed>
<extensions>
<speed>0.0</speed>
<temp>0.00</temp>
<bpm>0</bpm>
<rpm>0.00</rpm>
</extensions>
</trkpt>
<trkpt lat="64.325309753" lon="-20.129316330">
<ele>218.671875</ele>
<time>2012-07-20T12:12:19Z</time>
<speed>0.050000</speed>
<extensions>
<speed>0.1</speed>
<temp>0.00</temp>
<bpm>0</bpm>
<rpm>0.00</rpm>
</extensions>
</trkpt>
<trkpt lat="64.325309753" lon="-20.129316330">
<ele>218.613281</ele>
<time>2012-07-20T12:12:24Z</time>
<extensions>
<speed>0.0</speed>
<temp>0.00</temp>
<bpm>0</bpm>
<rpm>0.00</rpm>
</extensions>
</trkpt>
<trkpt lat="64.325309753" lon="-20.129316330">
<ele>218.578125</ele>
<time>2012-07-20T12:12:29Z</time>
<extensions>
<speed>0.0</speed>
<temp>0.00</temp>
<bpm>0</bpm>
<rpm>0.00</rpm>
</extensions>
</trkpt>
<trkpt lat="64.325309753" lon="-20.129316330">
<ele>218.550781</ele>
<time>2012-07-20T12:12:34Z</time>
<speed>0.010000</speed>
<extensions>
<speed>0.0</speed>
<temp>0.00</temp>
<bpm>0</bpm>
<rpm>0.00</rpm>
</extensions>
</trkpt>
<trkpt lat="64.325309753" lon="-20.129316330">
<ele>218.535156</ele>
<time>2012-07-20T12:12:39Z</time>
<extensions>
<speed>0.0</speed>
<temp>0.00</temp>
<bpm>0</bpm>
<rpm>0.00</rpm>
</extensions>
</trkpt>
<trkpt lat="64.325309753" lon="-20.129316330">
<ele>218.507813</ele>
<time>2012-07-20T12:12:44Z</time>
<extensions>
<speed>0.0</speed>
<temp>0.00</temp>
<bpm>0</bpm>
<rpm>0.00</rpm>
</extensions>
</trkpt>
<trkpt lat="64.325309753" lon="-20.129316330">
<ele>218.468750</ele>
<time>2012-07-20T12:12:49Z</time>
<extensions>
<speed>0.0</speed>
<temp>0.00</temp>
<bpm>0</bpm>
<rpm>0.00</rpm>
</extensions>
</trkpt>
<trkpt lat="64.325309753" lon="-20.129316330">
<ele>218.449219</ele>
<time>2012-07-20T12:12:54Z</time>
<extensions>
<speed>0.0</speed>
<temp>0.00</temp>
<bpm>0</bpm>
<rpm>0.00</rpm>
</extensions>
</trkpt>
<trkpt lat="64.325309753" lon="-20.129316330">
<ele>218.429688</ele>
<time>2012-07-20T12:12:59Z</time>
<extensions>
<speed>0.0</speed>
<temp>0.00</temp>
<bpm>0</bpm>
<rpm>0.00</rpm>
</extensions>
</trkpt>
<trkpt lat="64.325309753" lon="-20.129316330">
<ele>218.402344</ele>
<time>2012-07-20T12:13:04Z</time>
<speed>0.010000</speed>
<extensions>
<speed>0.0</speed>
<temp>0.00</temp>
<bpm>0</bpm>
<rpm>0.00</rpm>
</extensions>
</trkpt>
<trkpt lat="64.325309753" lon="-20.129316330">
<ele>218.371094</ele>
<time>2012-07-20T12:13:09Z</time>
<extensions>
<speed>0.0</speed>
<temp>0.00</temp>
<bpm>0</bpm>
<rpm>0.00</rpm>
</extensions>
</trkpt>
<trkpt lat="64.325309753" lon="-20.129318237">
<ele>218.304688</ele>
<time>2012-07-20T12:13:14Z</time>
<speed>0.010000</speed>
<extensions>
<speed>0.0</speed>
<temp>0.00</temp>
<bpm>0</bpm>
<rpm>0.00</rpm>
</extensions>
</trkpt>
<trkpt lat="64.325309753" lon="-20.129318237">
<ele>218.269531</ele>
<time>2012-07-20T12:13:19Z</time>
<speed>0.010000</speed>
<extensions>
<speed>0.0</speed>
<temp>0.00</temp>
<bpm>0</bpm>
<rpm>0.00</rpm>
</extensions>
</trkpt>
<trkpt lat="64.325309753" lon="-20.129318237">
<ele>218.218750</ele>
<time>2012-07-20T12:13:24Z</time>
<speed>0.010000</speed>
<extensions>
<speed>0.0</speed>
<temp>0.00</temp>
<bpm>0</bpm>
<rpm>0.00</rpm>
</extensions>
</trkpt>
<trkpt lat="64.325309753" lon="-20.129318237">
<ele>218.148438</ele>
<time>2012-07-20T12:13:29Z</time>
<speed>0.010000</speed>
<extensions>
<speed>0.0</speed>
<temp>0.00</temp>
<bpm>0</bpm>
<rpm>0.00</rpm>
</extensions>
</trkpt>
<trkpt lat="64.325309753" lon="-20.129318237">
<ele>218.062500</ele>
<time>2012-07-20T12:13:34Z</time>
<speed>0.010000</speed>
<extensions>
<speed>0.0</speed>
<temp>0.00</temp>
<bpm>0</bpm>
<rpm>0.00</rpm>
</extensions>
</trkpt>
<trkpt lat="64.325309753" lon="-20.129320145">
<ele>217.984375</ele>
<time>2012-07-20T12:13:39Z</time>
<speed>0.010000</speed>
<extensions>
<speed>0.0</speed>
<temp>0.00</temp>
<bpm>0</bpm>
<rpm>0.00</rpm>
</extensions>
</trkpt>
<trkpt lat="64.325309753" lon="-20.129320145">
<ele>217.906250</ele>
<time>2012-07-20T12:13:44Z</time>
<extensions>
<speed>0.0</speed>
<temp>0.00</temp>
<bpm>0</bpm>
<rpm>0.00</rpm>
</extensions>
</trkpt>
<trkpt lat="64.325302124" lon="-20.129320145">
<ele>217.847656</ele>
<time>2012-07-20T12:13:49Z</time>
<extensions>
<speed>0.0</speed>
<temp>0.00</temp>
<bpm>0</bpm>
<rpm>0.00</rpm>
</extensions>
</trkpt>
<trkpt lat="64.325302124" lon="-20.129322052">
<ele>217.785156</ele>
<time>2012-07-20T12:13:54Z</time>
<speed>0.020000</speed>
<extensions>
<speed>0.0</speed>
<temp>0.00</temp>
<bpm>0</bpm>
<rpm>0.00</rpm>
</extensions>
</trkpt>
<trkpt lat="64.325302124" lon="-20.129322052">
<ele>217.718750</ele>
<time>2012-07-20T12:13:59Z</time>
<speed>0.010000</speed>
<extensions>
<speed>0.0</speed>
<temp>0.00</temp>
<bpm>0</bpm>
<rpm>0.00</rpm>
</extensions>
</trkpt>
<trkpt lat="64.325302124" lon="-20.129322052">
<ele>217.675781</ele>
<time>2012-07-20T12:14:04Z</time>
<speed>0.010000</speed>
<extensions>
<speed>0.0</speed>
<temp>0.00</temp>
<bpm>0</bpm>
<rpm>0.00</rpm>
</extensions>
</trkpt>
<trkpt lat="64.325302124" lon="-20.129322052">
<ele>217.644531</ele>
<time>2012-07-20T12:14:09Z</time>
<speed>0.020000</speed>
<extensions>
<speed>0.0</speed>
<temp>0.00</temp>
<bpm>0</bpm>
<rpm>0.00</rpm>
</extensions>
</trkpt>
<trkpt lat="64.325302124" lon="-20.129323959">
<ele>217.625000</ele>
<time>2012-07-20T12:14:14Z</time>
<speed>0.010000</speed>
<extensions>
<speed>0.0</speed>
<temp>0.00</temp>
<bpm>0</bpm>
<rpm>0.00</rpm>
</extensions>
</trkpt>
<trkpt lat="64.325302124" lon="-20.129323959">
<ele>217.609375</ele>
<time>2012-07-20T12:14:19Z</time>
<extensions>
<speed>0.0</speed>
<temp>0.00</temp>
<bpm>0</bpm>
<rpm>0.00</rpm>
</extensions>
</trkpt>
<trkpt lat="64.325302124" lon="-20.129323959">
<ele>217.589844</ele>
<time>2012-07-20T12:14:24Z</time>
<extensions>
<speed>0.0</speed>
<temp>0.00</temp>
<bpm>0</bpm>
<rpm>0.00</rpm>
</extensions>
</trkpt>
<trkpt lat="64.325302124" lon="-20.129323959">
<ele>217.593750</ele>
<time>2012-07-20T12:14:29Z</time>
<extensions>
<speed>0.0</speed>
<temp>0.00</temp>
<bpm>0</bpm>
<rpm>0.00</rpm>
</extensions>
</trkpt>
<trkpt lat="64.325302124" lon="-20.129323959">
<ele>217.554688</ele>
<time>2012-07-20T12:14:34Z</time>
<speed>0.010000</speed>
<extensions>
<speed>0.0</speed>
<temp>0.00</temp>
<bpm>0</bpm>
<rpm>0.00</rpm>
</extensions>
</trkpt>
<trkpt lat="64.325302124" lon="-20.129323959">
<ele>217.539063</ele>
<time>2012-07-20T12:14:39Z</time>
<extensions>
<speed>0.0</speed>
<temp>0.00</temp>
<bpm>0</bpm>
<rpm>0.00</rpm>
</extensions>
</trkpt>
<trkpt lat="64.325302124" lon="-20.129323959">
<ele>217.535156</ele>
<time>2012-07-20T12:14:44Z</time>
<extensions>
<speed>0.0</speed>
<temp>0.00</temp>
<bpm>0</bpm>
<rpm>0.00</rpm>
</extensions>
</trkpt>
<trkpt lat="64.325302124" lon="-20.129323959">
<ele>217.539063</ele>
<time>2012-07-20T12:14:49Z</time>
<extensions>
<speed>0.0</speed>
<temp>0.00</temp>
<bpm>0</bpm>
<rpm>0.00</rpm>
</extensions>
</trkpt>
<trkpt lat="64.325302124" lon="-20.129323959">
<ele>217.550781</ele>
<time>2012-07-20T12:14:54Z</time>
<speed>0.020000</speed>
<extensions>
<speed>0.0</speed>
<temp>0.00</temp>
<bpm>0</bpm>
<rpm>0.00</rpm>
</extensions>
</trkpt>
<trkpt lat="64.325302124" lon="-20.129322052">
<ele>217.558594</ele>
<time>2012-07-20T12:14:59Z</time>
<speed>0.010000</speed>
<extensions>
<speed>0.0</speed>
<temp>0.00</temp>
<bpm>0</bpm>
<rpm>0.00</rpm>
</extensions>
</trkpt>
<trkpt lat="64.325302124" lon="-20.129322052">
<ele>217.566406</ele>
<time>2012-07-20T12:15:04Z</time>
<speed>0.010000</speed>
<extensions>
<speed>0.0</speed>
<temp>0.00</temp>
<bpm>0</bpm>
<rpm>0.00</rpm>
</extensions>
</trkpt>
<trkpt lat="64.325302124" lon="-20.129323959">
<ele>217.585938</ele>
<time>2012-07-20T12:15:09Z</time>
<speed>0.010000</speed>
<extensions>
<speed>0.0</speed>
<temp>0.00</temp>
<bpm>0</bpm>
<rpm>0.00</rpm>
</extensions>
</trkpt>
<trkpt lat="64.325302124" lon="-20.129323959">
<ele>217.605469</ele>
<time>2012-07-20T12:15:14Z</time>
<extensions>
<speed>0.0</speed>
<temp>0.00</temp>
<bpm>0</bpm>
<rpm>0.00</rpm>
</extensions>
</trkpt>
<trkpt lat="64.325302124" lon="-20.129323959">
<ele>217.621094</ele>
<time>2012-07-20T12:15:19Z</time>
<extensions>
<speed>0.0</speed>
<temp>0.00</temp>
<bpm>0</bpm>
<rpm>0.00</rpm>
</extensions>
</trkpt>
<trkpt lat="64.325302124" lon="-20.129323959">
<ele>217.625000</ele>
<time>2012-07-20T12:15:24Z</time>
<speed>0.020000</speed>
<extensions>
<speed>0.0</speed>
<temp>0.00</temp>
<bpm>0</bpm>
<rpm>0.00</rpm>
</extensions>
</trkpt>
<trkpt lat="64.325302124" lon="-20.129323959">
<ele>217.660156</ele>
<time>2012-07-20T12:15:29Z</time>
<speed>0.010000</speed>
<extensions>
<speed>0.0</speed>
<temp>0.00</temp>
<bpm>0</bpm>
<rpm>0.00</rpm>
</extensions>
</trkpt>
<trkpt lat="64.325309753" lon="-20.129323959">
<ele>217.679688</ele>
<time>2012-07-20T12:15:34Z</time>
<speed>0.010000</speed>
<extensions>
<speed>0.0</speed>
<temp>0.00</temp>
<bpm>0</bpm>
<rpm>0.00</rpm>
</extensions>
</trkpt>
<trkpt lat="64.325309753" lon="-20.129323959">
<ele>217.703125</ele>
<time>2012-07-20T12:15:39Z</time>
<extensions>
<speed>0.0</speed>
<temp>0.00</temp>
<bpm>0</bpm>
<rpm>0.00</rpm>
</extensions>
</trkpt>
<trkpt lat="64.325309753" lon="-20.129323959">
<ele>217.714844</ele>
<time>2012-07-20T12:15:44Z</time>
<extensions>
<speed>0.0</speed>
<temp>0.00</temp>
<bpm>0</bpm>
<rpm>0.00</rpm>
</extensions>
</trkpt>
<trkpt lat="64.325309753" lon="-20.129323959">
<ele>217.730469</ele>
<time>2012-07-20T12:15:49Z</time>
<extensions>
<speed>0.0</speed>
<temp>0.00</temp>
<bpm>0</bpm>
<rpm>0.00</rpm>
</extensions>
</trkpt>
<trkpt lat="64.325309753" lon="-20.129323959">
<ele>217.730469</ele>
<time>2012-07-20T12:15:54Z</time>
<speed>0.020000</speed>
<extensions>
<speed>0.0</speed>
<temp>0.00</temp>
<bpm>0</bpm>
<rpm>0.00</rpm>
</extensions>
</trkpt>
<trkpt lat="64.325309753" lon="-20.129323959">
<ele>217.742188</ele>
<time>2012-07-20T12:15:59Z</time>
<extensions>
<speed>0.0</speed>
<temp>0.00</temp>
<bpm>0</bpm>
<rpm>0.00</rpm>
</extensions>
</trkpt>
<trkpt lat="64.325309753" lon="-20.129322052">
<ele>217.769531</ele>
<time>2012-07-20T12:16:04Z</time>
<speed>0.020000</speed>
<extensions>
<speed>0.0</speed>
<temp>0.00</temp>
<bpm>0</bpm>
<rpm>0.00</rpm>
</extensions>
</trkpt>
<trkpt lat="64.325309753" lon="-20.129322052">
<ele>217.785156</ele>
<time>2012-07-20T12:16:09Z</time>
<extensions>
<speed>0.0</speed>
<temp>0.00</temp>
<bpm>0</bpm>
<rpm>0.00</rpm>
</extensions>
</trkpt>
<trkpt lat="64.325309753" lon="-20.129322052">
<ele>217.800781</ele>
<time>2012-07-20T12:16:14Z</time>
<speed>0.010000</speed>
<extensions>
<speed>0.0</speed>
<temp>0.00</temp>
<bpm>0</bpm>
<rpm>0.00</rpm>
</extensions>
</trkpt>
<trkpt lat="64.325309753" lon="-20.129322052">
<ele>217.816406</ele>
<time>2012-07-20T12:16:19Z</time>
<speed>0.010000</speed>
<extensions>
<speed>0.0</speed>
<temp>0.00</temp>
<bpm>0</bpm>
<rpm>0.00</rpm>
</extensions>
</trkpt>
<trkpt lat="64.325309753" lon="-20.129322052">
<ele>217.820313</ele>
<time>2012-07-20T12:16:24Z</time>
<extensions>
<speed>0.0</speed>
<temp>0.00</temp>
<bpm>0</bpm>
<rpm>0.00</rpm>
</extensions>
</trkpt>
<trkpt lat="64.325309753" lon="-20.129320145">
<ele>217.832031</ele>
<time>2012-07-20T12:16:29Z</time>
<speed>0.030000</speed>
<extensions>
<speed>0.0</speed>
<temp>0.00</temp>
<bpm>0</bpm>
<rpm>0.00</rpm>
</extensions>
</trkpt>
<trkpt lat="64.325309753" lon="-20.129320145">
<ele>217.832031</ele>
<time>2012-07-20T12:16:34Z</time>
<extensions>
<speed>0.0</speed>
<temp>0.00</temp>
<bpm>0</bpm>
<rpm>0.00</rpm>
</extensions>
</trkpt>
<trkpt lat="64.325309753" lon="-20.129320145">
<ele>217.820313</ele>
<time>2012-07-20T12:16:39Z</time>
<extensions>
<speed>0.0</speed>
<temp>0.00</temp>
<bpm>0</bpm>
<rpm>0.00</rpm>
</extensions>
</trkpt>
<trkpt lat="64.325309753" lon="-20.129320145">
<ele>217.777344</ele>
<time>2012-07-20T12:16:44Z</time>
<speed>0.020000</speed>
<extensions>
<speed>0.0</speed>
<temp>0.00</temp>
<bpm>0</bpm>
<rpm>0.00</rpm>
</extensions>
</trkpt>
<trkpt lat="64.325309753" lon="-20.129320145">
<ele>217.777344</ele>
<time>2012-07-20T12:16:49Z</time>
<speed>0.020000</speed>
<extensions>
<speed>0.0</speed>
<temp>0.00</temp>
<bpm>0</bpm>
<rpm>0.00</rpm>
</extensions>
</trkpt>
<trkpt lat="64.325309753" lon="-20.129320145">
<ele>217.796875</ele>
<time>2012-07-20T12:16:54Z</time>
<speed>0.010000</speed>
<extensions>
<speed>0.0</speed>
<temp>0.00</temp>
<bpm>0</bpm>
<rpm>0.00</rpm>
</extensions>
</trkpt>
<trkpt lat="64.325309753" lon="-20.129322052">
<ele>217.792969</ele>
<time>2012-07-20T12:16:59Z</time>
<speed>0.020000</speed>
<extensions>
<speed>0.0</speed>
<temp>0.00</temp>
<bpm>0</bpm>
<rpm>0.00</rpm>
</extensions>
</trkpt>
<trkpt lat="64.325309753" lon="-20.129322052">
<ele>217.828125</ele>
<time>2012-07-20T12:17:04Z</time>
<speed>0.010000</speed>
<extensions>
<speed>0.0</speed>
<temp>0.00</temp>
<bpm>0</bpm>
<rpm>0.00</rpm>
</extensions>
</trkpt>
<trkpt lat="64.325309753" lon="-20.129322052">
<ele>217.867188</ele>
<time>2012-07-20T12:17:09Z</time>
<speed>0.020000</speed>
<extensions>
<speed>0.0</speed>
<temp>0.00</temp>
<bpm>0</bpm>
<rpm>0.00</rpm>
</extensions>
</trkpt>
<trkpt lat="64.325309753" lon="-20.129323959">
<ele>217.906250</ele>
<time>2012-07-20T12:17:14Z</time>
<extensions>
<speed>0.0</speed>
<temp>0.00</temp>
<bpm>0</bpm>
<rpm>0.00</rpm>
</extensions>
</trkpt>
<trkpt lat="64.325309753" lon="-20.129323959">
<ele>217.937500</ele>
<time>2012-07-20T12:17:19Z</time>
<speed>0.010000</speed>
<extensions>
<speed>0.0</speed>
<temp>0.00</temp>
<bpm>0</bpm>
<rpm>0.00</rpm>
</extensions>
</trkpt>
<trkpt lat="64.325309753" lon="-20.129323959">
<ele>217.968750</ele>
<time>2012-07-20T12:17:24Z</time>
<speed>0.010000</speed>
<extensions>
<speed>0.0</speed>
<temp>0.00</temp>
<bpm>0</bpm>
<rpm>0.00</rpm>
</extensions>
</trkpt>
<trkpt lat="64.325309753" lon="-20.129325867">
<ele>217.972656</ele>
<time>2012-07-20T12:17:29Z</time>
<speed>0.010000</speed>
<extensions>
<speed>0.0</speed>
<temp>0.00</temp>
<bpm>0</bpm>
<rpm>0.00</rpm>
</extensions>
</trkpt>
<trkpt lat="64.325309753" lon="-20.129325867">
<ele>217.980469</ele>
<time>2012-07-20T12:17:34Z</time>
<speed>0.010000</speed>
<extensions>
<speed>0.0</speed>
<temp>0.00</temp>
<bpm>0</bpm>
<rpm>0.00</rpm>
</extensions>
</trkpt>
<trkpt lat="64.325309753" lon="-20.129327774">
<ele>218.007813</ele>
<time>2012-07-20T12:17:39Z</time>
<speed>0.010000</speed>
<extensions>
<speed>0.0</speed>
<temp>0.00</temp>
<bpm>0</bpm>
<rpm>0.00</rpm>
</extensions>
</trkpt>
<trkpt lat="64.325309753" lon="-20.129327774">
<ele>218.039063</ele>
<time>2012-07-20T12:17:44Z</time>
<speed>0.020000</speed>
<extensions>
<speed>0.0</speed>
<temp>0.00</temp>
<bpm>0</bpm>
<rpm>0.00</rpm>
</extensions>
</trkpt>
<trkpt lat="64.325309753" lon="-20.129327774">
<ele>218.042969</ele>
<time>2012-07-20T12:17:49Z</time>
<speed>0.010000</speed>
<extensions>
<speed>0.0</speed>
<temp>0.00</temp>
<bpm>0</bpm>
<rpm>0.00</rpm>
</extensions>
</trkpt>
<trkpt lat="64.325309753" lon="-20.129327774">
<ele>218.039063</ele>
<time>2012-07-20T12:17:54Z</time>
<extensions>
<speed>0.0</speed>
<temp>0.00</temp>
<bpm>0</bpm>
<rpm>0.00</rpm>
</extensions>
</trkpt>
<trkpt lat="64.325309753" lon="-20.129329681">
<ele>218.031250</ele>
<time>2012-07-20T12:17:59Z</time>
<extensions>
<speed>0.0</speed>
<temp>0.00</temp>
<bpm>0</bpm>
<rpm>0.00</rpm>
</extensions>
</trkpt>
<trkpt lat="64.325309753" lon="-20.129329681">
<ele>218.046875</ele>
<time>2012-07-20T12:18:04Z</time>
<extensions>
<speed>0.0</speed>
<temp>0.00</temp>
<bpm>0</bpm>
<rpm>0.00</rpm>
</extensions>
</trkpt>
<trkpt lat="64.325309753" lon="-20.129329681">
<ele>218.066406</ele>
<time>2012-07-20T12:18:09Z</time>
<speed>0.010000</speed>
<extensions>
<speed>0.0</speed>
<temp>0.00</temp>
<bpm>0</bpm>
<rpm>0.00</rpm>
</extensions>
</trkpt>
<trkpt lat="64.325309753" lon="-20.129331589">
<ele>218.113281</ele>
<time>2012-07-20T12:18:14Z</time>
<speed>0.010000</speed>
<extensions>
<speed>0.0</speed>
<temp>0.00</temp>
<bpm>0</bpm>
<rpm>0.00</rpm>
</extensions>
</trkpt>
<trkpt lat="64.325309753" lon="-20.129331589">
<ele>218.132813</ele>
<time>2012-07-20T12:18:19Z</time>
<speed>0.010000</speed>
<extensions>
<speed>0.0</speed>
<temp>0.00</temp>
<bpm>0</bpm>
<rpm>0.00</rpm>
</extensions>
</trkpt>
<trkpt lat="64.325309753" lon="-20.129333496">
<ele>218.167969</ele>
<time>2012-07-20T12:18:24Z</time>
<speed>0.010000</speed>
<extensions>
<speed>0.0</speed>
<temp>0.00</temp>
<bpm>0</bpm>
<rpm>0.00</rpm>
</extensions>
</trkpt>
<trkpt lat="64.325309753" lon="-20.129333496">
<ele>218.187500</ele>
<time>2012-07-20T12:18:29Z</time>
<extensions>
<speed>0.0</speed>
<temp>0.00</temp>
<bpm>0</bpm>
<rpm>0.00</rpm>
</extensions>
</trkpt>
<trkpt lat="64.325309753" lon="-20.129333496">
<ele>218.191406</ele>
<time>2012-07-20T12:18:34Z</time>
<speed>0.020000</speed>
<extensions>
<speed>0.0</speed>
<temp>0.00</temp>
<bpm>0</bpm>
<rpm>0.00</rpm>
</extensions>
</trkpt>
<trkpt lat="64.325309753" lon="-20.129333496">
<ele>218.203125</ele>
<time>2012-07-20T12:18:39Z</time>
<speed>0.010000</speed>
<extensions>
<speed>0.0</speed>
<temp>0.00</temp>
<bpm>0</bpm>
<rpm>0.00</rpm>
</extensions>
</trkpt>
<trkpt lat="64.325309753" lon="-20.129333496">
<ele>218.207031</ele>
<time>2012-07-20T12:18:44Z</time>
<speed>0.010000</speed>
<extensions>
<speed>0.0</speed>
<temp>0.00</temp>
<bpm>0</bpm>
<rpm>0.00</rpm>
</extensions>
</trkpt>
<trkpt lat="64.325309753" lon="-20.129333496">
<ele>218.234375</ele>
<time>2012-07-20T12:18:49Z</time>
<extensions>
<speed>0.0</speed>
<temp>0.00</temp>
<bpm>0</bpm>
<rpm>0.00</rpm>
</extensions>
</trkpt>
<trkpt lat="64.325309753" lon="-20.129335403">
<ele>218.246094</ele>
<time>2012-07-20T12:18:54Z</time>
<extensions>
<speed>0.0</speed>
<temp>0.00</temp>
<bpm>0</bpm>
<rpm>0.00</rpm>
</extensions>
</trkpt>
<trkpt lat="64.325309753" lon="-20.129335403">
<ele>218.242188</ele>
<time>2012-07-20T12:18:59Z</time>
<speed>0.010000</speed>
<extensions>
<speed>0.0</speed>
<temp>0.00</temp>
<bpm>0</bpm>
<rpm>0.00</rpm>
</extensions>
</trkpt>
<trkpt lat="64.325309753" lon="-20.129335403">
<ele>218.253906</ele>
<time>2012-07-20T12:19:04Z</time>
<extensions>
<speed>0.0</speed>
<temp>0.00</temp>
<bpm>0</bpm>
<rpm>0.00</rpm>
</extensions>
</trkpt>
<trkpt lat="64.325309753" lon="-20.129335403">
<ele>218.257813</ele>
<time>2012-07-20T12:19:09Z</time>
<speed>0.010000</speed>
<extensions>
<speed>0.0</speed>
<temp>0.00</temp>
<bpm>0</bpm>
<rpm>0.00</rpm>
</extensions>
</trkpt>
<trkpt lat="64.325309753" lon="-20.129335403">
<ele>218.269531</ele>
<time>2012-07-20T12:19:14Z</time>
<extensions>
<speed>0.0</speed>
<temp>0.00</temp>
<bpm>0</bpm>
<rpm>0.00</rpm>
</extensions>
</trkpt>
<trkpt lat="64.325309753" lon="-20.129337311">
<ele>218.281250</ele>
<time>2012-07-20T12:19:19Z</time>
<speed>0.010000</speed>
<extensions>
<speed>0.0</speed>
<temp>0.00</temp>
<bpm>0</bpm>
<rpm>0.00</rpm>
</extensions>
</trkpt>
<trkpt lat="64.325309753" lon="-20.129337311">
<ele>218.300781</ele>
<time>2012-07-20T12:19:24Z</time>
<speed>0.010000</speed>
<extensions>
<speed>0.0</speed>
<temp>0.00</temp>
<bpm>0</bpm>
<rpm>0.00</rpm>
</extensions>
</trkpt>
<trkpt lat="64.325309753" lon="-20.129337311">
<ele>218.308594</ele>
<time>2012-07-20T12:19:29Z</time>
<extensions>
<speed>0.0</speed>
<temp>0.00</temp>
<bpm>0</bpm>
<rpm>0.00</rpm>
</extensions>
</trkpt>
<trkpt lat="64.325309753" lon="-20.129337311">
<ele>218.304688</ele>
<time>2012-07-20T12:19:34Z</time>
<extensions>
<speed>0.0</speed>
<temp>0.00</temp>
<bpm>0</bpm>
<rpm>0.00</rpm>
</extensions>
</trkpt>
<trkpt lat="64.325309753" lon="-20.129337311">
<ele>218.312500</ele>
<time>2012-07-20T12:19:39Z</time>
<speed>0.010000</speed>
<extensions>
<speed>0.0</speed>
<temp>0.00</temp>
<bpm>0</bpm>
<rpm>0.00</rpm>
</extensions>
</trkpt>
<trkpt lat="64.325309753" lon="-20.129337311">
<ele>218.324219</ele>
<time>2012-07-20T12:19:44Z</time>
<speed>0.010000</speed>
<extensions>
<speed>0.0</speed>
<temp>0.00</temp>
<bpm>0</bpm>
<rpm>0.00</rpm>
</extensions>
</trkpt>
<trkpt lat="64.325309753" lon="-20.129337311">
<ele>218.324219</ele>
<time>2012-07-20T12:19:49Z</time>
<speed>0.010000</speed>
<extensions>
<speed>0.0</speed>
<temp>0.00</temp>
<bpm>0</bpm>
<rpm>0.00</rpm>
</extensions>
</trkpt>
<trkpt lat="64.325309753" lon="-20.129337311">
<ele>218.332031</ele>
<time>2012-07-20T12:19:54Z</time>
<extensions>
<speed>0.0</speed>
<temp>0.00</temp>
<bpm>0</bpm>
<rpm>0.00</rpm>
</extensions>
</trkpt>
<trkpt lat="64.325309753" lon="-20.129337311">
<ele>218.335938</ele>
<time>2012-07-20T12:19:59Z</time>
<speed>0.010000</speed>
<extensions>
<speed>0.0</speed>
<temp>0.00</temp>
<bpm>0</bpm>
<rpm>0.00</rpm>
</extensions>
</trkpt>
<trkpt lat="64.325309753" lon="-20.129337311">
<ele>218.347656</ele>
<time>2012-07-20T12:20:04Z</time>
<extensions>
<speed>0.0</speed>
<temp>0.00</temp>
<bpm>0</bpm>
<rpm>0.00</rpm>
</extensions>
</trkpt>
<trkpt lat="64.325309753" lon="-20.129337311">
<ele>218.339844</ele>
<time>2012-07-20T12:20:09Z</time>
<extensions>
<speed>0.0</speed>
<temp>0.00</temp>
<bpm>0</bpm>
<rpm>0.00</rpm>
</extensions>
</trkpt>
<trkpt lat="64.325309753" lon="-20.129337311">
<ele>218.355469</ele>
<time>2012-07-20T12:20:14Z</time>
<speed>0.010000</speed>
<extensions>
<speed>0.0</speed>
<temp>0.00</temp>
<bpm>0</bpm>
<rpm>0.00</rpm>
</extensions>
</trkpt>
<trkpt lat="64.325309753" lon="-20.129337311">
<ele>218.367188</ele>
<time>2012-07-20T12:20:19Z</time>
<extensions>
<speed>0.0</speed>
<temp>0.00</temp>
<bpm>0</bpm>
<rpm>0.00</rpm>
</extensions>
</trkpt>
<trkpt lat="64.325309753" lon="-20.129337311">
<ele>218.363281</ele>
<time>2012-07-20T12:20:24Z</time>
<speed>0.010000</speed>
<extensions>
<speed>0.0</speed>
<temp>0.00</temp>
<bpm>0</bpm>
<rpm>0.00</rpm>
</extensions>
</trkpt>
<trkpt lat="64.325309753" lon="-20.129337311">
<ele>218.355469</ele>
<time>2012-07-20T12:20:29Z</time>
<extensions>
<speed>0.0</speed>
<temp>0.00</temp>
<bpm>0</bpm>
<rpm>0.00</rpm>
</extensions>
</trkpt>
<trkpt lat="64.325309753" lon="-20.129337311">
<ele>218.339844</ele>
<time>2012-07-20T12:20:34Z</time>
<speed>0.020000</speed>
<extensions>
<speed>0.0</speed>
<temp>0.00</temp>
<bpm>0</bpm>
<rpm>0.00</rpm>
</extensions>
</trkpt>
<trkpt lat="64.325309753" lon="-20.129337311">
<ele>218.308594</ele>
<time>2012-07-20T12:20:39Z</time>
<extensions>
<speed>0.0</speed>
<temp>0.00</temp>
<bpm>0</bpm>
<rpm>0.00</rpm>
</extensions>
</trkpt>
<trkpt lat="64.325309753" lon="-20.129337311">
<ele>218.304688</ele>
<time>2012-07-20T12:20:44Z</time>
<speed>0.010000</speed>
<extensions>
<speed>0.0</speed>
<temp>0.00</temp>
<bpm>0</bpm>
<rpm>0.00</rpm>
</extensions>
</trkpt>
<trkpt lat="64.325309753" lon="-20.129337311">
<ele>218.285156</ele>
<time>2012-07-20T12:20:49Z</time>
<extensions>
<speed>0.0</speed>
<temp>0.00</temp>
<bpm>0</bpm>
<rpm>0.00</rpm>
</extensions>
</trkpt>
<trkpt lat="64.325309753" lon="-20.129337311">
<ele>218.281250</ele>
<time>2012-07-20T12:20:54Z</time>
<speed>0.020000</speed>
<extensions>
<speed>0.0</speed>
<temp>0.00</temp>
<bpm>0</bpm>
<rpm>0.00</rpm>
</extensions>
</trkpt>
<trkpt lat="64.325309753" lon="-20.129337311">
<ele>218.257813</ele>
<time>2012-07-20T12:20:59Z</time>
<speed>0.010000</speed>
<extensions>
<speed>0.0</speed>
<temp>0.00</temp>
<bpm>0</bpm>
<rpm>0.00</rpm>
</extensions>
</trkpt>
<trkpt lat="64.325309753" lon="-20.129337311">
<ele>218.234375</ele>
<time>2012-07-20T12:21:04Z</time>
<speed>0.010000</speed>
<extensions>
<speed>0.0</speed>
<temp>0.00</temp>
<bpm>0</bpm>
<rpm>0.00</rpm>
</extensions>
</trkpt>
<trkpt lat="64.325309753" lon="-20.129337311">
<ele>218.207031</ele>
<time>2012-07-20T12:21:09Z</time>
<extensions>
<speed>0.0</speed>
<temp>0.00</temp>
<bpm>0</bpm>
<rpm>0.00</rpm>
</extensions>
</trkpt>
<trkpt lat="64.325309753" lon="-20.129339218">
<ele>218.183594</ele>
<time>2012-07-20T12:21:14Z</time>
<extensions>
<speed>0.0</speed>
<temp>0.00</temp>
<bpm>0</bpm>
<rpm>0.00</rpm>
</extensions>
</trkpt>
<trkpt lat="64.325309753" lon="-20.129339218">
<ele>218.156250</ele>
<time>2012-07-20T12:21:19Z</time>
<extensions>
<speed>0.0</speed>
<temp>0.00</temp>
<bpm>0</bpm>
<rpm>0.00</rpm>
</extensions>
</trkpt>
<trkpt lat="64.325309753" lon="-20.129339218">
<ele>218.132813</ele>
<time>2012-07-20T12:21:24Z</time>
<speed>0.020000</speed>
<extensions>
<speed>0.0</speed>
<temp>0.00</temp>
<bpm>0</bpm>
<rpm>0.00</rpm>
</extensions>
</trkpt>
<trkpt lat="64.325309753" lon="-20.129339218">
<ele>218.093750</ele>
<time>2012-07-20T12:21:29Z</time>
<extensions>
<speed>0.0</speed>
<temp>0.00</temp>
<bpm>0</bpm>
<rpm>0.00</rpm>
</extensions>
</trkpt>
<trkpt lat="64.325309753" lon="-20.129341125">
<ele>218.054688</ele>
<time>2012-07-20T12:21:34Z</time>
<speed>0.010000</speed>
<extensions>
<speed>0.0</speed>
<temp>0.00</temp>
<bpm>0</bpm>
<rpm>0.00</rpm>
</extensions>
</trkpt>
<trkpt lat="64.325309753" lon="-20.129341125">
<ele>218.027344</ele>
<time>2012-07-20T12:21:39Z</time>
<extensions>
<speed>0.0</speed>
<temp>0.00</temp>
<bpm>0</bpm>
<rpm>0.00</rpm>
</extensions>
</trkpt>
<trkpt lat="64.325309753" lon="-20.129341125">
<ele>218.019531</ele>
<time>2012-07-20T12:21:44Z</time>
<extensions>
<speed>0.0</speed>
<temp>0.00</temp>
<bpm>0</bpm>
<rpm>0.00</rpm>
</extensions>
</trkpt>
<trkpt lat="64.325309753" lon="-20.129341125">
<ele>218.023438</ele>
<time>2012-07-20T12:21:49Z</time>
<speed>0.020000</speed>
<extensions>
<speed>0.0</speed>
<temp>0.00</temp>
<bpm>0</bpm>
<rpm>0.00</rpm>
</extensions>
</trkpt>
<trkpt lat="64.325309753" lon="-20.129341125">
<ele>218.027344</ele>
<time>2012-07-20T12:21:54Z</time>
<speed>0.020000</speed>
<extensions>
<speed>0.0</speed>
<temp>0.00</temp>
<bpm>0</bpm>
<rpm>0.00</rpm>
</extensions>
</trkpt>
<trkpt lat="64.325309753" lon="-20.129343033">
<ele>218.023438</ele>
<time>2012-07-20T12:21:59Z</time>
<speed>0.010000</speed>
<extensions>
<speed>0.0</speed>
<temp>0.00</temp>
<bpm>0</bpm>
<rpm>0.00</rpm>
</extensions>
</trkpt>
<trkpt lat="64.325309753" lon="-20.129343033">
<ele>218.023438</ele>
<time>2012-07-20T12:22:04Z</time>
<extensions>
<speed>0.0</speed>
<temp>0.00</temp>
<bpm>0</bpm>
<rpm>0.00</rpm>
</extensions>
</trkpt>
<trkpt lat="64.325309753" lon="-20.129343033">
<ele>218.031250</ele>
<time>2012-07-20T12:22:09Z</time>
<extensions>
<speed>0.0</speed>
<temp>0.00</temp>
<bpm>0</bpm>
<rpm>0.00</rpm>
</extensions>
</trkpt>
<trkpt lat="64.325309753" lon="-20.129343033">
<ele>218.023438</ele>
<time>2012-07-20T12:22:14Z</time>
<speed>0.010000</speed>
<extensions>
<speed>0.0</speed>
<temp>0.00</temp>
<bpm>0</bpm>
<rpm>0.00</rpm>
</extensions>
</trkpt>
<trkpt lat="64.325309753" lon="-20.129344940">
<ele>218.019531</ele>
<time>2012-07-20T12:22:19Z</time>
<extensions>
<speed>0.0</speed>
<temp>0.00</temp>
<bpm>0</bpm>
<rpm>0.00</rpm>
</extensions>
</trkpt>
<trkpt lat="64.325309753" lon="-20.129344940">
<ele>218.035156</ele>
<time>2012-07-20T12:22:24Z</time>
<extensions>
<speed>0.0</speed>
<temp>0.00</temp>
<bpm>0</bpm>
<rpm>0.00</rpm>
</extensions>
</trkpt>
<trkpt lat="64.325309753" lon="-20.129344940">
<ele>218.027344</ele>
<time>2012-07-20T12:22:29Z</time>
<speed>0.010000</speed>
<extensions>
<speed>0.0</speed>
<temp>0.00</temp>
<bpm>0</bpm>
<rpm>0.00</rpm>
</extensions>
</trkpt>
<trkpt lat="64.325309753" lon="-20.129344940">
<ele>218.039063</ele>
<time>2012-07-20T12:22:34Z</time>
<speed>0.010000</speed>
<extensions>
<speed>0.0</speed>
<temp>0.00</temp>
<bpm>0</bpm>
<rpm>0.00</rpm>
</extensions>
</trkpt>
<trkpt lat="64.325309753" lon="-20.129344940">
<ele>218.054688</ele>
<time>2012-07-20T12:22:39Z</time>
<speed>0.010000</speed>
<extensions>
<speed>0.0</speed>
<temp>0.00</temp>
<bpm>0</bpm>
<rpm>0.00</rpm>
</extensions>
</trkpt>
<trkpt lat="64.325309753" lon="-20.129344940">
<ele>218.070313</ele>
<time>2012-07-20T12:22:44Z</time>
<speed>0.020000</speed>
<extensions>
<speed>0.0</speed>
<temp>0.00</temp>
<bpm>0</bpm>
<rpm>0.00</rpm>
</extensions>
</trkpt>
<trkpt lat="64.325309753" lon="-20.129344940">
<ele>218.070313</ele>
<time>2012-07-20T12:22:49Z</time>
<speed>0.010000</speed>
<extensions>
<speed>0.0</speed>
<temp>0.00</temp>
<bpm>0</bpm>
<rpm>0.00</rpm>
</extensions>
</trkpt>
<trkpt lat="64.325317383" lon="-20.129344940">
<ele>218.062500</ele>
<time>2012-07-20T12:22:54Z</time>
<extensions>
<speed>0.0</speed>
<temp>0.00</temp>
<bpm>0</bpm>
<rpm>0.00</rpm>
</extensions>
</trkpt>
<trkpt lat="64.325317383" lon="-20.129344940">
<ele>218.070313</ele>
<time>2012-07-20T12:22:59Z</time>
<speed>0.020000</speed>
<extensions>
<speed>0.0</speed>
<temp>0.00</temp>
<bpm>0</bpm>
<rpm>0.00</rpm>
</extensions>
</trkpt>
<trkpt lat="64.325317383" lon="-20.129343033">
<ele>218.085938</ele>
<time>2012-07-20T12:23:04Z</time>
<extensions>
<speed>0.0</speed>
<temp>0.00</temp>
<bpm>0</bpm>
<rpm>0.00</rpm>
</extensions>
</trkpt>
<trkpt lat="64.325317383" lon="-20.129343033">
<ele>218.097656</ele>
<time>2012-07-20T12:23:09Z</time>
<speed>0.010000</speed>
<extensions>
<speed>0.0</speed>
<temp>0.00</temp>
<bpm>0</bpm>
<rpm>0.00</rpm>
</extensions>
</trkpt>
<trkpt lat="64.325317383" lon="-20.129343033">
<ele>218.125000</ele>
<time>2012-07-20T12:23:14Z</time>
<speed>0.040000</speed>
<extensions>
<speed>0.0</speed>
<temp>0.00</temp>
<bpm>0</bpm>
<rpm>0.00</rpm>
</extensions>
</trkpt>
<trkpt lat="64.325317383" lon="-20.129341125">
<ele>218.148438</ele>
<time>2012-07-20T12:23:19Z</time>
<speed>0.020000</speed>
<extensions>
<speed>0.0</speed>
<temp>0.00</temp>
<bpm>0</bpm>
<rpm>0.00</rpm>
</extensions>
</trkpt>
<trkpt lat="64.325317383" lon="-20.129341125">
<ele>218.175781</ele>
<time>2012-07-20T12:23:24Z</time>
<speed>0.030000</speed>
<extensions>
<speed>0.0</speed>
<temp>0.00</temp>
<bpm>0</bpm>
<rpm>0.00</rpm>
</extensions>
</trkpt>
<trkpt lat="64.325317383" lon="-20.129341125">
<ele>218.195313</ele>
<time>2012-07-20T12:23:29Z</time>
<speed>0.030000</speed>
<extensions>
<speed>0.0</speed>
<temp>0.00</temp>
<bpm>0</bpm>
<rpm>0.00</rpm>
</extensions>
</trkpt>
<trkpt lat="64.325317383" lon="-20.129339218">
<ele>218.222656</ele>
<time>2012-07-20T12:23:34Z</time>
<speed>0.010000</speed>
<extensions>
<speed>0.0</speed>
<temp>0.00</temp>
<bpm>0</bpm>
<rpm>0.00</rpm>
</extensions>
</trkpt>
<trkpt lat="64.325317383" lon="-20.129339218">
<ele>218.234375</ele>
<time>2012-07-20T12:23:39Z</time>
<extensions>
<speed>0.0</speed>
<temp>0.00</temp>
<bpm>0</bpm>
<rpm>0.00</rpm>
</extensions>
</trkpt>
<trkpt lat="64.325317383" lon="-20.129339218">
<ele>218.253906</ele>
<time>2012-07-20T12:23:44Z</time>
<speed>0.010000</speed>
<extensions>
<speed>0.0</speed>
<temp>0.00</temp>
<bpm>0</bpm>
<rpm>0.00</rpm>
</extensions>
</trkpt>
<trkpt lat="64.325317383" lon="-20.129339218">
<ele>218.277344</ele>
<time>2012-07-20T12:23:49Z</time>
<speed>0.020000</speed>
<extensions>
<speed>0.0</speed>
<temp>0.00</temp>
<bpm>0</bpm>
<rpm>0.00</rpm>
</extensions>
</trkpt>
<trkpt lat="64.325317383" lon="-20.129339218">
<ele>218.304688</ele>
<time>2012-07-20T12:23:54Z</time>
<speed>0.010000</speed>
<extensions>
<speed>0.0</speed>
<temp>0.00</temp>
<bpm>0</bpm>
<rpm>0.00</rpm>
</extensions>
</trkpt>
<trkpt lat="64.325325012" lon="-20.129339218">
<ele>218.320313</ele>
<time>2012-07-20T12:23:59Z</time>
<extensions>
<speed>0.0</speed>
<temp>0.00</temp>
<bpm>0</bpm>
<rpm>0.00</rpm>
</extensions>
</trkpt>
<trkpt lat="64.325325012" lon="-20.129337311">
<ele>218.328125</ele>
<time>2012-07-20T12:24:04Z</time>
<speed>0.010000</speed>
<extensions>
<speed>0.0</speed>
<temp>0.00</temp>
<bpm>0</bpm>
<rpm>0.00</rpm>
</extensions>
</trkpt>
<trkpt lat="64.325325012" lon="-20.129337311">
<ele>218.351563</ele>
<time>2012-07-20T12:24:09Z</time>
<speed>0.040000</speed>
<extensions>
<speed>0.0</speed>
<temp>0.00</temp>
<bpm>0</bpm>
<rpm>0.00</rpm>
</extensions>
</trkpt>
<trkpt lat="64.325325012" lon="-20.129337311">
<ele>218.355469</ele>
<time>2012-07-20T12:24:14Z</time>
<speed>0.010000</speed>
<extensions>
<speed>0.0</speed>
<temp>0.00</temp>
<bpm>0</bpm>
<rpm>0.00</rpm>
</extensions>
</trkpt>
<trkpt lat="64.325325012" lon="-20.129337311">
<ele>218.355469</ele>
<time>2012-07-20T12:24:19Z</time>
<speed>0.010000</speed>
<extensions>
<speed>0.0</speed>
<temp>0.00</temp>
<bpm>0</bpm>
<rpm>0.00</rpm>
</extensions>
</trkpt>
<trkpt lat="64.325325012" lon="-20.129335403">
<ele>218.367188</ele>
<time>2012-07-20T12:24:24Z</time>
<speed>0.020000</speed>
<extensions>
<speed>0.0</speed>
<temp>0.00</temp>
<bpm>0</bpm>
<rpm>0.00</rpm>
</extensions>
</trkpt>
<trkpt lat="64.325325012" lon="-20.129333496">
<ele>218.378906</ele>
<time>2012-07-20T12:24:29Z</time>
<speed>0.030000</speed>
<extensions>
<speed>0.0</speed>
<temp>0.00</temp>
<bpm>0</bpm>
<rpm>0.00</rpm>
</extensions>
</trkpt>
<trkpt lat="64.325325012" lon="-20.129333496">
<ele>218.378906</ele>
<time>2012-07-20T12:24:34Z</time>
<speed>0.010000</speed>
<extensions>
<speed>0.0</speed>
<temp>0.00</temp>
<bpm>0</bpm>
<rpm>0.00</rpm>
</extensions>
</trkpt>
<trkpt lat="64.325325012" lon="-20.129333496">
<ele>218.394531</ele>
<time>2012-07-20T12:24:39Z</time>
<speed>0.010000</speed>
<extensions>
<speed>0.0</speed>
<temp>0.00</temp>
<bpm>0</bpm>
<rpm>0.00</rpm>
</extensions>
</trkpt>
<trkpt lat="64.325325012" lon="-20.129333496">
<ele>218.382813</ele>
<time>2012-07-20T12:24:44Z</time>
<extensions>
<speed>0.0</speed>
<temp>0.00</temp>
<bpm>0</bpm>
<rpm>0.00</rpm>
</extensions>
</trkpt>
<trkpt lat="64.325325012" lon="-20.129333496">
<ele>218.371094</ele>
<time>2012-07-20T12:24:49Z</time>
<speed>0.010000</speed>
<extensions>
<speed>0.0</speed>
<temp>0.00</temp>
<bpm>0</bpm>
<rpm>0.00</rpm>
</extensions>
</trkpt>
<trkpt lat="64.325325012" lon="-20.129335403">
<ele>218.367188</ele>
<time>2012-07-20T12:24:54Z</time>
<extensions>
<speed>0.0</speed>
<temp>0.00</temp>
<bpm>0</bpm>
<rpm>0.00</rpm>
</extensions>
</trkpt>
<trkpt lat="64.325325012" lon="-20.129333496">
<ele>218.382813</ele>
<time>2012-07-20T12:24:59Z</time>
<speed>0.010000</speed>
<extensions>
<speed>0.0</speed>
<temp>0.00</temp>
<bpm>0</bpm>
<rpm>0.00</rpm>
</extensions>
</trkpt>
<trkpt lat="64.325325012" lon="-20.129333496">
<ele>218.390625</ele>
<time>2012-07-20T12:25:04Z</time>
<extensions>
<speed>0.0</speed>
<temp>0.00</temp>
<bpm>0</bpm>
<rpm>0.00</rpm>
</extensions>
</trkpt>
<trkpt lat="64.325325012" lon="-20.129333496">
<ele>218.406250</ele>
<time>2012-07-20T12:25:09Z</time>
<extensions>
<speed>0.0</speed>
<temp>0.00</temp>
<bpm>0</bpm>
<rpm>0.00</rpm>
</extensions>
</trkpt>
<trkpt lat="64.325325012" lon="-20.129333496">
<ele>218.441406</ele>
<time>2012-07-20T12:25:14Z</time>
<extensions>
<speed>0.0</speed>
<temp>0.00</temp>
<bpm>0</bpm>
<rpm>0.00</rpm>
</extensions>
</trkpt>
<trkpt lat="64.325325012" lon="-20.129333496">
<ele>218.429688</ele>
<time>2012-07-20T12:25:19Z</time>
<speed>0.010000</speed>
<extensions>
<speed>0.0</speed>
<temp>0.00</temp>
<bpm>0</bpm>
<rpm>0.00</rpm>
</extensions>
</trkpt>
<trkpt lat="64.325325012" lon="-20.129333496">
<ele>218.425781</ele>
<time>2012-07-20T12:25:24Z</time>
<speed>0.020000</speed>
<extensions>
<speed>0.0</speed>
<temp>0.00</temp>
<bpm>0</bpm>
<rpm>0.00</rpm>
</extensions>
</trkpt>
<trkpt lat="64.325325012" lon="-20.129333496">
<ele>218.433594</ele>
<time>2012-07-20T12:25:29Z</time>
<speed>0.020000</speed>
<extensions>
<speed>0.0</speed>
<temp>0.00</temp>
<bpm>0</bpm>
<rpm>0.00</rpm>
</extensions>
</trkpt>
<trkpt lat="64.325325012" lon="-20.129333496">
<ele>218.445313</ele>
<time>2012-07-20T12:25:34Z</time>
<extensions>
<speed>0.0</speed>
<temp>0.00</temp>
<bpm>0</bpm>
<rpm>0.00</rpm>
</extensions>
</trkpt>
<trkpt lat="64.325325012" lon="-20.129333496">
<ele>218.460938</ele>
<time>2012-07-20T12:25:39Z</time>
<extensions>
<speed>0.0</speed>
<temp>0.00</temp>
<bpm>0</bpm>
<rpm>0.00</rpm>
</extensions>
</trkpt>
<trkpt lat="64.325325012" lon="-20.129333496">
<ele>218.457031</ele>
<time>2012-07-20T12:25:44Z</time>
<speed>0.010000</speed>
<extensions>
<speed>0.0</speed>
<temp>0.00</temp>
<bpm>0</bpm>
<rpm>0.00</rpm>
</extensions>
</trkpt>
<trkpt lat="64.325325012" lon="-20.129333496">
<ele>218.453125</ele>
<time>2012-07-20T12:25:49Z</time>
<extensions>
<speed>0.0</speed>
<temp>0.00</temp>
<bpm>0</bpm>
<rpm>0.00</rpm>
</extensions>
</trkpt>
<trkpt lat="64.325325012" lon="-20.129331589">
<ele>218.449219</ele>
<time>2012-07-20T12:25:54Z</time>
<speed>0.010000</speed>
<extensions>
<speed>0.0</speed>
<temp>0.00</temp>
<bpm>0</bpm>
<rpm>0.00</rpm>
</extensions>
</trkpt>
<trkpt lat="64.325325012" lon="-20.129331589">
<ele>218.425781</ele>
<time>2012-07-20T12:25:59Z</time>
<speed>0.010000</speed>
<extensions>
<speed>0.0</speed>
<temp>0.00</temp>
<bpm>0</bpm>
<rpm>0.00</rpm>
</extensions>
</trkpt>
<trkpt lat="64.325325012" lon="-20.129331589">
<ele>218.410156</ele>
<time>2012-07-20T12:26:04Z</time>
<speed>0.010000</speed>
<extensions>
<speed>0.0</speed>
<temp>0.00</temp>
<bpm>0</bpm>
<rpm>0.00</rpm>
</extensions>
</trkpt>
<trkpt lat="64.325325012" lon="-20.129331589">
<ele>218.382813</ele>
<time>2012-07-20T12:26:09Z</time>
<extensions>
<speed>0.0</speed>
<temp>0.00</temp>
<bpm>0</bpm>
<rpm>0.00</rpm>
</extensions>
</trkpt>
<trkpt lat="64.325325012" lon="-20.129331589">
<ele>218.355469</ele>
<time>2012-07-20T12:26:14Z</time>
<speed>0.010000</speed>
<extensions>
<speed>0.0</speed>
<temp>0.00</temp>
<bpm>0</bpm>
<rpm>0.00</rpm>
</extensions>
</trkpt>
<trkpt lat="64.325325012" lon="-20.129331589">
<ele>218.324219</ele>
<time>2012-07-20T12:26:19Z</time>
<extensions>
<speed>0.0</speed>
<temp>0.00</temp>
<bpm>0</bpm>
<rpm>0.00</rpm>
</extensions>
</trkpt>
<trkpt lat="64.325325012" lon="-20.129331589">
<ele>218.289063</ele>
<time>2012-07-20T12:26:24Z</time>
<speed>0.010000</speed>
<extensions>
<speed>0.0</speed>
<temp>0.00</temp>
<bpm>0</bpm>
<rpm>0.00</rpm>
</extensions>
</trkpt>
<trkpt lat="64.325325012" lon="-20.129331589">
<ele>218.222656</ele>
<time>2012-07-20T12:26:29Z</time>
<speed>0.010000</speed>
<extensions>
<speed>0.0</speed>
<temp>0.00</temp>
<bpm>0</bpm>
<rpm>0.00</rpm>
</extensions>
</trkpt>
<trkpt lat="64.325325012" lon="-20.129331589">
<ele>218.179688</ele>
<time>2012-07-20T12:26:34Z</time>
<extensions>
<speed>0.0</speed>
<temp>0.00</temp>
<bpm>0</bpm>
<rpm>0.00</rpm>
</extensions>
</trkpt>
<trkpt lat="64.325325012" lon="-20.129331589">
<ele>218.128906</ele>
<time>2012-07-20T12:26:39Z</time>
<extensions>
<speed>0.0</speed>
<temp>0.00</temp>
<bpm>0</bpm>
<rpm>0.00</rpm>
</extensions>
</trkpt>
<trkpt lat="64.325325012" lon="-20.129331589">
<ele>218.093750</ele>
<time>2012-07-20T12:26:44Z</time>
<speed>0.010000</speed>
<extensions>
<speed>0.0</speed>
<temp>0.00</temp>
<bpm>0</bpm>
<rpm>0.00</rpm>
</extensions>
</trkpt>
<trkpt lat="64.325325012" lon="-20.129331589">
<ele>218.054688</ele>
<time>2012-07-20T12:26:49Z</time>
<extensions>
<speed>0.0</speed>
<temp>0.00</temp>
<bpm>0</bpm>
<rpm>0.00</rpm>
</extensions>
</trkpt>
<trkpt lat="64.325325012" lon="-20.129331589">
<ele>218.027344</ele>
<time>2012-07-20T12:26:54Z</time>
<speed>0.030000</speed>
<extensions>
<speed>0.0</speed>
<temp>0.00</temp>
<bpm>0</bpm>
<rpm>0.00</rpm>
</extensions>
</trkpt>
<trkpt lat="64.325325012" lon="-20.129331589">
<ele>218.003906</ele>
<time>2012-07-20T12:26:59Z</time>
<speed>0.010000</speed>
<extensions>
<speed>0.0</speed>
<temp>0.00</temp>
<bpm>0</bpm>
<rpm>0.00</rpm>
</extensions>
</trkpt>
<trkpt lat="64.325325012" lon="-20.129333496">
<ele>218.003906</ele>
<time>2012-07-20T12:27:04Z</time>
<extensions>
<speed>0.0</speed>
<temp>0.00</temp>
<bpm>0</bpm>
<rpm>0.00</rpm>
</extensions>
</trkpt>
<trkpt lat="64.325325012" lon="-20.129333496">
<ele>217.988281</ele>
<time>2012-07-20T12:27:09Z</time>
<extensions>
<speed>0.0</speed>
<temp>0.00</temp>
<bpm>0</bpm>
<rpm>0.00</rpm>
</extensions>
</trkpt>
<trkpt lat="64.325325012" lon="-20.129333496">
<ele>217.976563</ele>
<time>2012-07-20T12:27:14Z</time>
<extensions>
<speed>0.0</speed>
<temp>0.00</temp>
<bpm>0</bpm>
<rpm>0.00</rpm>
</extensions>
</trkpt>
<trkpt lat="64.325325012" lon="-20.129331589">
<ele>217.960938</ele>
<time>2012-07-20T12:27:19Z</time>
<speed>0.020000</speed>
<extensions>
<speed>0.0</speed>
<temp>0.00</temp>
<bpm>0</bpm>
<rpm>0.00</rpm>
</extensions>
</trkpt>
<trkpt lat="64.325325012" lon="-20.129331589">
<ele>217.964844</ele>
<time>2012-07-20T12:27:24Z</time>
<speed>0.020000</speed>
<extensions>
<speed>0.0</speed>
<temp>0.00</temp>
<bpm>0</bpm>
<rpm>0.00</rpm>
</extensions>
</trkpt>
<trkpt lat="64.325325012" lon="-20.129331589">
<ele>217.960938</ele>
<time>2012-07-20T12:27:29Z</time>
<speed>0.010000</speed>
<extensions>
<speed>0.0</speed>
<temp>0.00</temp>
<bpm>0</bpm>
<rpm>0.00</rpm>
</extensions>
</trkpt>
<trkpt lat="64.325325012" lon="-20.129331589">
<ele>217.957031</ele>
<time>2012-07-20T12:27:34Z</time>
<speed>0.020000</speed>
<extensions>
<speed>0.0</speed>
<temp>0.00</temp>
<bpm>0</bpm>
<rpm>0.00</rpm>
</extensions>
</trkpt>
<trkpt lat="64.325325012" lon="-20.129331589">
<ele>217.964844</ele>
<time>2012-07-20T12:27:39Z</time>
<speed>0.010000</speed>
<extensions>
<speed>0.0</speed>
<temp>0.00</temp>
<bpm>0</bpm>
<rpm>0.00</rpm>
</extensions>
</trkpt>
<trkpt lat="64.325325012" lon="-20.129331589">
<ele>217.960938</ele>
<time>2012-07-20T12:27:44Z</time>
<extensions>
<speed>0.0</speed>
<temp>0.00</temp>
<bpm>0</bpm>
<rpm>0.00</rpm>
</extensions>
</trkpt>
<trkpt lat="64.325325012" lon="-20.129331589">
<ele>217.957031</ele>
<time>2012-07-20T12:27:49Z</time>
<extensions>
<speed>0.0</speed>
<temp>0.00</temp>
<bpm>0</bpm>
<rpm>0.00</rpm>
</extensions>
</trkpt>
<trkpt lat="64.325325012" lon="-20.129331589">
<ele>217.941406</ele>
<time>2012-07-20T12:27:54Z</time>
<speed>0.020000</speed>
<extensions>
<speed>0.0</speed>
<temp>0.00</temp>
<bpm>0</bpm>
<rpm>0.00</rpm>
</extensions>
</trkpt>
<trkpt lat="64.325325012" lon="-20.129333496">
<ele>217.933594</ele>
<time>2012-07-20T12:27:59Z</time>
<speed>0.010000</speed>
<extensions>
<speed>0.0</speed>
<temp>0.00</temp>
<bpm>0</bpm>
<rpm>0.00</rpm>
</extensions>
</trkpt>
<trkpt lat="64.325325012" lon="-20.129333496">
<ele>217.937500</ele>
<time>2012-07-20T12:28:04Z</time>
<extensions>
<speed>0.0</speed>
<temp>0.00</temp>
<bpm>0</bpm>
<rpm>0.00</rpm>
</extensions>
</trkpt>
<trkpt lat="64.325325012" lon="-20.129331589">
<ele>217.933594</ele>
<time>2012-07-20T12:28:09Z</time>
<speed>0.020000</speed>
<extensions>
<speed>0.0</speed>
<temp>0.00</temp>
<bpm>0</bpm>
<rpm>0.00</rpm>
</extensions>
</trkpt>
<trkpt lat="64.325325012" lon="-20.129331589">
<ele>217.937500</ele>
<time>2012-07-20T12:28:14Z</time>
<extensions>
<speed>0.0</speed>
<temp>0.00</temp>
<bpm>0</bpm>
<rpm>0.00</rpm>
</extensions>
</trkpt>
<trkpt lat="64.325325012" lon="-20.129331589">
<ele>217.921875</ele>
<time>2012-07-20T12:28:19Z</time>
<speed>0.010000</speed>
<extensions>
<speed>0.0</speed>
<temp>0.00</temp>
<bpm>0</bpm>
<rpm>0.00</rpm>
</extensions>
</trkpt>
<trkpt lat="64.325325012" lon="-20.129331589">
<ele>217.902344</ele>
<time>2012-07-20T12:28:24Z</time>
<extensions>
<speed>0.0</speed>
<temp>0.00</temp>
<bpm>0</bpm>
<rpm>0.00</rpm>
</extensions>
</trkpt>
<trkpt lat="64.325325012" lon="-20.129331589">
<ele>217.894531</ele>
<time>2012-07-20T12:28:29Z</time>
<speed>0.010000</speed>
<extensions>
<speed>0.0</speed>
<temp>0.00</temp>
<bpm>0</bpm>
<rpm>0.00</rpm>
</extensions>
</trkpt>
<trkpt lat="64.325325012" lon="-20.129331589">
<ele>217.855469</ele>
<time>2012-07-20T12:28:34Z</time>
<speed>0.020000</speed>
<extensions>
<speed>0.0</speed>
<temp>0.00</temp>
<bpm>0</bpm>
<rpm>0.00</rpm>
</extensions>
</trkpt>
<trkpt lat="64.325325012" lon="-20.129331589">
<ele>217.832031</ele>
<time>2012-07-20T12:28:39Z</time>
<speed>0.010000</speed>
<extensions>
<speed>0.0</speed>
<temp>0.00</temp>
<bpm>0</bpm>
<rpm>0.00</rpm>
</extensions>
</trkpt>
<trkpt lat="64.325325012" lon="-20.129331589">
<ele>217.808594</ele>
<time>2012-07-20T12:28:44Z</time>
<extensions>
<speed>0.0</speed>
<temp>0.00</temp>
<bpm>0</bpm>
<rpm>0.00</rpm>
</extensions>
</trkpt>
<trkpt lat="64.325325012" lon="-20.129331589">
<ele>217.800781</ele>
<time>2012-07-20T12:28:49Z</time>
<speed>0.020000</speed>
<extensions>
<speed>0.0</speed>
<temp>0.00</temp>
<bpm>0</bpm>
<rpm>0.00</rpm>
</extensions>
</trkpt>
<trkpt lat="64.325325012" lon="-20.129333496">
<ele>217.765625</ele>
<time>2012-07-20T12:28:54Z</time>
<speed>0.010000</speed>
<extensions>
<speed>0.0</speed>
<temp>0.00</temp>
<bpm>0</bpm>
<rpm>0.00</rpm>
</extensions>
</trkpt>
<trkpt lat="64.325325012" lon="-20.129333496">
<ele>217.742188</ele>
<time>2012-07-20T12:28:59Z</time>
<speed>0.020000</speed>
<extensions>
<speed>0.0</speed>
<temp>0.00</temp>
<bpm>0</bpm>
<rpm>0.00</rpm>
</extensions>
</trkpt>
<trkpt lat="64.325325012" lon="-20.129333496">
<ele>217.746094</ele>
<time>2012-07-20T12:29:04Z</time>
<extensions>
<speed>0.0</speed>
<temp>0.00</temp>
<bpm>0</bpm>
<rpm>0.00</rpm>
</extensions>
</trkpt>
<trkpt lat="64.325325012" lon="-20.129333496">
<ele>217.750000</ele>
<time>2012-07-20T12:29:09Z</time>
<speed>0.030000</speed>
<extensions>
<speed>0.0</speed>
<temp>0.00</temp>
<bpm>0</bpm>
<rpm>0.00</rpm>
</extensions>
</trkpt>
<trkpt lat="64.325325012" lon="-20.129333496">
<ele>217.757813</ele>
<time>2012-07-20T12:29:14Z</time>
<speed>0.030000</speed>
<extensions>
<speed>0.0</speed>
<temp>0.00</temp>
<bpm>0</bpm>
<rpm>0.00</rpm>
</extensions>
</trkpt>
<trkpt lat="64.325325012" lon="-20.129333496">
<ele>217.761719</ele>
<time>2012-07-20T12:29:19Z</time>
<extensions>
<speed>0.0</speed>
<temp>0.00</temp>
<bpm>0</bpm>
<rpm>0.00</rpm>
</extensions>
</trkpt>
<trkpt lat="64.325325012" lon="-20.129333496">
<ele>217.769531</ele>
<time>2012-07-20T12:29:24Z</time>
<speed>0.050000</speed>
<extensions>
<speed>0.1</speed>
<temp>0.00</temp>
<bpm>0</bpm>
<rpm>0.00</rpm>
</extensions>
</trkpt>
<trkpt lat="64.325332642" lon="-20.129335403">
<ele>217.785156</ele>
<time>2012-07-20T12:29:29Z</time>
<speed>0.020000</speed>
<extensions>
<speed>0.0</speed>
<temp>0.00</temp>
<bpm>0</bpm>
<rpm>0.00</rpm>
</extensions>
</trkpt>
<trkpt lat="64.325332642" lon="-20.129335403">
<ele>217.839844</ele>
<time>2012-07-20T12:29:34Z</time>
<speed>0.030000</speed>
<extensions>
<speed>0.0</speed>
<temp>0.00</temp>
<bpm>0</bpm>
<rpm>0.00</rpm>
</extensions>
</trkpt>
<trkpt lat="64.325332642" lon="-20.129335403">
<ele>217.867188</ele>
<time>2012-07-20T12:29:39Z</time>
<speed>0.020000</speed>
<extensions>
<speed>0.0</speed>
<temp>0.00</temp>
<bpm>0</bpm>
<rpm>0.00</rpm>
</extensions>
</trkpt>
<trkpt lat="64.325332642" lon="-20.129335403">
<ele>217.902344</ele>
<time>2012-07-20T12:29:44Z</time>
<speed>0.030000</speed>
<extensions>
<speed>0.0</speed>
<temp>0.00</temp>
<bpm>0</bpm>
<rpm>0.00</rpm>
</extensions>
</trkpt>
<trkpt lat="64.325332642" lon="-20.129335403">
<ele>217.949219</ele>
<time>2012-07-20T12:29:49Z</time>
<speed>0.040000</speed>
<extensions>
<speed>0.0</speed>
<temp>0.00</temp>
<bpm>0</bpm>
<rpm>0.00</rpm>
</extensions>
</trkpt>
<trkpt lat="64.325332642" lon="-20.129335403">
<ele>217.984375</ele>
<time>2012-07-20T12:29:54Z</time>
<speed>0.030000</speed>
<extensions>
<speed>0.0</speed>
<temp>0.00</temp>
<bpm>0</bpm>
<rpm>0.00</rpm>
</extensions>
</trkpt>
<trkpt lat="64.325332642" lon="-20.129335403">
<ele>218.015625</ele>
<time>2012-07-20T12:29:59Z</time>
<speed>0.010000</speed>
<extensions>
<speed>0.0</speed>
<temp>0.00</temp>
<bpm>0</bpm>
<rpm>0.00</rpm>
</extensions>
</trkpt>
<trkpt lat="64.325332642" lon="-20.129335403">
<ele>218.023438</ele>
<time>2012-07-20T12:30:04Z</time>
<speed>0.040000</speed>
<extensions>
<speed>0.0</speed>
<temp>0.00</temp>
<bpm>0</bpm>
<rpm>0.00</rpm>
</extensions>
</trkpt>
<trkpt lat="64.325332642" lon="-20.129337311">
<ele>218.023438</ele>
<time>2012-07-20T12:30:09Z</time>
<speed>0.020000</speed>
<extensions>
<speed>0.0</speed>
<temp>0.00</temp>
<bpm>0</bpm>
<rpm>0.00</rpm>
</extensions>
</trkpt>
<trkpt lat="64.325332642" lon="-20.129337311">
<ele>218.011719</ele>
<time>2012-07-20T12:30:14Z</time>
<speed>0.030000</speed>
<extensions>
<speed>0.0</speed>
<temp>0.00</temp>
<bpm>0</bpm>
<rpm>0.00</rpm>
</extensions>
</trkpt>
<trkpt lat="64.325332642" lon="-20.129337311">
<ele>218.007813</ele>
<time>2012-07-20T12:30:19Z</time>
<speed>0.040000</speed>
<extensions>
<speed>0.0</speed>
<temp>0.00</temp>
<bpm>0</bpm>
<rpm>0.00</rpm>
</extensions>
</trkpt>
<trkpt lat="64.325332642" lon="-20.129339218">
<ele>218.003906</ele>
<time>2012-07-20T12:30:24Z</time>
<speed>0.030000</speed>
<extensions>
<speed>0.0</speed>
<temp>0.00</temp>
<bpm>0</bpm>
<rpm>0.00</rpm>
</extensions>
</trkpt>
<trkpt lat="64.325332642" lon="-20.129339218">
<ele>218.007813</ele>
<time>2012-07-20T12:30:29Z</time>
<speed>0.030000</speed>
<extensions>
<speed>0.0</speed>
<temp>0.00</temp>
<bpm>0</bpm>
<rpm>0.00</rpm>
</extensions>
</trkpt>
<trkpt lat="64.325332642" lon="-20.129341125">
<ele>218.011719</ele>
<time>2012-07-20T12:30:34Z</time>
<speed>0.030000</speed>
<extensions>
<speed>0.0</speed>
<temp>0.00</temp>
<bpm>0</bpm>
<rpm>0.00</rpm>
</extensions>
</trkpt>
<trkpt lat="64.325340271" lon="-20.129341125">
<ele>218.023438</ele>
<time>2012-07-20T12:30:39Z</time>
<speed>0.010000</speed>
<extensions>
<speed>0.0</speed>
<temp>0.00</temp>
<bpm>0</bpm>
<rpm>0.00</rpm>
</extensions>
</trkpt>
<trkpt lat="64.325340271" lon="-20.129341125">
<ele>218.031250</ele>
<time>2012-07-20T12:30:44Z</time>
<speed>0.040000</speed>
<extensions>
<speed>0.0</speed>
<temp>0.00</temp>
<bpm>0</bpm>
<rpm>0.00</rpm>
</extensions>
</trkpt>
<trkpt lat="64.325340271" lon="-20.129341125">
<ele>218.035156</ele>
<time>2012-07-20T12:30:49Z</time>
<speed>0.030000</speed>
<extensions>
<speed>0.0</speed>
<temp>0.00</temp>
<bpm>0</bpm>
<rpm>0.00</rpm>
</extensions>
</trkpt>
<trkpt lat="64.325340271" lon="-20.129343033">
<ele>218.027344</ele>
<time>2012-07-20T12:30:54Z</time>
<speed>0.030000</speed>
<extensions>
<speed>0.0</speed>
<temp>0.00</temp>
<bpm>0</bpm>
<rpm>0.00</rpm>
</extensions>
</trkpt>
<trkpt lat="64.325340271" lon="-20.129343033">
<ele>218.023438</ele>
<time>2012-07-20T12:30:59Z</time>
<speed>0.060000</speed>
<extensions>
<speed>0.1</speed>
<temp>0.00</temp>
<bpm>0</bpm>
<rpm>0.00</rpm>
</extensions>
</trkpt>
<trkpt lat="64.325340271" lon="-20.129344940">
<ele>218.015625</ele>
<time>2012-07-20T12:31:04Z</time>
<speed>0.030000</speed>
<extensions>
<speed>0.0</speed>
<temp>0.00</temp>
<bpm>0</bpm>
<rpm>0.00</rpm>
</extensions>
</trkpt>
<trkpt lat="64.325340271" lon="-20.129344940">
<ele>218.035156</ele>
<time>2012-07-20T12:31:09Z</time>
<extensions>
<speed>0.0</speed>
<temp>0.00</temp>
<bpm>0</bpm>
<rpm>0.00</rpm>
</extensions>
</trkpt>
<trkpt lat="64.325340271" lon="-20.129344940">
<ele>218.035156</ele>
<time>2012-07-20T12:31:14Z</time>
<extensions>
<speed>0.0</speed>
<temp>0.00</temp>
<bpm>0</bpm>
<rpm>0.00</rpm>
</extensions>
</trkpt>
<trkpt lat="64.325340271" lon="-20.129344940">
<ele>218.023438</ele>
<time>2012-07-20T12:31:19Z</time>
<speed>0.010000</speed>
<extensions>
<speed>0.0</speed>
<temp>0.00</temp>
<bpm>0</bpm>
<rpm>0.00</rpm>
</extensions>
</trkpt>
<trkpt lat="64.325340271" lon="-20.129346848">
<ele>218.027344</ele>
<time>2012-07-20T12:31:24Z</time>
<speed>0.020000</speed>
<extensions>
<speed>0.0</speed>
<temp>0.00</temp>
<bpm>0</bpm>
<rpm>0.00</rpm>
</extensions>
</trkpt>
<trkpt lat="64.325340271" lon="-20.129346848">
<ele>218.015625</ele>
<time>2012-07-20T12:31:29Z</time>
<speed>0.010000</speed>
<extensions>
<speed>0.0</speed>
<temp>0.00</temp>
<bpm>0</bpm>
<rpm>0.00</rpm>
</extensions>
</trkpt>
<trkpt lat="64.325340271" lon="-20.129346848">
<ele>218.007813</ele>
<time>2012-07-20T12:31:34Z</time>
<speed>0.020000</speed>
<extensions>
<speed>0.0</speed>
<temp>0.00</temp>
<bpm>0</bpm>
<rpm>0.00</rpm>
</extensions>
</trkpt>
<trkpt lat="64.325340271" lon="-20.129346848">
<ele>218.015625</ele>
<time>2012-07-20T12:31:39Z</time>
<speed>0.020000</speed>
<extensions>
<speed>0.0</speed>
<temp>0.00</temp>
<bpm>0</bpm>
<rpm>0.00</rpm>
</extensions>
</trkpt>
<trkpt lat="64.325340271" lon="-20.129348755">
<ele>218.023438</ele>
<time>2012-07-20T12:31:44Z</time>
<speed>0.020000</speed>
<extensions>
<speed>0.0</speed>
<temp>0.00</temp>
<bpm>0</bpm>
<rpm>0.00</rpm>
</extensions>
</trkpt>
<trkpt lat="64.325340271" lon="-20.129348755">
<ele>218.015625</ele>
<time>2012-07-20T12:31:49Z</time>
<speed>0.020000</speed>
<extensions>
<speed>0.0</speed>
<temp>0.00</temp>
<bpm>0</bpm>
<rpm>0.00</rpm>
</extensions>
</trkpt>
<trkpt lat="64.325340271" lon="-20.129348755">
<ele>218.003906</ele>
<time>2012-07-20T12:31:54Z</time>
<extensions>
<speed>0.0</speed>
<temp>0.00</temp>
<bpm>0</bpm>
<rpm>0.00</rpm>
</extensions>
</trkpt>
<trkpt lat="64.325340271" lon="-20.129348755">
<ele>217.984375</ele>
<time>2012-07-20T12:31:59Z</time>
<speed>0.030000</speed>
<extensions>
<speed>0.0</speed>
<temp>0.00</temp>
<bpm>0</bpm>
<rpm>0.00</rpm>
</extensions>
</trkpt>
<trkpt lat="64.325340271" lon="-20.129348755">
<ele>217.968750</ele>
<time>2012-07-20T12:32:04Z</time>
<speed>0.010000</speed>
<extensions>
<speed>0.0</speed>
<temp>0.00</temp>
<bpm>0</bpm>
<rpm>0.00</rpm>
</extensions>
</trkpt>
<trkpt lat="64.325340271" lon="-20.129348755">
<ele>217.968750</ele>
<time>2012-07-20T12:32:09Z</time>
<extensions>
<speed>0.0</speed>
<temp>0.00</temp>
<bpm>0</bpm>
<rpm>0.00</rpm>
</extensions>
</trkpt>
<trkpt lat="64.325340271" lon="-20.129348755">
<ele>217.949219</ele>
<time>2012-07-20T12:32:14Z</time>
<speed>0.020000</speed>
<extensions>
<speed>0.0</speed>
<temp>0.00</temp>
<bpm>0</bpm>
<rpm>0.00</rpm>
</extensions>
</trkpt>
<trkpt lat="64.325347900" lon="-20.129348755">
<ele>217.917969</ele>
<time>2012-07-20T12:32:19Z</time>
<speed>0.010000</speed>
<extensions>
<speed>0.0</speed>
<temp>0.00</temp>
<bpm>0</bpm>
<rpm>0.00</rpm>
</extensions>
</trkpt>
<trkpt lat="64.325347900" lon="-20.129348755">
<ele>217.902344</ele>
<time>2012-07-20T12:32:24Z</time>
<extensions>
<speed>0.0</speed>
<temp>0.00</temp>
<bpm>0</bpm>
<rpm>0.00</rpm>
</extensions>
</trkpt>
<trkpt lat="64.325347900" lon="-20.129348755">
<ele>217.890625</ele>
<time>2012-07-20T12:32:29Z</time>
<speed>0.010000</speed>
<extensions>
<speed>0.0</speed>
<temp>0.00</temp>
<bpm>0</bpm>
<rpm>0.00</rpm>
</extensions>
</trkpt>
<trkpt lat="64.325347900" lon="-20.129348755">
<ele>217.902344</ele>
<time>2012-07-20T12:32:34Z</time>
<speed>0.010000</speed>
<extensions>
<speed>0.0</speed>
<temp>0.00</temp>
<bpm>0</bpm>
<rpm>0.00</rpm>
</extensions>
</trkpt>
<trkpt lat="64.325347900" lon="-20.129348755">
<ele>217.910156</ele>
<time>2012-07-20T12:32:39Z</time>
<speed>0.010000</speed>
<extensions>
<speed>0.0</speed>
<temp>0.00</temp>
<bpm>0</bpm>
<rpm>0.00</rpm>
</extensions>
</trkpt>
<trkpt lat="64.325347900" lon="-20.129348755">
<ele>217.921875</ele>
<time>2012-07-20T12:32:44Z</time>
<speed>0.020000</speed>
<extensions>
<speed>0.0</speed>
<temp>0.00</temp>
<bpm>0</bpm>
<rpm>0.00</rpm>
</extensions>
</trkpt>
<trkpt lat="64.325347900" lon="-20.129348755">
<ele>217.929688</ele>
<time>2012-07-20T12:32:49Z</time>
<extensions>
<speed>0.0</speed>
<temp>0.00</temp>
<bpm>0</bpm>
<rpm>0.00</rpm>
</extensions>
</trkpt>
<trkpt lat="64.325347900" lon="-20.129348755">
<ele>217.925781</ele>
<time>2012-07-20T12:32:54Z</time>
<speed>0.010000</speed>
<extensions>
<speed>0.0</speed>
<temp>0.00</temp>
<bpm>0</bpm>
<rpm>0.00</rpm>
</extensions>
</trkpt>
<trkpt lat="64.325347900" lon="-20.129348755">
<ele>217.945313</ele>
<time>2012-07-20T12:32:59Z</time>
<speed>0.020000</speed>
<extensions>
<speed>0.0</speed>
<temp>0.00</temp>
<bpm>0</bpm>
<rpm>0.00</rpm>
</extensions>
</trkpt>
<trkpt lat="64.325347900" lon="-20.129348755">
<ele>217.949219</ele>
<time>2012-07-20T12:33:04Z</time>
<extensions>
<speed>0.0</speed>
<temp>0.00</temp>
<bpm>0</bpm>
<rpm>0.00</rpm>
</extensions>
</trkpt>
<trkpt lat="64.325347900" lon="-20.129346848">
<ele>217.960938</ele>
<time>2012-07-20T12:33:09Z</time>
<speed>0.010000</speed>
<extensions>
<speed>0.0</speed>
<temp>0.00</temp>
<bpm>0</bpm>
<rpm>0.00</rpm>
</extensions>
</trkpt>
<trkpt lat="64.325347900" lon="-20.129346848">
<ele>217.953125</ele>
<time>2012-07-20T12:33:14Z</time>
<speed>0.010000</speed>
<extensions>
<speed>0.0</speed>
<temp>0.00</temp>
<bpm>0</bpm>
<rpm>0.00</rpm>
</extensions>
</trkpt>
<trkpt lat="64.325347900" lon="-20.129346848">
<ele>217.968750</ele>
<time>2012-07-20T12:33:19Z</time>
<speed>0.010000</speed>
<extensions>
<speed>0.0</speed>
<temp>0.00</temp>
<bpm>0</bpm>
<rpm>0.00</rpm>
</extensions>
</trkpt>
<trkpt lat="64.325347900" lon="-20.129346848">
<ele>217.984375</ele>
<time>2012-07-20T12:33:24Z</time>
<speed>0.010000</speed>
<extensions>
<speed>0.0</speed>
<temp>0.00</temp>
<bpm>0</bpm>
<rpm>0.00</rpm>
</extensions>
</trkpt>
<trkpt lat="64.325347900" lon="-20.129346848">
<ele>217.988281</ele>
<time>2012-07-20T12:33:29Z</time>
<speed>0.020000</speed>
<extensions>
<speed>0.0</speed>
<temp>0.00</temp>
<bpm>0</bpm>
<rpm>0.00</rpm>
</extensions>
</trkpt>
<trkpt lat="64.325347900" lon="-20.129346848">
<ele>218.003906</ele>
<time>2012-07-20T12:33:34Z</time>
<speed>0.010000</speed>
<extensions>
<speed>0.0</speed>
<temp>0.00</temp>
<bpm>0</bpm>
<rpm>0.00</rpm>
</extensions>
</trkpt>
<trkpt lat="64.325347900" lon="-20.129346848">
<ele>218.003906</ele>
<time>2012-07-20T12:33:39Z</time>
<speed>0.010000</speed>
<extensions>
<speed>0.0</speed>
<temp>0.00</temp>
<bpm>0</bpm>
<rpm>0.00</rpm>
</extensions>
</trkpt>
<trkpt lat="64.325347900" lon="-20.129346848">
<ele>217.988281</ele>
<time>2012-07-20T12:33:44Z</time>
<extensions>
<speed>0.0</speed>
<temp>0.00</temp>
<bpm>0</bpm>
<rpm>0.00</rpm>
</extensions>
</trkpt>
<trkpt lat="64.325347900" lon="-20.129348755">
<ele>217.976563</ele>
<time>2012-07-20T12:33:49Z</time>
<speed>0.030000</speed>
<extensions>
<speed>0.0</speed>
<temp>0.00</temp>
<bpm>0</bpm>
<rpm>0.00</rpm>
</extensions>
</trkpt>
<trkpt lat="64.325347900" lon="-20.129348755">
<ele>217.972656</ele>
<time>2012-07-20T12:33:54Z</time>
<speed>0.010000</speed>
<extensions>
<speed>0.0</speed>
<temp>0.00</temp>
<bpm>0</bpm>
<rpm>0.00</rpm>
</extensions>
</trkpt>
<trkpt lat="64.325347900" lon="-20.129348755">
<ele>217.960938</ele>
<time>2012-07-20T12:33:59Z</time>
<speed>0.050000</speed>
<extensions>
<speed>0.1</speed>
<temp>0.00</temp>
<bpm>0</bpm>
<rpm>0.00</rpm>
</extensions>
</trkpt>
<trkpt lat="64.325347900" lon="-20.129350662">
<ele>217.953125</ele>
<time>2012-07-20T12:34:04Z</time>
<speed>0.010000</speed>
<extensions>
<speed>0.0</speed>
<temp>0.00</temp>
<bpm>0</bpm>
<rpm>0.00</rpm>
</extensions>
</trkpt>
<trkpt lat="64.325347900" lon="-20.129350662">
<ele>217.949219</ele>
<time>2012-07-20T12:34:09Z</time>
<speed>0.030000</speed>
<extensions>
<speed>0.0</speed>
<temp>0.00</temp>
<bpm>0</bpm>
<rpm>0.00</rpm>
</extensions>
</trkpt>
<trkpt lat="64.325340271" lon="-20.129352570">
<ele>217.941406</ele>
<time>2012-07-20T12:34:14Z</time>
<extensions>
<speed>0.0</speed>
<temp>0.00</temp>
<bpm>0</bpm>
<rpm>0.00</rpm>
</extensions>
</trkpt>
<trkpt lat="64.325340271" lon="-20.129352570">
<ele>217.941406</ele>
<time>2012-07-20T12:34:19Z</time>
<extensions>
<speed>0.0</speed>
<temp>0.00</temp>
<bpm>0</bpm>
<rpm>0.00</rpm>
</extensions>
</trkpt>
<trkpt lat="64.325340271" lon="-20.129352570">
<ele>217.929688</ele>
<time>2012-07-20T12:34:24Z</time>
<speed>0.010000</speed>
<extensions>
<speed>0.0</speed>
<temp>0.00</temp>
<bpm>0</bpm>
<rpm>0.00</rpm>
</extensions>
</trkpt>
<trkpt lat="64.325340271" lon="-20.129352570">
<ele>217.921875</ele>
<time>2012-07-20T12:34:29Z</time>
<extensions>
<speed>0.0</speed>
<temp>0.00</temp>
<bpm>0</bpm>
<rpm>0.00</rpm>
</extensions>
</trkpt>
<trkpt lat="64.325340271" lon="-20.129352570">
<ele>217.902344</ele>
<time>2012-07-20T12:34:34Z</time>
<speed>0.010000</speed>
<extensions>
<speed>0.0</speed>
<temp>0.00</temp>
<bpm>0</bpm>
<rpm>0.00</rpm>
</extensions>
</trkpt>
<trkpt lat="64.325340271" lon="-20.129352570">
<ele>217.882813</ele>
<time>2012-07-20T12:34:39Z</time>
<speed>0.010000</speed>
<extensions>
<speed>0.0</speed>
<temp>0.00</temp>
<bpm>0</bpm>
<rpm>0.00</rpm>
</extensions>
</trkpt>
<trkpt lat="64.325340271" lon="-20.129352570">
<ele>217.886719</ele>
<time>2012-07-20T12:34:44Z</time>
<extensions>
<speed>0.0</speed>
<temp>0.00</temp>
<bpm>0</bpm>
<rpm>0.00</rpm>
</extensions>
</trkpt>
<trkpt lat="64.325340271" lon="-20.129352570">
<ele>217.894531</ele>
<time>2012-07-20T12:34:49Z</time>
<speed>0.010000</speed>
<extensions>
<speed>0.0</speed>
<temp>0.00</temp>
<bpm>0</bpm>
<rpm>0.00</rpm>
</extensions>
</trkpt>
<trkpt lat="64.325340271" lon="-20.129352570">
<ele>217.882813</ele>
<time>2012-07-20T12:34:54Z</time>
<speed>0.010000</speed>
<extensions>
<speed>0.0</speed>
<temp>0.00</temp>
<bpm>0</bpm>
<rpm>0.00</rpm>
</extensions>
</trkpt>
<trkpt lat="64.325340271" lon="-20.129354477">
<ele>217.867188</ele>
<time>2012-07-20T12:34:59Z</time>
<speed>0.010000</speed>
<extensions>
<speed>0.0</speed>
<temp>0.00</temp>
<bpm>0</bpm>
<rpm>0.00</rpm>
</extensions>
</trkpt>
<trkpt lat="64.325340271" lon="-20.129354477">
<ele>217.847656</ele>
<time>2012-07-20T12:35:04Z</time>
<extensions>
<speed>0.0</speed>
<temp>0.00</temp>
<bpm>0</bpm>
<rpm>0.00</rpm>
</extensions>
</trkpt>
<trkpt lat="64.325340271" lon="-20.129354477">
<ele>217.843750</ele>
<time>2012-07-20T12:35:09Z</time>
<speed>0.010000</speed>
<extensions>
<speed>0.0</speed>
<temp>0.00</temp>
<bpm>0</bpm>
<rpm>0.00</rpm>
</extensions>
</trkpt>
<trkpt lat="64.325340271" lon="-20.129354477">
<ele>217.839844</ele>
<time>2012-07-20T12:35:14Z</time>
<speed>0.010000</speed>
<extensions>
<speed>0.0</speed>
<temp>0.00</temp>
<bpm>0</bpm>
<rpm>0.00</rpm>
</extensions>
</trkpt>
<trkpt lat="64.325340271" lon="-20.129354477">
<ele>217.832031</ele>
<time>2012-07-20T12:35:19Z</time>
<speed>0.010000</speed>
<extensions>
<speed>0.0</speed>
<temp>0.00</temp>
<bpm>0</bpm>
<rpm>0.00</rpm>
</extensions>
</trkpt>
<trkpt lat="64.325340271" lon="-20.129354477">
<ele>217.828125</ele>
<time>2012-07-20T12:35:24Z</time>
<speed>0.010000</speed>
<extensions>
<speed>0.0</speed>
<temp>0.00</temp>
<bpm>0</bpm>
<rpm>0.00</rpm>
</extensions>
</trkpt>
<trkpt lat="64.325340271" lon="-20.129354477">
<ele>217.816406</ele>
<time>2012-07-20T12:35:29Z</time>
<speed>0.010000</speed>
<extensions>
<speed>0.0</speed>
<temp>0.00</temp>
<bpm>0</bpm>
<rpm>0.00</rpm>
</extensions>
</trkpt>
<trkpt lat="64.325340271" lon="-20.129354477">
<ele>217.804688</ele>
<time>2012-07-20T12:35:34Z</time>
<speed>0.010000</speed>
<extensions>
<speed>0.0</speed>
<temp>0.00</temp>
<bpm>0</bpm>
<rpm>0.00</rpm>
</extensions>
</trkpt>
<trkpt lat="64.325340271" lon="-20.129356384">
<ele>217.796875</ele>
<time>2012-07-20T12:35:39Z</time>
<speed>0.020000</speed>
<extensions>
<speed>0.0</speed>
<temp>0.00</temp>
<bpm>0</bpm>
<rpm>0.00</rpm>
</extensions>
</trkpt>
<trkpt lat="64.325340271" lon="-20.129356384">
<ele>217.781250</ele>
<time>2012-07-20T12:35:44Z</time>
<speed>0.020000</speed>
<extensions>
<speed>0.0</speed>
<temp>0.00</temp>
<bpm>0</bpm>
<rpm>0.00</rpm>
</extensions>
</trkpt>
<trkpt lat="64.325340271" lon="-20.129356384">
<ele>217.757813</ele>
<time>2012-07-20T12:35:49Z</time>
<extensions>
<speed>0.0</speed>
<temp>0.00</temp>
<bpm>0</bpm>
<rpm>0.00</rpm>
</extensions>
</trkpt>
<trkpt lat="64.325340271" lon="-20.129356384">
<ele>217.730469</ele>
<time>2012-07-20T12:35:54Z</time>
<extensions>
<speed>0.0</speed>
<temp>0.00</temp>
<bpm>0</bpm>
<rpm>0.00</rpm>
</extensions>
</trkpt>
<trkpt lat="64.325340271" lon="-20.129358292">
<ele>217.710938</ele>
<time>2012-07-20T12:35:59Z</time>
<extensions>
<speed>0.0</speed>
<temp>0.00</temp>
<bpm>0</bpm>
<rpm>0.00</rpm>
</extensions>
</trkpt>
<trkpt lat="64.325340271" lon="-20.129358292">
<ele>217.710938</ele>
<time>2012-07-20T12:36:04Z</time>
<extensions>
<speed>0.0</speed>
<temp>0.00</temp>
<bpm>0</bpm>
<rpm>0.00</rpm>
</extensions>
</trkpt>
<trkpt lat="64.325340271" lon="-20.129358292">
<ele>217.703125</ele>
<time>2012-07-20T12:36:09Z</time>
<speed>0.020000</speed>
<extensions>
<speed>0.0</speed>
<temp>0.00</temp>
<bpm>0</bpm>
<rpm>0.00</rpm>
</extensions>
</trkpt>
<trkpt lat="64.325340271" lon="-20.129358292">
<ele>217.703125</ele>
<time>2012-07-20T12:36:14Z</time>
<extensions>
<speed>0.0</speed>
<temp>0.00</temp>
<bpm>0</bpm>
<rpm>0.00</rpm>
</extensions>
</trkpt>
<trkpt lat="64.325340271" lon="-20.129358292">
<ele>217.699219</ele>
<time>2012-07-20T12:36:19Z</time>
<speed>0.020000</speed>
<extensions>
<speed>0.0</speed>
<temp>0.00</temp>
<bpm>0</bpm>
<rpm>0.00</rpm>
</extensions>
</trkpt>
<trkpt lat="64.325340271" lon="-20.129358292">
<ele>217.707031</ele>
<time>2012-07-20T12:36:24Z</time>
<speed>0.030000</speed>
<extensions>
<speed>0.0</speed>
<temp>0.00</temp>
<bpm>0</bpm>
<rpm>0.00</rpm>
</extensions>
</trkpt>
<trkpt lat="64.325340271" lon="-20.129356384">
<ele>217.707031</ele>
<time>2012-07-20T12:36:29Z</time>
<speed>0.040000</speed>
<extensions>
<speed>0.0</speed>
<temp>0.00</temp>
<bpm>0</bpm>
<rpm>0.00</rpm>
</extensions>
</trkpt>
<trkpt lat="64.325340271" lon="-20.129356384">
<ele>217.699219</ele>
<time>2012-07-20T12:36:34Z</time>
<speed>0.040000</speed>
<extensions>
<speed>0.0</speed>
<temp>0.00</temp>
<bpm>0</bpm>
<rpm>0.00</rpm>
</extensions>
</trkpt>
<trkpt lat="64.325340271" lon="-20.129356384">
<ele>217.695313</ele>
<time>2012-07-20T12:36:39Z</time>
<speed>0.010000</speed>
<extensions>
<speed>0.0</speed>
<temp>0.00</temp>
<bpm>0</bpm>
<rpm>0.00</rpm>
</extensions>
</trkpt>
<trkpt lat="64.325340271" lon="-20.129354477">
<ele>217.683594</ele>
<time>2012-07-20T12:36:44Z</time>
<speed>0.010000</speed>
<extensions>
<speed>0.0</speed>
<temp>0.00</temp>
<bpm>0</bpm>
<rpm>0.00</rpm>
</extensions>
</trkpt>
<trkpt lat="64.325340271" lon="-20.129354477">
<ele>217.687500</ele>
<time>2012-07-20T12:36:49Z</time>
<speed>0.020000</speed>
<extensions>
<speed>0.0</speed>
<temp>0.00</temp>
<bpm>0</bpm>
<rpm>0.00</rpm>
</extensions>
</trkpt>
<trkpt lat="64.325340271" lon="-20.129354477">
<ele>217.691406</ele>
<time>2012-07-20T12:36:54Z</time>
<extensions>
<speed>0.0</speed>
<temp>0.00</temp>
<bpm>0</bpm>
<rpm>0.00</rpm>
</extensions>
</trkpt>
<trkpt lat="64.325340271" lon="-20.129354477">
<ele>217.691406</ele>
<time>2012-07-20T12:36:59Z</time>
<speed>0.010000</speed>
<extensions>
<speed>0.0</speed>
<temp>0.00</temp>
<bpm>0</bpm>
<rpm>0.00</rpm>
</extensions>
</trkpt>
<trkpt lat="64.325340271" lon="-20.129354477">
<ele>217.679688</ele>
<time>2012-07-20T12:37:04Z</time>
<extensions>
<speed>0.0</speed>
<temp>0.00</temp>
<bpm>0</bpm>
<rpm>0.00</rpm>
</extensions>
</trkpt>
<trkpt lat="64.325332642" lon="-20.129354477">
<ele>217.667969</ele>
<time>2012-07-20T12:37:09Z</time>
<speed>0.010000</speed>
<extensions>
<speed>0.0</speed>
<temp>0.00</temp>
<bpm>0</bpm>
<rpm>0.00</rpm>
</extensions>
</trkpt>
<trkpt lat="64.325332642" lon="-20.129354477">
<ele>217.660156</ele>
<time>2012-07-20T12:37:14Z</time>
<extensions>
<speed>0.0</speed>
<temp>0.00</temp>
<bpm>0</bpm>
<rpm>0.00</rpm>
</extensions>
</trkpt>
<trkpt lat="64.325332642" lon="-20.129354477">
<ele>217.664063</ele>
<time>2012-07-20T12:37:19Z</time>
<speed>0.010000</speed>
<extensions>
<speed>0.0</speed>
<temp>0.00</temp>
<bpm>0</bpm>
<rpm>0.00</rpm>
</extensions>
</trkpt>
<trkpt lat="64.325332642" lon="-20.129354477">
<ele>217.667969</ele>
<time>2012-07-20T12:37:24Z</time>
<speed>0.020000</speed>
<extensions>
<speed>0.0</speed>
<temp>0.00</temp>
<bpm>0</bpm>
<rpm>0.00</rpm>
</extensions>
</trkpt>
<trkpt lat="64.325332642" lon="-20.129354477">
<ele>217.656250</ele>
<time>2012-07-20T12:37:29Z</time>
<speed>0.010000</speed>
<extensions>
<speed>0.0</speed>
<temp>0.00</temp>
<bpm>0</bpm>
<rpm>0.00</rpm>
</extensions>
</trkpt>
<trkpt lat="64.325332642" lon="-20.129354477">
<ele>217.648438</ele>
<time>2012-07-20T12:37:34Z</time>
<speed>0.010000</speed>
<extensions>
<speed>0.0</speed>
<temp>0.00</temp>
<bpm>0</bpm>
<rpm>0.00</rpm>
</extensions>
</trkpt>
<trkpt lat="64.325332642" lon="-20.129354477">
<ele>217.628906</ele>
<time>2012-07-20T12:37:39Z</time>
<extensions>
<speed>0.0</speed>
<temp>0.00</temp>
<bpm>0</bpm>
<rpm>0.00</rpm>
</extensions>
</trkpt>
<trkpt lat="64.325332642" lon="-20.129354477">
<ele>217.609375</ele>
<time>2012-07-20T12:37:44Z</time>
<extensions>
<speed>0.0</speed>
<temp>0.00</temp>
<bpm>0</bpm>
<rpm>0.00</rpm>
</extensions>
</trkpt>
<trkpt lat="64.325332642" lon="-20.129354477">
<ele>217.589844</ele>
<time>2012-07-20T12:37:49Z</time>
<extensions>
<speed>0.0</speed>
<temp>0.00</temp>
<bpm>0</bpm>
<rpm>0.00</rpm>
</extensions>
</trkpt>
<trkpt lat="64.325332642" lon="-20.129354477">
<ele>217.574219</ele>
<time>2012-07-20T12:37:54Z</time>
<speed>0.020000</speed>
<extensions>
<speed>0.0</speed>
<temp>0.00</temp>
<bpm>0</bpm>
<rpm>0.00</rpm>
</extensions>
</trkpt>
<trkpt lat="64.325332642" lon="-20.129354477">
<ele>217.550781</ele>
<time>2012-07-20T12:37:59Z</time>
<speed>0.010000</speed>
<extensions>
<speed>0.0</speed>
<temp>0.00</temp>
<bpm>0</bpm>
<rpm>0.00</rpm>
</extensions>
</trkpt>
<trkpt lat="64.325332642" lon="-20.129352570">
<ele>217.558594</ele>
<time>2012-07-20T12:38:04Z</time>
<speed>0.020000</speed>
<extensions>
<speed>0.0</speed>
<temp>0.00</temp>
<bpm>0</bpm>
<rpm>0.00</rpm>
</extensions>
</trkpt>
<trkpt lat="64.325332642" lon="-20.129352570">
<ele>217.566406</ele>
<time>2012-07-20T12:38:09Z</time>
<speed>0.010000</speed>
<extensions>
<speed>0.0</speed>
<temp>0.00</temp>
<bpm>0</bpm>
<rpm>0.00</rpm>
</extensions>
</trkpt>
<trkpt lat="64.325332642" lon="-20.129352570">
<ele>217.585938</ele>
<time>2012-07-20T12:38:14Z</time>
<extensions>
<speed>0.0</speed>
<temp>0.00</temp>
<bpm>0</bpm>
<rpm>0.00</rpm>
</extensions>
</trkpt>
<trkpt lat="64.325332642" lon="-20.129352570">
<ele>217.593750</ele>
<time>2012-07-20T12:38:19Z</time>
<extensions>
<speed>0.0</speed>
<temp>0.00</temp>
<bpm>0</bpm>
<rpm>0.00</rpm>
</extensions>
</trkpt>
<trkpt lat="64.325332642" lon="-20.129354477">
<ele>217.597656</ele>
<time>2012-07-20T12:38:24Z</time>
<speed>0.020000</speed>
<extensions>
<speed>0.0</speed>
<temp>0.00</temp>
<bpm>0</bpm>
<rpm>0.00</rpm>
</extensions>
</trkpt>
<trkpt lat="64.325332642" lon="-20.129354477">
<ele>217.578125</ele>
<time>2012-07-20T12:38:29Z</time>
<speed>0.010000</speed>
<extensions>
<speed>0.0</speed>
<temp>0.00</temp>
<bpm>0</bpm>
<rpm>0.00</rpm>
</extensions>
</trkpt>
<trkpt lat="64.325332642" lon="-20.129354477">
<ele>217.589844</ele>
<time>2012-07-20T12:38:34Z</time>
<extensions>
<speed>0.0</speed>
<temp>0.00</temp>
<bpm>0</bpm>
<rpm>0.00</rpm>
</extensions>
</trkpt>
<trkpt lat="64.325332642" lon="-20.129352570">
<ele>217.613281</ele>
<time>2012-07-20T12:38:39Z</time>
<speed>0.010000</speed>
<extensions>
<speed>0.0</speed>
<temp>0.00</temp>
<bpm>0</bpm>
<rpm>0.00</rpm>
</extensions>
</trkpt>
<trkpt lat="64.325332642" lon="-20.129352570">
<ele>217.625000</ele>
<time>2012-07-20T12:38:44Z</time>
<speed>0.010000</speed>
<extensions>
<speed>0.0</speed>
<temp>0.00</temp>
<bpm>0</bpm>
<rpm>0.00</rpm>
</extensions>
</trkpt>
<trkpt lat="64.325332642" lon="-20.129352570">
<ele>217.613281</ele>
<time>2012-07-20T12:38:49Z</time>
<speed>0.010000</speed>
<extensions>
<speed>0.0</speed>
<temp>0.00</temp>
<bpm>0</bpm>
<rpm>0.00</rpm>
</extensions>
</trkpt>
<trkpt lat="64.325332642" lon="-20.129352570">
<ele>217.605469</ele>
<time>2012-07-20T12:38:54Z</time>
<speed>0.010000</speed>
<extensions>
<speed>0.0</speed>
<temp>0.00</temp>
<bpm>0</bpm>
<rpm>0.00</rpm>
</extensions>
</trkpt>
<trkpt lat="64.325332642" lon="-20.129352570">
<ele>217.585938</ele>
<time>2012-07-20T12:38:59Z</time>
<extensions>
<speed>0.0</speed>
<temp>0.00</temp>
<bpm>0</bpm>
<rpm>0.00</rpm>
</extensions>
</trkpt>
<trkpt lat="64.325332642" lon="-20.129352570">
<ele>217.562500</ele>
<time>2012-07-20T12:39:04Z</time>
<speed>0.010000</speed>
<extensions>
<speed>0.0</speed>
<temp>0.00</temp>
<bpm>0</bpm>
<rpm>0.00</rpm>
</extensions>
</trkpt>
<trkpt lat="64.325332642" lon="-20.129354477">
<ele>217.535156</ele>
<time>2012-07-20T12:39:09Z</time>
<extensions>
<speed>0.0</speed>
<temp>0.00</temp>
<bpm>0</bpm>
<rpm>0.00</rpm>
</extensions>
</trkpt>
<trkpt lat="64.325332642" lon="-20.129354477">
<ele>217.519531</ele>
<time>2012-07-20T12:39:14Z</time>
<extensions>
<speed>0.0</speed>
<temp>0.00</temp>
<bpm>0</bpm>
<rpm>0.00</rpm>
</extensions>
</trkpt>
<trkpt lat="64.325332642" lon="-20.129354477">
<ele>217.507813</ele>
<time>2012-07-20T12:39:19Z</time>
<extensions>
<speed>0.0</speed>
<temp>0.00</temp>
<bpm>0</bpm>
<rpm>0.00</rpm>
</extensions>
</trkpt>
<trkpt lat="64.325332642" lon="-20.129354477">
<ele>217.488281</ele>
<time>2012-07-20T12:39:24Z</time>
<extensions>
<speed>0.0</speed>
<temp>0.00</temp>
<bpm>0</bpm>
<rpm>0.00</rpm>
</extensions>
</trkpt>
<trkpt lat="64.325332642" lon="-20.129354477">
<ele>217.484375</ele>
<time>2012-07-20T12:39:29Z</time>
<speed>0.020000</speed>
<extensions>
<speed>0.0</speed>
<temp>0.00</temp>
<bpm>0</bpm>
<rpm>0.00</rpm>
</extensions>
</trkpt>
<trkpt lat="64.325332642" lon="-20.129356384">
<ele>217.484375</ele>
<time>2012-07-20T12:39:34Z</time>
<speed>0.010000</speed>
<extensions>
<speed>0.0</speed>
<temp>0.00</temp>
<bpm>0</bpm>
<rpm>0.00</rpm>
</extensions>
</trkpt>
<trkpt lat="64.325332642" lon="-20.129356384">
<ele>217.472656</ele>
<time>2012-07-20T12:39:39Z</time>
<speed>0.020000</speed>
<extensions>
<speed>0.0</speed>
<temp>0.00</temp>
<bpm>0</bpm>
<rpm>0.00</rpm>
</extensions>
</trkpt>
<trkpt lat="64.325332642" lon="-20.129358292">
<ele>217.468750</ele>
<time>2012-07-20T12:39:44Z</time>
<speed>0.030000</speed>
<extensions>
<speed>0.0</speed>
<temp>0.00</temp>
<bpm>0</bpm>
<rpm>0.00</rpm>
</extensions>
</trkpt>
<trkpt lat="64.325332642" lon="-20.129358292">
<ele>217.472656</ele>
<time>2012-07-20T12:39:49Z</time>
<speed>0.030000</speed>
<extensions>
<speed>0.0</speed>
<temp>0.00</temp>
<bpm>0</bpm>
<rpm>0.00</rpm>
</extensions>
</trkpt>
<trkpt lat="64.325332642" lon="-20.129360199">
<ele>217.457031</ele>
<time>2012-07-20T12:39:54Z</time>
<speed>0.030000</speed>
<extensions>
<speed>0.0</speed>
<temp>0.00</temp>
<bpm>0</bpm>
<rpm>0.00</rpm>
</extensions>
</trkpt>
<trkpt lat="64.325332642" lon="-20.129360199">
<ele>217.445313</ele>
<time>2012-07-20T12:39:59Z</time>
<extensions>
<speed>0.0</speed>
<temp>0.00</temp>
<bpm>0</bpm>
<rpm>0.00</rpm>
</extensions>
</trkpt>
<trkpt lat="64.325332642" lon="-20.129362106">
<ele>217.429688</ele>
<time>2012-07-20T12:40:04Z</time>
<speed>0.010000</speed>
<extensions>
<speed>0.0</speed>
<temp>0.00</temp>
<bpm>0</bpm>
<rpm>0.00</rpm>
</extensions>
</trkpt>
<trkpt lat="64.325332642" lon="-20.129362106">
<ele>217.417969</ele>
<time>2012-07-20T12:40:09Z</time>
<speed>0.010000</speed>
<extensions>
<speed>0.0</speed>
<temp>0.00</temp>
<bpm>0</bpm>
<rpm>0.00</rpm>
</extensions>
</trkpt>
<trkpt lat="64.325325012" lon="-20.129364014">
<ele>217.394531</ele>
<time>2012-07-20T12:40:14Z</time>
<speed>0.010000</speed>
<extensions>
<speed>0.0</speed>
<temp>0.00</temp>
<bpm>0</bpm>
<rpm>0.00</rpm>
</extensions>
</trkpt>
<trkpt lat="64.325325012" lon="-20.129364014">
<ele>217.371094</ele>
<time>2012-07-20T12:40:19Z</time>
<speed>0.010000</speed>
<extensions>
<speed>0.0</speed>
<temp>0.00</temp>
<bpm>0</bpm>
<rpm>0.00</rpm>
</extensions>
</trkpt>
<trkpt lat="64.325325012" lon="-20.129364014">
<ele>217.351563</ele>
<time>2012-07-20T12:40:24Z</time>
<speed>0.010000</speed>
<extensions>
<speed>0.0</speed>
<temp>0.00</temp>
<bpm>0</bpm>
<rpm>0.00</rpm>
</extensions>
</trkpt>
<trkpt lat="64.325325012" lon="-20.129365921">
<ele>217.335938</ele>
<time>2012-07-20T12:40:29Z</time>
<extensions>
<speed>0.0</speed>
<temp>0.00</temp>
<bpm>0</bpm>
<rpm>0.00</rpm>
</extensions>
</trkpt>
<trkpt lat="64.325325012" lon="-20.129365921">
<ele>217.328125</ele>
<time>2012-07-20T12:40:34Z</time>
<extensions>
<speed>0.0</speed>
<temp>0.00</temp>
<bpm>0</bpm>
<rpm>0.00</rpm>
</extensions>
</trkpt>
<trkpt lat="64.325325012" lon="-20.129365921">
<ele>217.332031</ele>
<time>2012-07-20T12:40:39Z</time>
<speed>0.010000</speed>
<extensions>
<speed>0.0</speed>
<temp>0.00</temp>
<bpm>0</bpm>
<rpm>0.00</rpm>
</extensions>
</trkpt>
<trkpt lat="64.325325012" lon="-20.129365921">
<ele>217.328125</ele>
<time>2012-07-20T12:40:44Z</time>
<extensions>
<speed>0.0</speed>
<temp>0.00</temp>
<bpm>0</bpm>
<rpm>0.00</rpm>
</extensions>
</trkpt>
<trkpt lat="64.325325012" lon="-20.129365921">
<ele>217.316406</ele>
<time>2012-07-20T12:40:49Z</time>
<speed>0.010000</speed>
<extensions>
<speed>0.0</speed>
<temp>0.00</temp>
<bpm>0</bpm>
<rpm>0.00</rpm>
</extensions>
</trkpt>
<trkpt lat="64.325325012" lon="-20.129365921">
<ele>217.285156</ele>
<time>2012-07-20T12:40:54Z</time>
<speed>0.010000</speed>
<extensions>
<speed>0.0</speed>
<temp>0.00</temp>
<bpm>0</bpm>
<rpm>0.00</rpm>
</extensions>
</trkpt>
<trkpt lat="64.325325012" lon="-20.129367828">
<ele>217.238281</ele>
<time>2012-07-20T12:40:59Z</time>
<speed>0.020000</speed>
<extensions>
<speed>0.0</speed>
<temp>0.00</temp>
<bpm>0</bpm>
<rpm>0.00</rpm>
</extensions>
</trkpt>
<trkpt lat="64.325325012" lon="-20.129367828">
<ele>217.187500</ele>
<time>2012-07-20T12:41:04Z</time>
<extensions>
<speed>0.0</speed>
<temp>0.00</temp>
<bpm>0</bpm>
<rpm>0.00</rpm>
</extensions>
</trkpt>
<trkpt lat="64.325325012" lon="-20.129367828">
<ele>217.156250</ele>
<time>2012-07-20T12:41:09Z</time>
<speed>0.010000</speed>
<extensions>
<speed>0.0</speed>
<temp>0.00</temp>
<bpm>0</bpm>
<rpm>0.00</rpm>
</extensions>
</trkpt>
<trkpt lat="64.325325012" lon="-20.129367828">
<ele>217.140625</ele>
<time>2012-07-20T12:41:14Z</time>
<extensions>
<speed>0.0</speed>
<temp>0.00</temp>
<bpm>0</bpm>
<rpm>0.00</rpm>
</extensions>
</trkpt>
<trkpt lat="64.325325012" lon="-20.129367828">
<ele>217.128906</ele>
<time>2012-07-20T12:41:19Z</time>
<speed>0.010000</speed>
<extensions>
<speed>0.0</speed>
<temp>0.00</temp>
<bpm>0</bpm>
<rpm>0.00</rpm>
</extensions>
</trkpt>
<trkpt lat="64.325325012" lon="-20.129367828">
<ele>217.125000</ele>
<time>2012-07-20T12:41:24Z</time>
<speed>0.020000</speed>
<extensions>
<speed>0.0</speed>
<temp>0.00</temp>
<bpm>0</bpm>
<rpm>0.00</rpm>
</extensions>
</trkpt>
<trkpt lat="64.325325012" lon="-20.129367828">
<ele>217.117188</ele>
<time>2012-07-20T12:41:29Z</time>
<speed>0.010000</speed>
<extensions>
<speed>0.0</speed>
<temp>0.00</temp>
<bpm>0</bpm>
<rpm>0.00</rpm>
</extensions>
</trkpt>
<trkpt lat="64.325325012" lon="-20.129367828">
<ele>217.113281</ele>
<time>2012-07-20T12:41:34Z</time>
<speed>0.040000</speed>
<extensions>
<speed>0.0</speed>
<temp>0.00</temp>
<bpm>0</bpm>
<rpm>0.00</rpm>
</extensions>
</trkpt>
<trkpt lat="64.325325012" lon="-20.129367828">
<ele>217.113281</ele>
<time>2012-07-20T12:41:39Z</time>
<speed>0.030000</speed>
<extensions>
<speed>0.0</speed>
<temp>0.00</temp>
<bpm>0</bpm>
<rpm>0.00</rpm>
</extensions>
</trkpt>
<trkpt lat="64.325325012" lon="-20.129367828">
<ele>217.117188</ele>
<time>2012-07-20T12:41:44Z</time>
<speed>0.010000</speed>
<extensions>
<speed>0.0</speed>
<temp>0.00</temp>
<bpm>0</bpm>
<rpm>0.00</rpm>
</extensions>
</trkpt>
<trkpt lat="64.325325012" lon="-20.129367828">
<ele>217.117188</ele>
<time>2012-07-20T12:41:49Z</time>
<speed>0.010000</speed>
<extensions>
<speed>0.0</speed>
<temp>0.00</temp>
<bpm>0</bpm>
<rpm>0.00</rpm>
</extensions>
</trkpt>
<trkpt lat="64.325325012" lon="-20.129367828">
<ele>217.132813</ele>
<time>2012-07-20T12:41:54Z</time>
<speed>0.010000</speed>
<extensions>
<speed>0.0</speed>
<temp>0.00</temp>
<bpm>0</bpm>
<rpm>0.00</rpm>
</extensions>
</trkpt>
<trkpt lat="64.325325012" lon="-20.129367828">
<ele>217.136719</ele>
<time>2012-07-20T12:41:59Z</time>
<extensions>
<speed>0.0</speed>
<temp>0.00</temp>
<bpm>0</bpm>
<rpm>0.00</rpm>
</extensions>
</trkpt>
<trkpt lat="64.325325012" lon="-20.129367828">
<ele>217.136719</ele>
<time>2012-07-20T12:42:04Z</time>
<speed>0.010000</speed>
<extensions>
<speed>0.0</speed>
<temp>0.00</temp>
<bpm>0</bpm>
<rpm>0.00</rpm>
</extensions>
</trkpt>
<trkpt lat="64.325325012" lon="-20.129367828">
<ele>217.148438</ele>
<time>2012-07-20T12:42:09Z</time>
<speed>0.020000</speed>
<extensions>
<speed>0.0</speed>
<temp>0.00</temp>
<bpm>0</bpm>
<rpm>0.00</rpm>
</extensions>
</trkpt>
<trkpt lat="64.325325012" lon="-20.129367828">
<ele>217.164063</ele>
<time>2012-07-20T12:42:14Z</time>
<speed>0.010000</speed>
<extensions>
<speed>0.0</speed>
<temp>0.00</temp>
<bpm>0</bpm>
<rpm>0.00</rpm>
</extensions>
</trkpt>
<trkpt lat="64.325325012" lon="-20.129367828">
<ele>217.167969</ele>
<time>2012-07-20T12:42:19Z</time>
<speed>0.010000</speed>
<extensions>
<speed>0.0</speed>
<temp>0.00</temp>
<bpm>0</bpm>
<rpm>0.00</rpm>
</extensions>
</trkpt>
<trkpt lat="64.325325012" lon="-20.129367828">
<ele>217.140625</ele>
<time>2012-07-20T12:42:24Z</time>
<speed>0.020000</speed>
<extensions>
<speed>0.0</speed>
<temp>0.00</temp>
<bpm>0</bpm>
<rpm>0.00</rpm>
</extensions>
</trkpt>
<trkpt lat="64.325325012" lon="-20.129367828">
<ele>217.125000</ele>
<time>2012-07-20T12:42:29Z</time>
<speed>0.010000</speed>
<extensions>
<speed>0.0</speed>
<temp>0.00</temp>
<bpm>0</bpm>
<rpm>0.00</rpm>
</extensions>
</trkpt>
<trkpt lat="64.325325012" lon="-20.129367828">
<ele>217.113281</ele>
<time>2012-07-20T12:42:34Z</time>
<speed>0.010000</speed>
<extensions>
<speed>0.0</speed>
<temp>0.00</temp>
<bpm>0</bpm>
<rpm>0.00</rpm>
</extensions>
</trkpt>
<trkpt lat="64.325325012" lon="-20.129367828">
<ele>217.113281</ele>
<time>2012-07-20T12:42:39Z</time>
<speed>0.010000</speed>
<extensions>
<speed>0.0</speed>
<temp>0.00</temp>
<bpm>0</bpm>
<rpm>0.00</rpm>
</extensions>
</trkpt>
<trkpt lat="64.325325012" lon="-20.129367828">
<ele>217.121094</ele>
<time>2012-07-20T12:42:44Z</time>
<speed>0.020000</speed>
<extensions>
<speed>0.0</speed>
<temp>0.00</temp>
<bpm>0</bpm>
<rpm>0.00</rpm>
</extensions>
</trkpt>
<trkpt lat="64.325325012" lon="-20.129365921">
<ele>217.117188</ele>
<time>2012-07-20T12:42:49Z</time>
<speed>0.010000</speed>
<extensions>
<speed>0.0</speed>
<temp>0.00</temp>
<bpm>0</bpm>
<rpm>0.00</rpm>
</extensions>
</trkpt>
<trkpt lat="64.325325012" lon="-20.129365921">
<ele>217.128906</ele>
<time>2012-07-20T12:42:54Z</time>
<speed>0.010000</speed>
<extensions>
<speed>0.0</speed>
<temp>0.00</temp>
<bpm>0</bpm>
<rpm>0.00</rpm>
</extensions>
</trkpt>
<trkpt lat="64.325325012" lon="-20.129365921">
<ele>217.152344</ele>
<time>2012-07-20T12:42:59Z</time>
<extensions>
<speed>0.0</speed>
<temp>0.00</temp>
<bpm>0</bpm>
<rpm>0.00</rpm>
</extensions>
</trkpt>
<trkpt lat="64.325325012" lon="-20.129365921">
<ele>217.167969</ele>
<time>2012-07-20T12:43:04Z</time>
<speed>0.030000</speed>
<extensions>
<speed>0.0</speed>
<temp>0.00</temp>
<bpm>0</bpm>
<rpm>0.00</rpm>
</extensions>
</trkpt>
<trkpt lat="64.325325012" lon="-20.129365921">
<ele>217.164063</ele>
<time>2012-07-20T12:43:09Z</time>
<speed>0.030000</speed>
<extensions>
<speed>0.0</speed>
<temp>0.00</temp>
<bpm>0</bpm>
<rpm>0.00</rpm>
</extensions>
</trkpt>
<trkpt lat="64.325325012" lon="-20.129365921">
<ele>217.195313</ele>
<time>2012-07-20T12:43:14Z</time>
<speed>0.020000</speed>
<extensions>
<speed>0.0</speed>
<temp>0.00</temp>
<bpm>0</bpm>
<rpm>0.00</rpm>
</extensions>
</trkpt>
<trkpt lat="64.325325012" lon="-20.129365921">
<ele>217.218750</ele>
<time>2012-07-20T12:43:19Z</time>
<speed>0.010000</speed>
<extensions>
<speed>0.0</speed>
<temp>0.00</temp>
<bpm>0</bpm>
<rpm>0.00</rpm>
</extensions>
</trkpt>
<trkpt lat="64.325325012" lon="-20.129367828">
<ele>217.261719</ele>
<time>2012-07-20T12:43:24Z</time>
<speed>0.020000</speed>
<extensions>
<speed>0.0</speed>
<temp>0.00</temp>
<bpm>0</bpm>
<rpm>0.00</rpm>
</extensions>
</trkpt>
<trkpt lat="64.325325012" lon="-20.129367828">
<ele>217.285156</ele>
<time>2012-07-20T12:43:29Z</time>
<speed>0.030000</speed>
<extensions>
<speed>0.0</speed>
<temp>0.00</temp>
<bpm>0</bpm>
<rpm>0.00</rpm>
</extensions>
</trkpt>
<trkpt lat="64.325325012" lon="-20.129367828">
<ele>217.339844</ele>
<time>2012-07-20T12:43:34Z</time>
<extensions>
<speed>0.0</speed>
<temp>0.00</temp>
<bpm>0</bpm>
<rpm>0.00</rpm>
</extensions>
</trkpt>
<trkpt lat="64.325325012" lon="-20.129367828">
<ele>217.382813</ele>
<time>2012-07-20T12:43:39Z</time>
<speed>0.010000</speed>
<extensions>
<speed>0.0</speed>
<temp>0.00</temp>
<bpm>0</bpm>
<rpm>0.00</rpm>
</extensions>
</trkpt>
<trkpt lat="64.325325012" lon="-20.129369736">
<ele>217.402344</ele>
<time>2012-07-20T12:43:44Z</time>
<speed>0.020000</speed>
<extensions>
<speed>0.0</speed>
<temp>0.00</temp>
<bpm>0</bpm>
<rpm>0.00</rpm>
</extensions>
</trkpt>
<trkpt lat="64.325325012" lon="-20.129369736">
<ele>217.437500</ele>
<time>2012-07-20T12:43:49Z</time>
<speed>0.050000</speed>
<extensions>
<speed>0.1</speed>
<temp>0.00</temp>
<bpm>0</bpm>
<rpm>0.00</rpm>
</extensions>
</trkpt>
<trkpt lat="64.325325012" lon="-20.129369736">
<ele>217.476563</ele>
<time>2012-07-20T12:43:54Z</time>
<speed>0.040000</speed>
<extensions>
<speed>0.0</speed>
<temp>0.00</temp>
<bpm>0</bpm>
<rpm>0.00</rpm>
</extensions>
</trkpt>
<trkpt lat="64.325325012" lon="-20.129371643">
<ele>217.496094</ele>
<time>2012-07-20T12:43:59Z</time>
<extensions>
<speed>0.0</speed>
<temp>0.00</temp>
<bpm>0</bpm>
<rpm>0.00</rpm>
</extensions>
</trkpt>
<trkpt lat="64.325325012" lon="-20.129371643">
<ele>217.519531</ele>
<time>2012-07-20T12:44:04Z</time>
<speed>0.030000</speed>
<extensions>
<speed>0.0</speed>
<temp>0.00</temp>
<bpm>0</bpm>
<rpm>0.00</rpm>
</extensions>
</trkpt>
<trkpt lat="64.325325012" lon="-20.129373550">
<ele>217.546875</ele>
<time>2012-07-20T12:44:09Z</time>
<speed>0.020000</speed>
<extensions>
<speed>0.0</speed>
<temp>0.00</temp>
<bpm>0</bpm>
<rpm>0.00</rpm>
</extensions>
</trkpt>
<trkpt lat="64.325325012" lon="-20.129375458">
<ele>217.570313</ele>
<time>2012-07-20T12:44:14Z</time>
<speed>0.010000</speed>
<extensions>
<speed>0.0</speed>
<temp>0.00</temp>
<bpm>0</bpm>
<rpm>0.00</rpm>
</extensions>
</trkpt>
<trkpt lat="64.325317383" lon="-20.129375458">
<ele>217.570313</ele>
<time>2012-07-20T12:44:19Z</time>
<speed>0.020000</speed>
<extensions>
<speed>0.0</speed>
<temp>0.00</temp>
<bpm>0</bpm>
<rpm>0.00</rpm>
</extensions>
</trkpt>
<trkpt lat="64.325317383" lon="-20.129377365">
<ele>217.582031</ele>
<time>2012-07-20T12:44:24Z</time>
<speed>0.010000</speed>
<extensions>
<speed>0.0</speed>
<temp>0.00</temp>
<bpm>0</bpm>
<rpm>0.00</rpm>
</extensions>
</trkpt>
<trkpt lat="64.325317383" lon="-20.129379272">
<ele>217.601563</ele>
<time>2012-07-20T12:44:29Z</time>
<speed>0.030000</speed>
<extensions>
<speed>0.0</speed>
<temp>0.00</temp>
<bpm>0</bpm>
<rpm>0.00</rpm>
</extensions>
</trkpt>
<trkpt lat="64.325317383" lon="-20.129381180">
<ele>217.617188</ele>
<time>2012-07-20T12:44:34Z</time>
<speed>0.040000</speed>
<extensions>
<speed>0.0</speed>
<temp>0.00</temp>
<bpm>0</bpm>
<rpm>0.00</rpm>
</extensions>
</trkpt>
<trkpt lat="64.325317383" lon="-20.129381180">
<ele>217.625000</ele>
<time>2012-07-20T12:44:39Z</time>
<extensions>
<speed>0.0</speed>
<temp>0.00</temp>
<bpm>0</bpm>
<rpm>0.00</rpm>
</extensions>
</trkpt>
<trkpt lat="64.325317383" lon="-20.129381180">
<ele>217.656250</ele>
<time>2012-07-20T12:44:44Z</time>
<speed>0.010000</speed>
<extensions>
<speed>0.0</speed>
<temp>0.00</temp>
<bpm>0</bpm>
<rpm>0.00</rpm>
</extensions>
</trkpt>
<trkpt lat="64.325317383" lon="-20.129383087">
<ele>217.671875</ele>
<time>2012-07-20T12:44:49Z</time>
<speed>0.020000</speed>
<extensions>
<speed>0.0</speed>
<temp>0.00</temp>
<bpm>0</bpm>
<rpm>0.00</rpm>
</extensions>
</trkpt>
<trkpt lat="64.325317383" lon="-20.129383087">
<ele>217.687500</ele>
<time>2012-07-20T12:44:54Z</time>
<speed>0.050000</speed>
<extensions>
<speed>0.1</speed>
<temp>0.00</temp>
<bpm>0</bpm>
<rpm>0.00</rpm>
</extensions>
</trkpt>
<trkpt lat="64.325317383" lon="-20.129383087">
<ele>217.703125</ele>
<time>2012-07-20T12:44:59Z</time>
<speed>0.020000</speed>
<extensions>
<speed>0.0</speed>
<temp>0.00</temp>
<bpm>0</bpm>
<rpm>0.00</rpm>
</extensions>
</trkpt>
<trkpt lat="64.325317383" lon="-20.129384995">
<ele>217.718750</ele>
<time>2012-07-20T12:45:04Z</time>
<speed>0.020000</speed>
<extensions>
<speed>0.0</speed>
<temp>0.00</temp>
<bpm>0</bpm>
<rpm>0.00</rpm>
</extensions>
</trkpt>
<trkpt lat="64.325317383" lon="-20.129386902">
<ele>217.781250</ele>
<time>2012-07-20T12:45:09Z</time>
<speed>0.020000</speed>
<extensions>
<speed>0.0</speed>
<temp>0.00</temp>
<bpm>0</bpm>
<rpm>0.00</rpm>
</extensions>
</trkpt>
<trkpt lat="64.325317383" lon="-20.129388809">
<ele>217.843750</ele>
<time>2012-07-20T12:45:14Z</time>
<speed>0.020000</speed>
<extensions>
<speed>0.0</speed>
<temp>0.00</temp>
<bpm>0</bpm>
<rpm>0.00</rpm>
</extensions>
</trkpt>
<trkpt lat="64.325317383" lon="-20.129388809">
<ele>217.914063</ele>
<time>2012-07-20T12:45:19Z</time>
<speed>0.050000</speed>
<extensions>
<speed>0.1</speed>
<temp>0.00</temp>
<bpm>0</bpm>
<rpm>0.00</rpm>
</extensions>
</trkpt>
<trkpt lat="64.325317383" lon="-20.129390717">
<ele>217.972656</ele>
<time>2012-07-20T12:45:24Z</time>
<speed>0.020000</speed>
<extensions>
<speed>0.0</speed>
<temp>0.00</temp>
<bpm>0</bpm>
<rpm>0.00</rpm>
</extensions>
</trkpt>
<trkpt lat="64.325325012" lon="-20.129392624">
<ele>218.011719</ele>
<time>2012-07-20T12:45:29Z</time>
<speed>0.030000</speed>
<extensions>
<speed>0.0</speed>
<temp>0.00</temp>
<bpm>0</bpm>
<rpm>0.00</rpm>
</extensions>
</trkpt>
<trkpt lat="64.325325012" lon="-20.129392624">
<ele>218.050781</ele>
<time>2012-07-20T12:45:34Z</time>
<extensions>
<speed>0.0</speed>
<temp>0.00</temp>
<bpm>0</bpm>
<rpm>0.00</rpm>
</extensions>
</trkpt>
<trkpt lat="64.325325012" lon="-20.129394531">
<ele>218.097656</ele>
<time>2012-07-20T12:45:39Z</time>
<speed>0.040000</speed>
<extensions>
<speed>0.0</speed>
<temp>0.00</temp>
<bpm>0</bpm>
<rpm>0.00</rpm>
</extensions>
</trkpt>
<trkpt lat="64.325325012" lon="-20.129396439">
<ele>218.136719</ele>
<time>2012-07-20T12:45:44Z</time>
<speed>0.040000</speed>
<extensions>
<speed>0.0</speed>
<temp>0.00</temp>
<bpm>0</bpm>
<rpm>0.00</rpm>
</extensions>
</trkpt>
<trkpt lat="64.325325012" lon="-20.129396439">
<ele>218.183594</ele>
<time>2012-07-20T12:45:49Z</time>
<speed>0.040000</speed>
<extensions>
<speed>0.0</speed>
<temp>0.00</temp>
<bpm>0</bpm>
<rpm>0.00</rpm>
</extensions>
</trkpt>
<trkpt lat="64.325325012" lon="-20.129398346">
<ele>218.203125</ele>
<time>2012-07-20T12:45:54Z</time>
<speed>0.020000</speed>
<extensions>
<speed>0.0</speed>
<temp>0.00</temp>
<bpm>0</bpm>
<rpm>0.00</rpm>
</extensions>
</trkpt>
<trkpt lat="64.325325012" lon="-20.129400253">
<ele>218.226563</ele>
<time>2012-07-20T12:45:59Z</time>
<speed>0.020000</speed>
<extensions>
<speed>0.0</speed>
<temp>0.00</temp>
<bpm>0</bpm>
<rpm>0.00</rpm>
</extensions>
</trkpt>
<trkpt lat="64.325325012" lon="-20.129402161">
<ele>218.250000</ele>
<time>2012-07-20T12:46:04Z</time>
<speed>0.030000</speed>
<extensions>
<speed>0.0</speed>
<temp>0.00</temp>
<bpm>0</bpm>
<rpm>0.00</rpm>
</extensions>
</trkpt>
<trkpt lat="64.325325012" lon="-20.129404068">
<ele>218.289063</ele>
<time>2012-07-20T12:46:09Z</time>
<speed>0.030000</speed>
<extensions>
<speed>0.0</speed>
<temp>0.00</temp>
<bpm>0</bpm>
<rpm>0.00</rpm>
</extensions>
</trkpt>
<trkpt lat="64.325325012" lon="-20.129404068">
<ele>218.289063</ele>
<time>2012-07-20T12:46:14Z</time>
<speed>0.020000</speed>
<extensions>
<speed>0.0</speed>
<temp>0.00</temp>
<bpm>0</bpm>
<rpm>0.00</rpm>
</extensions>
</trkpt>
<trkpt lat="64.325325012" lon="-20.129405975">
<ele>218.292969</ele>
<time>2012-07-20T12:46:19Z</time>
<speed>0.020000</speed>
<extensions>
<speed>0.0</speed>
<temp>0.00</temp>
<bpm>0</bpm>
<rpm>0.00</rpm>
</extensions>
</trkpt>
<trkpt lat="64.325325012" lon="-20.129407883">
<ele>218.328125</ele>
<time>2012-07-20T12:46:24Z</time>
<speed>0.020000</speed>
<extensions>
<speed>0.0</speed>
<temp>0.00</temp>
<bpm>0</bpm>
<rpm>0.00</rpm>
</extensions>
</trkpt>
<trkpt lat="64.325325012" lon="-20.129409790">
<ele>218.347656</ele>
<time>2012-07-20T12:46:29Z</time>
<speed>0.010000</speed>
<extensions>
<speed>0.0</speed>
<temp>0.00</temp>
<bpm>0</bpm>
<rpm>0.00</rpm>
</extensions>
</trkpt>
<trkpt lat="64.325325012" lon="-20.129409790">
<ele>218.371094</ele>
<time>2012-07-20T12:46:34Z</time>
<speed>0.010000</speed>
<extensions>
<speed>0.0</speed>
<temp>0.00</temp>
<bpm>0</bpm>
<rpm>0.00</rpm>
</extensions>
</trkpt>
<trkpt lat="64.325325012" lon="-20.129409790">
<ele>218.386719</ele>
<time>2012-07-20T12:46:39Z</time>
<extensions>
<speed>0.0</speed>
<temp>0.00</temp>
<bpm>0</bpm>
<rpm>0.00</rpm>
</extensions>
</trkpt>
<trkpt lat="64.325325012" lon="-20.129409790">
<ele>218.390625</ele>
<time>2012-07-20T12:46:44Z</time>
<extensions>
<speed>0.0</speed>
<temp>0.00</temp>
<bpm>0</bpm>
<rpm>0.00</rpm>
</extensions>
</trkpt>
<trkpt lat="64.325325012" lon="-20.129411697">
<ele>218.367188</ele>
<time>2012-07-20T12:46:49Z</time>
<extensions>
<speed>0.0</speed>
<temp>0.00</temp>
<bpm>0</bpm>
<rpm>0.00</rpm>
</extensions>
</trkpt>
<trkpt lat="64.325325012" lon="-20.129411697">
<ele>218.351563</ele>
<time>2012-07-20T12:46:54Z</time>
<extensions>
<speed>0.0</speed>
<temp>0.00</temp>
<bpm>0</bpm>
<rpm>0.00</rpm>
</extensions>
</trkpt>
<trkpt lat="64.325325012" lon="-20.129411697">
<ele>218.351563</ele>
<time>2012-07-20T12:46:59Z</time>
<speed>0.010000</speed>
<extensions>
<speed>0.0</speed>
<temp>0.00</temp>
<bpm>0</bpm>
<rpm>0.00</rpm>
</extensions>
</trkpt>
<trkpt lat="64.325325012" lon="-20.129411697">
<ele>218.351563</ele>
<time>2012-07-20T12:47:04Z</time>
<speed>0.010000</speed>
<extensions>
<speed>0.0</speed>
<temp>0.00</temp>
<bpm>0</bpm>
<rpm>0.00</rpm>
</extensions>
</trkpt>
<trkpt lat="64.325325012" lon="-20.129411697">
<ele>218.355469</ele>
<time>2012-07-20T12:47:09Z</time>
<speed>0.020000</speed>
<extensions>
<speed>0.0</speed>
<temp>0.00</temp>
<bpm>0</bpm>
<rpm>0.00</rpm>
</extensions>
</trkpt>
<trkpt lat="64.325325012" lon="-20.129411697">
<ele>218.371094</ele>
<time>2012-07-20T12:47:14Z</time>
<speed>0.020000</speed>
<extensions>
<speed>0.0</speed>
<temp>0.00</temp>
<bpm>0</bpm>
<rpm>0.00</rpm>
</extensions>
</trkpt>
<trkpt lat="64.325317383" lon="-20.129411697">
<ele>218.371094</ele>
<time>2012-07-20T12:47:19Z</time>
<speed>0.010000</speed>
<extensions>
<speed>0.0</speed>
<temp>0.00</temp>
<bpm>0</bpm>
<rpm>0.00</rpm>
</extensions>
</trkpt>
<trkpt lat="64.325317383" lon="-20.129413605">
<ele>218.375000</ele>
<time>2012-07-20T12:47:24Z</time>
<speed>0.020000</speed>
<extensions>
<speed>0.0</speed>
<temp>0.00</temp>
<bpm>0</bpm>
<rpm>0.00</rpm>
</extensions>
</trkpt>
<trkpt lat="64.325317383" lon="-20.129413605">
<ele>218.363281</ele>
<time>2012-07-20T12:47:29Z</time>
<speed>0.010000</speed>
<extensions>
<speed>0.0</speed>
<temp>0.00</temp>
<bpm>0</bpm>
<rpm>0.00</rpm>
</extensions>
</trkpt>
<trkpt lat="64.325317383" lon="-20.129413605">
<ele>218.359375</ele>
<time>2012-07-20T12:47:34Z</time>
<extensions>
<speed>0.0</speed>
<temp>0.00</temp>
<bpm>0</bpm>
<rpm>0.00</rpm>
</extensions>
</trkpt>
<trkpt lat="64.325317383" lon="-20.129413605">
<ele>218.351563</ele>
<time>2012-07-20T12:47:39Z</time>
<speed>0.010000</speed>
<extensions>
<speed>0.0</speed>
<temp>0.00</temp>
<bpm>0</bpm>
<rpm>0.00</rpm>
</extensions>
</trkpt>
<trkpt lat="64.325317383" lon="-20.129413605">
<ele>218.343750</ele>
<time>2012-07-20T12:47:44Z</time>
<speed>0.010000</speed>
<extensions>
<speed>0.0</speed>
<temp>0.00</temp>
<bpm>0</bpm>
<rpm>0.00</rpm>
</extensions>
</trkpt>
<trkpt lat="64.325317383" lon="-20.129413605">
<ele>218.335938</ele>
<time>2012-07-20T12:47:49Z</time>
<speed>0.020000</speed>
<extensions>
<speed>0.0</speed>
<temp>0.00</temp>
<bpm>0</bpm>
<rpm>0.00</rpm>
</extensions>
</trkpt>
<trkpt lat="64.325317383" lon="-20.129413605">
<ele>218.351563</ele>
<time>2012-07-20T12:47:54Z</time>
<speed>0.040000</speed>
<extensions>
<speed>0.0</speed>
<temp>0.00</temp>
<bpm>0</bpm>
<rpm>0.00</rpm>
</extensions>
</trkpt>
<trkpt lat="64.325317383" lon="-20.129413605">
<ele>218.355469</ele>
<time>2012-07-20T12:47:59Z</time>
<extensions>
<speed>0.0</speed>
<temp>0.00</temp>
<bpm>0</bpm>
<rpm>0.00</rpm>
</extensions>
</trkpt>
<trkpt lat="64.325317383" lon="-20.129413605">
<ele>218.359375</ele>
<time>2012-07-20T12:48:04Z</time>
<speed>0.020000</speed>
<extensions>
<speed>0.0</speed>
<temp>0.00</temp>
<bpm>0</bpm>
<rpm>0.00</rpm>
</extensions>
</trkpt>
<trkpt lat="64.325317383" lon="-20.129413605">
<ele>218.378906</ele>
<time>2012-07-20T12:48:09Z</time>
<extensions>
<speed>0.0</speed>
<temp>0.00</temp>
<bpm>0</bpm>
<rpm>0.00</rpm>
</extensions>
</trkpt>
<trkpt lat="64.325317383" lon="-20.129413605">
<ele>218.394531</ele>
<time>2012-07-20T12:48:14Z</time>
<speed>0.040000</speed>
<extensions>
<speed>0.0</speed>
<temp>0.00</temp>
<bpm>0</bpm>
<rpm>0.00</rpm>
</extensions>
</trkpt>
<trkpt lat="64.325317383" lon="-20.129411697">
<ele>218.414063</ele>
<time>2012-07-20T12:48:19Z</time>
<speed>0.010000</speed>
<extensions>
<speed>0.0</speed>
<temp>0.00</temp>
<bpm>0</bpm>
<rpm>0.00</rpm>
</extensions>
</trkpt>
<trkpt lat="64.325317383" lon="-20.129411697">
<ele>218.445313</ele>
<time>2012-07-20T12:48:24Z</time>
<speed>0.030000</speed>
<extensions>
<speed>0.0</speed>
<temp>0.00</temp>
<bpm>0</bpm>
<rpm>0.00</rpm>
</extensions>
</trkpt>
<trkpt lat="64.325317383" lon="-20.129411697">
<ele>218.457031</ele>
<time>2012-07-20T12:48:29Z</time>
<extensions>
<speed>0.0</speed>
<temp>0.00</temp>
<bpm>0</bpm>
<rpm>0.00</rpm>
</extensions>
</trkpt>
<trkpt lat="64.325317383" lon="-20.129411697">
<ele>218.457031</ele>
<time>2012-07-20T12:48:34Z</time>
<speed>0.010000</speed>
<extensions>
<speed>0.0</speed>
<temp>0.00</temp>
<bpm>0</bpm>
<rpm>0.00</rpm>
</extensions>
</trkpt>
<trkpt lat="64.325317383" lon="-20.129411697">
<ele>218.457031</ele>
<time>2012-07-20T12:48:39Z</time>
<extensions>
<speed>0.0</speed>
<temp>0.00</temp>
<bpm>0</bpm>
<rpm>0.00</rpm>
</extensions>
</trkpt>
<trkpt lat="64.325317383" lon="-20.129411697">
<ele>218.457031</ele>
<time>2012-07-20T12:48:44Z</time>
<speed>0.010000</speed>
<extensions>
<speed>0.0</speed>
<temp>0.00</temp>
<bpm>0</bpm>
<rpm>0.00</rpm>
</extensions>
</trkpt>
<trkpt lat="64.325317383" lon="-20.129411697">
<ele>218.437500</ele>
<time>2012-07-20T12:48:49Z</time>
<speed>0.010000</speed>
<extensions>
<speed>0.0</speed>
<temp>0.00</temp>
<bpm>0</bpm>
<rpm>0.00</rpm>
</extensions>
</trkpt>
<trkpt lat="64.325317383" lon="-20.129411697">
<ele>218.429688</ele>
<time>2012-07-20T12:48:54Z</time>
<speed>0.010000</speed>
<extensions>
<speed>0.0</speed>
<temp>0.00</temp>
<bpm>0</bpm>
<rpm>0.00</rpm>
</extensions>
</trkpt>
<trkpt lat="64.325317383" lon="-20.129411697">
<ele>218.421875</ele>
<time>2012-07-20T12:48:59Z</time>
<extensions>
<speed>0.0</speed>
<temp>0.00</temp>
<bpm>0</bpm>
<rpm>0.00</rpm>
</extensions>
</trkpt>
<trkpt lat="64.325317383" lon="-20.129411697">
<ele>218.441406</ele>
<time>2012-07-20T12:49:04Z</time>
<extensions>
<speed>0.0</speed>
<temp>0.00</temp>
<bpm>0</bpm>
<rpm>0.00</rpm>
</extensions>
</trkpt>
<trkpt lat="64.325317383" lon="-20.129411697">
<ele>218.425781</ele>
<time>2012-07-20T12:49:09Z</time>
<extensions>
<speed>0.0</speed>
<temp>0.00</temp>
<bpm>0</bpm>
<rpm>0.00</rpm>
</extensions>
</trkpt>
<trkpt lat="64.325317383" lon="-20.129411697">
<ele>218.445313</ele>
<time>2012-07-20T12:49:14Z</time>
<speed>0.020000</speed>
<extensions>
<speed>0.0</speed>
<temp>0.00</temp>
<bpm>0</bpm>
<rpm>0.00</rpm>
</extensions>
</trkpt>
<trkpt lat="64.325325012" lon="-20.129411697">
<ele>218.472656</ele>
<time>2012-07-20T12:49:19Z</time>
<speed>0.010000</speed>
<extensions>
<speed>0.0</speed>
<temp>0.00</temp>
<bpm>0</bpm>
<rpm>0.00</rpm>
</extensions>
</trkpt>
<trkpt lat="64.325325012" lon="-20.129411697">
<ele>218.492188</ele>
<time>2012-07-20T12:49:24Z</time>
<speed>0.030000</speed>
<extensions>
<speed>0.0</speed>
<temp>0.00</temp>
<bpm>0</bpm>
<rpm>0.00</rpm>
</extensions>
</trkpt>
<trkpt lat="64.325325012" lon="-20.129411697">
<ele>218.500000</ele>
<time>2012-07-20T12:49:29Z</time>
<speed>0.010000</speed>
<extensions>
<speed>0.0</speed>
<temp>0.00</temp>
<bpm>0</bpm>
<rpm>0.00</rpm>
</extensions>
</trkpt>
<trkpt lat="64.325325012" lon="-20.129411697">
<ele>218.511719</ele>
<time>2012-07-20T12:49:34Z</time>
<extensions>
<speed>0.0</speed>
<temp>0.00</temp>
<bpm>0</bpm>
<rpm>0.00</rpm>
</extensions>
</trkpt>
<trkpt lat="64.325325012" lon="-20.129411697">
<ele>218.519531</ele>
<time>2012-07-20T12:49:39Z</time>
<speed>0.010000</speed>
<extensions>
<speed>0.0</speed>
<temp>0.00</temp>
<bpm>0</bpm>
<rpm>0.00</rpm>
</extensions>
</trkpt>
<trkpt lat="64.325325012" lon="-20.129411697">
<ele>218.519531</ele>
<time>2012-07-20T12:49:44Z</time>
<speed>0.020000</speed>
<extensions>
<speed>0.0</speed>
<temp>0.00</temp>
<bpm>0</bpm>
<rpm>0.00</rpm>
</extensions>
</trkpt>
<trkpt lat="64.325325012" lon="-20.129411697">
<ele>218.500000</ele>
<time>2012-07-20T12:49:49Z</time>
<speed>0.010000</speed>
<extensions>
<speed>0.0</speed>
<temp>0.00</temp>
<bpm>0</bpm>
<rpm>0.00</rpm>
</extensions>
</trkpt>
<trkpt lat="64.325325012" lon="-20.129411697">
<ele>218.500000</ele>
<time>2012-07-20T12:49:54Z</time>
<extensions>
<speed>0.0</speed>
<temp>0.00</temp>
<bpm>0</bpm>
<rpm>0.00</rpm>
</extensions>
</trkpt>
<trkpt lat="64.325325012" lon="-20.129411697">
<ele>218.488281</ele>
<time>2012-07-20T12:49:59Z</time>
<speed>0.010000</speed>
<extensions>
<speed>0.0</speed>
<temp>0.00</temp>
<bpm>0</bpm>
<rpm>0.00</rpm>
</extensions>
</trkpt>
<trkpt lat="64.325325012" lon="-20.129411697">
<ele>218.492188</ele>
<time>2012-07-20T12:50:04Z</time>
<extensions>
<speed>0.0</speed>
<temp>0.00</temp>
<bpm>0</bpm>
<rpm>0.00</rpm>
</extensions>
</trkpt>
<trkpt lat="64.325325012" lon="-20.129411697">
<ele>218.492188</ele>
<time>2012-07-20T12:50:09Z</time>
<speed>0.010000</speed>
<extensions>
<speed>0.0</speed>
<temp>0.00</temp>
<bpm>0</bpm>
<rpm>0.00</rpm>
</extensions>
</trkpt>
<trkpt lat="64.325325012" lon="-20.129411697">
<ele>218.492188</ele>
<time>2012-07-20T12:50:14Z</time>
<extensions>
<speed>0.0</speed>
<temp>0.00</temp>
<bpm>0</bpm>
<rpm>0.00</rpm>
</extensions>
</trkpt>
<trkpt lat="64.325325012" lon="-20.129411697">
<ele>218.476563</ele>
<time>2012-07-20T12:50:19Z</time>
<extensions>
<speed>0.0</speed>
<temp>0.00</temp>
<bpm>0</bpm>
<rpm>0.00</rpm>
</extensions>
</trkpt>
<trkpt lat="64.325325012" lon="-20.129409790">
<ele>218.488281</ele>
<time>2012-07-20T12:50:24Z</time>
<speed>0.010000</speed>
<extensions>
<speed>0.0</speed>
<temp>0.00</temp>
<bpm>0</bpm>
<rpm>0.00</rpm>
</extensions>
</trkpt>
<trkpt lat="64.325325012" lon="-20.129409790">
<ele>218.500000</ele>
<time>2012-07-20T12:50:29Z</time>
<extensions>
<speed>0.0</speed>
<temp>0.00</temp>
<bpm>0</bpm>
<rpm>0.00</rpm>
</extensions>
</trkpt>
<trkpt lat="64.325325012" lon="-20.129409790">
<ele>218.500000</ele>
<time>2012-07-20T12:50:34Z</time>
<extensions>
<speed>0.0</speed>
<temp>0.00</temp>
<bpm>0</bpm>
<rpm>0.00</rpm>
</extensions>
</trkpt>
<trkpt lat="64.325325012" lon="-20.129409790">
<ele>218.496094</ele>
<time>2012-07-20T12:50:39Z</time>
<speed>0.020000</speed>
<extensions>
<speed>0.0</speed>
<temp>0.00</temp>
<bpm>0</bpm>
<rpm>0.00</rpm>
</extensions>
</trkpt>
<trkpt lat="64.325325012" lon="-20.129409790">
<ele>218.492188</ele>
<time>2012-07-20T12:50:44Z</time>
<speed>0.010000</speed>
<extensions>
<speed>0.0</speed>
<temp>0.00</temp>
<bpm>0</bpm>
<rpm>0.00</rpm>
</extensions>
</trkpt>
<trkpt lat="64.325325012" lon="-20.129409790">
<ele>218.492188</ele>
<time>2012-07-20T12:50:49Z</time>
<speed>0.010000</speed>
<extensions>
<speed>0.0</speed>
<temp>0.00</temp>
<bpm>0</bpm>
<rpm>0.00</rpm>
</extensions>
</trkpt>
<trkpt lat="64.325325012" lon="-20.129409790">
<ele>218.472656</ele>
<time>2012-07-20T12:50:54Z</time>
<speed>0.010000</speed>
<extensions>
<speed>0.0</speed>
<temp>0.00</temp>
<bpm>0</bpm>
<rpm>0.00</rpm>
</extensions>
</trkpt>
<trkpt lat="64.325325012" lon="-20.129409790">
<ele>218.464844</ele>
<time>2012-07-20T12:50:59Z</time>
<speed>0.010000</speed>
<extensions>
<speed>0.0</speed>
<temp>0.00</temp>
<bpm>0</bpm>
<rpm>0.00</rpm>
</extensions>
</trkpt>
<trkpt lat="64.325325012" lon="-20.129409790">
<ele>218.468750</ele>
<time>2012-07-20T12:51:04Z</time>
<speed>0.010000</speed>
<extensions>
<speed>0.0</speed>
<temp>0.00</temp>
<bpm>0</bpm>
<rpm>0.00</rpm>
</extensions>
</trkpt>
<trkpt lat="64.325325012" lon="-20.129409790">
<ele>218.484375</ele>
<time>2012-07-20T12:51:09Z</time>
<extensions>
<speed>0.0</speed>
<temp>0.00</temp>
<bpm>0</bpm>
<rpm>0.00</rpm>
</extensions>
</trkpt>
<trkpt lat="64.325325012" lon="-20.129409790">
<ele>218.472656</ele>
<time>2012-07-20T12:51:14Z</time>
<extensions>
<speed>0.0</speed>
<temp>0.00</temp>
<bpm>0</bpm>
<rpm>0.00</rpm>
</extensions>
</trkpt>
<trkpt lat="64.325325012" lon="-20.129407883">
<ele>218.484375</ele>
<time>2012-07-20T12:51:19Z</time>
<speed>0.010000</speed>
<extensions>
<speed>0.0</speed>
<temp>0.00</temp>
<bpm>0</bpm>
<rpm>0.00</rpm>
</extensions>
</trkpt>
<trkpt lat="64.325325012" lon="-20.129407883">
<ele>218.507813</ele>
<time>2012-07-20T12:51:24Z</time>
<extensions>
<speed>0.0</speed>
<temp>0.00</temp>
<bpm>0</bpm>
<rpm>0.00</rpm>
</extensions>
</trkpt>
<trkpt lat="64.325325012" lon="-20.129407883">
<ele>218.527344</ele>
<time>2012-07-20T12:51:29Z</time>
<speed>0.020000</speed>
<extensions>
<speed>0.0</speed>
<temp>0.00</temp>
<bpm>0</bpm>
<rpm>0.00</rpm>
</extensions>
</trkpt>
<trkpt lat="64.325325012" lon="-20.129407883">
<ele>218.539063</ele>
<time>2012-07-20T12:51:34Z</time>
<extensions>
<speed>0.0</speed>
<temp>0.00</temp>
<bpm>0</bpm>
<rpm>0.00</rpm>
</extensions>
</trkpt>
<trkpt lat="64.325325012" lon="-20.129409790">
<ele>218.566406</ele>
<time>2012-07-20T12:51:39Z</time>
<speed>0.010000</speed>
<extensions>
<speed>0.0</speed>
<temp>0.00</temp>
<bpm>0</bpm>
<rpm>0.00</rpm>
</extensions>
</trkpt>
<trkpt lat="64.325325012" lon="-20.129409790">
<ele>218.574219</ele>
<time>2012-07-20T12:51:44Z</time>
<speed>0.010000</speed>
<extensions>
<speed>0.0</speed>
<temp>0.00</temp>
<bpm>0</bpm>
<rpm>0.00</rpm>
</extensions>
</trkpt>
<trkpt lat="64.325325012" lon="-20.129409790">
<ele>218.601563</ele>
<time>2012-07-20T12:51:49Z</time>
<speed>0.010000</speed>
<extensions>
<speed>0.0</speed>
<temp>0.00</temp>
<bpm>0</bpm>
<rpm>0.00</rpm>
</extensions>
</trkpt>
<trkpt lat="64.325325012" lon="-20.129409790">
<ele>218.625000</ele>
<time>2012-07-20T12:51:54Z</time>
<speed>0.040000</speed>
<extensions>
<speed>0.0</speed>
<temp>0.00</temp>
<bpm>0</bpm>
<rpm>0.00</rpm>
</extensions>
</trkpt>
<trkpt lat="64.325325012" lon="-20.129404068">
<ele>218.671875</ele>
<time>2012-07-20T12:51:59Z</time>
<speed>0.110000</speed>
<extensions>
<speed>0.1</speed>
<temp>0.00</temp>
<bpm>0</bpm>
<rpm>0.00</rpm>
</extensions>
</trkpt>
<trkpt lat="64.325332642" lon="-20.129396439">
<ele>218.738281</ele>
<time>2012-07-20T12:52:04Z</time>
<speed>0.050000</speed>
<extensions>
<speed>0.1</speed>
<temp>0.00</temp>
<bpm>0</bpm>
<rpm>0.00</rpm>
</extensions>
</trkpt>
<trkpt lat="64.325332642" lon="-20.129388809">
<ele>218.820313</ele>
<time>2012-07-20T12:52:09Z</time>
<speed>0.120000</speed>
<extensions>
<speed>0.1</speed>
<temp>0.00</temp>
<bpm>0</bpm>
<rpm>0.00</rpm>
</extensions>
</trkpt>
<trkpt lat="64.325332642" lon="-20.129375458">
<ele>218.917969</ele>
<time>2012-07-20T12:52:14Z</time>
<speed>0.150000</speed>
<extensions>
<speed>0.2</speed>
<temp>0.00</temp>
<bpm>0</bpm>
<rpm>0.00</rpm>
</extensions>
</trkpt>
<trkpt lat="64.325340271" lon="-20.129360199">
<ele>219.058594</ele>
<time>2012-07-20T12:52:19Z</time>
<speed>0.150000</speed>
<extensions>
<speed>0.2</speed>
<temp>0.00</temp>
<bpm>0</bpm>
<rpm>0.00</rpm>
</extensions>
</trkpt>
<trkpt lat="64.325340271" lon="-20.129343033">
<ele>219.187500</ele>
<time>2012-07-20T12:52:24Z</time>
<speed>0.220000</speed>
<extensions>
<speed>0.2</speed>
<temp>0.00</temp>
<bpm>0</bpm>
<rpm>0.00</rpm>
</extensions>
</trkpt>
<trkpt lat="64.325347900" lon="-20.129323959">
<ele>219.316406</ele>
<time>2012-07-20T12:52:29Z</time>
<speed>0.180000</speed>
<extensions>
<speed>0.2</speed>
<temp>0.00</temp>
<bpm>0</bpm>
<rpm>0.00</rpm>
</extensions>
</trkpt>
<trkpt lat="64.325347900" lon="-20.129308701">
<ele>219.500000</ele>
<time>2012-07-20T12:52:34Z</time>
<speed>0.180000</speed>
<extensions>
<speed>0.2</speed>
<temp>0.00</temp>
<bpm>0</bpm>
<rpm>0.00</rpm>
</extensions>
</trkpt>
<trkpt lat="64.325355530" lon="-20.129291534">
<ele>219.671875</ele>
<time>2012-07-20T12:52:39Z</time>
<speed>0.190000</speed>
<extensions>
<speed>0.2</speed>
<temp>0.00</temp>
<bpm>0</bpm>
<rpm>0.00</rpm>
</extensions>
</trkpt>
<trkpt lat="64.325355530" lon="-20.129270554">
<ele>219.765625</ele>
<time>2012-07-20T12:52:44Z</time>
<speed>0.230000</speed>
<extensions>
<speed>0.2</speed>
<temp>0.00</temp>
<bpm>0</bpm>
<rpm>0.00</rpm>
</extensions>
</trkpt>
<trkpt lat="64.325363159" lon="-20.129249573">
<ele>219.808594</ele>
<time>2012-07-20T12:52:49Z</time>
<speed>0.220000</speed>
<extensions>
<speed>0.2</speed>
<temp>0.00</temp>
<bpm>0</bpm>
<rpm>0.00</rpm>
</extensions>
</trkpt>
<trkpt lat="64.325363159" lon="-20.129228592">
<ele>219.839844</ele>
<time>2012-07-20T12:52:54Z</time>
<speed>0.210000</speed>
<extensions>
<speed>0.2</speed>
<temp>0.00</temp>
<bpm>0</bpm>
<rpm>0.00</rpm>
</extensions>
</trkpt>
<trkpt lat="64.325370789" lon="-20.129211426">
<ele>219.828125</ele>
<time>2012-07-20T12:52:59Z</time>
<speed>0.190000</speed>
<extensions>
<speed>0.2</speed>
<temp>0.00</temp>
<bpm>0</bpm>
<rpm>0.00</rpm>
</extensions>
</trkpt>
<trkpt lat="64.325370789" lon="-20.129194260">
<ele>219.722656</ele>
<time>2012-07-20T12:53:04Z</time>
<speed>0.150000</speed>
<extensions>
<speed>0.2</speed>
<temp>0.00</temp>
<bpm>0</bpm>
<rpm>0.00</rpm>
</extensions>
</trkpt>
<trkpt lat="64.325378418" lon="-20.129182816">
<ele>219.574219</ele>
<time>2012-07-20T12:53:09Z</time>
<speed>0.050000</speed>
<extensions>
<speed>0.1</speed>
<temp>0.00</temp>
<bpm>0</bpm>
<rpm>0.00</rpm>
</extensions>
</trkpt>
<trkpt lat="64.325378418" lon="-20.129186630">
<ele>219.542969</ele>
<time>2012-07-20T12:53:14Z</time>
<speed>0.100000</speed>
<extensions>
<speed>0.1</speed>
<temp>0.00</temp>
<bpm>0</bpm>
<rpm>0.00</rpm>
</extensions>
</trkpt>
<trkpt lat="64.325370789" lon="-20.129198074">
<ele>219.515625</ele>
<time>2012-07-20T12:53:19Z</time>
<speed>0.130000</speed>
<extensions>
<speed>0.1</speed>
<temp>0.00</temp>
<bpm>0</bpm>
<rpm>0.00</rpm>
</extensions>
</trkpt>
<trkpt lat="64.325370789" lon="-20.129211426">
<ele>219.457031</ele>
<time>2012-07-20T12:53:24Z</time>
<speed>0.150000</speed>
<extensions>
<speed>0.2</speed>
<temp>0.00</temp>
<bpm>0</bpm>
<rpm>0.00</rpm>
</extensions>
</trkpt>
<trkpt lat="64.325363159" lon="-20.129228592">
<ele>219.394531</ele>
<time>2012-07-20T12:53:29Z</time>
<speed>0.210000</speed>
<extensions>
<speed>0.2</speed>
<temp>0.00</temp>
<bpm>0</bpm>
<rpm>0.00</rpm>
</extensions>
</trkpt>
<trkpt lat="64.325363159" lon="-20.129251480">
<ele>219.332031</ele>
<time>2012-07-20T12:53:34Z</time>
<speed>0.210000</speed>
<extensions>
<speed>0.2</speed>
<temp>0.00</temp>
<bpm>0</bpm>
<rpm>0.00</rpm>
</extensions>
</trkpt>
<trkpt lat="64.325355530" lon="-20.129268646">
<ele>219.253906</ele>
<time>2012-07-20T12:53:39Z</time>
<speed>0.180000</speed>
<extensions>
<speed>0.2</speed>
<temp>0.00</temp>
<bpm>0</bpm>
<rpm>0.00</rpm>
</extensions>
</trkpt>
<trkpt lat="64.325355530" lon="-20.129287720">
<ele>219.148438</ele>
<time>2012-07-20T12:53:44Z</time>
<speed>0.180000</speed>
<extensions>
<speed>0.2</speed>
<temp>0.00</temp>
<bpm>0</bpm>
<rpm>0.00</rpm>
</extensions>
</trkpt>
<trkpt lat="64.325347900" lon="-20.129302979">
<ele>219.042969</ele>
<time>2012-07-20T12:53:49Z</time>
<speed>0.120000</speed>
<extensions>
<speed>0.1</speed>
<temp>0.00</temp>
<bpm>0</bpm>
<rpm>0.00</rpm>
</extensions>
</trkpt>
<trkpt lat="64.325347900" lon="-20.129314423">
<ele>218.933594</ele>
<time>2012-07-20T12:53:54Z</time>
<speed>0.120000</speed>
<extensions>
<speed>0.1</speed>
<temp>0.00</temp>
<bpm>0</bpm>
<rpm>0.00</rpm>
</extensions>
</trkpt>
<trkpt lat="64.325347900" lon="-20.129327774">
<ele>218.824219</ele>
<time>2012-07-20T12:53:59Z</time>
<speed>0.150000</speed>
<extensions>
<speed>0.2</speed>
<temp>0.00</temp>
<bpm>0</bpm>
<rpm>0.00</rpm>
</extensions>
</trkpt>
<trkpt lat="64.325340271" lon="-20.129341125">
<ele>218.710938</ele>
<time>2012-07-20T12:54:04Z</time>
<speed>0.160000</speed>
<extensions>
<speed>0.2</speed>
<temp>0.00</temp>
<bpm>0</bpm>
<rpm>0.00</rpm>
</extensions>
</trkpt>
<trkpt lat="64.325340271" lon="-20.129354477">
<ele>218.589844</ele>
<time>2012-07-20T12:54:09Z</time>
<speed>0.140000</speed>
<extensions>
<speed>0.1</speed>
<temp>0.00</temp>
<bpm>0</bpm>
<rpm>0.00</rpm>
</extensions>
</trkpt>
<trkpt lat="64.325332642" lon="-20.129365921">
<ele>218.480469</ele>
<time>2012-07-20T12:54:14Z</time>
<speed>0.110000</speed>
<extensions>
<speed>0.1</speed>
<temp>0.00</temp>
<bpm>0</bpm>
<rpm>0.00</rpm>
</extensions>
</trkpt>
<trkpt lat="64.325332642" lon="-20.129379272">
<ele>218.363281</ele>
<time>2012-07-20T12:54:19Z</time>
<speed>0.120000</speed>
<extensions>
<speed>0.1</speed>
<temp>0.00</temp>
<bpm>0</bpm>
<rpm>0.00</rpm>
</extensions>
</trkpt>
<trkpt lat="64.325332642" lon="-20.129388809">
<ele>218.238281</ele>
<time>2012-07-20T12:54:24Z</time>
<speed>0.110000</speed>
<extensions>
<speed>0.1</speed>
<temp>0.00</temp>
<bpm>0</bpm>
<rpm>0.00</rpm>
</extensions>
</trkpt>
<trkpt lat="64.325325012" lon="-20.129402161">
<ele>218.105469</ele>
<time>2012-07-20T12:54:29Z</time>
<speed>0.130000</speed>
<extensions>
<speed>0.1</speed>
<temp>0.00</temp>
<bpm>0</bpm>
<rpm>0.00</rpm>
</extensions>
</trkpt>
<trkpt lat="64.325325012" lon="-20.129411697">
<ele>217.960938</ele>
<time>2012-07-20T12:54:34Z</time>
<speed>0.080000</speed>
<extensions>
<speed>0.1</speed>
<temp>0.00</temp>
<bpm>0</bpm>
<rpm>0.00</rpm>
</extensions>
</trkpt>
<trkpt lat="64.325325012" lon="-20.129419327">
<ele>217.816406</ele>
<time>2012-07-20T12:54:39Z</time>
<speed>0.060000</speed>
<extensions>
<speed>0.1</speed>
<temp>0.00</temp>
<bpm>0</bpm>
<rpm>0.00</rpm>
</extensions>
</trkpt>
<trkpt lat="64.325325012" lon="-20.129421234">
<ele>217.648438</ele>
<time>2012-07-20T12:54:44Z</time>
<speed>0.010000</speed>
<extensions>
<speed>0.0</speed>
<temp>0.00</temp>
<bpm>0</bpm>
<rpm>0.00</rpm>
</extensions>
</trkpt>
<trkpt lat="64.325325012" lon="-20.129419327">
<ele>217.535156</ele>
<time>2012-07-20T12:54:49Z</time>
<speed>0.070000</speed>
<extensions>
<speed>0.1</speed>
<temp>0.00</temp>
<bpm>0</bpm>
<rpm>0.00</rpm>
</extensions>
</trkpt>
<trkpt lat="64.325325012" lon="-20.129413605">
<ele>217.433594</ele>
<time>2012-07-20T12:54:54Z</time>
<speed>0.020000</speed>
<extensions>
<speed>0.0</speed>
<temp>0.00</temp>
<bpm>0</bpm>
<rpm>0.00</rpm>
</extensions>
</trkpt>
<trkpt lat="64.325325012" lon="-20.129411697">
<ele>217.472656</ele>
<time>2012-07-20T12:54:59Z</time>
<speed>0.030000</speed>
<extensions>
<speed>0.0</speed>
<temp>0.00</temp>
<bpm>0</bpm>
<rpm>0.00</rpm>
</extensions>
</trkpt>
<trkpt lat="64.325325012" lon="-20.129411697">
<ele>217.554688</ele>
<time>2012-07-20T12:55:04Z</time>
<speed>0.030000</speed>
<extensions>
<speed>0.0</speed>
<temp>0.00</temp>
<bpm>0</bpm>
<rpm>0.00</rpm>
</extensions>
</trkpt>
<trkpt lat="64.325325012" lon="-20.129415512">
<ele>217.683594</ele>
<time>2012-07-20T12:55:09Z</time>
<speed>0.030000</speed>
<extensions>
<speed>0.0</speed>
<temp>0.00</temp>
<bpm>0</bpm>
<rpm>0.00</rpm>
</extensions>
</trkpt>
<trkpt lat="64.325325012" lon="-20.129417419">
<ele>217.859375</ele>
<time>2012-07-20T12:55:14Z</time>
<speed>0.050000</speed>
<extensions>
<speed>0.1</speed>
<temp>0.00</temp>
<bpm>0</bpm>
<rpm>0.00</rpm>
</extensions>
</trkpt>
<trkpt lat="64.325332642" lon="-20.129413605">
<ele>217.910156</ele>
<time>2012-07-20T12:55:19Z</time>
<speed>0.060000</speed>
<extensions>
<speed>0.1</speed>
<temp>0.00</temp>
<bpm>0</bpm>
<rpm>0.00</rpm>
</extensions>
</trkpt>
<trkpt lat="64.325332642" lon="-20.129407883">
<ele>217.949219</ele>
<time>2012-07-20T12:55:24Z</time>
<speed>0.050000</speed>
<extensions>
<speed>0.1</speed>
<temp>0.00</temp>
<bpm>0</bpm>
<rpm>0.00</rpm>
</extensions>
</trkpt>
<trkpt lat="64.325332642" lon="-20.129404068">
<ele>217.996094</ele>
<time>2012-07-20T12:55:29Z</time>
<speed>0.030000</speed>
<extensions>
<speed>0.0</speed>
<temp>0.00</temp>
<bpm>0</bpm>
<rpm>0.00</rpm>
</extensions>
</trkpt>
<trkpt lat="64.325332642" lon="-20.129400253">
<ele>218.046875</ele>
<time>2012-07-20T12:55:34Z</time>
<speed>0.030000</speed>
<extensions>
<speed>0.0</speed>
<temp>0.00</temp>
<bpm>0</bpm>
<rpm>0.00</rpm>
</extensions>
</trkpt>
<trkpt lat="64.325332642" lon="-20.129400253">
<ele>218.062500</ele>
<time>2012-07-20T12:55:39Z</time>
<extensions>
<speed>0.0</speed>
<temp>0.00</temp>
<bpm>0</bpm>
<rpm>0.00</rpm>
</extensions>
</trkpt>
<trkpt lat="64.325332642" lon="-20.129400253">
<ele>218.074219</ele>
<time>2012-07-20T12:55:44Z</time>
<speed>0.010000</speed>
<extensions>
<speed>0.0</speed>
<temp>0.00</temp>
<bpm>0</bpm>
<rpm>0.00</rpm>
</extensions>
</trkpt>
<trkpt lat="64.325332642" lon="-20.129400253">
<ele>218.136719</ele>
<time>2012-07-20T12:55:49Z</time>
<speed>0.020000</speed>
<extensions>
<speed>0.0</speed>
<temp>0.00</temp>
<bpm>0</bpm>
<rpm>0.00</rpm>
</extensions>
</trkpt>
<trkpt lat="64.325332642" lon="-20.129400253">
<ele>218.285156</ele>
<time>2012-07-20T12:55:54Z</time>
<speed>0.080000</speed>
<extensions>
<speed>0.1</speed>
<temp>0.00</temp>
<bpm>0</bpm>
<rpm>0.00</rpm>
</extensions>
</trkpt>
<trkpt lat="64.325332642" lon="-20.129396439">
<ele>218.371094</ele>
<time>2012-07-20T12:55:59Z</time>
<speed>0.010000</speed>
<extensions>
<speed>0.0</speed>
<temp>0.00</temp>
<bpm>0</bpm>
<rpm>0.00</rpm>
</extensions>
</trkpt>
<trkpt lat="64.325332642" lon="-20.129394531">
<ele>218.402344</ele>
<time>2012-07-20T12:56:04Z</time>
<speed>0.010000</speed>
<extensions>
<speed>0.0</speed>
<temp>0.00</temp>
<bpm>0</bpm>
<rpm>0.00</rpm>
</extensions>
</trkpt>
<trkpt lat="64.325332642" lon="-20.129394531">
<ele>218.414063</ele>
<time>2012-07-20T12:56:09Z</time>
<speed>0.020000</speed>
<extensions>
<speed>0.0</speed>
<temp>0.00</temp>
<bpm>0</bpm>
<rpm>0.00</rpm>
</extensions>
</trkpt>
<trkpt lat="64.325332642" lon="-20.129392624">
<ele>218.484375</ele>
<time>2012-07-20T12:56:14Z</time>
<speed>0.010000</speed>
<extensions>
<speed>0.0</speed>
<temp>0.00</temp>
<bpm>0</bpm>
<rpm>0.00</rpm>
</extensions>
</trkpt>
<trkpt lat="64.325332642" lon="-20.129392624">
<ele>218.527344</ele>
<time>2012-07-20T12:56:19Z</time>
<extensions>
<speed>0.0</speed>
<temp>0.00</temp>
<bpm>0</bpm>
<rpm>0.00</rpm>
</extensions>
</trkpt>
<trkpt lat="64.325332642" lon="-20.129392624">
<ele>218.562500</ele>
<time>2012-07-20T12:56:24Z</time>
<speed>0.010000</speed>
<extensions>
<speed>0.0</speed>
<temp>0.00</temp>
<bpm>0</bpm>
<rpm>0.00</rpm>
</extensions>
</trkpt>
<trkpt lat="64.325332642" lon="-20.129392624">
<ele>218.628906</ele>
<time>2012-07-20T12:56:29Z</time>
<speed>0.010000</speed>
<extensions>
<speed>0.0</speed>
<temp>0.00</temp>
<bpm>0</bpm>
<rpm>0.00</rpm>
</extensions>
</trkpt>
<trkpt lat="64.325332642" lon="-20.129390717">
<ele>218.644531</ele>
<time>2012-07-20T12:56:34Z</time>
<extensions>
<speed>0.0</speed>
<temp>0.00</temp>
<bpm>0</bpm>
<rpm>0.00</rpm>
</extensions>
</trkpt>
<trkpt lat="64.325332642" lon="-20.129390717">
<ele>218.687500</ele>
<time>2012-07-20T12:56:39Z</time>
<extensions>
<speed>0.0</speed>
<temp>0.00</temp>
<bpm>0</bpm>
<rpm>0.00</rpm>
</extensions>
</trkpt>
<trkpt lat="64.325332642" lon="-20.129390717">
<ele>218.718750</ele>
<time>2012-07-20T12:56:44Z</time>
<extensions>
<speed>0.0</speed>
<temp>0.00</temp>
<bpm>0</bpm>
<rpm>0.00</rpm>
</extensions>
</trkpt>
<trkpt lat="64.325332642" lon="-20.129390717">
<ele>218.750000</ele>
<time>2012-07-20T12:56:49Z</time>
<speed>0.010000</speed>
<extensions>
<speed>0.0</speed>
<temp>0.00</temp>
<bpm>0</bpm>
<rpm>0.00</rpm>
</extensions>
</trkpt>
<trkpt lat="64.325332642" lon="-20.129390717">
<ele>218.777344</ele>
<time>2012-07-20T12:56:54Z</time>
<extensions>
<speed>0.0</speed>
<temp>0.00</temp>
<bpm>0</bpm>
<rpm>0.00</rpm>
</extensions>
</trkpt>
<trkpt lat="64.325332642" lon="-20.129390717">
<ele>218.812500</ele>
<time>2012-07-20T12:56:59Z</time>
<speed>0.010000</speed>
<extensions>
<speed>0.0</speed>
<temp>0.00</temp>
<bpm>0</bpm>
<rpm>0.00</rpm>
</extensions>
</trkpt>
<trkpt lat="64.325332642" lon="-20.129388809">
<ele>218.851563</ele>
<time>2012-07-20T12:57:04Z</time>
<extensions>
<speed>0.0</speed>
<temp>0.00</temp>
<bpm>0</bpm>
<rpm>0.00</rpm>
</extensions>
</trkpt>
<trkpt lat="64.325332642" lon="-20.129388809">
<ele>218.882813</ele>
<time>2012-07-20T12:57:09Z</time>
<extensions>
<speed>0.0</speed>
<temp>0.00</temp>
<bpm>0</bpm>
<rpm>0.00</rpm>
</extensions>
</trkpt>
<trkpt lat="64.325332642" lon="-20.129388809">
<ele>218.917969</ele>
<time>2012-07-20T12:57:14Z</time>
<extensions>
<speed>0.0</speed>
<temp>0.00</temp>
<bpm>0</bpm>
<rpm>0.00</rpm>
</extensions>
</trkpt>
<trkpt lat="64.325332642" lon="-20.129388809">
<ele>218.945313</ele>
<time>2012-07-20T12:57:19Z</time>
<speed>0.010000</speed>
<extensions>
<speed>0.0</speed>
<temp>0.00</temp>
<bpm>0</bpm>
<rpm>0.00</rpm>
</extensions>
</trkpt>
<trkpt lat="64.325332642" lon="-20.129388809">
<ele>218.941406</ele>
<time>2012-07-20T12:57:24Z</time>
<extensions>
<speed>0.0</speed>
<temp>0.00</temp>
<bpm>0</bpm>
<rpm>0.00</rpm>
</extensions>
</trkpt>
<trkpt lat="64.325332642" lon="-20.129388809">
<ele>218.964844</ele>
<time>2012-07-20T12:57:29Z</time>
<speed>0.020000</speed>
<extensions>
<speed>0.0</speed>
<temp>0.00</temp>
<bpm>0</bpm>
<rpm>0.00</rpm>
</extensions>
</trkpt>
<trkpt lat="64.325340271" lon="-20.129388809">
<ele>218.988281</ele>
<time>2012-07-20T12:57:34Z</time>
<extensions>
<speed>0.0</speed>
<temp>0.00</temp>
<bpm>0</bpm>
<rpm>0.00</rpm>
</extensions>
</trkpt>
<trkpt lat="64.325340271" lon="-20.129388809">
<ele>219.000000</ele>
<time>2012-07-20T12:57:39Z</time>
<speed>0.010000</speed>
<extensions>
<speed>0.0</speed>
<temp>0.00</temp>
<bpm>0</bpm>
<rpm>0.00</rpm>
</extensions>
</trkpt>
<trkpt lat="64.325340271" lon="-20.129388809">
<ele>219.003906</ele>
<time>2012-07-20T12:57:44Z</time>
<extensions>
<speed>0.0</speed>
<temp>0.00</temp>
<bpm>0</bpm>
<rpm>0.00</rpm>
</extensions>
</trkpt>
<trkpt lat="64.325340271" lon="-20.129388809">
<ele>219.031250</ele>
<time>2012-07-20T12:57:49Z</time>
<extensions>
<speed>0.0</speed>
<temp>0.00</temp>
<bpm>0</bpm>
<rpm>0.00</rpm>
</extensions>
</trkpt>
<trkpt lat="64.325340271" lon="-20.129386902">
<ele>219.058594</ele>
<time>2012-07-20T12:57:54Z</time>
<speed>0.020000</speed>
<extensions>
<speed>0.0</speed>
<temp>0.00</temp>
<bpm>0</bpm>
<rpm>0.00</rpm>
</extensions>
</trkpt>
<trkpt lat="64.325340271" lon="-20.129388809">
<ele>219.070313</ele>
<time>2012-07-20T12:57:59Z</time>
<extensions>
<speed>0.0</speed>
<temp>0.00</temp>
<bpm>0</bpm>
<rpm>0.00</rpm>
</extensions>
</trkpt>
<trkpt lat="64.325340271" lon="-20.129388809">
<ele>219.089844</ele>
<time>2012-07-20T12:58:04Z</time>
<extensions>
<speed>0.0</speed>
<temp>0.00</temp>
<bpm>0</bpm>
<rpm>0.00</rpm>
</extensions>
</trkpt>
<trkpt lat="64.325340271" lon="-20.129386902">
<ele>219.105469</ele>
<time>2012-07-20T12:58:09Z</time>
<speed>0.010000</speed>
<extensions>
<speed>0.0</speed>
<temp>0.00</temp>
<bpm>0</bpm>
<rpm>0.00</rpm>
</extensions>
</trkpt>
<trkpt lat="64.325340271" lon="-20.129386902">
<ele>219.132813</ele>
<time>2012-07-20T12:58:14Z</time>
<extensions>
<speed>0.0</speed>
<temp>0.00</temp>
<bpm>0</bpm>
<rpm>0.00</rpm>
</extensions>
</trkpt>
<trkpt lat="64.325340271" lon="-20.129386902">
<ele>219.148438</ele>
<time>2012-07-20T12:58:19Z</time>
<speed>0.010000</speed>
<extensions>
<speed>0.0</speed>
<temp>0.00</temp>
<bpm>0</bpm>
<rpm>0.00</rpm>
</extensions>
</trkpt>
<trkpt lat="64.325340271" lon="-20.129386902">
<ele>219.160156</ele>
<time>2012-07-20T12:58:24Z</time>
<speed>0.010000</speed>
<extensions>
<speed>0.0</speed>
<temp>0.00</temp>
<bpm>0</bpm>
<rpm>0.00</rpm>
</extensions>
</trkpt>
<trkpt lat="64.325340271" lon="-20.129386902">
<ele>219.175781</ele>
<time>2012-07-20T12:58:29Z</time>
<extensions>
<speed>0.0</speed>
<temp>0.00</temp>
<bpm>0</bpm>
<rpm>0.00</rpm>
</extensions>
</trkpt>
<trkpt lat="64.325340271" lon="-20.129386902">
<ele>219.222656</ele>
<time>2012-07-20T12:58:34Z</time>
<speed>0.020000</speed>
<extensions>
<speed>0.0</speed>
<temp>0.00</temp>
<bpm>0</bpm>
<rpm>0.00</rpm>
</extensions>
</trkpt>
<trkpt lat="64.325340271" lon="-20.129386902">
<ele>219.246094</ele>
<time>2012-07-20T12:58:39Z</time>
<extensions>
<speed>0.0</speed>
<temp>0.00</temp>
<bpm>0</bpm>
<rpm>0.00</rpm>
</extensions>
</trkpt>
<trkpt lat="64.325340271" lon="-20.129386902">
<ele>219.300781</ele>
<time>2012-07-20T12:58:44Z</time>
<speed>0.010000</speed>
<extensions>
<speed>0.0</speed>
<temp>0.00</temp>
<bpm>0</bpm>
<rpm>0.00</rpm>
</extensions>
</trkpt>
<trkpt lat="64.325340271" lon="-20.129386902">
<ele>219.328125</ele>
<time>2012-07-20T12:58:49Z</time>
<extensions>
<speed>0.0</speed>
<temp>0.00</temp>
<bpm>0</bpm>
<rpm>0.00</rpm>
</extensions>
</trkpt>
<trkpt lat="64.325340271" lon="-20.129386902">
<ele>219.347656</ele>
<time>2012-07-20T12:58:54Z</time>
<extensions>
<speed>0.0</speed>
<temp>0.00</temp>
<bpm>0</bpm>
<rpm>0.00</rpm>
</extensions>
</trkpt>
<trkpt lat="64.325340271" lon="-20.129386902">
<ele>219.343750</ele>
<time>2012-07-20T12:58:59Z</time>
<speed>0.020000</speed>
<extensions>
<speed>0.0</speed>
<temp>0.00</temp>
<bpm>0</bpm>
<rpm>0.00</rpm>
</extensions>
</trkpt>
<trkpt lat="64.325340271" lon="-20.129386902">
<ele>219.351563</ele>
<time>2012-07-20T12:59:04Z</time>
<extensions>
<speed>0.0</speed>
<temp>0.00</temp>
<bpm>0</bpm>
<rpm>0.00</rpm>
</extensions>
</trkpt>
<trkpt lat="64.325340271" lon="-20.129384995">
<ele>219.378906</ele>
<time>2012-07-20T12:59:09Z</time>
<extensions>
<speed>0.0</speed>
<temp>0.00</temp>
<bpm>0</bpm>
<rpm>0.00</rpm>
</extensions>
</trkpt>
<trkpt lat="64.325340271" lon="-20.129384995">
<ele>219.421875</ele>
<time>2012-07-20T12:59:14Z</time>
<speed>0.010000</speed>
<extensions>
<speed>0.0</speed>
<temp>0.00</temp>
<bpm>0</bpm>
<rpm>0.00</rpm>
</extensions>
</trkpt>
<trkpt lat="64.325340271" lon="-20.129384995">
<ele>219.460938</ele>
<time>2012-07-20T12:59:19Z</time>
<speed>0.010000</speed>
<extensions>
<speed>0.0</speed>
<temp>0.00</temp>
<bpm>0</bpm>
<rpm>0.00</rpm>
</extensions>
</trkpt>
<trkpt lat="64.325340271" lon="-20.129383087">
<ele>219.433594</ele>
<time>2012-07-20T12:59:24Z</time>
<speed>0.030000</speed>
<extensions>
<speed>0.0</speed>
<temp>0.00</temp>
<bpm>0</bpm>
<rpm>0.00</rpm>
</extensions>
</trkpt>
<trkpt lat="64.325340271" lon="-20.129383087">
<ele>219.300781</ele>
<time>2012-07-20T12:59:29Z</time>
<speed>0.010000</speed>
<extensions>
<speed>0.0</speed>
<temp>0.00</temp>
<bpm>0</bpm>
<rpm>0.00</rpm>
</extensions>
</trkpt>
<trkpt lat="64.325340271" lon="-20.129383087">
<ele>219.082031</ele>
<time>2012-07-20T12:59:34Z</time>
<speed>0.010000</speed>
<extensions>
<speed>0.0</speed>
<temp>0.00</temp>
<bpm>0</bpm>
<rpm>0.00</rpm>
</extensions>
</trkpt>
<trkpt lat="64.325340271" lon="-20.129383087">
<ele>218.753906</ele>
<time>2012-07-20T12:59:39Z</time>
<speed>0.030000</speed>
<extensions>
<speed>0.0</speed>
<temp>0.00</temp>
<bpm>0</bpm>
<rpm>0.00</rpm>
</extensions>
</trkpt>
<trkpt lat="64.325340271" lon="-20.129384995">
<ele>218.648438</ele>
<time>2012-07-20T12:59:44Z</time>
<extensions>
<speed>0.0</speed>
<temp>0.00</temp>
<bpm>0</bpm>
<rpm>0.00</rpm>
</extensions>
</trkpt>
<trkpt lat="64.325340271" lon="-20.129384995">
<ele>218.617188</ele>
<time>2012-07-20T12:59:49Z</time>
<speed>0.010000</speed>
<extensions>
<speed>0.0</speed>
<temp>0.00</temp>
<bpm>0</bpm>
<rpm>0.00</rpm>
</extensions>
</trkpt>
<trkpt lat="64.325340271" lon="-20.129384995">
<ele>218.593750</ele>
<time>2012-07-20T12:59:54Z</time>
<extensions>
<speed>0.0</speed>
<temp>0.00</temp>
<bpm>0</bpm>
<rpm>0.00</rpm>
</extensions>
</trkpt>
<trkpt lat="64.325340271" lon="-20.129384995">
<ele>218.613281</ele>
<time>2012-07-20T12:59:59Z</time>
<speed>0.010000</speed>
<extensions>
<speed>0.0</speed>
<temp>0.00</temp>
<bpm>0</bpm>
<rpm>0.00</rpm>
</extensions>
</trkpt>
<trkpt lat="64.325340271" lon="-20.129384995">
<ele>218.644531</ele>
<time>2012-07-20T13:00:04Z</time>
<speed>0.010000</speed>
<extensions>
<speed>0.0</speed>
<temp>0.00</temp>
<bpm>0</bpm>
<rpm>0.00</rpm>
</extensions>
</trkpt>
<trkpt lat="64.325340271" lon="-20.129384995">
<ele>218.660156</ele>
<time>2012-07-20T13:00:09Z</time>
<speed>0.040000</speed>
<extensions>
<speed>0.0</speed>
<temp>0.00</temp>
<bpm>0</bpm>
<rpm>0.00</rpm>
</extensions>
</trkpt>
<trkpt lat="64.325340271" lon="-20.129384995">
<ele>218.652344</ele>
<time>2012-07-20T13:00:14Z</time>
<speed>0.020000</speed>
<extensions>
<speed>0.0</speed>
<temp>0.00</temp>
<bpm>0</bpm>
<rpm>0.00</rpm>
</extensions>
</trkpt>
<trkpt lat="64.325340271" lon="-20.129384995">
<ele>218.660156</ele>
<time>2012-07-20T13:00:19Z</time>
<speed>0.010000</speed>
<extensions>
<speed>0.0</speed>
<temp>0.00</temp>
<bpm>0</bpm>
<rpm>0.00</rpm>
</extensions>
</trkpt>
<trkpt lat="64.325340271" lon="-20.129384995">
<ele>218.683594</ele>
<time>2012-07-20T13:00:24Z</time>
<speed>0.010000</speed>
<extensions>
<speed>0.0</speed>
<temp>0.00</temp>
<bpm>0</bpm>
<rpm>0.00</rpm>
</extensions>
</trkpt>
<trkpt lat="64.325340271" lon="-20.129384995">
<ele>218.679688</ele>
<time>2012-07-20T13:00:29Z</time>
<extensions>
<speed>0.0</speed>
<temp>0.00</temp>
<bpm>0</bpm>
<rpm>0.00</rpm>
</extensions>
</trkpt>
<trkpt lat="64.325340271" lon="-20.129384995">
<ele>218.742188</ele>
<time>2012-07-20T13:00:34Z</time>
<extensions>
<speed>0.0</speed>
<temp>0.00</temp>
<bpm>0</bpm>
<rpm>0.00</rpm>
</extensions>
</trkpt>
<trkpt lat="64.325340271" lon="-20.129384995">
<ele>218.781250</ele>
<time>2012-07-20T13:00:39Z</time>
<extensions>
<speed>0.0</speed>
<temp>0.00</temp>
<bpm>0</bpm>
<rpm>0.00</rpm>
</extensions>
</trkpt>
<trkpt lat="64.325340271" lon="-20.129384995">
<ele>218.859375</ele>
<time>2012-07-20T13:00:44Z</time>
<speed>0.040000</speed>
<extensions>
<speed>0.0</speed>
<temp>0.00</temp>
<bpm>0</bpm>
<rpm>0.00</rpm>
</extensions>
</trkpt>
<trkpt lat="64.325340271" lon="-20.129384995">
<ele>218.886719</ele>
<time>2012-07-20T13:00:49Z</time>
<extensions>
<speed>0.0</speed>
<temp>0.00</temp>
<bpm>0</bpm>
<rpm>0.00</rpm>
</extensions>
</trkpt>
<trkpt lat="64.325340271" lon="-20.129384995">
<ele>218.937500</ele>
<time>2012-07-20T13:00:54Z</time>
<speed>0.010000</speed>
<extensions>
<speed>0.0</speed>
<temp>0.00</temp>
<bpm>0</bpm>
<rpm>0.00</rpm>
</extensions>
</trkpt>
<trkpt lat="64.325340271" lon="-20.129384995">
<ele>218.968750</ele>
<time>2012-07-20T13:00:59Z</time>
<speed>0.030000</speed>
<extensions>
<speed>0.0</speed>
<temp>0.00</temp>
<bpm>0</bpm>
<rpm>0.00</rpm>
</extensions>
</trkpt>
<trkpt lat="64.325340271" lon="-20.129384995">
<ele>218.988281</ele>
<time>2012-07-20T13:01:04Z</time>
<speed>0.010000</speed>
<extensions>
<speed>0.0</speed>
<temp>0.00</temp>
<bpm>0</bpm>
<rpm>0.00</rpm>
</extensions>
</trkpt>
<trkpt lat="64.325340271" lon="-20.129384995">
<ele>219.023438</ele>
<time>2012-07-20T13:01:09Z</time>
<speed>0.040000</speed>
<extensions>
<speed>0.0</speed>
<temp>0.00</temp>
<bpm>0</bpm>
<rpm>0.00</rpm>
</extensions>
</trkpt>
<trkpt lat="64.325340271" lon="-20.129383087">
<ele>219.101563</ele>
<time>2012-07-20T13:01:14Z</time>
<speed>0.040000</speed>
<extensions>
<speed>0.0</speed>
<temp>0.00</temp>
<bpm>0</bpm>
<rpm>0.00</rpm>
</extensions>
</trkpt>
<trkpt lat="64.325340271" lon="-20.129381180">
<ele>219.210938</ele>
<time>2012-07-20T13:01:19Z</time>
<speed>0.020000</speed>
<extensions>
<speed>0.0</speed>
<temp>0.00</temp>
<bpm>0</bpm>
<rpm>0.00</rpm>
</extensions>
</trkpt>
<trkpt lat="64.325340271" lon="-20.129379272">
<ele>219.285156</ele>
<time>2012-07-20T13:01:24Z</time>
<extensions>
<speed>0.0</speed>
<temp>0.00</temp>
<bpm>0</bpm>
<rpm>0.00</rpm>
</extensions>
</trkpt>
<trkpt lat="64.325340271" lon="-20.129379272">
<ele>219.378906</ele>
<time>2012-07-20T13:01:29Z</time>
<extensions>
<speed>0.0</speed>
<temp>0.00</temp>
<bpm>0</bpm>
<rpm>0.00</rpm>
</extensions>
</trkpt>
<trkpt lat="64.325340271" lon="-20.129379272">
<ele>219.453125</ele>
<time>2012-07-20T13:01:34Z</time>
<extensions>
<speed>0.0</speed>
<temp>0.00</temp>
<bpm>0</bpm>
<rpm>0.00</rpm>
</extensions>
</trkpt>
<trkpt lat="64.325340271" lon="-20.129379272">
<ele>219.519531</ele>
<time>2012-07-20T13:01:39Z</time>
<extensions>
<speed>0.0</speed>
<temp>0.00</temp>
<bpm>0</bpm>
<rpm>0.00</rpm>
</extensions>
</trkpt>
<trkpt lat="64.325340271" lon="-20.129379272">
<ele>219.554688</ele>
<time>2012-07-20T13:01:44Z</time>
<extensions>
<speed>0.0</speed>
<temp>0.00</temp>
<bpm>0</bpm>
<rpm>0.00</rpm>
</extensions>
</trkpt>
<trkpt lat="64.325340271" lon="-20.129379272">
<ele>219.628906</ele>
<time>2012-07-20T13:01:49Z</time>
<extensions>
<speed>0.0</speed>
<temp>0.00</temp>
<bpm>0</bpm>
<rpm>0.00</rpm>
</extensions>
</trkpt>
<trkpt lat="64.325340271" lon="-20.129379272">
<ele>219.738281</ele>
<time>2012-07-20T13:01:54Z</time>
<speed>0.010000</speed>
<extensions>
<speed>0.0</speed>
<temp>0.00</temp>
<bpm>0</bpm>
<rpm>0.00</rpm>
</extensions>
</trkpt>
<trkpt lat="64.325340271" lon="-20.129379272">
<ele>219.804688</ele>
<time>2012-07-20T13:01:59Z</time>
<extensions>
<speed>0.0</speed>
<temp>0.00</temp>
<bpm>0</bpm>
<rpm>0.00</rpm>
</extensions>
</trkpt>
<trkpt lat="64.325340271" lon="-20.129379272">
<ele>219.882813</ele>
<time>2012-07-20T13:02:04Z</time>
<speed>0.030000</speed>
<extensions>
<speed>0.0</speed>
<temp>0.00</temp>
<bpm>0</bpm>
<rpm>0.00</rpm>
</extensions>
</trkpt>
<trkpt lat="64.325340271" lon="-20.129379272">
<ele>219.984375</ele>
<time>2012-07-20T13:02:09Z</time>
<extensions>
<speed>0.0</speed>
<temp>0.00</temp>
<bpm>0</bpm>
<rpm>0.00</rpm>
</extensions>
</trkpt>
<trkpt lat="64.325340271" lon="-20.129379272">
<ele>220.078125</ele>
<time>2012-07-20T13:02:14Z</time>
<speed>0.010000</speed>
<extensions>
<speed>0.0</speed>
<temp>0.00</temp>
<bpm>0</bpm>
<rpm>0.00</rpm>
</extensions>
</trkpt>
<trkpt lat="64.325340271" lon="-20.129379272">
<ele>220.136719</ele>
<time>2012-07-20T13:02:19Z</time>
<speed>0.020000</speed>
<extensions>
<speed>0.0</speed>
<temp>0.00</temp>
<bpm>0</bpm>
<rpm>0.00</rpm>
</extensions>
</trkpt>
<trkpt lat="64.325340271" lon="-20.129379272">
<ele>220.191406</ele>
<time>2012-07-20T13:02:24Z</time>
<extensions>
<speed>0.0</speed>
<temp>0.00</temp>
<bpm>0</bpm>
<rpm>0.00</rpm>
</extensions>
</trkpt>
<trkpt lat="64.325340271" lon="-20.129379272">
<ele>220.265625</ele>
<time>2012-07-20T13:02:29Z</time>
<speed>0.020000</speed>
<extensions>
<speed>0.0</speed>
<temp>0.00</temp>
<bpm>0</bpm>
<rpm>0.00</rpm>
</extensions>
</trkpt>
<trkpt lat="64.325332642" lon="-20.129379272">
<ele>220.324219</ele>
<time>2012-07-20T13:02:34Z</time>
<speed>0.010000</speed>
<extensions>
<speed>0.0</speed>
<temp>0.00</temp>
<bpm>0</bpm>
<rpm>0.00</rpm>
</extensions>
</trkpt>
<trkpt lat="64.325332642" lon="-20.129379272">
<ele>220.390625</ele>
<time>2012-07-20T13:02:39Z</time>
<extensions>
<speed>0.0</speed>
<temp>0.00</temp>
<bpm>0</bpm>
<rpm>0.00</rpm>
</extensions>
</trkpt>
<trkpt lat="64.325332642" lon="-20.129379272">
<ele>220.445313</ele>
<time>2012-07-20T13:02:44Z</time>
<speed>0.010000</speed>
<extensions>
<speed>0.0</speed>
<temp>0.00</temp>
<bpm>0</bpm>
<rpm>0.00</rpm>
</extensions>
</trkpt>
<trkpt lat="64.325332642" lon="-20.129377365">
<ele>220.503906</ele>
<time>2012-07-20T13:02:49Z</time>
<extensions>
<speed>0.0</speed>
<temp>0.00</temp>
<bpm>0</bpm>
<rpm>0.00</rpm>
</extensions>
</trkpt>
<trkpt lat="64.325332642" lon="-20.129377365">
<ele>220.550781</ele>
<time>2012-07-20T13:02:54Z</time>
<speed>0.010000</speed>
<extensions>
<speed>0.0</speed>
<temp>0.00</temp>
<bpm>0</bpm>
<rpm>0.00</rpm>
</extensions>
</trkpt>
<trkpt lat="64.325332642" lon="-20.129377365">
<ele>220.597656</ele>
<time>2012-07-20T13:02:59Z</time>
<extensions>
<speed>0.0</speed>
<temp>0.00</temp>
<bpm>0</bpm>
<rpm>0.00</rpm>
</extensions>
</trkpt>
<trkpt lat="64.325332642" lon="-20.129377365">
<ele>220.640625</ele>
<time>2012-07-20T13:03:04Z</time>
<extensions>
<speed>0.0</speed>
<temp>0.00</temp>
<bpm>0</bpm>
<rpm>0.00</rpm>
</extensions>
</trkpt>
<trkpt lat="64.325332642" lon="-20.129375458">
<ele>220.675781</ele>
<time>2012-07-20T13:03:09Z</time>
<speed>0.010000</speed>
<extensions>
<speed>0.0</speed>
<temp>0.00</temp>
<bpm>0</bpm>
<rpm>0.00</rpm>
</extensions>
</trkpt>
<trkpt lat="64.325332642" lon="-20.129375458">
<ele>220.699219</ele>
<time>2012-07-20T13:03:14Z</time>
<speed>0.010000</speed>
<extensions>
<speed>0.0</speed>
<temp>0.00</temp>
<bpm>0</bpm>
<rpm>0.00</rpm>
</extensions>
</trkpt>
<trkpt lat="64.325332642" lon="-20.129375458">
<ele>220.726563</ele>
<time>2012-07-20T13:03:19Z</time>
<extensions>
<speed>0.0</speed>
<temp>0.00</temp>
<bpm>0</bpm>
<rpm>0.00</rpm>
</extensions>
</trkpt>
<trkpt lat="64.325332642" lon="-20.129375458">
<ele>220.750000</ele>
<time>2012-07-20T13:03:24Z</time>
<speed>0.030000</speed>
<extensions>
<speed>0.0</speed>
<temp>0.00</temp>
<bpm>0</bpm>
<rpm>0.00</rpm>
</extensions>
</trkpt>
<trkpt lat="64.325332642" lon="-20.129375458">
<ele>220.769531</ele>
<time>2012-07-20T13:03:29Z</time>
<extensions>
<speed>0.0</speed>
<temp>0.00</temp>
<bpm>0</bpm>
<rpm>0.00</rpm>
</extensions>
</trkpt>
<trkpt lat="64.325332642" lon="-20.129373550">
<ele>220.816406</ele>
<time>2012-07-20T13:03:34Z</time>
<extensions>
<speed>0.0</speed>
<temp>0.00</temp>
<bpm>0</bpm>
<rpm>0.00</rpm>
</extensions>
</trkpt>
<trkpt lat="64.325332642" lon="-20.129375458">
<ele>220.910156</ele>
<time>2012-07-20T13:03:39Z</time>
<extensions>
<speed>0.0</speed>
<temp>0.00</temp>
<bpm>0</bpm>
<rpm>0.00</rpm>
</extensions>
</trkpt>
<trkpt lat="64.325332642" lon="-20.129375458">
<ele>220.972656</ele>
<time>2012-07-20T13:03:44Z</time>
<speed>0.010000</speed>
<extensions>
<speed>0.0</speed>
<temp>0.00</temp>
<bpm>0</bpm>
<rpm>0.00</rpm>
</extensions>
</trkpt>
<trkpt lat="64.325332642" lon="-20.129375458">
<ele>221.011719</ele>
<time>2012-07-20T13:03:49Z</time>
<extensions>
<speed>0.0</speed>
<temp>0.00</temp>
<bpm>0</bpm>
<rpm>0.00</rpm>
</extensions>
</trkpt>
<trkpt lat="64.325332642" lon="-20.129375458">
<ele>221.074219</ele>
<time>2012-07-20T13:03:54Z</time>
<extensions>
<speed>0.0</speed>
<temp>0.00</temp>
<bpm>0</bpm>
<rpm>0.00</rpm>
</extensions>
</trkpt>
<trkpt lat="64.325332642" lon="-20.129375458">
<ele>221.121094</ele>
<time>2012-07-20T13:03:59Z</time>
<extensions>
<speed>0.0</speed>
<temp>0.00</temp>
<bpm>0</bpm>
<rpm>0.00</rpm>
</extensions>
</trkpt>
<trkpt lat="64.325332642" lon="-20.129375458">
<ele>221.148438</ele>
<time>2012-07-20T13:04:04Z</time>
<extensions>
<speed>0.0</speed>
<temp>0.00</temp>
<bpm>0</bpm>
<rpm>0.00</rpm>
</extensions>
</trkpt>
<trkpt lat="64.325332642" lon="-20.129375458">
<ele>221.218750</ele>
<time>2012-07-20T13:04:09Z</time>
<extensions>
<speed>0.0</speed>
<temp>0.00</temp>
<bpm>0</bpm>
<rpm>0.00</rpm>
</extensions>
</trkpt>
<trkpt lat="64.325332642" lon="-20.129373550">
<ele>221.375000</ele>
<time>2012-07-20T13:04:14Z</time>
<speed>0.010000</speed>
<extensions>
<speed>0.0</speed>
<temp>0.00</temp>
<bpm>0</bpm>
<rpm>0.00</rpm>
</extensions>
</trkpt>
<trkpt lat="64.325332642" lon="-20.129373550">
<ele>221.601563</ele>
<time>2012-07-20T13:04:19Z</time>
<extensions>
<speed>0.0</speed>
<temp>0.00</temp>
<bpm>0</bpm>
<rpm>0.00</rpm>
</extensions>
</trkpt>
<trkpt lat="64.325332642" lon="-20.129373550">
<ele>221.902344</ele>
<time>2012-07-20T13:04:24Z</time>
<extensions>
<speed>0.0</speed>
<temp>0.00</temp>
<bpm>0</bpm>
<rpm>0.00</rpm>
</extensions>
</trkpt>
<trkpt lat="64.325332642" lon="-20.129373550">
<ele>222.269531</ele>
<time>2012-07-20T13:04:29Z</time>
<speed>0.010000</speed>
<extensions>
<speed>0.0</speed>
<temp>0.00</temp>
<bpm>0</bpm>
<rpm>0.00</rpm>
</extensions>
</trkpt>
<trkpt lat="64.325332642" lon="-20.129371643">
<ele>222.707031</ele>
<time>2012-07-20T13:04:34Z</time>
<speed>0.010000</speed>
<extensions>
<speed>0.0</speed>
<temp>0.00</temp>
<bpm>0</bpm>
<rpm>0.00</rpm>
</extensions>
</trkpt>
<trkpt lat="64.325332642" lon="-20.129369736">
<ele>223.265625</ele>
<time>2012-07-20T13:04:39Z</time>
<speed>0.010000</speed>
<extensions>
<speed>0.0</speed>
<temp>0.00</temp>
<bpm>0</bpm>
<rpm>0.00</rpm>
</extensions>
</trkpt>
<trkpt lat="64.325332642" lon="-20.129369736">
<ele>223.925781</ele>
<time>2012-07-20T13:04:44Z</time>
<speed>0.020000</speed>
<extensions>
<speed>0.0</speed>
<temp>0.00</temp>
<bpm>0</bpm>
<rpm>0.00</rpm>
</extensions>
</trkpt>
<trkpt lat="64.325332642" lon="-20.129365921">
<ele>224.730469</ele>
<time>2012-07-20T13:04:49Z</time>
<speed>0.030000</speed>
<extensions>
<speed>0.0</speed>
<temp>0.00</temp>
<bpm>0</bpm>
<rpm>0.00</rpm>
</extensions>
</trkpt>
<trkpt lat="64.325332642" lon="-20.129362106">
<ele>225.722656</ele>
<time>2012-07-20T13:04:54Z</time>
<speed>0.060000</speed>
<extensions>
<speed>0.1</speed>
<temp>0.00</temp>
<bpm>0</bpm>
<rpm>0.00</rpm>
</extensions>
</trkpt>
<trkpt lat="64.325332642" lon="-20.129356384">
<ele>226.894531</ele>
<time>2012-07-20T13:04:59Z</time>
<speed>0.070000</speed>
<extensions>
<speed>0.1</speed>
<temp>0.00</temp>
<bpm>0</bpm>
<rpm>0.00</rpm>
</extensions>
</trkpt>
<trkpt lat="64.325332642" lon="-20.129344940">
<ele>228.242188</ele>
<time>2012-07-20T13:05:04Z</time>
<speed>0.150000</speed>
<extensions>
<speed>0.2</speed>
<temp>0.00</temp>
<bpm>0</bpm>
<rpm>0.00</rpm>
</extensions>
</trkpt>
<trkpt lat="64.325332642" lon="-20.129325867">
<ele>229.777344</ele>
<time>2012-07-20T13:05:09Z</time>
<speed>0.220000</speed>
<extensions>
<speed>0.2</speed>
<temp>0.00</temp>
<bpm>0</bpm>
<rpm>0.00</rpm>
</extensions>
</trkpt>
<trkpt lat="64.325332642" lon="-20.129302979">
<ele>231.523438</ele>
<time>2012-07-20T13:05:14Z</time>
<speed>0.230000</speed>
<extensions>
<speed>0.2</speed>
<temp>0.00</temp>
<bpm>0</bpm>
<rpm>0.00</rpm>
</extensions>
</trkpt>
<trkpt lat="64.325332642" lon="-20.129278183">
<ele>233.402344</ele>
<time>2012-07-20T13:05:19Z</time>
<speed>0.230000</speed>
<extensions>
<speed>0.2</speed>
<temp>0.00</temp>
<bpm>0</bpm>
<rpm>0.00</rpm>
</extensions>
</trkpt>
<trkpt lat="64.325332642" lon="-20.129251480">
<ele>235.398438</ele>
<time>2012-07-20T13:05:24Z</time>
<speed>0.300000</speed>
<extensions>
<speed>0.3</speed>
<temp>0.00</temp>
<bpm>0</bpm>
<rpm>0.00</rpm>
</extensions>
</trkpt>
<trkpt lat="64.325332642" lon="-20.129232407">
<ele>239.632813</ele>
<time>2012-07-20T13:05:29Z</time>
<speed>0.260000</speed>
<extensions>
<speed>0.3</speed>
<temp>0.00</temp>
<bpm>0</bpm>
<rpm>0.00</rpm>
</extensions>
</trkpt>
<trkpt lat="64.325332642" lon="-20.129205704">
<ele>241.687500</ele>
<time>2012-07-20T13:05:34Z</time>
<speed>0.240000</speed>
<extensions>
<speed>0.2</speed>
<temp>0.00</temp>
<bpm>0</bpm>
<rpm>0.00</rpm>
</extensions>
</trkpt>
<trkpt lat="64.325332642" lon="-20.129180908">
<ele>243.785156</ele>
<time>2012-07-20T13:05:39Z</time>
<speed>0.250000</speed>
<extensions>
<speed>0.2</speed>
<temp>0.00</temp>
<bpm>0</bpm>
<rpm>0.00</rpm>
</extensions>
</trkpt>
<trkpt lat="64.325332642" lon="-20.129159927">
<ele>245.808594</ele>
<time>2012-07-20T13:05:44Z</time>
<speed>0.150000</speed>
<extensions>
<speed>0.2</speed>
<temp>0.00</temp>
<bpm>0</bpm>
<rpm>0.00</rpm>
</extensions>
</trkpt>
<trkpt lat="64.325332642" lon="-20.129148483">
<ele>247.648438</ele>
<time>2012-07-20T13:05:49Z</time>
<speed>0.090000</speed>
<extensions>
<speed>0.1</speed>
<temp>0.00</temp>
<bpm>0</bpm>
<rpm>0.00</rpm>
</extensions>
</trkpt>
<trkpt lat="64.325332642" lon="-20.129140854">
<ele>249.242188</ele>
<time>2012-07-20T13:05:54Z</time>
<speed>0.070000</speed>
<extensions>
<speed>0.1</speed>
<temp>0.00</temp>
<bpm>0</bpm>
<rpm>0.00</rpm>
</extensions>
</trkpt>
<trkpt lat="64.325332642" lon="-20.129131317">
<ele>250.625000</ele>
<time>2012-07-20T13:05:59Z</time>
<speed>0.090000</speed>
<extensions>
<speed>0.1</speed>
<temp>0.00</temp>
<bpm>0</bpm>
<rpm>0.00</rpm>
</extensions>
</trkpt>
<trkpt lat="64.325325012" lon="-20.129127502">
<ele>251.582031</ele>
<time>2012-07-20T13:06:04Z</time>
<speed>0.020000</speed>
<extensions>
<speed>0.0</speed>
<temp>0.00</temp>
<bpm>0</bpm>
<rpm>0.00</rpm>
</extensions>
</trkpt>
<trkpt lat="64.325325012" lon="-20.129123688">
<ele>252.437500</ele>
<time>2012-07-20T13:06:09Z</time>
<speed>0.040000</speed>
<extensions>
<speed>0.0</speed>
<temp>0.00</temp>
<bpm>0</bpm>
<rpm>0.00</rpm>
</extensions>
</trkpt>
<trkpt lat="64.325325012" lon="-20.129121780">
<ele>253.242188</ele>
<time>2012-07-20T13:06:14Z</time>
<speed>0.040000</speed>
<extensions>
<speed>0.0</speed>
<temp>0.00</temp>
<bpm>0</bpm>
<rpm>0.00</rpm>
</extensions>
</trkpt>
<trkpt lat="64.325325012" lon="-20.129121780">
<ele>254.035156</ele>
<time>2012-07-20T13:06:19Z</time>
<speed>0.040000</speed>
<extensions>
<speed>0.0</speed>
<temp>0.00</temp>
<bpm>0</bpm>
<rpm>0.00</rpm>
</extensions>
</trkpt>
<trkpt lat="64.325325012" lon="-20.129125595">
<ele>254.683594</ele>
<time>2012-07-20T13:06:24Z</time>
<speed>0.100000</speed>
<extensions>
<speed>0.1</speed>
<temp>0.00</temp>
<bpm>0</bpm>
<rpm>0.00</rpm>
</extensions>
</trkpt>
<trkpt lat="64.325317383" lon="-20.129133224">
<ele>255.183594</ele>
<time>2012-07-20T13:06:29Z</time>
<speed>0.040000</speed>
<extensions>
<speed>0.0</speed>
<temp>0.00</temp>
<bpm>0</bpm>
<rpm>0.00</rpm>
</extensions>
</trkpt>
<trkpt lat="64.325317383" lon="-20.129135132">
<ele>255.468750</ele>
<time>2012-07-20T13:06:34Z</time>
<speed>0.020000</speed>
<extensions>
<speed>0.0</speed>
<temp>0.00</temp>
<bpm>0</bpm>
<rpm>0.00</rpm>
</extensions>
</trkpt>
<trkpt lat="64.325317383" lon="-20.129144669">
<ele>255.542969</ele>
<time>2012-07-20T13:06:39Z</time>
<speed>0.160000</speed>
<extensions>
<speed>0.2</speed>
<temp>0.00</temp>
<bpm>0</bpm>
<rpm>0.00</rpm>
</extensions>
</trkpt>
<trkpt lat="64.325317383" lon="-20.129167557">
<ele>255.464844</ele>
<time>2012-07-20T13:06:44Z</time>
<speed>0.270000</speed>
<extensions>
<speed>0.3</speed>
<temp>0.00</temp>
<bpm>0</bpm>
<rpm>0.00</rpm>
</extensions>
</trkpt>
<trkpt lat="64.325309753" lon="-20.129192352">
<ele>255.207031</ele>
<time>2012-07-20T13:06:49Z</time>
<speed>0.260000</speed>
<extensions>
<speed>0.3</speed>
<temp>0.00</temp>
<bpm>0</bpm>
<rpm>0.00</rpm>
</extensions>
</trkpt>
<trkpt lat="64.325309753" lon="-20.129215240">
<ele>254.664063</ele>
<time>2012-07-20T13:06:54Z</time>
<speed>0.170000</speed>
<extensions>
<speed>0.2</speed>
<temp>0.00</temp>
<bpm>0</bpm>
<rpm>0.00</rpm>
</extensions>
</trkpt>
<trkpt lat="64.325302124" lon="-20.129232407">
<ele>253.750000</ele>
<time>2012-07-20T13:06:59Z</time>
<speed>0.220000</speed>
<extensions>
<speed>0.2</speed>
<temp>0.00</temp>
<bpm>0</bpm>
<rpm>0.00</rpm>
</extensions>
</trkpt>
<trkpt lat="64.325302124" lon="-20.129257202">
<ele>252.632813</ele>
<time>2012-07-20T13:07:04Z</time>
<speed>0.260000</speed>
<extensions>
<speed>0.3</speed>
<temp>0.00</temp>
<bpm>0</bpm>
<rpm>0.00</rpm>
</extensions>
</trkpt>
<trkpt lat="64.325302124" lon="-20.129281998">
<ele>251.281250</ele>
<time>2012-07-20T13:07:09Z</time>
<speed>0.190000</speed>
<extensions>
<speed>0.2</speed>
<temp>0.00</temp>
<bpm>0</bpm>
<rpm>0.00</rpm>
</extensions>
</trkpt>
<trkpt lat="64.325302124" lon="-20.129291534">
<ele>250.648438</ele>
<time>2012-07-20T13:07:14Z</time>
<speed>0.020000</speed>
<extensions>
<speed>0.0</speed>
<temp>0.00</temp>
<bpm>0</bpm>
<rpm>0.00</rpm>
</extensions>
</trkpt>
<trkpt lat="64.325302124" lon="-20.129293442">
<ele>250.410156</ele>
<time>2012-07-20T13:07:19Z</time>
<speed>0.010000</speed>
<extensions>
<speed>0.0</speed>
<temp>0.00</temp>
<bpm>0</bpm>
<rpm>0.00</rpm>
</extensions>
</trkpt>
<trkpt lat="64.325302124" lon="-20.129291534">
<ele>250.269531</ele>
<time>2012-07-20T13:07:24Z</time>
<speed>0.010000</speed>
<extensions>
<speed>0.0</speed>
<temp>0.00</temp>
<bpm>0</bpm>
<rpm>0.00</rpm>
</extensions>
</trkpt>
<trkpt lat="64.325302124" lon="-20.129293442">
<ele>250.128906</ele>
<time>2012-07-20T13:07:29Z</time>
<speed>0.060000</speed>
<extensions>
<speed>0.1</speed>
<temp>0.00</temp>
<bpm>0</bpm>
<rpm>0.00</rpm>
</extensions>
</trkpt>
<trkpt lat="64.325302124" lon="-20.129297256">
<ele>249.953125</ele>
<time>2012-07-20T13:07:34Z</time>
<speed>0.010000</speed>
<extensions>
<speed>0.0</speed>
<temp>0.00</temp>
<bpm>0</bpm>
<rpm>0.00</rpm>
</extensions>
</trkpt>
<trkpt lat="64.325302124" lon="-20.129293442">
<ele>249.800781</ele>
<time>2012-07-20T13:07:39Z</time>
<speed>0.030000</speed>
<extensions>
<speed>0.0</speed>
<temp>0.00</temp>
<bpm>0</bpm>
<rpm>0.00</rpm>
</extensions>
</trkpt>
<trkpt lat="64.325302124" lon="-20.129293442">
<ele>249.800781</ele>
<time>2012-07-20T13:07:44Z</time>
<speed>0.020000</speed>
<extensions>
<speed>0.0</speed>
<temp>0.00</temp>
<bpm>0</bpm>
<rpm>0.00</rpm>
</extensions>
</trkpt>
<trkpt lat="64.325302124" lon="-20.129293442">
<ele>249.800781</ele>
<time>2012-07-20T13:07:49Z</time>
<speed>0.010000</speed>
<extensions>
<speed>0.0</speed>
<temp>0.00</temp>
<bpm>0</bpm>
<rpm>0.00</rpm>
</extensions>
</trkpt>
<trkpt lat="64.325302124" lon="-20.129293442">
<ele>249.781250</ele>
<time>2012-07-20T13:07:54Z</time>
<speed>0.010000</speed>
<extensions>
<speed>0.0</speed>
<temp>0.00</temp>
<bpm>0</bpm>
<rpm>0.00</rpm>
</extensions>
</trkpt>
<trkpt lat="64.325302124" lon="-20.129293442">
<ele>249.773438</ele>
<time>2012-07-20T13:07:59Z</time>
<extensions>
<speed>0.0</speed>
<temp>0.00</temp>
<bpm>0</bpm>
<rpm>0.00</rpm>
</extensions>
</trkpt>
<trkpt lat="64.325302124" lon="-20.129293442">
<ele>249.761719</ele>
<time>2012-07-20T13:08:04Z</time>
<speed>0.010000</speed>
<extensions>
<speed>0.0</speed>
<temp>0.00</temp>
<bpm>0</bpm>
<rpm>0.00</rpm>
</extensions>
</trkpt>
<trkpt lat="64.325302124" lon="-20.129295349">
<ele>249.757813</ele>
<time>2012-07-20T13:08:09Z</time>
<speed>0.010000</speed>
<extensions>
<speed>0.0</speed>
<temp>0.00</temp>
<bpm>0</bpm>
<rpm>0.00</rpm>
</extensions>
</trkpt>
<trkpt lat="64.325302124" lon="-20.129295349">
<ele>249.746094</ele>
<time>2012-07-20T13:08:14Z</time>
<speed>0.010000</speed>
<extensions>
<speed>0.0</speed>
<temp>0.00</temp>
<bpm>0</bpm>
<rpm>0.00</rpm>
</extensions>
</trkpt>
<trkpt lat="64.325302124" lon="-20.129297256">
<ele>249.746094</ele>
<time>2012-07-20T13:08:19Z</time>
<speed>0.010000</speed>
<extensions>
<speed>0.0</speed>
<temp>0.00</temp>
<bpm>0</bpm>
<rpm>0.00</rpm>
</extensions>
</trkpt>
<trkpt lat="64.325302124" lon="-20.129297256">
<ele>249.761719</ele>
<time>2012-07-20T13:08:24Z</time>
<speed>0.010000</speed>
<extensions>
<speed>0.0</speed>
<temp>0.00</temp>
<bpm>0</bpm>
<rpm>0.00</rpm>
</extensions>
</trkpt>
<trkpt lat="64.325302124" lon="-20.129299164">
<ele>249.773438</ele>
<time>2012-07-20T13:08:29Z</time>
<extensions>
<speed>0.0</speed>
<temp>0.00</temp>
<bpm>0</bpm>
<rpm>0.00</rpm>
</extensions>
</trkpt>
<trkpt lat="64.325302124" lon="-20.129297256">
<ele>249.757813</ele>
<time>2012-07-20T13:08:34Z</time>
<speed>0.010000</speed>
<extensions>
<speed>0.0</speed>
<temp>0.00</temp>
<bpm>0</bpm>
<rpm>0.00</rpm>
</extensions>
</trkpt>
<trkpt lat="64.325302124" lon="-20.129297256">
<ele>249.746094</ele>
<time>2012-07-20T13:08:39Z</time>
<speed>0.010000</speed>
<extensions>
<speed>0.0</speed>
<temp>0.00</temp>
<bpm>0</bpm>
<rpm>0.00</rpm>
</extensions>
</trkpt>
<trkpt lat="64.325302124" lon="-20.129295349">
<ele>249.718750</ele>
<time>2012-07-20T13:08:44Z</time>
<speed>0.010000</speed>
<extensions>
<speed>0.0</speed>
<temp>0.00</temp>
<bpm>0</bpm>
<rpm>0.00</rpm>
</extensions>
</trkpt>
<trkpt lat="64.325302124" lon="-20.129295349">
<ele>249.687500</ele>
<time>2012-07-20T13:08:49Z</time>
<speed>0.010000</speed>
<extensions>
<speed>0.0</speed>
<temp>0.00</temp>
<bpm>0</bpm>
<rpm>0.00</rpm>
</extensions>
</trkpt>
<trkpt lat="64.325302124" lon="-20.129293442">
<ele>249.648438</ele>
<time>2012-07-20T13:08:54Z</time>
<extensions>
<speed>0.0</speed>
<temp>0.00</temp>
<bpm>0</bpm>
<rpm>0.00</rpm>
</extensions>
</trkpt>
<trkpt lat="64.325302124" lon="-20.129293442">
<ele>249.617188</ele>
<time>2012-07-20T13:08:59Z</time>
<speed>0.010000</speed>
<extensions>
<speed>0.0</speed>
<temp>0.00</temp>
<bpm>0</bpm>
<rpm>0.00</rpm>
</extensions>
</trkpt>
<trkpt lat="64.325302124" lon="-20.129293442">
<ele>249.589844</ele>
<time>2012-07-20T13:09:04Z</time>
<speed>0.010000</speed>
<extensions>
<speed>0.0</speed>
<temp>0.00</temp>
<bpm>0</bpm>
<rpm>0.00</rpm>
</extensions>
</trkpt>
<trkpt lat="64.325302124" lon="-20.129293442">
<ele>249.574219</ele>
<time>2012-07-20T13:09:09Z</time>
<extensions>
<speed>0.0</speed>
<temp>0.00</temp>
<bpm>0</bpm>
<rpm>0.00</rpm>
</extensions>
</trkpt>
<trkpt lat="64.325302124" lon="-20.129293442">
<ele>249.558594</ele>
<time>2012-07-20T13:09:14Z</time>
<extensions>
<speed>0.0</speed>
<temp>0.00</temp>
<bpm>0</bpm>
<rpm>0.00</rpm>
</extensions>
</trkpt>
<trkpt lat="64.325302124" lon="-20.129293442">
<ele>249.550781</ele>
<time>2012-07-20T13:09:19Z</time>
<extensions>
<speed>0.0</speed>
<temp>0.00</temp>
<bpm>0</bpm>
<rpm>0.00</rpm>
</extensions>
</trkpt>
<trkpt lat="64.325302124" lon="-20.129293442">
<ele>249.535156</ele>
<time>2012-07-20T13:09:24Z</time>
<extensions>
<speed>0.0</speed>
<temp>0.00</temp>
<bpm>0</bpm>
<rpm>0.00</rpm>
</extensions>
</trkpt>
<trkpt lat="64.325302124" lon="-20.129295349">
<ele>249.527344</ele>
<time>2012-07-20T13:09:29Z</time>
<speed>0.020000</speed>
<extensions>
<speed>0.0</speed>
<temp>0.00</temp>
<bpm>0</bpm>
<rpm>0.00</rpm>
</extensions>
</trkpt>
<trkpt lat="64.325302124" lon="-20.129295349">
<ele>249.523438</ele>
<time>2012-07-20T13:09:34Z</time>
<speed>0.030000</speed>
<extensions>
<speed>0.0</speed>
<temp>0.00</temp>
<bpm>0</bpm>
<rpm>0.00</rpm>
</extensions>
</trkpt>
<trkpt lat="64.325302124" lon="-20.129295349">
<ele>249.519531</ele>
<time>2012-07-20T13:09:39Z</time>
<extensions>
<speed>0.0</speed>
<temp>0.00</temp>
<bpm>0</bpm>
<rpm>0.00</rpm>
</extensions>
</trkpt>
<trkpt lat="64.325302124" lon="-20.129295349">
<ele>249.511719</ele>
<time>2012-07-20T13:09:44Z</time>
<extensions>
<speed>0.0</speed>
<temp>0.00</temp>
<bpm>0</bpm>
<rpm>0.00</rpm>
</extensions>
</trkpt>
<trkpt lat="64.325302124" lon="-20.129295349">
<ele>249.511719</ele>
<time>2012-07-20T13:09:49Z</time>
<speed>0.010000</speed>
<extensions>
<speed>0.0</speed>
<temp>0.00</temp>
<bpm>0</bpm>
<rpm>0.00</rpm>
</extensions>
</trkpt>
<trkpt lat="64.325302124" lon="-20.129295349">
<ele>249.507813</ele>
<time>2012-07-20T13:09:54Z</time>
<speed>0.010000</speed>
<extensions>
<speed>0.0</speed>
<temp>0.00</temp>
<bpm>0</bpm>
<rpm>0.00</rpm>
</extensions>
</trkpt>
<trkpt lat="64.325302124" lon="-20.129295349">
<ele>249.503906</ele>
<time>2012-07-20T13:09:59Z</time>
<speed>0.010000</speed>
<extensions>
<speed>0.0</speed>
<temp>0.00</temp>
<bpm>0</bpm>
<rpm>0.00</rpm>
</extensions>
</trkpt>
<trkpt lat="64.325302124" lon="-20.129295349">
<ele>249.488281</ele>
<time>2012-07-20T13:10:04Z</time>
<speed>0.010000</speed>
<extensions>
<speed>0.0</speed>
<temp>0.00</temp>
<bpm>0</bpm>
<rpm>0.00</rpm>
</extensions>
</trkpt>
<trkpt lat="64.325302124" lon="-20.129295349">
<ele>249.476563</ele>
<time>2012-07-20T13:10:09Z</time>
<speed>0.020000</speed>
<extensions>
<speed>0.0</speed>
<temp>0.00</temp>
<bpm>0</bpm>
<rpm>0.00</rpm>
</extensions>
</trkpt>
<trkpt lat="64.325302124" lon="-20.129293442">
<ele>249.468750</ele>
<time>2012-07-20T13:10:14Z</time>
<speed>0.010000</speed>
<extensions>
<speed>0.0</speed>
<temp>0.00</temp>
<bpm>0</bpm>
<rpm>0.00</rpm>
</extensions>
</trkpt>
<trkpt lat="64.325302124" lon="-20.129293442">
<ele>249.457031</ele>
<time>2012-07-20T13:10:19Z</time>
<extensions>
<speed>0.0</speed>
<temp>0.00</temp>
<bpm>0</bpm>
<rpm>0.00</rpm>
</extensions>
</trkpt>
<trkpt lat="64.325302124" lon="-20.129293442">
<ele>249.449219</ele>
<time>2012-07-20T13:10:24Z</time>
<extensions>
<speed>0.0</speed>
<temp>0.00</temp>
<bpm>0</bpm>
<rpm>0.00</rpm>
</extensions>
</trkpt>
<trkpt lat="64.325302124" lon="-20.129293442">
<ele>249.445313</ele>
<time>2012-07-20T13:10:29Z</time>
<extensions>
<speed>0.0</speed>
<temp>0.00</temp>
<bpm>0</bpm>
<rpm>0.00</rpm>
</extensions>
</trkpt>
<trkpt lat="64.325302124" lon="-20.129293442">
<ele>249.437500</ele>
<time>2012-07-20T13:10:34Z</time>
<speed>0.010000</speed>
<extensions>
<speed>0.0</speed>
<temp>0.00</temp>
<bpm>0</bpm>
<rpm>0.00</rpm>
</extensions>
</trkpt>
<trkpt lat="64.325302124" lon="-20.129293442">
<ele>249.425781</ele>
<time>2012-07-20T13:10:39Z</time>
<extensions>
<speed>0.0</speed>
<temp>0.00</temp>
<bpm>0</bpm>
<rpm>0.00</rpm>
</extensions>
</trkpt>
<trkpt lat="64.325302124" lon="-20.129293442">
<ele>249.425781</ele>
<time>2012-07-20T13:10:44Z</time>
<extensions>
<speed>0.0</speed>
<temp>0.00</temp>
<bpm>0</bpm>
<rpm>0.00</rpm>
</extensions>
</trkpt>
<trkpt lat="64.325302124" lon="-20.129293442">
<ele>249.421875</ele>
<time>2012-07-20T13:10:49Z</time>
<speed>0.010000</speed>
<extensions>
<speed>0.0</speed>
<temp>0.00</temp>
<bpm>0</bpm>
<rpm>0.00</rpm>
</extensions>
</trkpt>
<trkpt lat="64.325302124" lon="-20.129293442">
<ele>249.402344</ele>
<time>2012-07-20T13:10:54Z</time>
<extensions>
<speed>0.0</speed>
<temp>0.00</temp>
<bpm>0</bpm>
<rpm>0.00</rpm>
</extensions>
</trkpt>
<trkpt lat="64.325302124" lon="-20.129293442">
<ele>249.386719</ele>
<time>2012-07-20T13:10:59Z</time>
<extensions>
<speed>0.0</speed>
<temp>0.00</temp>
<bpm>0</bpm>
<rpm>0.00</rpm>
</extensions>
</trkpt>
<trkpt lat="64.325302124" lon="-20.129293442">
<ele>249.363281</ele>
<time>2012-07-20T13:11:04Z</time>
<speed>0.010000</speed>
<extensions>
<speed>0.0</speed>
<temp>0.00</temp>
<bpm>0</bpm>
<rpm>0.00</rpm>
</extensions>
</trkpt>
<trkpt lat="64.325302124" lon="-20.129293442">
<ele>249.351563</ele>
<time>2012-07-20T13:11:09Z</time>
<speed>0.020000</speed>
<extensions>
<speed>0.0</speed>
<temp>0.00</temp>
<bpm>0</bpm>
<rpm>0.00</rpm>
</extensions>
</trkpt>
<trkpt lat="64.325302124" lon="-20.129293442">
<ele>249.328125</ele>
<time>2012-07-20T13:11:14Z</time>
<speed>0.010000</speed>
<extensions>
<speed>0.0</speed>
<temp>0.00</temp>
<bpm>0</bpm>
<rpm>0.00</rpm>
</extensions>
</trkpt>
<trkpt lat="64.325302124" lon="-20.129293442">
<ele>249.308594</ele>
<time>2012-07-20T13:11:19Z</time>
<extensions>
<speed>0.0</speed>
<temp>0.00</temp>
<bpm>0</bpm>
<rpm>0.00</rpm>
</extensions>
</trkpt>
<trkpt lat="64.325302124" lon="-20.129293442">
<ele>249.281250</ele>
<time>2012-07-20T13:11:24Z</time>
<extensions>
<speed>0.0</speed>
<temp>0.00</temp>
<bpm>0</bpm>
<rpm>0.00</rpm>
</extensions>
</trkpt>
<trkpt lat="64.325302124" lon="-20.129293442">
<ele>249.253906</ele>
<time>2012-07-20T13:11:29Z</time>
<speed>0.010000</speed>
<extensions>
<speed>0.0</speed>
<temp>0.00</temp>
<bpm>0</bpm>
<rpm>0.00</rpm>
</extensions>
</trkpt>
<trkpt lat="64.325309753" lon="-20.129293442">
<ele>249.238281</ele>
<time>2012-07-20T13:11:34Z</time>
<extensions>
<speed>0.0</speed>
<temp>0.00</temp>
<bpm>0</bpm>
<rpm>0.00</rpm>
</extensions>
</trkpt>
<trkpt lat="64.325309753" lon="-20.129293442">
<ele>249.167969</ele>
<time>2012-07-20T13:11:39Z</time>
<speed>0.010000</speed>
<extensions>
<speed>0.0</speed>
<temp>0.00</temp>
<bpm>0</bpm>
<rpm>0.00</rpm>
</extensions>
</trkpt>
<trkpt lat="64.325302124" lon="-20.129295349">
<ele>249.082031</ele>
<time>2012-07-20T13:11:44Z</time>
<extensions>
<speed>0.0</speed>
<temp>0.00</temp>
<bpm>0</bpm>
<rpm>0.00</rpm>
</extensions>
</trkpt>
<trkpt lat="64.325302124" lon="-20.129295349">
<ele>249.003906</ele>
<time>2012-07-20T13:11:49Z</time>
<speed>0.010000</speed>
<extensions>
<speed>0.0</speed>
<temp>0.00</temp>
<bpm>0</bpm>
<rpm>0.00</rpm>
</extensions>
</trkpt>
<trkpt lat="64.325302124" lon="-20.129295349">
<ele>248.894531</ele>
<time>2012-07-20T13:11:54Z</time>
<extensions>
<speed>0.0</speed>
<temp>0.00</temp>
<bpm>0</bpm>
<rpm>0.00</rpm>
</extensions>
</trkpt>
<trkpt lat="64.325302124" lon="-20.129295349">
<ele>248.828125</ele>
<time>2012-07-20T13:11:59Z</time>
<extensions>
<speed>0.0</speed>
<temp>0.00</temp>
<bpm>0</bpm>
<rpm>0.00</rpm>
</extensions>
</trkpt>
<trkpt lat="64.325302124" lon="-20.129295349">
<ele>248.765625</ele>
<time>2012-07-20T13:12:04Z</time>
<extensions>
<speed>0.0</speed>
<temp>0.00</temp>
<bpm>0</bpm>
<rpm>0.00</rpm>
</extensions>
</trkpt>
<trkpt lat="64.325302124" lon="-20.129297256">
<ele>248.699219</ele>
<time>2012-07-20T13:12:09Z</time>
<extensions>
<speed>0.0</speed>
<temp>0.00</temp>
<bpm>0</bpm>
<rpm>0.00</rpm>
</extensions>
</trkpt>
<trkpt lat="64.325302124" lon="-20.129297256">
<ele>248.652344</ele>
<time>2012-07-20T13:12:14Z</time>
<speed>0.010000</speed>
<extensions>
<speed>0.0</speed>
<temp>0.00</temp>
<bpm>0</bpm>
<rpm>0.00</rpm>
</extensions>
</trkpt>
<trkpt lat="64.325302124" lon="-20.129297256">
<ele>248.609375</ele>
<time>2012-07-20T13:12:19Z</time>
<speed>0.010000</speed>
<extensions>
<speed>0.0</speed>
<temp>0.00</temp>
<bpm>0</bpm>
<rpm>0.00</rpm>
</extensions>
</trkpt>
<trkpt lat="64.325302124" lon="-20.129297256">
<ele>248.566406</ele>
<time>2012-07-20T13:12:24Z</time>
<extensions>
<speed>0.0</speed>
<temp>0.00</temp>
<bpm>0</bpm>
<rpm>0.00</rpm>
</extensions>
</trkpt>
<trkpt lat="64.325302124" lon="-20.129297256">
<ele>248.539063</ele>
<time>2012-07-20T13:12:29Z</time>
<speed>0.010000</speed>
<extensions>
<speed>0.0</speed>
<temp>0.00</temp>
<bpm>0</bpm>
<rpm>0.00</rpm>
</extensions>
</trkpt>
<trkpt lat="64.325302124" lon="-20.129297256">
<ele>248.507813</ele>
<time>2012-07-20T13:12:34Z</time>
<extensions>
<speed>0.0</speed>
<temp>0.00</temp>
<bpm>0</bpm>
<rpm>0.00</rpm>
</extensions>
</trkpt>
<trkpt lat="64.325302124" lon="-20.129299164">
<ele>248.480469</ele>
<time>2012-07-20T13:12:39Z</time>
<extensions>
<speed>0.0</speed>
<temp>0.00</temp>
<bpm>0</bpm>
<rpm>0.00</rpm>
</extensions>
</trkpt>
<trkpt lat="64.325302124" lon="-20.129299164">
<ele>248.441406</ele>
<time>2012-07-20T13:12:44Z</time>
<extensions>
<speed>0.0</speed>
<temp>0.00</temp>
<bpm>0</bpm>
<rpm>0.00</rpm>
</extensions>
</trkpt>
<trkpt lat="64.325302124" lon="-20.129299164">
<ele>248.414063</ele>
<time>2012-07-20T13:12:49Z</time>
<speed>0.010000</speed>
<extensions>
<speed>0.0</speed>
<temp>0.00</temp>
<bpm>0</bpm>
<rpm>0.00</rpm>
</extensions>
</trkpt>
<trkpt lat="64.325302124" lon="-20.129299164">
<ele>248.390625</ele>
<time>2012-07-20T13:12:54Z</time>
<speed>0.010000</speed>
<extensions>
<speed>0.0</speed>
<temp>0.00</temp>
<bpm>0</bpm>
<rpm>0.00</rpm>
</extensions>
</trkpt>
<trkpt lat="64.325302124" lon="-20.129299164">
<ele>248.355469</ele>
<time>2012-07-20T13:12:59Z</time>
<extensions>
<speed>0.0</speed>
<temp>0.00</temp>
<bpm>0</bpm>
<rpm>0.00</rpm>
</extensions>
</trkpt>
<trkpt lat="64.325302124" lon="-20.129301071">
<ele>248.328125</ele>
<time>2012-07-20T13:13:04Z</time>
<speed>0.020000</speed>
<extensions>
<speed>0.0</speed>
<temp>0.00</temp>
<bpm>0</bpm>
<rpm>0.00</rpm>
</extensions>
</trkpt>
<trkpt lat="64.325302124" lon="-20.129301071">
<ele>248.292969</ele>
<time>2012-07-20T13:13:09Z</time>
<speed>0.010000</speed>
<extensions>
<speed>0.0</speed>
<temp>0.00</temp>
<bpm>0</bpm>
<rpm>0.00</rpm>
</extensions>
</trkpt>
<trkpt lat="64.325302124" lon="-20.129301071">
<ele>248.261719</ele>
<time>2012-07-20T13:13:14Z</time>
<speed>0.010000</speed>
<extensions>
<speed>0.0</speed>
<temp>0.00</temp>
<bpm>0</bpm>
<rpm>0.00</rpm>
</extensions>
</trkpt>
<trkpt lat="64.325302124" lon="-20.129302979">
<ele>248.242188</ele>
<time>2012-07-20T13:13:19Z</time>
<extensions>
<speed>0.0</speed>
<temp>0.00</temp>
<bpm>0</bpm>
<rpm>0.00</rpm>
</extensions>
</trkpt>
<trkpt lat="64.325302124" lon="-20.129302979">
<ele>248.218750</ele>
<time>2012-07-20T13:13:24Z</time>
<extensions>
<speed>0.0</speed>
<temp>0.00</temp>
<bpm>0</bpm>
<rpm>0.00</rpm>
</extensions>
</trkpt>
<trkpt lat="64.325309753" lon="-20.129302979">
<ele>248.199219</ele>
<time>2012-07-20T13:13:29Z</time>
<extensions>
<speed>0.0</speed>
<temp>0.00</temp>
<bpm>0</bpm>
<rpm>0.00</rpm>
</extensions>
</trkpt>
<trkpt lat="64.325309753" lon="-20.129302979">
<ele>248.171875</ele>
<time>2012-07-20T13:13:34Z</time>
<extensions>
<speed>0.0</speed>
<temp>0.00</temp>
<bpm>0</bpm>
<rpm>0.00</rpm>
</extensions>
</trkpt>
<trkpt lat="64.325309753" lon="-20.129304886">
<ele>248.148438</ele>
<time>2012-07-20T13:13:39Z</time>
<extensions>
<speed>0.0</speed>
<temp>0.00</temp>
<bpm>0</bpm>
<rpm>0.00</rpm>
</extensions>
</trkpt>
<trkpt lat="64.325309753" lon="-20.129304886">
<ele>248.125000</ele>
<time>2012-07-20T13:13:44Z</time>
<extensions>
<speed>0.0</speed>
<temp>0.00</temp>
<bpm>0</bpm>
<rpm>0.00</rpm>
</extensions>
</trkpt>
<trkpt lat="64.325309753" lon="-20.129304886">
<ele>248.093750</ele>
<time>2012-07-20T13:13:49Z</time>
<extensions>
<speed>0.0</speed>
<temp>0.00</temp>
<bpm>0</bpm>
<rpm>0.00</rpm>
</extensions>
</trkpt>
<trkpt lat="64.325309753" lon="-20.129306793">
<ele>248.058594</ele>
<time>2012-07-20T13:13:54Z</time>
<speed>0.010000</speed>
<extensions>
<speed>0.0</speed>
<temp>0.00</temp>
<bpm>0</bpm>
<rpm>0.00</rpm>
</extensions>
</trkpt>
<trkpt lat="64.325309753" lon="-20.129306793">
<ele>248.027344</ele>
<time>2012-07-20T13:13:59Z</time>
<extensions>
<speed>0.0</speed>
<temp>0.00</temp>
<bpm>0</bpm>
<rpm>0.00</rpm>
</extensions>
</trkpt>
<trkpt lat="64.325309753" lon="-20.129306793">
<ele>248.000000</ele>
<time>2012-07-20T13:14:04Z</time>
<extensions>
<speed>0.0</speed>
<temp>0.00</temp>
<bpm>0</bpm>
<rpm>0.00</rpm>
</extensions>
</trkpt>
<trkpt lat="64.325309753" lon="-20.129308701">
<ele>247.976563</ele>
<time>2012-07-20T13:14:09Z</time>
<speed>0.010000</speed>
<extensions>
<speed>0.0</speed>
<temp>0.00</temp>
<bpm>0</bpm>
<rpm>0.00</rpm>
</extensions>
</trkpt>
<trkpt lat="64.325309753" lon="-20.129308701">
<ele>247.957031</ele>
<time>2012-07-20T13:14:14Z</time>
<extensions>
<speed>0.0</speed>
<temp>0.00</temp>
<bpm>0</bpm>
<rpm>0.00</rpm>
</extensions>
</trkpt>
<trkpt lat="64.325309753" lon="-20.129310608">
<ele>247.941406</ele>
<time>2012-07-20T13:14:19Z</time>
<extensions>
<speed>0.0</speed>
<temp>0.00</temp>
<bpm>0</bpm>
<rpm>0.00</rpm>
</extensions>
</trkpt>
<trkpt lat="64.325309753" lon="-20.129310608">
<ele>247.921875</ele>
<time>2012-07-20T13:14:24Z</time>
<extensions>
<speed>0.0</speed>
<temp>0.00</temp>
<bpm>0</bpm>
<rpm>0.00</rpm>
</extensions>
</trkpt>
<trkpt lat="64.325309753" lon="-20.129310608">
<ele>247.902344</ele>
<time>2012-07-20T13:14:29Z</time>
<extensions>
<speed>0.0</speed>
<temp>0.00</temp>
<bpm>0</bpm>
<rpm>0.00</rpm>
</extensions>
</trkpt>
<trkpt lat="64.325309753" lon="-20.129310608">
<ele>247.886719</ele>
<time>2012-07-20T13:14:34Z</time>
<speed>0.020000</speed>
<extensions>
<speed>0.0</speed>
<temp>0.00</temp>
<bpm>0</bpm>
<rpm>0.00</rpm>
</extensions>
</trkpt>
<trkpt lat="64.325309753" lon="-20.129310608">
<ele>247.863281</ele>
<time>2012-07-20T13:14:39Z</time>
<speed>0.010000</speed>
<extensions>
<speed>0.0</speed>
<temp>0.00</temp>
<bpm>0</bpm>
<rpm>0.00</rpm>
</extensions>
</trkpt>
<trkpt lat="64.325309753" lon="-20.129310608">
<ele>247.839844</ele>
<time>2012-07-20T13:14:44Z</time>
<speed>0.010000</speed>
<extensions>
<speed>0.0</speed>
<temp>0.00</temp>
<bpm>0</bpm>
<rpm>0.00</rpm>
</extensions>
</trkpt>
<trkpt lat="64.325309753" lon="-20.129310608">
<ele>247.820313</ele>
<time>2012-07-20T13:14:49Z</time>
<speed>0.010000</speed>
<extensions>
<speed>0.0</speed>
<temp>0.00</temp>
<bpm>0</bpm>
<rpm>0.00</rpm>
</extensions>
</trkpt>
<trkpt lat="64.325309753" lon="-20.129310608">
<ele>247.800781</ele>
<time>2012-07-20T13:14:54Z</time>
<speed>0.010000</speed>
<extensions>
<speed>0.0</speed>
<temp>0.00</temp>
<bpm>0</bpm>
<rpm>0.00</rpm>
</extensions>
</trkpt>
<trkpt lat="64.325309753" lon="-20.129310608">
<ele>247.781250</ele>
<time>2012-07-20T13:14:59Z</time>
<extensions>
<speed>0.0</speed>
<temp>0.00</temp>
<bpm>0</bpm>
<rpm>0.00</rpm>
</extensions>
</trkpt>
<trkpt lat="64.325309753" lon="-20.129308701">
<ele>247.761719</ele>
<time>2012-07-20T13:15:04Z</time>
<speed>0.010000</speed>
<extensions>
<speed>0.0</speed>
<temp>0.00</temp>
<bpm>0</bpm>
<rpm>0.00</rpm>
</extensions>
</trkpt>
<trkpt lat="64.325309753" lon="-20.129308701">
<ele>247.742188</ele>
<time>2012-07-20T13:15:09Z</time>
<extensions>
<speed>0.0</speed>
<temp>0.00</temp>
<bpm>0</bpm>
<rpm>0.00</rpm>
</extensions>
</trkpt>
<trkpt lat="64.325309753" lon="-20.129310608">
<ele>247.726563</ele>
<time>2012-07-20T13:15:14Z</time>
<speed>0.020000</speed>
<extensions>
<speed>0.0</speed>
<temp>0.00</temp>
<bpm>0</bpm>
<rpm>0.00</rpm>
</extensions>
</trkpt>
<trkpt lat="64.325309753" lon="-20.129310608">
<ele>247.703125</ele>
<time>2012-07-20T13:15:19Z</time>
<speed>0.010000</speed>
<extensions>
<speed>0.0</speed>
<temp>0.00</temp>
<bpm>0</bpm>
<rpm>0.00</rpm>
</extensions>
</trkpt>
<trkpt lat="64.325309753" lon="-20.129310608">
<ele>247.687500</ele>
<time>2012-07-20T13:15:24Z</time>
<extensions>
<speed>0.0</speed>
<temp>0.00</temp>
<bpm>0</bpm>
<rpm>0.00</rpm>
</extensions>
</trkpt>
<trkpt lat="64.325309753" lon="-20.129310608">
<ele>247.660156</ele>
<time>2012-07-20T13:15:29Z</time>
<speed>0.020000</speed>
<extensions>
<speed>0.0</speed>
<temp>0.00</temp>
<bpm>0</bpm>
<rpm>0.00</rpm>
</extensions>
</trkpt>
<trkpt lat="64.325309753" lon="-20.129310608">
<ele>247.644531</ele>
<time>2012-07-20T13:15:34Z</time>
<speed>0.010000</speed>
<extensions>
<speed>0.0</speed>
<temp>0.00</temp>
<bpm>0</bpm>
<rpm>0.00</rpm>
</extensions>
</trkpt>
<trkpt lat="64.325309753" lon="-20.129310608">
<ele>247.625000</ele>
<time>2012-07-20T13:15:39Z</time>
<extensions>
<speed>0.0</speed>
<temp>0.00</temp>
<bpm>0</bpm>
<rpm>0.00</rpm>
</extensions>
</trkpt>
<trkpt lat="64.325309753" lon="-20.129310608">
<ele>247.601563</ele>
<time>2012-07-20T13:15:44Z</time>
<extensions>
<speed>0.0</speed>
<temp>0.00</temp>
<bpm>0</bpm>
<rpm>0.00</rpm>
</extensions>
</trkpt>
<trkpt lat="64.325309753" lon="-20.129310608">
<ele>247.570313</ele>
<time>2012-07-20T13:15:49Z</time>
<speed>0.010000</speed>
<extensions>
<speed>0.0</speed>
<temp>0.00</temp>
<bpm>0</bpm>
<rpm>0.00</rpm>
</extensions>
</trkpt>
<trkpt lat="64.325309753" lon="-20.129312515">
<ele>247.539063</ele>
<time>2012-07-20T13:15:54Z</time>
<extensions>
<speed>0.0</speed>
<temp>0.00</temp>
<bpm>0</bpm>
<rpm>0.00</rpm>
</extensions>
</trkpt>
<trkpt lat="64.325309753" lon="-20.129312515">
<ele>247.507813</ele>
<time>2012-07-20T13:15:59Z</time>
<extensions>
<speed>0.0</speed>
<temp>0.00</temp>
<bpm>0</bpm>
<rpm>0.00</rpm>
</extensions>
</trkpt>
<trkpt lat="64.325309753" lon="-20.129312515">
<ele>247.468750</ele>
<time>2012-07-20T13:16:04Z</time>
<speed>0.010000</speed>
<extensions>
<speed>0.0</speed>
<temp>0.00</temp>
<bpm>0</bpm>
<rpm>0.00</rpm>
</extensions>
</trkpt>
<trkpt lat="64.325309753" lon="-20.129312515">
<ele>247.429688</ele>
<time>2012-07-20T13:16:09Z</time>
<extensions>
<speed>0.0</speed>
<temp>0.00</temp>
<bpm>0</bpm>
<rpm>0.00</rpm>
</extensions>
</trkpt>
<trkpt lat="64.325309753" lon="-20.129312515">
<ele>247.390625</ele>
<time>2012-07-20T13:16:14Z</time>
<extensions>
<speed>0.0</speed>
<temp>0.00</temp>
<bpm>0</bpm>
<rpm>0.00</rpm>
</extensions>
</trkpt>
<trkpt lat="64.325309753" lon="-20.129312515">
<ele>247.359375</ele>
<time>2012-07-20T13:16:19Z</time>
<extensions>
<speed>0.0</speed>
<temp>0.00</temp>
<bpm>0</bpm>
<rpm>0.00</rpm>
</extensions>
</trkpt>
<trkpt lat="64.325309753" lon="-20.129312515">
<ele>247.328125</ele>
<time>2012-07-20T13:16:24Z</time>
<speed>0.010000</speed>
<extensions>
<speed>0.0</speed>
<temp>0.00</temp>
<bpm>0</bpm>
<rpm>0.00</rpm>
</extensions>
</trkpt>
<trkpt lat="64.325309753" lon="-20.129312515">
<ele>247.292969</ele>
<time>2012-07-20T13:16:29Z</time>
<speed>0.010000</speed>
<extensions>
<speed>0.0</speed>
<temp>0.00</temp>
<bpm>0</bpm>
<rpm>0.00</rpm>
</extensions>
</trkpt>
<trkpt lat="64.325309753" lon="-20.129314423">
<ele>247.269531</ele>
<time>2012-07-20T13:16:34Z</time>
<speed>0.010000</speed>
<extensions>
<speed>0.0</speed>
<temp>0.00</temp>
<bpm>0</bpm>
<rpm>0.00</rpm>
</extensions>
</trkpt>
<trkpt lat="64.325309753" lon="-20.129314423">
<ele>247.238281</ele>
<time>2012-07-20T13:16:39Z</time>
<extensions>
<speed>0.0</speed>
<temp>0.00</temp>
<bpm>0</bpm>
<rpm>0.00</rpm>
</extensions>
</trkpt>
<trkpt lat="64.325309753" lon="-20.129314423">
<ele>247.203125</ele>
<time>2012-07-20T13:16:44Z</time>
<extensions>
<speed>0.0</speed>
<temp>0.00</temp>
<bpm>0</bpm>
<rpm>0.00</rpm>
</extensions>
</trkpt>
<trkpt lat="64.325309753" lon="-20.129314423">
<ele>247.179688</ele>
<time>2012-07-20T13:16:49Z</time>
<speed>0.010000</speed>
<extensions>
<speed>0.0</speed>
<temp>0.00</temp>
<bpm>0</bpm>
<rpm>0.00</rpm>
</extensions>
</trkpt>
<trkpt lat="64.325309753" lon="-20.129314423">
<ele>247.160156</ele>
<time>2012-07-20T13:16:54Z</time>
<speed>0.020000</speed>
<extensions>
<speed>0.0</speed>
<temp>0.00</temp>
<bpm>0</bpm>
<rpm>0.00</rpm>
</extensions>
</trkpt>
<trkpt lat="64.325309753" lon="-20.129316330">
<ele>247.140625</ele>
<time>2012-07-20T13:16:59Z</time>
<speed>0.010000</speed>
<extensions>
<speed>0.0</speed>
<temp>0.00</temp>
<bpm>0</bpm>
<rpm>0.00</rpm>
</extensions>
</trkpt>
<trkpt lat="64.325309753" lon="-20.129316330">
<ele>247.128906</ele>
<time>2012-07-20T13:17:04Z</time>
<extensions>
<speed>0.0</speed>
<temp>0.00</temp>
<bpm>0</bpm>
<rpm>0.00</rpm>
</extensions>
</trkpt>
<trkpt lat="64.325309753" lon="-20.129316330">
<ele>247.105469</ele>
<time>2012-07-20T13:17:09Z</time>
<speed>0.010000</speed>
<extensions>
<speed>0.0</speed>
<temp>0.00</temp>
<bpm>0</bpm>
<rpm>0.00</rpm>
</extensions>
</trkpt>
<trkpt lat="64.325309753" lon="-20.129316330">
<ele>247.078125</ele>
<time>2012-07-20T13:17:14Z</time>
<speed>0.010000</speed>
<extensions>
<speed>0.0</speed>
<temp>0.00</temp>
<bpm>0</bpm>
<rpm>0.00</rpm>
</extensions>
</trkpt>
<trkpt lat="64.325309753" lon="-20.129316330">
<ele>247.066406</ele>
<time>2012-07-20T13:17:19Z</time>
<extensions>
<speed>0.0</speed>
<temp>0.00</temp>
<bpm>0</bpm>
<rpm>0.00</rpm>
</extensions>
</trkpt>
<trkpt lat="64.325309753" lon="-20.129318237">
<ele>247.035156</ele>
<time>2012-07-20T13:17:24Z</time>
<speed>0.020000</speed>
<extensions>
<speed>0.0</speed>
<temp>0.00</temp>
<bpm>0</bpm>
<rpm>0.00</rpm>
</extensions>
</trkpt>
<trkpt lat="64.325309753" lon="-20.129318237">
<ele>247.019531</ele>
<time>2012-07-20T13:17:29Z</time>
<extensions>
<speed>0.0</speed>
<temp>0.00</temp>
<bpm>0</bpm>
<rpm>0.00</rpm>
</extensions>
</trkpt>
<trkpt lat="64.325309753" lon="-20.129318237">
<ele>247.000000</ele>
<time>2012-07-20T13:17:34Z</time>
<speed>0.010000</speed>
<extensions>
<speed>0.0</speed>
<temp>0.00</temp>
<bpm>0</bpm>
<rpm>0.00</rpm>
</extensions>
</trkpt>
<trkpt lat="64.325309753" lon="-20.129318237">
<ele>246.984375</ele>
<time>2012-07-20T13:17:39Z</time>
<extensions>
<speed>0.0</speed>
<temp>0.00</temp>
<bpm>0</bpm>
<rpm>0.00</rpm>
</extensions>
</trkpt>
<trkpt lat="64.325309753" lon="-20.129320145">
<ele>246.976563</ele>
<time>2012-07-20T13:17:44Z</time>
<extensions>
<speed>0.0</speed>
<temp>0.00</temp>
<bpm>0</bpm>
<rpm>0.00</rpm>
</extensions>
</trkpt>
<trkpt lat="64.325309753" lon="-20.129320145">
<ele>246.957031</ele>
<time>2012-07-20T13:17:49Z</time>
<speed>0.020000</speed>
<extensions>
<speed>0.0</speed>
<temp>0.00</temp>
<bpm>0</bpm>
<rpm>0.00</rpm>
</extensions>
</trkpt>
<trkpt lat="64.325309753" lon="-20.129320145">
<ele>246.925781</ele>
<time>2012-07-20T13:17:54Z</time>
<extensions>
<speed>0.0</speed>
<temp>0.00</temp>
<bpm>0</bpm>
<rpm>0.00</rpm>
</extensions>
</trkpt>
<trkpt lat="64.325309753" lon="-20.129320145">
<ele>246.894531</ele>
<time>2012-07-20T13:17:59Z</time>
<extensions>
<speed>0.0</speed>
<temp>0.00</temp>
<bpm>0</bpm>
<rpm>0.00</rpm>
</extensions>
</trkpt>
<trkpt lat="64.325309753" lon="-20.129320145">
<ele>246.871094</ele>
<time>2012-07-20T13:18:04Z</time>
<speed>0.010000</speed>
<extensions>
<speed>0.0</speed>
<temp>0.00</temp>
<bpm>0</bpm>
<rpm>0.00</rpm>
</extensions>
</trkpt>
<trkpt lat="64.325309753" lon="-20.129322052">
<ele>246.843750</ele>
<time>2012-07-20T13:18:09Z</time>
<speed>0.010000</speed>
<extensions>
<speed>0.0</speed>
<temp>0.00</temp>
<bpm>0</bpm>
<rpm>0.00</rpm>
</extensions>
</trkpt>
<trkpt lat="64.325309753" lon="-20.129322052">
<ele>246.820313</ele>
<time>2012-07-20T13:18:14Z</time>
<speed>0.010000</speed>
<extensions>
<speed>0.0</speed>
<temp>0.00</temp>
<bpm>0</bpm>
<rpm>0.00</rpm>
</extensions>
</trkpt>
<trkpt lat="64.325309753" lon="-20.129322052">
<ele>246.785156</ele>
<time>2012-07-20T13:18:19Z</time>
<extensions>
<speed>0.0</speed>
<temp>0.00</temp>
<bpm>0</bpm>
<rpm>0.00</rpm>
</extensions>
</trkpt>
<trkpt lat="64.325309753" lon="-20.129322052">
<ele>246.734375</ele>
<time>2012-07-20T13:18:24Z</time>
<extensions>
<speed>0.0</speed>
<temp>0.00</temp>
<bpm>0</bpm>
<rpm>0.00</rpm>
</extensions>
</trkpt>
<trkpt lat="64.325309753" lon="-20.129322052">
<ele>246.667969</ele>
<time>2012-07-20T13:18:29Z</time>
<speed>0.010000</speed>
<extensions>
<speed>0.0</speed>
<temp>0.00</temp>
<bpm>0</bpm>
<rpm>0.00</rpm>
</extensions>
</trkpt>
<trkpt lat="64.325309753" lon="-20.129323959">
<ele>246.609375</ele>
<time>2012-07-20T13:18:34Z</time>
<speed>0.010000</speed>
<extensions>
<speed>0.0</speed>
<temp>0.00</temp>
<bpm>0</bpm>
<rpm>0.00</rpm>
</extensions>
</trkpt>
<trkpt lat="64.325309753" lon="-20.129323959">
<ele>246.562500</ele>
<time>2012-07-20T13:18:39Z</time>
<speed>0.010000</speed>
<extensions>
<speed>0.0</speed>
<temp>0.00</temp>
<bpm>0</bpm>
<rpm>0.00</rpm>
</extensions>
</trkpt>
<trkpt lat="64.325309753" lon="-20.129323959">
<ele>246.531250</ele>
<time>2012-07-20T13:18:44Z</time>
<extensions>
<speed>0.0</speed>
<temp>0.00</temp>
<bpm>0</bpm>
<rpm>0.00</rpm>
</extensions>
</trkpt>
<trkpt lat="64.325309753" lon="-20.129323959">
<ele>246.488281</ele>
<time>2012-07-20T13:18:49Z</time>
<speed>0.010000</speed>
<extensions>
<speed>0.0</speed>
<temp>0.00</temp>
<bpm>0</bpm>
<rpm>0.00</rpm>
</extensions>
</trkpt>
<trkpt lat="64.325309753" lon="-20.129323959">
<ele>246.453125</ele>
<time>2012-07-20T13:18:54Z</time>
<extensions>
<speed>0.0</speed>
<temp>0.00</temp>
<bpm>0</bpm>
<rpm>0.00</rpm>
</extensions>
</trkpt>
<trkpt lat="64.325309753" lon="-20.129323959">
<ele>246.410156</ele>
<time>2012-07-20T13:18:59Z</time>
<extensions>
<speed>0.0</speed>
<temp>0.00</temp>
<bpm>0</bpm>
<rpm>0.00</rpm>
</extensions>
</trkpt>
<trkpt lat="64.325309753" lon="-20.129325867">
<ele>246.359375</ele>
<time>2012-07-20T13:19:04Z</time>
<extensions>
<speed>0.0</speed>
<temp>0.00</temp>
<bpm>0</bpm>
<rpm>0.00</rpm>
</extensions>
</trkpt>
<trkpt lat="64.325309753" lon="-20.129325867">
<ele>246.300781</ele>
<time>2012-07-20T13:19:09Z</time>
<extensions>
<speed>0.0</speed>
<temp>0.00</temp>
<bpm>0</bpm>
<rpm>0.00</rpm>
</extensions>
</trkpt>
<trkpt lat="64.325309753" lon="-20.129325867">
<ele>246.257813</ele>
<time>2012-07-20T13:19:14Z</time>
<extensions>
<speed>0.0</speed>
<temp>0.00</temp>
<bpm>0</bpm>
<rpm>0.00</rpm>
</extensions>
</trkpt>
<trkpt lat="64.325309753" lon="-20.129325867">
<ele>246.214844</ele>
<time>2012-07-20T13:19:19Z</time>
<speed>0.010000</speed>
<extensions>
<speed>0.0</speed>
<temp>0.00</temp>
<bpm>0</bpm>
<rpm>0.00</rpm>
</extensions>
</trkpt>
<trkpt lat="64.325309753" lon="-20.129325867">
<ele>246.171875</ele>
<time>2012-07-20T13:19:24Z</time>
<speed>0.020000</speed>
<extensions>
<speed>0.0</speed>
<temp>0.00</temp>
<bpm>0</bpm>
<rpm>0.00</rpm>
</extensions>
</trkpt>
<trkpt lat="64.325309753" lon="-20.129325867">
<ele>246.136719</ele>
<time>2012-07-20T13:19:29Z</time>
<speed>0.010000</speed>
<extensions>
<speed>0.0</speed>
<temp>0.00</temp>
<bpm>0</bpm>
<rpm>0.00</rpm>
</extensions>
</trkpt>
<trkpt lat="64.325309753" lon="-20.129325867">
<ele>246.093750</ele>
<time>2012-07-20T13:19:34Z</time>
<speed>0.010000</speed>
<extensions>
<speed>0.0</speed>
<temp>0.00</temp>
<bpm>0</bpm>
<rpm>0.00</rpm>
</extensions>
</trkpt>
<trkpt lat="64.325309753" lon="-20.129325867">
<ele>246.046875</ele>
<time>2012-07-20T13:19:39Z</time>
<extensions>
<speed>0.0</speed>
<temp>0.00</temp>
<bpm>0</bpm>
<rpm>0.00</rpm>
</extensions>
</trkpt>
<trkpt lat="64.325309753" lon="-20.129325867">
<ele>246.011719</ele>
<time>2012-07-20T13:19:44Z</time>
<extensions>
<speed>0.0</speed>
<temp>0.00</temp>
<bpm>0</bpm>
<rpm>0.00</rpm>
</extensions>
</trkpt>
<trkpt lat="64.325309753" lon="-20.129325867">
<ele>245.976563</ele>
<time>2012-07-20T13:19:49Z</time>
<extensions>
<speed>0.0</speed>
<temp>0.00</temp>
<bpm>0</bpm>
<rpm>0.00</rpm>
</extensions>
</trkpt>
<trkpt lat="64.325309753" lon="-20.129325867">
<ele>245.953125</ele>
<time>2012-07-20T13:19:54Z</time>
<extensions>
<speed>0.0</speed>
<temp>0.00</temp>
<bpm>0</bpm>
<rpm>0.00</rpm>
</extensions>
</trkpt>
<trkpt lat="64.325309753" lon="-20.129325867">
<ele>245.933594</ele>
<time>2012-07-20T13:19:59Z</time>
<extensions>
<speed>0.0</speed>
<temp>0.00</temp>
<bpm>0</bpm>
<rpm>0.00</rpm>
</extensions>
</trkpt>
<trkpt lat="64.325317383" lon="-20.129323959">
<ele>245.910156</ele>
<time>2012-07-20T13:20:04Z</time>
<speed>0.010000</speed>
<extensions>
<speed>0.0</speed>
<temp>0.00</temp>
<bpm>0</bpm>
<rpm>0.00</rpm>
</extensions>
</trkpt>
<trkpt lat="64.325317383" lon="-20.129323959">
<ele>245.878906</ele>
<time>2012-07-20T13:20:09Z</time>
<speed>0.010000</speed>
<extensions>
<speed>0.0</speed>
<temp>0.00</temp>
<bpm>0</bpm>
<rpm>0.00</rpm>
</extensions>
</trkpt>
<trkpt lat="64.325317383" lon="-20.129323959">
<ele>245.855469</ele>
<time>2012-07-20T13:20:14Z</time>
<speed>0.010000</speed>
<extensions>
<speed>0.0</speed>
<temp>0.00</temp>
<bpm>0</bpm>
<rpm>0.00</rpm>
</extensions>
</trkpt>
<trkpt lat="64.325317383" lon="-20.129323959">
<ele>245.828125</ele>
<time>2012-07-20T13:20:19Z</time>
<extensions>
<speed>0.0</speed>
<temp>0.00</temp>
<bpm>0</bpm>
<rpm>0.00</rpm>
</extensions>
</trkpt>
<trkpt lat="64.325317383" lon="-20.129323959">
<ele>245.808594</ele>
<time>2012-07-20T13:20:24Z</time>
<speed>0.010000</speed>
<extensions>
<speed>0.0</speed>
<temp>0.00</temp>
<bpm>0</bpm>
<rpm>0.00</rpm>
</extensions>
</trkpt>
<trkpt lat="64.325317383" lon="-20.129323959">
<ele>245.785156</ele>
<time>2012-07-20T13:20:29Z</time>
<extensions>
<speed>0.0</speed>
<temp>0.00</temp>
<bpm>0</bpm>
<rpm>0.00</rpm>
</extensions>
</trkpt>
<trkpt lat="64.325317383" lon="-20.129325867">
<ele>245.769531</ele>
<time>2012-07-20T13:20:34Z</time>
<extensions>
<speed>0.0</speed>
<temp>0.00</temp>
<bpm>0</bpm>
<rpm>0.00</rpm>
</extensions>
</trkpt>
<trkpt lat="64.325317383" lon="-20.129325867">
<ele>245.769531</ele>
<time>2012-07-20T13:20:39Z</time>
<extensions>
<speed>0.0</speed>
<temp>0.00</temp>
<bpm>0</bpm>
<rpm>0.00</rpm>
</extensions>
</trkpt>
<trkpt lat="64.325317383" lon="-20.129325867">
<ele>245.769531</ele>
<time>2012-07-20T13:20:44Z</time>
<extensions>
<speed>0.0</speed>
<temp>0.00</temp>
<bpm>0</bpm>
<rpm>0.00</rpm>
</extensions>
</trkpt>
<trkpt lat="64.325317383" lon="-20.129325867">
<ele>245.769531</ele>
<time>2012-07-20T13:20:49Z</time>
<extensions>
<speed>0.0</speed>
<temp>0.00</temp>
<bpm>0</bpm>
<rpm>0.00</rpm>
</extensions>
</trkpt>
<trkpt lat="64.325317383" lon="-20.129325867">
<ele>245.761719</ele>
<time>2012-07-20T13:20:54Z</time>
<extensions>
<speed>0.0</speed>
<temp>0.00</temp>
<bpm>0</bpm>
<rpm>0.00</rpm>
</extensions>
</trkpt>
<trkpt lat="64.325317383" lon="-20.129325867">
<ele>245.753906</ele>
<time>2012-07-20T13:20:59Z</time>
<speed>0.010000</speed>
<extensions>
<speed>0.0</speed>
<temp>0.00</temp>
<bpm>0</bpm>
<rpm>0.00</rpm>
</extensions>
</trkpt>
<trkpt lat="64.325317383" lon="-20.129327774">
<ele>245.742188</ele>
<time>2012-07-20T13:21:04Z</time>
<speed>0.010000</speed>
<extensions>
<speed>0.0</speed>
<temp>0.00</temp>
<bpm>0</bpm>
<rpm>0.00</rpm>
</extensions>
</trkpt>
<trkpt lat="64.325317383" lon="-20.129327774">
<ele>245.734375</ele>
<time>2012-07-20T13:21:09Z</time>
<speed>0.010000</speed>
<extensions>
<speed>0.0</speed>
<temp>0.00</temp>
<bpm>0</bpm>
<rpm>0.00</rpm>
</extensions>
</trkpt>
<trkpt lat="64.325317383" lon="-20.129329681">
<ele>245.714844</ele>
<time>2012-07-20T13:21:14Z</time>
<speed>0.010000</speed>
<extensions>
<speed>0.0</speed>
<temp>0.00</temp>
<bpm>0</bpm>
<rpm>0.00</rpm>
</extensions>
</trkpt>
<trkpt lat="64.325317383" lon="-20.129329681">
<ele>245.710938</ele>
<time>2012-07-20T13:21:19Z</time>
<speed>0.020000</speed>
<extensions>
<speed>0.0</speed>
<temp>0.00</temp>
<bpm>0</bpm>
<rpm>0.00</rpm>
</extensions>
</trkpt>
<trkpt lat="64.325317383" lon="-20.129331589">
<ele>245.695313</ele>
<time>2012-07-20T13:21:24Z</time>
<speed>0.010000</speed>
<extensions>
<speed>0.0</speed>
<temp>0.00</temp>
<bpm>0</bpm>
<rpm>0.00</rpm>
</extensions>
</trkpt>
<trkpt lat="64.325317383" lon="-20.129331589">
<ele>245.667969</ele>
<time>2012-07-20T13:21:29Z</time>
<extensions>
<speed>0.0</speed>
<temp>0.00</temp>
<bpm>0</bpm>
<rpm>0.00</rpm>
</extensions>
</trkpt>
<trkpt lat="64.325317383" lon="-20.129333496">
<ele>245.640625</ele>
<time>2012-07-20T13:21:34Z</time>
<extensions>
<speed>0.0</speed>
<temp>0.00</temp>
<bpm>0</bpm>
<rpm>0.00</rpm>
</extensions>
</trkpt>
<trkpt lat="64.325317383" lon="-20.129333496">
<ele>245.621094</ele>
<time>2012-07-20T13:21:39Z</time>
<speed>0.010000</speed>
<extensions>
<speed>0.0</speed>
<temp>0.00</temp>
<bpm>0</bpm>
<rpm>0.00</rpm>
</extensions>
</trkpt>
<trkpt lat="64.325317383" lon="-20.129333496">
<ele>245.589844</ele>
<time>2012-07-20T13:21:44Z</time>
<extensions>
<speed>0.0</speed>
<temp>0.00</temp>
<bpm>0</bpm>
<rpm>0.00</rpm>
</extensions>
</trkpt>
<trkpt lat="64.325317383" lon="-20.129333496">
<ele>245.578125</ele>
<time>2012-07-20T13:21:49Z</time>
<extensions>
<speed>0.0</speed>
<temp>0.00</temp>
<bpm>0</bpm>
<rpm>0.00</rpm>
</extensions>
</trkpt>
<trkpt lat="64.325317383" lon="-20.129333496">
<ele>245.542969</ele>
<time>2012-07-20T13:21:54Z</time>
<extensions>
<speed>0.0</speed>
<temp>0.00</temp>
<bpm>0</bpm>
<rpm>0.00</rpm>
</extensions>
</trkpt>
<trkpt lat="64.325317383" lon="-20.129331589">
<ele>245.503906</ele>
<time>2012-07-20T13:21:59Z</time>
<extensions>
<speed>0.0</speed>
<temp>0.00</temp>
<bpm>0</bpm>
<rpm>0.00</rpm>
</extensions>
</trkpt>
<trkpt lat="64.325317383" lon="-20.129331589">
<ele>245.480469</ele>
<time>2012-07-20T13:22:04Z</time>
<extensions>
<speed>0.0</speed>
<temp>0.00</temp>
<bpm>0</bpm>
<rpm>0.00</rpm>
</extensions>
</trkpt>
<trkpt lat="64.325317383" lon="-20.129331589">
<ele>245.460938</ele>
<time>2012-07-20T13:22:09Z</time>
<extensions>
<speed>0.0</speed>
<temp>0.00</temp>
<bpm>0</bpm>
<rpm>0.00</rpm>
</extensions>
</trkpt>
<trkpt lat="64.325317383" lon="-20.129331589">
<ele>245.429688</ele>
<time>2012-07-20T13:22:14Z</time>
<extensions>
<speed>0.0</speed>
<temp>0.00</temp>
<bpm>0</bpm>
<rpm>0.00</rpm>
</extensions>
</trkpt>
<trkpt lat="64.325317383" lon="-20.129331589">
<ele>245.425781</ele>
<time>2012-07-20T13:22:19Z</time>
<speed>0.010000</speed>
<extensions>
<speed>0.0</speed>
<temp>0.00</temp>
<bpm>0</bpm>
<rpm>0.00</rpm>
</extensions>
</trkpt>
<trkpt lat="64.325317383" lon="-20.129331589">
<ele>245.406250</ele>
<time>2012-07-20T13:22:24Z</time>
<speed>0.010000</speed>
<extensions>
<speed>0.0</speed>
<temp>0.00</temp>
<bpm>0</bpm>
<rpm>0.00</rpm>
</extensions>
</trkpt>
<trkpt lat="64.325317383" lon="-20.129331589">
<ele>245.378906</ele>
<time>2012-07-20T13:22:29Z</time>
<speed>0.010000</speed>
<extensions>
<speed>0.0</speed>
<temp>0.00</temp>
<bpm>0</bpm>
<rpm>0.00</rpm>
</extensions>
</trkpt>
<trkpt lat="64.325317383" lon="-20.129331589">
<ele>245.363281</ele>
<time>2012-07-20T13:22:34Z</time>
<speed>0.010000</speed>
<extensions>
<speed>0.0</speed>
<temp>0.00</temp>
<bpm>0</bpm>
<rpm>0.00</rpm>
</extensions>
</trkpt>
<trkpt lat="64.325317383" lon="-20.129331589">
<ele>245.363281</ele>
<time>2012-07-20T13:22:39Z</time>
<speed>0.010000</speed>
<extensions>
<speed>0.0</speed>
<temp>0.00</temp>
<bpm>0</bpm>
<rpm>0.00</rpm>
</extensions>
</trkpt>
<trkpt lat="64.325317383" lon="-20.129331589">
<ele>245.351563</ele>
<time>2012-07-20T13:22:44Z</time>
<extensions>
<speed>0.0</speed>
<temp>0.00</temp>
<bpm>0</bpm>
<rpm>0.00</rpm>
</extensions>
</trkpt>
<trkpt lat="64.325317383" lon="-20.129331589">
<ele>245.351563</ele>
<time>2012-07-20T13:22:49Z</time>
<speed>0.010000</speed>
<extensions>
<speed>0.0</speed>
<temp>0.00</temp>
<bpm>0</bpm>
<rpm>0.00</rpm>
</extensions>
</trkpt>
<trkpt lat="64.325317383" lon="-20.129331589">
<ele>245.347656</ele>
<time>2012-07-20T13:22:54Z</time>
<extensions>
<speed>0.0</speed>
<temp>0.00</temp>
<bpm>0</bpm>
<rpm>0.00</rpm>
</extensions>
</trkpt>
<trkpt lat="64.325317383" lon="-20.129331589">
<ele>245.324219</ele>
<time>2012-07-20T13:22:59Z</time>
<speed>0.010000</speed>
<extensions>
<speed>0.0</speed>
<temp>0.00</temp>
<bpm>0</bpm>
<rpm>0.00</rpm>
</extensions>
</trkpt>
<trkpt lat="64.325317383" lon="-20.129331589">
<ele>245.300781</ele>
<time>2012-07-20T13:23:04Z</time>
<extensions>
<speed>0.0</speed>
<temp>0.00</temp>
<bpm>0</bpm>
<rpm>0.00</rpm>
</extensions>
</trkpt>
<trkpt lat="64.325317383" lon="-20.129331589">
<ele>245.285156</ele>
<time>2012-07-20T13:23:09Z</time>
<extensions>
<speed>0.0</speed>
<temp>0.00</temp>
<bpm>0</bpm>
<rpm>0.00</rpm>
</extensions>
</trkpt>
<trkpt lat="64.325317383" lon="-20.129331589">
<ele>245.265625</ele>
<time>2012-07-20T13:23:14Z</time>
<extensions>
<speed>0.0</speed>
<temp>0.00</temp>
<bpm>0</bpm>
<rpm>0.00</rpm>
</extensions>
</trkpt>
<trkpt lat="64.325317383" lon="-20.129331589">
<ele>245.257813</ele>
<time>2012-07-20T13:23:19Z</time>
<extensions>
<speed>0.0</speed>
<temp>0.00</temp>
<bpm>0</bpm>
<rpm>0.00</rpm>
</extensions>
</trkpt>
<trkpt lat="64.325317383" lon="-20.129331589">
<ele>245.230469</ele>
<time>2012-07-20T13:23:24Z</time>
<extensions>
<speed>0.0</speed>
<temp>0.00</temp>
<bpm>0</bpm>
<rpm>0.00</rpm>
</extensions>
</trkpt>
<trkpt lat="64.325317383" lon="-20.129331589">
<ele>245.214844</ele>
<time>2012-07-20T13:23:29Z</time>
<speed>0.010000</speed>
<extensions>
<speed>0.0</speed>
<temp>0.00</temp>
<bpm>0</bpm>
<rpm>0.00</rpm>
</extensions>
</trkpt>
<trkpt lat="64.325317383" lon="-20.129331589">
<ele>245.191406</ele>
<time>2012-07-20T13:23:34Z</time>
<extensions>
<speed>0.0</speed>
<temp>0.00</temp>
<bpm>0</bpm>
<rpm>0.00</rpm>
</extensions>
</trkpt>
<trkpt lat="64.325317383" lon="-20.129329681">
<ele>245.152344</ele>
<time>2012-07-20T13:23:39Z</time>
<speed>0.010000</speed>
<extensions>
<speed>0.0</speed>
<temp>0.00</temp>
<bpm>0</bpm>
<rpm>0.00</rpm>
</extensions>
</trkpt>
<trkpt lat="64.325317383" lon="-20.129329681">
<ele>245.121094</ele>
<time>2012-07-20T13:23:44Z</time>
<extensions>
<speed>0.0</speed>
<temp>0.00</temp>
<bpm>0</bpm>
<rpm>0.00</rpm>
</extensions>
</trkpt>
<trkpt lat="64.325317383" lon="-20.129329681">
<ele>245.101563</ele>
<time>2012-07-20T13:23:49Z</time>
<extensions>
<speed>0.0</speed>
<temp>0.00</temp>
<bpm>0</bpm>
<rpm>0.00</rpm>
</extensions>
</trkpt>
<trkpt lat="64.325317383" lon="-20.129329681">
<ele>245.066406</ele>
<time>2012-07-20T13:23:54Z</time>
<speed>0.010000</speed>
<extensions>
<speed>0.0</speed>
<temp>0.00</temp>
<bpm>0</bpm>
<rpm>0.00</rpm>
</extensions>
</trkpt>
<trkpt lat="64.325317383" lon="-20.129329681">
<ele>245.046875</ele>
<time>2012-07-20T13:23:59Z</time>
<speed>0.020000</speed>
<extensions>
<speed>0.0</speed>
<temp>0.00</temp>
<bpm>0</bpm>
<rpm>0.00</rpm>
</extensions>
</trkpt>
<trkpt lat="64.325317383" lon="-20.129329681">
<ele>245.035156</ele>
<time>2012-07-20T13:24:04Z</time>
<extensions>
<speed>0.0</speed>
<temp>0.00</temp>
<bpm>0</bpm>
<rpm>0.00</rpm>
</extensions>
</trkpt>
<trkpt lat="64.325317383" lon="-20.129329681">
<ele>245.019531</ele>
<time>2012-07-20T13:24:09Z</time>
<extensions>
<speed>0.0</speed>
<temp>0.00</temp>
<bpm>0</bpm>
<rpm>0.00</rpm>
</extensions>
</trkpt>
<trkpt lat="64.325317383" lon="-20.129329681">
<ele>244.988281</ele>
<time>2012-07-20T13:24:14Z</time>
<extensions>
<speed>0.0</speed>
<temp>0.00</temp>
<bpm>0</bpm>
<rpm>0.00</rpm>
</extensions>
</trkpt>
<trkpt lat="64.325317383" lon="-20.129329681">
<ele>244.957031</ele>
<time>2012-07-20T13:24:19Z</time>
<extensions>
<speed>0.0</speed>
<temp>0.00</temp>
<bpm>0</bpm>
<rpm>0.00</rpm>
</extensions>
</trkpt>
<trkpt lat="64.325317383" lon="-20.129329681">
<ele>244.933594</ele>
<time>2012-07-20T13:24:24Z</time>
<extensions>
<speed>0.0</speed>
<temp>0.00</temp>
<bpm>0</bpm>
<rpm>0.00</rpm>
</extensions>
</trkpt>
<trkpt lat="64.325317383" lon="-20.129329681">
<ele>244.906250</ele>
<time>2012-07-20T13:24:29Z</time>
<extensions>
<speed>0.0</speed>
<temp>0.00</temp>
<bpm>0</bpm>
<rpm>0.00</rpm>
</extensions>
</trkpt>
<trkpt lat="64.325317383" lon="-20.129329681">
<ele>244.878906</ele>
<time>2012-07-20T13:24:34Z</time>
<extensions>
<speed>0.0</speed>
<temp>0.00</temp>
<bpm>0</bpm>
<rpm>0.00</rpm>
</extensions>
</trkpt>
<trkpt lat="64.325317383" lon="-20.129329681">
<ele>244.832031</ele>
<time>2012-07-20T13:24:39Z</time>
<extensions>
<speed>0.0</speed>
<temp>0.00</temp>
<bpm>0</bpm>
<rpm>0.00</rpm>
</extensions>
</trkpt>
<trkpt lat="64.325317383" lon="-20.129329681">
<ele>244.789063</ele>
<time>2012-07-20T13:24:44Z</time>
<speed>0.010000</speed>
<extensions>
<speed>0.0</speed>
<temp>0.00</temp>
<bpm>0</bpm>
<rpm>0.00</rpm>
</extensions>
</trkpt>
<trkpt lat="64.325317383" lon="-20.129329681">
<ele>244.757813</ele>
<time>2012-07-20T13:24:49Z</time>
<extensions>
<speed>0.0</speed>
<temp>0.00</temp>
<bpm>0</bpm>
<rpm>0.00</rpm>
</extensions>
</trkpt>
<trkpt lat="64.325317383" lon="-20.129329681">
<ele>244.726563</ele>
<time>2012-07-20T13:24:54Z</time>
<speed>0.010000</speed>
<extensions>
<speed>0.0</speed>
<temp>0.00</temp>
<bpm>0</bpm>
<rpm>0.00</rpm>
</extensions>
</trkpt>
<trkpt lat="64.325317383" lon="-20.129329681">
<ele>244.687500</ele>
<time>2012-07-20T13:24:59Z</time>
<extensions>
<speed>0.0</speed>
<temp>0.00</temp>
<bpm>0</bpm>
<rpm>0.00</rpm>
</extensions>
</trkpt>
<trkpt lat="64.325317383" lon="-20.129329681">
<ele>244.652344</ele>
<time>2012-07-20T13:25:04Z</time>
<extensions>
<speed>0.0</speed>
<temp>0.00</temp>
<bpm>0</bpm>
<rpm>0.00</rpm>
</extensions>
</trkpt>
<trkpt lat="64.325317383" lon="-20.129329681">
<ele>244.621094</ele>
<time>2012-07-20T13:25:09Z</time>
<speed>0.010000</speed>
<extensions>
<speed>0.0</speed>
<temp>0.00</temp>
<bpm>0</bpm>
<rpm>0.00</rpm>
</extensions>
</trkpt>
<trkpt lat="64.325317383" lon="-20.129329681">
<ele>244.578125</ele>
<time>2012-07-20T13:25:14Z</time>
<extensions>
<speed>0.0</speed>
<temp>0.00</temp>
<bpm>0</bpm>
<rpm>0.00</rpm>
</extensions>
</trkpt>
<trkpt lat="64.325317383" lon="-20.129329681">
<ele>244.542969</ele>
<time>2012-07-20T13:25:19Z</time>
<extensions>
<speed>0.0</speed>
<temp>0.00</temp>
<bpm>0</bpm>
<rpm>0.00</rpm>
</extensions>
</trkpt>
<trkpt lat="64.325317383" lon="-20.129329681">
<ele>244.507813</ele>
<time>2012-07-20T13:25:24Z</time>
<extensions>
<speed>0.0</speed>
<temp>0.00</temp>
<bpm>0</bpm>
<rpm>0.00</rpm>
</extensions>
</trkpt>
<trkpt lat="64.325317383" lon="-20.129329681">
<ele>244.472656</ele>
<time>2012-07-20T13:25:29Z</time>
<extensions>
<speed>0.0</speed>
<temp>0.00</temp>
<bpm>0</bpm>
<rpm>0.00</rpm>
</extensions>
</trkpt>
<trkpt lat="64.325317383" lon="-20.129329681">
<ele>244.437500</ele>
<time>2012-07-20T13:25:34Z</time>
<speed>0.010000</speed>
<extensions>
<speed>0.0</speed>
<temp>0.00</temp>
<bpm>0</bpm>
<rpm>0.00</rpm>
</extensions>
</trkpt>
<trkpt lat="64.325317383" lon="-20.129329681">
<ele>244.406250</ele>
<time>2012-07-20T13:25:39Z</time>
<speed>0.010000</speed>
<extensions>
<speed>0.0</speed>
<temp>0.00</temp>
<bpm>0</bpm>
<rpm>0.00</rpm>
</extensions>
</trkpt>
<trkpt lat="64.325317383" lon="-20.129331589">
<ele>244.375000</ele>
<time>2012-07-20T13:25:44Z</time>
<speed>0.010000</speed>
<extensions>
<speed>0.0</speed>
<temp>0.00</temp>
<bpm>0</bpm>
<rpm>0.00</rpm>
</extensions>
</trkpt>
<trkpt lat="64.325317383" lon="-20.129331589">
<ele>244.343750</ele>
<time>2012-07-20T13:25:49Z</time>
<extensions>
<speed>0.0</speed>
<temp>0.00</temp>
<bpm>0</bpm>
<rpm>0.00</rpm>
</extensions>
</trkpt>
<trkpt lat="64.325317383" lon="-20.129331589">
<ele>244.312500</ele>
<time>2012-07-20T13:25:54Z</time>
<extensions>
<speed>0.0</speed>
<temp>0.00</temp>
<bpm>0</bpm>
<rpm>0.00</rpm>
</extensions>
</trkpt>
<trkpt lat="64.325317383" lon="-20.129331589">
<ele>244.281250</ele>
<time>2012-07-20T13:25:59Z</time>
<extensions>
<speed>0.0</speed>
<temp>0.00</temp>
<bpm>0</bpm>
<rpm>0.00</rpm>
</extensions>
</trkpt>
<trkpt lat="64.325317383" lon="-20.129331589">
<ele>244.250000</ele>
<time>2012-07-20T13:26:04Z</time>
<extensions>
<speed>0.0</speed>
<temp>0.00</temp>
<bpm>0</bpm>
<rpm>0.00</rpm>
</extensions>
</trkpt>
<trkpt lat="64.325317383" lon="-20.129331589">
<ele>244.234375</ele>
<time>2012-07-20T13:26:09Z</time>
<speed>0.010000</speed>
<extensions>
<speed>0.0</speed>
<temp>0.00</temp>
<bpm>0</bpm>
<rpm>0.00</rpm>
</extensions>
</trkpt>
<trkpt lat="64.325317383" lon="-20.129331589">
<ele>244.222656</ele>
<time>2012-07-20T13:26:14Z</time>
<extensions>
<speed>0.0</speed>
<temp>0.00</temp>
<bpm>0</bpm>
<rpm>0.00</rpm>
</extensions>
</trkpt>
<trkpt lat="64.325317383" lon="-20.129331589">
<ele>244.226563</ele>
<time>2012-07-20T13:26:19Z</time>
<extensions>
<speed>0.0</speed>
<temp>0.00</temp>
<bpm>0</bpm>
<rpm>0.00</rpm>
</extensions>
</trkpt>
<trkpt lat="64.325317383" lon="-20.129331589">
<ele>244.222656</ele>
<time>2012-07-20T13:26:24Z</time>
<extensions>
<speed>0.0</speed>
<temp>0.00</temp>
<bpm>0</bpm>
<rpm>0.00</rpm>
</extensions>
</trkpt>
<trkpt lat="64.325317383" lon="-20.129331589">
<ele>244.207031</ele>
<time>2012-07-20T13:26:29Z</time>
<extensions>
<speed>0.0</speed>
<temp>0.00</temp>
<bpm>0</bpm>
<rpm>0.00</rpm>
</extensions>
</trkpt>
<trkpt lat="64.325317383" lon="-20.129331589">
<ele>244.207031</ele>
<time>2012-07-20T13:26:34Z</time>
<speed>0.010000</speed>
<extensions>
<speed>0.0</speed>
<temp>0.00</temp>
<bpm>0</bpm>
<rpm>0.00</rpm>
</extensions>
</trkpt>
<trkpt lat="64.325317383" lon="-20.129331589">
<ele>244.199219</ele>
<time>2012-07-20T13:26:39Z</time>
<speed>0.020000</speed>
<extensions>
<speed>0.0</speed>
<temp>0.00</temp>
<bpm>0</bpm>
<rpm>0.00</rpm>
</extensions>
</trkpt>
<trkpt lat="64.325317383" lon="-20.129331589">
<ele>244.179688</ele>
<time>2012-07-20T13:26:44Z</time>
<extensions>
<speed>0.0</speed>
<temp>0.00</temp>
<bpm>0</bpm>
<rpm>0.00</rpm>
</extensions>
</trkpt>
<trkpt lat="64.325317383" lon="-20.129331589">
<ele>244.140625</ele>
<time>2012-07-20T13:26:49Z</time>
<extensions>
<speed>0.0</speed>
<temp>0.00</temp>
<bpm>0</bpm>
<rpm>0.00</rpm>
</extensions>
</trkpt>
<trkpt lat="64.325317383" lon="-20.129331589">
<ele>244.128906</ele>
<time>2012-07-20T13:26:54Z</time>
<extensions>
<speed>0.0</speed>
<temp>0.00</temp>
<bpm>0</bpm>
<rpm>0.00</rpm>
</extensions>
</trkpt>
<trkpt lat="64.325317383" lon="-20.129331589">
<ele>244.132813</ele>
<time>2012-07-20T13:26:59Z</time>
<extensions>
<speed>0.0</speed>
<temp>0.00</temp>
<bpm>0</bpm>
<rpm>0.00</rpm>
</extensions>
</trkpt>
<trkpt lat="64.325317383" lon="-20.129333496">
<ele>244.140625</ele>
<time>2012-07-20T13:27:04Z</time>
<extensions>
<speed>0.0</speed>
<temp>0.00</temp>
<bpm>0</bpm>
<rpm>0.00</rpm>
</extensions>
</trkpt>
<trkpt lat="64.325317383" lon="-20.129333496">
<ele>244.128906</ele>
<time>2012-07-20T13:27:09Z</time>
<extensions>
<speed>0.0</speed>
<temp>0.00</temp>
<bpm>0</bpm>
<rpm>0.00</rpm>
</extensions>
</trkpt>
<trkpt lat="64.325317383" lon="-20.129333496">
<ele>244.113281</ele>
<time>2012-07-20T13:27:14Z</time>
<extensions>
<speed>0.0</speed>
<temp>0.00</temp>
<bpm>0</bpm>
<rpm>0.00</rpm>
</extensions>
</trkpt>
<trkpt lat="64.325317383" lon="-20.129333496">
<ele>244.085938</ele>
<time>2012-07-20T13:27:19Z</time>
<extensions>
<speed>0.0</speed>
<temp>0.00</temp>
<bpm>0</bpm>
<rpm>0.00</rpm>
</extensions>
</trkpt>
<trkpt lat="64.325317383" lon="-20.129333496">
<ele>244.050781</ele>
<time>2012-07-20T13:27:24Z</time>
<extensions>
<speed>0.0</speed>
<temp>0.00</temp>
<bpm>0</bpm>
<rpm>0.00</rpm>
</extensions>
</trkpt>
<trkpt lat="64.325317383" lon="-20.129333496">
<ele>244.003906</ele>
<time>2012-07-20T13:27:29Z</time>
<extensions>
<speed>0.0</speed>
<temp>0.00</temp>
<bpm>0</bpm>
<rpm>0.00</rpm>
</extensions>
</trkpt>
<trkpt lat="64.325317383" lon="-20.129333496">
<ele>243.976563</ele>
<time>2012-07-20T13:27:34Z</time>
<extensions>
<speed>0.0</speed>
<temp>0.00</temp>
<bpm>0</bpm>
<rpm>0.00</rpm>
</extensions>
</trkpt>
<trkpt lat="64.325325012" lon="-20.129333496">
<ele>243.914063</ele>
<time>2012-07-20T13:27:39Z</time>
<extensions>
<speed>0.0</speed>
<temp>0.00</temp>
<bpm>0</bpm>
<rpm>0.00</rpm>
</extensions>
</trkpt>
<trkpt lat="64.325325012" lon="-20.129333496">
<ele>243.863281</ele>
<time>2012-07-20T13:27:44Z</time>
<extensions>
<speed>0.0</speed>
<temp>0.00</temp>
<bpm>0</bpm>
<rpm>0.00</rpm>
</extensions>
</trkpt>
<trkpt lat="64.325325012" lon="-20.129335403">
<ele>243.800781</ele>
<time>2012-07-20T13:27:49Z</time>
<extensions>
<speed>0.0</speed>
<temp>0.00</temp>
<bpm>0</bpm>
<rpm>0.00</rpm>
</extensions>
</trkpt>
<trkpt lat="64.325325012" lon="-20.129335403">
<ele>243.769531</ele>
<time>2012-07-20T13:27:54Z</time>
<speed>0.010000</speed>
<extensions>
<speed>0.0</speed>
<temp>0.00</temp>
<bpm>0</bpm>
<rpm>0.00</rpm>
</extensions>
</trkpt>
<trkpt lat="64.325325012" lon="-20.129335403">
<ele>243.726563</ele>
<time>2012-07-20T13:27:59Z</time>
<extensions>
<speed>0.0</speed>
<temp>0.00</temp>
<bpm>0</bpm>
<rpm>0.00</rpm>
</extensions>
</trkpt>
<trkpt lat="64.325325012" lon="-20.129335403">
<ele>243.667969</ele>
<time>2012-07-20T13:28:04Z</time>
<extensions>
<speed>0.0</speed>
<temp>0.00</temp>
<bpm>0</bpm>
<rpm>0.00</rpm>
</extensions>
</trkpt>
<trkpt lat="64.325325012" lon="-20.129335403">
<ele>243.628906</ele>
<time>2012-07-20T13:28:09Z</time>
<speed>0.010000</speed>
<extensions>
<speed>0.0</speed>
<temp>0.00</temp>
<bpm>0</bpm>
<rpm>0.00</rpm>
</extensions>
</trkpt>
<trkpt lat="64.325325012" lon="-20.129335403">
<ele>243.597656</ele>
<time>2012-07-20T13:28:14Z</time>
<extensions>
<speed>0.0</speed>
<temp>0.00</temp>
<bpm>0</bpm>
<rpm>0.00</rpm>
</extensions>
</trkpt>
<trkpt lat="64.325325012" lon="-20.129335403">
<ele>243.558594</ele>
<time>2012-07-20T13:28:19Z</time>
<extensions>
<speed>0.0</speed>
<temp>0.00</temp>
<bpm>0</bpm>
<rpm>0.00</rpm>
</extensions>
</trkpt>
<trkpt lat="64.325325012" lon="-20.129335403">
<ele>243.523438</ele>
<time>2012-07-20T13:28:24Z</time>
<speed>0.010000</speed>
<extensions>
<speed>0.0</speed>
<temp>0.00</temp>
<bpm>0</bpm>
<rpm>0.00</rpm>
</extensions>
</trkpt>
<trkpt lat="64.325325012" lon="-20.129335403">
<ele>243.503906</ele>
<time>2012-07-20T13:28:29Z</time>
<extensions>
<speed>0.0</speed>
<temp>0.00</temp>
<bpm>0</bpm>
<rpm>0.00</rpm>
</extensions>
</trkpt>
<trkpt lat="64.325325012" lon="-20.129335403">
<ele>243.488281</ele>
<time>2012-07-20T13:28:34Z</time>
<speed>0.010000</speed>
<extensions>
<speed>0.0</speed>
<temp>0.00</temp>
<bpm>0</bpm>
<rpm>0.00</rpm>
</extensions>
</trkpt>
<trkpt lat="64.325325012" lon="-20.129335403">
<ele>243.453125</ele>
<time>2012-07-20T13:28:39Z</time>
<extensions>
<speed>0.0</speed>
<temp>0.00</temp>
<bpm>0</bpm>
<rpm>0.00</rpm>
</extensions>
</trkpt>
<trkpt lat="64.325325012" lon="-20.129335403">
<ele>243.410156</ele>
<time>2012-07-20T13:28:44Z</time>
<extensions>
<speed>0.0</speed>
<temp>0.00</temp>
<bpm>0</bpm>
<rpm>0.00</rpm>
</extensions>
</trkpt>
<trkpt lat="64.325325012" lon="-20.129335403">
<ele>243.371094</ele>
<time>2012-07-20T13:28:49Z</time>
<speed>0.010000</speed>
<extensions>
<speed>0.0</speed>
<temp>0.00</temp>
<bpm>0</bpm>
<rpm>0.00</rpm>
</extensions>
</trkpt>
<trkpt lat="64.325325012" lon="-20.129335403">
<ele>243.328125</ele>
<time>2012-07-20T13:28:54Z</time>
<extensions>
<speed>0.0</speed>
<temp>0.00</temp>
<bpm>0</bpm>
<rpm>0.00</rpm>
</extensions>
</trkpt>
<trkpt lat="64.325325012" lon="-20.129335403">
<ele>243.296875</ele>
<time>2012-07-20T13:28:59Z</time>
<speed>0.020000</speed>
<extensions>
<speed>0.0</speed>
<temp>0.00</temp>
<bpm>0</bpm>
<rpm>0.00</rpm>
</extensions>
</trkpt>
<trkpt lat="64.325325012" lon="-20.129335403">
<ele>243.265625</ele>
<time>2012-07-20T13:29:04Z</time>
<speed>0.020000</speed>
<extensions>
<speed>0.0</speed>
<temp>0.00</temp>
<bpm>0</bpm>
<rpm>0.00</rpm>
</extensions>
</trkpt>
<trkpt lat="64.325325012" lon="-20.129335403">
<ele>243.246094</ele>
<time>2012-07-20T13:29:09Z</time>
<extensions>
<speed>0.0</speed>
<temp>0.00</temp>
<bpm>0</bpm>
<rpm>0.00</rpm>
</extensions>
</trkpt>
<trkpt lat="64.325325012" lon="-20.129337311">
<ele>243.195313</ele>
<time>2012-07-20T13:29:14Z</time>
<extensions>
<speed>0.0</speed>
<temp>0.00</temp>
<bpm>0</bpm>
<rpm>0.00</rpm>
</extensions>
</trkpt>
<trkpt lat="64.325325012" lon="-20.129337311">
<ele>243.128906</ele>
<time>2012-07-20T13:29:19Z</time>
<extensions>
<speed>0.0</speed>
<temp>0.00</temp>
<bpm>0</bpm>
<rpm>0.00</rpm>
</extensions>
</trkpt>
<trkpt lat="64.325325012" lon="-20.129337311">
<ele>243.082031</ele>
<time>2012-07-20T13:29:24Z</time>
<extensions>
<speed>0.0</speed>
<temp>0.00</temp>
<bpm>0</bpm>
<rpm>0.00</rpm>
</extensions>
</trkpt>
<trkpt lat="64.325325012" lon="-20.129335403">
<ele>243.023438</ele>
<time>2012-07-20T13:29:29Z</time>
<speed>0.010000</speed>
<extensions>
<speed>0.0</speed>
<temp>0.00</temp>
<bpm>0</bpm>
<rpm>0.00</rpm>
</extensions>
</trkpt>
<trkpt lat="64.325325012" lon="-20.129335403">
<ele>242.964844</ele>
<time>2012-07-20T13:29:34Z</time>
<extensions>
<speed>0.0</speed>
<temp>0.00</temp>
<bpm>0</bpm>
<rpm>0.00</rpm>
</extensions>
</trkpt>
<trkpt lat="64.325325012" lon="-20.129335403">
<ele>242.921875</ele>
<time>2012-07-20T13:29:39Z</time>
<speed>0.010000</speed>
<extensions>
<speed>0.0</speed>
<temp>0.00</temp>
<bpm>0</bpm>
<rpm>0.00</rpm>
</extensions>
</trkpt>
<trkpt lat="64.325325012" lon="-20.129335403">
<ele>242.898438</ele>
<time>2012-07-20T13:29:44Z</time>
<speed>0.020000</speed>
<extensions>
<speed>0.0</speed>
<temp>0.00</temp>
<bpm>0</bpm>
<rpm>0.00</rpm>
</extensions>
</trkpt>
<trkpt lat="64.325325012" lon="-20.129335403">
<ele>242.863281</ele>
<time>2012-07-20T13:29:49Z</time>
<extensions>
<speed>0.0</speed>
<temp>0.00</temp>
<bpm>0</bpm>
<rpm>0.00</rpm>
</extensions>
</trkpt>
<trkpt lat="64.325325012" lon="-20.129335403">
<ele>242.824219</ele>
<time>2012-07-20T13:29:54Z</time>
<speed>0.020000</speed>
<extensions>
<speed>0.0</speed>
<temp>0.00</temp>
<bpm>0</bpm>
<rpm>0.00</rpm>
</extensions>
</trkpt>
<trkpt lat="64.325325012" lon="-20.129335403">
<ele>242.789063</ele>
<time>2012-07-20T13:29:59Z</time>
<extensions>
<speed>0.0</speed>
<temp>0.00</temp>
<bpm>0</bpm>
<rpm>0.00</rpm>
</extensions>
</trkpt>
<trkpt lat="64.325325012" lon="-20.129335403">
<ele>242.753906</ele>
<time>2012-07-20T13:30:04Z</time>
<extensions>
<speed>0.0</speed>
<temp>0.00</temp>
<bpm>0</bpm>
<rpm>0.00</rpm>
</extensions>
</trkpt>
<trkpt lat="64.325325012" lon="-20.129337311">
<ele>242.726563</ele>
<time>2012-07-20T13:30:09Z</time>
<extensions>
<speed>0.0</speed>
<temp>0.00</temp>
<bpm>0</bpm>
<rpm>0.00</rpm>
</extensions>
</trkpt>
<trkpt lat="64.325325012" lon="-20.129337311">
<ele>242.699219</ele>
<time>2012-07-20T13:30:14Z</time>
<extensions>
<speed>0.0</speed>
<temp>0.00</temp>
<bpm>0</bpm>
<rpm>0.00</rpm>
</extensions>
</trkpt>
<trkpt lat="64.325325012" lon="-20.129337311">
<ele>242.660156</ele>
<time>2012-07-20T13:30:19Z</time>
<speed>0.020000</speed>
<extensions>
<speed>0.0</speed>
<temp>0.00</temp>
<bpm>0</bpm>
<rpm>0.00</rpm>
</extensions>
</trkpt>
<trkpt lat="64.325325012" lon="-20.129337311">
<ele>242.632813</ele>
<time>2012-07-20T13:30:24Z</time>
<extensions>
<speed>0.0</speed>
<temp>0.00</temp>
<bpm>0</bpm>
<rpm>0.00</rpm>
</extensions>
</trkpt>
<trkpt lat="64.325325012" lon="-20.129337311">
<ele>242.593750</ele>
<time>2012-07-20T13:30:29Z</time>
<speed>0.020000</speed>
<extensions>
<speed>0.0</speed>
<temp>0.00</temp>
<bpm>0</bpm>
<rpm>0.00</rpm>
</extensions>
</trkpt>
<trkpt lat="64.325325012" lon="-20.129339218">
<ele>242.546875</ele>
<time>2012-07-20T13:30:34Z</time>
<speed>0.010000</speed>
<extensions>
<speed>0.0</speed>
<temp>0.00</temp>
<bpm>0</bpm>
<rpm>0.00</rpm>
</extensions>
</trkpt>
<trkpt lat="64.325325012" lon="-20.129339218">
<ele>242.503906</ele>
<time>2012-07-20T13:30:39Z</time>
<speed>0.010000</speed>
<extensions>
<speed>0.0</speed>
<temp>0.00</temp>
<bpm>0</bpm>
<rpm>0.00</rpm>
</extensions>
</trkpt>
<trkpt lat="64.325325012" lon="-20.129339218">
<ele>242.453125</ele>
<time>2012-07-20T13:30:44Z</time>
<speed>0.010000</speed>
<extensions>
<speed>0.0</speed>
<temp>0.00</temp>
<bpm>0</bpm>
<rpm>0.00</rpm>
</extensions>
</trkpt>
<trkpt lat="64.325325012" lon="-20.129339218">
<ele>242.394531</ele>
<time>2012-07-20T13:30:49Z</time>
<speed>0.010000</speed>
<extensions>
<speed>0.0</speed>
<temp>0.00</temp>
<bpm>0</bpm>
<rpm>0.00</rpm>
</extensions>
</trkpt>
<trkpt lat="64.325325012" lon="-20.129339218">
<ele>242.339844</ele>
<time>2012-07-20T13:30:54Z</time>
<speed>0.050000</speed>
<extensions>
<speed>0.1</speed>
<temp>0.00</temp>
<bpm>0</bpm>
<rpm>0.00</rpm>
</extensions>
</trkpt>
<trkpt lat="64.325325012" lon="-20.129341125">
<ele>242.289063</ele>
<time>2012-07-20T13:30:59Z</time>
<speed>0.020000</speed>
<extensions>
<speed>0.0</speed>
<temp>0.00</temp>
<bpm>0</bpm>
<rpm>0.00</rpm>
</extensions>
</trkpt>
<trkpt lat="64.325325012" lon="-20.129343033">
<ele>242.230469</ele>
<time>2012-07-20T13:31:04Z</time>
<speed>0.030000</speed>
<extensions>
<speed>0.0</speed>
<temp>0.00</temp>
<bpm>0</bpm>
<rpm>0.00</rpm>
</extensions>
</trkpt>
<trkpt lat="64.325325012" lon="-20.129343033">
<ele>242.164063</ele>
<time>2012-07-20T13:31:09Z</time>
<speed>0.010000</speed>
<extensions>
<speed>0.0</speed>
<temp>0.00</temp>
<bpm>0</bpm>
<rpm>0.00</rpm>
</extensions>
</trkpt>
<trkpt lat="64.325325012" lon="-20.129343033">
<ele>242.101563</ele>
<time>2012-07-20T13:31:14Z</time>
<speed>0.030000</speed>
<extensions>
<speed>0.0</speed>
<temp>0.00</temp>
<bpm>0</bpm>
<rpm>0.00</rpm>
</extensions>
</trkpt>
<trkpt lat="64.325325012" lon="-20.129344940">
<ele>242.027344</ele>
<time>2012-07-20T13:31:19Z</time>
<speed>0.010000</speed>
<extensions>
<speed>0.0</speed>
<temp>0.00</temp>
<bpm>0</bpm>
<rpm>0.00</rpm>
</extensions>
</trkpt>
<trkpt lat="64.325325012" lon="-20.129344940">
<ele>241.972656</ele>
<time>2012-07-20T13:31:24Z</time>
<speed>0.050000</speed>
<extensions>
<speed>0.1</speed>
<temp>0.00</temp>
<bpm>0</bpm>
<rpm>0.00</rpm>
</extensions>
</trkpt>
<trkpt lat="64.325325012" lon="-20.129346848">
<ele>241.925781</ele>
<time>2012-07-20T13:31:29Z</time>
<speed>0.030000</speed>
<extensions>
<speed>0.0</speed>
<temp>0.00</temp>
<bpm>0</bpm>
<rpm>0.00</rpm>
</extensions>
</trkpt>
<trkpt lat="64.325325012" lon="-20.129346848">
<ele>241.863281</ele>
<time>2012-07-20T13:31:34Z</time>
<speed>0.020000</speed>
<extensions>
<speed>0.0</speed>
<temp>0.00</temp>
<bpm>0</bpm>
<rpm>0.00</rpm>
</extensions>
</trkpt>
<trkpt lat="64.325325012" lon="-20.129348755">
<ele>241.812500</ele>
<time>2012-07-20T13:31:39Z</time>
<speed>0.020000</speed>
<extensions>
<speed>0.0</speed>
<temp>0.00</temp>
<bpm>0</bpm>
<rpm>0.00</rpm>
</extensions>
</trkpt>
<trkpt lat="64.325325012" lon="-20.129350662">
<ele>241.746094</ele>
<time>2012-07-20T13:31:44Z</time>
<speed>0.050000</speed>
<extensions>
<speed>0.1</speed>
<temp>0.00</temp>
<bpm>0</bpm>
<rpm>0.00</rpm>
</extensions>
</trkpt>
<trkpt lat="64.325332642" lon="-20.129350662">
<ele>241.695313</ele>
<time>2012-07-20T13:31:49Z</time>
<extensions>
<speed>0.0</speed>
<temp>0.00</temp>
<bpm>0</bpm>
<rpm>0.00</rpm>
</extensions>
</trkpt>
<trkpt lat="64.325332642" lon="-20.129352570">
<ele>241.640625</ele>
<time>2012-07-20T13:31:54Z</time>
<speed>0.010000</speed>
<extensions>
<speed>0.0</speed>
<temp>0.00</temp>
<bpm>0</bpm>
<rpm>0.00</rpm>
</extensions>
</trkpt>
<trkpt lat="64.325332642" lon="-20.129354477">
<ele>241.574219</ele>
<time>2012-07-20T13:31:59Z</time>
<speed>0.020000</speed>
<extensions>
<speed>0.0</speed>
<temp>0.00</temp>
<bpm>0</bpm>
<rpm>0.00</rpm>
</extensions>
</trkpt>
<trkpt lat="64.325332642" lon="-20.129356384">
<ele>241.496094</ele>
<time>2012-07-20T13:32:04Z</time>
<speed>0.030000</speed>
<extensions>
<speed>0.0</speed>
<temp>0.00</temp>
<bpm>0</bpm>
<rpm>0.00</rpm>
</extensions>
</trkpt>
<trkpt lat="64.325332642" lon="-20.129358292">
<ele>241.425781</ele>
<time>2012-07-20T13:32:09Z</time>
<speed>0.050000</speed>
<extensions>
<speed>0.1</speed>
<temp>0.00</temp>
<bpm>0</bpm>
<rpm>0.00</rpm>
</extensions>
</trkpt>
<trkpt lat="64.325332642" lon="-20.129358292">
<ele>241.363281</ele>
<time>2012-07-20T13:32:14Z</time>
<speed>0.030000</speed>
<extensions>
<speed>0.0</speed>
<temp>0.00</temp>
<bpm>0</bpm>
<rpm>0.00</rpm>
</extensions>
</trkpt>
<trkpt lat="64.325332642" lon="-20.129360199">
<ele>241.308594</ele>
<time>2012-07-20T13:32:19Z</time>
<speed>0.010000</speed>
<extensions>
<speed>0.0</speed>
<temp>0.00</temp>
<bpm>0</bpm>
<rpm>0.00</rpm>
</extensions>
</trkpt>
<trkpt lat="64.325332642" lon="-20.129360199">
<ele>241.250000</ele>
<time>2012-07-20T13:32:24Z</time>
<speed>0.010000</speed>
<extensions>
<speed>0.0</speed>
<temp>0.00</temp>
<bpm>0</bpm>
<rpm>0.00</rpm>
</extensions>
</trkpt>
<trkpt lat="64.325332642" lon="-20.129360199">
<ele>241.199219</ele>
<time>2012-07-20T13:32:29Z</time>
<speed>0.010000</speed>
<extensions>
<speed>0.0</speed>
<temp>0.00</temp>
<bpm>0</bpm>
<rpm>0.00</rpm>
</extensions>
</trkpt>
<trkpt lat="64.325332642" lon="-20.129360199">
<ele>241.156250</ele>
<time>2012-07-20T13:32:34Z</time>
<extensions>
<speed>0.0</speed>
<temp>0.00</temp>
<bpm>0</bpm>
<rpm>0.00</rpm>
</extensions>
</trkpt>
<trkpt lat="64.325332642" lon="-20.129362106">
<ele>241.128906</ele>
<time>2012-07-20T13:32:39Z</time>
<speed>0.010000</speed>
<extensions>
<speed>0.0</speed>
<temp>0.00</temp>
<bpm>0</bpm>
<rpm>0.00</rpm>
</extensions>
</trkpt>
<trkpt lat="64.325332642" lon="-20.129362106">
<ele>241.097656</ele>
<time>2012-07-20T13:32:44Z</time>
<extensions>
<speed>0.0</speed>
<temp>0.00</temp>
<bpm>0</bpm>
<rpm>0.00</rpm>
</extensions>
</trkpt>
<trkpt lat="64.325332642" lon="-20.129362106">
<ele>241.046875</ele>
<time>2012-07-20T13:32:49Z</time>
<speed>0.010000</speed>
<extensions>
<speed>0.0</speed>
<temp>0.00</temp>
<bpm>0</bpm>
<rpm>0.00</rpm>
</extensions>
</trkpt>
<trkpt lat="64.325332642" lon="-20.129362106">
<ele>241.023438</ele>
<time>2012-07-20T13:32:54Z</time>
<speed>0.010000</speed>
<extensions>
<speed>0.0</speed>
<temp>0.00</temp>
<bpm>0</bpm>
<rpm>0.00</rpm>
</extensions>
</trkpt>
<trkpt lat="64.325332642" lon="-20.129362106">
<ele>240.972656</ele>
<time>2012-07-20T13:32:59Z</time>
<extensions>
<speed>0.0</speed>
<temp>0.00</temp>
<bpm>0</bpm>
<rpm>0.00</rpm>
</extensions>
</trkpt>
<trkpt lat="64.325332642" lon="-20.129362106">
<ele>240.941406</ele>
<time>2012-07-20T13:33:04Z</time>
<speed>0.010000</speed>
<extensions>
<speed>0.0</speed>
<temp>0.00</temp>
<bpm>0</bpm>
<rpm>0.00</rpm>
</extensions>
</trkpt>
<trkpt lat="64.325332642" lon="-20.129362106">
<ele>240.925781</ele>
<time>2012-07-20T13:33:09Z</time>
<speed>0.010000</speed>
<extensions>
<speed>0.0</speed>
<temp>0.00</temp>
<bpm>0</bpm>
<rpm>0.00</rpm>
</extensions>
</trkpt>
<trkpt lat="64.325332642" lon="-20.129364014">
<ele>240.906250</ele>
<time>2012-07-20T13:33:14Z</time>
<speed>0.020000</speed>
<extensions>
<speed>0.0</speed>
<temp>0.00</temp>
<bpm>0</bpm>
<rpm>0.00</rpm>
</extensions>
</trkpt>
<trkpt lat="64.325340271" lon="-20.129383087">
<ele>240.691406</ele>
<time>2012-07-20T13:33:19Z</time>
<speed>0.750000</speed>
<extensions>
<speed>0.8</speed>
<temp>0.00</temp>
<bpm>0</bpm>
<rpm>0.00</rpm>
</extensions>
</trkpt>
<trkpt lat="64.325401306" lon="-20.129371643">
<ele>239.800781</ele>
<time>2012-07-20T13:33:24Z</time>
<speed>1.020000</speed>
<extensions>
<speed>1.0</speed>
<temp>0.00</temp>
<bpm>0</bpm>
<rpm>0.00</rpm>
</extensions>
</trkpt>
<trkpt lat="64.325447083" lon="-20.129415512">
<ele>238.132813</ele>
<time>2012-07-20T13:33:29Z</time>
<speed>0.810000</speed>
<extensions>
<speed>0.8</speed>
<temp>0.00</temp>
<bpm>0</bpm>
<rpm>0.00</rpm>
</extensions>
</trkpt>
<trkpt lat="64.325500488" lon="-20.129447937">
<ele>236.058594</ele>
<time>2012-07-20T13:33:34Z</time>
<speed>0.670000</speed>
<extensions>
<speed>0.7</speed>
<temp>0.00</temp>
<bpm>0</bpm>
<rpm>0.00</rpm>
</extensions>
</trkpt>
<trkpt lat="64.325515747" lon="-20.129423141">
<ele>234.285156</ele>
<time>2012-07-20T13:33:39Z</time>
<extensions>
<speed>0.0</speed>
<temp>0.00</temp>
<bpm>0</bpm>
<rpm>0.00</rpm>
</extensions>
</trkpt>
<trkpt lat="64.325515747" lon="-20.129421234">
<ele>234.199219</ele>
<time>2012-07-20T13:33:44Z</time>
<speed>0.180000</speed>
<extensions>
<speed>0.2</speed>
<temp>0.00</temp>
<bpm>0</bpm>
<rpm>0.00</rpm>
</extensions>
</trkpt>
<trkpt lat="64.325523376" lon="-20.129419327">
<ele>234.128906</ele>
<time>2012-07-20T13:33:49Z</time>
<speed>0.070000</speed>
<extensions>
<speed>0.1</speed>
<temp>0.00</temp>
<bpm>0</bpm>
<rpm>0.00</rpm>
</extensions>
</trkpt>
<trkpt lat="64.325523376" lon="-20.129419327">
<ele>234.070313</ele>
<time>2012-07-20T13:33:54Z</time>
<speed>0.010000</speed>
<extensions>
<speed>0.0</speed>
<temp>0.00</temp>
<bpm>0</bpm>
<rpm>0.00</rpm>
</extensions>
</trkpt>
<trkpt lat="64.325523376" lon="-20.129419327">
<ele>234.058594</ele>
<time>2012-07-20T13:33:59Z</time>
<speed>0.010000</speed>
<extensions>
<speed>0.0</speed>
<temp>0.00</temp>
<bpm>0</bpm>
<rpm>0.00</rpm>
</extensions>
</trkpt>
<trkpt lat="64.325523376" lon="-20.129419327">
<ele>234.019531</ele>
<time>2012-07-20T13:34:04Z</time>
<speed>0.010000</speed>
<extensions>
<speed>0.0</speed>
<temp>0.00</temp>
<bpm>0</bpm>
<rpm>0.00</rpm>
</extensions>
</trkpt>
<trkpt lat="64.325523376" lon="-20.129421234">
<ele>233.925781</ele>
<time>2012-07-20T13:34:09Z</time>
<extensions>
<speed>0.0</speed>
<temp>0.00</temp>
<bpm>0</bpm>
<rpm>0.00</rpm>
</extensions>
</trkpt>
<trkpt lat="64.325523376" lon="-20.129421234">
<ele>233.894531</ele>
<time>2012-07-20T13:34:14Z</time>
<extensions>
<speed>0.0</speed>
<temp>0.00</temp>
<bpm>0</bpm>
<rpm>0.00</rpm>
</extensions>
</trkpt>
<trkpt lat="64.325523376" lon="-20.129421234">
<ele>233.871094</ele>
<time>2012-07-20T13:34:19Z</time>
<extensions>
<speed>0.0</speed>
<temp>0.00</temp>
<bpm>0</bpm>
<rpm>0.00</rpm>
</extensions>
</trkpt>
<trkpt lat="64.325523376" lon="-20.129421234">
<ele>233.859375</ele>
<time>2012-07-20T13:34:24Z</time>
<extensions>
<speed>0.0</speed>
<temp>0.00</temp>
<bpm>0</bpm>
<rpm>0.00</rpm>
</extensions>
</trkpt>
<trkpt lat="64.325523376" lon="-20.129421234">
<ele>233.847656</ele>
<time>2012-07-20T13:34:29Z</time>
<speed>0.010000</speed>
<extensions>
<speed>0.0</speed>
<temp>0.00</temp>
<bpm>0</bpm>
<rpm>0.00</rpm>
</extensions>
</trkpt>
<trkpt lat="64.325523376" lon="-20.129421234">
<ele>233.832031</ele>
<time>2012-07-20T13:34:34Z</time>
<speed>0.010000</speed>
<extensions>
<speed>0.0</speed>
<temp>0.00</temp>
<bpm>0</bpm>
<rpm>0.00</rpm>
</extensions>
</trkpt>
<trkpt lat="64.325523376" lon="-20.129421234">
<ele>233.800781</ele>
<time>2012-07-20T13:34:39Z</time>
<speed>0.010000</speed>
<extensions>
<speed>0.0</speed>
<temp>0.00</temp>
<bpm>0</bpm>
<rpm>0.00</rpm>
</extensions>
</trkpt>
<trkpt lat="64.325523376" lon="-20.129421234">
<ele>233.796875</ele>
<time>2012-07-20T13:34:44Z</time>
<speed>0.040000</speed>
<extensions>
<speed>0.0</speed>
<temp>0.00</temp>
<bpm>0</bpm>
<rpm>0.00</rpm>
</extensions>
</trkpt>
<trkpt lat="64.325523376" lon="-20.129421234">
<ele>233.781250</ele>
<time>2012-07-20T13:34:49Z</time>
<speed>0.010000</speed>
<extensions>
<speed>0.0</speed>
<temp>0.00</temp>
<bpm>0</bpm>
<rpm>0.00</rpm>
</extensions>
</trkpt>
<trkpt lat="64.325523376" lon="-20.129421234">
<ele>233.769531</ele>
<time>2012-07-20T13:34:54Z</time>
<extensions>
<speed>0.0</speed>
<temp>0.00</temp>
<bpm>0</bpm>
<rpm>0.00</rpm>
</extensions>
</trkpt>
<trkpt lat="64.325523376" lon="-20.129421234">
<ele>233.750000</ele>
<time>2012-07-20T13:34:59Z</time>
<speed>0.010000</speed>
<extensions>
<speed>0.0</speed>
<temp>0.00</temp>
<bpm>0</bpm>
<rpm>0.00</rpm>
</extensions>
</trkpt>
<trkpt lat="64.325523376" lon="-20.129421234">
<ele>233.703125</ele>
<time>2012-07-20T13:35:04Z</time>
<speed>0.030000</speed>
<extensions>
<speed>0.0</speed>
<temp>0.00</temp>
<bpm>0</bpm>
<rpm>0.00</rpm>
</extensions>
</trkpt>
<trkpt lat="64.325523376" lon="-20.129421234">
<ele>233.664063</ele>
<time>2012-07-20T13:35:09Z</time>
<extensions>
<speed>0.0</speed>
<temp>0.00</temp>
<bpm>0</bpm>
<rpm>0.00</rpm>
</extensions>
</trkpt>
<trkpt lat="64.325523376" lon="-20.129421234">
<ele>233.605469</ele>
<time>2012-07-20T13:35:14Z</time>
<speed>0.020000</speed>
<extensions>
<speed>0.0</speed>
<temp>0.00</temp>
<bpm>0</bpm>
<rpm>0.00</rpm>
</extensions>
</trkpt>
<trkpt lat="64.325523376" lon="-20.129421234">
<ele>233.570313</ele>
<time>2012-07-20T13:35:19Z</time>
<speed>0.140000</speed>
<extensions>
<speed>0.1</speed>
<temp>0.00</temp>
<bpm>0</bpm>
<rpm>0.00</rpm>
</extensions>
</trkpt>
<trkpt lat="64.325523376" lon="-20.129419327">
<ele>233.476563</ele>
<time>2012-07-20T13:35:24Z</time>
<speed>0.030000</speed>
<extensions>
<speed>0.0</speed>
<temp>0.00</temp>
<bpm>0</bpm>
<rpm>0.00</rpm>
</extensions>
</trkpt>
<trkpt lat="64.325523376" lon="-20.129419327">
<ele>233.457031</ele>
<time>2012-07-20T13:35:29Z</time>
<speed>0.010000</speed>
<extensions>
<speed>0.0</speed>
<temp>0.00</temp>
<bpm>0</bpm>
<rpm>0.00</rpm>
</extensions>
</trkpt>
<trkpt lat="64.325523376" lon="-20.129419327">
<ele>233.441406</ele>
<time>2012-07-20T13:35:34Z</time>
<speed>0.040000</speed>
<extensions>
<speed>0.0</speed>
<temp>0.00</temp>
<bpm>0</bpm>
<rpm>0.00</rpm>
</extensions>
</trkpt>
<trkpt lat="64.325523376" lon="-20.129419327">
<ele>233.429688</ele>
<time>2012-07-20T13:35:39Z</time>
<speed>0.010000</speed>
<extensions>
<speed>0.0</speed>
<temp>0.00</temp>
<bpm>0</bpm>
<rpm>0.00</rpm>
</extensions>
</trkpt>
<trkpt lat="64.325523376" lon="-20.129419327">
<ele>233.421875</ele>
<time>2012-07-20T13:35:44Z</time>
<extensions>
<speed>0.0</speed>
<temp>0.00</temp>
<bpm>0</bpm>
<rpm>0.00</rpm>
</extensions>
</trkpt>
<trkpt lat="64.325523376" lon="-20.129419327">
<ele>233.406250</ele>
<time>2012-07-20T13:35:49Z</time>
<extensions>
<speed>0.0</speed>
<temp>0.00</temp>
<bpm>0</bpm>
<rpm>0.00</rpm>
</extensions>
</trkpt>
<trkpt lat="64.325523376" lon="-20.129421234">
<ele>233.394531</ele>
<time>2012-07-20T13:35:54Z</time>
<speed>0.010000</speed>
<extensions>
<speed>0.0</speed>
<temp>0.00</temp>
<bpm>0</bpm>
<rpm>0.00</rpm>
</extensions>
</trkpt>
<trkpt lat="64.325523376" lon="-20.129421234">
<ele>233.386719</ele>
<time>2012-07-20T13:35:59Z</time>
<speed>0.010000</speed>
<extensions>
<speed>0.0</speed>
<temp>0.00</temp>
<bpm>0</bpm>
<rpm>0.00</rpm>
</extensions>
</trkpt>
<trkpt lat="64.325523376" lon="-20.129421234">
<ele>233.375000</ele>
<time>2012-07-20T13:36:04Z</time>
<extensions>
<speed>0.0</speed>
<temp>0.00</temp>
<bpm>0</bpm>
<rpm>0.00</rpm>
</extensions>
</trkpt>
<trkpt lat="64.325523376" lon="-20.129421234">
<ele>233.363281</ele>
<time>2012-07-20T13:36:09Z</time>
<extensions>
<speed>0.0</speed>
<temp>0.00</temp>
<bpm>0</bpm>
<rpm>0.00</rpm>
</extensions>
</trkpt>
<trkpt lat="64.325523376" lon="-20.129421234">
<ele>233.351563</ele>
<time>2012-07-20T13:36:14Z</time>
<speed>0.010000</speed>
<extensions>
<speed>0.0</speed>
<temp>0.00</temp>
<bpm>0</bpm>
<rpm>0.00</rpm>
</extensions>
</trkpt>
<trkpt lat="64.325523376" lon="-20.129421234">
<ele>233.339844</ele>
<time>2012-07-20T13:36:19Z</time>
<speed>0.010000</speed>
<extensions>
<speed>0.0</speed>
<temp>0.00</temp>
<bpm>0</bpm>
<rpm>0.00</rpm>
</extensions>
</trkpt>
<trkpt lat="64.325523376" lon="-20.129421234">
<ele>233.332031</ele>
<time>2012-07-20T13:36:24Z</time>
<speed>0.010000</speed>
<extensions>
<speed>0.0</speed>
<temp>0.00</temp>
<bpm>0</bpm>
<rpm>0.00</rpm>
</extensions>
</trkpt>
<trkpt lat="64.325523376" lon="-20.129421234">
<ele>233.320313</ele>
<time>2012-07-20T13:36:29Z</time>
<speed>0.010000</speed>
<extensions>
<speed>0.0</speed>
<temp>0.00</temp>
<bpm>0</bpm>
<rpm>0.00</rpm>
</extensions>
</trkpt>
<trkpt lat="64.325523376" lon="-20.129421234">
<ele>233.312500</ele>
<time>2012-07-20T13:36:34Z</time>
<speed>0.010000</speed>
<extensions>
<speed>0.0</speed>
<temp>0.00</temp>
<bpm>0</bpm>
<rpm>0.00</rpm>
</extensions>
</trkpt>
<trkpt lat="64.325523376" lon="-20.129421234">
<ele>233.304688</ele>
<time>2012-07-20T13:36:39Z</time>
<extensions>
<speed>0.0</speed>
<temp>0.00</temp>
<bpm>0</bpm>
<rpm>0.00</rpm>
</extensions>
</trkpt>
<trkpt lat="64.325523376" lon="-20.129421234">
<ele>233.289063</ele>
<time>2012-07-20T13:36:44Z</time>
<extensions>
<speed>0.0</speed>
<temp>0.00</temp>
<bpm>0</bpm>
<rpm>0.00</rpm>
</extensions>
</trkpt>
<trkpt lat="64.325523376" lon="-20.129421234">
<ele>233.277344</ele>
<time>2012-07-20T13:36:49Z</time>
<speed>0.010000</speed>
<extensions>
<speed>0.0</speed>
<temp>0.00</temp>
<bpm>0</bpm>
<rpm>0.00</rpm>
</extensions>
</trkpt>
<trkpt lat="64.325523376" lon="-20.129423141">
<ele>233.246094</ele>
<time>2012-07-20T13:36:54Z</time>
<speed>0.010000</speed>
<extensions>
<speed>0.0</speed>
<temp>0.00</temp>
<bpm>0</bpm>
<rpm>0.00</rpm>
</extensions>
</trkpt>
<trkpt lat="64.325523376" lon="-20.129423141">
<ele>233.214844</ele>
<time>2012-07-20T13:36:59Z</time>
<speed>0.030000</speed>
<extensions>
<speed>0.0</speed>
<temp>0.00</temp>
<bpm>0</bpm>
<rpm>0.00</rpm>
</extensions>
</trkpt>
<trkpt lat="64.325523376" lon="-20.129423141">
<ele>233.199219</ele>
<time>2012-07-20T13:37:04Z</time>
<speed>0.010000</speed>
<extensions>
<speed>0.0</speed>
<temp>0.00</temp>
<bpm>0</bpm>
<rpm>0.00</rpm>
</extensions>
</trkpt>
<trkpt lat="64.325523376" lon="-20.129423141">
<ele>233.171875</ele>
<time>2012-07-20T13:37:09Z</time>
<speed>0.010000</speed>
<extensions>
<speed>0.0</speed>
<temp>0.00</temp>
<bpm>0</bpm>
<rpm>0.00</rpm>
</extensions>
</trkpt>
<trkpt lat="64.325523376" lon="-20.129423141">
<ele>233.160156</ele>
<time>2012-07-20T13:37:14Z</time>
<speed>0.010000</speed>
<extensions>
<speed>0.0</speed>
<temp>0.00</temp>
<bpm>0</bpm>
<rpm>0.00</rpm>
</extensions>
</trkpt>
<trkpt lat="64.325523376" lon="-20.129423141">
<ele>233.128906</ele>
<time>2012-07-20T13:37:19Z</time>
<speed>0.010000</speed>
<extensions>
<speed>0.0</speed>
<temp>0.00</temp>
<bpm>0</bpm>
<rpm>0.00</rpm>
</extensions>
</trkpt>
<trkpt lat="64.325523376" lon="-20.129423141">
<ele>233.113281</ele>
<time>2012-07-20T13:37:24Z</time>
<speed>0.040000</speed>
<extensions>
<speed>0.0</speed>
<temp>0.00</temp>
<bpm>0</bpm>
<rpm>0.00</rpm>
</extensions>
</trkpt>
<trkpt lat="64.325523376" lon="-20.129423141">
<ele>233.074219</ele>
<time>2012-07-20T13:37:29Z</time>
<extensions>
<speed>0.0</speed>
<temp>0.00</temp>
<bpm>0</bpm>
<rpm>0.00</rpm>
</extensions>
</trkpt>
<trkpt lat="64.325523376" lon="-20.129423141">
<ele>233.031250</ele>
<time>2012-07-20T13:37:34Z</time>
<speed>0.010000</speed>
<extensions>
<speed>0.0</speed>
<temp>0.00</temp>
<bpm>0</bpm>
<rpm>0.00</rpm>
</extensions>
</trkpt>
<trkpt lat="64.325523376" lon="-20.129423141">
<ele>232.972656</ele>
<time>2012-07-20T13:37:39Z</time>
<speed>0.020000</speed>
<extensions>
<speed>0.0</speed>
<temp>0.00</temp>
<bpm>0</bpm>
<rpm>0.00</rpm>
</extensions>
</trkpt>
<trkpt lat="64.325523376" lon="-20.129423141">
<ele>232.937500</ele>
<time>2012-07-20T13:37:44Z</time>
<speed>0.010000</speed>
<extensions>
<speed>0.0</speed>
<temp>0.00</temp>
<bpm>0</bpm>
<rpm>0.00</rpm>
</extensions>
</trkpt>
<trkpt lat="64.325523376" lon="-20.129423141">
<ele>232.968750</ele>
<time>2012-07-20T13:37:49Z</time>
<speed>0.040000</speed>
<extensions>
<speed>0.0</speed>
<temp>0.00</temp>
<bpm>0</bpm>
<rpm>0.00</rpm>
</extensions>
</trkpt>
<trkpt lat="64.325523376" lon="-20.129440308">
<ele>233.011719</ele>
<time>2012-07-20T13:37:54Z</time>
<speed>0.340000</speed>
<extensions>
<speed>0.3</speed>
<temp>0.00</temp>
<bpm>0</bpm>
<rpm>0.00</rpm>
</extensions>
</trkpt>
<trkpt lat="64.325523376" lon="-20.129514694">
<ele>232.550781</ele>
<time>2012-07-20T13:37:59Z</time>
<speed>1.630000</speed>
<extensions>
<speed>1.6</speed>
<temp>0.00</temp>
<bpm>0</bpm>
<rpm>0.00</rpm>
</extensions>
</trkpt>
<trkpt lat="64.325561523" lon="-20.129680634">
<ele>231.664063</ele>
<time>2012-07-20T13:38:04Z</time>
<speed>1.680000</speed>
<extensions>
<speed>1.7</speed>
<temp>0.00</temp>
<bpm>0</bpm>
<rpm>0.00</rpm>
</extensions>
</trkpt>
<trkpt lat="64.325614929" lon="-20.129812241">
<ele>232.246094</ele>
<time>2012-07-20T13:38:09Z</time>
<speed>1.480000</speed>
<extensions>
<speed>1.5</speed>
<temp>0.00</temp>
<bpm>0</bpm>
<rpm>0.00</rpm>
</extensions>
</trkpt>
<trkpt lat="64.325660706" lon="-20.129951477">
<ele>231.878906</ele>
<time>2012-07-20T13:38:14Z</time>
<speed>1.770000</speed>
<extensions>
<speed>1.8</speed>
<temp>0.00</temp>
<bpm>0</bpm>
<rpm>0.00</rpm>
</extensions>
</trkpt>
<trkpt lat="64.325729370" lon="-20.130144119">
<ele>231.429688</ele>
<time>2012-07-20T13:38:19Z</time>
<speed>1.510000</speed>
<extensions>
<speed>1.5</speed>
<temp>0.00</temp>
<bpm>0</bpm>
<rpm>0.00</rpm>
</extensions>
</trkpt>
<trkpt lat="64.325759888" lon="-20.130325317">
<ele>229.996094</ele>
<time>2012-07-20T13:38:24Z</time>
<speed>2.230000</speed>
<extensions>
<speed>2.2</speed>
<temp>0.00</temp>
<bpm>0</bpm>
<rpm>0.00</rpm>
</extensions>
</trkpt>
<trkpt lat="64.325843811" lon="-20.130538940">
<ele>228.292969</ele>
<time>2012-07-20T13:38:29Z</time>
<speed>2.630000</speed>
<extensions>
<speed>2.6</speed>
<temp>0.00</temp>
<bpm>0</bpm>
<rpm>0.00</rpm>
</extensions>
</trkpt>
<trkpt lat="64.325912476" lon="-20.130748749">
<ele>226.593750</ele>
<time>2012-07-20T13:38:34Z</time>
<speed>2.240000</speed>
<extensions>
<speed>2.2</speed>
<temp>0.00</temp>
<bpm>0</bpm>
<rpm>0.00</rpm>
</extensions>
</trkpt>
<trkpt lat="64.325958252" lon="-20.130891800">
<ele>225.027344</ele>
<time>2012-07-20T13:38:39Z</time>
<speed>1.510000</speed>
<extensions>
<speed>1.5</speed>
<temp>0.00</temp>
<bpm>0</bpm>
<rpm>0.00</rpm>
</extensions>
</trkpt>
<trkpt lat="64.325958252" lon="-20.131097794">
<ele>222.917969</ele>
<time>2012-07-20T13:38:44Z</time>
<speed>2.710000</speed>
<extensions>
<speed>2.7</speed>
<temp>0.00</temp>
<bpm>0</bpm>
<rpm>0.00</rpm>
</extensions>
</trkpt>
<trkpt lat="64.325843811" lon="-20.131277084">
<ele>220.996094</ele>
<time>2012-07-20T13:38:49Z</time>
<speed>3.010000</speed>
<extensions>
<speed>3.0</speed>
<temp>0.00</temp>
<bpm>0</bpm>
<rpm>0.00</rpm>
</extensions>
</trkpt>
<trkpt lat="64.325706482" lon="-20.131433487">
<ele>219.640625</ele>
<time>2012-07-20T13:38:54Z</time>
<speed>3.740000</speed>
<extensions>
<speed>3.7</speed>
<temp>0.00</temp>
<bpm>0</bpm>
<rpm>0.00</rpm>
</extensions>
</trkpt>
<trkpt lat="64.325569153" lon="-20.131605148">
<ele>217.785156</ele>
<time>2012-07-20T13:38:59Z</time>
<speed>3.040000</speed>
<extensions>
<speed>3.0</speed>
<temp>0.00</temp>
<bpm>0</bpm>
<rpm>0.00</rpm>
</extensions>
</trkpt>
<trkpt lat="64.325454712" lon="-20.131723404">
<ele>214.933594</ele>
<time>2012-07-20T13:39:04Z</time>
<speed>2.770000</speed>
<extensions>
<speed>2.8</speed>
<temp>0.00</temp>
<bpm>0</bpm>
<rpm>0.00</rpm>
</extensions>
</trkpt>
<trkpt lat="64.325347900" lon="-20.131877899">
<ele>215.765625</ele>
<time>2012-07-20T13:39:09Z</time>
<speed>3.310000</speed>
<extensions>
<speed>3.3</speed>
<temp>0.00</temp>
<bpm>0</bpm>
<rpm>0.00</rpm>
</extensions>
</trkpt>
<trkpt lat="64.325202942" lon="-20.132068634">
<ele>217.378906</ele>
<time>2012-07-20T13:39:14Z</time>
<speed>4.090000</speed>
<extensions>
<speed>4.1</speed>
<temp>0.00</temp>
<bpm>0</bpm>
<rpm>0.00</rpm>
</extensions>
</trkpt>
<trkpt lat="64.325035095" lon="-20.132286072">
<ele>216.941406</ele>
<time>2012-07-20T13:39:19Z</time>
<speed>4.770000</speed>
<extensions>
<speed>4.8</speed>
<temp>0.00</temp>
<bpm>0</bpm>
<rpm>0.00</rpm>
</extensions>
</trkpt>
<trkpt lat="64.324851990" lon="-20.132518768">
<ele>216.433594</ele>
<time>2012-07-20T13:39:24Z</time>
<speed>4.750000</speed>
<extensions>
<speed>4.8</speed>
<temp>0.00</temp>
<bpm>0</bpm>
<rpm>0.00</rpm>
</extensions>
</trkpt>
<trkpt lat="64.324668884" lon="-20.132761002">
<ele>215.988281</ele>
<time>2012-07-20T13:39:29Z</time>
<speed>4.670000</speed>
<extensions>
<speed>4.7</speed>
<temp>0.00</temp>
<bpm>0</bpm>
<rpm>0.00</rpm>
</extensions>
</trkpt>
<trkpt lat="64.324478149" lon="-20.132980347">
<ele>216.750000</ele>
<time>2012-07-20T13:39:34Z</time>
<speed>4.540000</speed>
<extensions>
<speed>4.5</speed>
<temp>0.00</temp>
<bpm>0</bpm>
<rpm>0.00</rpm>
</extensions>
</trkpt>
<trkpt lat="64.324302673" lon="-20.133205414">
<ele>217.500000</ele>
<time>2012-07-20T13:39:39Z</time>
<speed>4.760000</speed>
<extensions>
<speed>4.8</speed>
<temp>0.00</temp>
<bpm>0</bpm>
<rpm>0.00</rpm>
</extensions>
</trkpt>
<trkpt lat="64.324104309" lon="-20.133434296">
<ele>218.765625</ele>
<time>2012-07-20T13:39:44Z</time>
<speed>4.910000</speed>
<extensions>
<speed>4.9</speed>
<temp>0.00</temp>
<bpm>0</bpm>
<rpm>0.00</rpm>
</extensions>
</trkpt>
<trkpt lat="64.323898315" lon="-20.133659363">
<ele>219.273438</ele>
<time>2012-07-20T13:39:49Z</time>
<speed>5.170000</speed>
<extensions>
<speed>5.2</speed>
<temp>0.00</temp>
<bpm>0</bpm>
<rpm>0.00</rpm>
</extensions>
</trkpt>
<trkpt lat="64.323699951" lon="-20.133844376">
<ele>219.820313</ele>
<time>2012-07-20T13:39:54Z</time>
<speed>4.600000</speed>
<extensions>
<speed>4.6</speed>
<temp>0.00</temp>
<bpm>0</bpm>
<rpm>0.00</rpm>
</extensions>
</trkpt>
<trkpt lat="64.323486328" lon="-20.134019852">
<ele>220.164063</ele>
<time>2012-07-20T13:39:59Z</time>
<speed>5.450000</speed>
<extensions>
<speed>5.5</speed>
<temp>0.00</temp>
<bpm>0</bpm>
<rpm>0.00</rpm>
</extensions>
</trkpt>
<trkpt lat="64.323226929" lon="-20.134187698">
<ele>219.078125</ele>
<time>2012-07-20T13:40:04Z</time>
<speed>5.770000</speed>
<extensions>
<speed>5.8</speed>
<temp>0.00</temp>
<bpm>0</bpm>
<rpm>0.00</rpm>
</extensions>
</trkpt>
<trkpt lat="64.322990417" lon="-20.134326935">
<ele>219.414063</ele>
<time>2012-07-20T13:40:09Z</time>
<speed>5.540000</speed>
<extensions>
<speed>5.5</speed>
<temp>0.00</temp>
<bpm>0</bpm>
<rpm>0.00</rpm>
</extensions>
</trkpt>
<trkpt lat="64.322746277" lon="-20.134447098">
<ele>219.238281</ele>
<time>2012-07-20T13:40:14Z</time>
<speed>5.160000</speed>
<extensions>
<speed>5.2</speed>
<temp>0.00</temp>
<bpm>0</bpm>
<rpm>0.00</rpm>
</extensions>
</trkpt>
<trkpt lat="64.322525024" lon="-20.134508133">
<ele>219.289063</ele>
<time>2012-07-20T13:40:19Z</time>
<speed>5.130000</speed>
<extensions>
<speed>5.1</speed>
<temp>0.00</temp>
<bpm>0</bpm>
<rpm>0.00</rpm>
</extensions>
</trkpt>
<trkpt lat="64.322288513" lon="-20.134565353">
<ele>219.218750</ele>
<time>2012-07-20T13:40:24Z</time>
<speed>5.470000</speed>
<extensions>
<speed>5.5</speed>
<temp>0.00</temp>
<bpm>0</bpm>
<rpm>0.00</rpm>
</extensions>
</trkpt>
<trkpt lat="64.322044373" lon="-20.134595871">
<ele>219.117188</ele>
<time>2012-07-20T13:40:29Z</time>
<speed>5.070000</speed>
<extensions>
<speed>5.1</speed>
<temp>0.00</temp>
<bpm>0</bpm>
<rpm>0.00</rpm>
</extensions>
</trkpt>
<trkpt lat="64.321815491" lon="-20.134590149">
<ele>218.539063</ele>
<time>2012-07-20T13:40:34Z</time>
<speed>5.190000</speed>
<extensions>
<speed>5.2</speed>
<temp>0.00</temp>
<bpm>0</bpm>
<rpm>0.00</rpm>
</extensions>
</trkpt>
<trkpt lat="64.321586609" lon="-20.134599686">
<ele>217.949219</ele>
<time>2012-07-20T13:40:39Z</time>
<speed>4.940000</speed>
<extensions>
<speed>4.9</speed>
<temp>0.00</temp>
<bpm>0</bpm>
<rpm>0.00</rpm>
</extensions>
</trkpt>
<trkpt lat="64.321357727" lon="-20.134588242">
<ele>216.859375</ele>
<time>2012-07-20T13:40:44Z</time>
<speed>5.520000</speed>
<extensions>
<speed>5.5</speed>
<temp>0.00</temp>
<bpm>0</bpm>
<rpm>0.00</rpm>
</extensions>
</trkpt>
<trkpt lat="64.321090698" lon="-20.134565353">
<ele>214.863281</ele>
<time>2012-07-20T13:40:49Z</time>
<speed>6.490000</speed>
<extensions>
<speed>6.5</speed>
<temp>0.00</temp>
<bpm>0</bpm>
<rpm>0.00</rpm>
</extensions>
</trkpt>
<trkpt lat="64.320770264" lon="-20.134609222">
<ele>212.121094</ele>
<time>2012-07-20T13:40:54Z</time>
<speed>7.580000</speed>
<extensions>
<speed>7.6</speed>
<temp>0.00</temp>
<bpm>0</bpm>
<rpm>0.00</rpm>
</extensions>
</trkpt>
<trkpt lat="64.320434570" lon="-20.134828568">
<ele>209.718750</ele>
<time>2012-07-20T13:40:59Z</time>
<speed>7.440000</speed>
<extensions>
<speed>7.4</speed>
<temp>0.00</temp>
<bpm>0</bpm>
<rpm>0.00</rpm>
</extensions>
</trkpt>
<trkpt lat="64.320159912" lon="-20.135242462">
<ele>208.429688</ele>
<time>2012-07-20T13:41:04Z</time>
<speed>7.070000</speed>
<extensions>
<speed>7.1</speed>
<temp>0.00</temp>
<bpm>0</bpm>
<rpm>0.00</rpm>
</extensions>
</trkpt>
<trkpt lat="64.319953918" lon="-20.135753632">
<ele>207.761719</ele>
<time>2012-07-20T13:41:09Z</time>
<speed>6.620000</speed>
<extensions>
<speed>6.6</speed>
<temp>0.00</temp>
<bpm>0</bpm>
<rpm>0.00</rpm>
</extensions>
</trkpt>
<trkpt lat="64.319755554" lon="-20.136262894">
<ele>207.468750</ele>
<time>2012-07-20T13:41:14Z</time>
<speed>6.330000</speed>
<extensions>
<speed>6.3</speed>
<temp>0.00</temp>
<bpm>0</bpm>
<rpm>0.00</rpm>
</extensions>
</trkpt>
<trkpt lat="64.319534302" lon="-20.136734009">
<ele>203.015625</ele>
<time>2012-07-20T13:41:19Z</time>
<speed>6.380000</speed>
<extensions>
<speed>6.4</speed>
<temp>0.00</temp>
<bpm>0</bpm>
<rpm>0.00</rpm>
</extensions>
</trkpt>
<trkpt lat="64.319328308" lon="-20.137220383">
<ele>203.722656</ele>
<time>2012-07-20T13:41:24Z</time>
<speed>6.590000</speed>
<extensions>
<speed>6.6</speed>
<temp>0.00</temp>
<bpm>0</bpm>
<rpm>0.00</rpm>
</extensions>
</trkpt>
<trkpt lat="64.319107056" lon="-20.137668610">
<ele>203.910156</ele>
<time>2012-07-20T13:41:29Z</time>
<speed>6.630000</speed>
<extensions>
<speed>6.6</speed>
<temp>0.00</temp>
<bpm>0</bpm>
<rpm>0.00</rpm>
</extensions>
</trkpt>
<trkpt lat="64.318870544" lon="-20.138078690">
<ele>204.644531</ele>
<time>2012-07-20T13:41:34Z</time>
<speed>6.710000</speed>
<extensions>
<speed>6.7</speed>
<temp>0.00</temp>
<bpm>0</bpm>
<rpm>0.00</rpm>
</extensions>
</trkpt>
<trkpt lat="64.318618774" lon="-20.138442993">
<ele>204.589844</ele>
<time>2012-07-20T13:41:39Z</time>
<speed>6.430000</speed>
<extensions>
<speed>6.4</speed>
<temp>0.00</temp>
<bpm>0</bpm>
<rpm>0.00</rpm>
</extensions>
</trkpt>
<trkpt lat="64.318405151" lon="-20.138811111">
<ele>204.699219</ele>
<time>2012-07-20T13:41:44Z</time>
<speed>6.010000</speed>
<extensions>
<speed>6.0</speed>
<temp>0.00</temp>
<bpm>0</bpm>
<rpm>0.00</rpm>
</extensions>
</trkpt>
<trkpt lat="64.318206787" lon="-20.139177322">
<ele>205.101563</ele>
<time>2012-07-20T13:41:49Z</time>
<speed>5.080000</speed>
<extensions>
<speed>5.1</speed>
<temp>0.00</temp>
<bpm>0</bpm>
<rpm>0.00</rpm>
</extensions>
</trkpt>
<trkpt lat="64.318046570" lon="-20.139495850">
<ele>205.570313</ele>
<time>2012-07-20T13:41:54Z</time>
<speed>4.710000</speed>
<extensions>
<speed>4.7</speed>
<temp>0.00</temp>
<bpm>0</bpm>
<rpm>0.00</rpm>
</extensions>
</trkpt>
<trkpt lat="64.317901611" lon="-20.139823914">
<ele>205.792969</ele>
<time>2012-07-20T13:41:59Z</time>
<speed>4.630000</speed>
<extensions>
<speed>4.6</speed>
<temp>0.00</temp>
<bpm>0</bpm>
<rpm>0.00</rpm>
</extensions>
</trkpt>
<trkpt lat="64.317794800" lon="-20.140155792">
<ele>205.593750</ele>
<time>2012-07-20T13:42:04Z</time>
<speed>3.290000</speed>
<extensions>
<speed>3.3</speed>
<temp>0.00</temp>
<bpm>0</bpm>
<rpm>0.00</rpm>
</extensions>
</trkpt>
<trkpt lat="64.317695618" lon="-20.140476227">
<ele>205.980469</ele>
<time>2012-07-20T13:42:09Z</time>
<speed>4.160000</speed>
<extensions>
<speed>4.2</speed>
<temp>0.00</temp>
<bpm>0</bpm>
<rpm>0.00</rpm>
</extensions>
</trkpt>
<trkpt lat="64.317596436" lon="-20.140825272">
<ele>205.824219</ele>
<time>2012-07-20T13:42:14Z</time>
<speed>4.100000</speed>
<extensions>
<speed>4.1</speed>
<temp>0.00</temp>
<bpm>0</bpm>
<rpm>0.00</rpm>
</extensions>
</trkpt>
<trkpt lat="64.317520142" lon="-20.141164780">
<ele>207.054688</ele>
<time>2012-07-20T13:42:19Z</time>
<speed>3.590000</speed>
<extensions>
<speed>3.6</speed>
<temp>0.00</temp>
<bpm>0</bpm>
<rpm>0.00</rpm>
</extensions>
</trkpt>
<trkpt lat="64.317443848" lon="-20.141511917">
<ele>205.304688</ele>
<time>2012-07-20T13:42:24Z</time>
<speed>3.700000</speed>
<extensions>
<speed>3.7</speed>
<temp>0.00</temp>
<bpm>0</bpm>
<rpm>0.00</rpm>
</extensions>
</trkpt>
<trkpt lat="64.317359924" lon="-20.141876221">
<ele>203.917969</ele>
<time>2012-07-20T13:42:29Z</time>
<speed>4.290000</speed>
<extensions>
<speed>4.3</speed>
<temp>0.00</temp>
<bpm>0</bpm>
<rpm>0.00</rpm>
</extensions>
</trkpt>
<trkpt lat="64.317276001" lon="-20.142267227">
<ele>204.847656</ele>
<time>2012-07-20T13:42:34Z</time>
<speed>4.430000</speed>
<extensions>
<speed>4.4</speed>
<temp>0.00</temp>
<bpm>0</bpm>
<rpm>0.00</rpm>
</extensions>
</trkpt>
<trkpt lat="64.317176819" lon="-20.142700195">
<ele>204.140625</ele>
<time>2012-07-20T13:42:39Z</time>
<speed>4.960000</speed>
<extensions>
<speed>5.0</speed>
<temp>0.00</temp>
<bpm>0</bpm>
<rpm>0.00</rpm>
</extensions>
</trkpt>
<trkpt lat="64.317077637" lon="-20.143167496">
<ele>204.582031</ele>
<time>2012-07-20T13:42:44Z</time>
<speed>4.780000</speed>
<extensions>
<speed>4.8</speed>
<temp>0.00</temp>
<bpm>0</bpm>
<rpm>0.00</rpm>
</extensions>
</trkpt>
<trkpt lat="64.316978455" lon="-20.143592834">
<ele>204.742188</ele>
<time>2012-07-20T13:42:49Z</time>
<speed>4.880000</speed>
<extensions>
<speed>4.9</speed>
<temp>0.00</temp>
<bpm>0</bpm>
<rpm>0.00</rpm>
</extensions>
</trkpt>
<trkpt lat="64.316886902" lon="-20.144018173">
<ele>206.074219</ele>
<time>2012-07-20T13:42:54Z</time>
<speed>4.190000</speed>
<extensions>
<speed>4.2</speed>
<temp>0.00</temp>
<bpm>0</bpm>
<rpm>0.00</rpm>
</extensions>
</trkpt>
<trkpt lat="64.316810608" lon="-20.144437790">
<ele>205.324219</ele>
<time>2012-07-20T13:42:59Z</time>
<speed>4.650000</speed>
<extensions>
<speed>4.6</speed>
<temp>0.00</temp>
<bpm>0</bpm>
<rpm>0.00</rpm>
</extensions>
</trkpt>
<trkpt lat="64.316719055" lon="-20.144872665">
<ele>205.804688</ele>
<time>2012-07-20T13:43:04Z</time>
<speed>4.600000</speed>
<extensions>
<speed>4.6</speed>
<temp>0.00</temp>
<bpm>0</bpm>
<rpm>0.00</rpm>
</extensions>
</trkpt>
<trkpt lat="64.316627502" lon="-20.145267487">
<ele>204.875000</ele>
<time>2012-07-20T13:43:09Z</time>
<speed>4.270000</speed>
<extensions>
<speed>4.3</speed>
<temp>0.00</temp>
<bpm>0</bpm>
<rpm>0.00</rpm>
</extensions>
</trkpt>
<trkpt lat="64.316535950" lon="-20.145650864">
<ele>205.757813</ele>
<time>2012-07-20T13:43:14Z</time>
<speed>4.030000</speed>
<extensions>
<speed>4.0</speed>
<temp>0.00</temp>
<bpm>0</bpm>
<rpm>0.00</rpm>
</extensions>
</trkpt>
<trkpt lat="64.316444397" lon="-20.146020889">
<ele>206.039063</ele>
<time>2012-07-20T13:43:19Z</time>
<speed>4.090000</speed>
<extensions>
<speed>4.1</speed>
<temp>0.00</temp>
<bpm>0</bpm>
<rpm>0.00</rpm>
</extensions>
</trkpt>
<trkpt lat="64.316345215" lon="-20.146390915">
<ele>205.925781</ele>
<time>2012-07-20T13:43:24Z</time>
<speed>4.240000</speed>
<extensions>
<speed>4.2</speed>
<temp>0.00</temp>
<bpm>0</bpm>
<rpm>0.00</rpm>
</extensions>
</trkpt>
<trkpt lat="64.316230774" lon="-20.146772385">
<ele>206.148438</ele>
<time>2012-07-20T13:43:29Z</time>
<speed>4.590000</speed>
<extensions>
<speed>4.6</speed>
<temp>0.00</temp>
<bpm>0</bpm>
<rpm>0.00</rpm>
</extensions>
</trkpt>
<trkpt lat="64.316093445" lon="-20.147138596">
<ele>205.152344</ele>
<time>2012-07-20T13:43:34Z</time>
<speed>4.710000</speed>
<extensions>
<speed>4.7</speed>
<temp>0.00</temp>
<bpm>0</bpm>
<rpm>0.00</rpm>
</extensions>
</trkpt>
<trkpt lat="64.315956116" lon="-20.147474289">
<ele>205.500000</ele>
<time>2012-07-20T13:43:39Z</time>
<speed>4.420000</speed>
<extensions>
<speed>4.4</speed>
<temp>0.00</temp>
<bpm>0</bpm>
<rpm>0.00</rpm>
</extensions>
</trkpt>
<trkpt lat="64.315811157" lon="-20.147800446">
<ele>204.882813</ele>
<time>2012-07-20T13:43:44Z</time>
<speed>4.900000</speed>
<extensions>
<speed>4.9</speed>
<temp>0.00</temp>
<bpm>0</bpm>
<rpm>0.00</rpm>
</extensions>
</trkpt>
<trkpt lat="64.315650940" lon="-20.148157120">
<ele>203.414063</ele>
<time>2012-07-20T13:43:49Z</time>
<speed>5.080000</speed>
<extensions>
<speed>5.1</speed>
<temp>0.00</temp>
<bpm>0</bpm>
<rpm>0.00</rpm>
</extensions>
</trkpt>
<trkpt lat="64.315460205" lon="-20.148553848">
<ele>202.339844</ele>
<time>2012-07-20T13:43:54Z</time>
<speed>6.570000</speed>
<extensions>
<speed>6.6</speed>
<temp>0.00</temp>
<bpm>0</bpm>
<rpm>0.00</rpm>
</extensions>
</trkpt>
<trkpt lat="64.315208435" lon="-20.149040222">
<ele>200.609375</ele>
<time>2012-07-20T13:43:59Z</time>
<speed>7.720000</speed>
<extensions>
<speed>7.7</speed>
<temp>0.00</temp>
<bpm>0</bpm>
<rpm>0.00</rpm>
</extensions>
</trkpt>
<trkpt lat="64.314926147" lon="-20.149572372">
<ele>198.292969</ele>
<time>2012-07-20T13:44:04Z</time>
<speed>8.490000</speed>
<extensions>
<speed>8.5</speed>
<temp>0.00</temp>
<bpm>0</bpm>
<rpm>0.00</rpm>
</extensions>
</trkpt>
<trkpt lat="64.314628601" lon="-20.150131226">
<ele>196.695313</ele>
<time>2012-07-20T13:44:09Z</time>
<speed>8.460000</speed>
<extensions>
<speed>8.5</speed>
<temp>0.00</temp>
<bpm>0</bpm>
<rpm>0.00</rpm>
</extensions>
</trkpt>
<trkpt lat="64.314346313" lon="-20.150648117">
<ele>195.464844</ele>
<time>2012-07-20T13:44:14Z</time>
<speed>7.440000</speed>
<extensions>
<speed>7.4</speed>
<temp>0.00</temp>
<bpm>0</bpm>
<rpm>0.00</rpm>
</extensions>
</trkpt>
<trkpt lat="64.314117432" lon="-20.151088715">
<ele>194.312500</ele>
<time>2012-07-20T13:44:19Z</time>
<speed>5.940000</speed>
<extensions>
<speed>5.9</speed>
<temp>0.00</temp>
<bpm>0</bpm>
<rpm>0.00</rpm>
</extensions>
</trkpt>
<trkpt lat="64.313934326" lon="-20.151433945">
<ele>194.664063</ele>
<time>2012-07-20T13:44:24Z</time>
<speed>4.810000</speed>
<extensions>
<speed>4.8</speed>
<temp>0.00</temp>
<bpm>0</bpm>
<rpm>0.00</rpm>
</extensions>
</trkpt>
<trkpt lat="64.313781738" lon="-20.151731491">
<ele>194.570313</ele>
<time>2012-07-20T13:44:29Z</time>
<speed>4.620000</speed>
<extensions>
<speed>4.6</speed>
<temp>0.00</temp>
<bpm>0</bpm>
<rpm>0.00</rpm>
</extensions>
</trkpt>
<trkpt lat="64.313636780" lon="-20.152021408">
<ele>197.160156</ele>
<time>2012-07-20T13:44:34Z</time>
<speed>4.520000</speed>
<extensions>
<speed>4.5</speed>
<temp>0.00</temp>
<bpm>0</bpm>
<rpm>0.00</rpm>
</extensions>
</trkpt>
<trkpt lat="64.313491821" lon="-20.152294159">
<ele>197.183594</ele>
<time>2012-07-20T13:44:39Z</time>
<speed>4.250000</speed>
<extensions>
<speed>4.3</speed>
<temp>0.00</temp>
<bpm>0</bpm>
<rpm>0.00</rpm>
</extensions>
</trkpt>
<trkpt lat="64.313346863" lon="-20.152576447">
<ele>197.152344</ele>
<time>2012-07-20T13:44:44Z</time>
<speed>4.570000</speed>
<extensions>
<speed>4.6</speed>
<temp>0.00</temp>
<bpm>0</bpm>
<rpm>0.00</rpm>
</extensions>
</trkpt>
<trkpt lat="64.313163757" lon="-20.152933121">
<ele>197.113281</ele>
<time>2012-07-20T13:44:49Z</time>
<speed>5.240000</speed>
<extensions>
<speed>5.2</speed>
<temp>0.00</temp>
<bpm>0</bpm>
<rpm>0.00</rpm>
</extensions>
</trkpt>
<trkpt lat="64.312995911" lon="-20.153226852">
<ele>196.753906</ele>
<time>2012-07-20T13:44:54Z</time>
<speed>4.220000</speed>
<extensions>
<speed>4.2</speed>
<temp>0.00</temp>
<bpm>0</bpm>
<rpm>0.00</rpm>
</extensions>
</trkpt>
<trkpt lat="64.312835693" lon="-20.153507233">
<ele>190.308594</ele>
<time>2012-07-20T13:44:59Z</time>
<speed>4.560000</speed>
<extensions>
<speed>4.6</speed>
<temp>0.00</temp>
<bpm>0</bpm>
<rpm>0.00</rpm>
</extensions>
</trkpt>
<trkpt lat="64.312675476" lon="-20.153829575">
<ele>188.558594</ele>
<time>2012-07-20T13:45:04Z</time>
<speed>4.990000</speed>
<extensions>
<speed>5.0</speed>
<temp>0.00</temp>
<bpm>0</bpm>
<rpm>0.00</rpm>
</extensions>
</trkpt>
<trkpt lat="64.312507629" lon="-20.154151917">
<ele>190.457031</ele>
<time>2012-07-20T13:45:09Z</time>
<speed>4.510000</speed>
<extensions>
<speed>4.5</speed>
<temp>0.00</temp>
<bpm>0</bpm>
<rpm>0.00</rpm>
</extensions>
</trkpt>
<trkpt lat="64.312339783" lon="-20.154453278">
<ele>188.855469</ele>
<time>2012-07-20T13:45:14Z</time>
<speed>4.660000</speed>
<extensions>
<speed>4.7</speed>
<temp>0.00</temp>
<bpm>0</bpm>
<rpm>0.00</rpm>
</extensions>
</trkpt>
<trkpt lat="64.312179565" lon="-20.154720306">
<ele>189.074219</ele>
<time>2012-07-20T13:45:19Z</time>
<speed>4.310000</speed>
<extensions>
<speed>4.3</speed>
<temp>0.00</temp>
<bpm>0</bpm>
<rpm>0.00</rpm>
</extensions>
</trkpt>
<trkpt lat="64.312034607" lon="-20.155006409">
<ele>189.097656</ele>
<time>2012-07-20T13:45:24Z</time>
<speed>4.190000</speed>
<extensions>
<speed>4.2</speed>
<temp>0.00</temp>
<bpm>0</bpm>
<rpm>0.00</rpm>
</extensions>
</trkpt>
<trkpt lat="64.311904907" lon="-20.155281067">
<ele>189.113281</ele>
<time>2012-07-20T13:45:29Z</time>
<speed>4.050000</speed>
<extensions>
<speed>4.0</speed>
<temp>0.00</temp>
<bpm>0</bpm>
<rpm>0.00</rpm>
</extensions>
</trkpt>
<trkpt lat="64.311737061" lon="-20.155595779">
<ele>189.015625</ele>
<time>2012-07-20T13:45:34Z</time>
<speed>5.170000</speed>
<extensions>
<speed>5.2</speed>
<temp>0.00</temp>
<bpm>0</bpm>
<rpm>0.00</rpm>
</extensions>
</trkpt>
<trkpt lat="64.311561584" lon="-20.155929565">
<ele>189.812500</ele>
<time>2012-07-20T13:45:39Z</time>
<speed>4.960000</speed>
<extensions>
<speed>5.0</speed>
<temp>0.00</temp>
<bpm>0</bpm>
<rpm>0.00</rpm>
</extensions>
</trkpt>
<trkpt lat="64.311370850" lon="-20.156282425">
<ele>190.468750</ele>
<time>2012-07-20T13:45:44Z</time>
<speed>5.560000</speed>
<extensions>
<speed>5.6</speed>
<temp>0.00</temp>
<bpm>0</bpm>
<rpm>0.00</rpm>
</extensions>
</trkpt>
<trkpt lat="64.311180115" lon="-20.156639099">
<ele>190.406250</ele>
<time>2012-07-20T13:45:49Z</time>
<speed>5.030000</speed>
<extensions>
<speed>5.0</speed>
<temp>0.00</temp>
<bpm>0</bpm>
<rpm>0.00</rpm>
</extensions>
</trkpt>
<trkpt lat="64.311004639" lon="-20.156991959">
<ele>190.273438</ele>
<time>2012-07-20T13:45:54Z</time>
<speed>5.490000</speed>
<extensions>
<speed>5.5</speed>
<temp>0.00</temp>
<bpm>0</bpm>
<rpm>0.00</rpm>
</extensions>
</trkpt>
<trkpt lat="64.310806274" lon="-20.157356262">
<ele>190.113281</ele>
<time>2012-07-20T13:45:59Z</time>
<speed>5.550000</speed>
<extensions>
<speed>5.5</speed>
<temp>0.00</temp>
<bpm>0</bpm>
<rpm>0.00</rpm>
</extensions>
</trkpt>
<trkpt lat="64.310615540" lon="-20.157726288">
<ele>189.781250</ele>
<time>2012-07-20T13:46:04Z</time>
<speed>5.710000</speed>
<extensions>
<speed>5.7</speed>
<temp>0.00</temp>
<bpm>0</bpm>
<rpm>0.00</rpm>
</extensions>
</trkpt>
<trkpt lat="64.310424805" lon="-20.158081055">
<ele>189.671875</ele>
<time>2012-07-20T13:46:09Z</time>
<speed>5.510000</speed>
<extensions>
<speed>5.5</speed>
<temp>0.00</temp>
<bpm>0</bpm>
<rpm>0.00</rpm>
</extensions>
</trkpt>
<trkpt lat="64.310218811" lon="-20.158470154">
<ele>188.992188</ele>
<time>2012-07-20T13:46:14Z</time>
<speed>6.200000</speed>
<extensions>
<speed>6.2</speed>
<temp>0.00</temp>
<bpm>0</bpm>
<rpm>0.00</rpm>
</extensions>
</trkpt>
<trkpt lat="64.309989929" lon="-20.158893585">
<ele>188.359375</ele>
<time>2012-07-20T13:46:19Z</time>
<speed>6.690000</speed>
<extensions>
<speed>6.7</speed>
<temp>0.00</temp>
<bpm>0</bpm>
<rpm>0.00</rpm>
</extensions>
</trkpt>
<trkpt lat="64.309753418" lon="-20.159353256">
<ele>186.601563</ele>
<time>2012-07-20T13:46:24Z</time>
<speed>6.880000</speed>
<extensions>
<speed>6.9</speed>
<temp>0.00</temp>
<bpm>0</bpm>
<rpm>0.00</rpm>
</extensions>
</trkpt>
<trkpt lat="64.309516907" lon="-20.159799576">
<ele>185.304688</ele>
<time>2012-07-20T13:46:29Z</time>
<speed>6.830000</speed>
<extensions>
<speed>6.8</speed>
<temp>0.00</temp>
<bpm>0</bpm>
<rpm>0.00</rpm>
</extensions>
</trkpt>
<trkpt lat="64.309272766" lon="-20.160257339">
<ele>184.671875</ele>
<time>2012-07-20T13:46:34Z</time>
<speed>6.740000</speed>
<extensions>
<speed>6.7</speed>
<temp>0.00</temp>
<bpm>0</bpm>
<rpm>0.00</rpm>
</extensions>
</trkpt>
<trkpt lat="64.309051514" lon="-20.160686493">
<ele>184.929688</ele>
<time>2012-07-20T13:46:39Z</time>
<speed>6.470000</speed>
<extensions>
<speed>6.5</speed>
<temp>0.00</temp>
<bpm>0</bpm>
<rpm>0.00</rpm>
</extensions>
</trkpt>
<trkpt lat="64.308830261" lon="-20.161108017">
<ele>185.281250</ele>
<time>2012-07-20T13:46:44Z</time>
<speed>6.270000</speed>
<extensions>
<speed>6.3</speed>
<temp>0.00</temp>
<bpm>0</bpm>
<rpm>0.00</rpm>
</extensions>
</trkpt>
<trkpt lat="64.308616638" lon="-20.161499023">
<ele>185.257813</ele>
<time>2012-07-20T13:46:49Z</time>
<speed>5.750000</speed>
<extensions>
<speed>5.8</speed>
<temp>0.00</temp>
<bpm>0</bpm>
<rpm>0.00</rpm>
</extensions>
</trkpt>
<trkpt lat="64.308433533" lon="-20.161863327">
<ele>185.835938</ele>
<time>2012-07-20T13:46:54Z</time>
<speed>5.180000</speed>
<extensions>
<speed>5.2</speed>
<temp>0.00</temp>
<bpm>0</bpm>
<rpm>0.00</rpm>
</extensions>
</trkpt>
<trkpt lat="64.308258057" lon="-20.162189484">
<ele>185.328125</ele>
<time>2012-07-20T13:46:59Z</time>
<speed>5.190000</speed>
<extensions>
<speed>5.2</speed>
<temp>0.00</temp>
<bpm>0</bpm>
<rpm>0.00</rpm>
</extensions>
</trkpt>
<trkpt lat="64.308082581" lon="-20.162525177">
<ele>185.546875</ele>
<time>2012-07-20T13:47:04Z</time>
<speed>4.900000</speed>
<extensions>
<speed>4.9</speed>
<temp>0.00</temp>
<bpm>0</bpm>
<rpm>0.00</rpm>
</extensions>
</trkpt>
<trkpt lat="64.307914734" lon="-20.162855148">
<ele>185.328125</ele>
<time>2012-07-20T13:47:09Z</time>
<speed>4.870000</speed>
<extensions>
<speed>4.9</speed>
<temp>0.00</temp>
<bpm>0</bpm>
<rpm>0.00</rpm>
</extensions>
</trkpt>
<trkpt lat="64.307746887" lon="-20.163169861">
<ele>185.152344</ele>
<time>2012-07-20T13:47:14Z</time>
<speed>4.920000</speed>
<extensions>
<speed>4.9</speed>
<temp>0.00</temp>
<bpm>0</bpm>
<rpm>0.00</rpm>
</extensions>
</trkpt>
<trkpt lat="64.307571411" lon="-20.163518906">
<ele>184.898438</ele>
<time>2012-07-20T13:47:19Z</time>
<speed>5.340000</speed>
<extensions>
<speed>5.3</speed>
<temp>0.00</temp>
<bpm>0</bpm>
<rpm>0.00</rpm>
</extensions>
</trkpt>
<trkpt lat="64.307380676" lon="-20.163873672">
<ele>184.656250</ele>
<time>2012-07-20T13:47:24Z</time>
<speed>5.610000</speed>
<extensions>
<speed>5.6</speed>
<temp>0.00</temp>
<bpm>0</bpm>
<rpm>0.00</rpm>
</extensions>
</trkpt>
<trkpt lat="64.307182312" lon="-20.164255142">
<ele>184.324219</ele>
<time>2012-07-20T13:47:29Z</time>
<speed>5.820000</speed>
<extensions>
<speed>5.8</speed>
<temp>0.00</temp>
<bpm>0</bpm>
<rpm>0.00</rpm>
</extensions>
</trkpt>
<trkpt lat="64.306991577" lon="-20.164628983">
<ele>184.605469</ele>
<time>2012-07-20T13:47:34Z</time>
<speed>5.470000</speed>
<extensions>
<speed>5.5</speed>
<temp>0.00</temp>
<bpm>0</bpm>
<rpm>0.00</rpm>
</extensions>
</trkpt>
<trkpt lat="64.306808472" lon="-20.165021896">
<ele>184.121094</ele>
<time>2012-07-20T13:47:39Z</time>
<speed>5.710000</speed>
<extensions>
<speed>5.7</speed>
<temp>0.00</temp>
<bpm>0</bpm>
<rpm>0.00</rpm>
</extensions>
</trkpt>
<trkpt lat="64.306632996" lon="-20.165451050">
<ele>183.066406</ele>
<time>2012-07-20T13:47:44Z</time>
<speed>5.900000</speed>
<extensions>
<speed>5.9</speed>
<temp>0.00</temp>
<bpm>0</bpm>
<rpm>0.00</rpm>
</extensions>
</trkpt>
<trkpt lat="64.306457520" lon="-20.165924072">
<ele>182.531250</ele>
<time>2012-07-20T13:47:49Z</time>
<speed>5.900000</speed>
<extensions>
<speed>5.9</speed>
<temp>0.00</temp>
<bpm>0</bpm>
<rpm>0.00</rpm>
</extensions>
</trkpt>
<trkpt lat="64.306297302" lon="-20.166425705">
<ele>182.238281</ele>
<time>2012-07-20T13:47:54Z</time>
<speed>6.150000</speed>
<extensions>
<speed>6.1</speed>
<temp>0.00</temp>
<bpm>0</bpm>
<rpm>0.00</rpm>
</extensions>
</trkpt>
<trkpt lat="64.306152344" lon="-20.166959763">
<ele>183.324219</ele>
<time>2012-07-20T13:47:59Z</time>
<speed>5.920000</speed>
<extensions>
<speed>5.9</speed>
<temp>0.00</temp>
<bpm>0</bpm>
<rpm>0.00</rpm>
</extensions>
</trkpt>
<trkpt lat="64.306030273" lon="-20.167490005">
<ele>183.222656</ele>
<time>2012-07-20T13:48:04Z</time>
<speed>5.750000</speed>
<extensions>
<speed>5.8</speed>
<temp>0.00</temp>
<bpm>0</bpm>
<rpm>0.00</rpm>
</extensions>
</trkpt>
<trkpt lat="64.305938721" lon="-20.167974472">
<ele>184.105469</ele>
<time>2012-07-20T13:48:09Z</time>
<speed>4.130000</speed>
<extensions>
<speed>4.1</speed>
<temp>0.00</temp>
<bpm>0</bpm>
<rpm>0.00</rpm>
</extensions>
</trkpt>
<trkpt lat="64.305877686" lon="-20.168340683">
<ele>184.832031</ele>
<time>2012-07-20T13:48:14Z</time>
<speed>3.650000</speed>
<extensions>
<speed>3.7</speed>
<temp>0.00</temp>
<bpm>0</bpm>
<rpm>0.00</rpm>
</extensions>
</trkpt>
<trkpt lat="64.305831909" lon="-20.168664932">
<ele>184.996094</ele>
<time>2012-07-20T13:48:19Z</time>
<speed>3.080000</speed>
<extensions>
<speed>3.1</speed>
<temp>0.00</temp>
<bpm>0</bpm>
<rpm>0.00</rpm>
</extensions>
</trkpt>
<trkpt lat="64.305793762" lon="-20.168996811">
<ele>185.250000</ele>
<time>2012-07-20T13:48:24Z</time>
<speed>3.170000</speed>
<extensions>
<speed>3.2</speed>
<temp>0.00</temp>
<bpm>0</bpm>
<rpm>0.00</rpm>
</extensions>
</trkpt>
<trkpt lat="64.305755615" lon="-20.169345856">
<ele>186.113281</ele>
<time>2012-07-20T13:48:29Z</time>
<speed>3.460000</speed>
<extensions>
<speed>3.5</speed>
<temp>0.00</temp>
<bpm>0</bpm>
<rpm>0.00</rpm>
</extensions>
</trkpt>
<trkpt lat="64.305725098" lon="-20.169710159">
<ele>187.453125</ele>
<time>2012-07-20T13:48:34Z</time>
<speed>3.660000</speed>
<extensions>
<speed>3.7</speed>
<temp>0.00</temp>
<bpm>0</bpm>
<rpm>0.00</rpm>
</extensions>
</trkpt>
<trkpt lat="64.305702209" lon="-20.170104980">
<ele>188.695313</ele>
<time>2012-07-20T13:48:39Z</time>
<speed>3.910000</speed>
<extensions>
<speed>3.9</speed>
<temp>0.00</temp>
<bpm>0</bpm>
<rpm>0.00</rpm>
</extensions>
</trkpt>
<trkpt lat="64.305686951" lon="-20.170440674">
<ele>188.484375</ele>
<time>2012-07-20T13:48:44Z</time>
<speed>3.000000</speed>
<extensions>
<speed>3.0</speed>
<temp>0.00</temp>
<bpm>0</bpm>
<rpm>0.00</rpm>
</extensions>
</trkpt>
<trkpt lat="64.305664063" lon="-20.170791626">
<ele>189.289063</ele>
<time>2012-07-20T13:48:49Z</time>
<speed>3.440000</speed>
<extensions>
<speed>3.4</speed>
<temp>0.00</temp>
<bpm>0</bpm>
<rpm>0.00</rpm>
</extensions>
</trkpt>
<trkpt lat="64.305648804" lon="-20.171144485">
<ele>189.398438</ele>
<time>2012-07-20T13:48:54Z</time>
<speed>3.780000</speed>
<extensions>
<speed>3.8</speed>
<temp>0.00</temp>
<bpm>0</bpm>
<rpm>0.00</rpm>
</extensions>
</trkpt>
<trkpt lat="64.305625916" lon="-20.171552658">
<ele>190.375000</ele>
<time>2012-07-20T13:48:59Z</time>
<speed>3.530000</speed>
<extensions>
<speed>3.5</speed>
<temp>0.00</temp>
<bpm>0</bpm>
<rpm>0.00</rpm>
</extensions>
</trkpt>
<trkpt lat="64.305625916" lon="-20.171903610">
<ele>190.957031</ele>
<time>2012-07-20T13:49:04Z</time>
<speed>3.890000</speed>
<extensions>
<speed>3.9</speed>
<temp>0.00</temp>
<bpm>0</bpm>
<rpm>0.00</rpm>
</extensions>
</trkpt>
<trkpt lat="64.305618286" lon="-20.172328949">
<ele>190.871094</ele>
<time>2012-07-20T13:49:09Z</time>
<speed>4.220000</speed>
<extensions>
<speed>4.2</speed>
<temp>0.00</temp>
<bpm>0</bpm>
<rpm>0.00</rpm>
</extensions>
</trkpt>
<trkpt lat="64.305603027" lon="-20.172742844">
<ele>191.000000</ele>
<time>2012-07-20T13:49:14Z</time>
<speed>4.120000</speed>
<extensions>
<speed>4.1</speed>
<temp>0.00</temp>
<bpm>0</bpm>
<rpm>0.00</rpm>
</extensions>
</trkpt>
<trkpt lat="64.305603027" lon="-20.173196793">
<ele>190.320313</ele>
<time>2012-07-20T13:49:19Z</time>
<speed>4.440000</speed>
<extensions>
<speed>4.4</speed>
<temp>0.00</temp>
<bpm>0</bpm>
<rpm>0.00</rpm>
</extensions>
</trkpt>
<trkpt lat="64.305595398" lon="-20.173599243">
<ele>190.394531</ele>
<time>2012-07-20T13:49:24Z</time>
<speed>3.860000</speed>
<extensions>
<speed>3.9</speed>
<temp>0.00</temp>
<bpm>0</bpm>
<rpm>0.00</rpm>
</extensions>
</trkpt>
<trkpt lat="64.305595398" lon="-20.174037933">
<ele>190.261719</ele>
<time>2012-07-20T13:49:29Z</time>
<speed>4.220000</speed>
<extensions>
<speed>4.2</speed>
<temp>0.00</temp>
<bpm>0</bpm>
<rpm>0.00</rpm>
</extensions>
</trkpt>
<trkpt lat="64.305595398" lon="-20.174455643">
<ele>189.726563</ele>
<time>2012-07-20T13:49:34Z</time>
<speed>4.320000</speed>
<extensions>
<speed>4.3</speed>
<temp>0.00</temp>
<bpm>0</bpm>
<rpm>0.00</rpm>
</extensions>
</trkpt>
<trkpt lat="64.305587769" lon="-20.174936295">
<ele>189.632813</ele>
<time>2012-07-20T13:49:39Z</time>
<speed>4.830000</speed>
<extensions>
<speed>4.8</speed>
<temp>0.00</temp>
<bpm>0</bpm>
<rpm>0.00</rpm>
</extensions>
</trkpt>
<trkpt lat="64.305587769" lon="-20.175462723">
<ele>189.113281</ele>
<time>2012-07-20T13:49:44Z</time>
<speed>5.210000</speed>
<extensions>
<speed>5.2</speed>
<temp>0.00</temp>
<bpm>0</bpm>
<rpm>0.00</rpm>
</extensions>
</trkpt>
<trkpt lat="64.305580139" lon="-20.176002502">
<ele>189.183594</ele>
<time>2012-07-20T13:49:49Z</time>
<speed>5.200000</speed>
<extensions>
<speed>5.2</speed>
<temp>0.00</temp>
<bpm>0</bpm>
<rpm>0.00</rpm>
</extensions>
</trkpt>
<trkpt lat="64.305595398" lon="-20.176511765">
<ele>189.480469</ele>
<time>2012-07-20T13:49:54Z</time>
<speed>4.950000</speed>
<extensions>
<speed>4.9</speed>
<temp>0.00</temp>
<bpm>0</bpm>
<rpm>0.00</rpm>
</extensions>
</trkpt>
<trkpt lat="64.305595398" lon="-20.177045822">
<ele>189.617188</ele>
<time>2012-07-20T13:49:59Z</time>
<speed>5.150000</speed>
<extensions>
<speed>5.2</speed>
<temp>0.00</temp>
<bpm>0</bpm>
<rpm>0.00</rpm>
</extensions>
</trkpt>
<trkpt lat="64.305587769" lon="-20.177577972">
<ele>189.933594</ele>
<time>2012-07-20T13:50:04Z</time>
<speed>4.820000</speed>
<extensions>
<speed>4.8</speed>
<temp>0.00</temp>
<bpm>0</bpm>
<rpm>0.00</rpm>
</extensions>
</trkpt>
<trkpt lat="64.305595398" lon="-20.178030014">
<ele>190.218750</ele>
<time>2012-07-20T13:50:09Z</time>
<speed>4.070000</speed>
<extensions>
<speed>4.1</speed>
<temp>0.00</temp>
<bpm>0</bpm>
<rpm>0.00</rpm>
</extensions>
</trkpt>
<trkpt lat="64.305587769" lon="-20.178476334">
<ele>190.296875</ele>
<time>2012-07-20T13:50:14Z</time>
<speed>4.620000</speed>
<extensions>
<speed>4.6</speed>
<temp>0.00</temp>
<bpm>0</bpm>
<rpm>0.00</rpm>
</extensions>
</trkpt>
<trkpt lat="64.305587769" lon="-20.178968430">
<ele>190.179688</ele>
<time>2012-07-20T13:50:19Z</time>
<speed>4.860000</speed>
<extensions>
<speed>4.9</speed>
<temp>0.00</temp>
<bpm>0</bpm>
<rpm>0.00</rpm>
</extensions>
</trkpt>
<trkpt lat="64.305587769" lon="-20.179477692">
<ele>190.132813</ele>
<time>2012-07-20T13:50:24Z</time>
<speed>4.690000</speed>
<extensions>
<speed>4.7</speed>
<temp>0.00</temp>
<bpm>0</bpm>
<rpm>0.00</rpm>
</extensions>
</trkpt>
<trkpt lat="64.305580139" lon="-20.179925919">
<ele>189.812500</ele>
<time>2012-07-20T13:50:29Z</time>
<speed>4.120000</speed>
<extensions>
<speed>4.1</speed>
<temp>0.00</temp>
<bpm>0</bpm>
<rpm>0.00</rpm>
</extensions>
</trkpt>
<trkpt lat="64.305580139" lon="-20.180324554">
<ele>189.382813</ele>
<time>2012-07-20T13:50:34Z</time>
<speed>4.170000</speed>
<extensions>
<speed>4.2</speed>
<temp>0.00</temp>
<bpm>0</bpm>
<rpm>0.00</rpm>
</extensions>
</trkpt>
<trkpt lat="64.305587769" lon="-20.180767059">
<ele>188.968750</ele>
<time>2012-07-20T13:50:39Z</time>
<speed>4.290000</speed>
<extensions>
<speed>4.3</speed>
<temp>0.00</temp>
<bpm>0</bpm>
<rpm>0.00</rpm>
</extensions>
</trkpt>
<trkpt lat="64.305595398" lon="-20.181211472">
<ele>188.304688</ele>
<time>2012-07-20T13:50:44Z</time>
<speed>4.260000</speed>
<extensions>
<speed>4.3</speed>
<temp>0.00</temp>
<bpm>0</bpm>
<rpm>0.00</rpm>
</extensions>
</trkpt>
<trkpt lat="64.305595398" lon="-20.181640625">
<ele>187.457031</ele>
<time>2012-07-20T13:50:49Z</time>
<speed>4.290000</speed>
<extensions>
<speed>4.3</speed>
<temp>0.00</temp>
<bpm>0</bpm>
<rpm>0.00</rpm>
</extensions>
</trkpt>
<trkpt lat="64.305625916" lon="-20.182083130">
<ele>186.109375</ele>
<time>2012-07-20T13:50:54Z</time>
<speed>4.760000</speed>
<extensions>
<speed>4.8</speed>
<temp>0.00</temp>
<bpm>0</bpm>
<rpm>0.00</rpm>
</extensions>
</trkpt>
<trkpt lat="64.305656433" lon="-20.182563782">
<ele>185.035156</ele>
<time>2012-07-20T13:50:59Z</time>
<speed>4.960000</speed>
<extensions>
<speed>5.0</speed>
<temp>0.00</temp>
<bpm>0</bpm>
<rpm>0.00</rpm>
</extensions>
</trkpt>
<trkpt lat="64.305694580" lon="-20.183103561">
<ele>184.953125</ele>
<time>2012-07-20T13:51:04Z</time>
<speed>5.500000</speed>
<extensions>
<speed>5.5</speed>
<temp>0.00</temp>
<bpm>0</bpm>
<rpm>0.00</rpm>
</extensions>
</trkpt>
<trkpt lat="64.305747986" lon="-20.183658600">
<ele>183.164063</ele>
<time>2012-07-20T13:51:09Z</time>
<speed>5.850000</speed>
<extensions>
<speed>5.8</speed>
<temp>0.00</temp>
<bpm>0</bpm>
<rpm>0.00</rpm>
</extensions>
</trkpt>
<trkpt lat="64.305793762" lon="-20.184261322">
<ele>181.777344</ele>
<time>2012-07-20T13:51:14Z</time>
<speed>5.630000</speed>
<extensions>
<speed>5.6</speed>
<temp>0.00</temp>
<bpm>0</bpm>
<rpm>0.00</rpm>
</extensions>
</trkpt>
<trkpt lat="64.305854797" lon="-20.184822083">
<ele>181.421875</ele>
<time>2012-07-20T13:51:19Z</time>
<speed>5.310000</speed>
<extensions>
<speed>5.3</speed>
<temp>0.00</temp>
<bpm>0</bpm>
<rpm>0.00</rpm>
</extensions>
</trkpt>
<trkpt lat="64.305900574" lon="-20.185342789">
<ele>180.683594</ele>
<time>2012-07-20T13:51:24Z</time>
<speed>4.920000</speed>
<extensions>
<speed>4.9</speed>
<temp>0.00</temp>
<bpm>0</bpm>
<rpm>0.00</rpm>
</extensions>
</trkpt>
<trkpt lat="64.305953979" lon="-20.185853958">
<ele>180.265625</ele>
<time>2012-07-20T13:51:29Z</time>
<speed>4.810000</speed>
<extensions>
<speed>4.8</speed>
<temp>0.00</temp>
<bpm>0</bpm>
<rpm>0.00</rpm>
</extensions>
</trkpt>
<trkpt lat="64.305992126" lon="-20.186355591">
<ele>182.488281</ele>
<time>2012-07-20T13:51:34Z</time>
<speed>4.430000</speed>
<extensions>
<speed>4.4</speed>
<temp>0.00</temp>
<bpm>0</bpm>
<rpm>0.00</rpm>
</extensions>
</trkpt>
<trkpt lat="64.306037903" lon="-20.186769485">
<ele>182.421875</ele>
<time>2012-07-20T13:51:39Z</time>
<speed>4.520000</speed>
<extensions>
<speed>4.5</speed>
<temp>0.00</temp>
<bpm>0</bpm>
<rpm>0.00</rpm>
</extensions>
</trkpt>
<trkpt lat="64.306083679" lon="-20.187238693">
<ele>182.335938</ele>
<time>2012-07-20T13:51:44Z</time>
<speed>4.970000</speed>
<extensions>
<speed>5.0</speed>
<temp>0.00</temp>
<bpm>0</bpm>
<rpm>0.00</rpm>
</extensions>
</trkpt>
<trkpt lat="64.306129456" lon="-20.187728882">
<ele>180.804688</ele>
<time>2012-07-20T13:51:49Z</time>
<speed>4.990000</speed>
<extensions>
<speed>5.0</speed>
<temp>0.00</temp>
<bpm>0</bpm>
<rpm>0.00</rpm>
</extensions>
</trkpt>
<trkpt lat="64.306182861" lon="-20.188251495">
<ele>179.792969</ele>
<time>2012-07-20T13:51:54Z</time>
<speed>4.760000</speed>
<extensions>
<speed>4.8</speed>
<temp>0.00</temp>
<bpm>0</bpm>
<rpm>0.00</rpm>
</extensions>
</trkpt>
<trkpt lat="64.306236267" lon="-20.188718796">
<ele>181.160156</ele>
<time>2012-07-20T13:51:59Z</time>
<speed>4.310000</speed>
<extensions>
<speed>4.3</speed>
<temp>0.00</temp>
<bpm>0</bpm>
<rpm>0.00</rpm>
</extensions>
</trkpt>
<trkpt lat="64.306259155" lon="-20.189134598">
<ele>180.636719</ele>
<time>2012-07-20T13:52:04Z</time>
<speed>3.640000</speed>
<extensions>
<speed>3.6</speed>
<temp>0.00</temp>
<bpm>0</bpm>
<rpm>0.00</rpm>
</extensions>
</trkpt>
<trkpt lat="64.306289673" lon="-20.189430237">
<ele>177.218750</ele>
<time>2012-07-20T13:52:09Z</time>
<speed>2.730000</speed>
<extensions>
<speed>2.7</speed>
<temp>0.00</temp>
<bpm>0</bpm>
<rpm>0.00</rpm>
</extensions>
</trkpt>
<trkpt lat="64.306312561" lon="-20.189682007">
<ele>176.910156</ele>
<time>2012-07-20T13:52:14Z</time>
<speed>2.740000</speed>
<extensions>
<speed>2.7</speed>
<temp>0.00</temp>
<bpm>0</bpm>
<rpm>0.00</rpm>
</extensions>
</trkpt>
<trkpt lat="64.306350708" lon="-20.189996719">
<ele>177.160156</ele>
<time>2012-07-20T13:52:19Z</time>
<speed>3.400000</speed>
<extensions>
<speed>3.4</speed>
<temp>0.00</temp>
<bpm>0</bpm>
<rpm>0.00</rpm>
</extensions>
</trkpt>
<trkpt lat="64.306381226" lon="-20.190319061">
<ele>177.679688</ele>
<time>2012-07-20T13:52:24Z</time>
<speed>3.040000</speed>
<extensions>
<speed>3.0</speed>
<temp>0.00</temp>
<bpm>0</bpm>
<rpm>0.00</rpm>
</extensions>
</trkpt>
<trkpt lat="64.306411743" lon="-20.190654755">
<ele>176.683594</ele>
<time>2012-07-20T13:52:29Z</time>
<speed>4.150000</speed>
<extensions>
<speed>4.1</speed>
<temp>0.00</temp>
<bpm>0</bpm>
<rpm>0.00</rpm>
</extensions>
</trkpt>
<trkpt lat="64.306465149" lon="-20.191114426">
<ele>177.839844</ele>
<time>2012-07-20T13:52:34Z</time>
<speed>4.770000</speed>
<extensions>
<speed>4.8</speed>
<temp>0.00</temp>
<bpm>0</bpm>
<rpm>0.00</rpm>
</extensions>
</trkpt>
<trkpt lat="64.306503296" lon="-20.191583633">
<ele>178.226563</ele>
<time>2012-07-20T13:52:39Z</time>
<speed>4.390000</speed>
<extensions>
<speed>4.4</speed>
<temp>0.00</temp>
<bpm>0</bpm>
<rpm>0.00</rpm>
</extensions>
</trkpt>
<trkpt lat="64.306533813" lon="-20.192010880">
<ele>178.445313</ele>
<time>2012-07-20T13:52:44Z</time>
<speed>3.980000</speed>
<extensions>
<speed>4.0</speed>
<temp>0.00</temp>
<bpm>0</bpm>
<rpm>0.00</rpm>
</extensions>
</trkpt>
<trkpt lat="64.306571960" lon="-20.192403793">
<ele>178.710938</ele>
<time>2012-07-20T13:52:49Z</time>
<speed>3.700000</speed>
<extensions>
<speed>3.7</speed>
<temp>0.00</temp>
<bpm>0</bpm>
<rpm>0.00</rpm>
</extensions>
</trkpt>
<trkpt lat="64.306602478" lon="-20.192785263">
<ele>177.292969</ele>
<time>2012-07-20T13:52:54Z</time>
<speed>3.640000</speed>
<extensions>
<speed>3.6</speed>
<temp>0.00</temp>
<bpm>0</bpm>
<rpm>0.00</rpm>
</extensions>
</trkpt>
<trkpt lat="64.306648254" lon="-20.193155289">
<ele>176.355469</ele>
<time>2012-07-20T13:52:59Z</time>
<speed>3.670000</speed>
<extensions>
<speed>3.7</speed>
<temp>0.00</temp>
<bpm>0</bpm>
<rpm>0.00</rpm>
</extensions>
</trkpt>
<trkpt lat="64.306686401" lon="-20.193532944">
<ele>177.136719</ele>
<time>2012-07-20T13:53:04Z</time>
<speed>3.840000</speed>
<extensions>
<speed>3.8</speed>
<temp>0.00</temp>
<bpm>0</bpm>
<rpm>0.00</rpm>
</extensions>
</trkpt>
<trkpt lat="64.306732178" lon="-20.193929672">
<ele>175.960938</ele>
<time>2012-07-20T13:53:09Z</time>
<speed>4.230000</speed>
<extensions>
<speed>4.2</speed>
<temp>0.00</temp>
<bpm>0</bpm>
<rpm>0.00</rpm>
</extensions>
</trkpt>
<trkpt lat="64.306770325" lon="-20.194355011">
<ele>174.414063</ele>
<time>2012-07-20T13:53:14Z</time>
<speed>4.750000</speed>
<extensions>
<speed>4.8</speed>
<temp>0.00</temp>
<bpm>0</bpm>
<rpm>0.00</rpm>
</extensions>
</trkpt>
<trkpt lat="64.306823730" lon="-20.194910049">
<ele>173.449219</ele>
<time>2012-07-20T13:53:19Z</time>
<speed>6.140000</speed>
<extensions>
<speed>6.1</speed>
<temp>0.00</temp>
<bpm>0</bpm>
<rpm>0.00</rpm>
</extensions>
</trkpt>
<trkpt lat="64.306892395" lon="-20.195552826">
<ele>172.585938</ele>
<time>2012-07-20T13:53:24Z</time>
<speed>6.600000</speed>
<extensions>
<speed>6.6</speed>
<temp>0.00</temp>
<bpm>0</bpm>
<rpm>0.00</rpm>
</extensions>
</trkpt>
<trkpt lat="64.306961060" lon="-20.196269989">
<ele>170.765625</ele>
<time>2012-07-20T13:53:29Z</time>
<speed>7.350000</speed>
<extensions>
<speed>7.3</speed>
<temp>0.00</temp>
<bpm>0</bpm>
<rpm>0.00</rpm>
</extensions>
</trkpt>
<trkpt lat="64.307022095" lon="-20.197061539">
<ele>169.925781</ele>
<time>2012-07-20T13:53:34Z</time>
<speed>7.850000</speed>
<extensions>
<speed>7.9</speed>
<temp>0.00</temp>
<bpm>0</bpm>
<rpm>0.00</rpm>
</extensions>
</trkpt>
<trkpt lat="64.307083130" lon="-20.197910309">
<ele>168.070313</ele>
<time>2012-07-20T13:53:39Z</time>
<speed>8.110000</speed>
<extensions>
<speed>8.1</speed>
<temp>0.00</temp>
<bpm>0</bpm>
<rpm>0.00</rpm>
</extensions>
</trkpt>
<trkpt lat="64.307151794" lon="-20.198715210">
<ele>165.628906</ele>
<time>2012-07-20T13:53:44Z</time>
<speed>7.690000</speed>
<extensions>
<speed>7.7</speed>
<temp>0.00</temp>
<bpm>0</bpm>
<rpm>0.00</rpm>
</extensions>
</trkpt>
<trkpt lat="64.307197571" lon="-20.199470520">
<ele>165.507813</ele>
<time>2012-07-20T13:53:49Z</time>
<speed>6.800000</speed>
<extensions>
<speed>6.8</speed>
<temp>0.00</temp>
<bpm>0</bpm>
<rpm>0.00</rpm>
</extensions>
</trkpt>
<trkpt lat="64.307243347" lon="-20.200119019">
<ele>163.160156</ele>
<time>2012-07-20T13:53:54Z</time>
<speed>6.420000</speed>
<extensions>
<speed>6.4</speed>
<temp>0.00</temp>
<bpm>0</bpm>
<rpm>0.00</rpm>
</extensions>
</trkpt>
<trkpt lat="64.307296753" lon="-20.200803757">
<ele>162.843750</ele>
<time>2012-07-20T13:53:59Z</time>
<speed>6.560000</speed>
<extensions>
<speed>6.6</speed>
<temp>0.00</temp>
<bpm>0</bpm>
<rpm>0.00</rpm>
</extensions>
</trkpt>
<trkpt lat="64.307350159" lon="-20.201492310">
<ele>162.363281</ele>
<time>2012-07-20T13:54:04Z</time>
<speed>6.820000</speed>
<extensions>
<speed>6.8</speed>
<temp>0.00</temp>
<bpm>0</bpm>
<rpm>0.00</rpm>
</extensions>
</trkpt>
<trkpt lat="64.307395935" lon="-20.202184677">
<ele>161.242188</ele>
<time>2012-07-20T13:54:09Z</time>
<speed>7.020000</speed>
<extensions>
<speed>7.0</speed>
<temp>0.00</temp>
<bpm>0</bpm>
<rpm>0.00</rpm>
</extensions>
</trkpt>
<trkpt lat="64.307449341" lon="-20.202913284">
<ele>161.125000</ele>
<time>2012-07-20T13:54:14Z</time>
<speed>6.740000</speed>
<extensions>
<speed>6.7</speed>
<temp>0.00</temp>
<bpm>0</bpm>
<rpm>0.00</rpm>
</extensions>
</trkpt>
<trkpt lat="64.307510376" lon="-20.203601837">
<ele>160.703125</ele>
<time>2012-07-20T13:54:19Z</time>
<speed>6.720000</speed>
<extensions>
<speed>6.7</speed>
<temp>0.00</temp>
<bpm>0</bpm>
<rpm>0.00</rpm>
</extensions>
</trkpt>
<trkpt lat="64.307556152" lon="-20.204292297">
<ele>159.753906</ele>
<time>2012-07-20T13:54:24Z</time>
<speed>6.260000</speed>
<extensions>
<speed>6.3</speed>
<temp>0.00</temp>
<bpm>0</bpm>
<rpm>0.00</rpm>
</extensions>
</trkpt>
<trkpt lat="64.307609558" lon="-20.204853058">
<ele>159.457031</ele>
<time>2012-07-20T13:54:29Z</time>
<speed>5.300000</speed>
<extensions>
<speed>5.3</speed>
<temp>0.00</temp>
<bpm>0</bpm>
<rpm>0.00</rpm>
</extensions>
</trkpt>
<trkpt lat="64.307647705" lon="-20.205404282">
<ele>159.582031</ele>
<time>2012-07-20T13:54:34Z</time>
<speed>5.690000</speed>
<extensions>
<speed>5.7</speed>
<temp>0.00</temp>
<bpm>0</bpm>
<rpm>0.00</rpm>
</extensions>
</trkpt>
<trkpt lat="64.307693481" lon="-20.205991745">
<ele>160.519531</ele>
<time>2012-07-20T13:54:39Z</time>
<speed>6.270000</speed>
<extensions>
<speed>6.3</speed>
<temp>0.00</temp>
<bpm>0</bpm>
<rpm>0.00</rpm>
</extensions>
</trkpt>
<trkpt lat="64.307731628" lon="-20.206653595">
<ele>161.078125</ele>
<time>2012-07-20T13:54:44Z</time>
<speed>6.110000</speed>
<extensions>
<speed>6.1</speed>
<temp>0.00</temp>
<bpm>0</bpm>
<rpm>0.00</rpm>
</extensions>
</trkpt>
<trkpt lat="64.307792664" lon="-20.207252502">
<ele>160.921875</ele>
<time>2012-07-20T13:54:49Z</time>
<speed>5.760000</speed>
<extensions>
<speed>5.8</speed>
<temp>0.00</temp>
<bpm>0</bpm>
<rpm>0.00</rpm>
</extensions>
</trkpt>
<trkpt lat="64.307838440" lon="-20.207878113">
<ele>160.417969</ele>
<time>2012-07-20T13:54:54Z</time>
<speed>6.480000</speed>
<extensions>
<speed>6.5</speed>
<temp>0.00</temp>
<bpm>0</bpm>
<rpm>0.00</rpm>
</extensions>
</trkpt>
<trkpt lat="64.307891846" lon="-20.208549500">
<ele>159.378906</ele>
<time>2012-07-20T13:54:59Z</time>
<speed>6.740000</speed>
<extensions>
<speed>6.7</speed>
<temp>0.00</temp>
<bpm>0</bpm>
<rpm>0.00</rpm>
</extensions>
</trkpt>
<trkpt lat="64.307937622" lon="-20.209268570">
<ele>159.562500</ele>
<time>2012-07-20T13:55:04Z</time>
<speed>7.160000</speed>
<extensions>
<speed>7.2</speed>
<temp>0.00</temp>
<bpm>0</bpm>
<rpm>0.00</rpm>
</extensions>
</trkpt>
<trkpt lat="64.307991028" lon="-20.209981918">
<ele>154.976563</ele>
<time>2012-07-20T13:55:09Z</time>
<speed>6.880000</speed>
<extensions>
<speed>6.9</speed>
<temp>0.00</temp>
<bpm>0</bpm>
<rpm>0.00</rpm>
</extensions>
</trkpt>
<trkpt lat="64.308036804" lon="-20.210662842">
<ele>152.425781</ele>
<time>2012-07-20T13:55:14Z</time>
<speed>6.690000</speed>
<extensions>
<speed>6.7</speed>
<temp>0.00</temp>
<bpm>0</bpm>
<rpm>0.00</rpm>
</extensions>
</trkpt>
<trkpt lat="64.308090210" lon="-20.211322784">
<ele>151.824219</ele>
<time>2012-07-20T13:55:19Z</time>
<speed>6.350000</speed>
<extensions>
<speed>6.4</speed>
<temp>0.00</temp>
<bpm>0</bpm>
<rpm>0.00</rpm>
</extensions>
</trkpt>
<trkpt lat="64.308143616" lon="-20.211984634">
<ele>152.699219</ele>
<time>2012-07-20T13:55:24Z</time>
<speed>6.080000</speed>
<extensions>
<speed>6.1</speed>
<temp>0.00</temp>
<bpm>0</bpm>
<rpm>0.00</rpm>
</extensions>
</trkpt>
<trkpt lat="64.308189392" lon="-20.212633133">
<ele>151.207031</ele>
<time>2012-07-20T13:55:29Z</time>
<speed>6.980000</speed>
<extensions>
<speed>7.0</speed>
<temp>0.00</temp>
<bpm>0</bpm>
<rpm>0.00</rpm>
</extensions>
</trkpt>
<trkpt lat="64.308235168" lon="-20.213356018">
<ele>150.703125</ele>
<time>2012-07-20T13:55:34Z</time>
<speed>7.610000</speed>
<extensions>
<speed>7.6</speed>
<temp>0.00</temp>
<bpm>0</bpm>
<rpm>0.00</rpm>
</extensions>
</trkpt>
<trkpt lat="64.308303833" lon="-20.214153290">
<ele>149.988281</ele>
<time>2012-07-20T13:55:39Z</time>
<speed>7.950000</speed>
<extensions>
<speed>8.0</speed>
<temp>0.00</temp>
<bpm>0</bpm>
<rpm>0.00</rpm>
</extensions>
</trkpt>
<trkpt lat="64.308364868" lon="-20.215002060">
<ele>148.527344</ele>
<time>2012-07-20T13:55:44Z</time>
<speed>8.650000</speed>
<extensions>
<speed>8.6</speed>
<temp>0.00</temp>
<bpm>0</bpm>
<rpm>0.00</rpm>
</extensions>
</trkpt>
<trkpt lat="64.308441162" lon="-20.215906143">
<ele>146.027344</ele>
<time>2012-07-20T13:55:49Z</time>
<speed>9.090000</speed>
<extensions>
<speed>9.1</speed>
<temp>0.00</temp>
<bpm>0</bpm>
<rpm>0.00</rpm>
</extensions>
</trkpt>
<trkpt lat="64.308509827" lon="-20.216838837">
<ele>144.707031</ele>
<time>2012-07-20T13:55:54Z</time>
<speed>9.120000</speed>
<extensions>
<speed>9.1</speed>
<temp>0.00</temp>
<bpm>0</bpm>
<rpm>0.00</rpm>
</extensions>
</trkpt>
<trkpt lat="64.308578491" lon="-20.217737198">
<ele>142.097656</ele>
<time>2012-07-20T13:55:59Z</time>
<speed>8.620000</speed>
<extensions>
<speed>8.6</speed>
<temp>0.00</temp>
<bpm>0</bpm>
<rpm>0.00</rpm>
</extensions>
</trkpt>
<trkpt lat="64.308647156" lon="-20.218580246">
<ele>139.906250</ele>
<time>2012-07-20T13:56:04Z</time>
<speed>7.920000</speed>
<extensions>
<speed>7.9</speed>
<temp>0.00</temp>
<bpm>0</bpm>
<rpm>0.00</rpm>
</extensions>
</trkpt>
<trkpt lat="64.308708191" lon="-20.219406128">
<ele>137.839844</ele>
<time>2012-07-20T13:56:09Z</time>
<speed>8.040000</speed>
<extensions>
<speed>8.0</speed>
<temp>0.00</temp>
<bpm>0</bpm>
<rpm>0.00</rpm>
</extensions>
</trkpt>
<trkpt lat="64.308769226" lon="-20.220241547">
<ele>136.460938</ele>
<time>2012-07-20T13:56:14Z</time>
<speed>8.270000</speed>
<extensions>
<speed>8.3</speed>
<temp>0.00</temp>
<bpm>0</bpm>
<rpm>0.00</rpm>
</extensions>
</trkpt>
<trkpt lat="64.308830261" lon="-20.221118927">
<ele>136.339844</ele>
<time>2012-07-20T13:56:19Z</time>
<speed>8.590000</speed>
<extensions>
<speed>8.6</speed>
<temp>0.00</temp>
<bpm>0</bpm>
<rpm>0.00</rpm>
</extensions>
</trkpt>
<trkpt lat="64.308914185" lon="-20.221994400">
<ele>134.574219</ele>
<time>2012-07-20T13:56:24Z</time>
<speed>8.420000</speed>
<extensions>
<speed>8.4</speed>
<temp>0.00</temp>
<bpm>0</bpm>
<rpm>0.00</rpm>
</extensions>
</trkpt>
<trkpt lat="64.308967590" lon="-20.222846985">
<ele>133.347656</ele>
<time>2012-07-20T13:56:29Z</time>
<speed>8.550000</speed>
<extensions>
<speed>8.6</speed>
<temp>0.00</temp>
<bpm>0</bpm>
<rpm>0.00</rpm>
</extensions>
</trkpt>
<trkpt lat="64.309043884" lon="-20.223743439">
<ele>130.750000</ele>
<time>2012-07-20T13:56:34Z</time>
<speed>8.880000</speed>
<extensions>
<speed>8.9</speed>
<temp>0.00</temp>
<bpm>0</bpm>
<rpm>0.00</rpm>
</extensions>
</trkpt>
<trkpt lat="64.309112549" lon="-20.224615097">
<ele>127.355469</ele>
<time>2012-07-20T13:56:39Z</time>
<speed>8.910000</speed>
<extensions>
<speed>8.9</speed>
<temp>0.00</temp>
<bpm>0</bpm>
<rpm>0.00</rpm>
</extensions>
</trkpt>
<trkpt lat="64.309181213" lon="-20.225530624">
<ele>125.476563</ele>
<time>2012-07-20T13:56:44Z</time>
<speed>8.580000</speed>
<extensions>
<speed>8.6</speed>
<temp>0.00</temp>
<bpm>0</bpm>
<rpm>0.00</rpm>
</extensions>
</trkpt>
<trkpt lat="64.309242249" lon="-20.226337433">
<ele>124.101563</ele>
<time>2012-07-20T13:56:49Z</time>
<speed>7.730000</speed>
<extensions>
<speed>7.7</speed>
<temp>0.00</temp>
<bpm>0</bpm>
<rpm>0.00</rpm>
</extensions>
</trkpt>
<trkpt lat="64.309303284" lon="-20.227117538">
<ele>123.187500</ele>
<time>2012-07-20T13:56:54Z</time>
<speed>7.260000</speed>
<extensions>
<speed>7.3</speed>
<temp>0.00</temp>
<bpm>0</bpm>
<rpm>0.00</rpm>
</extensions>
</trkpt>
<trkpt lat="64.309349060" lon="-20.227849960">
<ele>123.947266</ele>
<time>2012-07-20T13:56:59Z</time>
<speed>6.810000</speed>
<extensions>
<speed>6.8</speed>
<temp>0.00</temp>
<bpm>0</bpm>
<rpm>0.00</rpm>
</extensions>
</trkpt>
<trkpt lat="64.309394836" lon="-20.228515625">
<ele>121.693359</ele>
<time>2012-07-20T13:57:04Z</time>
<speed>6.500000</speed>
<extensions>
<speed>6.5</speed>
<temp>0.00</temp>
<bpm>0</bpm>
<rpm>0.00</rpm>
</extensions>
</trkpt>
<trkpt lat="64.309448242" lon="-20.229167938">
<ele>122.021484</ele>
<time>2012-07-20T13:57:09Z</time>
<speed>6.140000</speed>
<extensions>
<speed>6.1</speed>
<temp>0.00</temp>
<bpm>0</bpm>
<rpm>0.00</rpm>
</extensions>
</trkpt>
<trkpt lat="64.309501648" lon="-20.229787827">
<ele>121.699219</ele>
<time>2012-07-20T13:57:14Z</time>
<speed>5.460000</speed>
<extensions>
<speed>5.5</speed>
<temp>0.00</temp>
<bpm>0</bpm>
<rpm>0.00</rpm>
</extensions>
</trkpt>
<trkpt lat="64.309532166" lon="-20.230232239">
<ele>120.861328</ele>
<time>2012-07-20T13:57:19Z</time>
<speed>3.790000</speed>
<extensions>
<speed>3.8</speed>
<temp>0.00</temp>
<bpm>0</bpm>
<rpm>0.00</rpm>
</extensions>
</trkpt>
<trkpt lat="64.309562683" lon="-20.230520248">
<ele>120.685547</ele>
<time>2012-07-20T13:57:24Z</time>
<speed>2.110000</speed>
<extensions>
<speed>2.1</speed>
<temp>0.00</temp>
<bpm>0</bpm>
<rpm>0.00</rpm>
</extensions>
</trkpt>
<trkpt lat="64.309562683" lon="-20.230714798">
<ele>120.783203</ele>
<time>2012-07-20T13:57:29Z</time>
<speed>1.830000</speed>
<extensions>
<speed>1.8</speed>
<temp>0.00</temp>
<bpm>0</bpm>
<rpm>0.00</rpm>
</extensions>
</trkpt>
<trkpt lat="64.309486389" lon="-20.230802536">
<ele>121.105469</ele>
<time>2012-07-20T13:57:34Z</time>
<speed>1.730000</speed>
<extensions>
<speed>1.7</speed>
<temp>0.00</temp>
<bpm>0</bpm>
<rpm>0.00</rpm>
</extensions>
</trkpt>
<trkpt lat="64.309440613" lon="-20.230834961">
<ele>121.544922</ele>
<time>2012-07-20T13:57:39Z</time>
<speed>0.450000</speed>
<extensions>
<speed>0.5</speed>
<temp>0.00</temp>
<bpm>0</bpm>
<rpm>0.00</rpm>
</extensions>
</trkpt>
<trkpt lat="64.309440613" lon="-20.230833054">
<ele>121.285156</ele>
<time>2012-07-20T13:57:44Z</time>
<extensions>
<speed>0.0</speed>
<temp>0.00</temp>
<bpm>0</bpm>
<rpm>0.00</rpm>
</extensions>
</trkpt>
<trkpt lat="64.309440613" lon="-20.230831146">
<ele>121.253906</ele>
<time>2012-07-20T13:57:49Z</time>
<speed>0.180000</speed>
<extensions>
<speed>0.2</speed>
<temp>0.00</temp>
<bpm>0</bpm>
<rpm>0.00</rpm>
</extensions>
</trkpt>
<trkpt lat="64.309440613" lon="-20.230829239">
<ele>121.240234</ele>
<time>2012-07-20T13:57:54Z</time>
<speed>0.020000</speed>
<extensions>
<speed>0.0</speed>
<temp>0.00</temp>
<bpm>0</bpm>
<rpm>0.00</rpm>
</extensions>
</trkpt>
<trkpt lat="64.309440613" lon="-20.230831146">
<ele>121.210938</ele>
<time>2012-07-20T13:57:59Z</time>
<speed>0.030000</speed>
<extensions>
<speed>0.0</speed>
<temp>0.00</temp>
<bpm>0</bpm>
<rpm>0.00</rpm>
</extensions>
</trkpt>
<trkpt lat="64.309394836" lon="-20.230886459">
<ele>121.734375</ele>
<time>2012-07-20T13:58:04Z</time>
<speed>2.720000</speed>
<extensions>
<speed>2.7</speed>
<temp>0.00</temp>
<bpm>0</bpm>
<rpm>0.00</rpm>
</extensions>
</trkpt>
<trkpt lat="64.309280396" lon="-20.231117249">
<ele>121.136719</ele>
<time>2012-07-20T13:58:09Z</time>
<speed>3.920000</speed>
<extensions>
<speed>3.9</speed>
<temp>0.00</temp>
<bpm>0</bpm>
<rpm>0.00</rpm>
</extensions>
</trkpt>
<trkpt lat="64.309165955" lon="-20.231473923">
<ele>120.710938</ele>
<time>2012-07-20T13:58:14Z</time>
<speed>4.250000</speed>
<extensions>
<speed>4.3</speed>
<temp>0.00</temp>
<bpm>0</bpm>
<rpm>0.00</rpm>
</extensions>
</trkpt>
<trkpt lat="64.309028625" lon="-20.231817245">
<ele>120.279297</ele>
<time>2012-07-20T13:58:19Z</time>
<speed>4.740000</speed>
<extensions>
<speed>4.7</speed>
<temp>0.00</temp>
<bpm>0</bpm>
<rpm>0.00</rpm>
</extensions>
</trkpt>
<trkpt lat="64.308876038" lon="-20.232206345">
<ele>120.267578</ele>
<time>2012-07-20T13:58:24Z</time>
<speed>5.190000</speed>
<extensions>
<speed>5.2</speed>
<temp>0.00</temp>
<bpm>0</bpm>
<rpm>0.00</rpm>
</extensions>
</trkpt>
<trkpt lat="64.308723450" lon="-20.232606888">
<ele>120.738281</ele>
<time>2012-07-20T13:58:29Z</time>
<speed>5.290000</speed>
<extensions>
<speed>5.3</speed>
<temp>0.00</temp>
<bpm>0</bpm>
<rpm>0.00</rpm>
</extensions>
</trkpt>
<trkpt lat="64.308555603" lon="-20.233070374">
<ele>119.863281</ele>
<time>2012-07-20T13:58:34Z</time>
<speed>6.240000</speed>
<extensions>
<speed>6.2</speed>
<temp>0.00</temp>
<bpm>0</bpm>
<rpm>0.00</rpm>
</extensions>
</trkpt>
<trkpt lat="64.308349609" lon="-20.233581543">
<ele>114.507813</ele>
<time>2012-07-20T13:58:39Z</time>
<speed>7.050000</speed>
<extensions>
<speed>7.0</speed>
<temp>0.00</temp>
<bpm>0</bpm>
<rpm>0.00</rpm>
</extensions>
</trkpt>
<trkpt lat="64.308166504" lon="-20.234102249">
<ele>114.650391</ele>
<time>2012-07-20T13:58:44Z</time>
<speed>6.670000</speed>
<extensions>
<speed>6.7</speed>
<temp>0.00</temp>
<bpm>0</bpm>
<rpm>0.00</rpm>
</extensions>
</trkpt>
<trkpt lat="64.307975769" lon="-20.234592438">
<ele>114.470703</ele>
<time>2012-07-20T13:58:49Z</time>
<speed>6.210000</speed>
<extensions>
<speed>6.2</speed>
<temp>0.00</temp>
<bpm>0</bpm>
<rpm>0.00</rpm>
</extensions>
</trkpt>
<trkpt lat="64.307800293" lon="-20.235069275">
<ele>116.525391</ele>
<time>2012-07-20T13:58:54Z</time>
<speed>6.090000</speed>
<extensions>
<speed>6.1</speed>
<temp>0.00</temp>
<bpm>0</bpm>
<rpm>0.00</rpm>
</extensions>
</trkpt>
<trkpt lat="64.307624817" lon="-20.235538483">
<ele>118.382813</ele>
<time>2012-07-20T13:58:59Z</time>
<speed>5.980000</speed>
<extensions>
<speed>6.0</speed>
<temp>0.00</temp>
<bpm>0</bpm>
<rpm>0.00</rpm>
</extensions>
</trkpt>
<trkpt lat="64.307456970" lon="-20.235998154">
<ele>119.074219</ele>
<time>2012-07-20T13:59:04Z</time>
<speed>5.820000</speed>
<extensions>
<speed>5.8</speed>
<temp>0.00</temp>
<bpm>0</bpm>
<rpm>0.00</rpm>
</extensions>
</trkpt>
<trkpt lat="64.307281494" lon="-20.236465454">
<ele>118.314453</ele>
<time>2012-07-20T13:59:09Z</time>
<speed>6.020000</speed>
<extensions>
<speed>6.0</speed>
<temp>0.00</temp>
<bpm>0</bpm>
<rpm>0.00</rpm>
</extensions>
</trkpt>
<trkpt lat="64.307106018" lon="-20.236940384">
<ele>118.804688</ele>
<time>2012-07-20T13:59:14Z</time>
<speed>6.070000</speed>
<extensions>
<speed>6.1</speed>
<temp>0.00</temp>
<bpm>0</bpm>
<rpm>0.00</rpm>
</extensions>
</trkpt>
<trkpt lat="64.306922913" lon="-20.237405777">
<ele>118.322266</ele>
<time>2012-07-20T13:59:19Z</time>
<speed>5.920000</speed>
<extensions>
<speed>5.9</speed>
<temp>0.00</temp>
<bpm>0</bpm>
<rpm>0.00</rpm>
</extensions>
</trkpt>
<trkpt lat="64.306762695" lon="-20.237854004">
<ele>119.011719</ele>
<time>2012-07-20T13:59:24Z</time>
<speed>5.100000</speed>
<extensions>
<speed>5.1</speed>
<temp>0.00</temp>
<bpm>0</bpm>
<rpm>0.00</rpm>
</extensions>
</trkpt>
<trkpt lat="64.306625366" lon="-20.238220215">
<ele>118.859375</ele>
<time>2012-07-20T13:59:29Z</time>
<speed>4.770000</speed>
<extensions>
<speed>4.8</speed>
<temp>0.00</temp>
<bpm>0</bpm>
<rpm>0.00</rpm>
</extensions>
</trkpt>
<trkpt lat="64.306457520" lon="-20.238615036">
<ele>115.154297</ele>
<time>2012-07-20T13:59:34Z</time>
<speed>5.590000</speed>
<extensions>
<speed>5.6</speed>
<temp>0.00</temp>
<bpm>0</bpm>
<rpm>0.00</rpm>
</extensions>
</trkpt>
<trkpt lat="64.306297302" lon="-20.239032745">
<ele>116.171875</ele>
<time>2012-07-20T13:59:39Z</time>
<speed>5.200000</speed>
<extensions>
<speed>5.2</speed>
<temp>0.00</temp>
<bpm>0</bpm>
<rpm>0.00</rpm>
</extensions>
</trkpt>
<trkpt lat="64.306159973" lon="-20.239442825">
<ele>118.839844</ele>
<time>2012-07-20T13:59:44Z</time>
<speed>4.680000</speed>
<extensions>
<speed>4.7</speed>
<temp>0.00</temp>
<bpm>0</bpm>
<rpm>0.00</rpm>
</extensions>
</trkpt>
<trkpt lat="64.306007385" lon="-20.239864349">
<ele>119.183594</ele>
<time>2012-07-20T13:59:49Z</time>
<speed>5.220000</speed>
<extensions>
<speed>5.2</speed>
<temp>0.00</temp>
<bpm>0</bpm>
<rpm>0.00</rpm>
</extensions>
</trkpt>
<trkpt lat="64.305847168" lon="-20.240335464">
<ele>117.708984</ele>
<time>2012-07-20T13:59:54Z</time>
<speed>6.190000</speed>
<extensions>
<speed>6.2</speed>
<temp>0.00</temp>
<bpm>0</bpm>
<rpm>0.00</rpm>
</extensions>
</trkpt>
<trkpt lat="64.305671692" lon="-20.240833282">
<ele>116.546875</ele>
<time>2012-07-20T13:59:59Z</time>
<speed>5.550000</speed>
<extensions>
<speed>5.5</speed>
<temp>0.00</temp>
<bpm>0</bpm>
<rpm>0.00</rpm>
</extensions>
</trkpt>
<trkpt lat="64.305458069" lon="-20.241308212">
<ele>115.718750</ele>
<time>2012-07-20T14:00:04Z</time>
<speed>6.590000</speed>
<extensions>
<speed>6.6</speed>
<temp>0.00</temp>
<bpm>0</bpm>
<rpm>0.00</rpm>
</extensions>
</trkpt>
<trkpt lat="64.305259705" lon="-20.241744995">
<ele>114.755859</ele>
<time>2012-07-20T14:00:09Z</time>
<speed>5.550000</speed>
<extensions>
<speed>5.5</speed>
<temp>0.00</temp>
<bpm>0</bpm>
<rpm>0.00</rpm>
</extensions>
</trkpt>
<trkpt lat="64.305099487" lon="-20.242052078">
<ele>115.960938</ele>
<time>2012-07-20T14:00:14Z</time>
<speed>4.100000</speed>
<extensions>
<speed>4.1</speed>
<temp>0.00</temp>
<bpm>0</bpm>
<rpm>0.00</rpm>
</extensions>
</trkpt>
<trkpt lat="64.304939270" lon="-20.242263794">
<ele>116.054688</ele>
<time>2012-07-20T14:00:19Z</time>
<speed>4.230000</speed>
<extensions>
<speed>4.2</speed>
<temp>0.00</temp>
<bpm>0</bpm>
<rpm>0.00</rpm>
</extensions>
</trkpt>
<trkpt lat="64.304763794" lon="-20.242406845">
<ele>116.373047</ele>
<time>2012-07-20T14:00:24Z</time>
<speed>4.150000</speed>
<extensions>
<speed>4.1</speed>
<temp>0.00</temp>
<bpm>0</bpm>
<rpm>0.00</rpm>
</extensions>
</trkpt>
<trkpt lat="64.304573059" lon="-20.242479324">
<ele>116.394531</ele>
<time>2012-07-20T14:00:29Z</time>
<speed>4.100000</speed>
<extensions>
<speed>4.1</speed>
<temp>0.00</temp>
<bpm>0</bpm>
<rpm>0.00</rpm>
</extensions>
</trkpt>
<trkpt lat="64.304397583" lon="-20.242519379">
<ele>116.697266</ele>
<time>2012-07-20T14:00:34Z</time>
<speed>3.710000</speed>
<extensions>
<speed>3.7</speed>
<temp>0.00</temp>
<bpm>0</bpm>
<rpm>0.00</rpm>
</extensions>
</trkpt>
<trkpt lat="64.304252625" lon="-20.242540359">
<ele>117.195313</ele>
<time>2012-07-20T14:00:39Z</time>
<speed>2.790000</speed>
<extensions>
<speed>2.8</speed>
<temp>0.00</temp>
<bpm>0</bpm>
<rpm>0.00</rpm>
</extensions>
</trkpt>
<trkpt lat="64.304122925" lon="-20.242561340">
<ele>118.312500</ele>
<time>2012-07-20T14:00:44Z</time>
<speed>2.810000</speed>
<extensions>
<speed>2.8</speed>
<temp>0.00</temp>
<bpm>0</bpm>
<rpm>0.00</rpm>
</extensions>
</trkpt>
<trkpt lat="64.304000854" lon="-20.242576599">
<ele>119.382813</ele>
<time>2012-07-20T14:00:49Z</time>
<speed>2.640000</speed>
<extensions>
<speed>2.6</speed>
<temp>0.00</temp>
<bpm>0</bpm>
<rpm>0.00</rpm>
</extensions>
</trkpt>
<trkpt lat="64.303878784" lon="-20.242578506">
<ele>119.941406</ele>
<time>2012-07-20T14:00:54Z</time>
<speed>2.700000</speed>
<extensions>
<speed>2.7</speed>
<temp>0.00</temp>
<bpm>0</bpm>
<rpm>0.00</rpm>
</extensions>
</trkpt>
<trkpt lat="64.303756714" lon="-20.242589951">
<ele>120.857422</ele>
<time>2012-07-20T14:00:59Z</time>
<speed>2.390000</speed>
<extensions>
<speed>2.4</speed>
<temp>0.00</temp>
<bpm>0</bpm>
<rpm>0.00</rpm>
</extensions>
</trkpt>
<trkpt lat="64.303627014" lon="-20.242595673">
<ele>121.433594</ele>
<time>2012-07-20T14:01:04Z</time>
<speed>3.140000</speed>
<extensions>
<speed>3.1</speed>
<temp>0.00</temp>
<bpm>0</bpm>
<rpm>0.00</rpm>
</extensions>
</trkpt>
<trkpt lat="64.303466797" lon="-20.242614746">
<ele>121.666016</ele>
<time>2012-07-20T14:01:09Z</time>
<speed>3.770000</speed>
<extensions>
<speed>3.8</speed>
<temp>0.00</temp>
<bpm>0</bpm>
<rpm>0.00</rpm>
</extensions>
</trkpt>
<trkpt lat="64.303298950" lon="-20.242649078">
<ele>120.732422</ele>
<time>2012-07-20T14:01:14Z</time>
<speed>3.890000</speed>
<extensions>
<speed>3.9</speed>
<temp>0.00</temp>
<bpm>0</bpm>
<rpm>0.00</rpm>
</extensions>
</trkpt>
<trkpt lat="64.303115845" lon="-20.242671967">
<ele>121.695313</ele>
<time>2012-07-20T14:01:19Z</time>
<speed>3.970000</speed>
<extensions>
<speed>4.0</speed>
<temp>0.00</temp>
<bpm>0</bpm>
<rpm>0.00</rpm>
</extensions>
</trkpt>
<trkpt lat="64.302940369" lon="-20.242685318">
<ele>121.382813</ele>
<time>2012-07-20T14:01:24Z</time>
<speed>3.910000</speed>
<extensions>
<speed>3.9</speed>
<temp>0.00</temp>
<bpm>0</bpm>
<rpm>0.00</rpm>
</extensions>
</trkpt>
<trkpt lat="64.302764893" lon="-20.242700577">
<ele>119.781250</ele>
<time>2012-07-20T14:01:29Z</time>
<speed>3.960000</speed>
<extensions>
<speed>4.0</speed>
<temp>0.00</temp>
<bpm>0</bpm>
<rpm>0.00</rpm>
</extensions>
</trkpt>
<trkpt lat="64.302597046" lon="-20.242731094">
<ele>121.144531</ele>
<time>2012-07-20T14:01:34Z</time>
<speed>3.570000</speed>
<extensions>
<speed>3.6</speed>
<temp>0.00</temp>
<bpm>0</bpm>
<rpm>0.00</rpm>
</extensions>
</trkpt>
<trkpt lat="64.302459717" lon="-20.242755890">
<ele>122.603516</ele>
<time>2012-07-20T14:01:39Z</time>
<speed>2.590000</speed>
<extensions>
<speed>2.6</speed>
<temp>0.00</temp>
<bpm>0</bpm>
<rpm>0.00</rpm>
</extensions>
</trkpt>
<trkpt lat="64.302330017" lon="-20.242780685">
<ele>122.800781</ele>
<time>2012-07-20T14:01:44Z</time>
<speed>2.560000</speed>
<extensions>
<speed>2.6</speed>
<temp>0.00</temp>
<bpm>0</bpm>
<rpm>0.00</rpm>
</extensions>
</trkpt>
<trkpt lat="64.302238464" lon="-20.242792130">
<ele>122.595703</ele>
<time>2012-07-20T14:01:49Z</time>
<speed>2.450000</speed>
<extensions>
<speed>2.4</speed>
<temp>0.00</temp>
<bpm>0</bpm>
<rpm>0.00</rpm>
</extensions>
</trkpt>
<trkpt lat="64.302124023" lon="-20.242792130">
<ele>122.029297</ele>
<time>2012-07-20T14:01:54Z</time>
<speed>2.690000</speed>
<extensions>
<speed>2.7</speed>
<temp>0.00</temp>
<bpm>0</bpm>
<rpm>0.00</rpm>
</extensions>
</trkpt>
<trkpt lat="64.302001953" lon="-20.242788315">
<ele>122.304688</ele>
<time>2012-07-20T14:01:59Z</time>
<speed>2.800000</speed>
<extensions>
<speed>2.8</speed>
<temp>0.00</temp>
<bpm>0</bpm>
<rpm>0.00</rpm>
</extensions>
</trkpt>
<trkpt lat="64.301872253" lon="-20.242818832">
<ele>120.671875</ele>
<time>2012-07-20T14:02:04Z</time>
<speed>2.880000</speed>
<extensions>
<speed>2.9</speed>
<temp>0.00</temp>
<bpm>0</bpm>
<rpm>0.00</rpm>
</extensions>
</trkpt>
<trkpt lat="64.301742554" lon="-20.242849350">
<ele>121.126953</ele>
<time>2012-07-20T14:02:09Z</time>
<speed>3.100000</speed>
<extensions>
<speed>3.1</speed>
<temp>0.00</temp>
<bpm>0</bpm>
<rpm>0.00</rpm>
</extensions>
</trkpt>
<trkpt lat="64.301605225" lon="-20.242864609">
<ele>121.769531</ele>
<time>2012-07-20T14:02:14Z</time>
<speed>3.060000</speed>
<extensions>
<speed>3.1</speed>
<temp>0.00</temp>
<bpm>0</bpm>
<rpm>0.00</rpm>
</extensions>
</trkpt>
<trkpt lat="64.301483154" lon="-20.242879868">
<ele>123.695313</ele>
<time>2012-07-20T14:02:19Z</time>
<speed>2.360000</speed>
<extensions>
<speed>2.4</speed>
<temp>0.00</temp>
<bpm>0</bpm>
<rpm>0.00</rpm>
</extensions>
</trkpt>
<trkpt lat="64.301368713" lon="-20.242918015">
<ele>125.091797</ele>
<time>2012-07-20T14:02:24Z</time>
<speed>2.900000</speed>
<extensions>
<speed>2.9</speed>
<temp>0.00</temp>
<bpm>0</bpm>
<rpm>0.00</rpm>
</extensions>
</trkpt>
<trkpt lat="64.301231384" lon="-20.242937088">
<ele>125.648438</ele>
<time>2012-07-20T14:02:29Z</time>
<speed>2.830000</speed>
<extensions>
<speed>2.8</speed>
<temp>0.00</temp>
<bpm>0</bpm>
<rpm>0.00</rpm>
</extensions>
</trkpt>
<trkpt lat="64.301139832" lon="-20.242929459">
<ele>124.750000</ele>
<time>2012-07-20T14:02:34Z</time>
<speed>2.420000</speed>
<extensions>
<speed>2.4</speed>
<temp>0.00</temp>
<bpm>0</bpm>
<rpm>0.00</rpm>
</extensions>
</trkpt>
<trkpt lat="64.301017761" lon="-20.242950439">
<ele>124.734375</ele>
<time>2012-07-20T14:02:39Z</time>
<speed>2.800000</speed>
<extensions>
<speed>2.8</speed>
<temp>0.00</temp>
<bpm>0</bpm>
<rpm>0.00</rpm>
</extensions>
</trkpt>
<trkpt lat="64.300918579" lon="-20.242942810">
<ele>126.828125</ele>
<time>2012-07-20T14:02:44Z</time>
<speed>2.170000</speed>
<extensions>
<speed>2.2</speed>
<temp>0.00</temp>
<bpm>0</bpm>
<rpm>0.00</rpm>
</extensions>
</trkpt>
<trkpt lat="64.300819397" lon="-20.242950439">
<ele>128.496094</ele>
<time>2012-07-20T14:02:49Z</time>
<speed>2.390000</speed>
<extensions>
<speed>2.4</speed>
<temp>0.00</temp>
<bpm>0</bpm>
<rpm>0.00</rpm>
</extensions>
</trkpt>
<trkpt lat="64.300720215" lon="-20.242965698">
<ele>129.101563</ele>
<time>2012-07-20T14:02:54Z</time>
<speed>2.340000</speed>
<extensions>
<speed>2.3</speed>
<temp>0.00</temp>
<bpm>0</bpm>
<rpm>0.00</rpm>
</extensions>
</trkpt>
<trkpt lat="64.300605774" lon="-20.242996216">
<ele>129.738281</ele>
<time>2012-07-20T14:02:59Z</time>
<speed>2.700000</speed>
<extensions>
<speed>2.7</speed>
<temp>0.00</temp>
<bpm>0</bpm>
<rpm>0.00</rpm>
</extensions>
</trkpt>
<trkpt lat="64.300483704" lon="-20.243013382">
<ele>130.125000</ele>
<time>2012-07-20T14:03:04Z</time>
<speed>2.900000</speed>
<extensions>
<speed>2.9</speed>
<temp>0.00</temp>
<bpm>0</bpm>
<rpm>0.00</rpm>
</extensions>
</trkpt>
<trkpt lat="64.300346375" lon="-20.243021011">
<ele>130.394531</ele>
<time>2012-07-20T14:03:09Z</time>
<speed>3.030000</speed>
<extensions>
<speed>3.0</speed>
<temp>0.00</temp>
<bpm>0</bpm>
<rpm>0.00</rpm>
</extensions>
</trkpt>
<trkpt lat="64.300216675" lon="-20.242996216">
<ele>130.464844</ele>
<time>2012-07-20T14:03:14Z</time>
<speed>2.970000</speed>
<extensions>
<speed>3.0</speed>
<temp>0.00</temp>
<bpm>0</bpm>
<rpm>0.00</rpm>
</extensions>
</trkpt>
<trkpt lat="64.300086975" lon="-20.242996216">
<ele>130.031250</ele>
<time>2012-07-20T14:03:19Z</time>
<speed>3.110000</speed>
<extensions>
<speed>3.1</speed>
<temp>0.00</temp>
<bpm>0</bpm>
<rpm>0.00</rpm>
</extensions>
</trkpt>
<trkpt lat="64.299942017" lon="-20.243003845">
<ele>130.312500</ele>
<time>2012-07-20T14:03:24Z</time>
<speed>3.140000</speed>
<extensions>
<speed>3.1</speed>
<temp>0.00</temp>
<bpm>0</bpm>
<rpm>0.00</rpm>
</extensions>
</trkpt>
<trkpt lat="64.299819946" lon="-20.243017197">
<ele>130.746094</ele>
<time>2012-07-20T14:03:29Z</time>
<speed>2.190000</speed>
<extensions>
<speed>2.2</speed>
<temp>0.00</temp>
<bpm>0</bpm>
<rpm>0.00</rpm>
</extensions>
</trkpt>
<trkpt lat="64.299713135" lon="-20.243055344">
<ele>133.027344</ele>
<time>2012-07-20T14:03:34Z</time>
<speed>2.780000</speed>
<extensions>
<speed>2.8</speed>
<temp>0.00</temp>
<bpm>0</bpm>
<rpm>0.00</rpm>
</extensions>
</trkpt>
<trkpt lat="64.299591064" lon="-20.243013382">
<ele>134.671875</ele>
<time>2012-07-20T14:03:39Z</time>
<speed>2.600000</speed>
<extensions>
<speed>2.6</speed>
<temp>0.00</temp>
<bpm>0</bpm>
<rpm>0.00</rpm>
</extensions>
</trkpt>
<trkpt lat="64.299468994" lon="-20.242992401">
<ele>135.429688</ele>
<time>2012-07-20T14:03:44Z</time>
<speed>3.010000</speed>
<extensions>
<speed>3.0</speed>
<temp>0.00</temp>
<bpm>0</bpm>
<rpm>0.00</rpm>
</extensions>
</trkpt>
<trkpt lat="64.299339294" lon="-20.242952347">
<ele>136.089844</ele>
<time>2012-07-20T14:03:49Z</time>
<speed>2.580000</speed>
<extensions>
<speed>2.6</speed>
<temp>0.00</temp>
<bpm>0</bpm>
<rpm>0.00</rpm>
</extensions>
</trkpt>
<trkpt lat="64.299224854" lon="-20.242908478">
<ele>135.812500</ele>
<time>2012-07-20T14:03:54Z</time>
<speed>2.830000</speed>
<extensions>
<speed>2.8</speed>
<temp>0.00</temp>
<bpm>0</bpm>
<rpm>0.00</rpm>
</extensions>
</trkpt>
<trkpt lat="64.299102783" lon="-20.242862701">
<ele>135.613281</ele>
<time>2012-07-20T14:03:59Z</time>
<speed>2.920000</speed>
<extensions>
<speed>2.9</speed>
<temp>0.00</temp>
<bpm>0</bpm>
<rpm>0.00</rpm>
</extensions>
</trkpt>
<trkpt lat="64.298973083" lon="-20.242809296">
<ele>135.398438</ele>
<time>2012-07-20T14:04:04Z</time>
<speed>3.220000</speed>
<extensions>
<speed>3.2</speed>
<temp>0.00</temp>
<bpm>0</bpm>
<rpm>0.00</rpm>
</extensions>
</trkpt>
<trkpt lat="64.298851013" lon="-20.242782593">
<ele>134.867188</ele>
<time>2012-07-20T14:04:09Z</time>
<speed>2.740000</speed>
<extensions>
<speed>2.7</speed>
<temp>0.00</temp>
<bpm>0</bpm>
<rpm>0.00</rpm>
</extensions>
</trkpt>
<trkpt lat="64.298728943" lon="-20.242712021">
<ele>135.402344</ele>
<time>2012-07-20T14:04:14Z</time>
<speed>2.650000</speed>
<extensions>
<speed>2.6</speed>
<temp>0.00</temp>
<bpm>0</bpm>
<rpm>0.00</rpm>
</extensions>
</trkpt>
<trkpt lat="64.298614502" lon="-20.242641449">
<ele>136.050781</ele>
<time>2012-07-20T14:04:19Z</time>
<speed>2.280000</speed>
<extensions>
<speed>2.3</speed>
<temp>0.00</temp>
<bpm>0</bpm>
<rpm>0.00</rpm>
</extensions>
</trkpt>
<trkpt lat="64.298515320" lon="-20.242572784">
<ele>136.015625</ele>
<time>2012-07-20T14:04:24Z</time>
<speed>2.080000</speed>
<extensions>
<speed>2.1</speed>
<temp>0.00</temp>
<bpm>0</bpm>
<rpm>0.00</rpm>
</extensions>
</trkpt>
<trkpt lat="64.298439026" lon="-20.242502213">
<ele>136.671875</ele>
<time>2012-07-20T14:04:29Z</time>
<speed>1.940000</speed>
<extensions>
<speed>1.9</speed>
<temp>0.00</temp>
<bpm>0</bpm>
<rpm>0.00</rpm>
</extensions>
</trkpt>
<trkpt lat="64.298347473" lon="-20.242422104">
<ele>136.339844</ele>
<time>2012-07-20T14:04:34Z</time>
<speed>2.430000</speed>
<extensions>
<speed>2.4</speed>
<temp>0.00</temp>
<bpm>0</bpm>
<rpm>0.00</rpm>
</extensions>
</trkpt>
<trkpt lat="64.298248291" lon="-20.242336273">
<ele>136.648438</ele>
<time>2012-07-20T14:04:39Z</time>
<speed>1.790000</speed>
<extensions>
<speed>1.8</speed>
<temp>0.00</temp>
<bpm>0</bpm>
<rpm>0.00</rpm>
</extensions>
</trkpt>
<trkpt lat="64.298156738" lon="-20.242233276">
<ele>136.167969</ele>
<time>2012-07-20T14:04:44Z</time>
<speed>2.270000</speed>
<extensions>
<speed>2.3</speed>
<temp>0.00</temp>
<bpm>0</bpm>
<rpm>0.00</rpm>
</extensions>
</trkpt>
<trkpt lat="64.298057556" lon="-20.242160797">
<ele>135.738281</ele>
<time>2012-07-20T14:04:49Z</time>
<speed>2.580000</speed>
<extensions>
<speed>2.6</speed>
<temp>0.00</temp>
<bpm>0</bpm>
<rpm>0.00</rpm>
</extensions>
</trkpt>
<trkpt lat="64.297950745" lon="-20.242044449">
<ele>135.277344</ele>
<time>2012-07-20T14:04:54Z</time>
<speed>2.780000</speed>
<extensions>
<speed>2.8</speed>
<temp>0.00</temp>
<bpm>0</bpm>
<rpm>0.00</rpm>
</extensions>
</trkpt>
<trkpt lat="64.297836304" lon="-20.241926193">
<ele>134.625000</ele>
<time>2012-07-20T14:04:59Z</time>
<speed>2.340000</speed>
<extensions>
<speed>2.3</speed>
<temp>0.00</temp>
<bpm>0</bpm>
<rpm>0.00</rpm>
</extensions>
</trkpt>
<trkpt lat="64.297760010" lon="-20.241838455">
<ele>134.425781</ele>
<time>2012-07-20T14:05:04Z</time>
<speed>2.170000</speed>
<extensions>
<speed>2.2</speed>
<temp>0.00</temp>
<bpm>0</bpm>
<rpm>0.00</rpm>
</extensions>
</trkpt>
<trkpt lat="64.297676086" lon="-20.241722107">
<ele>134.585938</ele>
<time>2012-07-20T14:05:09Z</time>
<speed>2.480000</speed>
<extensions>
<speed>2.5</speed>
<temp>0.00</temp>
<bpm>0</bpm>
<rpm>0.00</rpm>
</extensions>
</trkpt>
<trkpt lat="64.297584534" lon="-20.241603851">
<ele>135.734375</ele>
<time>2012-07-20T14:05:14Z</time>
<speed>2.260000</speed>
<extensions>
<speed>2.3</speed>
<temp>0.00</temp>
<bpm>0</bpm>
<rpm>0.00</rpm>
</extensions>
</trkpt>
<trkpt lat="64.297477722" lon="-20.241466522">
<ele>135.554688</ele>
<time>2012-07-20T14:05:19Z</time>
<speed>2.560000</speed>
<extensions>
<speed>2.6</speed>
<temp>0.00</temp>
<bpm>0</bpm>
<rpm>0.00</rpm>
</extensions>
</trkpt>
<trkpt lat="64.297393799" lon="-20.241342545">
<ele>135.886719</ele>
<time>2012-07-20T14:05:24Z</time>
<speed>2.070000</speed>
<extensions>
<speed>2.1</speed>
<temp>0.00</temp>
<bpm>0</bpm>
<rpm>0.00</rpm>
</extensions>
</trkpt>
<trkpt lat="64.297317505" lon="-20.241239548">
<ele>137.089844</ele>
<time>2012-07-20T14:05:29Z</time>
<speed>2.350000</speed>
<extensions>
<speed>2.4</speed>
<temp>0.00</temp>
<bpm>0</bpm>
<rpm>0.00</rpm>
</extensions>
</trkpt>
<trkpt lat="64.297233582" lon="-20.241088867">
<ele>137.613281</ele>
<time>2012-07-20T14:05:34Z</time>
<speed>2.010000</speed>
<extensions>
<speed>2.0</speed>
<temp>0.00</temp>
<bpm>0</bpm>
<rpm>0.00</rpm>
</extensions>
</trkpt>
<trkpt lat="64.297157288" lon="-20.240949631">
<ele>137.628906</ele>
<time>2012-07-20T14:05:39Z</time>
<speed>2.610000</speed>
<extensions>
<speed>2.6</speed>
<temp>0.00</temp>
<bpm>0</bpm>
<rpm>0.00</rpm>
</extensions>
</trkpt>
<trkpt lat="64.297065735" lon="-20.240787506">
<ele>138.359375</ele>
<time>2012-07-20T14:05:44Z</time>
<speed>2.290000</speed>
<extensions>
<speed>2.3</speed>
<temp>0.00</temp>
<bpm>0</bpm>
<rpm>0.00</rpm>
</extensions>
</trkpt>
<trkpt lat="64.296989441" lon="-20.240625381">
<ele>138.703125</ele>
<time>2012-07-20T14:05:49Z</time>
<speed>2.640000</speed>
<extensions>
<speed>2.6</speed>
<temp>0.00</temp>
<bpm>0</bpm>
<rpm>0.00</rpm>
</extensions>
</trkpt>
<trkpt lat="64.296890259" lon="-20.240432739">
<ele>139.390625</ele>
<time>2012-07-20T14:05:54Z</time>
<speed>2.860000</speed>
<extensions>
<speed>2.9</speed>
<temp>0.00</temp>
<bpm>0</bpm>
<rpm>0.00</rpm>
</extensions>
</trkpt>
<trkpt lat="64.296791077" lon="-20.240217209">
<ele>140.296875</ele>
<time>2012-07-20T14:05:59Z</time>
<speed>3.450000</speed>
<extensions>
<speed>3.5</speed>
<temp>0.00</temp>
<bpm>0</bpm>
<rpm>0.00</rpm>
</extensions>
</trkpt>
<trkpt lat="64.296661377" lon="-20.239982605">
<ele>138.882813</ele>
<time>2012-07-20T14:06:04Z</time>
<speed>4.020000</speed>
<extensions>
<speed>4.0</speed>
<temp>0.00</temp>
<bpm>0</bpm>
<rpm>0.00</rpm>
</extensions>
</trkpt>
<trkpt lat="64.296493530" lon="-20.239679337">
<ele>142.031250</ele>
<time>2012-07-20T14:06:09Z</time>
<speed>4.560000</speed>
<extensions>
<speed>4.6</speed>
<temp>0.00</temp>
<bpm>0</bpm>
<rpm>0.00</rpm>
</extensions>
</trkpt>
<trkpt lat="64.296379089" lon="-20.239418030">
<ele>141.367188</ele>
<time>2012-07-20T14:06:14Z</time>
<speed>3.730000</speed>
<extensions>
<speed>3.7</speed>
<temp>0.00</temp>
<bpm>0</bpm>
<rpm>0.00</rpm>
</extensions>
</trkpt>
<trkpt lat="64.296249390" lon="-20.239154816">
<ele>141.023438</ele>
<time>2012-07-20T14:06:19Z</time>
<speed>4.050000</speed>
<extensions>
<speed>4.0</speed>
<temp>0.00</temp>
<bpm>0</bpm>
<rpm>0.00</rpm>
</extensions>
</trkpt>
<trkpt lat="64.296119690" lon="-20.238912582">
<ele>141.289063</ele>
<time>2012-07-20T14:06:24Z</time>
<speed>3.890000</speed>
<extensions>
<speed>3.9</speed>
<temp>0.00</temp>
<bpm>0</bpm>
<rpm>0.00</rpm>
</extensions>
</trkpt>
<trkpt lat="64.295967102" lon="-20.238697052">
<ele>140.703125</ele>
<time>2012-07-20T14:06:29Z</time>
<speed>3.550000</speed>
<extensions>
<speed>3.5</speed>
<temp>0.00</temp>
<bpm>0</bpm>
<rpm>0.00</rpm>
</extensions>
</trkpt>
<trkpt lat="64.295822144" lon="-20.238460541">
<ele>140.187500</ele>
<time>2012-07-20T14:06:34Z</time>
<speed>3.730000</speed>
<extensions>
<speed>3.7</speed>
<temp>0.00</temp>
<bpm>0</bpm>
<rpm>0.00</rpm>
</extensions>
</trkpt>
<trkpt lat="64.295684814" lon="-20.238262177">
<ele>139.789063</ele>
<time>2012-07-20T14:06:39Z</time>
<speed>3.730000</speed>
<extensions>
<speed>3.7</speed>
<temp>0.00</temp>
<bpm>0</bpm>
<rpm>0.00</rpm>
</extensions>
</trkpt>
<trkpt lat="64.295539856" lon="-20.238071442">
<ele>139.746094</ele>
<time>2012-07-20T14:06:44Z</time>
<speed>3.890000</speed>
<extensions>
<speed>3.9</speed>
<temp>0.00</temp>
<bpm>0</bpm>
<rpm>0.00</rpm>
</extensions>
</trkpt>
<trkpt lat="64.295387268" lon="-20.237880707">
<ele>140.394531</ele>
<time>2012-07-20T14:06:49Z</time>
<speed>3.840000</speed>
<extensions>
<speed>3.8</speed>
<temp>0.00</temp>
<bpm>0</bpm>
<rpm>0.00</rpm>
</extensions>
</trkpt>
<trkpt lat="64.295242310" lon="-20.237693787">
<ele>139.812500</ele>
<time>2012-07-20T14:06:54Z</time>
<speed>3.420000</speed>
<extensions>
<speed>3.4</speed>
<temp>0.00</temp>
<bpm>0</bpm>
<rpm>0.00</rpm>
</extensions>
</trkpt>
<trkpt lat="64.295097351" lon="-20.237514496">
<ele>139.097656</ele>
<time>2012-07-20T14:06:59Z</time>
<speed>3.770000</speed>
<extensions>
<speed>3.8</speed>
<temp>0.00</temp>
<bpm>0</bpm>
<rpm>0.00</rpm>
</extensions>
</trkpt>
<trkpt lat="64.294944763" lon="-20.237314224">
<ele>138.808594</ele>
<time>2012-07-20T14:07:04Z</time>
<speed>4.020000</speed>
<extensions>
<speed>4.0</speed>
<temp>0.00</temp>
<bpm>0</bpm>
<rpm>0.00</rpm>
</extensions>
</trkpt>
<trkpt lat="64.294784546" lon="-20.237123489">
<ele>138.117188</ele>
<time>2012-07-20T14:07:09Z</time>
<speed>4.080000</speed>
<extensions>
<speed>4.1</speed>
<temp>0.00</temp>
<bpm>0</bpm>
<rpm>0.00</rpm>
</extensions>
</trkpt>
<trkpt lat="64.294609070" lon="-20.236963272">
<ele>138.726563</ele>
<time>2012-07-20T14:07:14Z</time>
<speed>4.160000</speed>
<extensions>
<speed>4.2</speed>
<temp>0.00</temp>
<bpm>0</bpm>
<rpm>0.00</rpm>
</extensions>
</trkpt>
<trkpt lat="64.294441223" lon="-20.236829758">
<ele>138.820313</ele>
<time>2012-07-20T14:07:19Z</time>
<speed>3.400000</speed>
<extensions>
<speed>3.4</speed>
<temp>0.00</temp>
<bpm>0</bpm>
<rpm>0.00</rpm>
</extensions>
</trkpt>
<trkpt lat="64.294288635" lon="-20.236743927">
<ele>138.632813</ele>
<time>2012-07-20T14:07:24Z</time>
<speed>3.530000</speed>
<extensions>
<speed>3.5</speed>
<temp>0.00</temp>
<bpm>0</bpm>
<rpm>0.00</rpm>
</extensions>
</trkpt>
<trkpt lat="64.294151306" lon="-20.236667633">
<ele>138.542969</ele>
<time>2012-07-20T14:07:29Z</time>
<speed>2.800000</speed>
<extensions>
<speed>2.8</speed>
<temp>0.00</temp>
<bpm>0</bpm>
<rpm>0.00</rpm>
</extensions>
</trkpt>
<trkpt lat="64.293991089" lon="-20.236562729">
<ele>138.214844</ele>
<time>2012-07-20T14:07:34Z</time>
<speed>4.080000</speed>
<extensions>
<speed>4.1</speed>
<temp>0.00</temp>
<bpm>0</bpm>
<rpm>0.00</rpm>
</extensions>
</trkpt>
<trkpt lat="64.293807983" lon="-20.236448288">
<ele>138.164063</ele>
<time>2012-07-20T14:07:39Z</time>
<speed>4.110000</speed>
<extensions>
<speed>4.1</speed>
<temp>0.00</temp>
<bpm>0</bpm>
<rpm>0.00</rpm>
</extensions>
</trkpt>
<trkpt lat="64.293617249" lon="-20.236328125">
<ele>136.871094</ele>
<time>2012-07-20T14:07:44Z</time>
<speed>4.300000</speed>
<extensions>
<speed>4.3</speed>
<temp>0.00</temp>
<bpm>0</bpm>
<rpm>0.00</rpm>
</extensions>
</trkpt>
<trkpt lat="64.293434143" lon="-20.236164093">
<ele>136.140625</ele>
<time>2012-07-20T14:07:49Z</time>
<speed>4.580000</speed>
<extensions>
<speed>4.6</speed>
<temp>0.00</temp>
<bpm>0</bpm>
<rpm>0.00</rpm>
</extensions>
</trkpt>
<trkpt lat="64.293258667" lon="-20.236019135">
<ele>135.835938</ele>
<time>2012-07-20T14:07:54Z</time>
<speed>3.950000</speed>
<extensions>
<speed>4.0</speed>
<temp>0.00</temp>
<bpm>0</bpm>
<rpm>0.00</rpm>
</extensions>
</trkpt>
<trkpt lat="64.293098450" lon="-20.235904694">
<ele>136.035156</ele>
<time>2012-07-20T14:07:59Z</time>
<speed>3.550000</speed>
<extensions>
<speed>3.5</speed>
<temp>0.00</temp>
<bpm>0</bpm>
<rpm>0.00</rpm>
</extensions>
</trkpt>
<trkpt lat="64.292938232" lon="-20.235778809">
<ele>136.117188</ele>
<time>2012-07-20T14:08:04Z</time>
<speed>3.990000</speed>
<extensions>
<speed>4.0</speed>
<temp>0.00</temp>
<bpm>0</bpm>
<rpm>0.00</rpm>
</extensions>
</trkpt>
<trkpt lat="64.292762756" lon="-20.235614777">
<ele>136.242188</ele>
<time>2012-07-20T14:08:09Z</time>
<speed>4.180000</speed>
<extensions>
<speed>4.2</speed>
<temp>0.00</temp>
<bpm>0</bpm>
<rpm>0.00</rpm>
</extensions>
</trkpt>
<trkpt lat="64.292587280" lon="-20.235460281">
<ele>135.925781</ele>
<time>2012-07-20T14:08:14Z</time>
<speed>4.400000</speed>
<extensions>
<speed>4.4</speed>
<temp>0.00</temp>
<bpm>0</bpm>
<rpm>0.00</rpm>
</extensions>
</trkpt>
<trkpt lat="64.292419434" lon="-20.235303879">
<ele>135.746094</ele>
<time>2012-07-20T14:08:19Z</time>
<speed>3.690000</speed>
<extensions>
<speed>3.7</speed>
<temp>0.00</temp>
<bpm>0</bpm>
<rpm>0.00</rpm>
</extensions>
</trkpt>
<trkpt lat="64.292289734" lon="-20.235183716">
<ele>135.304688</ele>
<time>2012-07-20T14:08:24Z</time>
<speed>2.630000</speed>
<extensions>
<speed>2.6</speed>
<temp>0.00</temp>
<bpm>0</bpm>
<rpm>0.00</rpm>
</extensions>
</trkpt>
<trkpt lat="64.292160034" lon="-20.235042572">
<ele>134.687500</ele>
<time>2012-07-20T14:08:29Z</time>
<speed>3.660000</speed>
<extensions>
<speed>3.7</speed>
<temp>0.00</temp>
<bpm>0</bpm>
<rpm>0.00</rpm>
</extensions>
</trkpt>
<trkpt lat="64.292022705" lon="-20.234878540">
<ele>134.230469</ele>
<time>2012-07-20T14:08:34Z</time>
<speed>3.000000</speed>
<extensions>
<speed>3.0</speed>
<temp>0.00</temp>
<bpm>0</bpm>
<rpm>0.00</rpm>
</extensions>
</trkpt>
<trkpt lat="64.291923523" lon="-20.234764099">
<ele>134.445313</ele>
<time>2012-07-20T14:08:39Z</time>
<speed>1.990000</speed>
<extensions>
<speed>2.0</speed>
<temp>0.00</temp>
<bpm>0</bpm>
<rpm>0.00</rpm>
</extensions>
</trkpt>
<trkpt lat="64.291847229" lon="-20.234670639">
<ele>134.906250</ele>
<time>2012-07-20T14:08:44Z</time>
<speed>2.200000</speed>
<extensions>
<speed>2.2</speed>
<temp>0.00</temp>
<bpm>0</bpm>
<rpm>0.00</rpm>
</extensions>
</trkpt>
<trkpt lat="64.291770935" lon="-20.234563828">
<ele>134.707031</ele>
<time>2012-07-20T14:08:49Z</time>
<speed>1.780000</speed>
<extensions>
<speed>1.8</speed>
<temp>0.00</temp>
<bpm>0</bpm>
<rpm>0.00</rpm>
</extensions>
</trkpt>
<trkpt lat="64.291694641" lon="-20.234451294">
<ele>135.277344</ele>
<time>2012-07-20T14:08:54Z</time>
<speed>2.200000</speed>
<extensions>
<speed>2.2</speed>
<temp>0.00</temp>
<bpm>0</bpm>
<rpm>0.00</rpm>
</extensions>
</trkpt>
<trkpt lat="64.291603088" lon="-20.234329224">
<ele>135.378906</ele>
<time>2012-07-20T14:08:59Z</time>
<speed>1.820000</speed>
<extensions>
<speed>1.8</speed>
<temp>0.00</temp>
<bpm>0</bpm>
<rpm>0.00</rpm>
</extensions>
</trkpt>
<trkpt lat="64.291519165" lon="-20.234207153">
<ele>135.218750</ele>
<time>2012-07-20T14:09:04Z</time>
<speed>2.540000</speed>
<extensions>
<speed>2.5</speed>
<temp>0.00</temp>
<bpm>0</bpm>
<rpm>0.00</rpm>
</extensions>
</trkpt>
<trkpt lat="64.291412354" lon="-20.234075546">
<ele>135.332031</ele>
<time>2012-07-20T14:09:09Z</time>
<speed>2.700000</speed>
<extensions>
<speed>2.7</speed>
<temp>0.00</temp>
<bpm>0</bpm>
<rpm>0.00</rpm>
</extensions>
</trkpt>
<trkpt lat="64.291305542" lon="-20.233934402">
<ele>135.507813</ele>
<time>2012-07-20T14:09:14Z</time>
<speed>2.940000</speed>
<extensions>
<speed>2.9</speed>
<temp>0.00</temp>
<bpm>0</bpm>
<rpm>0.00</rpm>
</extensions>
</trkpt>
<trkpt lat="64.291206360" lon="-20.233789444">
<ele>136.093750</ele>
<time>2012-07-20T14:09:19Z</time>
<speed>2.180000</speed>
<extensions>
<speed>2.2</speed>
<temp>0.00</temp>
<bpm>0</bpm>
<rpm>0.00</rpm>
</extensions>
</trkpt>
<trkpt lat="64.291107178" lon="-20.233612061">
<ele>134.191406</ele>
<time>2012-07-20T14:09:24Z</time>
<speed>2.760000</speed>
<extensions>
<speed>2.8</speed>
<temp>0.00</temp>
<bpm>0</bpm>
<rpm>0.00</rpm>
</extensions>
</trkpt>
<trkpt lat="64.290992737" lon="-20.233444214">
<ele>134.816406</ele>
<time>2012-07-20T14:09:29Z</time>
<speed>3.210000</speed>
<extensions>
<speed>3.2</speed>
<temp>0.00</temp>
<bpm>0</bpm>
<rpm>0.00</rpm>
</extensions>
</trkpt>
<trkpt lat="64.290878296" lon="-20.233257294">
<ele>135.003906</ele>
<time>2012-07-20T14:09:34Z</time>
<speed>3.460000</speed>
<extensions>
<speed>3.5</speed>
<temp>0.00</temp>
<bpm>0</bpm>
<rpm>0.00</rpm>
</extensions>
</trkpt>
<trkpt lat="64.290748596" lon="-20.233043671">
<ele>134.011719</ele>
<time>2012-07-20T14:09:39Z</time>
<speed>3.540000</speed>
<extensions>
<speed>3.5</speed>
<temp>0.00</temp>
<bpm>0</bpm>
<rpm>0.00</rpm>
</extensions>
</trkpt>
<trkpt lat="64.290626526" lon="-20.232831955">
<ele>133.804688</ele>
<time>2012-07-20T14:09:44Z</time>
<speed>3.360000</speed>
<extensions>
<speed>3.4</speed>
<temp>0.00</temp>
<bpm>0</bpm>
<rpm>0.00</rpm>
</extensions>
</trkpt>
<trkpt lat="64.290496826" lon="-20.232595444">
<ele>133.218750</ele>
<time>2012-07-20T14:09:49Z</time>
<speed>4.190000</speed>
<extensions>
<speed>4.2</speed>
<temp>0.00</temp>
<bpm>0</bpm>
<rpm>0.00</rpm>
</extensions>
</trkpt>
<trkpt lat="64.290344238" lon="-20.232339859">
<ele>133.488281</ele>
<time>2012-07-20T14:09:54Z</time>
<speed>4.110000</speed>
<extensions>
<speed>4.1</speed>
<temp>0.00</temp>
<bpm>0</bpm>
<rpm>0.00</rpm>
</extensions>
</trkpt>
<trkpt lat="64.290199280" lon="-20.232097626">
<ele>133.722656</ele>
<time>2012-07-20T14:09:59Z</time>
<speed>3.980000</speed>
<extensions>
<speed>4.0</speed>
<temp>0.00</temp>
<bpm>0</bpm>
<rpm>0.00</rpm>
</extensions>
</trkpt>
<trkpt lat="64.290061951" lon="-20.231851578">
<ele>135.585938</ele>
<time>2012-07-20T14:10:04Z</time>
<speed>3.940000</speed>
<extensions>
<speed>3.9</speed>
<temp>0.00</temp>
<bpm>0</bpm>
<rpm>0.00</rpm>
</extensions>
</trkpt>
<trkpt lat="64.289924622" lon="-20.231599808">
<ele>136.492188</ele>
<time>2012-07-20T14:10:09Z</time>
<speed>3.830000</speed>
<extensions>
<speed>3.8</speed>
<temp>0.00</temp>
<bpm>0</bpm>
<rpm>0.00</rpm>
</extensions>
</trkpt>
<trkpt lat="64.289787292" lon="-20.231369019">
<ele>136.082031</ele>
<time>2012-07-20T14:10:14Z</time>
<speed>4.040000</speed>
<extensions>
<speed>4.0</speed>
<temp>0.00</temp>
<bpm>0</bpm>
<rpm>0.00</rpm>
</extensions>
</trkpt>
<trkpt lat="64.289642334" lon="-20.231132507">
<ele>134.250000</ele>
<time>2012-07-20T14:10:19Z</time>
<speed>3.900000</speed>
<extensions>
<speed>3.9</speed>
<temp>0.00</temp>
<bpm>0</bpm>
<rpm>0.00</rpm>
</extensions>
</trkpt>
<trkpt lat="64.289482117" lon="-20.230878830">
<ele>134.039063</ele>
<time>2012-07-20T14:10:24Z</time>
<speed>4.510000</speed>
<extensions>
<speed>4.5</speed>
<temp>0.00</temp>
<bpm>0</bpm>
<rpm>0.00</rpm>
</extensions>
</trkpt>
<trkpt lat="64.289314270" lon="-20.230590820">
<ele>133.144531</ele>
<time>2012-07-20T14:10:29Z</time>
<speed>4.580000</speed>
<extensions>
<speed>4.6</speed>
<temp>0.00</temp>
<bpm>0</bpm>
<rpm>0.00</rpm>
</extensions>
</trkpt>
<trkpt lat="64.289154053" lon="-20.230297089">
<ele>133.167969</ele>
<time>2012-07-20T14:10:34Z</time>
<speed>4.540000</speed>
<extensions>
<speed>4.5</speed>
<temp>0.00</temp>
<bpm>0</bpm>
<rpm>0.00</rpm>
</extensions>
</trkpt>
<trkpt lat="64.288986206" lon="-20.229995728">
<ele>133.304688</ele>
<time>2012-07-20T14:10:39Z</time>
<speed>4.990000</speed>
<extensions>
<speed>5.0</speed>
<temp>0.00</temp>
<bpm>0</bpm>
<rpm>0.00</rpm>
</extensions>
</trkpt>
<trkpt lat="64.288795471" lon="-20.229682922">
<ele>132.507813</ele>
<time>2012-07-20T14:10:44Z</time>
<speed>5.260000</speed>
<extensions>
<speed>5.3</speed>
<temp>0.00</temp>
<bpm>0</bpm>
<rpm>0.00</rpm>
</extensions>
</trkpt>
<trkpt lat="64.288604736" lon="-20.229362488">
<ele>132.359375</ele>
<time>2012-07-20T14:10:49Z</time>
<speed>5.110000</speed>
<extensions>
<speed>5.1</speed>
<temp>0.00</temp>
<bpm>0</bpm>
<rpm>0.00</rpm>
</extensions>
</trkpt>
<trkpt lat="64.288436890" lon="-20.229042053">
<ele>131.921875</ele>
<time>2012-07-20T14:10:54Z</time>
<speed>4.840000</speed>
<extensions>
<speed>4.8</speed>
<temp>0.00</temp>
<bpm>0</bpm>
<rpm>0.00</rpm>
</extensions>
</trkpt>
<trkpt lat="64.288253784" lon="-20.228738785">
<ele>131.707031</ele>
<time>2012-07-20T14:10:59Z</time>
<speed>4.990000</speed>
<extensions>
<speed>5.0</speed>
<temp>0.00</temp>
<bpm>0</bpm>
<rpm>0.00</rpm>
</extensions>
</trkpt>
<trkpt lat="64.288070679" lon="-20.228414536">
<ele>130.511719</ele>
<time>2012-07-20T14:11:04Z</time>
<speed>5.380000</speed>
<extensions>
<speed>5.4</speed>
<temp>0.00</temp>
<bpm>0</bpm>
<rpm>0.00</rpm>
</extensions>
</trkpt>
<trkpt lat="64.287872314" lon="-20.228044510">
<ele>129.042969</ele>
<time>2012-07-20T14:11:09Z</time>
<speed>6.530000</speed>
<extensions>
<speed>6.5</speed>
<temp>0.00</temp>
<bpm>0</bpm>
<rpm>0.00</rpm>
</extensions>
</trkpt>
<trkpt lat="64.287605286" lon="-20.227588654">
<ele>127.214844</ele>
<time>2012-07-20T14:11:14Z</time>
<speed>7.750000</speed>
<extensions>
<speed>7.7</speed>
<temp>0.00</temp>
<bpm>0</bpm>
<rpm>0.00</rpm>
</extensions>
</trkpt>
<trkpt lat="64.287322998" lon="-20.227104187">
<ele>125.822266</ele>
<time>2012-07-20T14:11:19Z</time>
<speed>7.890000</speed>
<extensions>
<speed>7.9</speed>
<temp>0.00</temp>
<bpm>0</bpm>
<rpm>0.00</rpm>
</extensions>
</trkpt>
<trkpt lat="64.287040710" lon="-20.226634979">
<ele>124.529297</ele>
<time>2012-07-20T14:11:24Z</time>
<speed>7.560000</speed>
<extensions>
<speed>7.6</speed>
<temp>0.00</temp>
<bpm>0</bpm>
<rpm>0.00</rpm>
</extensions>
</trkpt>
<trkpt lat="64.286788940" lon="-20.226242065">
<ele>126.054688</ele>
<time>2012-07-20T14:11:29Z</time>
<speed>5.870000</speed>
<extensions>
<speed>5.9</speed>
<temp>0.00</temp>
<bpm>0</bpm>
<rpm>0.00</rpm>
</extensions>
</trkpt>
<trkpt lat="64.286582947" lon="-20.225976944">
<ele>126.037109</ele>
<time>2012-07-20T14:11:34Z</time>
<speed>5.210000</speed>
<extensions>
<speed>5.2</speed>
<temp>0.00</temp>
<bpm>0</bpm>
<rpm>0.00</rpm>
</extensions>
</trkpt>
<trkpt lat="64.286354065" lon="-20.225728989">
<ele>125.421875</ele>
<time>2012-07-20T14:11:39Z</time>
<speed>5.500000</speed>
<extensions>
<speed>5.5</speed>
<temp>0.00</temp>
<bpm>0</bpm>
<rpm>0.00</rpm>
</extensions>
</trkpt>
<trkpt lat="64.286140442" lon="-20.225524902">
<ele>124.808594</ele>
<time>2012-07-20T14:11:44Z</time>
<speed>4.930000</speed>
<extensions>
<speed>4.9</speed>
<temp>0.00</temp>
<bpm>0</bpm>
<rpm>0.00</rpm>
</extensions>
</trkpt>
<trkpt lat="64.285957336" lon="-20.225376129">
<ele>124.980469</ele>
<time>2012-07-20T14:11:49Z</time>
<speed>4.280000</speed>
<extensions>
<speed>4.3</speed>
<temp>0.00</temp>
<bpm>0</bpm>
<rpm>0.00</rpm>
</extensions>
</trkpt>
<trkpt lat="64.285766602" lon="-20.225257874">
<ele>125.208984</ele>
<time>2012-07-20T14:11:54Z</time>
<speed>4.740000</speed>
<extensions>
<speed>4.7</speed>
<temp>0.00</temp>
<bpm>0</bpm>
<rpm>0.00</rpm>
</extensions>
</trkpt>
<trkpt lat="64.285537720" lon="-20.225179672">
<ele>124.958984</ele>
<time>2012-07-20T14:11:59Z</time>
<speed>5.180000</speed>
<extensions>
<speed>5.2</speed>
<temp>0.00</temp>
<bpm>0</bpm>
<rpm>0.00</rpm>
</extensions>
</trkpt>
<trkpt lat="64.285308838" lon="-20.225141525">
<ele>124.552734</ele>
<time>2012-07-20T14:12:04Z</time>
<speed>4.810000</speed>
<extensions>
<speed>4.8</speed>
<temp>0.00</temp>
<bpm>0</bpm>
<rpm>0.00</rpm>
</extensions>
</trkpt>
<trkpt lat="64.285110474" lon="-20.225122452">
<ele>124.187500</ele>
<time>2012-07-20T14:12:09Z</time>
<speed>4.530000</speed>
<extensions>
<speed>4.5</speed>
<temp>0.00</temp>
<bpm>0</bpm>
<rpm>0.00</rpm>
</extensions>
</trkpt>
<trkpt lat="64.284889221" lon="-20.225126266">
<ele>123.666016</ele>
<time>2012-07-20T14:12:14Z</time>
<speed>5.230000</speed>
<extensions>
<speed>5.2</speed>
<temp>0.00</temp>
<bpm>0</bpm>
<rpm>0.00</rpm>
</extensions>
</trkpt>
<trkpt lat="64.284645081" lon="-20.225120544">
<ele>122.849609</ele>
<time>2012-07-20T14:12:19Z</time>
<speed>5.610000</speed>
<extensions>
<speed>5.6</speed>
<temp>0.00</temp>
<bpm>0</bpm>
<rpm>0.00</rpm>
</extensions>
</trkpt>
<trkpt lat="64.284393311" lon="-20.225099564">
<ele>122.205078</ele>
<time>2012-07-20T14:12:24Z</time>
<speed>5.480000</speed>
<extensions>
<speed>5.5</speed>
<temp>0.00</temp>
<bpm>0</bpm>
<rpm>0.00</rpm>
</extensions>
</trkpt>
<trkpt lat="64.284149170" lon="-20.225090027">
<ele>121.386719</ele>
<time>2012-07-20T14:12:29Z</time>
<speed>5.180000</speed>
<extensions>
<speed>5.2</speed>
<temp>0.00</temp>
<bpm>0</bpm>
<rpm>0.00</rpm>
</extensions>
</trkpt>
<trkpt lat="64.283920288" lon="-20.225069046">
<ele>120.787109</ele>
<time>2012-07-20T14:12:34Z</time>
<speed>5.290000</speed>
<extensions>
<speed>5.3</speed>
<temp>0.00</temp>
<bpm>0</bpm>
<rpm>0.00</rpm>
</extensions>
</trkpt>
<trkpt lat="64.283676147" lon="-20.225057602">
<ele>120.730469</ele>
<time>2012-07-20T14:12:39Z</time>
<speed>5.410000</speed>
<extensions>
<speed>5.4</speed>
<temp>0.00</temp>
<bpm>0</bpm>
<rpm>0.00</rpm>
</extensions>
</trkpt>
<trkpt lat="64.283432007" lon="-20.225051880">
<ele>120.537109</ele>
<time>2012-07-20T14:12:44Z</time>
<speed>5.340000</speed>
<extensions>
<speed>5.3</speed>
<temp>0.00</temp>
<bpm>0</bpm>
<rpm>0.00</rpm>
</extensions>
</trkpt>
<trkpt lat="64.283195496" lon="-20.225036621">
<ele>120.712891</ele>
<time>2012-07-20T14:12:49Z</time>
<speed>5.200000</speed>
<extensions>
<speed>5.2</speed>
<temp>0.00</temp>
<bpm>0</bpm>
<rpm>0.00</rpm>
</extensions>
</trkpt>
<trkpt lat="64.282989502" lon="-20.225019455">
<ele>120.859375</ele>
<time>2012-07-20T14:12:54Z</time>
<speed>4.010000</speed>
<extensions>
<speed>4.0</speed>
<temp>0.00</temp>
<bpm>0</bpm>
<rpm>0.00</rpm>
</extensions>
</trkpt>
<trkpt lat="64.282829285" lon="-20.225011826">
<ele>120.742188</ele>
<time>2012-07-20T14:12:59Z</time>
<speed>3.050000</speed>
<extensions>
<speed>3.0</speed>
<temp>0.00</temp>
<bpm>0</bpm>
<rpm>0.00</rpm>
</extensions>
</trkpt>
<trkpt lat="64.282684326" lon="-20.224990845">
<ele>120.769531</ele>
<time>2012-07-20T14:13:04Z</time>
<speed>3.510000</speed>
<extensions>
<speed>3.5</speed>
<temp>0.00</temp>
<bpm>0</bpm>
<rpm>0.00</rpm>
</extensions>
</trkpt>
<trkpt lat="64.282516479" lon="-20.224981308">
<ele>120.699219</ele>
<time>2012-07-20T14:13:09Z</time>
<speed>3.810000</speed>
<extensions>
<speed>3.8</speed>
<temp>0.00</temp>
<bpm>0</bpm>
<rpm>0.00</rpm>
</extensions>
</trkpt>
<trkpt lat="64.282348633" lon="-20.224967957">
<ele>121.269531</ele>
<time>2012-07-20T14:13:14Z</time>
<speed>3.780000</speed>
<extensions>
<speed>3.8</speed>
<temp>0.00</temp>
<bpm>0</bpm>
<rpm>0.00</rpm>
</extensions>
</trkpt>
<trkpt lat="64.282180786" lon="-20.224952698">
<ele>121.314453</ele>
<time>2012-07-20T14:13:19Z</time>
<speed>3.660000</speed>
<extensions>
<speed>3.7</speed>
<temp>0.00</temp>
<bpm>0</bpm>
<rpm>0.00</rpm>
</extensions>
</trkpt>
<trkpt lat="64.282012939" lon="-20.224950790">
<ele>120.906250</ele>
<time>2012-07-20T14:13:24Z</time>
<speed>3.770000</speed>
<extensions>
<speed>3.8</speed>
<temp>0.00</temp>
<bpm>0</bpm>
<rpm>0.00</rpm>
</extensions>
</trkpt>
<trkpt lat="64.281845093" lon="-20.224948883">
<ele>120.740234</ele>
<time>2012-07-20T14:13:29Z</time>
<speed>4.050000</speed>
<extensions>
<speed>4.0</speed>
<temp>0.00</temp>
<bpm>0</bpm>
<rpm>0.00</rpm>
</extensions>
</trkpt>
<trkpt lat="64.281646729" lon="-20.224943161">
<ele>120.125000</ele>
<time>2012-07-20T14:13:34Z</time>
<speed>4.490000</speed>
<extensions>
<speed>4.5</speed>
<temp>0.00</temp>
<bpm>0</bpm>
<rpm>0.00</rpm>
</extensions>
</trkpt>
<trkpt lat="64.281440735" lon="-20.224939346">
<ele>119.662109</ele>
<time>2012-07-20T14:13:39Z</time>
<speed>4.650000</speed>
<extensions>
<speed>4.6</speed>
<temp>0.00</temp>
<bpm>0</bpm>
<rpm>0.00</rpm>
</extensions>
</trkpt>
<trkpt lat="64.281227112" lon="-20.224920273">
<ele>119.351563</ele>
<time>2012-07-20T14:13:44Z</time>
<speed>4.860000</speed>
<extensions>
<speed>4.9</speed>
<temp>0.00</temp>
<bpm>0</bpm>
<rpm>0.00</rpm>
</extensions>
</trkpt>
<trkpt lat="64.281005859" lon="-20.224903107">
<ele>119.177734</ele>
<time>2012-07-20T14:13:49Z</time>
<speed>5.030000</speed>
<extensions>
<speed>5.0</speed>
<temp>0.00</temp>
<bpm>0</bpm>
<rpm>0.00</rpm>
</extensions>
</trkpt>
<trkpt lat="64.280776978" lon="-20.224905014">
<ele>119.173828</ele>
<time>2012-07-20T14:13:54Z</time>
<speed>5.120000</speed>
<extensions>
<speed>5.1</speed>
<temp>0.00</temp>
<bpm>0</bpm>
<rpm>0.00</rpm>
</extensions>
</trkpt>
<trkpt lat="64.280563354" lon="-20.224918365">
<ele>118.916016</ele>
<time>2012-07-20T14:13:59Z</time>
<speed>4.530000</speed>
<extensions>
<speed>4.5</speed>
<temp>0.00</temp>
<bpm>0</bpm>
<rpm>0.00</rpm>
</extensions>
</trkpt>
<trkpt lat="64.280364990" lon="-20.224964142">
<ele>118.541016</ele>
<time>2012-07-20T14:14:04Z</time>
<speed>4.260000</speed>
<extensions>
<speed>4.3</speed>
<temp>0.00</temp>
<bpm>0</bpm>
<rpm>0.00</rpm>
</extensions>
</trkpt>
<trkpt lat="64.280174255" lon="-20.225049973">
<ele>119.705078</ele>
<time>2012-07-20T14:14:09Z</time>
<speed>3.980000</speed>
<extensions>
<speed>4.0</speed>
<temp>0.00</temp>
<bpm>0</bpm>
<rpm>0.00</rpm>
</extensions>
</trkpt>
<trkpt lat="64.279953003" lon="-20.225141525">
<ele>118.591797</ele>
<time>2012-07-20T14:14:14Z</time>
<speed>5.500000</speed>
<extensions>
<speed>5.5</speed>
<temp>0.00</temp>
<bpm>0</bpm>
<rpm>0.00</rpm>
</extensions>
</trkpt>
<trkpt lat="64.279693604" lon="-20.225252151">
<ele>117.927734</ele>
<time>2012-07-20T14:14:19Z</time>
<speed>5.810000</speed>
<extensions>
<speed>5.8</speed>
<temp>0.00</temp>
<bpm>0</bpm>
<rpm>0.00</rpm>
</extensions>
</trkpt>
<trkpt lat="64.279426575" lon="-20.225358963">
<ele>116.718750</ele>
<time>2012-07-20T14:14:24Z</time>
<speed>6.050000</speed>
<extensions>
<speed>6.1</speed>
<temp>0.00</temp>
<bpm>0</bpm>
<rpm>0.00</rpm>
</extensions>
</trkpt>
<trkpt lat="64.279167175" lon="-20.225460052">
<ele>116.515625</ele>
<time>2012-07-20T14:14:29Z</time>
<speed>5.780000</speed>
<extensions>
<speed>5.8</speed>
<temp>0.00</temp>
<bpm>0</bpm>
<rpm>0.00</rpm>
</extensions>
</trkpt>
<trkpt lat="64.278930664" lon="-20.225563049">
<ele>116.015625</ele>
<time>2012-07-20T14:14:34Z</time>
<speed>4.830000</speed>
<extensions>
<speed>4.8</speed>
<temp>0.00</temp>
<bpm>0</bpm>
<rpm>0.00</rpm>
</extensions>
</trkpt>
<trkpt lat="64.278724670" lon="-20.225633621">
<ele>116.166016</ele>
<time>2012-07-20T14:14:39Z</time>
<speed>4.590000</speed>
<extensions>
<speed>4.6</speed>
<temp>0.00</temp>
<bpm>0</bpm>
<rpm>0.00</rpm>
</extensions>
</trkpt>
<trkpt lat="64.278503418" lon="-20.225723267">
<ele>115.509766</ele>
<time>2012-07-20T14:14:44Z</time>
<speed>5.530000</speed>
<extensions>
<speed>5.5</speed>
<temp>0.00</temp>
<bpm>0</bpm>
<rpm>0.00</rpm>
</extensions>
</trkpt>
<trkpt lat="64.278259277" lon="-20.225803375">
<ele>115.048828</ele>
<time>2012-07-20T14:14:49Z</time>
<speed>5.130000</speed>
<extensions>
<speed>5.1</speed>
<temp>0.00</temp>
<bpm>0</bpm>
<rpm>0.00</rpm>
</extensions>
</trkpt>
<trkpt lat="64.278045654" lon="-20.225877762">
<ele>115.324219</ele>
<time>2012-07-20T14:14:54Z</time>
<speed>4.660000</speed>
<extensions>
<speed>4.7</speed>
<temp>0.00</temp>
<bpm>0</bpm>
<rpm>0.00</rpm>
</extensions>
</trkpt>
<trkpt lat="64.277839661" lon="-20.225959778">
<ele>115.285156</ele>
<time>2012-07-20T14:14:59Z</time>
<speed>4.810000</speed>
<extensions>
<speed>4.8</speed>
<temp>0.00</temp>
<bpm>0</bpm>
<rpm>0.00</rpm>
</extensions>
</trkpt>
<trkpt lat="64.277633667" lon="-20.226057053">
<ele>115.892578</ele>
<time>2012-07-20T14:15:04Z</time>
<speed>4.560000</speed>
<extensions>
<speed>4.6</speed>
<temp>0.00</temp>
<bpm>0</bpm>
<rpm>0.00</rpm>
</extensions>
</trkpt>
<trkpt lat="64.277458191" lon="-20.226139069">
<ele>116.453125</ele>
<time>2012-07-20T14:15:09Z</time>
<speed>3.120000</speed>
<extensions>
<speed>3.1</speed>
<temp>0.00</temp>
<bpm>0</bpm>
<rpm>0.00</rpm>
</extensions>
</trkpt>
<trkpt lat="64.277359009" lon="-20.226188660">
<ele>116.980469</ele>
<time>2012-07-20T14:15:14Z</time>
<speed>2.370000</speed>
<extensions>
<speed>2.4</speed>
<temp>0.00</temp>
<bpm>0</bpm>
<rpm>0.00</rpm>
</extensions>
</trkpt>
<trkpt lat="64.277244568" lon="-20.226266861">
<ele>117.101563</ele>
<time>2012-07-20T14:15:19Z</time>
<speed>2.670000</speed>
<extensions>
<speed>2.7</speed>
<temp>0.00</temp>
<bpm>0</bpm>
<rpm>0.00</rpm>
</extensions>
</trkpt>
<trkpt lat="64.277137756" lon="-20.226335526">
<ele>117.554688</ele>
<time>2012-07-20T14:15:24Z</time>
<speed>2.740000</speed>
<extensions>
<speed>2.7</speed>
<temp>0.00</temp>
<bpm>0</bpm>
<rpm>0.00</rpm>
</extensions>
</trkpt>
<trkpt lat="64.277015686" lon="-20.226425171">
<ele>118.210938</ele>
<time>2012-07-20T14:15:29Z</time>
<speed>3.000000</speed>
<extensions>
<speed>3.0</speed>
<temp>0.00</temp>
<bpm>0</bpm>
<rpm>0.00</rpm>
</extensions>
</trkpt>
<trkpt lat="64.276885986" lon="-20.226526260">
<ele>117.708984</ele>
<time>2012-07-20T14:15:34Z</time>
<speed>2.940000</speed>
<extensions>
<speed>2.9</speed>
<temp>0.00</temp>
<bpm>0</bpm>
<rpm>0.00</rpm>
</extensions>
</trkpt>
<trkpt lat="64.276779175" lon="-20.226591110">
<ele>118.460938</ele>
<time>2012-07-20T14:15:39Z</time>
<speed>2.560000</speed>
<extensions>
<speed>2.6</speed>
<temp>0.00</temp>
<bpm>0</bpm>
<rpm>0.00</rpm>
</extensions>
</trkpt>
<trkpt lat="64.276657104" lon="-20.226659775">
<ele>118.917969</ele>
<time>2012-07-20T14:15:44Z</time>
<speed>2.980000</speed>
<extensions>
<speed>3.0</speed>
<temp>0.00</temp>
<bpm>0</bpm>
<rpm>0.00</rpm>
</extensions>
</trkpt>
<trkpt lat="64.276519775" lon="-20.226720810">
<ele>118.968750</ele>
<time>2012-07-20T14:15:49Z</time>
<speed>3.190000</speed>
<extensions>
<speed>3.2</speed>
<temp>0.00</temp>
<bpm>0</bpm>
<rpm>0.00</rpm>
</extensions>
</trkpt>
<trkpt lat="64.276367188" lon="-20.226755142">
<ele>119.429688</ele>
<time>2012-07-20T14:15:54Z</time>
<speed>3.580000</speed>
<extensions>
<speed>3.6</speed>
<temp>0.00</temp>
<bpm>0</bpm>
<rpm>0.00</rpm>
</extensions>
</trkpt>
<trkpt lat="64.276214600" lon="-20.226789474">
<ele>120.144531</ele>
<time>2012-07-20T14:15:59Z</time>
<speed>3.450000</speed>
<extensions>
<speed>3.5</speed>
<temp>0.00</temp>
<bpm>0</bpm>
<rpm>0.00</rpm>
</extensions>
</trkpt>
<trkpt lat="64.276062012" lon="-20.226814270">
<ele>120.464844</ele>
<time>2012-07-20T14:16:04Z</time>
<speed>3.370000</speed>
<extensions>
<speed>3.4</speed>
<temp>0.00</temp>
<bpm>0</bpm>
<rpm>0.00</rpm>
</extensions>
</trkpt>
<trkpt lat="64.275909424" lon="-20.226835251">
<ele>120.605469</ele>
<time>2012-07-20T14:16:09Z</time>
<speed>3.550000</speed>
<extensions>
<speed>3.5</speed>
<temp>0.00</temp>
<bpm>0</bpm>
<rpm>0.00</rpm>
</extensions>
</trkpt>
<trkpt lat="64.275741577" lon="-20.226854324">
<ele>120.736328</ele>
<time>2012-07-20T14:16:14Z</time>
<speed>3.900000</speed>
<extensions>
<speed>3.9</speed>
<temp>0.00</temp>
<bpm>0</bpm>
<rpm>0.00</rpm>
</extensions>
</trkpt>
<trkpt lat="64.275558472" lon="-20.226852417">
<ele>121.265625</ele>
<time>2012-07-20T14:16:19Z</time>
<speed>4.280000</speed>
<extensions>
<speed>4.3</speed>
<temp>0.00</temp>
<bpm>0</bpm>
<rpm>0.00</rpm>
</extensions>
</trkpt>
<trkpt lat="64.275367737" lon="-20.226844788">
<ele>121.300781</ele>
<time>2012-07-20T14:16:24Z</time>
<speed>4.070000</speed>
<extensions>
<speed>4.1</speed>
<temp>0.00</temp>
<bpm>0</bpm>
<rpm>0.00</rpm>
</extensions>
</trkpt>
<trkpt lat="64.275192261" lon="-20.226856232">
<ele>121.316406</ele>
<time>2012-07-20T14:16:29Z</time>
<speed>3.800000</speed>
<extensions>
<speed>3.8</speed>
<temp>0.00</temp>
<bpm>0</bpm>
<rpm>0.00</rpm>
</extensions>
</trkpt>
<trkpt lat="64.275024414" lon="-20.226856232">
<ele>121.728516</ele>
<time>2012-07-20T14:16:34Z</time>
<speed>4.010000</speed>
<extensions>
<speed>4.0</speed>
<temp>0.00</temp>
<bpm>0</bpm>
<rpm>0.00</rpm>
</extensions>
</trkpt>
<trkpt lat="64.274833679" lon="-20.226846695">
<ele>122.044922</ele>
<time>2012-07-20T14:16:39Z</time>
<speed>4.220000</speed>
<extensions>
<speed>4.2</speed>
<temp>0.00</temp>
<bpm>0</bpm>
<rpm>0.00</rpm>
</extensions>
</trkpt>
<trkpt lat="64.274650574" lon="-20.226850510">
<ele>122.529297</ele>
<time>2012-07-20T14:16:44Z</time>
<speed>4.260000</speed>
<extensions>
<speed>4.3</speed>
<temp>0.00</temp>
<bpm>0</bpm>
<rpm>0.00</rpm>
</extensions>
</trkpt>
<trkpt lat="64.274452209" lon="-20.226837158">
<ele>123.169922</ele>
<time>2012-07-20T14:16:49Z</time>
<speed>3.980000</speed>
<extensions>
<speed>4.0</speed>
<temp>0.00</temp>
<bpm>0</bpm>
<rpm>0.00</rpm>
</extensions>
</trkpt>
<trkpt lat="64.274261475" lon="-20.226816177">
<ele>123.113281</ele>
<time>2012-07-20T14:16:54Z</time>
<speed>4.320000</speed>
<extensions>
<speed>4.3</speed>
<temp>0.00</temp>
<bpm>0</bpm>
<rpm>0.00</rpm>
</extensions>
</trkpt>
<trkpt lat="64.274078369" lon="-20.226772308">
<ele>123.832031</ele>
<time>2012-07-20T14:16:59Z</time>
<speed>4.340000</speed>
<extensions>
<speed>4.3</speed>
<temp>0.00</temp>
<bpm>0</bpm>
<rpm>0.00</rpm>
</extensions>
</trkpt>
<trkpt lat="64.273872375" lon="-20.226686478">
<ele>123.107422</ele>
<time>2012-07-20T14:17:04Z</time>
<speed>4.810000</speed>
<extensions>
<speed>4.8</speed>
<temp>0.00</temp>
<bpm>0</bpm>
<rpm>0.00</rpm>
</extensions>
</trkpt>
<trkpt lat="64.273674011" lon="-20.226579666">
<ele>122.380859</ele>
<time>2012-07-20T14:17:09Z</time>
<speed>4.500000</speed>
<extensions>
<speed>4.5</speed>
<temp>0.00</temp>
<bpm>0</bpm>
<rpm>0.00</rpm>
</extensions>
</trkpt>
<trkpt lat="64.273483276" lon="-20.226463318">
<ele>121.955078</ele>
<time>2012-07-20T14:17:14Z</time>
<speed>4.450000</speed>
<extensions>
<speed>4.5</speed>
<temp>0.00</temp>
<bpm>0</bpm>
<rpm>0.00</rpm>
</extensions>
</trkpt>
<trkpt lat="64.273300171" lon="-20.226358414">
<ele>121.953125</ele>
<time>2012-07-20T14:17:19Z</time>
<speed>4.400000</speed>
<extensions>
<speed>4.4</speed>
<temp>0.00</temp>
<bpm>0</bpm>
<rpm>0.00</rpm>
</extensions>
</trkpt>
<trkpt lat="64.273094177" lon="-20.226243973">
<ele>122.314453</ele>
<time>2012-07-20T14:17:24Z</time>
<speed>4.700000</speed>
<extensions>
<speed>4.7</speed>
<temp>0.00</temp>
<bpm>0</bpm>
<rpm>0.00</rpm>
</extensions>
</trkpt>
<trkpt lat="64.272888184" lon="-20.226146698">
<ele>122.421875</ele>
<time>2012-07-20T14:17:29Z</time>
<speed>5.010000</speed>
<extensions>
<speed>5.0</speed>
<temp>0.00</temp>
<bpm>0</bpm>
<rpm>0.00</rpm>
</extensions>
</trkpt>
<trkpt lat="64.272674561" lon="-20.226057053">
<ele>122.291016</ele>
<time>2012-07-20T14:17:34Z</time>
<speed>4.810000</speed>
<extensions>
<speed>4.8</speed>
<temp>0.00</temp>
<bpm>0</bpm>
<rpm>0.00</rpm>
</extensions>
</trkpt>
<trkpt lat="64.272445679" lon="-20.225988388">
<ele>122.562500</ele>
<time>2012-07-20T14:17:39Z</time>
<speed>5.050000</speed>
<extensions>
<speed>5.1</speed>
<temp>0.00</temp>
<bpm>0</bpm>
<rpm>0.00</rpm>
</extensions>
</trkpt>
<trkpt lat="64.272232056" lon="-20.225963593">
<ele>122.355469</ele>
<time>2012-07-20T14:17:44Z</time>
<speed>4.490000</speed>
<extensions>
<speed>4.5</speed>
<temp>0.00</temp>
<bpm>0</bpm>
<rpm>0.00</rpm>
</extensions>
</trkpt>
<trkpt lat="64.272010803" lon="-20.225990295">
<ele>121.021484</ele>
<time>2012-07-20T14:17:49Z</time>
<speed>6.260000</speed>
<extensions>
<speed>6.3</speed>
<temp>0.00</temp>
<bpm>0</bpm>
<rpm>0.00</rpm>
</extensions>
</trkpt>
<trkpt lat="64.271774292" lon="-20.226041794">
<ele>120.097656</ele>
<time>2012-07-20T14:17:54Z</time>
<speed>5.230000</speed>
<extensions>
<speed>5.2</speed>
<temp>0.00</temp>
<bpm>0</bpm>
<rpm>0.00</rpm>
</extensions>
</trkpt>
<trkpt lat="64.271560669" lon="-20.226118088">
<ele>120.564453</ele>
<time>2012-07-20T14:17:59Z</time>
<speed>4.800000</speed>
<extensions>
<speed>4.8</speed>
<temp>0.00</temp>
<bpm>0</bpm>
<rpm>0.00</rpm>
</extensions>
</trkpt>
<trkpt lat="64.271369934" lon="-20.226243973">
<ele>120.460938</ele>
<time>2012-07-20T14:18:04Z</time>
<speed>4.020000</speed>
<extensions>
<speed>4.0</speed>
<temp>0.00</temp>
<bpm>0</bpm>
<rpm>0.00</rpm>
</extensions>
</trkpt>
<trkpt lat="64.271186829" lon="-20.226360321">
<ele>120.710938</ele>
<time>2012-07-20T14:18:09Z</time>
<speed>4.420000</speed>
<extensions>
<speed>4.4</speed>
<temp>0.00</temp>
<bpm>0</bpm>
<rpm>0.00</rpm>
</extensions>
</trkpt>
<trkpt lat="64.270988464" lon="-20.226478577">
<ele>120.244141</ele>
<time>2012-07-20T14:18:14Z</time>
<speed>4.730000</speed>
<extensions>
<speed>4.7</speed>
<temp>0.00</temp>
<bpm>0</bpm>
<rpm>0.00</rpm>
</extensions>
</trkpt>
<trkpt lat="64.270774841" lon="-20.226575851">
<ele>120.578125</ele>
<time>2012-07-20T14:18:19Z</time>
<speed>4.820000</speed>
<extensions>
<speed>4.8</speed>
<temp>0.00</temp>
<bpm>0</bpm>
<rpm>0.00</rpm>
</extensions>
</trkpt>
<trkpt lat="64.270553589" lon="-20.226644516">
<ele>120.935547</ele>
<time>2012-07-20T14:18:24Z</time>
<speed>4.810000</speed>
<extensions>
<speed>4.8</speed>
<temp>0.00</temp>
<bpm>0</bpm>
<rpm>0.00</rpm>
</extensions>
</trkpt>
<trkpt lat="64.270332336" lon="-20.226692200">
<ele>120.871094</ele>
<time>2012-07-20T14:18:29Z</time>
<speed>4.550000</speed>
<extensions>
<speed>4.5</speed>
<temp>0.00</temp>
<bpm>0</bpm>
<rpm>0.00</rpm>
</extensions>
</trkpt>
<trkpt lat="64.270103455" lon="-20.226686478">
<ele>121.001953</ele>
<time>2012-07-20T14:18:34Z</time>
<speed>5.200000</speed>
<extensions>
<speed>5.2</speed>
<temp>0.00</temp>
<bpm>0</bpm>
<rpm>0.00</rpm>
</extensions>
</trkpt>
<trkpt lat="64.269882202" lon="-20.226665497">
<ele>120.707031</ele>
<time>2012-07-20T14:18:39Z</time>
<speed>4.700000</speed>
<extensions>
<speed>4.7</speed>
<temp>0.00</temp>
<bpm>0</bpm>
<rpm>0.00</rpm>
</extensions>
</trkpt>
<trkpt lat="64.269668579" lon="-20.226594925">
<ele>120.078125</ele>
<time>2012-07-20T14:18:44Z</time>
<speed>5.030000</speed>
<extensions>
<speed>5.0</speed>
<temp>0.00</temp>
<bpm>0</bpm>
<rpm>0.00</rpm>
</extensions>
</trkpt>
<trkpt lat="64.269439697" lon="-20.226501465">
<ele>119.201172</ele>
<time>2012-07-20T14:18:49Z</time>
<speed>5.220000</speed>
<extensions>
<speed>5.2</speed>
<temp>0.00</temp>
<bpm>0</bpm>
<rpm>0.00</rpm>
</extensions>
</trkpt>
<trkpt lat="64.269210815" lon="-20.226350784">
<ele>118.423828</ele>
<time>2012-07-20T14:18:54Z</time>
<speed>5.630000</speed>
<extensions>
<speed>5.6</speed>
<temp>0.00</temp>
<bpm>0</bpm>
<rpm>0.00</rpm>
</extensions>
</trkpt>
<trkpt lat="64.268959045" lon="-20.226163864">
<ele>117.593750</ele>
<time>2012-07-20T14:18:59Z</time>
<speed>6.020000</speed>
<extensions>
<speed>6.0</speed>
<temp>0.00</temp>
<bpm>0</bpm>
<rpm>0.00</rpm>
</extensions>
</trkpt>
<trkpt lat="64.268699646" lon="-20.225925446">
<ele>116.501953</ele>
<time>2012-07-20T14:19:04Z</time>
<speed>6.260000</speed>
<extensions>
<speed>6.3</speed>
<temp>0.00</temp>
<bpm>0</bpm>
<rpm>0.00</rpm>
</extensions>
</trkpt>
<trkpt lat="64.268432617" lon="-20.225704193">
<ele>115.117188</ele>
<time>2012-07-20T14:19:09Z</time>
<speed>6.380000</speed>
<extensions>
<speed>6.4</speed>
<temp>0.00</temp>
<bpm>0</bpm>
<rpm>0.00</rpm>
</extensions>
</trkpt>
<trkpt lat="64.268188477" lon="-20.225490570">
<ele>113.246094</ele>
<time>2012-07-20T14:19:14Z</time>
<speed>5.710000</speed>
<extensions>
<speed>5.7</speed>
<temp>0.00</temp>
<bpm>0</bpm>
<rpm>0.00</rpm>
</extensions>
</trkpt>
<trkpt lat="64.267967224" lon="-20.225303650">
<ele>113.943359</ele>
<time>2012-07-20T14:19:19Z</time>
<speed>4.870000</speed>
<extensions>
<speed>4.9</speed>
<temp>0.00</temp>
<bpm>0</bpm>
<rpm>0.00</rpm>
</extensions>
</trkpt>
<trkpt lat="64.267761230" lon="-20.225130081">
<ele>113.851563</ele>
<time>2012-07-20T14:19:24Z</time>
<speed>4.660000</speed>
<extensions>
<speed>4.7</speed>
<temp>0.00</temp>
<bpm>0</bpm>
<rpm>0.00</rpm>
</extensions>
</trkpt>
<trkpt lat="64.267578125" lon="-20.224975586">
<ele>114.980469</ele>
<time>2012-07-20T14:19:29Z</time>
<speed>3.780000</speed>
<extensions>
<speed>3.8</speed>
<temp>0.00</temp>
<bpm>0</bpm>
<rpm>0.00</rpm>
</extensions>
</trkpt>
<trkpt lat="64.267425537" lon="-20.224842072">
<ele>115.304688</ele>
<time>2012-07-20T14:19:34Z</time>
<speed>3.770000</speed>
<extensions>
<speed>3.8</speed>
<temp>0.00</temp>
<bpm>0</bpm>
<rpm>0.00</rpm>
</extensions>
</trkpt>
<trkpt lat="64.267280579" lon="-20.224702835">
<ele>116.140625</ele>
<time>2012-07-20T14:19:39Z</time>
<speed>2.780000</speed>
<extensions>
<speed>2.8</speed>
<temp>0.00</temp>
<bpm>0</bpm>
<rpm>0.00</rpm>
</extensions>
</trkpt>
<trkpt lat="64.267158508" lon="-20.224594116">
<ele>117.800781</ele>
<time>2012-07-20T14:19:44Z</time>
<speed>3.580000</speed>
<extensions>
<speed>3.6</speed>
<temp>0.00</temp>
<bpm>0</bpm>
<rpm>0.00</rpm>
</extensions>
</trkpt>
<trkpt lat="64.266998291" lon="-20.224470139">
<ele>118.142578</ele>
<time>2012-07-20T14:19:49Z</time>
<speed>3.370000</speed>
<extensions>
<speed>3.4</speed>
<temp>0.00</temp>
<bpm>0</bpm>
<rpm>0.00</rpm>
</extensions>
</trkpt>
<trkpt lat="64.266838074" lon="-20.224340439">
<ele>115.978516</ele>
<time>2012-07-20T14:19:54Z</time>
<speed>4.370000</speed>
<extensions>
<speed>4.4</speed>
<temp>0.00</temp>
<bpm>0</bpm>
<rpm>0.00</rpm>
</extensions>
</trkpt>
<trkpt lat="64.266670227" lon="-20.224199295">
<ele>116.166016</ele>
<time>2012-07-20T14:19:59Z</time>
<speed>4.070000</speed>
<extensions>
<speed>4.1</speed>
<temp>0.00</temp>
<bpm>0</bpm>
<rpm>0.00</rpm>
</extensions>
</trkpt>
<trkpt lat="64.266510010" lon="-20.224050522">
<ele>115.470703</ele>
<time>2012-07-20T14:20:04Z</time>
<speed>4.180000</speed>
<extensions>
<speed>4.2</speed>
<temp>0.00</temp>
<bpm>0</bpm>
<rpm>0.00</rpm>
</extensions>
</trkpt>
<trkpt lat="64.266326904" lon="-20.223892212">
<ele>117.777344</ele>
<time>2012-07-20T14:20:09Z</time>
<speed>3.830000</speed>
<extensions>
<speed>3.8</speed>
<temp>0.00</temp>
<bpm>0</bpm>
<rpm>0.00</rpm>
</extensions>
</trkpt>
<trkpt lat="64.266151428" lon="-20.223751068">
<ele>118.650391</ele>
<time>2012-07-20T14:20:14Z</time>
<speed>4.560000</speed>
<extensions>
<speed>4.6</speed>
<temp>0.00</temp>
<bpm>0</bpm>
<rpm>0.00</rpm>
</extensions>
</trkpt>
<trkpt lat="64.265953064" lon="-20.223628998">
<ele>117.021484</ele>
<time>2012-07-20T14:20:19Z</time>
<speed>4.620000</speed>
<extensions>
<speed>4.6</speed>
<temp>0.00</temp>
<bpm>0</bpm>
<rpm>0.00</rpm>
</extensions>
</trkpt>
<trkpt lat="64.265762329" lon="-20.223533630">
<ele>118.232422</ele>
<time>2012-07-20T14:20:24Z</time>
<speed>4.570000</speed>
<extensions>
<speed>4.6</speed>
<temp>0.00</temp>
<bpm>0</bpm>
<rpm>0.00</rpm>
</extensions>
</trkpt>
<trkpt lat="64.265563965" lon="-20.223449707">
<ele>117.560547</ele>
<time>2012-07-20T14:20:29Z</time>
<speed>4.910000</speed>
<extensions>
<speed>4.9</speed>
<temp>0.00</temp>
<bpm>0</bpm>
<rpm>0.00</rpm>
</extensions>
</trkpt>
<trkpt lat="64.265342712" lon="-20.223396301">
<ele>115.886719</ele>
<time>2012-07-20T14:20:34Z</time>
<speed>4.810000</speed>
<extensions>
<speed>4.8</speed>
<temp>0.00</temp>
<bpm>0</bpm>
<rpm>0.00</rpm>
</extensions>
</trkpt>
<trkpt lat="64.265121460" lon="-20.223369598">
<ele>114.742188</ele>
<time>2012-07-20T14:20:39Z</time>
<speed>5.270000</speed>
<extensions>
<speed>5.3</speed>
<temp>0.00</temp>
<bpm>0</bpm>
<rpm>0.00</rpm>
</extensions>
</trkpt>
<trkpt lat="64.264869690" lon="-20.223367691">
<ele>113.039063</ele>
<time>2012-07-20T14:20:44Z</time>
<speed>5.800000</speed>
<extensions>
<speed>5.8</speed>
<temp>0.00</temp>
<bpm>0</bpm>
<rpm>0.00</rpm>
</extensions>
</trkpt>
<trkpt lat="64.264602661" lon="-20.223459244">
<ele>111.757813</ele>
<time>2012-07-20T14:20:49Z</time>
<speed>6.750000</speed>
<extensions>
<speed>6.7</speed>
<temp>0.00</temp>
<bpm>0</bpm>
<rpm>0.00</rpm>
</extensions>
</trkpt>
<trkpt lat="64.264289856" lon="-20.223623276">
<ele>109.373047</ele>
<time>2012-07-20T14:20:54Z</time>
<speed>7.440000</speed>
<extensions>
<speed>7.4</speed>
<temp>0.00</temp>
<bpm>0</bpm>
<rpm>0.00</rpm>
</extensions>
</trkpt>
<trkpt lat="64.263946533" lon="-20.223882675">
<ele>105.818359</ele>
<time>2012-07-20T14:20:59Z</time>
<speed>8.440000</speed>
<extensions>
<speed>8.4</speed>
<temp>0.00</temp>
<bpm>0</bpm>
<rpm>0.00</rpm>
</extensions>
</trkpt>
<trkpt lat="64.263580322" lon="-20.224239349">
<ele>103.291016</ele>
<time>2012-07-20T14:21:04Z</time>
<speed>9.190000</speed>
<extensions>
<speed>9.2</speed>
<temp>0.00</temp>
<bpm>0</bpm>
<rpm>0.00</rpm>
</extensions>
</trkpt>
<trkpt lat="64.263183594" lon="-20.224567413">
<ele>100.478516</ele>
<time>2012-07-20T14:21:09Z</time>
<speed>9.510000</speed>
<extensions>
<speed>9.5</speed>
<temp>0.00</temp>
<bpm>0</bpm>
<rpm>0.00</rpm>
</extensions>
</trkpt>
<trkpt lat="64.262756348" lon="-20.224716187">
<ele>98.371094</ele>
<time>2012-07-20T14:21:14Z</time>
<speed>9.310000</speed>
<extensions>
<speed>9.3</speed>
<temp>0.00</temp>
<bpm>0</bpm>
<rpm>0.00</rpm>
</extensions>
</trkpt>
<trkpt lat="64.262359619" lon="-20.224855423">
<ele>97.130859</ele>
<time>2012-07-20T14:21:19Z</time>
<speed>8.440000</speed>
<extensions>
<speed>8.4</speed>
<temp>0.00</temp>
<bpm>0</bpm>
<rpm>0.00</rpm>
</extensions>
</trkpt>
<trkpt lat="64.262008667" lon="-20.224861145">
<ele>96.865234</ele>
<time>2012-07-20T14:21:24Z</time>
<speed>7.230000</speed>
<extensions>
<speed>7.2</speed>
<temp>0.00</temp>
<bpm>0</bpm>
<rpm>0.00</rpm>
</extensions>
</trkpt>
<trkpt lat="64.261734009" lon="-20.224596024">
<ele>97.130859</ele>
<time>2012-07-20T14:21:29Z</time>
<speed>5.730000</speed>
<extensions>
<speed>5.7</speed>
<temp>0.00</temp>
<bpm>0</bpm>
<rpm>0.00</rpm>
</extensions>
</trkpt>
<trkpt lat="64.261581421" lon="-20.224302292">
<ele>97.343750</ele>
<time>2012-07-20T14:21:34Z</time>
<speed>3.380000</speed>
<extensions>
<speed>3.4</speed>
<temp>0.00</temp>
<bpm>0</bpm>
<rpm>0.00</rpm>
</extensions>
</trkpt>
<trkpt lat="64.261489868" lon="-20.224086761">
<ele>97.835938</ele>
<time>2012-07-20T14:21:39Z</time>
<speed>2.490000</speed>
<extensions>
<speed>2.5</speed>
<temp>0.00</temp>
<bpm>0</bpm>
<rpm>0.00</rpm>
</extensions>
</trkpt>
<trkpt lat="64.261436462" lon="-20.223920822">
<ele>98.091797</ele>
<time>2012-07-20T14:21:44Z</time>
<speed>2.020000</speed>
<extensions>
<speed>2.0</speed>
<temp>0.00</temp>
<bpm>0</bpm>
<rpm>0.00</rpm>
</extensions>
</trkpt>
<trkpt lat="64.261367798" lon="-20.223720551">
<ele>98.640625</ele>
<time>2012-07-20T14:21:49Z</time>
<speed>2.560000</speed>
<extensions>
<speed>2.6</speed>
<temp>0.00</temp>
<bpm>0</bpm>
<rpm>0.00</rpm>
</extensions>
</trkpt>
<trkpt lat="64.261291504" lon="-20.223531723">
<ele>98.179688</ele>
<time>2012-07-20T14:21:54Z</time>
<speed>2.370000</speed>
<extensions>
<speed>2.4</speed>
<temp>0.00</temp>
<bpm>0</bpm>
<rpm>0.00</rpm>
</extensions>
</trkpt>
<trkpt lat="64.261238098" lon="-20.223402023">
<ele>96.099609</ele>
<time>2012-07-20T14:21:59Z</time>
<speed>1.650000</speed>
<extensions>
<speed>1.7</speed>
<temp>0.00</temp>
<bpm>0</bpm>
<rpm>0.00</rpm>
</extensions>
</trkpt>
<trkpt lat="64.261199951" lon="-20.223323822">
<ele>95.027344</ele>
<time>2012-07-20T14:22:04Z</time>
<speed>0.210000</speed>
<extensions>
<speed>0.2</speed>
<temp>0.00</temp>
<bpm>0</bpm>
<rpm>0.00</rpm>
</extensions>
</trkpt>
<trkpt lat="64.261199951" lon="-20.223320007">
<ele>95.371094</ele>
<time>2012-07-20T14:22:09Z</time>
<speed>0.030000</speed>
<extensions>
<speed>0.0</speed>
<temp>0.00</temp>
<bpm>0</bpm>
<rpm>0.00</rpm>
</extensions>
</trkpt>
<trkpt lat="64.261192322" lon="-20.223308563">
<ele>95.382813</ele>
<time>2012-07-20T14:22:14Z</time>
<speed>0.010000</speed>
<extensions>
<speed>0.0</speed>
<temp>0.00</temp>
<bpm>0</bpm>
<rpm>0.00</rpm>
</extensions>
</trkpt>
<trkpt lat="64.261192322" lon="-20.223308563">
<ele>95.359375</ele>
<time>2012-07-20T14:22:19Z</time>
<speed>0.030000</speed>
<extensions>
<speed>0.0</speed>
<temp>0.00</temp>
<bpm>0</bpm>
<rpm>0.00</rpm>
</extensions>
</trkpt>
<trkpt lat="64.261192322" lon="-20.223308563">
<ele>95.357422</ele>
<time>2012-07-20T14:22:24Z</time>
<speed>0.030000</speed>
<extensions>
<speed>0.0</speed>
<temp>0.00</temp>
<bpm>0</bpm>
<rpm>0.00</rpm>
</extensions>
</trkpt>
<trkpt lat="64.261192322" lon="-20.223308563">
<ele>95.380859</ele>
<time>2012-07-20T14:22:29Z</time>
<extensions>
<speed>0.0</speed>
<temp>0.00</temp>
<bpm>0</bpm>
<rpm>0.00</rpm>
</extensions>
</trkpt>
<trkpt lat="64.261192322" lon="-20.223308563">
<ele>95.402344</ele>
<time>2012-07-20T14:22:34Z</time>
<speed>0.010000</speed>
<extensions>
<speed>0.0</speed>
<temp>0.00</temp>
<bpm>0</bpm>
<rpm>0.00</rpm>
</extensions>
</trkpt>
<trkpt lat="64.261154175" lon="-20.223197937">
<ele>95.927734</ele>
<time>2012-07-20T14:22:39Z</time>
<speed>2.750000</speed>
<extensions>
<speed>2.7</speed>
<temp>0.00</temp>
<bpm>0</bpm>
<rpm>0.00</rpm>
</extensions>
</trkpt>
<trkpt lat="64.261054993" lon="-20.222925186">
<ele>96.013672</ele>
<time>2012-07-20T14:22:44Z</time>
<speed>2.680000</speed>
<extensions>
<speed>2.7</speed>
<temp>0.00</temp>
<bpm>0</bpm>
<rpm>0.00</rpm>
</extensions>
</trkpt>
<trkpt lat="64.260963440" lon="-20.222763062">
<ele>96.828125</ele>
<time>2012-07-20T14:22:49Z</time>
<speed>2.020000</speed>
<extensions>
<speed>2.0</speed>
<temp>0.00</temp>
<bpm>0</bpm>
<rpm>0.00</rpm>
</extensions>
</trkpt>
<trkpt lat="64.260910034" lon="-20.222648621">
<ele>98.656250</ele>
<time>2012-07-20T14:22:54Z</time>
<speed>1.680000</speed>
<extensions>
<speed>1.7</speed>
<temp>0.00</temp>
<bpm>0</bpm>
<rpm>0.00</rpm>
</extensions>
</trkpt>
<trkpt lat="64.260856628" lon="-20.222505569">
<ele>99.625000</ele>
<time>2012-07-20T14:22:59Z</time>
<speed>1.840000</speed>
<extensions>
<speed>1.8</speed>
<temp>0.00</temp>
<bpm>0</bpm>
<rpm>0.00</rpm>
</extensions>
</trkpt>
<trkpt lat="64.260818481" lon="-20.222372055">
<ele>100.939453</ele>
<time>2012-07-20T14:23:04Z</time>
<speed>2.000000</speed>
<extensions>
<speed>2.0</speed>
<temp>0.00</temp>
<bpm>0</bpm>
<rpm>0.00</rpm>
</extensions>
</trkpt>
<trkpt lat="64.260772705" lon="-20.222181320">
<ele>101.519531</ele>
<time>2012-07-20T14:23:09Z</time>
<speed>1.980000</speed>
<extensions>
<speed>2.0</speed>
<temp>0.00</temp>
<bpm>0</bpm>
<rpm>0.00</rpm>
</extensions>
</trkpt>
<trkpt lat="64.260742188" lon="-20.221992493">
<ele>101.455078</ele>
<time>2012-07-20T14:23:14Z</time>
<speed>1.730000</speed>
<extensions>
<speed>1.7</speed>
<temp>0.00</temp>
<bpm>0</bpm>
<rpm>0.00</rpm>
</extensions>
</trkpt>
<trkpt lat="64.260734558" lon="-20.221815109">
<ele>101.583984</ele>
<time>2012-07-20T14:23:19Z</time>
<speed>1.860000</speed>
<extensions>
<speed>1.9</speed>
<temp>0.00</temp>
<bpm>0</bpm>
<rpm>0.00</rpm>
</extensions>
</trkpt>
<trkpt lat="64.260726929" lon="-20.221693039">
<ele>101.992188</ele>
<time>2012-07-20T14:23:24Z</time>
<speed>1.180000</speed>
<extensions>
<speed>1.2</speed>
<temp>0.00</temp>
<bpm>0</bpm>
<rpm>0.00</rpm>
</extensions>
</trkpt>
<trkpt lat="64.260673523" lon="-20.221597672">
<ele>102.253906</ele>
<time>2012-07-20T14:23:29Z</time>
<speed>1.900000</speed>
<extensions>
<speed>1.9</speed>
<temp>0.00</temp>
<bpm>0</bpm>
<rpm>0.00</rpm>
</extensions>
</trkpt>
<trkpt lat="64.260589600" lon="-20.221689224">
<ele>104.041016</ele>
<time>2012-07-20T14:23:34Z</time>
<speed>2.150000</speed>
<extensions>
<speed>2.1</speed>
<temp>0.00</temp>
<bpm>0</bpm>
<rpm>0.00</rpm>
</extensions>
</trkpt>
<trkpt lat="64.260505676" lon="-20.221765518">
<ele>105.169922</ele>
<time>2012-07-20T14:23:39Z</time>
<speed>1.380000</speed>
<extensions>
<speed>1.4</speed>
<temp>0.00</temp>
<bpm>0</bpm>
<rpm>0.00</rpm>
</extensions>
</trkpt>
<trkpt lat="64.260452271" lon="-20.221805573">
<ele>106.943359</ele>
<time>2012-07-20T14:23:44Z</time>
<speed>1.120000</speed>
<extensions>
<speed>1.1</speed>
<temp>0.00</temp>
<bpm>0</bpm>
<rpm>0.00</rpm>
</extensions>
</trkpt>
<trkpt lat="64.260383606" lon="-20.221868515">
<ele>108.763672</ele>
<time>2012-07-20T14:23:49Z</time>
<speed>1.760000</speed>
<extensions>
<speed>1.8</speed>
<temp>0.00</temp>
<bpm>0</bpm>
<rpm>0.00</rpm>
</extensions>
</trkpt>
<trkpt lat="64.260284424" lon="-20.221902847">
<ele>108.322266</ele>
<time>2012-07-20T14:23:54Z</time>
<speed>2.000000</speed>
<extensions>
<speed>2.0</speed>
<temp>0.00</temp>
<bpm>0</bpm>
<rpm>0.00</rpm>
</extensions>
</trkpt>
<trkpt lat="64.260253906" lon="-20.221891403">
<ele>108.218750</ele>
<time>2012-07-20T14:23:59Z</time>
<speed>0.110000</speed>
<extensions>
<speed>0.1</speed>
<temp>0.00</temp>
<bpm>0</bpm>
<rpm>0.00</rpm>
</extensions>
</trkpt>
<trkpt lat="64.260253906" lon="-20.221872330">
<ele>108.406250</ele>
<time>2012-07-20T14:24:04Z</time>
<speed>0.030000</speed>
<extensions>
<speed>0.0</speed>
<temp>0.00</temp>
<bpm>0</bpm>
<rpm>0.00</rpm>
</extensions>
</trkpt>
<trkpt lat="64.260253906" lon="-20.221876144">
<ele>108.492188</ele>
<time>2012-07-20T14:24:09Z</time>
<speed>0.040000</speed>
<extensions>
<speed>0.0</speed>
<temp>0.00</temp>
<bpm>0</bpm>
<rpm>0.00</rpm>
</extensions>
</trkpt>
<trkpt lat="64.260253906" lon="-20.221876144">
<ele>108.501953</ele>
<time>2012-07-20T14:24:14Z</time>
<speed>0.020000</speed>
<extensions>
<speed>0.0</speed>
<temp>0.00</temp>
<bpm>0</bpm>
<rpm>0.00</rpm>
</extensions>
</trkpt>
<trkpt lat="64.260253906" lon="-20.221876144">
<ele>108.492188</ele>
<time>2012-07-20T14:24:19Z</time>
<speed>0.210000</speed>
<extensions>
<speed>0.2</speed>
<temp>0.00</temp>
<bpm>0</bpm>
<rpm>0.00</rpm>
</extensions>
</trkpt>
<trkpt lat="64.260253906" lon="-20.221874237">
<ele>108.476563</ele>
<time>2012-07-20T14:24:24Z</time>
<extensions>
<speed>0.0</speed>
<temp>0.00</temp>
<bpm>0</bpm>
<rpm>0.00</rpm>
</extensions>
</trkpt>
<trkpt lat="64.260253906" lon="-20.221874237">
<ele>108.482422</ele>
<time>2012-07-20T14:24:29Z</time>
<speed>0.010000</speed>
<extensions>
<speed>0.0</speed>
<temp>0.00</temp>
<bpm>0</bpm>
<rpm>0.00</rpm>
</extensions>
</trkpt>
<trkpt lat="64.260253906" lon="-20.221874237">
<ele>108.490234</ele>
<time>2012-07-20T14:24:34Z</time>
<extensions>
<speed>0.0</speed>
<temp>0.00</temp>
<bpm>0</bpm>
<rpm>0.00</rpm>
</extensions>
</trkpt>
<trkpt lat="64.260253906" lon="-20.221874237">
<ele>108.488281</ele>
<time>2012-07-20T14:24:39Z</time>
<extensions>
<speed>0.0</speed>
<temp>0.00</temp>
<bpm>0</bpm>
<rpm>0.00</rpm>
</extensions>
</trkpt>
<trkpt lat="64.260253906" lon="-20.221874237">
<ele>108.441406</ele>
<time>2012-07-20T14:24:44Z</time>
<speed>0.010000</speed>
<extensions>
<speed>0.0</speed>
<temp>0.00</temp>
<bpm>0</bpm>
<rpm>0.00</rpm>
</extensions>
</trkpt>
<trkpt lat="64.260253906" lon="-20.221874237">
<ele>108.414063</ele>
<time>2012-07-20T14:24:49Z</time>
<extensions>
<speed>0.0</speed>
<temp>0.00</temp>
<bpm>0</bpm>
<rpm>0.00</rpm>
</extensions>
</trkpt>
<trkpt lat="64.260253906" lon="-20.221872330">
<ele>108.375000</ele>
<time>2012-07-20T14:24:54Z</time>
<speed>0.010000</speed>
<extensions>
<speed>0.0</speed>
<temp>0.00</temp>
<bpm>0</bpm>
<rpm>0.00</rpm>
</extensions>
</trkpt>
<trkpt lat="64.260246277" lon="-20.221872330">
<ele>108.355469</ele>
<time>2012-07-20T14:24:59Z</time>
<speed>0.010000</speed>
<extensions>
<speed>0.0</speed>
<temp>0.00</temp>
<bpm>0</bpm>
<rpm>0.00</rpm>
</extensions>
</trkpt>
<trkpt lat="64.260246277" lon="-20.221872330">
<ele>108.343750</ele>
<time>2012-07-20T14:25:04Z</time>
<speed>0.010000</speed>
<extensions>
<speed>0.0</speed>
<temp>0.00</temp>
<bpm>0</bpm>
<rpm>0.00</rpm>
</extensions>
</trkpt>
<trkpt lat="64.260246277" lon="-20.221870422">
<ele>108.335938</ele>
<time>2012-07-20T14:25:09Z</time>
<speed>0.020000</speed>
<extensions>
<speed>0.0</speed>
<temp>0.00</temp>
<bpm>0</bpm>
<rpm>0.00</rpm>
</extensions>
</trkpt>
<trkpt lat="64.260246277" lon="-20.221870422">
<ele>108.324219</ele>
<time>2012-07-20T14:25:14Z</time>
<speed>0.020000</speed>
<extensions>
<speed>0.0</speed>
<temp>0.00</temp>
<bpm>0</bpm>
<rpm>0.00</rpm>
</extensions>
</trkpt>
<trkpt lat="64.260246277" lon="-20.221870422">
<ele>108.326172</ele>
<time>2012-07-20T14:25:19Z</time>
<speed>0.100000</speed>
<extensions>
<speed>0.1</speed>
<temp>0.00</temp>
<bpm>0</bpm>
<rpm>0.00</rpm>
</extensions>
</trkpt>
<trkpt lat="64.260246277" lon="-20.221857071">
<ele>108.009766</ele>
<time>2012-07-20T14:25:24Z</time>
<speed>0.210000</speed>
<extensions>
<speed>0.2</speed>
<temp>0.00</temp>
<bpm>0</bpm>
<rpm>0.00</rpm>
</extensions>
</trkpt>
<trkpt lat="64.260246277" lon="-20.221853256">
<ele>108.062500</ele>
<time>2012-07-20T14:25:29Z</time>
<speed>0.030000</speed>
<extensions>
<speed>0.0</speed>
<temp>0.00</temp>
<bpm>0</bpm>
<rpm>0.00</rpm>
</extensions>
</trkpt>
<trkpt lat="64.260238647" lon="-20.221853256">
<ele>107.960938</ele>
<time>2012-07-20T14:25:34Z</time>
<extensions>
<speed>0.0</speed>
<temp>0.00</temp>
<bpm>0</bpm>
<rpm>0.00</rpm>
</extensions>
</trkpt>
<trkpt lat="64.260238647" lon="-20.221853256">
<ele>107.939453</ele>
<time>2012-07-20T14:25:39Z</time>
<speed>0.010000</speed>
<extensions>
<speed>0.0</speed>
<temp>0.00</temp>
<bpm>0</bpm>
<rpm>0.00</rpm>
</extensions>
</trkpt>
<trkpt lat="64.260238647" lon="-20.221851349">
<ele>107.927734</ele>
<time>2012-07-20T14:25:44Z</time>
<speed>0.020000</speed>
<extensions>
<speed>0.0</speed>
<temp>0.00</temp>
<bpm>0</bpm>
<rpm>0.00</rpm>
</extensions>
</trkpt>
<trkpt lat="64.260238647" lon="-20.221851349">
<ele>107.921875</ele>
<time>2012-07-20T14:25:49Z</time>
<speed>0.010000</speed>
<extensions>
<speed>0.0</speed>
<temp>0.00</temp>
<bpm>0</bpm>
<rpm>0.00</rpm>
</extensions>
</trkpt>
<trkpt lat="64.260238647" lon="-20.221851349">
<ele>107.927734</ele>
<time>2012-07-20T14:25:54Z</time>
<speed>0.010000</speed>
<extensions>
<speed>0.0</speed>
<temp>0.00</temp>
<bpm>0</bpm>
<rpm>0.00</rpm>
</extensions>
</trkpt>
<trkpt lat="64.260238647" lon="-20.221851349">
<ele>107.955078</ele>
<time>2012-07-20T14:25:59Z</time>
<extensions>
<speed>0.0</speed>
<temp>0.00</temp>
<bpm>0</bpm>
<rpm>0.00</rpm>
</extensions>
</trkpt>
<trkpt lat="64.260238647" lon="-20.221851349">
<ele>107.960938</ele>
<time>2012-07-20T14:26:04Z</time>
<speed>0.010000</speed>
<extensions>
<speed>0.0</speed>
<temp>0.00</temp>
<bpm>0</bpm>
<rpm>0.00</rpm>
</extensions>
</trkpt>
<trkpt lat="64.260238647" lon="-20.221851349">
<ele>107.960938</ele>
<time>2012-07-20T14:26:09Z</time>
<speed>0.010000</speed>
<extensions>
<speed>0.0</speed>
<temp>0.00</temp>
<bpm>0</bpm>
<rpm>0.00</rpm>
</extensions>
</trkpt>
<trkpt lat="64.260238647" lon="-20.221851349">
<ele>107.964844</ele>
<time>2012-07-20T14:26:14Z</time>
<speed>0.010000</speed>
<extensions>
<speed>0.0</speed>
<temp>0.00</temp>
<bpm>0</bpm>
<rpm>0.00</rpm>
</extensions>
</trkpt>
<trkpt lat="64.260238647" lon="-20.221851349">
<ele>107.986328</ele>
<time>2012-07-20T14:26:19Z</time>
<extensions>
<speed>0.0</speed>
<temp>0.00</temp>
<bpm>0</bpm>
<rpm>0.00</rpm>
</extensions>
</trkpt>
<trkpt lat="64.260238647" lon="-20.221851349">
<ele>108.031250</ele>
<time>2012-07-20T14:26:24Z</time>
<extensions>
<speed>0.0</speed>
<temp>0.00</temp>
<bpm>0</bpm>
<rpm>0.00</rpm>
</extensions>
</trkpt>
<trkpt lat="64.260238647" lon="-20.221851349">
<ele>108.056641</ele>
<time>2012-07-20T14:26:29Z</time>
<extensions>
<speed>0.0</speed>
<temp>0.00</temp>
<bpm>0</bpm>
<rpm>0.00</rpm>
</extensions>
</trkpt>
<trkpt lat="64.260238647" lon="-20.221851349">
<ele>108.095703</ele>
<time>2012-07-20T14:26:34Z</time>
<extensions>
<speed>0.0</speed>
<temp>0.00</temp>
<bpm>0</bpm>
<rpm>0.00</rpm>
</extensions>
</trkpt>
<trkpt lat="64.260246277" lon="-20.221851349">
<ele>108.158203</ele>
<time>2012-07-20T14:26:39Z</time>
<speed>0.020000</speed>
<extensions>
<speed>0.0</speed>
<temp>0.00</temp>
<bpm>0</bpm>
<rpm>0.00</rpm>
</extensions>
</trkpt>
<trkpt lat="64.260238647" lon="-20.221851349">
<ele>108.166016</ele>
<time>2012-07-20T14:26:44Z</time>
<speed>0.010000</speed>
<extensions>
<speed>0.0</speed>
<temp>0.00</temp>
<bpm>0</bpm>
<rpm>0.00</rpm>
</extensions>
</trkpt>
<trkpt lat="64.260238647" lon="-20.221851349">
<ele>108.164063</ele>
<time>2012-07-20T14:26:49Z</time>
<speed>0.030000</speed>
<extensions>
<speed>0.0</speed>
<temp>0.00</temp>
<bpm>0</bpm>
<rpm>0.00</rpm>
</extensions>
</trkpt>
<trkpt lat="64.260238647" lon="-20.221851349">
<ele>108.189453</ele>
<time>2012-07-20T14:26:54Z</time>
<speed>0.010000</speed>
<extensions>
<speed>0.0</speed>
<temp>0.00</temp>
<bpm>0</bpm>
<rpm>0.00</rpm>
</extensions>
</trkpt>
<trkpt lat="64.260238647" lon="-20.221851349">
<ele>108.205078</ele>
<time>2012-07-20T14:26:59Z</time>
<extensions>
<speed>0.0</speed>
<temp>0.00</temp>
<bpm>0</bpm>
<rpm>0.00</rpm>
</extensions>
</trkpt>
<trkpt lat="64.260238647" lon="-20.221851349">
<ele>108.261719</ele>
<time>2012-07-20T14:27:04Z</time>
<extensions>
<speed>0.0</speed>
<temp>0.00</temp>
<bpm>0</bpm>
<rpm>0.00</rpm>
</extensions>
</trkpt>
<trkpt lat="64.260238647" lon="-20.221851349">
<ele>108.306641</ele>
<time>2012-07-20T14:27:09Z</time>
<speed>0.010000</speed>
<extensions>
<speed>0.0</speed>
<temp>0.00</temp>
<bpm>0</bpm>
<rpm>0.00</rpm>
</extensions>
</trkpt>
<trkpt lat="64.260238647" lon="-20.221851349">
<ele>108.429688</ele>
<time>2012-07-20T14:27:14Z</time>
<speed>0.010000</speed>
<extensions>
<speed>0.0</speed>
<temp>0.00</temp>
<bpm>0</bpm>
<rpm>0.00</rpm>
</extensions>
</trkpt>
<trkpt lat="64.260246277" lon="-20.221851349">
<ele>108.615234</ele>
<time>2012-07-20T14:27:19Z</time>
<speed>0.020000</speed>
<extensions>
<speed>0.0</speed>
<temp>0.00</temp>
<bpm>0</bpm>
<rpm>0.00</rpm>
</extensions>
</trkpt>
<trkpt lat="64.260238647" lon="-20.221851349">
<ele>108.695313</ele>
<time>2012-07-20T14:27:24Z</time>
<speed>0.010000</speed>
<extensions>
<speed>0.0</speed>
<temp>0.00</temp>
<bpm>0</bpm>
<rpm>0.00</rpm>
</extensions>
</trkpt>
<trkpt lat="64.260238647" lon="-20.221851349">
<ele>108.876953</ele>
<time>2012-07-20T14:27:29Z</time>
<speed>0.030000</speed>
<extensions>
<speed>0.0</speed>
<temp>0.00</temp>
<bpm>0</bpm>
<rpm>0.00</rpm>
</extensions>
</trkpt>
<trkpt lat="64.260246277" lon="-20.221851349">
<ele>108.984375</ele>
<time>2012-07-20T14:27:34Z</time>
<speed>0.010000</speed>
<extensions>
<speed>0.0</speed>
<temp>0.00</temp>
<bpm>0</bpm>
<rpm>0.00</rpm>
</extensions>
</trkpt>
<trkpt lat="64.260246277" lon="-20.221851349">
<ele>108.998047</ele>
<time>2012-07-20T14:27:39Z</time>
<extensions>
<speed>0.0</speed>
<temp>0.00</temp>
<bpm>0</bpm>
<rpm>0.00</rpm>
</extensions>
</trkpt>
<trkpt lat="64.260246277" lon="-20.221849442">
<ele>109.007813</ele>
<time>2012-07-20T14:27:44Z</time>
<speed>0.020000</speed>
<extensions>
<speed>0.0</speed>
<temp>0.00</temp>
<bpm>0</bpm>
<rpm>0.00</rpm>
</extensions>
</trkpt>
<trkpt lat="64.260246277" lon="-20.221849442">
<ele>108.994141</ele>
<time>2012-07-20T14:27:49Z</time>
<speed>0.010000</speed>
<extensions>
<speed>0.0</speed>
<temp>0.00</temp>
<bpm>0</bpm>
<rpm>0.00</rpm>
</extensions>
</trkpt>
<trkpt lat="64.260246277" lon="-20.221849442">
<ele>108.986328</ele>
<time>2012-07-20T14:27:54Z</time>
<extensions>
<speed>0.0</speed>
<temp>0.00</temp>
<bpm>0</bpm>
<rpm>0.00</rpm>
</extensions>
</trkpt>
<trkpt lat="64.260246277" lon="-20.221851349">
<ele>108.927734</ele>
<time>2012-07-20T14:27:59Z</time>
<speed>0.040000</speed>
<extensions>
<speed>0.0</speed>
<temp>0.00</temp>
<bpm>0</bpm>
<rpm>0.00</rpm>
</extensions>
</trkpt>
<trkpt lat="64.260238647" lon="-20.221853256">
<ele>108.783203</ele>
<time>2012-07-20T14:28:04Z</time>
<speed>0.040000</speed>
<extensions>
<speed>0.0</speed>
<temp>0.00</temp>
<bpm>0</bpm>
<rpm>0.00</rpm>
</extensions>
</trkpt>
<trkpt lat="64.260238647" lon="-20.221853256">
<ele>108.703125</ele>
<time>2012-07-20T14:28:09Z</time>
<speed>0.010000</speed>
<extensions>
<speed>0.0</speed>
<temp>0.00</temp>
<bpm>0</bpm>
<rpm>0.00</rpm>
</extensions>
</trkpt>
<trkpt lat="64.260238647" lon="-20.221853256">
<ele>108.642578</ele>
<time>2012-07-20T14:28:14Z</time>
<speed>0.010000</speed>
<extensions>
<speed>0.0</speed>
<temp>0.00</temp>
<bpm>0</bpm>
<rpm>0.00</rpm>
</extensions>
</trkpt>
<trkpt lat="64.260238647" lon="-20.221853256">
<ele>108.615234</ele>
<time>2012-07-20T14:28:19Z</time>
<speed>0.010000</speed>
<extensions>
<speed>0.0</speed>
<temp>0.00</temp>
<bpm>0</bpm>
<rpm>0.00</rpm>
</extensions>
</trkpt>
<trkpt lat="64.260238647" lon="-20.221853256">
<ele>108.603516</ele>
<time>2012-07-20T14:28:24Z</time>
<extensions>
<speed>0.0</speed>
<temp>0.00</temp>
<bpm>0</bpm>
<rpm>0.00</rpm>
</extensions>
</trkpt>
<trkpt lat="64.260238647" lon="-20.221853256">
<ele>108.609375</ele>
<time>2012-07-20T14:28:29Z</time>
<speed>0.010000</speed>
<extensions>
<speed>0.0</speed>
<temp>0.00</temp>
<bpm>0</bpm>
<rpm>0.00</rpm>
</extensions>
</trkpt>
<trkpt lat="64.260238647" lon="-20.221853256">
<ele>108.595703</ele>
<time>2012-07-20T14:28:34Z</time>
<extensions>
<speed>0.0</speed>
<temp>0.00</temp>
<bpm>0</bpm>
<rpm>0.00</rpm>
</extensions>
</trkpt>
<trkpt lat="64.260238647" lon="-20.221853256">
<ele>108.601563</ele>
<time>2012-07-20T14:28:39Z</time>
<extensions>
<speed>0.0</speed>
<temp>0.00</temp>
<bpm>0</bpm>
<rpm>0.00</rpm>
</extensions>
</trkpt>
<trkpt lat="64.260238647" lon="-20.221853256">
<ele>108.625000</ele>
<time>2012-07-20T14:28:44Z</time>
<extensions>
<speed>0.0</speed>
<temp>0.00</temp>
<bpm>0</bpm>
<rpm>0.00</rpm>
</extensions>
</trkpt>
<trkpt lat="64.260238647" lon="-20.221853256">
<ele>108.607422</ele>
<time>2012-07-20T14:28:49Z</time>
<speed>0.010000</speed>
<extensions>
<speed>0.0</speed>
<temp>0.00</temp>
<bpm>0</bpm>
<rpm>0.00</rpm>
</extensions>
</trkpt>
<trkpt lat="64.260238647" lon="-20.221851349">
<ele>108.611328</ele>
<time>2012-07-20T14:28:54Z</time>
<extensions>
<speed>0.0</speed>
<temp>0.00</temp>
<bpm>0</bpm>
<rpm>0.00</rpm>
</extensions>
</trkpt>
<trkpt lat="64.260238647" lon="-20.221851349">
<ele>108.611328</ele>
<time>2012-07-20T14:28:59Z</time>
<extensions>
<speed>0.0</speed>
<temp>0.00</temp>
<bpm>0</bpm>
<rpm>0.00</rpm>
</extensions>
</trkpt>
<trkpt lat="64.260238647" lon="-20.221851349">
<ele>108.607422</ele>
<time>2012-07-20T14:29:04Z</time>
<extensions>
<speed>0.0</speed>
<temp>0.00</temp>
<bpm>0</bpm>
<rpm>0.00</rpm>
</extensions>
</trkpt>
<trkpt lat="64.260238647" lon="-20.221851349">
<ele>108.646484</ele>
<time>2012-07-20T14:29:09Z</time>
<speed>0.020000</speed>
<extensions>
<speed>0.0</speed>
<temp>0.00</temp>
<bpm>0</bpm>
<rpm>0.00</rpm>
</extensions>
</trkpt>
<trkpt lat="64.260238647" lon="-20.221851349">
<ele>108.679688</ele>
<time>2012-07-20T14:29:14Z</time>
<extensions>
<speed>0.0</speed>
<temp>0.00</temp>
<bpm>0</bpm>
<rpm>0.00</rpm>
</extensions>
</trkpt>
<trkpt lat="64.260238647" lon="-20.221851349">
<ele>108.693359</ele>
<time>2012-07-20T14:29:19Z</time>
<speed>0.010000</speed>
<extensions>
<speed>0.0</speed>
<temp>0.00</temp>
<bpm>0</bpm>
<rpm>0.00</rpm>
</extensions>
</trkpt>
<trkpt lat="64.260238647" lon="-20.221851349">
<ele>108.691406</ele>
<time>2012-07-20T14:29:24Z</time>
<speed>0.030000</speed>
<extensions>
<speed>0.0</speed>
<temp>0.00</temp>
<bpm>0</bpm>
<rpm>0.00</rpm>
</extensions>
</trkpt>
<trkpt lat="64.260238647" lon="-20.221851349">
<ele>108.708984</ele>
<time>2012-07-20T14:29:29Z</time>
<extensions>
<speed>0.0</speed>
<temp>0.00</temp>
<bpm>0</bpm>
<rpm>0.00</rpm>
</extensions>
</trkpt>
<trkpt lat="64.260238647" lon="-20.221851349">
<ele>108.730469</ele>
<time>2012-07-20T14:29:34Z</time>
<speed>0.010000</speed>
<extensions>
<speed>0.0</speed>
<temp>0.00</temp>
<bpm>0</bpm>
<rpm>0.00</rpm>
</extensions>
</trkpt>
<trkpt lat="64.260238647" lon="-20.221851349">
<ele>108.748047</ele>
<time>2012-07-20T14:29:39Z</time>
<speed>0.010000</speed>
<extensions>
<speed>0.0</speed>
<temp>0.00</temp>
<bpm>0</bpm>
<rpm>0.00</rpm>
</extensions>
</trkpt>
<trkpt lat="64.260238647" lon="-20.221851349">
<ele>108.763672</ele>
<time>2012-07-20T14:29:44Z</time>
<speed>0.010000</speed>
<extensions>
<speed>0.0</speed>
<temp>0.00</temp>
<bpm>0</bpm>
<rpm>0.00</rpm>
</extensions>
</trkpt>
<trkpt lat="64.260238647" lon="-20.221851349">
<ele>108.783203</ele>
<time>2012-07-20T14:29:49Z</time>
<extensions>
<speed>0.0</speed>
<temp>0.00</temp>
<bpm>0</bpm>
<rpm>0.00</rpm>
</extensions>
</trkpt>
<trkpt lat="64.260238647" lon="-20.221851349">
<ele>108.787109</ele>
<time>2012-07-20T14:29:54Z</time>
<speed>0.020000</speed>
<extensions>
<speed>0.0</speed>
<temp>0.00</temp>
<bpm>0</bpm>
<rpm>0.00</rpm>
</extensions>
</trkpt>
<trkpt lat="64.260238647" lon="-20.221851349">
<ele>108.806641</ele>
<time>2012-07-20T14:29:59Z</time>
<extensions>
<speed>0.0</speed>
<temp>0.00</temp>
<bpm>0</bpm>
<rpm>0.00</rpm>
</extensions>
</trkpt>
<trkpt lat="64.260238647" lon="-20.221851349">
<ele>108.792969</ele>
<time>2012-07-20T14:30:04Z</time>
<speed>0.010000</speed>
<extensions>
<speed>0.0</speed>
<temp>0.00</temp>
<bpm>0</bpm>
<rpm>0.00</rpm>
</extensions>
</trkpt>
<trkpt lat="64.260238647" lon="-20.221851349">
<ele>108.769531</ele>
<time>2012-07-20T14:30:09Z</time>
<extensions>
<speed>0.0</speed>
<temp>0.00</temp>
<bpm>0</bpm>
<rpm>0.00</rpm>
</extensions>
</trkpt>
<trkpt lat="64.260238647" lon="-20.221851349">
<ele>108.791016</ele>
<time>2012-07-20T14:30:14Z</time>
<speed>0.010000</speed>
<extensions>
<speed>0.0</speed>
<temp>0.00</temp>
<bpm>0</bpm>
<rpm>0.00</rpm>
</extensions>
</trkpt>
<trkpt lat="64.260238647" lon="-20.221851349">
<ele>108.779297</ele>
<time>2012-07-20T14:30:19Z</time>
<extensions>
<speed>0.0</speed>
<temp>0.00</temp>
<bpm>0</bpm>
<rpm>0.00</rpm>
</extensions>
</trkpt>
<trkpt lat="64.260238647" lon="-20.221851349">
<ele>108.750000</ele>
<time>2012-07-20T14:30:24Z</time>
<extensions>
<speed>0.0</speed>
<temp>0.00</temp>
<bpm>0</bpm>
<rpm>0.00</rpm>
</extensions>
</trkpt>
<trkpt lat="64.260238647" lon="-20.221851349">
<ele>108.748047</ele>
<time>2012-07-20T14:30:29Z</time>
<extensions>
<speed>0.0</speed>
<temp>0.00</temp>
<bpm>0</bpm>
<rpm>0.00</rpm>
</extensions>
</trkpt>
<trkpt lat="64.260238647" lon="-20.221851349">
<ele>108.695313</ele>
<time>2012-07-20T14:30:34Z</time>
<speed>0.010000</speed>
<extensions>
<speed>0.0</speed>
<temp>0.00</temp>
<bpm>0</bpm>
<rpm>0.00</rpm>
</extensions>
</trkpt>
<trkpt lat="64.260238647" lon="-20.221851349">
<ele>108.664063</ele>
<time>2012-07-20T14:30:39Z</time>
<extensions>
<speed>0.0</speed>
<temp>0.00</temp>
<bpm>0</bpm>
<rpm>0.00</rpm>
</extensions>
</trkpt>
<trkpt lat="64.260238647" lon="-20.221851349">
<ele>108.638672</ele>
<time>2012-07-20T14:30:44Z</time>
<speed>0.020000</speed>
<extensions>
<speed>0.0</speed>
<temp>0.00</temp>
<bpm>0</bpm>
<rpm>0.00</rpm>
</extensions>
</trkpt>
<trkpt lat="64.260238647" lon="-20.221851349">
<ele>108.621094</ele>
<time>2012-07-20T14:30:49Z</time>
<speed>0.010000</speed>
<extensions>
<speed>0.0</speed>
<temp>0.00</temp>
<bpm>0</bpm>
<rpm>0.00</rpm>
</extensions>
</trkpt>
<trkpt lat="64.260238647" lon="-20.221851349">
<ele>108.611328</ele>
<time>2012-07-20T14:30:54Z</time>
<speed>0.010000</speed>
<extensions>
<speed>0.0</speed>
<temp>0.00</temp>
<bpm>0</bpm>
<rpm>0.00</rpm>
</extensions>
</trkpt>
<trkpt lat="64.260238647" lon="-20.221851349">
<ele>108.615234</ele>
<time>2012-07-20T14:30:59Z</time>
<extensions>
<speed>0.0</speed>
<temp>0.00</temp>
<bpm>0</bpm>
<rpm>0.00</rpm>
</extensions>
</trkpt>
<trkpt lat="64.260238647" lon="-20.221851349">
<ele>108.623047</ele>
<time>2012-07-20T14:31:04Z</time>
<extensions>
<speed>0.0</speed>
<temp>0.00</temp>
<bpm>0</bpm>
<rpm>0.00</rpm>
</extensions>
</trkpt>
<trkpt lat="64.260238647" lon="-20.221849442">
<ele>108.617188</ele>
<time>2012-07-20T14:31:09Z</time>
<extensions>
<speed>0.0</speed>
<temp>0.00</temp>
<bpm>0</bpm>
<rpm>0.00</rpm>
</extensions>
</trkpt>
<trkpt lat="64.260238647" lon="-20.221849442">
<ele>108.609375</ele>
<time>2012-07-20T14:31:14Z</time>
<speed>0.010000</speed>
<extensions>
<speed>0.0</speed>
<temp>0.00</temp>
<bpm>0</bpm>
<rpm>0.00</rpm>
</extensions>
</trkpt>
<trkpt lat="64.260246277" lon="-20.221849442">
<ele>108.609375</ele>
<time>2012-07-20T14:31:19Z</time>
<extensions>
<speed>0.0</speed>
<temp>0.00</temp>
<bpm>0</bpm>
<rpm>0.00</rpm>
</extensions>
</trkpt>
<trkpt lat="64.260246277" lon="-20.221849442">
<ele>108.597656</ele>
<time>2012-07-20T14:31:24Z</time>
<extensions>
<speed>0.0</speed>
<temp>0.00</temp>
<bpm>0</bpm>
<rpm>0.00</rpm>
</extensions>
</trkpt>
<trkpt lat="64.260246277" lon="-20.221849442">
<ele>108.601563</ele>
<time>2012-07-20T14:31:29Z</time>
<speed>0.010000</speed>
<extensions>
<speed>0.0</speed>
<temp>0.00</temp>
<bpm>0</bpm>
<rpm>0.00</rpm>
</extensions>
</trkpt>
<trkpt lat="64.260246277" lon="-20.221849442">
<ele>108.609375</ele>
<time>2012-07-20T14:31:34Z</time>
<speed>0.020000</speed>
<extensions>
<speed>0.0</speed>
<temp>0.00</temp>
<bpm>0</bpm>
<rpm>0.00</rpm>
</extensions>
</trkpt>
<trkpt lat="64.260246277" lon="-20.221849442">
<ele>108.615234</ele>
<time>2012-07-20T14:31:39Z</time>
<extensions>
<speed>0.0</speed>
<temp>0.00</temp>
<bpm>0</bpm>
<rpm>0.00</rpm>
</extensions>
</trkpt>
<trkpt lat="64.260246277" lon="-20.221849442">
<ele>108.599609</ele>
<time>2012-07-20T14:31:44Z</time>
<speed>0.010000</speed>
<extensions>
<speed>0.0</speed>
<temp>0.00</temp>
<bpm>0</bpm>
<rpm>0.00</rpm>
</extensions>
</trkpt>
<trkpt lat="64.260246277" lon="-20.221849442">
<ele>108.589844</ele>
<time>2012-07-20T14:31:49Z</time>
<speed>0.020000</speed>
<extensions>
<speed>0.0</speed>
<temp>0.00</temp>
<bpm>0</bpm>
<rpm>0.00</rpm>
</extensions>
</trkpt>
<trkpt lat="64.260246277" lon="-20.221849442">
<ele>108.564453</ele>
<time>2012-07-20T14:31:54Z</time>
<speed>0.010000</speed>
<extensions>
<speed>0.0</speed>
<temp>0.00</temp>
<bpm>0</bpm>
<rpm>0.00</rpm>
</extensions>
</trkpt>
<trkpt lat="64.260246277" lon="-20.221849442">
<ele>108.560547</ele>
<time>2012-07-20T14:31:59Z</time>
<speed>0.010000</speed>
<extensions>
<speed>0.0</speed>
<temp>0.00</temp>
<bpm>0</bpm>
<rpm>0.00</rpm>
</extensions>
</trkpt>
<trkpt lat="64.260246277" lon="-20.221849442">
<ele>108.595703</ele>
<time>2012-07-20T14:32:04Z</time>
<extensions>
<speed>0.0</speed>
<temp>0.00</temp>
<bpm>0</bpm>
<rpm>0.00</rpm>
</extensions>
</trkpt>
<trkpt lat="64.260246277" lon="-20.221849442">
<ele>108.625000</ele>
<time>2012-07-20T14:32:09Z</time>
<speed>0.020000</speed>
<extensions>
<speed>0.0</speed>
<temp>0.00</temp>
<bpm>0</bpm>
<rpm>0.00</rpm>
</extensions>
</trkpt>
<trkpt lat="64.260246277" lon="-20.221849442">
<ele>108.623047</ele>
<time>2012-07-20T14:32:14Z</time>
<speed>0.020000</speed>
<extensions>
<speed>0.0</speed>
<temp>0.00</temp>
<bpm>0</bpm>
<rpm>0.00</rpm>
</extensions>
</trkpt>
<trkpt lat="64.260246277" lon="-20.221847534">
<ele>108.617188</ele>
<time>2012-07-20T14:32:19Z</time>
<speed>0.020000</speed>
<extensions>
<speed>0.0</speed>
<temp>0.00</temp>
<bpm>0</bpm>
<rpm>0.00</rpm>
</extensions>
</trkpt>
<trkpt lat="64.260246277" lon="-20.221847534">
<ele>108.591797</ele>
<time>2012-07-20T14:32:24Z</time>
<extensions>
<speed>0.0</speed>
<temp>0.00</temp>
<bpm>0</bpm>
<rpm>0.00</rpm>
</extensions>
</trkpt>
<trkpt lat="64.260246277" lon="-20.221847534">
<ele>108.556641</ele>
<time>2012-07-20T14:32:29Z</time>
<extensions>
<speed>0.0</speed>
<temp>0.00</temp>
<bpm>0</bpm>
<rpm>0.00</rpm>
</extensions>
</trkpt>
<trkpt lat="64.260246277" lon="-20.221847534">
<ele>108.541016</ele>
<time>2012-07-20T14:32:34Z</time>
<speed>0.020000</speed>
<extensions>
<speed>0.0</speed>
<temp>0.00</temp>
<bpm>0</bpm>
<rpm>0.00</rpm>
</extensions>
</trkpt>
<trkpt lat="64.260246277" lon="-20.221847534">
<ele>108.537109</ele>
<time>2012-07-20T14:32:39Z</time>
<speed>0.010000</speed>
<extensions>
<speed>0.0</speed>
<temp>0.00</temp>
<bpm>0</bpm>
<rpm>0.00</rpm>
</extensions>
</trkpt>
<trkpt lat="64.260246277" lon="-20.221847534">
<ele>108.529297</ele>
<time>2012-07-20T14:32:44Z</time>
<speed>0.010000</speed>
<extensions>
<speed>0.0</speed>
<temp>0.00</temp>
<bpm>0</bpm>
<rpm>0.00</rpm>
</extensions>
</trkpt>
<trkpt lat="64.260246277" lon="-20.221847534">
<ele>108.515625</ele>
<time>2012-07-20T14:32:49Z</time>
<extensions>
<speed>0.0</speed>
<temp>0.00</temp>
<bpm>0</bpm>
<rpm>0.00</rpm>
</extensions>
</trkpt>
<trkpt lat="64.260246277" lon="-20.221849442">
<ele>108.488281</ele>
<time>2012-07-20T14:32:54Z</time>
<speed>0.010000</speed>
<extensions>
<speed>0.0</speed>
<temp>0.00</temp>
<bpm>0</bpm>
<rpm>0.00</rpm>
</extensions>
</trkpt>
<trkpt lat="64.260246277" lon="-20.221849442">
<ele>108.468750</ele>
<time>2012-07-20T14:32:59Z</time>
<extensions>
<speed>0.0</speed>
<temp>0.00</temp>
<bpm>0</bpm>
<rpm>0.00</rpm>
</extensions>
</trkpt>
<trkpt lat="64.260246277" lon="-20.221849442">
<ele>108.441406</ele>
<time>2012-07-20T14:33:04Z</time>
<extensions>
<speed>0.0</speed>
<temp>0.00</temp>
<bpm>0</bpm>
<rpm>0.00</rpm>
</extensions>
</trkpt>
<trkpt lat="64.260246277" lon="-20.221849442">
<ele>108.398438</ele>
<time>2012-07-20T14:33:09Z</time>
<extensions>
<speed>0.0</speed>
<temp>0.00</temp>
<bpm>0</bpm>
<rpm>0.00</rpm>
</extensions>
</trkpt>
<trkpt lat="64.260246277" lon="-20.221849442">
<ele>108.373047</ele>
<time>2012-07-20T14:33:14Z</time>
<extensions>
<speed>0.0</speed>
<temp>0.00</temp>
<bpm>0</bpm>
<rpm>0.00</rpm>
</extensions>
</trkpt>
<trkpt lat="64.260246277" lon="-20.221849442">
<ele>108.328125</ele>
<time>2012-07-20T14:33:19Z</time>
<extensions>
<speed>0.0</speed>
<temp>0.00</temp>
<bpm>0</bpm>
<rpm>0.00</rpm>
</extensions>
</trkpt>
<trkpt lat="64.260246277" lon="-20.221849442">
<ele>108.292969</ele>
<time>2012-07-20T14:33:24Z</time>
<speed>0.010000</speed>
<extensions>
<speed>0.0</speed>
<temp>0.00</temp>
<bpm>0</bpm>
<rpm>0.00</rpm>
</extensions>
</trkpt>
<trkpt lat="64.260238647" lon="-20.221849442">
<ele>108.251953</ele>
<time>2012-07-20T14:33:29Z</time>
<extensions>
<speed>0.0</speed>
<temp>0.00</temp>
<bpm>0</bpm>
<rpm>0.00</rpm>
</extensions>
</trkpt>
<trkpt lat="64.260238647" lon="-20.221849442">
<ele>108.214844</ele>
<time>2012-07-20T14:33:34Z</time>
<speed>0.010000</speed>
<extensions>
<speed>0.0</speed>
<temp>0.00</temp>
<bpm>0</bpm>
<rpm>0.00</rpm>
</extensions>
</trkpt>
<trkpt lat="64.260238647" lon="-20.221849442">
<ele>108.179688</ele>
<time>2012-07-20T14:33:39Z</time>
<extensions>
<speed>0.0</speed>
<temp>0.00</temp>
<bpm>0</bpm>
<rpm>0.00</rpm>
</extensions>
</trkpt>
<trkpt lat="64.260238647" lon="-20.221851349">
<ele>108.160156</ele>
<time>2012-07-20T14:33:44Z</time>
<extensions>
<speed>0.0</speed>
<temp>0.00</temp>
<bpm>0</bpm>
<rpm>0.00</rpm>
</extensions>
</trkpt>
<trkpt lat="64.260238647" lon="-20.221851349">
<ele>108.156250</ele>
<time>2012-07-20T14:33:49Z</time>
<extensions>
<speed>0.0</speed>
<temp>0.00</temp>
<bpm>0</bpm>
<rpm>0.00</rpm>
</extensions>
</trkpt>
<trkpt lat="64.260238647" lon="-20.221851349">
<ele>108.126953</ele>
<time>2012-07-20T14:33:54Z</time>
<extensions>
<speed>0.0</speed>
<temp>0.00</temp>
<bpm>0</bpm>
<rpm>0.00</rpm>
</extensions>
</trkpt>
<trkpt lat="64.260238647" lon="-20.221851349">
<ele>108.107422</ele>
<time>2012-07-20T14:33:59Z</time>
<extensions>
<speed>0.0</speed>
<temp>0.00</temp>
<bpm>0</bpm>
<rpm>0.00</rpm>
</extensions>
</trkpt>
<trkpt lat="64.260238647" lon="-20.221851349">
<ele>108.099609</ele>
<time>2012-07-20T14:34:04Z</time>
<speed>0.010000</speed>
<extensions>
<speed>0.0</speed>
<temp>0.00</temp>
<bpm>0</bpm>
<rpm>0.00</rpm>
</extensions>
</trkpt>
<trkpt lat="64.260238647" lon="-20.221851349">
<ele>108.095703</ele>
<time>2012-07-20T14:34:09Z</time>
<extensions>
<speed>0.0</speed>
<temp>0.00</temp>
<bpm>0</bpm>
<rpm>0.00</rpm>
</extensions>
</trkpt>
<trkpt lat="64.260238647" lon="-20.221851349">
<ele>108.072266</ele>
<time>2012-07-20T14:34:14Z</time>
<speed>0.010000</speed>
<extensions>
<speed>0.0</speed>
<temp>0.00</temp>
<bpm>0</bpm>
<rpm>0.00</rpm>
</extensions>
</trkpt>
<trkpt lat="64.260238647" lon="-20.221851349">
<ele>108.039063</ele>
<time>2012-07-20T14:34:19Z</time>
<extensions>
<speed>0.0</speed>
<temp>0.00</temp>
<bpm>0</bpm>
<rpm>0.00</rpm>
</extensions>
</trkpt>
<trkpt lat="64.260238647" lon="-20.221851349">
<ele>108.025391</ele>
<time>2012-07-20T14:34:24Z</time>
<extensions>
<speed>0.0</speed>
<temp>0.00</temp>
<bpm>0</bpm>
<rpm>0.00</rpm>
</extensions>
</trkpt>
<trkpt lat="64.260238647" lon="-20.221853256">
<ele>108.009766</ele>
<time>2012-07-20T14:34:29Z</time>
<extensions>
<speed>0.0</speed>
<temp>0.00</temp>
<bpm>0</bpm>
<rpm>0.00</rpm>
</extensions>
</trkpt>
<trkpt lat="64.260238647" lon="-20.221853256">
<ele>107.994141</ele>
<time>2012-07-20T14:34:34Z</time>
<extensions>
<speed>0.0</speed>
<temp>0.00</temp>
<bpm>0</bpm>
<rpm>0.00</rpm>
</extensions>
</trkpt>
<trkpt lat="64.260238647" lon="-20.221853256">
<ele>107.984375</ele>
<time>2012-07-20T14:34:39Z</time>
<speed>0.010000</speed>
<extensions>
<speed>0.0</speed>
<temp>0.00</temp>
<bpm>0</bpm>
<rpm>0.00</rpm>
</extensions>
</trkpt>
<trkpt lat="64.260238647" lon="-20.221853256">
<ele>107.980469</ele>
<time>2012-07-20T14:34:44Z</time>
<extensions>
<speed>0.0</speed>
<temp>0.00</temp>
<bpm>0</bpm>
<rpm>0.00</rpm>
</extensions>
</trkpt>
<trkpt lat="64.260238647" lon="-20.221853256">
<ele>107.970703</ele>
<time>2012-07-20T14:34:49Z</time>
<extensions>
<speed>0.0</speed>
<temp>0.00</temp>
<bpm>0</bpm>
<rpm>0.00</rpm>
</extensions>
</trkpt>
<trkpt lat="64.260238647" lon="-20.221853256">
<ele>107.947266</ele>
<time>2012-07-20T14:34:54Z</time>
<speed>0.010000</speed>
<extensions>
<speed>0.0</speed>
<temp>0.00</temp>
<bpm>0</bpm>
<rpm>0.00</rpm>
</extensions>
</trkpt>
<trkpt lat="64.260238647" lon="-20.221853256">
<ele>107.955078</ele>
<time>2012-07-20T14:34:59Z</time>
<extensions>
<speed>0.0</speed>
<temp>0.00</temp>
<bpm>0</bpm>
<rpm>0.00</rpm>
</extensions>
</trkpt>
<trkpt lat="64.260238647" lon="-20.221853256">
<ele>107.958984</ele>
<time>2012-07-20T14:35:04Z</time>
<extensions>
<speed>0.0</speed>
<temp>0.00</temp>
<bpm>0</bpm>
<rpm>0.00</rpm>
</extensions>
</trkpt>
<trkpt lat="64.260238647" lon="-20.221853256">
<ele>107.966797</ele>
<time>2012-07-20T14:35:09Z</time>
<extensions>
<speed>0.0</speed>
<temp>0.00</temp>
<bpm>0</bpm>
<rpm>0.00</rpm>
</extensions>
</trkpt>
<trkpt lat="64.260238647" lon="-20.221853256">
<ele>107.986328</ele>
<time>2012-07-20T14:35:14Z</time>
<extensions>
<speed>0.0</speed>
<temp>0.00</temp>
<bpm>0</bpm>
<rpm>0.00</rpm>
</extensions>
</trkpt>
<trkpt lat="64.260238647" lon="-20.221853256">
<ele>107.982422</ele>
<time>2012-07-20T14:35:19Z</time>
<speed>0.020000</speed>
<extensions>
<speed>0.0</speed>
<temp>0.00</temp>
<bpm>0</bpm>
<rpm>0.00</rpm>
</extensions>
</trkpt>
<trkpt lat="64.260238647" lon="-20.221855164">
<ele>107.970703</ele>
<time>2012-07-20T14:35:24Z</time>
<extensions>
<speed>0.0</speed>
<temp>0.00</temp>
<bpm>0</bpm>
<rpm>0.00</rpm>
</extensions>
</trkpt>
<trkpt lat="64.260238647" lon="-20.221855164">
<ele>107.968750</ele>
<time>2012-07-20T14:35:29Z</time>
<speed>0.010000</speed>
<extensions>
<speed>0.0</speed>
<temp>0.00</temp>
<bpm>0</bpm>
<rpm>0.00</rpm>
</extensions>
</trkpt>
<trkpt lat="64.260238647" lon="-20.221855164">
<ele>107.962891</ele>
<time>2012-07-20T14:35:34Z</time>
<extensions>
<speed>0.0</speed>
<temp>0.00</temp>
<bpm>0</bpm>
<rpm>0.00</rpm>
</extensions>
</trkpt>
<trkpt lat="64.260238647" lon="-20.221855164">
<ele>107.960938</ele>
<time>2012-07-20T14:35:39Z</time>
<extensions>
<speed>0.0</speed>
<temp>0.00</temp>
<bpm>0</bpm>
<rpm>0.00</rpm>
</extensions>
</trkpt>
<trkpt lat="64.260238647" lon="-20.221855164">
<ele>107.974609</ele>
<time>2012-07-20T14:35:44Z</time>
<speed>0.010000</speed>
<extensions>
<speed>0.0</speed>
<temp>0.00</temp>
<bpm>0</bpm>
<rpm>0.00</rpm>
</extensions>
</trkpt>
<trkpt lat="64.260238647" lon="-20.221855164">
<ele>107.951172</ele>
<time>2012-07-20T14:35:49Z</time>
<extensions>
<speed>0.0</speed>
<temp>0.00</temp>
<bpm>0</bpm>
<rpm>0.00</rpm>
</extensions>
</trkpt>
<trkpt lat="64.260238647" lon="-20.221855164">
<ele>107.945313</ele>
<time>2012-07-20T14:35:54Z</time>
<speed>0.010000</speed>
<extensions>
<speed>0.0</speed>
<temp>0.00</temp>
<bpm>0</bpm>
<rpm>0.00</rpm>
</extensions>
</trkpt>
<trkpt lat="64.260238647" lon="-20.221855164">
<ele>107.937500</ele>
<time>2012-07-20T14:35:59Z</time>
<speed>0.010000</speed>
<extensions>
<speed>0.0</speed>
<temp>0.00</temp>
<bpm>0</bpm>
<rpm>0.00</rpm>
</extensions>
</trkpt>
<trkpt lat="64.260238647" lon="-20.221855164">
<ele>107.941406</ele>
<time>2012-07-20T14:36:04Z</time>
<extensions>
<speed>0.0</speed>
<temp>0.00</temp>
<bpm>0</bpm>
<rpm>0.00</rpm>
</extensions>
</trkpt>
<trkpt lat="64.260238647" lon="-20.221855164">
<ele>107.927734</ele>
<time>2012-07-20T14:36:09Z</time>
<extensions>
<speed>0.0</speed>
<temp>0.00</temp>
<bpm>0</bpm>
<rpm>0.00</rpm>
</extensions>
</trkpt>
<trkpt lat="64.260246277" lon="-20.221826553">
<ele>108.263672</ele>
<time>2012-07-20T14:36:14Z</time>
<speed>0.860000</speed>
<extensions>
<speed>0.9</speed>
<temp>0.00</temp>
<bpm>0</bpm>
<rpm>0.00</rpm>
</extensions>
</trkpt>
<trkpt lat="64.260307312" lon="-20.221830368">
<ele>108.191406</ele>
<time>2012-07-20T14:36:19Z</time>
<speed>1.350000</speed>
<extensions>
<speed>1.4</speed>
<temp>0.00</temp>
<bpm>0</bpm>
<rpm>0.00</rpm>
</extensions>
</trkpt>
<trkpt lat="64.260368347" lon="-20.221851349">
<ele>107.474609</ele>
<time>2012-07-20T14:36:24Z</time>
<speed>1.510000</speed>
<extensions>
<speed>1.5</speed>
<temp>0.00</temp>
<bpm>0</bpm>
<rpm>0.00</rpm>
</extensions>
</trkpt>
<trkpt lat="64.260421753" lon="-20.221801758">
<ele>108.478516</ele>
<time>2012-07-20T14:36:29Z</time>
<speed>1.190000</speed>
<extensions>
<speed>1.2</speed>
<temp>0.00</temp>
<bpm>0</bpm>
<rpm>0.00</rpm>
</extensions>
</trkpt>
<trkpt lat="64.260475159" lon="-20.221752167">
<ele>110.132813</ele>
<time>2012-07-20T14:36:34Z</time>
<speed>0.700000</speed>
<extensions>
<speed>0.7</speed>
<temp>0.00</temp>
<bpm>0</bpm>
<rpm>0.00</rpm>
</extensions>
</trkpt>
<trkpt lat="64.260498047" lon="-20.221733093">
<ele>111.289063</ele>
<time>2012-07-20T14:36:39Z</time>
<speed>0.180000</speed>
<extensions>
<speed>0.2</speed>
<temp>0.00</temp>
<bpm>0</bpm>
<rpm>0.00</rpm>
</extensions>
</trkpt>
<trkpt lat="64.260505676" lon="-20.221715927">
<ele>111.126953</ele>
<time>2012-07-20T14:36:44Z</time>
<speed>0.090000</speed>
<extensions>
<speed>0.1</speed>
<temp>0.00</temp>
<bpm>0</bpm>
<rpm>0.00</rpm>
</extensions>
</trkpt>
<trkpt lat="64.260528564" lon="-20.221683502">
<ele>111.365234</ele>
<time>2012-07-20T14:36:49Z</time>
<speed>1.230000</speed>
<extensions>
<speed>1.2</speed>
<temp>0.00</temp>
<bpm>0</bpm>
<rpm>0.00</rpm>
</extensions>
</trkpt>
<trkpt lat="64.260612488" lon="-20.221605301">
<ele>112.781250</ele>
<time>2012-07-20T14:36:54Z</time>
<speed>2.540000</speed>
<extensions>
<speed>2.5</speed>
<temp>0.00</temp>
<bpm>0</bpm>
<rpm>0.00</rpm>
</extensions>
</trkpt>
<trkpt lat="64.260772705" lon="-20.221467972">
<ele>111.220703</ele>
<time>2012-07-20T14:36:59Z</time>
<speed>3.850000</speed>
<extensions>
<speed>3.8</speed>
<temp>0.00</temp>
<bpm>0</bpm>
<rpm>0.00</rpm>
</extensions>
</trkpt>
<trkpt lat="64.260879517" lon="-20.221258163">
<ele>110.677734</ele>
<time>2012-07-20T14:37:04Z</time>
<speed>3.550000</speed>
<extensions>
<speed>3.5</speed>
<temp>0.00</temp>
<bpm>0</bpm>
<rpm>0.00</rpm>
</extensions>
</trkpt>
<trkpt lat="64.260978699" lon="-20.221065521">
<ele>111.082031</ele>
<time>2012-07-20T14:37:09Z</time>
<speed>2.320000</speed>
<extensions>
<speed>2.3</speed>
<temp>0.00</temp>
<bpm>0</bpm>
<rpm>0.00</rpm>
</extensions>
</trkpt>
<trkpt lat="64.261085510" lon="-20.220907211">
<ele>111.230469</ele>
<time>2012-07-20T14:37:14Z</time>
<speed>2.870000</speed>
<extensions>
<speed>2.9</speed>
<temp>0.00</temp>
<bpm>0</bpm>
<rpm>0.00</rpm>
</extensions>
</trkpt>
<trkpt lat="64.261199951" lon="-20.220769882">
<ele>110.417969</ele>
<time>2012-07-20T14:37:19Z</time>
<speed>2.050000</speed>
<extensions>
<speed>2.1</speed>
<temp>0.00</temp>
<bpm>0</bpm>
<rpm>0.00</rpm>
</extensions>
</trkpt>
<trkpt lat="64.261306763" lon="-20.220663071">
<ele>110.111328</ele>
<time>2012-07-20T14:37:24Z</time>
<speed>2.640000</speed>
<extensions>
<speed>2.6</speed>
<temp>0.00</temp>
<bpm>0</bpm>
<rpm>0.00</rpm>
</extensions>
</trkpt>
<trkpt lat="64.261390686" lon="-20.220571518">
<ele>110.371094</ele>
<time>2012-07-20T14:37:29Z</time>
<speed>2.580000</speed>
<extensions>
<speed>2.6</speed>
<temp>0.00</temp>
<bpm>0</bpm>
<rpm>0.00</rpm>
</extensions>
</trkpt>
<trkpt lat="64.261505127" lon="-20.220445633">
<ele>112.132813</ele>
<time>2012-07-20T14:37:34Z</time>
<speed>2.410000</speed>
<extensions>
<speed>2.4</speed>
<temp>0.00</temp>
<bpm>0</bpm>
<rpm>0.00</rpm>
</extensions>
</trkpt>
<trkpt lat="64.261619568" lon="-20.220304489">
<ele>111.923828</ele>
<time>2012-07-20T14:37:39Z</time>
<speed>2.950000</speed>
<extensions>
<speed>2.9</speed>
<temp>0.00</temp>
<bpm>0</bpm>
<rpm>0.00</rpm>
</extensions>
</trkpt>
<trkpt lat="64.261726379" lon="-20.220203400">
<ele>112.794922</ele>
<time>2012-07-20T14:37:44Z</time>
<speed>2.620000</speed>
<extensions>
<speed>2.6</speed>
<temp>0.00</temp>
<bpm>0</bpm>
<rpm>0.00</rpm>
</extensions>
</trkpt>
<trkpt lat="64.261840820" lon="-20.220085144">
<ele>113.093750</ele>
<time>2012-07-20T14:37:49Z</time>
<speed>3.450000</speed>
<extensions>
<speed>3.5</speed>
<temp>0.00</temp>
<bpm>0</bpm>
<rpm>0.00</rpm>
</extensions>
</trkpt>
<trkpt lat="64.261932373" lon="-20.219949722">
<ele>111.708984</ele>
<time>2012-07-20T14:37:54Z</time>
<speed>2.480000</speed>
<extensions>
<speed>2.5</speed>
<temp>0.00</temp>
<bpm>0</bpm>
<rpm>0.00</rpm>
</extensions>
</trkpt>
<trkpt lat="64.262039185" lon="-20.219814301">
<ele>112.837891</ele>
<time>2012-07-20T14:37:59Z</time>
<speed>2.940000</speed>
<extensions>
<speed>2.9</speed>
<temp>0.00</temp>
<bpm>0</bpm>
<rpm>0.00</rpm>
</extensions>
</trkpt>
<trkpt lat="64.262153625" lon="-20.219692230">
<ele>112.517578</ele>
<time>2012-07-20T14:38:04Z</time>
<speed>2.810000</speed>
<extensions>
<speed>2.8</speed>
<temp>0.00</temp>
<bpm>0</bpm>
<rpm>0.00</rpm>
</extensions>
</trkpt>
<trkpt lat="64.262290955" lon="-20.219558716">
<ele>113.394531</ele>
<time>2012-07-20T14:38:09Z</time>
<speed>2.960000</speed>
<extensions>
<speed>3.0</speed>
<temp>0.00</temp>
<bpm>0</bpm>
<rpm>0.00</rpm>
</extensions>
</trkpt>
<trkpt lat="64.262428284" lon="-20.219404221">
<ele>116.324219</ele>
<time>2012-07-20T14:38:14Z</time>
<speed>3.240000</speed>
<extensions>
<speed>3.2</speed>
<temp>0.00</temp>
<bpm>0</bpm>
<rpm>0.00</rpm>
</extensions>
</trkpt>
<trkpt lat="64.262557983" lon="-20.219259262">
<ele>115.373047</ele>
<time>2012-07-20T14:38:19Z</time>
<speed>3.300000</speed>
<extensions>
<speed>3.3</speed>
<temp>0.00</temp>
<bpm>0</bpm>
<rpm>0.00</rpm>
</extensions>
</trkpt>
<trkpt lat="64.262672424" lon="-20.219085693">
<ele>114.828125</ele>
<time>2012-07-20T14:38:24Z</time>
<speed>3.750000</speed>
<extensions>
<speed>3.8</speed>
<temp>0.00</temp>
<bpm>0</bpm>
<rpm>0.00</rpm>
</extensions>
</trkpt>
<trkpt lat="64.262817383" lon="-20.218868256">
<ele>116.375000</ele>
<time>2012-07-20T14:38:29Z</time>
<speed>3.900000</speed>
<extensions>
<speed>3.9</speed>
<temp>0.00</temp>
<bpm>0</bpm>
<rpm>0.00</rpm>
</extensions>
</trkpt>
<trkpt lat="64.262977600" lon="-20.218683243">
<ele>117.578125</ele>
<time>2012-07-20T14:38:34Z</time>
<speed>3.720000</speed>
<extensions>
<speed>3.7</speed>
<temp>0.00</temp>
<bpm>0</bpm>
<rpm>0.00</rpm>
</extensions>
</trkpt>
<trkpt lat="64.263137817" lon="-20.218465805">
<ele>117.683594</ele>
<time>2012-07-20T14:38:39Z</time>
<speed>3.890000</speed>
<extensions>
<speed>3.9</speed>
<temp>0.00</temp>
<bpm>0</bpm>
<rpm>0.00</rpm>
</extensions>
</trkpt>
<trkpt lat="64.263290405" lon="-20.218267441">
<ele>117.273438</ele>
<time>2012-07-20T14:38:44Z</time>
<speed>2.800000</speed>
<extensions>
<speed>2.8</speed>
<temp>0.00</temp>
<bpm>0</bpm>
<rpm>0.00</rpm>
</extensions>
</trkpt>
<trkpt lat="64.263343811" lon="-20.218248367">
<ele>117.056641</ele>
<time>2012-07-20T14:38:49Z</time>
<speed>1.220000</speed>
<extensions>
<speed>1.2</speed>
<temp>0.00</temp>
<bpm>0</bpm>
<rpm>0.00</rpm>
</extensions>
</trkpt>
<trkpt lat="64.263290405" lon="-20.218297958">
<ele>116.154297</ele>
<time>2012-07-20T14:38:54Z</time>
<speed>1.550000</speed>
<extensions>
<speed>1.5</speed>
<temp>0.00</temp>
<bpm>0</bpm>
<rpm>0.00</rpm>
</extensions>
</trkpt>
<trkpt lat="64.263221741" lon="-20.218366623">
<ele>116.062500</ele>
<time>2012-07-20T14:38:59Z</time>
<speed>1.700000</speed>
<extensions>
<speed>1.7</speed>
<temp>0.00</temp>
<bpm>0</bpm>
<rpm>0.00</rpm>
</extensions>
</trkpt>
<trkpt lat="64.263259888" lon="-20.218378067">
<ele>116.115234</ele>
<time>2012-07-20T14:39:04Z</time>
<speed>1.600000</speed>
<extensions>
<speed>1.6</speed>
<temp>0.00</temp>
<bpm>0</bpm>
<rpm>0.00</rpm>
</extensions>
</trkpt>
<trkpt lat="64.263275146" lon="-20.218297958">
<ele>114.789063</ele>
<time>2012-07-20T14:39:09Z</time>
<speed>1.550000</speed>
<extensions>
<speed>1.5</speed>
<temp>0.00</temp>
<bpm>0</bpm>
<rpm>0.00</rpm>
</extensions>
</trkpt>
<trkpt lat="64.263305664" lon="-20.218294144">
<ele>115.380859</ele>
<time>2012-07-20T14:39:14Z</time>
<speed>2.790000</speed>
<extensions>
<speed>2.8</speed>
<temp>0.00</temp>
<bpm>0</bpm>
<rpm>0.00</rpm>
</extensions>
</trkpt>
<trkpt lat="64.263404846" lon="-20.218112946">
<ele>114.869141</ele>
<time>2012-07-20T14:39:19Z</time>
<speed>3.100000</speed>
<extensions>
<speed>3.1</speed>
<temp>0.00</temp>
<bpm>0</bpm>
<rpm>0.00</rpm>
</extensions>
</trkpt>
<trkpt lat="64.263526917" lon="-20.217927933">
<ele>114.761719</ele>
<time>2012-07-20T14:39:24Z</time>
<speed>3.410000</speed>
<extensions>
<speed>3.4</speed>
<temp>0.00</temp>
<bpm>0</bpm>
<rpm>0.00</rpm>
</extensions>
</trkpt>
<trkpt lat="64.263671875" lon="-20.217720032">
<ele>113.884766</ele>
<time>2012-07-20T14:39:29Z</time>
<speed>3.530000</speed>
<extensions>
<speed>3.5</speed>
<temp>0.00</temp>
<bpm>0</bpm>
<rpm>0.00</rpm>
</extensions>
</trkpt>
<trkpt lat="64.263824463" lon="-20.217494965">
<ele>113.662109</ele>
<time>2012-07-20T14:39:34Z</time>
<speed>3.850000</speed>
<extensions>
<speed>3.8</speed>
<temp>0.00</temp>
<bpm>0</bpm>
<rpm>0.00</rpm>
</extensions>
</trkpt>
<trkpt lat="64.263969421" lon="-20.217247009">
<ele>115.314453</ele>
<time>2012-07-20T14:39:39Z</time>
<speed>3.940000</speed>
<extensions>
<speed>3.9</speed>
<temp>0.00</temp>
<bpm>0</bpm>
<rpm>0.00</rpm>
</extensions>
</trkpt>
<trkpt lat="64.264106750" lon="-20.217010498">
<ele>116.240234</ele>
<time>2012-07-20T14:39:44Z</time>
<speed>3.620000</speed>
<extensions>
<speed>3.6</speed>
<temp>0.00</temp>
<bpm>0</bpm>
<rpm>0.00</rpm>
</extensions>
</trkpt>
<trkpt lat="64.264228821" lon="-20.216739655">
<ele>116.093750</ele>
<time>2012-07-20T14:39:49Z</time>
<speed>3.920000</speed>
<extensions>
<speed>3.9</speed>
<temp>0.00</temp>
<bpm>0</bpm>
<rpm>0.00</rpm>
</extensions>
</trkpt>
<trkpt lat="64.264350891" lon="-20.216432571">
<ele>116.392578</ele>
<time>2012-07-20T14:39:54Z</time>
<speed>3.630000</speed>
<extensions>
<speed>3.6</speed>
<temp>0.00</temp>
<bpm>0</bpm>
<rpm>0.00</rpm>
</extensions>
</trkpt>
<trkpt lat="64.264442444" lon="-20.216152191">
<ele>115.595703</ele>
<time>2012-07-20T14:39:59Z</time>
<speed>2.700000</speed>
<extensions>
<speed>2.7</speed>
<temp>0.00</temp>
<bpm>0</bpm>
<rpm>0.00</rpm>
</extensions>
</trkpt>
<trkpt lat="64.264518738" lon="-20.215873718">
<ele>115.453125</ele>
<time>2012-07-20T14:40:04Z</time>
<speed>3.290000</speed>
<extensions>
<speed>3.3</speed>
<temp>0.00</temp>
<bpm>0</bpm>
<rpm>0.00</rpm>
</extensions>
</trkpt>
<trkpt lat="64.264595032" lon="-20.215631485">
<ele>118.498047</ele>
<time>2012-07-20T14:40:09Z</time>
<speed>2.190000</speed>
<extensions>
<speed>2.2</speed>
<temp>0.00</temp>
<bpm>0</bpm>
<rpm>0.00</rpm>
</extensions>
</trkpt>
<trkpt lat="64.264633179" lon="-20.215429306">
<ele>117.664063</ele>
<time>2012-07-20T14:40:14Z</time>
<speed>2.380000</speed>
<extensions>
<speed>2.4</speed>
<temp>0.00</temp>
<bpm>0</bpm>
<rpm>0.00</rpm>
</extensions>
</trkpt>
<trkpt lat="64.264678955" lon="-20.215244293">
<ele>117.750000</ele>
<time>2012-07-20T14:40:19Z</time>
<speed>2.510000</speed>
<extensions>
<speed>2.5</speed>
<temp>0.00</temp>
<bpm>0</bpm>
<rpm>0.00</rpm>
</extensions>
</trkpt>
<trkpt lat="64.264724731" lon="-20.215051651">
<ele>118.535156</ele>
<time>2012-07-20T14:40:24Z</time>
<speed>2.360000</speed>
<extensions>
<speed>2.4</speed>
<temp>0.00</temp>
<bpm>0</bpm>
<rpm>0.00</rpm>
</extensions>
</trkpt>
<trkpt lat="64.264778137" lon="-20.214859009">
<ele>120.466797</ele>
<time>2012-07-20T14:40:29Z</time>
<speed>2.200000</speed>
<extensions>
<speed>2.2</speed>
<temp>0.00</temp>
<bpm>0</bpm>
<rpm>0.00</rpm>
</extensions>
</trkpt>
<trkpt lat="64.264808655" lon="-20.214630127">
<ele>121.744141</ele>
<time>2012-07-20T14:40:34Z</time>
<speed>2.300000</speed>
<extensions>
<speed>2.3</speed>
<temp>0.00</temp>
<bpm>0</bpm>
<rpm>0.00</rpm>
</extensions>
</trkpt>
<trkpt lat="64.264846802" lon="-20.214387894">
<ele>122.230469</ele>
<time>2012-07-20T14:40:39Z</time>
<speed>2.400000</speed>
<extensions>
<speed>2.4</speed>
<temp>0.00</temp>
<bpm>0</bpm>
<rpm>0.00</rpm>
</extensions>
</trkpt>
<trkpt lat="64.264884949" lon="-20.214155197">
<ele>122.447266</ele>
<time>2012-07-20T14:40:44Z</time>
<speed>2.170000</speed>
<extensions>
<speed>2.2</speed>
<temp>0.00</temp>
<bpm>0</bpm>
<rpm>0.00</rpm>
</extensions>
</trkpt>
<trkpt lat="64.264915466" lon="-20.213911057">
<ele>122.742188</ele>
<time>2012-07-20T14:40:49Z</time>
<speed>2.690000</speed>
<extensions>
<speed>2.7</speed>
<temp>0.00</temp>
<bpm>0</bpm>
<rpm>0.00</rpm>
</extensions>
</trkpt>
<trkpt lat="64.264945984" lon="-20.213642120">
<ele>122.861328</ele>
<time>2012-07-20T14:40:54Z</time>
<speed>2.660000</speed>
<extensions>
<speed>2.7</speed>
<temp>0.00</temp>
<bpm>0</bpm>
<rpm>0.00</rpm>
</extensions>
</trkpt>
<trkpt lat="64.264968872" lon="-20.213392258">
<ele>123.634766</ele>
<time>2012-07-20T14:40:59Z</time>
<speed>2.170000</speed>
<extensions>
<speed>2.2</speed>
<temp>0.00</temp>
<bpm>0</bpm>
<rpm>0.00</rpm>
</extensions>
</trkpt>
<trkpt lat="64.264984131" lon="-20.213121414">
<ele>124.255859</ele>
<time>2012-07-20T14:41:04Z</time>
<speed>2.940000</speed>
<extensions>
<speed>2.9</speed>
<temp>0.00</temp>
<bpm>0</bpm>
<rpm>0.00</rpm>
</extensions>
</trkpt>
<trkpt lat="64.264991760" lon="-20.212829590">
<ele>123.376953</ele>
<time>2012-07-20T14:41:09Z</time>
<speed>3.070000</speed>
<extensions>
<speed>3.1</speed>
<temp>0.00</temp>
<bpm>0</bpm>
<rpm>0.00</rpm>
</extensions>
</trkpt>
<trkpt lat="64.264991760" lon="-20.212526321">
<ele>121.675781</ele>
<time>2012-07-20T14:41:14Z</time>
<speed>2.820000</speed>
<extensions>
<speed>2.8</speed>
<temp>0.00</temp>
<bpm>0</bpm>
<rpm>0.00</rpm>
</extensions>
</trkpt>
<trkpt lat="64.265007019" lon="-20.212228775">
<ele>123.281250</ele>
<time>2012-07-20T14:41:19Z</time>
<speed>3.070000</speed>
<extensions>
<speed>3.1</speed>
<temp>0.00</temp>
<bpm>0</bpm>
<rpm>0.00</rpm>
</extensions>
</trkpt>
<trkpt lat="64.265014648" lon="-20.211921692">
<ele>124.185547</ele>
<time>2012-07-20T14:41:24Z</time>
<speed>3.010000</speed>
<extensions>
<speed>3.0</speed>
<temp>0.00</temp>
<bpm>0</bpm>
<rpm>0.00</rpm>
</extensions>
</trkpt>
<trkpt lat="64.265029907" lon="-20.211597443">
<ele>126.224609</ele>
<time>2012-07-20T14:41:29Z</time>
<speed>3.190000</speed>
<extensions>
<speed>3.2</speed>
<temp>0.00</temp>
<bpm>0</bpm>
<rpm>0.00</rpm>
</extensions>
</trkpt>
<trkpt lat="64.265060425" lon="-20.211299896">
<ele>125.429688</ele>
<time>2012-07-20T14:41:34Z</time>
<speed>2.960000</speed>
<extensions>
<speed>3.0</speed>
<temp>0.00</temp>
<bpm>0</bpm>
<rpm>0.00</rpm>
</extensions>
</trkpt>
<trkpt lat="64.265090942" lon="-20.210969925">
<ele>125.718750</ele>
<time>2012-07-20T14:41:39Z</time>
<speed>3.820000</speed>
<extensions>
<speed>3.8</speed>
<temp>0.00</temp>
<bpm>0</bpm>
<rpm>0.00</rpm>
</extensions>
</trkpt>
<trkpt lat="64.265136719" lon="-20.210607529">
<ele>126.199219</ele>
<time>2012-07-20T14:41:44Z</time>
<speed>3.590000</speed>
<extensions>
<speed>3.6</speed>
<temp>0.00</temp>
<bpm>0</bpm>
<rpm>0.00</rpm>
</extensions>
</trkpt>
<trkpt lat="64.265190125" lon="-20.210254669">
<ele>126.783203</ele>
<time>2012-07-20T14:41:49Z</time>
<speed>3.270000</speed>
<extensions>
<speed>3.3</speed>
<temp>0.00</temp>
<bpm>0</bpm>
<rpm>0.00</rpm>
</extensions>
</trkpt>
<trkpt lat="64.265235901" lon="-20.209926605">
<ele>126.412109</ele>
<time>2012-07-20T14:41:54Z</time>
<speed>3.570000</speed>
<extensions>
<speed>3.6</speed>
<temp>0.00</temp>
<bpm>0</bpm>
<rpm>0.00</rpm>
</extensions>
</trkpt>
<trkpt lat="64.265304565" lon="-20.209604263">
<ele>127.199219</ele>
<time>2012-07-20T14:41:59Z</time>
<speed>3.630000</speed>
<extensions>
<speed>3.6</speed>
<temp>0.00</temp>
<bpm>0</bpm>
<rpm>0.00</rpm>
</extensions>
</trkpt>
<trkpt lat="64.265380859" lon="-20.209264755">
<ele>126.962891</ele>
<time>2012-07-20T14:42:04Z</time>
<speed>3.690000</speed>
<extensions>
<speed>3.7</speed>
<temp>0.00</temp>
<bpm>0</bpm>
<rpm>0.00</rpm>
</extensions>
</trkpt>
<trkpt lat="64.265457153" lon="-20.208950043">
<ele>128.167969</ele>
<time>2012-07-20T14:42:09Z</time>
<speed>3.670000</speed>
<extensions>
<speed>3.7</speed>
<temp>0.00</temp>
<bpm>0</bpm>
<rpm>0.00</rpm>
</extensions>
</trkpt>
<trkpt lat="64.265548706" lon="-20.208642960">
<ele>127.587891</ele>
<time>2012-07-20T14:42:14Z</time>
<speed>3.590000</speed>
<extensions>
<speed>3.6</speed>
<temp>0.00</temp>
<bpm>0</bpm>
<rpm>0.00</rpm>
</extensions>
</trkpt>
<trkpt lat="64.265632629" lon="-20.208324432">
<ele>127.937500</ele>
<time>2012-07-20T14:42:19Z</time>
<speed>3.720000</speed>
<extensions>
<speed>3.7</speed>
<temp>0.00</temp>
<bpm>0</bpm>
<rpm>0.00</rpm>
</extensions>
</trkpt>
<trkpt lat="64.265731812" lon="-20.208036423">
<ele>127.904297</ele>
<time>2012-07-20T14:42:24Z</time>
<speed>3.670000</speed>
<extensions>
<speed>3.7</speed>
<temp>0.00</temp>
<bpm>0</bpm>
<rpm>0.00</rpm>
</extensions>
</trkpt>
<trkpt lat="64.265815735" lon="-20.207729340">
<ele>126.974609</ele>
<time>2012-07-20T14:42:29Z</time>
<speed>3.420000</speed>
<extensions>
<speed>3.4</speed>
<temp>0.00</temp>
<bpm>0</bpm>
<rpm>0.00</rpm>
</extensions>
</trkpt>
<trkpt lat="64.265907288" lon="-20.207454681">
<ele>127.113281</ele>
<time>2012-07-20T14:42:34Z</time>
<speed>3.540000</speed>
<extensions>
<speed>3.5</speed>
<temp>0.00</temp>
<bpm>0</bpm>
<rpm>0.00</rpm>
</extensions>
</trkpt>
<trkpt lat="64.265983582" lon="-20.207120895">
<ele>124.751953</ele>
<time>2012-07-20T14:42:39Z</time>
<speed>3.510000</speed>
<extensions>
<speed>3.5</speed>
<temp>0.00</temp>
<bpm>0</bpm>
<rpm>0.00</rpm>
</extensions>
</trkpt>
<trkpt lat="64.266075134" lon="-20.206834793">
<ele>125.214844</ele>
<time>2012-07-20T14:42:44Z</time>
<speed>3.420000</speed>
<extensions>
<speed>3.4</speed>
<temp>0.00</temp>
<bpm>0</bpm>
<rpm>0.00</rpm>
</extensions>
</trkpt>
<trkpt lat="64.266151428" lon="-20.206548691">
<ele>124.726563</ele>
<time>2012-07-20T14:42:49Z</time>
<speed>3.080000</speed>
<extensions>
<speed>3.1</speed>
<temp>0.00</temp>
<bpm>0</bpm>
<rpm>0.00</rpm>
</extensions>
</trkpt>
<trkpt lat="64.266235352" lon="-20.206272125">
<ele>125.111328</ele>
<time>2012-07-20T14:42:54Z</time>
<speed>3.250000</speed>
<extensions>
<speed>3.2</speed>
<temp>0.00</temp>
<bpm>0</bpm>
<rpm>0.00</rpm>
</extensions>
</trkpt>
<trkpt lat="64.266319275" lon="-20.206010818">
<ele>125.177734</ele>
<time>2012-07-20T14:42:59Z</time>
<speed>3.250000</speed>
<extensions>
<speed>3.2</speed>
<temp>0.00</temp>
<bpm>0</bpm>
<rpm>0.00</rpm>
</extensions>
</trkpt>
<trkpt lat="64.266403198" lon="-20.205749512">
<ele>125.900391</ele>
<time>2012-07-20T14:43:04Z</time>
<speed>3.270000</speed>
<extensions>
<speed>3.3</speed>
<temp>0.00</temp>
<bpm>0</bpm>
<rpm>0.00</rpm>
</extensions>
</trkpt>
<trkpt lat="64.266487122" lon="-20.205472946">
<ele>126.597656</ele>
<time>2012-07-20T14:43:09Z</time>
<speed>3.330000</speed>
<extensions>
<speed>3.3</speed>
<temp>0.00</temp>
<bpm>0</bpm>
<rpm>0.00</rpm>
</extensions>
</trkpt>
<trkpt lat="64.266571045" lon="-20.205184937">
<ele>125.738281</ele>
<time>2012-07-20T14:43:14Z</time>
<speed>3.130000</speed>
<extensions>
<speed>3.1</speed>
<temp>0.00</temp>
<bpm>0</bpm>
<rpm>0.00</rpm>
</extensions>
</trkpt>
<trkpt lat="64.266662598" lon="-20.204874039">
<ele>125.703125</ele>
<time>2012-07-20T14:43:19Z</time>
<speed>3.640000</speed>
<extensions>
<speed>3.6</speed>
<temp>0.00</temp>
<bpm>0</bpm>
<rpm>0.00</rpm>
</extensions>
</trkpt>
<trkpt lat="64.266754150" lon="-20.204587936">
<ele>126.328125</ele>
<time>2012-07-20T14:43:24Z</time>
<speed>3.500000</speed>
<extensions>
<speed>3.5</speed>
<temp>0.00</temp>
<bpm>0</bpm>
<rpm>0.00</rpm>
</extensions>
</trkpt>
<trkpt lat="64.266838074" lon="-20.204292297">
<ele>126.564453</ele>
<time>2012-07-20T14:43:29Z</time>
<speed>3.530000</speed>
<extensions>
<speed>3.5</speed>
<temp>0.00</temp>
<bpm>0</bpm>
<rpm>0.00</rpm>
</extensions>
</trkpt>
<trkpt lat="64.266944885" lon="-20.203973770">
<ele>127.619141</ele>
<time>2012-07-20T14:43:34Z</time>
<speed>3.820000</speed>
<extensions>
<speed>3.8</speed>
<temp>0.00</temp>
<bpm>0</bpm>
<rpm>0.00</rpm>
</extensions>
</trkpt>
<trkpt lat="64.267044067" lon="-20.203660965">
<ele>127.388672</ele>
<time>2012-07-20T14:43:39Z</time>
<speed>3.810000</speed>
<extensions>
<speed>3.8</speed>
<temp>0.00</temp>
<bpm>0</bpm>
<rpm>0.00</rpm>
</extensions>
</trkpt>
<trkpt lat="64.267143250" lon="-20.203323364">
<ele>127.187500</ele>
<time>2012-07-20T14:43:44Z</time>
<speed>3.660000</speed>
<extensions>
<speed>3.7</speed>
<temp>0.00</temp>
<bpm>0</bpm>
<rpm>0.00</rpm>
</extensions>
</trkpt>
<trkpt lat="64.267250061" lon="-20.202972412">
<ele>127.009766</ele>
<time>2012-07-20T14:43:49Z</time>
<speed>4.170000</speed>
<extensions>
<speed>4.2</speed>
<temp>0.00</temp>
<bpm>0</bpm>
<rpm>0.00</rpm>
</extensions>
</trkpt>
<trkpt lat="64.267356873" lon="-20.202615738">
<ele>127.802734</ele>
<time>2012-07-20T14:43:54Z</time>
<speed>4.030000</speed>
<extensions>
<speed>4.0</speed>
<temp>0.00</temp>
<bpm>0</bpm>
<rpm>0.00</rpm>
</extensions>
</trkpt>
<trkpt lat="64.267463684" lon="-20.202217102">
<ele>127.628906</ele>
<time>2012-07-20T14:43:59Z</time>
<speed>4.910000</speed>
<extensions>
<speed>4.9</speed>
<temp>0.00</temp>
<bpm>0</bpm>
<rpm>0.00</rpm>
</extensions>
</trkpt>
<trkpt lat="64.267608643" lon="-20.201803207">
<ele>127.656250</ele>
<time>2012-07-20T14:44:04Z</time>
<speed>5.240000</speed>
<extensions>
<speed>5.2</speed>
<temp>0.00</temp>
<bpm>0</bpm>
<rpm>0.00</rpm>
</extensions>
</trkpt>
<trkpt lat="64.267745972" lon="-20.201351166">
<ele>126.675781</ele>
<time>2012-07-20T14:44:09Z</time>
<speed>5.260000</speed>
<extensions>
<speed>5.3</speed>
<temp>0.00</temp>
<bpm>0</bpm>
<rpm>0.00</rpm>
</extensions>
</trkpt>
<trkpt lat="64.267875671" lon="-20.200933456">
<ele>126.615234</ele>
<time>2012-07-20T14:44:14Z</time>
<speed>5.090000</speed>
<extensions>
<speed>5.1</speed>
<temp>0.00</temp>
<bpm>0</bpm>
<rpm>0.00</rpm>
</extensions>
</trkpt>
<trkpt lat="64.268005371" lon="-20.200519562">
<ele>127.222656</ele>
<time>2012-07-20T14:44:19Z</time>
<speed>4.740000</speed>
<extensions>
<speed>4.7</speed>
<temp>0.00</temp>
<bpm>0</bpm>
<rpm>0.00</rpm>
</extensions>
</trkpt>
<trkpt lat="64.268127441" lon="-20.200113297">
<ele>127.664063</ele>
<time>2012-07-20T14:44:24Z</time>
<speed>4.600000</speed>
<extensions>
<speed>4.6</speed>
<temp>0.00</temp>
<bpm>0</bpm>
<rpm>0.00</rpm>
</extensions>
</trkpt>
<trkpt lat="64.268234253" lon="-20.199766159">
<ele>127.574219</ele>
<time>2012-07-20T14:44:29Z</time>
<speed>4.180000</speed>
<extensions>
<speed>4.2</speed>
<temp>0.00</temp>
<bpm>0</bpm>
<rpm>0.00</rpm>
</extensions>
</trkpt>
<trkpt lat="64.268348694" lon="-20.199399948">
<ele>127.408203</ele>
<time>2012-07-20T14:44:34Z</time>
<speed>3.990000</speed>
<extensions>
<speed>4.0</speed>
<temp>0.00</temp>
<bpm>0</bpm>
<rpm>0.00</rpm>
</extensions>
</trkpt>
<trkpt lat="64.268432617" lon="-20.199102402">
<ele>127.982422</ele>
<time>2012-07-20T14:44:39Z</time>
<speed>3.390000</speed>
<extensions>
<speed>3.4</speed>
<temp>0.00</temp>
<bpm>0</bpm>
<rpm>0.00</rpm>
</extensions>
</trkpt>
<trkpt lat="64.268531799" lon="-20.198818207">
<ele>128.570313</ele>
<time>2012-07-20T14:44:44Z</time>
<speed>3.420000</speed>
<extensions>
<speed>3.4</speed>
<temp>0.00</temp>
<bpm>0</bpm>
<rpm>0.00</rpm>
</extensions>
</trkpt>
<trkpt lat="64.268623352" lon="-20.198513031">
<ele>128.062500</ele>
<time>2012-07-20T14:44:49Z</time>
<speed>3.560000</speed>
<extensions>
<speed>3.6</speed>
<temp>0.00</temp>
<bpm>0</bpm>
<rpm>0.00</rpm>
</extensions>
</trkpt>
<trkpt lat="64.268714905" lon="-20.198204041">
<ele>128.152344</ele>
<time>2012-07-20T14:44:54Z</time>
<speed>3.580000</speed>
<extensions>
<speed>3.6</speed>
<temp>0.00</temp>
<bpm>0</bpm>
<rpm>0.00</rpm>
</extensions>
</trkpt>
<trkpt lat="64.268791199" lon="-20.197893143">
<ele>126.732422</ele>
<time>2012-07-20T14:44:59Z</time>
<speed>3.620000</speed>
<extensions>
<speed>3.6</speed>
<temp>0.00</temp>
<bpm>0</bpm>
<rpm>0.00</rpm>
</extensions>
</trkpt>
<trkpt lat="64.268882751" lon="-20.197572708">
<ele>127.044922</ele>
<time>2012-07-20T14:45:04Z</time>
<speed>3.610000</speed>
<extensions>
<speed>3.6</speed>
<temp>0.00</temp>
<bpm>0</bpm>
<rpm>0.00</rpm>
</extensions>
</trkpt>
<trkpt lat="64.268959045" lon="-20.197250366">
<ele>126.781250</ele>
<time>2012-07-20T14:45:09Z</time>
<speed>3.670000</speed>
<extensions>
<speed>3.7</speed>
<temp>0.00</temp>
<bpm>0</bpm>
<rpm>0.00</rpm>
</extensions>
</trkpt>
<trkpt lat="64.269020081" lon="-20.196901321">
<ele>127.093750</ele>
<time>2012-07-20T14:45:14Z</time>
<speed>3.320000</speed>
<extensions>
<speed>3.3</speed>
<temp>0.00</temp>
<bpm>0</bpm>
<rpm>0.00</rpm>
</extensions>
</trkpt>
<trkpt lat="64.269050598" lon="-20.196577072">
<ele>126.886719</ele>
<time>2012-07-20T14:45:19Z</time>
<speed>3.010000</speed>
<extensions>
<speed>3.0</speed>
<temp>0.00</temp>
<bpm>0</bpm>
<rpm>0.00</rpm>
</extensions>
</trkpt>
<trkpt lat="64.269081116" lon="-20.196229935">
<ele>128.265625</ele>
<time>2012-07-20T14:45:24Z</time>
<speed>3.170000</speed>
<extensions>
<speed>3.2</speed>
<temp>0.00</temp>
<bpm>0</bpm>
<rpm>0.00</rpm>
</extensions>
</trkpt>
<trkpt lat="64.269088745" lon="-20.195896149">
<ele>129.199219</ele>
<time>2012-07-20T14:45:29Z</time>
<speed>2.760000</speed>
<extensions>
<speed>2.8</speed>
<temp>0.00</temp>
<bpm>0</bpm>
<rpm>0.00</rpm>
</extensions>
</trkpt>
<trkpt lat="64.269081116" lon="-20.195611954">
<ele>129.984375</ele>
<time>2012-07-20T14:45:34Z</time>
<speed>2.760000</speed>
<extensions>
<speed>2.8</speed>
<temp>0.00</temp>
<bpm>0</bpm>
<rpm>0.00</rpm>
</extensions>
</trkpt>
<trkpt lat="64.269073486" lon="-20.195318222">
<ele>130.453125</ele>
<time>2012-07-20T14:45:39Z</time>
<speed>2.630000</speed>
<extensions>
<speed>2.6</speed>
<temp>0.00</temp>
<bpm>0</bpm>
<rpm>0.00</rpm>
</extensions>
</trkpt>
<trkpt lat="64.269042969" lon="-20.195055008">
<ele>129.042969</ele>
<time>2012-07-20T14:45:44Z</time>
<speed>2.810000</speed>
<extensions>
<speed>2.8</speed>
<temp>0.00</temp>
<bpm>0</bpm>
<rpm>0.00</rpm>
</extensions>
</trkpt>
<trkpt lat="64.269012451" lon="-20.194782257">
<ele>129.410156</ele>
<time>2012-07-20T14:45:49Z</time>
<speed>2.600000</speed>
<extensions>
<speed>2.6</speed>
<temp>0.00</temp>
<bpm>0</bpm>
<rpm>0.00</rpm>
</extensions>
</trkpt>
<trkpt lat="64.268974304" lon="-20.194517136">
<ele>131.765625</ele>
<time>2012-07-20T14:45:54Z</time>
<speed>2.720000</speed>
<extensions>
<speed>2.7</speed>
<temp>0.00</temp>
<bpm>0</bpm>
<rpm>0.00</rpm>
</extensions>
</trkpt>
<trkpt lat="64.268905640" lon="-20.194263458">
<ele>130.808594</ele>
<time>2012-07-20T14:45:59Z</time>
<speed>2.790000</speed>
<extensions>
<speed>2.8</speed>
<temp>0.00</temp>
<bpm>0</bpm>
<rpm>0.00</rpm>
</extensions>
</trkpt>
<trkpt lat="64.268836975" lon="-20.194015503">
<ele>130.683594</ele>
<time>2012-07-20T14:46:04Z</time>
<speed>2.890000</speed>
<extensions>
<speed>2.9</speed>
<temp>0.00</temp>
<bpm>0</bpm>
<rpm>0.00</rpm>
</extensions>
</trkpt>
<trkpt lat="64.268753052" lon="-20.193771362">
<ele>130.101563</ele>
<time>2012-07-20T14:46:09Z</time>
<speed>2.950000</speed>
<extensions>
<speed>2.9</speed>
<temp>0.00</temp>
<bpm>0</bpm>
<rpm>0.00</rpm>
</extensions>
</trkpt>
<trkpt lat="64.268669128" lon="-20.193531036">
<ele>130.023438</ele>
<time>2012-07-20T14:46:14Z</time>
<speed>2.970000</speed>
<extensions>
<speed>3.0</speed>
<temp>0.00</temp>
<bpm>0</bpm>
<rpm>0.00</rpm>
</extensions>
</trkpt>
<trkpt lat="64.268577576" lon="-20.193330765">
<ele>130.359375</ele>
<time>2012-07-20T14:46:19Z</time>
<speed>2.790000</speed>
<extensions>
<speed>2.8</speed>
<temp>0.00</temp>
<bpm>0</bpm>
<rpm>0.00</rpm>
</extensions>
</trkpt>
<trkpt lat="64.268486023" lon="-20.193168640">
<ele>131.777344</ele>
<time>2012-07-20T14:46:24Z</time>
<speed>2.420000</speed>
<extensions>
<speed>2.4</speed>
<temp>0.00</temp>
<bpm>0</bpm>
<rpm>0.00</rpm>
</extensions>
</trkpt>
<trkpt lat="64.268379211" lon="-20.193029404">
<ele>131.460938</ele>
<time>2012-07-20T14:46:29Z</time>
<speed>2.830000</speed>
<extensions>
<speed>2.8</speed>
<temp>0.00</temp>
<bpm>0</bpm>
<rpm>0.00</rpm>
</extensions>
</trkpt>
<trkpt lat="64.268295288" lon="-20.192901611">
<ele>132.035156</ele>
<time>2012-07-20T14:46:34Z</time>
<speed>1.870000</speed>
<extensions>
<speed>1.9</speed>
<temp>0.00</temp>
<bpm>0</bpm>
<rpm>0.00</rpm>
</extensions>
</trkpt>
<trkpt lat="64.268211365" lon="-20.192790985">
<ele>132.382813</ele>
<time>2012-07-20T14:46:39Z</time>
<speed>2.580000</speed>
<extensions>
<speed>2.6</speed>
<temp>0.00</temp>
<bpm>0</bpm>
<rpm>0.00</rpm>
</extensions>
</trkpt>
<trkpt lat="64.268104553" lon="-20.192710876">
<ele>134.332031</ele>
<time>2012-07-20T14:46:44Z</time>
<speed>2.560000</speed>
<extensions>
<speed>2.6</speed>
<temp>0.00</temp>
<bpm>0</bpm>
<rpm>0.00</rpm>
</extensions>
</trkpt>
<trkpt lat="64.268020630" lon="-20.192661285">
<ele>137.394531</ele>
<time>2012-07-20T14:46:49Z</time>
<speed>1.960000</speed>
<extensions>
<speed>2.0</speed>
<temp>0.00</temp>
<bpm>0</bpm>
<rpm>0.00</rpm>
</extensions>
</trkpt>
<trkpt lat="64.267921448" lon="-20.192647934">
<ele>139.601563</ele>
<time>2012-07-20T14:46:54Z</time>
<speed>2.220000</speed>
<extensions>
<speed>2.2</speed>
<temp>0.00</temp>
<bpm>0</bpm>
<rpm>0.00</rpm>
</extensions>
</trkpt>
<trkpt lat="64.267814636" lon="-20.192613602">
<ele>140.429688</ele>
<time>2012-07-20T14:46:59Z</time>
<speed>2.450000</speed>
<extensions>
<speed>2.4</speed>
<temp>0.00</temp>
<bpm>0</bpm>
<rpm>0.00</rpm>
</extensions>
</trkpt>
<trkpt lat="64.267738342" lon="-20.192584991">
<ele>141.265625</ele>
<time>2012-07-20T14:47:04Z</time>
<speed>1.640000</speed>
<extensions>
<speed>1.6</speed>
<temp>0.00</temp>
<bpm>0</bpm>
<rpm>0.00</rpm>
</extensions>
</trkpt>
<trkpt lat="64.267662048" lon="-20.192577362">
<ele>141.011719</ele>
<time>2012-07-20T14:47:09Z</time>
<speed>1.680000</speed>
<extensions>
<speed>1.7</speed>
<temp>0.00</temp>
<bpm>0</bpm>
<rpm>0.00</rpm>
</extensions>
</trkpt>
<trkpt lat="64.267570496" lon="-20.192586899">
<ele>141.437500</ele>
<time>2012-07-20T14:47:14Z</time>
<speed>2.260000</speed>
<extensions>
<speed>2.3</speed>
<temp>0.00</temp>
<bpm>0</bpm>
<rpm>0.00</rpm>
</extensions>
</trkpt>
<trkpt lat="64.267471313" lon="-20.192613602">
<ele>142.285156</ele>
<time>2012-07-20T14:47:19Z</time>
<speed>2.310000</speed>
<extensions>
<speed>2.3</speed>
<temp>0.00</temp>
<bpm>0</bpm>
<rpm>0.00</rpm>
</extensions>
</trkpt>
<trkpt lat="64.267364502" lon="-20.192646027">
<ele>141.601563</ele>
<time>2012-07-20T14:47:24Z</time>
<speed>2.560000</speed>
<extensions>
<speed>2.6</speed>
<temp>0.00</temp>
<bpm>0</bpm>
<rpm>0.00</rpm>
</extensions>
</trkpt>
<trkpt lat="64.267257690" lon="-20.192689896">
<ele>141.335938</ele>
<time>2012-07-20T14:47:29Z</time>
<speed>2.570000</speed>
<extensions>
<speed>2.6</speed>
<temp>0.00</temp>
<bpm>0</bpm>
<rpm>0.00</rpm>
</extensions>
</trkpt>
<trkpt lat="64.267166138" lon="-20.192775726">
<ele>143.097656</ele>
<time>2012-07-20T14:47:34Z</time>
<speed>2.500000</speed>
<extensions>
<speed>2.5</speed>
<temp>0.00</temp>
<bpm>0</bpm>
<rpm>0.00</rpm>
</extensions>
</trkpt>
<trkpt lat="64.267059326" lon="-20.192863464">
<ele>142.917969</ele>
<time>2012-07-20T14:47:39Z</time>
<speed>2.000000</speed>
<extensions>
<speed>2.0</speed>
<temp>0.00</temp>
<bpm>0</bpm>
<rpm>0.00</rpm>
</extensions>
</trkpt>
<trkpt lat="64.266960144" lon="-20.192964554">
<ele>142.605469</ele>
<time>2012-07-20T14:47:44Z</time>
<speed>2.480000</speed>
<extensions>
<speed>2.5</speed>
<temp>0.00</temp>
<bpm>0</bpm>
<rpm>0.00</rpm>
</extensions>
</trkpt>
<trkpt lat="64.266853333" lon="-20.193037033">
<ele>142.675781</ele>
<time>2012-07-20T14:47:49Z</time>
<speed>2.310000</speed>
<extensions>
<speed>2.3</speed>
<temp>0.00</temp>
<bpm>0</bpm>
<rpm>0.00</rpm>
</extensions>
</trkpt>
<trkpt lat="64.266769409" lon="-20.193122864">
<ele>143.609375</ele>
<time>2012-07-20T14:47:54Z</time>
<speed>2.180000</speed>
<extensions>
<speed>2.2</speed>
<temp>0.00</temp>
<bpm>0</bpm>
<rpm>0.00</rpm>
</extensions>
</trkpt>
<trkpt lat="64.266677856" lon="-20.193195343">
<ele>144.632813</ele>
<time>2012-07-20T14:47:59Z</time>
<speed>2.160000</speed>
<extensions>
<speed>2.2</speed>
<temp>0.00</temp>
<bpm>0</bpm>
<rpm>0.00</rpm>
</extensions>
</trkpt>
<trkpt lat="64.266586304" lon="-20.193286896">
<ele>143.750000</ele>
<time>2012-07-20T14:48:04Z</time>
<speed>2.240000</speed>
<extensions>
<speed>2.2</speed>
<temp>0.00</temp>
<bpm>0</bpm>
<rpm>0.00</rpm>
</extensions>
</trkpt>
<trkpt lat="64.266494751" lon="-20.193353653">
<ele>144.351563</ele>
<time>2012-07-20T14:48:09Z</time>
<speed>2.150000</speed>
<extensions>
<speed>2.1</speed>
<temp>0.00</temp>
<bpm>0</bpm>
<rpm>0.00</rpm>
</extensions>
</trkpt>
<trkpt lat="64.266403198" lon="-20.193443298">
<ele>143.304688</ele>
<time>2012-07-20T14:48:14Z</time>
<speed>2.160000</speed>
<extensions>
<speed>2.2</speed>
<temp>0.00</temp>
<bpm>0</bpm>
<rpm>0.00</rpm>
</extensions>
</trkpt>
<trkpt lat="64.266319275" lon="-20.193534851">
<ele>143.738281</ele>
<time>2012-07-20T14:48:19Z</time>
<speed>2.220000</speed>
<extensions>
<speed>2.2</speed>
<temp>0.00</temp>
<bpm>0</bpm>
<rpm>0.00</rpm>
</extensions>
</trkpt>
<trkpt lat="64.266227722" lon="-20.193609238">
<ele>144.101563</ele>
<time>2012-07-20T14:48:24Z</time>
<speed>2.100000</speed>
<extensions>
<speed>2.1</speed>
<temp>0.00</temp>
<bpm>0</bpm>
<rpm>0.00</rpm>
</extensions>
</trkpt>
<trkpt lat="64.266151428" lon="-20.193675995">
<ele>144.539063</ele>
<time>2012-07-20T14:48:29Z</time>
<speed>1.870000</speed>
<extensions>
<speed>1.9</speed>
<temp>0.00</temp>
<bpm>0</bpm>
<rpm>0.00</rpm>
</extensions>
</trkpt>
<trkpt lat="64.266075134" lon="-20.193759918">
<ele>145.265625</ele>
<time>2012-07-20T14:48:34Z</time>
<speed>2.110000</speed>
<extensions>
<speed>2.1</speed>
<temp>0.00</temp>
<bpm>0</bpm>
<rpm>0.00</rpm>
</extensions>
</trkpt>
<trkpt lat="64.265983582" lon="-20.193838120">
<ele>145.355469</ele>
<time>2012-07-20T14:48:39Z</time>
<speed>2.200000</speed>
<extensions>
<speed>2.2</speed>
<temp>0.00</temp>
<bpm>0</bpm>
<rpm>0.00</rpm>
</extensions>
</trkpt>
<trkpt lat="64.265892029" lon="-20.193899155">
<ele>146.781250</ele>
<time>2012-07-20T14:48:44Z</time>
<speed>2.140000</speed>
<extensions>
<speed>2.1</speed>
<temp>0.00</temp>
<bpm>0</bpm>
<rpm>0.00</rpm>
</extensions>
</trkpt>
<trkpt lat="64.265808105" lon="-20.193990707">
<ele>148.335938</ele>
<time>2012-07-20T14:48:49Z</time>
<speed>2.100000</speed>
<extensions>
<speed>2.1</speed>
<temp>0.00</temp>
<bpm>0</bpm>
<rpm>0.00</rpm>
</extensions>
</trkpt>
<trkpt lat="64.265716553" lon="-20.194084167">
<ele>148.644531</ele>
<time>2012-07-20T14:48:54Z</time>
<speed>2.210000</speed>
<extensions>
<speed>2.2</speed>
<temp>0.00</temp>
<bpm>0</bpm>
<rpm>0.00</rpm>
</extensions>
</trkpt>
<trkpt lat="64.265617371" lon="-20.194158554">
<ele>148.820313</ele>
<time>2012-07-20T14:48:59Z</time>
<speed>2.260000</speed>
<extensions>
<speed>2.3</speed>
<temp>0.00</temp>
<bpm>0</bpm>
<rpm>0.00</rpm>
</extensions>
</trkpt>
<trkpt lat="64.265518188" lon="-20.194244385">
<ele>149.878906</ele>
<time>2012-07-20T14:49:04Z</time>
<speed>2.320000</speed>
<extensions>
<speed>2.3</speed>
<temp>0.00</temp>
<bpm>0</bpm>
<rpm>0.00</rpm>
</extensions>
</trkpt>
<trkpt lat="64.265426636" lon="-20.194334030">
<ele>149.445313</ele>
<time>2012-07-20T14:49:09Z</time>
<speed>2.370000</speed>
<extensions>
<speed>2.4</speed>
<temp>0.00</temp>
<bpm>0</bpm>
<rpm>0.00</rpm>
</extensions>
</trkpt>
<trkpt lat="64.265319824" lon="-20.194412231">
<ele>149.492188</ele>
<time>2012-07-20T14:49:14Z</time>
<speed>2.520000</speed>
<extensions>
<speed>2.5</speed>
<temp>0.00</temp>
<bpm>0</bpm>
<rpm>0.00</rpm>
</extensions>
</trkpt>
<trkpt lat="64.265220642" lon="-20.194499969">
<ele>151.359375</ele>
<time>2012-07-20T14:49:19Z</time>
<speed>2.470000</speed>
<extensions>
<speed>2.5</speed>
<temp>0.00</temp>
<bpm>0</bpm>
<rpm>0.00</rpm>
</extensions>
</trkpt>
<trkpt lat="64.265121460" lon="-20.194580078">
<ele>152.121094</ele>
<time>2012-07-20T14:49:24Z</time>
<speed>2.380000</speed>
<extensions>
<speed>2.4</speed>
<temp>0.00</temp>
<bpm>0</bpm>
<rpm>0.00</rpm>
</extensions>
</trkpt>
<trkpt lat="64.265037537" lon="-20.194658279">
<ele>154.042969</ele>
<time>2012-07-20T14:49:29Z</time>
<speed>2.270000</speed>
<extensions>
<speed>2.3</speed>
<temp>0.00</temp>
<bpm>0</bpm>
<rpm>0.00</rpm>
</extensions>
</trkpt>
<trkpt lat="64.264930725" lon="-20.194725037">
<ele>153.898438</ele>
<time>2012-07-20T14:49:34Z</time>
<speed>2.450000</speed>
<extensions>
<speed>2.4</speed>
<temp>0.00</temp>
<bpm>0</bpm>
<rpm>0.00</rpm>
</extensions>
</trkpt>
<trkpt lat="64.264816284" lon="-20.194784164">
<ele>153.453125</ele>
<time>2012-07-20T14:49:39Z</time>
<speed>2.350000</speed>
<extensions>
<speed>2.4</speed>
<temp>0.00</temp>
<bpm>0</bpm>
<rpm>0.00</rpm>
</extensions>
</trkpt>
<trkpt lat="64.264709473" lon="-20.194847107">
<ele>152.406250</ele>
<time>2012-07-20T14:49:44Z</time>
<speed>2.090000</speed>
<extensions>
<speed>2.1</speed>
<temp>0.00</temp>
<bpm>0</bpm>
<rpm>0.00</rpm>
</extensions>
</trkpt>
<trkpt lat="64.264617920" lon="-20.194898605">
<ele>152.285156</ele>
<time>2012-07-20T14:49:49Z</time>
<speed>1.850000</speed>
<extensions>
<speed>1.8</speed>
<temp>0.00</temp>
<bpm>0</bpm>
<rpm>0.00</rpm>
</extensions>
</trkpt>
<trkpt lat="64.264533997" lon="-20.194959641">
<ele>153.695313</ele>
<time>2012-07-20T14:49:54Z</time>
<speed>2.040000</speed>
<extensions>
<speed>2.0</speed>
<temp>0.00</temp>
<bpm>0</bpm>
<rpm>0.00</rpm>
</extensions>
</trkpt>
<trkpt lat="64.264434814" lon="-20.195007324">
<ele>154.507813</ele>
<time>2012-07-20T14:49:59Z</time>
<speed>2.360000</speed>
<extensions>
<speed>2.4</speed>
<temp>0.00</temp>
<bpm>0</bpm>
<rpm>0.00</rpm>
</extensions>
</trkpt>
<trkpt lat="64.264335632" lon="-20.195039749">
<ele>154.695313</ele>
<time>2012-07-20T14:50:04Z</time>
<speed>2.330000</speed>
<extensions>
<speed>2.3</speed>
<temp>0.00</temp>
<bpm>0</bpm>
<rpm>0.00</rpm>
</extensions>
</trkpt>
<trkpt lat="64.264236450" lon="-20.195096970">
<ele>155.753906</ele>
<time>2012-07-20T14:50:09Z</time>
<speed>2.420000</speed>
<extensions>
<speed>2.4</speed>
<temp>0.00</temp>
<bpm>0</bpm>
<rpm>0.00</rpm>
</extensions>
</trkpt>
<trkpt lat="64.264129639" lon="-20.195171356">
<ele>155.781250</ele>
<time>2012-07-20T14:50:14Z</time>
<speed>2.570000</speed>
<extensions>
<speed>2.6</speed>
<temp>0.00</temp>
<bpm>0</bpm>
<rpm>0.00</rpm>
</extensions>
</trkpt>
<trkpt lat="64.264015198" lon="-20.195224762">
<ele>156.589844</ele>
<time>2012-07-20T14:50:19Z</time>
<speed>2.600000</speed>
<extensions>
<speed>2.6</speed>
<temp>0.00</temp>
<bpm>0</bpm>
<rpm>0.00</rpm>
</extensions>
</trkpt>
<trkpt lat="64.263916016" lon="-20.195308685">
<ele>159.210938</ele>
<time>2012-07-20T14:50:24Z</time>
<speed>1.780000</speed>
<extensions>
<speed>1.8</speed>
<temp>0.00</temp>
<bpm>0</bpm>
<rpm>0.00</rpm>
</extensions>
</trkpt>
<trkpt lat="64.263839722" lon="-20.195346832">
<ele>159.121094</ele>
<time>2012-07-20T14:50:29Z</time>
<speed>2.000000</speed>
<extensions>
<speed>2.0</speed>
<temp>0.00</temp>
<bpm>0</bpm>
<rpm>0.00</rpm>
</extensions>
</trkpt>
<trkpt lat="64.263740540" lon="-20.195390701">
<ele>158.964844</ele>
<time>2012-07-20T14:50:34Z</time>
<speed>1.930000</speed>
<extensions>
<speed>1.9</speed>
<temp>0.00</temp>
<bpm>0</bpm>
<rpm>0.00</rpm>
</extensions>
</trkpt>
<trkpt lat="64.263656616" lon="-20.195419312">
<ele>157.398438</ele>
<time>2012-07-20T14:50:39Z</time>
<speed>1.350000</speed>
<extensions>
<speed>1.4</speed>
<temp>0.00</temp>
<bpm>0</bpm>
<rpm>0.00</rpm>
</extensions>
</trkpt>
<trkpt lat="64.263572693" lon="-20.195461273">
<ele>156.128906</ele>
<time>2012-07-20T14:50:44Z</time>
<speed>1.990000</speed>
<extensions>
<speed>2.0</speed>
<temp>0.00</temp>
<bpm>0</bpm>
<rpm>0.00</rpm>
</extensions>
</trkpt>
<trkpt lat="64.263488770" lon="-20.195507050">
<ele>156.449219</ele>
<time>2012-07-20T14:50:49Z</time>
<speed>1.410000</speed>
<extensions>
<speed>1.4</speed>
<temp>0.00</temp>
<bpm>0</bpm>
<rpm>0.00</rpm>
</extensions>
</trkpt>
<trkpt lat="64.263420105" lon="-20.195529938">
<ele>156.453125</ele>
<time>2012-07-20T14:50:54Z</time>
<speed>1.930000</speed>
<extensions>
<speed>1.9</speed>
<temp>0.00</temp>
<bpm>0</bpm>
<rpm>0.00</rpm>
</extensions>
</trkpt>
<trkpt lat="64.263336182" lon="-20.195569992">
<ele>156.781250</ele>
<time>2012-07-20T14:50:59Z</time>
<speed>1.870000</speed>
<extensions>
<speed>1.9</speed>
<temp>0.00</temp>
<bpm>0</bpm>
<rpm>0.00</rpm>
</extensions>
</trkpt>
<trkpt lat="64.263252258" lon="-20.195631027">
<ele>158.078125</ele>
<time>2012-07-20T14:51:04Z</time>
<speed>2.080000</speed>
<extensions>
<speed>2.1</speed>
<temp>0.00</temp>
<bpm>0</bpm>
<rpm>0.00</rpm>
</extensions>
</trkpt>
<trkpt lat="64.263160706" lon="-20.195682526">
<ele>158.953125</ele>
<time>2012-07-20T14:51:09Z</time>
<speed>2.100000</speed>
<extensions>
<speed>2.1</speed>
<temp>0.00</temp>
<bpm>0</bpm>
<rpm>0.00</rpm>
</extensions>
</trkpt>
<trkpt lat="64.263076782" lon="-20.195726395">
<ele>158.175781</ele>
<time>2012-07-20T14:51:14Z</time>
<speed>1.960000</speed>
<extensions>
<speed>2.0</speed>
<temp>0.00</temp>
<bpm>0</bpm>
<rpm>0.00</rpm>
</extensions>
</trkpt>
<trkpt lat="64.262977600" lon="-20.195770264">
<ele>157.621094</ele>
<time>2012-07-20T14:51:19Z</time>
<speed>2.240000</speed>
<extensions>
<speed>2.2</speed>
<temp>0.00</temp>
<bpm>0</bpm>
<rpm>0.00</rpm>
</extensions>
</trkpt>
<trkpt lat="64.262886047" lon="-20.195798874">
<ele>158.152344</ele>
<time>2012-07-20T14:51:24Z</time>
<speed>1.880000</speed>
<extensions>
<speed>1.9</speed>
<temp>0.00</temp>
<bpm>0</bpm>
<rpm>0.00</rpm>
</extensions>
</trkpt>
<trkpt lat="64.262802124" lon="-20.195846558">
<ele>158.441406</ele>
<time>2012-07-20T14:51:29Z</time>
<speed>2.020000</speed>
<extensions>
<speed>2.0</speed>
<temp>0.00</temp>
<bpm>0</bpm>
<rpm>0.00</rpm>
</extensions>
</trkpt>
<trkpt lat="64.262710571" lon="-20.195882797">
<ele>158.277344</ele>
<time>2012-07-20T14:51:34Z</time>
<speed>2.050000</speed>
<extensions>
<speed>2.1</speed>
<temp>0.00</temp>
<bpm>0</bpm>
<rpm>0.00</rpm>
</extensions>
</trkpt>
<trkpt lat="64.262611389" lon="-20.195932388">
<ele>157.757813</ele>
<time>2012-07-20T14:51:39Z</time>
<speed>1.720000</speed>
<extensions>
<speed>1.7</speed>
<temp>0.00</temp>
<bpm>0</bpm>
<rpm>0.00</rpm>
</extensions>
</trkpt>
<trkpt lat="64.262527466" lon="-20.195987701">
<ele>157.570313</ele>
<time>2012-07-20T14:51:44Z</time>
<speed>1.940000</speed>
<extensions>
<speed>1.9</speed>
<temp>0.00</temp>
<bpm>0</bpm>
<rpm>0.00</rpm>
</extensions>
</trkpt>
<trkpt lat="64.262435913" lon="-20.196027756">
<ele>158.265625</ele>
<time>2012-07-20T14:51:49Z</time>
<speed>2.190000</speed>
<extensions>
<speed>2.2</speed>
<temp>0.00</temp>
<bpm>0</bpm>
<rpm>0.00</rpm>
</extensions>
</trkpt>
<trkpt lat="64.262336731" lon="-20.196058273">
<ele>159.050781</ele>
<time>2012-07-20T14:51:54Z</time>
<speed>1.690000</speed>
<extensions>
<speed>1.7</speed>
<temp>0.00</temp>
<bpm>0</bpm>
<rpm>0.00</rpm>
</extensions>
</trkpt>
<trkpt lat="64.262252808" lon="-20.196090698">
<ele>160.003906</ele>
<time>2012-07-20T14:51:59Z</time>
<speed>2.030000</speed>
<extensions>
<speed>2.0</speed>
<temp>0.00</temp>
<bpm>0</bpm>
<rpm>0.00</rpm>
</extensions>
</trkpt>
<trkpt lat="64.262138367" lon="-20.196130753">
<ele>157.988281</ele>
<time>2012-07-20T14:52:04Z</time>
<speed>2.130000</speed>
<extensions>
<speed>2.1</speed>
<temp>0.00</temp>
<bpm>0</bpm>
<rpm>0.00</rpm>
</extensions>
</trkpt>
<trkpt lat="64.262062073" lon="-20.196197510">
<ele>159.261719</ele>
<time>2012-07-20T14:52:09Z</time>
<speed>1.920000</speed>
<extensions>
<speed>1.9</speed>
<temp>0.00</temp>
<bpm>0</bpm>
<rpm>0.00</rpm>
</extensions>
</trkpt>
<trkpt lat="64.261962891" lon="-20.196247101">
<ele>160.656250</ele>
<time>2012-07-20T14:52:14Z</time>
<speed>2.110000</speed>
<extensions>
<speed>2.1</speed>
<temp>0.00</temp>
<bpm>0</bpm>
<rpm>0.00</rpm>
</extensions>
</trkpt>
<trkpt lat="64.261886597" lon="-20.196287155">
<ele>160.710938</ele>
<time>2012-07-20T14:52:19Z</time>
<speed>1.840000</speed>
<extensions>
<speed>1.8</speed>
<temp>0.00</temp>
<bpm>0</bpm>
<rpm>0.00</rpm>
</extensions>
</trkpt>
<trkpt lat="64.261795044" lon="-20.196334839">
<ele>160.039063</ele>
<time>2012-07-20T14:52:24Z</time>
<speed>2.010000</speed>
<extensions>
<speed>2.0</speed>
<temp>0.00</temp>
<bpm>0</bpm>
<rpm>0.00</rpm>
</extensions>
</trkpt>
<trkpt lat="64.261703491" lon="-20.196372986">
<ele>160.472656</ele>
<time>2012-07-20T14:52:29Z</time>
<speed>2.130000</speed>
<extensions>
<speed>2.1</speed>
<temp>0.00</temp>
<bpm>0</bpm>
<rpm>0.00</rpm>
</extensions>
</trkpt>
<trkpt lat="64.261596680" lon="-20.196407318">
<ele>158.390625</ele>
<time>2012-07-20T14:52:34Z</time>
<speed>1.950000</speed>
<extensions>
<speed>1.9</speed>
<temp>0.00</temp>
<bpm>0</bpm>
<rpm>0.00</rpm>
</extensions>
</trkpt>
<trkpt lat="64.261512756" lon="-20.196458817">
<ele>159.207031</ele>
<time>2012-07-20T14:52:39Z</time>
<speed>2.220000</speed>
<extensions>
<speed>2.2</speed>
<temp>0.00</temp>
<bpm>0</bpm>
<rpm>0.00</rpm>
</extensions>
</trkpt>
<trkpt lat="64.261421204" lon="-20.196506500">
<ele>159.453125</ele>
<time>2012-07-20T14:52:44Z</time>
<speed>2.370000</speed>
<extensions>
<speed>2.4</speed>
<temp>0.00</temp>
<bpm>0</bpm>
<rpm>0.00</rpm>
</extensions>
</trkpt>
<trkpt lat="64.261306763" lon="-20.196546555">
<ele>159.113281</ele>
<time>2012-07-20T14:52:49Z</time>
<speed>2.390000</speed>
<extensions>
<speed>2.4</speed>
<temp>0.00</temp>
<bpm>0</bpm>
<rpm>0.00</rpm>
</extensions>
</trkpt>
<trkpt lat="64.261207581" lon="-20.196601868">
<ele>159.242188</ele>
<time>2012-07-20T14:52:54Z</time>
<speed>2.320000</speed>
<extensions>
<speed>2.3</speed>
<temp>0.00</temp>
<bpm>0</bpm>
<rpm>0.00</rpm>
</extensions>
</trkpt>
<trkpt lat="64.261116028" lon="-20.196655273">
<ele>159.777344</ele>
<time>2012-07-20T14:52:59Z</time>
<speed>2.360000</speed>
<extensions>
<speed>2.4</speed>
<temp>0.00</temp>
<bpm>0</bpm>
<rpm>0.00</rpm>
</extensions>
</trkpt>
<trkpt lat="64.261001587" lon="-20.196704865">
<ele>160.167969</ele>
<time>2012-07-20T14:53:04Z</time>
<speed>2.340000</speed>
<extensions>
<speed>2.3</speed>
<temp>0.00</temp>
<bpm>0</bpm>
<rpm>0.00</rpm>
</extensions>
</trkpt>
<trkpt lat="64.260902405" lon="-20.196758270">
<ele>160.890625</ele>
<time>2012-07-20T14:53:09Z</time>
<speed>2.070000</speed>
<extensions>
<speed>2.1</speed>
<temp>0.00</temp>
<bpm>0</bpm>
<rpm>0.00</rpm>
</extensions>
</trkpt>
<trkpt lat="64.260818481" lon="-20.196804047">
<ele>162.750000</ele>
<time>2012-07-20T14:53:14Z</time>
<speed>2.230000</speed>
<extensions>
<speed>2.2</speed>
<temp>0.00</temp>
<bpm>0</bpm>
<rpm>0.00</rpm>
</extensions>
</trkpt>
<trkpt lat="64.260711670" lon="-20.196865082">
<ele>164.281250</ele>
<time>2012-07-20T14:53:19Z</time>
<speed>2.170000</speed>
<extensions>
<speed>2.2</speed>
<temp>0.00</temp>
<bpm>0</bpm>
<rpm>0.00</rpm>
</extensions>
</trkpt>
<trkpt lat="64.260612488" lon="-20.196912766">
<ele>164.195313</ele>
<time>2012-07-20T14:53:24Z</time>
<speed>2.290000</speed>
<extensions>
<speed>2.3</speed>
<temp>0.00</temp>
<bpm>0</bpm>
<rpm>0.00</rpm>
</extensions>
</trkpt>
<trkpt lat="64.260513306" lon="-20.196969986">
<ele>164.503906</ele>
<time>2012-07-20T14:53:29Z</time>
<speed>2.430000</speed>
<extensions>
<speed>2.4</speed>
<temp>0.00</temp>
<bpm>0</bpm>
<rpm>0.00</rpm>
</extensions>
</trkpt>
<trkpt lat="64.260406494" lon="-20.197017670">
<ele>164.207031</ele>
<time>2012-07-20T14:53:34Z</time>
<speed>2.280000</speed>
<extensions>
<speed>2.3</speed>
<temp>0.00</temp>
<bpm>0</bpm>
<rpm>0.00</rpm>
</extensions>
</trkpt>
<trkpt lat="64.260307312" lon="-20.197128296">
<ele>164.441406</ele>
<time>2012-07-20T14:53:39Z</time>
<speed>2.630000</speed>
<extensions>
<speed>2.6</speed>
<temp>0.00</temp>
<bpm>0</bpm>
<rpm>0.00</rpm>
</extensions>
</trkpt>
<trkpt lat="64.260200500" lon="-20.197185516">
<ele>165.578125</ele>
<time>2012-07-20T14:53:44Z</time>
<speed>2.650000</speed>
<extensions>
<speed>2.6</speed>
<temp>0.00</temp>
<bpm>0</bpm>
<rpm>0.00</rpm>
</extensions>
</trkpt>
<trkpt lat="64.260078430" lon="-20.197252274">
<ele>164.683594</ele>
<time>2012-07-20T14:53:49Z</time>
<speed>2.830000</speed>
<extensions>
<speed>2.8</speed>
<temp>0.00</temp>
<bpm>0</bpm>
<rpm>0.00</rpm>
</extensions>
</trkpt>
<trkpt lat="64.259956360" lon="-20.197284698">
<ele>164.410156</ele>
<time>2012-07-20T14:53:54Z</time>
<speed>2.350000</speed>
<extensions>
<speed>2.4</speed>
<temp>0.00</temp>
<bpm>0</bpm>
<rpm>0.00</rpm>
</extensions>
</trkpt>
<trkpt lat="64.259857178" lon="-20.197351456">
<ele>164.847656</ele>
<time>2012-07-20T14:53:59Z</time>
<speed>2.220000</speed>
<extensions>
<speed>2.2</speed>
<temp>0.00</temp>
<bpm>0</bpm>
<rpm>0.00</rpm>
</extensions>
</trkpt>
<trkpt lat="64.259773254" lon="-20.197425842">
<ele>165.339844</ele>
<time>2012-07-20T14:54:04Z</time>
<speed>2.250000</speed>
<extensions>
<speed>2.3</speed>
<temp>0.00</temp>
<bpm>0</bpm>
<rpm>0.00</rpm>
</extensions>
</trkpt>
<trkpt lat="64.259681702" lon="-20.197488785">
<ele>166.542969</ele>
<time>2012-07-20T14:54:09Z</time>
<speed>2.260000</speed>
<extensions>
<speed>2.3</speed>
<temp>0.00</temp>
<bpm>0</bpm>
<rpm>0.00</rpm>
</extensions>
</trkpt>
<trkpt lat="64.259567261" lon="-20.197557449">
<ele>166.441406</ele>
<time>2012-07-20T14:54:14Z</time>
<speed>2.770000</speed>
<extensions>
<speed>2.8</speed>
<temp>0.00</temp>
<bpm>0</bpm>
<rpm>0.00</rpm>
</extensions>
</trkpt>
<trkpt lat="64.259437561" lon="-20.197635651">
<ele>166.457031</ele>
<time>2012-07-20T14:54:19Z</time>
<speed>3.240000</speed>
<extensions>
<speed>3.2</speed>
<temp>0.00</temp>
<bpm>0</bpm>
<rpm>0.00</rpm>
</extensions>
</trkpt>
<trkpt lat="64.259307861" lon="-20.197715759">
<ele>168.164063</ele>
<time>2012-07-20T14:54:24Z</time>
<speed>3.180000</speed>
<extensions>
<speed>3.2</speed>
<temp>0.00</temp>
<bpm>0</bpm>
<rpm>0.00</rpm>
</extensions>
</trkpt>
<trkpt lat="64.259170532" lon="-20.197799683">
<ele>168.164063</ele>
<time>2012-07-20T14:54:29Z</time>
<speed>3.190000</speed>
<extensions>
<speed>3.2</speed>
<temp>0.00</temp>
<bpm>0</bpm>
<rpm>0.00</rpm>
</extensions>
</trkpt>
<trkpt lat="64.259017944" lon="-20.197902679">
<ele>167.992188</ele>
<time>2012-07-20T14:54:34Z</time>
<speed>3.430000</speed>
<extensions>
<speed>3.4</speed>
<temp>0.00</temp>
<bpm>0</bpm>
<rpm>0.00</rpm>
</extensions>
</trkpt>
<trkpt lat="64.258857727" lon="-20.198005676">
<ele>168.929688</ele>
<time>2012-07-20T14:54:39Z</time>
<speed>3.590000</speed>
<extensions>
<speed>3.6</speed>
<temp>0.00</temp>
<bpm>0</bpm>
<rpm>0.00</rpm>
</extensions>
</trkpt>
<trkpt lat="64.258705139" lon="-20.198099136">
<ele>168.234375</ele>
<time>2012-07-20T14:54:44Z</time>
<speed>3.450000</speed>
<extensions>
<speed>3.5</speed>
<temp>0.00</temp>
<bpm>0</bpm>
<rpm>0.00</rpm>
</extensions>
</trkpt>
<trkpt lat="64.258552551" lon="-20.198186874">
<ele>168.375000</ele>
<time>2012-07-20T14:54:49Z</time>
<speed>3.650000</speed>
<extensions>
<speed>3.7</speed>
<temp>0.00</temp>
<bpm>0</bpm>
<rpm>0.00</rpm>
</extensions>
</trkpt>
<trkpt lat="64.258392334" lon="-20.198293686">
<ele>168.187500</ele>
<time>2012-07-20T14:54:54Z</time>
<speed>3.640000</speed>
<extensions>
<speed>3.6</speed>
<temp>0.00</temp>
<bpm>0</bpm>
<rpm>0.00</rpm>
</extensions>
</trkpt>
<trkpt lat="64.258232117" lon="-20.198413849">
<ele>168.585938</ele>
<time>2012-07-20T14:54:59Z</time>
<speed>3.680000</speed>
<extensions>
<speed>3.7</speed>
<temp>0.00</temp>
<bpm>0</bpm>
<rpm>0.00</rpm>
</extensions>
</trkpt>
<trkpt lat="64.258056641" lon="-20.198522568">
<ele>165.992188</ele>
<time>2012-07-20T14:55:04Z</time>
<speed>3.860000</speed>
<extensions>
<speed>3.9</speed>
<temp>0.00</temp>
<bpm>0</bpm>
<rpm>0.00</rpm>
</extensions>
</trkpt>
<trkpt lat="64.257911682" lon="-20.198617935">
<ele>165.339844</ele>
<time>2012-07-20T14:55:09Z</time>
<speed>3.080000</speed>
<extensions>
<speed>3.1</speed>
<temp>0.00</temp>
<bpm>0</bpm>
<rpm>0.00</rpm>
</extensions>
</trkpt>
<trkpt lat="64.257774353" lon="-20.198711395">
<ele>167.203125</ele>
<time>2012-07-20T14:55:14Z</time>
<speed>3.200000</speed>
<extensions>
<speed>3.2</speed>
<temp>0.00</temp>
<bpm>0</bpm>
<rpm>0.00</rpm>
</extensions>
</trkpt>
<trkpt lat="64.257644653" lon="-20.198808670">
<ele>168.097656</ele>
<time>2012-07-20T14:55:19Z</time>
<speed>2.950000</speed>
<extensions>
<speed>2.9</speed>
<temp>0.00</temp>
<bpm>0</bpm>
<rpm>0.00</rpm>
</extensions>
</trkpt>
<trkpt lat="64.257522583" lon="-20.198888779">
<ele>167.773438</ele>
<time>2012-07-20T14:55:24Z</time>
<speed>2.510000</speed>
<extensions>
<speed>2.5</speed>
<temp>0.00</temp>
<bpm>0</bpm>
<rpm>0.00</rpm>
</extensions>
</trkpt>
<trkpt lat="64.257431030" lon="-20.198961258">
<ele>169.011719</ele>
<time>2012-07-20T14:55:29Z</time>
<speed>2.040000</speed>
<extensions>
<speed>2.0</speed>
<temp>0.00</temp>
<bpm>0</bpm>
<rpm>0.00</rpm>
</extensions>
</trkpt>
<trkpt lat="64.257347107" lon="-20.199008942">
<ele>169.210938</ele>
<time>2012-07-20T14:55:34Z</time>
<speed>2.100000</speed>
<extensions>
<speed>2.1</speed>
<temp>0.00</temp>
<bpm>0</bpm>
<rpm>0.00</rpm>
</extensions>
</trkpt>
<trkpt lat="64.257263184" lon="-20.199058533">
<ele>170.054688</ele>
<time>2012-07-20T14:55:39Z</time>
<speed>1.820000</speed>
<extensions>
<speed>1.8</speed>
<temp>0.00</temp>
<bpm>0</bpm>
<rpm>0.00</rpm>
</extensions>
</trkpt>
<trkpt lat="64.257186890" lon="-20.199119568">
<ele>172.039063</ele>
<time>2012-07-20T14:55:44Z</time>
<speed>2.170000</speed>
<extensions>
<speed>2.2</speed>
<temp>0.00</temp>
<bpm>0</bpm>
<rpm>0.00</rpm>
</extensions>
</trkpt>
<trkpt lat="64.257110596" lon="-20.199165344">
<ele>171.929688</ele>
<time>2012-07-20T14:55:49Z</time>
<speed>1.670000</speed>
<extensions>
<speed>1.7</speed>
<temp>0.00</temp>
<bpm>0</bpm>
<rpm>0.00</rpm>
</extensions>
</trkpt>
<trkpt lat="64.257034302" lon="-20.199211121">
<ele>171.554688</ele>
<time>2012-07-20T14:55:54Z</time>
<speed>1.570000</speed>
<extensions>
<speed>1.6</speed>
<temp>0.00</temp>
<bpm>0</bpm>
<rpm>0.00</rpm>
</extensions>
</trkpt>
<trkpt lat="64.256973267" lon="-20.199251175">
<ele>171.519531</ele>
<time>2012-07-20T14:55:59Z</time>
<speed>1.610000</speed>
<extensions>
<speed>1.6</speed>
<temp>0.00</temp>
<bpm>0</bpm>
<rpm>0.00</rpm>
</extensions>
</trkpt>
<trkpt lat="64.256896973" lon="-20.199291229">
<ele>172.218750</ele>
<time>2012-07-20T14:56:04Z</time>
<speed>1.600000</speed>
<extensions>
<speed>1.6</speed>
<temp>0.00</temp>
<bpm>0</bpm>
<rpm>0.00</rpm>
</extensions>
</trkpt>
<trkpt lat="64.256805420" lon="-20.199340820">
<ele>170.378906</ele>
<time>2012-07-20T14:56:09Z</time>
<speed>2.220000</speed>
<extensions>
<speed>2.2</speed>
<temp>0.00</temp>
<bpm>0</bpm>
<rpm>0.00</rpm>
</extensions>
</trkpt>
<trkpt lat="64.256729126" lon="-20.199403763">
<ele>170.082031</ele>
<time>2012-07-20T14:56:14Z</time>
<speed>1.920000</speed>
<extensions>
<speed>1.9</speed>
<temp>0.00</temp>
<bpm>0</bpm>
<rpm>0.00</rpm>
</extensions>
</trkpt>
<trkpt lat="64.256645203" lon="-20.199451447">
<ele>170.835938</ele>
<time>2012-07-20T14:56:19Z</time>
<speed>1.980000</speed>
<extensions>
<speed>2.0</speed>
<temp>0.00</temp>
<bpm>0</bpm>
<rpm>0.00</rpm>
</extensions>
</trkpt>
<trkpt lat="64.256568909" lon="-20.199499130">
<ele>171.519531</ele>
<time>2012-07-20T14:56:24Z</time>
<speed>1.620000</speed>
<extensions>
<speed>1.6</speed>
<temp>0.00</temp>
<bpm>0</bpm>
<rpm>0.00</rpm>
</extensions>
</trkpt>
<trkpt lat="64.256492615" lon="-20.199541092">
<ele>172.250000</ele>
<time>2012-07-20T14:56:29Z</time>
<speed>1.860000</speed>
<extensions>
<speed>1.9</speed>
<temp>0.00</temp>
<bpm>0</bpm>
<rpm>0.00</rpm>
</extensions>
</trkpt>
<trkpt lat="64.256408691" lon="-20.199590683">
<ele>172.781250</ele>
<time>2012-07-20T14:56:34Z</time>
<speed>1.860000</speed>
<extensions>
<speed>1.9</speed>
<temp>0.00</temp>
<bpm>0</bpm>
<rpm>0.00</rpm>
</extensions>
</trkpt>
<trkpt lat="64.256340027" lon="-20.199644089">
<ele>173.843750</ele>
<time>2012-07-20T14:56:39Z</time>
<speed>1.880000</speed>
<extensions>
<speed>1.9</speed>
<temp>0.00</temp>
<bpm>0</bpm>
<rpm>0.00</rpm>
</extensions>
</trkpt>
<trkpt lat="64.256263733" lon="-20.199697495">
<ele>175.285156</ele>
<time>2012-07-20T14:56:44Z</time>
<speed>1.860000</speed>
<extensions>
<speed>1.9</speed>
<temp>0.00</temp>
<bpm>0</bpm>
<rpm>0.00</rpm>
</extensions>
</trkpt>
<trkpt lat="64.256179810" lon="-20.199764252">
<ele>176.550781</ele>
<time>2012-07-20T14:56:49Z</time>
<speed>1.810000</speed>
<extensions>
<speed>1.8</speed>
<temp>0.00</temp>
<bpm>0</bpm>
<rpm>0.00</rpm>
</extensions>
</trkpt>
<trkpt lat="64.256111145" lon="-20.199827194">
<ele>177.027344</ele>
<time>2012-07-20T14:56:54Z</time>
<speed>1.790000</speed>
<extensions>
<speed>1.8</speed>
<temp>0.00</temp>
<bpm>0</bpm>
<rpm>0.00</rpm>
</extensions>
</trkpt>
<trkpt lat="64.256011963" lon="-20.199865341">
<ele>176.898438</ele>
<time>2012-07-20T14:56:59Z</time>
<speed>2.190000</speed>
<extensions>
<speed>2.2</speed>
<temp>0.00</temp>
<bpm>0</bpm>
<rpm>0.00</rpm>
</extensions>
</trkpt>
<trkpt lat="64.255928040" lon="-20.199916840">
<ele>177.550781</ele>
<time>2012-07-20T14:57:04Z</time>
<speed>2.220000</speed>
<extensions>
<speed>2.2</speed>
<temp>0.00</temp>
<bpm>0</bpm>
<rpm>0.00</rpm>
</extensions>
</trkpt>
<trkpt lat="64.255844116" lon="-20.199995041">
<ele>178.359375</ele>
<time>2012-07-20T14:57:09Z</time>
<speed>2.100000</speed>
<extensions>
<speed>2.1</speed>
<temp>0.00</temp>
<bpm>0</bpm>
<rpm>0.00</rpm>
</extensions>
</trkpt>
<trkpt lat="64.255760193" lon="-20.200046539">
<ele>179.433594</ele>
<time>2012-07-20T14:57:14Z</time>
<speed>2.170000</speed>
<extensions>
<speed>2.2</speed>
<temp>0.00</temp>
<bpm>0</bpm>
<rpm>0.00</rpm>
</extensions>
</trkpt>
<trkpt lat="64.255668640" lon="-20.200126648">
<ele>180.570313</ele>
<time>2012-07-20T14:57:19Z</time>
<speed>2.090000</speed>
<extensions>
<speed>2.1</speed>
<temp>0.00</temp>
<bpm>0</bpm>
<rpm>0.00</rpm>
</extensions>
</trkpt>
<trkpt lat="64.255577087" lon="-20.200189590">
<ele>180.691406</ele>
<time>2012-07-20T14:57:24Z</time>
<speed>2.370000</speed>
<extensions>
<speed>2.4</speed>
<temp>0.00</temp>
<bpm>0</bpm>
<rpm>0.00</rpm>
</extensions>
</trkpt>
<trkpt lat="64.255462646" lon="-20.200254440">
<ele>179.722656</ele>
<time>2012-07-20T14:57:29Z</time>
<speed>2.600000</speed>
<extensions>
<speed>2.6</speed>
<temp>0.00</temp>
<bpm>0</bpm>
<rpm>0.00</rpm>
</extensions>
</trkpt>
<trkpt lat="64.255355835" lon="-20.200328827">
<ele>179.871094</ele>
<time>2012-07-20T14:57:34Z</time>
<speed>2.470000</speed>
<extensions>
<speed>2.5</speed>
<temp>0.00</temp>
<bpm>0</bpm>
<rpm>0.00</rpm>
</extensions>
</trkpt>
<trkpt lat="64.255233765" lon="-20.200410843">
<ele>180.445313</ele>
<time>2012-07-20T14:57:39Z</time>
<speed>2.810000</speed>
<extensions>
<speed>2.8</speed>
<temp>0.00</temp>
<bpm>0</bpm>
<rpm>0.00</rpm>
</extensions>
</trkpt>
<trkpt lat="64.255119324" lon="-20.200479507">
<ele>181.656250</ele>
<time>2012-07-20T14:57:44Z</time>
<speed>2.810000</speed>
<extensions>
<speed>2.8</speed>
<temp>0.00</temp>
<bpm>0</bpm>
<rpm>0.00</rpm>
</extensions>
</trkpt>
<trkpt lat="64.254997253" lon="-20.200574875">
<ele>182.453125</ele>
<time>2012-07-20T14:57:49Z</time>
<speed>2.990000</speed>
<extensions>
<speed>3.0</speed>
<temp>0.00</temp>
<bpm>0</bpm>
<rpm>0.00</rpm>
</extensions>
</trkpt>
<trkpt lat="64.254859924" lon="-20.200660706">
<ele>181.824219</ele>
<time>2012-07-20T14:57:54Z</time>
<speed>3.210000</speed>
<extensions>
<speed>3.2</speed>
<temp>0.00</temp>
<bpm>0</bpm>
<rpm>0.00</rpm>
</extensions>
</trkpt>
<trkpt lat="64.254730225" lon="-20.200752258">
<ele>183.121094</ele>
<time>2012-07-20T14:57:59Z</time>
<speed>3.060000</speed>
<extensions>
<speed>3.1</speed>
<temp>0.00</temp>
<bpm>0</bpm>
<rpm>0.00</rpm>
</extensions>
</trkpt>
<trkpt lat="64.254600525" lon="-20.200847626">
<ele>182.773438</ele>
<time>2012-07-20T14:58:04Z</time>
<speed>2.580000</speed>
<extensions>
<speed>2.6</speed>
<temp>0.00</temp>
<bpm>0</bpm>
<rpm>0.00</rpm>
</extensions>
</trkpt>
<trkpt lat="64.254447937" lon="-20.200963974">
<ele>182.339844</ele>
<time>2012-07-20T14:58:09Z</time>
<speed>3.480000</speed>
<extensions>
<speed>3.5</speed>
<temp>0.00</temp>
<bpm>0</bpm>
<rpm>0.00</rpm>
</extensions>
</trkpt>
<trkpt lat="64.254295349" lon="-20.201080322">
<ele>182.968750</ele>
<time>2012-07-20T14:58:14Z</time>
<speed>3.590000</speed>
<extensions>
<speed>3.6</speed>
<temp>0.00</temp>
<bpm>0</bpm>
<rpm>0.00</rpm>
</extensions>
</trkpt>
<trkpt lat="64.254127502" lon="-20.201204300">
<ele>183.250000</ele>
<time>2012-07-20T14:58:19Z</time>
<speed>3.850000</speed>
<extensions>
<speed>3.8</speed>
<temp>0.00</temp>
<bpm>0</bpm>
<rpm>0.00</rpm>
</extensions>
</trkpt>
<trkpt lat="64.253974915" lon="-20.201343536">
<ele>183.917969</ele>
<time>2012-07-20T14:58:24Z</time>
<speed>3.760000</speed>
<extensions>
<speed>3.8</speed>
<temp>0.00</temp>
<bpm>0</bpm>
<rpm>0.00</rpm>
</extensions>
</trkpt>
<trkpt lat="64.253814697" lon="-20.201469421">
<ele>183.371094</ele>
<time>2012-07-20T14:58:29Z</time>
<speed>3.220000</speed>
<extensions>
<speed>3.2</speed>
<temp>0.00</temp>
<bpm>0</bpm>
<rpm>0.00</rpm>
</extensions>
</trkpt>
<trkpt lat="64.253677368" lon="-20.201574326">
<ele>182.859375</ele>
<time>2012-07-20T14:58:34Z</time>
<speed>3.290000</speed>
<extensions>
<speed>3.3</speed>
<temp>0.00</temp>
<bpm>0</bpm>
<rpm>0.00</rpm>
</extensions>
</trkpt>
<trkpt lat="64.253532410" lon="-20.201692581">
<ele>182.562500</ele>
<time>2012-07-20T14:58:39Z</time>
<speed>3.620000</speed>
<extensions>
<speed>3.6</speed>
<temp>0.00</temp>
<bpm>0</bpm>
<rpm>0.00</rpm>
</extensions>
</trkpt>
<trkpt lat="64.253379822" lon="-20.201816559">
<ele>183.457031</ele>
<time>2012-07-20T14:58:44Z</time>
<speed>3.790000</speed>
<extensions>
<speed>3.8</speed>
<temp>0.00</temp>
<bpm>0</bpm>
<rpm>0.00</rpm>
</extensions>
</trkpt>
<trkpt lat="64.253219604" lon="-20.201953888">
<ele>183.195313</ele>
<time>2012-07-20T14:58:49Z</time>
<speed>3.830000</speed>
<extensions>
<speed>3.8</speed>
<temp>0.00</temp>
<bpm>0</bpm>
<rpm>0.00</rpm>
</extensions>
</trkpt>
<trkpt lat="64.253067017" lon="-20.202089310">
<ele>183.695313</ele>
<time>2012-07-20T14:58:54Z</time>
<speed>3.630000</speed>
<extensions>
<speed>3.6</speed>
<temp>0.00</temp>
<bpm>0</bpm>
<rpm>0.00</rpm>
</extensions>
</trkpt>
<trkpt lat="64.252914429" lon="-20.202211380">
<ele>183.246094</ele>
<time>2012-07-20T14:58:59Z</time>
<speed>3.150000</speed>
<extensions>
<speed>3.2</speed>
<temp>0.00</temp>
<bpm>0</bpm>
<rpm>0.00</rpm>
</extensions>
</trkpt>
<trkpt lat="64.252799988" lon="-20.202325821">
<ele>182.503906</ele>
<time>2012-07-20T14:59:04Z</time>
<speed>2.650000</speed>
<extensions>
<speed>2.6</speed>
<temp>0.00</temp>
<bpm>0</bpm>
<rpm>0.00</rpm>
</extensions>
</trkpt>
<trkpt lat="64.252685547" lon="-20.202413559">
<ele>181.406250</ele>
<time>2012-07-20T14:59:09Z</time>
<speed>2.650000</speed>
<extensions>
<speed>2.6</speed>
<temp>0.00</temp>
<bpm>0</bpm>
<rpm>0.00</rpm>
</extensions>
</trkpt>
<trkpt lat="64.252586365" lon="-20.202501297">
<ele>181.683594</ele>
<time>2012-07-20T14:59:14Z</time>
<speed>2.550000</speed>
<extensions>
<speed>2.6</speed>
<temp>0.00</temp>
<bpm>0</bpm>
<rpm>0.00</rpm>
</extensions>
</trkpt>
<trkpt lat="64.252494812" lon="-20.202602386">
<ele>182.351563</ele>
<time>2012-07-20T14:59:19Z</time>
<speed>2.260000</speed>
<extensions>
<speed>2.3</speed>
<temp>0.00</temp>
<bpm>0</bpm>
<rpm>0.00</rpm>
</extensions>
</trkpt>
<trkpt lat="64.252410889" lon="-20.202697754">
<ele>182.730469</ele>
<time>2012-07-20T14:59:24Z</time>
<speed>2.030000</speed>
<extensions>
<speed>2.0</speed>
<temp>0.00</temp>
<bpm>0</bpm>
<rpm>0.00</rpm>
</extensions>
</trkpt>
<trkpt lat="64.252349854" lon="-20.202774048">
<ele>185.078125</ele>
<time>2012-07-20T14:59:29Z</time>
<speed>1.610000</speed>
<extensions>
<speed>1.6</speed>
<temp>0.00</temp>
<bpm>0</bpm>
<rpm>0.00</rpm>
</extensions>
</trkpt>
<trkpt lat="64.252273560" lon="-20.202829361">
<ele>186.906250</ele>
<time>2012-07-20T14:59:34Z</time>
<speed>1.710000</speed>
<extensions>
<speed>1.7</speed>
<temp>0.00</temp>
<bpm>0</bpm>
<rpm>0.00</rpm>
</extensions>
</trkpt>
<trkpt lat="64.252204895" lon="-20.202880859">
<ele>186.917969</ele>
<time>2012-07-20T14:59:39Z</time>
<speed>1.910000</speed>
<extensions>
<speed>1.9</speed>
<temp>0.00</temp>
<bpm>0</bpm>
<rpm>0.00</rpm>
</extensions>
</trkpt>
<trkpt lat="64.252120972" lon="-20.202943802">
<ele>186.648438</ele>
<time>2012-07-20T14:59:44Z</time>
<speed>1.880000</speed>
<extensions>
<speed>1.9</speed>
<temp>0.00</temp>
<bpm>0</bpm>
<rpm>0.00</rpm>
</extensions>
</trkpt>
<trkpt lat="64.252052307" lon="-20.203004837">
<ele>186.453125</ele>
<time>2012-07-20T14:59:49Z</time>
<speed>1.740000</speed>
<extensions>
<speed>1.7</speed>
<temp>0.00</temp>
<bpm>0</bpm>
<rpm>0.00</rpm>
</extensions>
</trkpt>
<trkpt lat="64.251976013" lon="-20.203050613">
<ele>186.324219</ele>
<time>2012-07-20T14:59:54Z</time>
<speed>1.730000</speed>
<extensions>
<speed>1.7</speed>
<temp>0.00</temp>
<bpm>0</bpm>
<rpm>0.00</rpm>
</extensions>
</trkpt>
<trkpt lat="64.251892090" lon="-20.203107834">
<ele>186.199219</ele>
<time>2012-07-20T14:59:59Z</time>
<speed>1.960000</speed>
<extensions>
<speed>2.0</speed>
<temp>0.00</temp>
<bpm>0</bpm>
<rpm>0.00</rpm>
</extensions>
</trkpt>
<trkpt lat="64.251823425" lon="-20.203176498">
<ele>186.968750</ele>
<time>2012-07-20T15:00:04Z</time>
<speed>1.740000</speed>
<extensions>
<speed>1.7</speed>
<temp>0.00</temp>
<bpm>0</bpm>
<rpm>0.00</rpm>
</extensions>
</trkpt>
<trkpt lat="64.251747131" lon="-20.203231812">
<ele>187.164063</ele>
<time>2012-07-20T15:00:09Z</time>
<speed>1.880000</speed>
<extensions>
<speed>1.9</speed>
<temp>0.00</temp>
<bpm>0</bpm>
<rpm>0.00</rpm>
</extensions>
</trkpt>
<trkpt lat="64.251678467" lon="-20.203313828">
<ele>187.703125</ele>
<time>2012-07-20T15:00:14Z</time>
<speed>1.750000</speed>
<extensions>
<speed>1.8</speed>
<temp>0.00</temp>
<bpm>0</bpm>
<rpm>0.00</rpm>
</extensions>
</trkpt>
<trkpt lat="64.251594543" lon="-20.203390121">
<ele>188.410156</ele>
<time>2012-07-20T15:00:19Z</time>
<speed>2.140000</speed>
<extensions>
<speed>2.1</speed>
<temp>0.00</temp>
<bpm>0</bpm>
<rpm>0.00</rpm>
</extensions>
</trkpt>
<trkpt lat="64.251518250" lon="-20.203453064">
<ele>188.937500</ele>
<time>2012-07-20T15:00:24Z</time>
<speed>1.220000</speed>
<extensions>
<speed>1.2</speed>
<temp>0.00</temp>
<bpm>0</bpm>
<rpm>0.00</rpm>
</extensions>
</trkpt>
<trkpt lat="64.251457214" lon="-20.203512192">
<ele>189.042969</ele>
<time>2012-07-20T15:00:29Z</time>
<speed>1.760000</speed>
<extensions>
<speed>1.8</speed>
<temp>0.00</temp>
<bpm>0</bpm>
<rpm>0.00</rpm>
</extensions>
</trkpt>
<trkpt lat="64.251373291" lon="-20.203584671">
<ele>189.628906</ele>
<time>2012-07-20T15:00:34Z</time>
<speed>1.940000</speed>
<extensions>
<speed>1.9</speed>
<temp>0.00</temp>
<bpm>0</bpm>
<rpm>0.00</rpm>
</extensions>
</trkpt>
<trkpt lat="64.251289368" lon="-20.203666687">
<ele>189.332031</ele>
<time>2012-07-20T15:00:39Z</time>
<speed>2.080000</speed>
<extensions>
<speed>2.1</speed>
<temp>0.00</temp>
<bpm>0</bpm>
<rpm>0.00</rpm>
</extensions>
</trkpt>
<trkpt lat="64.251197815" lon="-20.203720093">
<ele>189.558594</ele>
<time>2012-07-20T15:00:44Z</time>
<speed>1.730000</speed>
<extensions>
<speed>1.7</speed>
<temp>0.00</temp>
<bpm>0</bpm>
<rpm>0.00</rpm>
</extensions>
</trkpt>
<trkpt lat="64.251129150" lon="-20.203779221">
<ele>190.429688</ele>
<time>2012-07-20T15:00:49Z</time>
<speed>1.070000</speed>
<extensions>
<speed>1.1</speed>
<temp>0.00</temp>
<bpm>0</bpm>
<rpm>0.00</rpm>
</extensions>
</trkpt>
<trkpt lat="64.251083374" lon="-20.203824997">
<ele>190.773438</ele>
<time>2012-07-20T15:00:54Z</time>
<speed>1.610000</speed>
<extensions>
<speed>1.6</speed>
<temp>0.00</temp>
<bpm>0</bpm>
<rpm>0.00</rpm>
</extensions>
</trkpt>
<trkpt lat="64.251014709" lon="-20.203886032">
<ele>191.039063</ele>
<time>2012-07-20T15:00:59Z</time>
<speed>1.430000</speed>
<extensions>
<speed>1.4</speed>
<temp>0.00</temp>
<bpm>0</bpm>
<rpm>0.00</rpm>
</extensions>
</trkpt>
<trkpt lat="64.250961304" lon="-20.203933716">
<ele>190.832031</ele>
<time>2012-07-20T15:01:04Z</time>
<speed>1.590000</speed>
<extensions>
<speed>1.6</speed>
<temp>0.00</temp>
<bpm>0</bpm>
<rpm>0.00</rpm>
</extensions>
</trkpt>
<trkpt lat="64.250892639" lon="-20.203996658">
<ele>190.863281</ele>
<time>2012-07-20T15:01:09Z</time>
<speed>1.810000</speed>
<extensions>
<speed>1.8</speed>
<temp>0.00</temp>
<bpm>0</bpm>
<rpm>0.00</rpm>
</extensions>
</trkpt>
<trkpt lat="64.250823975" lon="-20.204051971">
<ele>191.285156</ele>
<time>2012-07-20T15:01:14Z</time>
<speed>1.720000</speed>
<extensions>
<speed>1.7</speed>
<temp>0.00</temp>
<bpm>0</bpm>
<rpm>0.00</rpm>
</extensions>
</trkpt>
<trkpt lat="64.250747681" lon="-20.204109192">
<ele>191.250000</ele>
<time>2012-07-20T15:01:19Z</time>
<speed>1.970000</speed>
<extensions>
<speed>2.0</speed>
<temp>0.00</temp>
<bpm>0</bpm>
<rpm>0.00</rpm>
</extensions>
</trkpt>
<trkpt lat="64.250679016" lon="-20.204185486">
<ele>192.203125</ele>
<time>2012-07-20T15:01:24Z</time>
<speed>1.850000</speed>
<extensions>
<speed>1.8</speed>
<temp>0.00</temp>
<bpm>0</bpm>
<rpm>0.00</rpm>
</extensions>
</trkpt>
<trkpt lat="64.250595093" lon="-20.204231262">
<ele>191.832031</ele>
<time>2012-07-20T15:01:29Z</time>
<speed>2.100000</speed>
<extensions>
<speed>2.1</speed>
<temp>0.00</temp>
<bpm>0</bpm>
<rpm>0.00</rpm>
</extensions>
</trkpt>
<trkpt lat="64.250541687" lon="-20.204282761">
<ele>192.882813</ele>
<time>2012-07-20T15:01:34Z</time>
<speed>1.240000</speed>
<extensions>
<speed>1.2</speed>
<temp>0.00</temp>
<bpm>0</bpm>
<rpm>0.00</rpm>
</extensions>
</trkpt>
<trkpt lat="64.250488281" lon="-20.204349518">
<ele>193.960938</ele>
<time>2012-07-20T15:01:39Z</time>
<speed>1.710000</speed>
<extensions>
<speed>1.7</speed>
<temp>0.00</temp>
<bpm>0</bpm>
<rpm>0.00</rpm>
</extensions>
</trkpt>
<trkpt lat="64.250419617" lon="-20.204389572">
<ele>194.531250</ele>
<time>2012-07-20T15:01:44Z</time>
<speed>1.430000</speed>
<extensions>
<speed>1.4</speed>
<temp>0.00</temp>
<bpm>0</bpm>
<rpm>0.00</rpm>
</extensions>
</trkpt>
<trkpt lat="64.250335693" lon="-20.204462051">
<ele>194.210938</ele>
<time>2012-07-20T15:01:49Z</time>
<speed>1.830000</speed>
<extensions>
<speed>1.8</speed>
<temp>0.00</temp>
<bpm>0</bpm>
<rpm>0.00</rpm>
</extensions>
</trkpt>
<trkpt lat="64.250259399" lon="-20.204545975">
<ele>195.328125</ele>
<time>2012-07-20T15:01:54Z</time>
<speed>1.910000</speed>
<extensions>
<speed>1.9</speed>
<temp>0.00</temp>
<bpm>0</bpm>
<rpm>0.00</rpm>
</extensions>
</trkpt>
<trkpt lat="64.250183105" lon="-20.204624176">
<ele>195.523438</ele>
<time>2012-07-20T15:01:59Z</time>
<speed>2.010000</speed>
<extensions>
<speed>2.0</speed>
<temp>0.00</temp>
<bpm>0</bpm>
<rpm>0.00</rpm>
</extensions>
</trkpt>
<trkpt lat="64.250114441" lon="-20.204677582">
<ele>195.585938</ele>
<time>2012-07-20T15:02:04Z</time>
<speed>1.650000</speed>
<extensions>
<speed>1.7</speed>
<temp>0.00</temp>
<bpm>0</bpm>
<rpm>0.00</rpm>
</extensions>
</trkpt>
<trkpt lat="64.250038147" lon="-20.204744339">
<ele>195.925781</ele>
<time>2012-07-20T15:02:09Z</time>
<speed>1.700000</speed>
<extensions>
<speed>1.7</speed>
<temp>0.00</temp>
<bpm>0</bpm>
<rpm>0.00</rpm>
</extensions>
</trkpt>
<trkpt lat="64.249954224" lon="-20.204801559">
<ele>195.609375</ele>
<time>2012-07-20T15:02:14Z</time>
<speed>1.460000</speed>
<extensions>
<speed>1.5</speed>
<temp>0.00</temp>
<bpm>0</bpm>
<rpm>0.00</rpm>
</extensions>
</trkpt>
<trkpt lat="64.249862671" lon="-20.204874039">
<ele>196.113281</ele>
<time>2012-07-20T15:02:19Z</time>
<speed>2.080000</speed>
<extensions>
<speed>2.1</speed>
<temp>0.00</temp>
<bpm>0</bpm>
<rpm>0.00</rpm>
</extensions>
</trkpt>
<trkpt lat="64.249771118" lon="-20.204965591">
<ele>197.277344</ele>
<time>2012-07-20T15:02:24Z</time>
<speed>2.310000</speed>
<extensions>
<speed>2.3</speed>
<temp>0.00</temp>
<bpm>0</bpm>
<rpm>0.00</rpm>
</extensions>
</trkpt>
<trkpt lat="64.249694824" lon="-20.205057144">
<ele>197.859375</ele>
<time>2012-07-20T15:02:29Z</time>
<speed>2.050000</speed>
<extensions>
<speed>2.1</speed>
<temp>0.00</temp>
<bpm>0</bpm>
<rpm>0.00</rpm>
</extensions>
</trkpt>
<trkpt lat="64.249603271" lon="-20.205135345">
<ele>198.457031</ele>
<time>2012-07-20T15:02:34Z</time>
<speed>2.210000</speed>
<extensions>
<speed>2.2</speed>
<temp>0.00</temp>
<bpm>0</bpm>
<rpm>0.00</rpm>
</extensions>
</trkpt>
<trkpt lat="64.249519348" lon="-20.205207825">
<ele>199.394531</ele>
<time>2012-07-20T15:02:39Z</time>
<speed>2.270000</speed>
<extensions>
<speed>2.3</speed>
<temp>0.00</temp>
<bpm>0</bpm>
<rpm>0.00</rpm>
</extensions>
</trkpt>
<trkpt lat="64.249420166" lon="-20.205310822">
<ele>199.593750</ele>
<time>2012-07-20T15:02:44Z</time>
<speed>2.670000</speed>
<extensions>
<speed>2.7</speed>
<temp>0.00</temp>
<bpm>0</bpm>
<rpm>0.00</rpm>
</extensions>
</trkpt>
<trkpt lat="64.249313354" lon="-20.205413818">
<ele>200.515625</ele>
<time>2012-07-20T15:02:49Z</time>
<speed>2.540000</speed>
<extensions>
<speed>2.5</speed>
<temp>0.00</temp>
<bpm>0</bpm>
<rpm>0.00</rpm>
</extensions>
</trkpt>
<trkpt lat="64.249206543" lon="-20.205520630">
<ele>200.328125</ele>
<time>2012-07-20T15:02:54Z</time>
<speed>2.450000</speed>
<extensions>
<speed>2.4</speed>
<temp>0.00</temp>
<bpm>0</bpm>
<rpm>0.00</rpm>
</extensions>
</trkpt>
<trkpt lat="64.249099731" lon="-20.205635071">
<ele>199.996094</ele>
<time>2012-07-20T15:02:59Z</time>
<speed>2.780000</speed>
<extensions>
<speed>2.8</speed>
<temp>0.00</temp>
<bpm>0</bpm>
<rpm>0.00</rpm>
</extensions>
</trkpt>
<trkpt lat="64.248977661" lon="-20.205768585">
<ele>200.183594</ele>
<time>2012-07-20T15:03:04Z</time>
<speed>3.110000</speed>
<extensions>
<speed>3.1</speed>
<temp>0.00</temp>
<bpm>0</bpm>
<rpm>0.00</rpm>
</extensions>
</trkpt>
<trkpt lat="64.248863220" lon="-20.205934525">
<ele>200.820313</ele>
<time>2012-07-20T15:03:09Z</time>
<speed>3.010000</speed>
<extensions>
<speed>3.0</speed>
<temp>0.00</temp>
<bpm>0</bpm>
<rpm>0.00</rpm>
</extensions>
</trkpt>
<trkpt lat="64.248748779" lon="-20.206115723">
<ele>200.980469</ele>
<time>2012-07-20T15:03:14Z</time>
<speed>3.140000</speed>
<extensions>
<speed>3.1</speed>
<temp>0.00</temp>
<bpm>0</bpm>
<rpm>0.00</rpm>
</extensions>
</trkpt>
<trkpt lat="64.248634338" lon="-20.206315994">
<ele>201.531250</ele>
<time>2012-07-20T15:03:19Z</time>
<speed>3.060000</speed>
<extensions>
<speed>3.1</speed>
<temp>0.00</temp>
<bpm>0</bpm>
<rpm>0.00</rpm>
</extensions>
</trkpt>
<trkpt lat="64.248535156" lon="-20.206501007">
<ele>201.683594</ele>
<time>2012-07-20T15:03:24Z</time>
<speed>2.940000</speed>
<extensions>
<speed>2.9</speed>
<temp>0.00</temp>
<bpm>0</bpm>
<rpm>0.00</rpm>
</extensions>
</trkpt>
<trkpt lat="64.248428345" lon="-20.206708908">
<ele>202.156250</ele>
<time>2012-07-20T15:03:29Z</time>
<speed>2.990000</speed>
<extensions>
<speed>3.0</speed>
<temp>0.00</temp>
<bpm>0</bpm>
<rpm>0.00</rpm>
</extensions>
</trkpt>
<trkpt lat="64.248321533" lon="-20.206935883">
<ele>201.234375</ele>
<time>2012-07-20T15:03:34Z</time>
<speed>3.010000</speed>
<extensions>
<speed>3.0</speed>
<temp>0.00</temp>
<bpm>0</bpm>
<rpm>0.00</rpm>
</extensions>
</trkpt>
<trkpt lat="64.248237610" lon="-20.207155228">
<ele>201.148438</ele>
<time>2012-07-20T15:03:39Z</time>
<speed>3.040000</speed>
<extensions>
<speed>3.0</speed>
<temp>0.00</temp>
<bpm>0</bpm>
<rpm>0.00</rpm>
</extensions>
</trkpt>
<trkpt lat="64.248153687" lon="-20.207401276">
<ele>202.714844</ele>
<time>2012-07-20T15:03:44Z</time>
<speed>3.080000</speed>
<extensions>
<speed>3.1</speed>
<temp>0.00</temp>
<bpm>0</bpm>
<rpm>0.00</rpm>
</extensions>
</trkpt>
<trkpt lat="64.248069763" lon="-20.207637787">
<ele>202.550781</ele>
<time>2012-07-20T15:03:49Z</time>
<speed>2.870000</speed>
<extensions>
<speed>2.9</speed>
<temp>0.00</temp>
<bpm>0</bpm>
<rpm>0.00</rpm>
</extensions>
</trkpt>
<trkpt lat="64.247993469" lon="-20.207906723">
<ele>202.167969</ele>
<time>2012-07-20T15:03:54Z</time>
<speed>3.120000</speed>
<extensions>
<speed>3.1</speed>
<temp>0.00</temp>
<bpm>0</bpm>
<rpm>0.00</rpm>
</extensions>
</trkpt>
<trkpt lat="64.247917175" lon="-20.208158493">
<ele>201.136719</ele>
<time>2012-07-20T15:03:59Z</time>
<speed>2.890000</speed>
<extensions>
<speed>2.9</speed>
<temp>0.00</temp>
<bpm>0</bpm>
<rpm>0.00</rpm>
</extensions>
</trkpt>
<trkpt lat="64.247848511" lon="-20.208398819">
<ele>201.628906</ele>
<time>2012-07-20T15:04:04Z</time>
<speed>2.580000</speed>
<extensions>
<speed>2.6</speed>
<temp>0.00</temp>
<bpm>0</bpm>
<rpm>0.00</rpm>
</extensions>
</trkpt>
<trkpt lat="64.247787476" lon="-20.208631516">
<ele>202.312500</ele>
<time>2012-07-20T15:04:09Z</time>
<speed>2.640000</speed>
<extensions>
<speed>2.6</speed>
<temp>0.00</temp>
<bpm>0</bpm>
<rpm>0.00</rpm>
</extensions>
</trkpt>
<trkpt lat="64.247711182" lon="-20.208864212">
<ele>202.800781</ele>
<time>2012-07-20T15:04:14Z</time>
<speed>2.930000</speed>
<extensions>
<speed>2.9</speed>
<temp>0.00</temp>
<bpm>0</bpm>
<rpm>0.00</rpm>
</extensions>
</trkpt>
<trkpt lat="64.247627258" lon="-20.209114075">
<ele>204.054688</ele>
<time>2012-07-20T15:04:19Z</time>
<speed>2.810000</speed>
<extensions>
<speed>2.8</speed>
<temp>0.00</temp>
<bpm>0</bpm>
<rpm>0.00</rpm>
</extensions>
</trkpt>
<trkpt lat="64.247550964" lon="-20.209329605">
<ele>206.339844</ele>
<time>2012-07-20T15:04:24Z</time>
<speed>2.690000</speed>
<extensions>
<speed>2.7</speed>
<temp>0.00</temp>
<bpm>0</bpm>
<rpm>0.00</rpm>
</extensions>
</trkpt>
<trkpt lat="64.247482300" lon="-20.209529877">
<ele>209.160156</ele>
<time>2012-07-20T15:04:29Z</time>
<speed>2.430000</speed>
<extensions>
<speed>2.4</speed>
<temp>0.00</temp>
<bpm>0</bpm>
<rpm>0.00</rpm>
</extensions>
</trkpt>
<trkpt lat="64.247413635" lon="-20.209690094">
<ele>208.437500</ele>
<time>2012-07-20T15:04:34Z</time>
<speed>1.480000</speed>
<extensions>
<speed>1.5</speed>
<temp>0.00</temp>
<bpm>0</bpm>
<rpm>0.00</rpm>
</extensions>
</trkpt>
<trkpt lat="64.247367859" lon="-20.209817886">
<ele>212.089844</ele>
<time>2012-07-20T15:04:39Z</time>
<speed>1.750000</speed>
<extensions>
<speed>1.8</speed>
<temp>0.00</temp>
<bpm>0</bpm>
<rpm>0.00</rpm>
</extensions>
</trkpt>
<trkpt lat="64.247291565" lon="-20.209957123">
<ele>213.261719</ele>
<time>2012-07-20T15:04:44Z</time>
<speed>2.090000</speed>
<extensions>
<speed>2.1</speed>
<temp>0.00</temp>
<bpm>0</bpm>
<rpm>0.00</rpm>
</extensions>
</trkpt>
<trkpt lat="64.247215271" lon="-20.210102081">
<ele>212.472656</ele>
<time>2012-07-20T15:04:49Z</time>
<speed>1.870000</speed>
<extensions>
<speed>1.9</speed>
<temp>0.00</temp>
<bpm>0</bpm>
<rpm>0.00</rpm>
</extensions>
</trkpt>
<trkpt lat="64.247169495" lon="-20.210212708">
<ele>210.777344</ele>
<time>2012-07-20T15:04:54Z</time>
<speed>1.640000</speed>
<extensions>
<speed>1.6</speed>
<temp>0.00</temp>
<bpm>0</bpm>
<rpm>0.00</rpm>
</extensions>
</trkpt>
<trkpt lat="64.247108459" lon="-20.210342407">
<ele>209.734375</ele>
<time>2012-07-20T15:04:59Z</time>
<speed>1.920000</speed>
<extensions>
<speed>1.9</speed>
<temp>0.00</temp>
<bpm>0</bpm>
<rpm>0.00</rpm>
</extensions>
</trkpt>
<trkpt lat="64.247039795" lon="-20.210453033">
<ele>208.429688</ele>
<time>2012-07-20T15:05:04Z</time>
<speed>1.750000</speed>
<extensions>
<speed>1.8</speed>
<temp>0.00</temp>
<bpm>0</bpm>
<rpm>0.00</rpm>
</extensions>
</trkpt>
<trkpt lat="64.246986389" lon="-20.210578918">
<ele>207.359375</ele>
<time>2012-07-20T15:05:09Z</time>
<speed>1.790000</speed>
<extensions>
<speed>1.8</speed>
<temp>0.00</temp>
<bpm>0</bpm>
<rpm>0.00</rpm>
</extensions>
</trkpt>
<trkpt lat="64.246925354" lon="-20.210706711">
<ele>206.093750</ele>
<time>2012-07-20T15:05:14Z</time>
<speed>1.940000</speed>
<extensions>
<speed>1.9</speed>
<temp>0.00</temp>
<bpm>0</bpm>
<rpm>0.00</rpm>
</extensions>
</trkpt>
<trkpt lat="64.246856689" lon="-20.210836411">
<ele>206.812500</ele>
<time>2012-07-20T15:05:19Z</time>
<speed>2.110000</speed>
<extensions>
<speed>2.1</speed>
<temp>0.00</temp>
<bpm>0</bpm>
<rpm>0.00</rpm>
</extensions>
</trkpt>
<trkpt lat="64.246788025" lon="-20.210975647">
<ele>204.957031</ele>
<time>2012-07-20T15:05:24Z</time>
<speed>2.150000</speed>
<extensions>
<speed>2.1</speed>
<temp>0.00</temp>
<bpm>0</bpm>
<rpm>0.00</rpm>
</extensions>
</trkpt>
<trkpt lat="64.246704102" lon="-20.211124420">
<ele>205.171875</ele>
<time>2012-07-20T15:05:29Z</time>
<speed>2.510000</speed>
<extensions>
<speed>2.5</speed>
<temp>0.00</temp>
<bpm>0</bpm>
<rpm>0.00</rpm>
</extensions>
</trkpt>
<trkpt lat="64.246620178" lon="-20.211290359">
<ele>206.117188</ele>
<time>2012-07-20T15:05:34Z</time>
<speed>2.390000</speed>
<extensions>
<speed>2.4</speed>
<temp>0.00</temp>
<bpm>0</bpm>
<rpm>0.00</rpm>
</extensions>
</trkpt>
<trkpt lat="64.246528625" lon="-20.211444855">
<ele>205.992188</ele>
<time>2012-07-20T15:05:39Z</time>
<speed>2.560000</speed>
<extensions>
<speed>2.6</speed>
<temp>0.00</temp>
<bpm>0</bpm>
<rpm>0.00</rpm>
</extensions>
</trkpt>
<trkpt lat="64.246437073" lon="-20.211597443">
<ele>207.074219</ele>
<time>2012-07-20T15:05:44Z</time>
<speed>2.650000</speed>
<extensions>
<speed>2.6</speed>
<temp>0.00</temp>
<bpm>0</bpm>
<rpm>0.00</rpm>
</extensions>
</trkpt>
<trkpt lat="64.246337891" lon="-20.211746216">
<ele>208.066406</ele>
<time>2012-07-20T15:05:49Z</time>
<speed>2.480000</speed>
<extensions>
<speed>2.5</speed>
<temp>0.00</temp>
<bpm>0</bpm>
<rpm>0.00</rpm>
</extensions>
</trkpt>
<trkpt lat="64.246246338" lon="-20.211885452">
<ele>207.871094</ele>
<time>2012-07-20T15:05:54Z</time>
<speed>2.670000</speed>
<extensions>
<speed>2.7</speed>
<temp>0.00</temp>
<bpm>0</bpm>
<rpm>0.00</rpm>
</extensions>
</trkpt>
<trkpt lat="64.246139526" lon="-20.212026596">
<ele>207.074219</ele>
<time>2012-07-20T15:05:59Z</time>
<speed>2.850000</speed>
<extensions>
<speed>2.9</speed>
<temp>0.00</temp>
<bpm>0</bpm>
<rpm>0.00</rpm>
</extensions>
</trkpt>
<trkpt lat="64.246025085" lon="-20.212182999">
<ele>208.292969</ele>
<time>2012-07-20T15:06:04Z</time>
<speed>3.030000</speed>
<extensions>
<speed>3.0</speed>
<temp>0.00</temp>
<bpm>0</bpm>
<rpm>0.00</rpm>
</extensions>
</trkpt>
<trkpt lat="64.245941162" lon="-20.212305069">
<ele>209.601563</ele>
<time>2012-07-20T15:06:09Z</time>
<speed>1.450000</speed>
<extensions>
<speed>1.4</speed>
<temp>0.00</temp>
<bpm>0</bpm>
<rpm>0.00</rpm>
</extensions>
</trkpt>
<trkpt lat="64.245872498" lon="-20.212375641">
<ele>210.488281</ele>
<time>2012-07-20T15:06:14Z</time>
<speed>2.320000</speed>
<extensions>
<speed>2.3</speed>
<temp>0.00</temp>
<bpm>0</bpm>
<rpm>0.00</rpm>
</extensions>
</trkpt>
<trkpt lat="64.245788574" lon="-20.212478638">
<ele>209.839844</ele>
<time>2012-07-20T15:06:19Z</time>
<speed>1.530000</speed>
<extensions>
<speed>1.5</speed>
<temp>0.00</temp>
<bpm>0</bpm>
<rpm>0.00</rpm>
</extensions>
</trkpt>
<trkpt lat="64.245742798" lon="-20.212623596">
<ele>208.574219</ele>
<time>2012-07-20T15:06:24Z</time>
<speed>2.610000</speed>
<extensions>
<speed>2.6</speed>
<temp>0.00</temp>
<bpm>0</bpm>
<rpm>0.00</rpm>
</extensions>
</trkpt>
<trkpt lat="64.245742798" lon="-20.212684631">
<ele>208.550781</ele>
<time>2012-07-20T15:06:29Z</time>
<speed>0.060000</speed>
<extensions>
<speed>0.1</speed>
<temp>0.00</temp>
<bpm>0</bpm>
<rpm>0.00</rpm>
</extensions>
</trkpt>
<trkpt lat="64.245750427" lon="-20.212682724">
<ele>209.921875</ele>
<time>2012-07-20T15:06:34Z</time>
<speed>0.120000</speed>
<extensions>
<speed>0.1</speed>
<temp>0.00</temp>
<bpm>0</bpm>
<rpm>0.00</rpm>
</extensions>
</trkpt>
<trkpt lat="64.245742798" lon="-20.212673187">
<ele>210.492188</ele>
<time>2012-07-20T15:06:39Z</time>
<extensions>
<speed>0.0</speed>
<temp>0.00</temp>
<bpm>0</bpm>
<rpm>0.00</rpm>
</extensions>
</trkpt>
<trkpt lat="64.245742798" lon="-20.212671280">
<ele>210.441406</ele>
<time>2012-07-20T15:06:44Z</time>
<speed>0.010000</speed>
<extensions>
<speed>0.0</speed>
<temp>0.00</temp>
<bpm>0</bpm>
<rpm>0.00</rpm>
</extensions>
</trkpt>
<trkpt lat="64.245742798" lon="-20.212671280">
<ele>210.437500</ele>
<time>2012-07-20T15:06:49Z</time>
<extensions>
<speed>0.0</speed>
<temp>0.00</temp>
<bpm>0</bpm>
<rpm>0.00</rpm>
</extensions>
</trkpt>
<trkpt lat="64.245742798" lon="-20.212671280">
<ele>210.410156</ele>
<time>2012-07-20T15:06:54Z</time>
<speed>0.010000</speed>
<extensions>
<speed>0.0</speed>
<temp>0.00</temp>
<bpm>0</bpm>
<rpm>0.00</rpm>
</extensions>
</trkpt>
<trkpt lat="64.245742798" lon="-20.212671280">
<ele>210.386719</ele>
<time>2012-07-20T15:06:59Z</time>
<extensions>
<speed>0.0</speed>
<temp>0.00</temp>
<bpm>0</bpm>
<rpm>0.00</rpm>
</extensions>
</trkpt>
<trkpt lat="64.245742798" lon="-20.212671280">
<ele>210.402344</ele>
<time>2012-07-20T15:07:04Z</time>
<extensions>
<speed>0.0</speed>
<temp>0.00</temp>
<bpm>0</bpm>
<rpm>0.00</rpm>
</extensions>
</trkpt>
<trkpt lat="64.245742798" lon="-20.212671280">
<ele>210.414063</ele>
<time>2012-07-20T15:07:09Z</time>
<speed>0.010000</speed>
<extensions>
<speed>0.0</speed>
<temp>0.00</temp>
<bpm>0</bpm>
<rpm>0.00</rpm>
</extensions>
</trkpt>
<trkpt lat="64.245742798" lon="-20.212671280">
<ele>210.414063</ele>
<time>2012-07-20T15:07:14Z</time>
<speed>0.010000</speed>
<extensions>
<speed>0.0</speed>
<temp>0.00</temp>
<bpm>0</bpm>
<rpm>0.00</rpm>
</extensions>
</trkpt>
<trkpt lat="64.245742798" lon="-20.212671280">
<ele>210.414063</ele>
<time>2012-07-20T15:07:19Z</time>
<extensions>
<speed>0.0</speed>
<temp>0.00</temp>
<bpm>0</bpm>
<rpm>0.00</rpm>
</extensions>
</trkpt>
<trkpt lat="64.245742798" lon="-20.212671280">
<ele>210.429688</ele>
<time>2012-07-20T15:07:24Z</time>
<extensions>
<speed>0.0</speed>
<temp>0.00</temp>
<bpm>0</bpm>
<rpm>0.00</rpm>
</extensions>
</trkpt>
<trkpt lat="64.245742798" lon="-20.212671280">
<ele>210.441406</ele>
<time>2012-07-20T15:07:29Z</time>
<extensions>
<speed>0.0</speed>
<temp>0.00</temp>
<bpm>0</bpm>
<rpm>0.00</rpm>
</extensions>
</trkpt>
<trkpt lat="64.245742798" lon="-20.212671280">
<ele>210.457031</ele>
<time>2012-07-20T15:07:34Z</time>
<extensions>
<speed>0.0</speed>
<temp>0.00</temp>
<bpm>0</bpm>
<rpm>0.00</rpm>
</extensions>
</trkpt>
<trkpt lat="64.245742798" lon="-20.212671280">
<ele>210.464844</ele>
<time>2012-07-20T15:07:39Z</time>
<extensions>
<speed>0.0</speed>
<temp>0.00</temp>
<bpm>0</bpm>
<rpm>0.00</rpm>
</extensions>
</trkpt>
<trkpt lat="64.245742798" lon="-20.212671280">
<ele>210.476563</ele>
<time>2012-07-20T15:07:44Z</time>
<extensions>
<speed>0.0</speed>
<temp>0.00</temp>
<bpm>0</bpm>
<rpm>0.00</rpm>
</extensions>
</trkpt>
<trkpt lat="64.245742798" lon="-20.212671280">
<ele>210.480469</ele>
<time>2012-07-20T15:07:49Z</time>
<extensions>
<speed>0.0</speed>
<temp>0.00</temp>
<bpm>0</bpm>
<rpm>0.00</rpm>
</extensions>
</trkpt>
<trkpt lat="64.245742798" lon="-20.212671280">
<ele>210.484375</ele>
<time>2012-07-20T15:07:54Z</time>
<extensions>
<speed>0.0</speed>
<temp>0.00</temp>
<bpm>0</bpm>
<rpm>0.00</rpm>
</extensions>
</trkpt>
<trkpt lat="64.245742798" lon="-20.212671280">
<ele>210.496094</ele>
<time>2012-07-20T15:07:59Z</time>
<extensions>
<speed>0.0</speed>
<temp>0.00</temp>
<bpm>0</bpm>
<rpm>0.00</rpm>
</extensions>
</trkpt>
<trkpt lat="64.245742798" lon="-20.212669373">
<ele>210.500000</ele>
<time>2012-07-20T15:08:04Z</time>
<extensions>
<speed>0.0</speed>
<temp>0.00</temp>
<bpm>0</bpm>
<rpm>0.00</rpm>
</extensions>
</trkpt>
<trkpt lat="64.245742798" lon="-20.212669373">
<ele>210.511719</ele>
<time>2012-07-20T15:08:09Z</time>
<extensions>
<speed>0.0</speed>
<temp>0.00</temp>
<bpm>0</bpm>
<rpm>0.00</rpm>
</extensions>
</trkpt>
<trkpt lat="64.245742798" lon="-20.212669373">
<ele>210.515625</ele>
<time>2012-07-20T15:08:14Z</time>
<speed>0.010000</speed>
<extensions>
<speed>0.0</speed>
<temp>0.00</temp>
<bpm>0</bpm>
<rpm>0.00</rpm>
</extensions>
</trkpt>
<trkpt lat="64.245742798" lon="-20.212669373">
<ele>210.527344</ele>
<time>2012-07-20T15:08:19Z</time>
<extensions>
<speed>0.0</speed>
<temp>0.00</temp>
<bpm>0</bpm>
<rpm>0.00</rpm>
</extensions>
</trkpt>
<trkpt lat="64.245742798" lon="-20.212669373">
<ele>210.539063</ele>
<time>2012-07-20T15:08:24Z</time>
<extensions>
<speed>0.0</speed>
<temp>0.00</temp>
<bpm>0</bpm>
<rpm>0.00</rpm>
</extensions>
</trkpt>
<trkpt lat="64.245742798" lon="-20.212669373">
<ele>210.546875</ele>
<time>2012-07-20T15:08:29Z</time>
<extensions>
<speed>0.0</speed>
<temp>0.00</temp>
<bpm>0</bpm>
<rpm>0.00</rpm>
</extensions>
</trkpt>
<trkpt lat="64.245742798" lon="-20.212669373">
<ele>210.554688</ele>
<time>2012-07-20T15:08:34Z</time>
<extensions>
<speed>0.0</speed>
<temp>0.00</temp>
<bpm>0</bpm>
<rpm>0.00</rpm>
</extensions>
</trkpt>
<trkpt lat="64.245742798" lon="-20.212669373">
<ele>210.566406</ele>
<time>2012-07-20T15:08:39Z</time>
<extensions>
<speed>0.0</speed>
<temp>0.00</temp>
<bpm>0</bpm>
<rpm>0.00</rpm>
</extensions>
</trkpt>
<trkpt lat="64.245742798" lon="-20.212669373">
<ele>210.570313</ele>
<time>2012-07-20T15:08:44Z</time>
<extensions>
<speed>0.0</speed>
<temp>0.00</temp>
<bpm>0</bpm>
<rpm>0.00</rpm>
</extensions>
</trkpt>
<trkpt lat="64.245742798" lon="-20.212669373">
<ele>210.578125</ele>
<time>2012-07-20T15:08:49Z</time>
<speed>0.010000</speed>
<extensions>
<speed>0.0</speed>
<temp>0.00</temp>
<bpm>0</bpm>
<rpm>0.00</rpm>
</extensions>
</trkpt>
<trkpt lat="64.245742798" lon="-20.212669373">
<ele>210.578125</ele>
<time>2012-07-20T15:08:54Z</time>
<extensions>
<speed>0.0</speed>
<temp>0.00</temp>
<bpm>0</bpm>
<rpm>0.00</rpm>
</extensions>
</trkpt>
<trkpt lat="64.245742798" lon="-20.212669373">
<ele>210.578125</ele>
<time>2012-07-20T15:08:59Z</time>
<extensions>
<speed>0.0</speed>
<temp>0.00</temp>
<bpm>0</bpm>
<rpm>0.00</rpm>
</extensions>
</trkpt>
<trkpt lat="64.245742798" lon="-20.212669373">
<ele>210.578125</ele>
<time>2012-07-20T15:09:04Z</time>
<extensions>
<speed>0.0</speed>
<temp>0.00</temp>
<bpm>0</bpm>
<rpm>0.00</rpm>
</extensions>
</trkpt>
<trkpt lat="64.245742798" lon="-20.212669373">
<ele>210.585938</ele>
<time>2012-07-20T15:09:09Z</time>
<extensions>
<speed>0.0</speed>
<temp>0.00</temp>
<bpm>0</bpm>
<rpm>0.00</rpm>
</extensions>
</trkpt>
<trkpt lat="64.245742798" lon="-20.212669373">
<ele>210.589844</ele>
<time>2012-07-20T15:09:14Z</time>
<extensions>
<speed>0.0</speed>
<temp>0.00</temp>
<bpm>0</bpm>
<rpm>0.00</rpm>
</extensions>
</trkpt>
<trkpt lat="64.245742798" lon="-20.212669373">
<ele>210.597656</ele>
<time>2012-07-20T15:09:19Z</time>
<speed>0.010000</speed>
<extensions>
<speed>0.0</speed>
<temp>0.00</temp>
<bpm>0</bpm>
<rpm>0.00</rpm>
</extensions>
</trkpt>
<trkpt lat="64.245742798" lon="-20.212669373">
<ele>210.605469</ele>
<time>2012-07-20T15:09:24Z</time>
<extensions>
<speed>0.0</speed>
<temp>0.00</temp>
<bpm>0</bpm>
<rpm>0.00</rpm>
</extensions>
</trkpt>
<trkpt lat="64.245742798" lon="-20.212669373">
<ele>210.613281</ele>
<time>2012-07-20T15:09:29Z</time>
<extensions>
<speed>0.0</speed>
<temp>0.00</temp>
<bpm>0</bpm>
<rpm>0.00</rpm>
</extensions>
</trkpt>
<trkpt lat="64.245742798" lon="-20.212669373">
<ele>210.621094</ele>
<time>2012-07-20T15:09:34Z</time>
<extensions>
<speed>0.0</speed>
<temp>0.00</temp>
<bpm>0</bpm>
<rpm>0.00</rpm>
</extensions>
</trkpt>
<trkpt lat="64.245742798" lon="-20.212669373">
<ele>210.625000</ele>
<time>2012-07-20T15:09:39Z</time>
<extensions>
<speed>0.0</speed>
<temp>0.00</temp>
<bpm>0</bpm>
<rpm>0.00</rpm>
</extensions>
</trkpt>
<trkpt lat="64.245742798" lon="-20.212669373">
<ele>210.632813</ele>
<time>2012-07-20T15:09:44Z</time>
<extensions>
<speed>0.0</speed>
<temp>0.00</temp>
<bpm>0</bpm>
<rpm>0.00</rpm>
</extensions>
</trkpt>
<trkpt lat="64.245742798" lon="-20.212667465">
<ele>210.636719</ele>
<time>2012-07-20T15:09:49Z</time>
<extensions>
<speed>0.0</speed>
<temp>0.00</temp>
<bpm>0</bpm>
<rpm>0.00</rpm>
</extensions>
</trkpt>
<trkpt lat="64.245742798" lon="-20.212667465">
<ele>210.648438</ele>
<time>2012-07-20T15:09:54Z</time>
<extensions>
<speed>0.0</speed>
<temp>0.00</temp>
<bpm>0</bpm>
<rpm>0.00</rpm>
</extensions>
</trkpt>
<trkpt lat="64.245742798" lon="-20.212669373">
<ele>210.656250</ele>
<time>2012-07-20T15:09:59Z</time>
<extensions>
<speed>0.0</speed>
<temp>0.00</temp>
<bpm>0</bpm>
<rpm>0.00</rpm>
</extensions>
</trkpt>
<trkpt lat="64.245742798" lon="-20.212669373">
<ele>210.660156</ele>
<time>2012-07-20T15:10:04Z</time>
<extensions>
<speed>0.0</speed>
<temp>0.00</temp>
<bpm>0</bpm>
<rpm>0.00</rpm>
</extensions>
</trkpt>
<trkpt lat="64.245742798" lon="-20.212667465">
<ele>210.648438</ele>
<time>2012-07-20T15:10:09Z</time>
<extensions>
<speed>0.0</speed>
<temp>0.00</temp>
<bpm>0</bpm>
<rpm>0.00</rpm>
</extensions>
</trkpt>
<trkpt lat="64.245742798" lon="-20.212667465">
<ele>210.660156</ele>
<time>2012-07-20T15:10:14Z</time>
<extensions>
<speed>0.0</speed>
<temp>0.00</temp>
<bpm>0</bpm>
<rpm>0.00</rpm>
</extensions>
</trkpt>
<trkpt lat="64.245742798" lon="-20.212667465">
<ele>210.671875</ele>
<time>2012-07-20T15:10:19Z</time>
<speed>0.010000</speed>
<extensions>
<speed>0.0</speed>
<temp>0.00</temp>
<bpm>0</bpm>
<rpm>0.00</rpm>
</extensions>
</trkpt>
<trkpt lat="64.245742798" lon="-20.212667465">
<ele>210.679688</ele>
<time>2012-07-20T15:10:24Z</time>
<extensions>
<speed>0.0</speed>
<temp>0.00</temp>
<bpm>0</bpm>
<rpm>0.00</rpm>
</extensions>
</trkpt>
<trkpt lat="64.245742798" lon="-20.212667465">
<ele>210.683594</ele>
<time>2012-07-20T15:10:29Z</time>
<extensions>
<speed>0.0</speed>
<temp>0.00</temp>
<bpm>0</bpm>
<rpm>0.00</rpm>
</extensions>
</trkpt>
<trkpt lat="64.245742798" lon="-20.212667465">
<ele>210.687500</ele>
<time>2012-07-20T15:10:34Z</time>
<extensions>
<speed>0.0</speed>
<temp>0.00</temp>
<bpm>0</bpm>
<rpm>0.00</rpm>
</extensions>
</trkpt>
<trkpt lat="64.245742798" lon="-20.212667465">
<ele>210.695313</ele>
<time>2012-07-20T15:10:39Z</time>
<extensions>
<speed>0.0</speed>
<temp>0.00</temp>
<bpm>0</bpm>
<rpm>0.00</rpm>
</extensions>
</trkpt>
<trkpt lat="64.245742798" lon="-20.212667465">
<ele>210.703125</ele>
<time>2012-07-20T15:10:44Z</time>
<extensions>
<speed>0.0</speed>
<temp>0.00</temp>
<bpm>0</bpm>
<rpm>0.00</rpm>
</extensions>
</trkpt>
<trkpt lat="64.245742798" lon="-20.212667465">
<ele>210.699219</ele>
<time>2012-07-20T15:10:49Z</time>
<extensions>
<speed>0.0</speed>
<temp>0.00</temp>
<bpm>0</bpm>
<rpm>0.00</rpm>
</extensions>
</trkpt>
<trkpt lat="64.245742798" lon="-20.212667465">
<ele>210.707031</ele>
<time>2012-07-20T15:10:54Z</time>
<extensions>
<speed>0.0</speed>
<temp>0.00</temp>
<bpm>0</bpm>
<rpm>0.00</rpm>
</extensions>
</trkpt>
<trkpt lat="64.245742798" lon="-20.212667465">
<ele>210.714844</ele>
<time>2012-07-20T15:10:59Z</time>
<extensions>
<speed>0.0</speed>
<temp>0.00</temp>
<bpm>0</bpm>
<rpm>0.00</rpm>
</extensions>
</trkpt>
<trkpt lat="64.245742798" lon="-20.212667465">
<ele>210.722656</ele>
<time>2012-07-20T15:11:04Z</time>
<extensions>
<speed>0.0</speed>
<temp>0.00</temp>
<bpm>0</bpm>
<rpm>0.00</rpm>
</extensions>
</trkpt>
<trkpt lat="64.245742798" lon="-20.212667465">
<ele>210.722656</ele>
<time>2012-07-20T15:11:09Z</time>
<extensions>
<speed>0.0</speed>
<temp>0.00</temp>
<bpm>0</bpm>
<rpm>0.00</rpm>
</extensions>
</trkpt>
<trkpt lat="64.245742798" lon="-20.212667465">
<ele>210.730469</ele>
<time>2012-07-20T15:11:14Z</time>
<extensions>
<speed>0.0</speed>
<temp>0.00</temp>
<bpm>0</bpm>
<rpm>0.00</rpm>
</extensions>
</trkpt>
<trkpt lat="64.245742798" lon="-20.212667465">
<ele>210.738281</ele>
<time>2012-07-20T15:11:19Z</time>
<extensions>
<speed>0.0</speed>
<temp>0.00</temp>
<bpm>0</bpm>
<rpm>0.00</rpm>
</extensions>
</trkpt>
<trkpt lat="64.245742798" lon="-20.212667465">
<ele>210.742188</ele>
<time>2012-07-20T15:11:24Z</time>
<extensions>
<speed>0.0</speed>
<temp>0.00</temp>
<bpm>0</bpm>
<rpm>0.00</rpm>
</extensions>
</trkpt>
<trkpt lat="64.245742798" lon="-20.212667465">
<ele>210.738281</ele>
<time>2012-07-20T15:11:29Z</time>
<speed>0.010000</speed>
<extensions>
<speed>0.0</speed>
<temp>0.00</temp>
<bpm>0</bpm>
<rpm>0.00</rpm>
</extensions>
</trkpt>
<trkpt lat="64.245742798" lon="-20.212667465">
<ele>210.750000</ele>
<time>2012-07-20T15:11:34Z</time>
<extensions>
<speed>0.0</speed>
<temp>0.00</temp>
<bpm>0</bpm>
<rpm>0.00</rpm>
</extensions>
</trkpt>
<trkpt lat="64.245742798" lon="-20.212667465">
<ele>210.765625</ele>
<time>2012-07-20T15:11:39Z</time>
<extensions>
<speed>0.0</speed>
<temp>0.00</temp>
<bpm>0</bpm>
<rpm>0.00</rpm>
</extensions>
</trkpt>
<trkpt lat="64.245742798" lon="-20.212667465">
<ele>210.773438</ele>
<time>2012-07-20T15:11:44Z</time>
<extensions>
<speed>0.0</speed>
<temp>0.00</temp>
<bpm>0</bpm>
<rpm>0.00</rpm>
</extensions>
</trkpt>
<trkpt lat="64.245742798" lon="-20.212667465">
<ele>210.785156</ele>
<time>2012-07-20T15:11:49Z</time>
<extensions>
<speed>0.0</speed>
<temp>0.00</temp>
<bpm>0</bpm>
<rpm>0.00</rpm>
</extensions>
</trkpt>
<trkpt lat="64.245742798" lon="-20.212667465">
<ele>210.792969</ele>
<time>2012-07-20T15:11:54Z</time>
<extensions>
<speed>0.0</speed>
<temp>0.00</temp>
<bpm>0</bpm>
<rpm>0.00</rpm>
</extensions>
</trkpt>
<trkpt lat="64.245742798" lon="-20.212667465">
<ele>210.804688</ele>
<time>2012-07-20T15:11:59Z</time>
<extensions>
<speed>0.0</speed>
<temp>0.00</temp>
<bpm>0</bpm>
<rpm>0.00</rpm>
</extensions>
</trkpt>
<trkpt lat="64.245742798" lon="-20.212667465">
<ele>210.808594</ele>
<time>2012-07-20T15:12:04Z</time>
<extensions>
<speed>0.0</speed>
<temp>0.00</temp>
<bpm>0</bpm>
<rpm>0.00</rpm>
</extensions>
</trkpt>
<trkpt lat="64.245742798" lon="-20.212667465">
<ele>210.820313</ele>
<time>2012-07-20T15:12:09Z</time>
<extensions>
<speed>0.0</speed>
<temp>0.00</temp>
<bpm>0</bpm>
<rpm>0.00</rpm>
</extensions>
</trkpt>
<trkpt lat="64.245742798" lon="-20.212667465">
<ele>210.828125</ele>
<time>2012-07-20T15:12:14Z</time>
<extensions>
<speed>0.0</speed>
<temp>0.00</temp>
<bpm>0</bpm>
<rpm>0.00</rpm>
</extensions>
</trkpt>
<trkpt lat="64.245742798" lon="-20.212667465">
<ele>210.839844</ele>
<time>2012-07-20T15:12:19Z</time>
<extensions>
<speed>0.0</speed>
<temp>0.00</temp>
<bpm>0</bpm>
<rpm>0.00</rpm>
</extensions>
</trkpt>
<trkpt lat="64.245742798" lon="-20.212667465">
<ele>210.855469</ele>
<time>2012-07-20T15:12:24Z</time>
<extensions>
<speed>0.0</speed>
<temp>0.00</temp>
<bpm>0</bpm>
<rpm>0.00</rpm>
</extensions>
</trkpt>
<trkpt lat="64.245742798" lon="-20.212667465">
<ele>210.859375</ele>
<time>2012-07-20T15:12:29Z</time>
<extensions>
<speed>0.0</speed>
<temp>0.00</temp>
<bpm>0</bpm>
<rpm>0.00</rpm>
</extensions>
</trkpt>
<trkpt lat="64.245742798" lon="-20.212667465">
<ele>210.878906</ele>
<time>2012-07-20T15:12:34Z</time>
<extensions>
<speed>0.0</speed>
<temp>0.00</temp>
<bpm>0</bpm>
<rpm>0.00</rpm>
</extensions>
</trkpt>
<trkpt lat="64.245742798" lon="-20.212667465">
<ele>210.890625</ele>
<time>2012-07-20T15:12:39Z</time>
<extensions>
<speed>0.0</speed>
<temp>0.00</temp>
<bpm>0</bpm>
<rpm>0.00</rpm>
</extensions>
</trkpt>
<trkpt lat="64.245742798" lon="-20.212667465">
<ele>210.898438</ele>
<time>2012-07-20T15:12:44Z</time>
<extensions>
<speed>0.0</speed>
<temp>0.00</temp>
<bpm>0</bpm>
<rpm>0.00</rpm>
</extensions>
</trkpt>
<trkpt lat="64.245742798" lon="-20.212667465">
<ele>210.910156</ele>
<time>2012-07-20T15:12:49Z</time>
<extensions>
<speed>0.0</speed>
<temp>0.00</temp>
<bpm>0</bpm>
<rpm>0.00</rpm>
</extensions>
</trkpt>
<trkpt lat="64.245742798" lon="-20.212667465">
<ele>210.917969</ele>
<time>2012-07-20T15:12:54Z</time>
<extensions>
<speed>0.0</speed>
<temp>0.00</temp>
<bpm>0</bpm>
<rpm>0.00</rpm>
</extensions>
</trkpt>
<trkpt lat="64.245742798" lon="-20.212667465">
<ele>210.921875</ele>
<time>2012-07-20T15:12:59Z</time>
<extensions>
<speed>0.0</speed>
<temp>0.00</temp>
<bpm>0</bpm>
<rpm>0.00</rpm>
</extensions>
</trkpt>
<trkpt lat="64.245742798" lon="-20.212667465">
<ele>210.929688</ele>
<time>2012-07-20T15:13:04Z</time>
<extensions>
<speed>0.0</speed>
<temp>0.00</temp>
<bpm>0</bpm>
<rpm>0.00</rpm>
</extensions>
</trkpt>
<trkpt lat="64.245742798" lon="-20.212667465">
<ele>210.945313</ele>
<time>2012-07-20T15:13:09Z</time>
<extensions>
<speed>0.0</speed>
<temp>0.00</temp>
<bpm>0</bpm>
<rpm>0.00</rpm>
</extensions>
</trkpt>
<trkpt lat="64.245742798" lon="-20.212667465">
<ele>210.957031</ele>
<time>2012-07-20T15:13:14Z</time>
<extensions>
<speed>0.0</speed>
<temp>0.00</temp>
<bpm>0</bpm>
<rpm>0.00</rpm>
</extensions>
</trkpt>
<trkpt lat="64.245742798" lon="-20.212667465">
<ele>210.964844</ele>
<time>2012-07-20T15:13:19Z</time>
<extensions>
<speed>0.0</speed>
<temp>0.00</temp>
<bpm>0</bpm>
<rpm>0.00</rpm>
</extensions>
</trkpt>
<trkpt lat="64.245742798" lon="-20.212667465">
<ele>210.980469</ele>
<time>2012-07-20T15:13:24Z</time>
<extensions>
<speed>0.0</speed>
<temp>0.00</temp>
<bpm>0</bpm>
<rpm>0.00</rpm>
</extensions>
</trkpt>
<trkpt lat="64.245742798" lon="-20.212667465">
<ele>210.992188</ele>
<time>2012-07-20T15:13:29Z</time>
<extensions>
<speed>0.0</speed>
<temp>0.00</temp>
<bpm>0</bpm>
<rpm>0.00</rpm>
</extensions>
</trkpt>
<trkpt lat="64.245742798" lon="-20.212667465">
<ele>211.000000</ele>
<time>2012-07-20T15:13:34Z</time>
<extensions>
<speed>0.0</speed>
<temp>0.00</temp>
<bpm>0</bpm>
<rpm>0.00</rpm>
</extensions>
</trkpt>
<trkpt lat="64.245742798" lon="-20.212667465">
<ele>211.000000</ele>
<time>2012-07-20T15:13:39Z</time>
<extensions>
<speed>0.0</speed>
<temp>0.00</temp>
<bpm>0</bpm>
<rpm>0.00</rpm>
</extensions>
</trkpt>
<trkpt lat="64.245742798" lon="-20.212667465">
<ele>211.007813</ele>
<time>2012-07-20T15:13:44Z</time>
<extensions>
<speed>0.0</speed>
<temp>0.00</temp>
<bpm>0</bpm>
<rpm>0.00</rpm>
</extensions>
</trkpt>
<trkpt lat="64.245742798" lon="-20.212667465">
<ele>211.015625</ele>
<time>2012-07-20T15:13:49Z</time>
<extensions>
<speed>0.0</speed>
<temp>0.00</temp>
<bpm>0</bpm>
<rpm>0.00</rpm>
</extensions>
</trkpt>
<trkpt lat="64.245742798" lon="-20.212667465">
<ele>211.027344</ele>
<time>2012-07-20T15:13:54Z</time>
<speed>0.010000</speed>
<extensions>
<speed>0.0</speed>
<temp>0.00</temp>
<bpm>0</bpm>
<rpm>0.00</rpm>
</extensions>
</trkpt>
<trkpt lat="64.245742798" lon="-20.212667465">
<ele>211.023438</ele>
<time>2012-07-20T15:13:59Z</time>
<extensions>
<speed>0.0</speed>
<temp>0.00</temp>
<bpm>0</bpm>
<rpm>0.00</rpm>
</extensions>
</trkpt>
<trkpt lat="64.245742798" lon="-20.212667465">
<ele>211.035156</ele>
<time>2012-07-20T15:14:04Z</time>
<extensions>
<speed>0.0</speed>
<temp>0.00</temp>
<bpm>0</bpm>
<rpm>0.00</rpm>
</extensions>
</trkpt>
<trkpt lat="64.245742798" lon="-20.212667465">
<ele>211.042969</ele>
<time>2012-07-20T15:14:09Z</time>
<extensions>
<speed>0.0</speed>
<temp>0.00</temp>
<bpm>0</bpm>
<rpm>0.00</rpm>
</extensions>
</trkpt>
<trkpt lat="64.245742798" lon="-20.212667465">
<ele>211.042969</ele>
<time>2012-07-20T15:14:14Z</time>
<extensions>
<speed>0.0</speed>
<temp>0.00</temp>
<bpm>0</bpm>
<rpm>0.00</rpm>
</extensions>
</trkpt>
<trkpt lat="64.245742798" lon="-20.212667465">
<ele>211.050781</ele>
<time>2012-07-20T15:14:19Z</time>
<extensions>
<speed>0.0</speed>
<temp>0.00</temp>
<bpm>0</bpm>
<rpm>0.00</rpm>
</extensions>
</trkpt>
<trkpt lat="64.245742798" lon="-20.212667465">
<ele>211.058594</ele>
<time>2012-07-20T15:14:24Z</time>
<extensions>
<speed>0.0</speed>
<temp>0.00</temp>
<bpm>0</bpm>
<rpm>0.00</rpm>
</extensions>
</trkpt>
<trkpt lat="64.245742798" lon="-20.212667465">
<ele>211.066406</ele>
<time>2012-07-20T15:14:29Z</time>
<speed>0.010000</speed>
<extensions>
<speed>0.0</speed>
<temp>0.00</temp>
<bpm>0</bpm>
<rpm>0.00</rpm>
</extensions>
</trkpt>
<trkpt lat="64.245742798" lon="-20.212667465">
<ele>211.070313</ele>
<time>2012-07-20T15:14:34Z</time>
<extensions>
<speed>0.0</speed>
<temp>0.00</temp>
<bpm>0</bpm>
<rpm>0.00</rpm>
</extensions>
</trkpt>
<trkpt lat="64.245742798" lon="-20.212667465">
<ele>211.085938</ele>
<time>2012-07-20T15:14:39Z</time>
<extensions>
<speed>0.0</speed>
<temp>0.00</temp>
<bpm>0</bpm>
<rpm>0.00</rpm>
</extensions>
</trkpt>
<trkpt lat="64.245742798" lon="-20.212667465">
<ele>211.089844</ele>
<time>2012-07-20T15:14:44Z</time>
<extensions>
<speed>0.0</speed>
<temp>0.00</temp>
<bpm>0</bpm>
<rpm>0.00</rpm>
</extensions>
</trkpt>
<trkpt lat="64.245742798" lon="-20.212667465">
<ele>211.101563</ele>
<time>2012-07-20T15:14:49Z</time>
<extensions>
<speed>0.0</speed>
<temp>0.00</temp>
<bpm>0</bpm>
<rpm>0.00</rpm>
</extensions>
</trkpt>
<trkpt lat="64.245742798" lon="-20.212667465">
<ele>211.113281</ele>
<time>2012-07-20T15:14:54Z</time>
<extensions>
<speed>0.0</speed>
<temp>0.00</temp>
<bpm>0</bpm>
<rpm>0.00</rpm>
</extensions>
</trkpt>
<trkpt lat="64.245742798" lon="-20.212667465">
<ele>211.121094</ele>
<time>2012-07-20T15:14:59Z</time>
<extensions>
<speed>0.0</speed>
<temp>0.00</temp>
<bpm>0</bpm>
<rpm>0.00</rpm>
</extensions>
</trkpt>
<trkpt lat="64.245742798" lon="-20.212667465">
<ele>211.121094</ele>
<time>2012-07-20T15:15:04Z</time>
<extensions>
<speed>0.0</speed>
<temp>0.00</temp>
<bpm>0</bpm>
<rpm>0.00</rpm>
</extensions>
</trkpt>
<trkpt lat="64.245742798" lon="-20.212665558">
<ele>211.125000</ele>
<time>2012-07-20T15:15:09Z</time>
<extensions>
<speed>0.0</speed>
<temp>0.00</temp>
<bpm>0</bpm>
<rpm>0.00</rpm>
</extensions>
</trkpt>
<trkpt lat="64.245742798" lon="-20.212667465">
<ele>211.128906</ele>
<time>2012-07-20T15:15:14Z</time>
<extensions>
<speed>0.0</speed>
<temp>0.00</temp>
<bpm>0</bpm>
<rpm>0.00</rpm>
</extensions>
</trkpt>
<trkpt lat="64.245742798" lon="-20.212665558">
<ele>211.125000</ele>
<time>2012-07-20T15:15:19Z</time>
<extensions>
<speed>0.0</speed>
<temp>0.00</temp>
<bpm>0</bpm>
<rpm>0.00</rpm>
</extensions>
</trkpt>
<trkpt lat="64.245742798" lon="-20.212665558">
<ele>211.132813</ele>
<time>2012-07-20T15:15:24Z</time>
<extensions>
<speed>0.0</speed>
<temp>0.00</temp>
<bpm>0</bpm>
<rpm>0.00</rpm>
</extensions>
</trkpt>
<trkpt lat="64.245742798" lon="-20.212665558">
<ele>211.144531</ele>
<time>2012-07-20T15:15:29Z</time>
<extensions>
<speed>0.0</speed>
<temp>0.00</temp>
<bpm>0</bpm>
<rpm>0.00</rpm>
</extensions>
</trkpt>
<trkpt lat="64.245742798" lon="-20.212665558">
<ele>211.152344</ele>
<time>2012-07-20T15:15:34Z</time>
<extensions>
<speed>0.0</speed>
<temp>0.00</temp>
<bpm>0</bpm>
<rpm>0.00</rpm>
</extensions>
</trkpt>
<trkpt lat="64.245742798" lon="-20.212665558">
<ele>211.152344</ele>
<time>2012-07-20T15:15:39Z</time>
<extensions>
<speed>0.0</speed>
<temp>0.00</temp>
<bpm>0</bpm>
<rpm>0.00</rpm>
</extensions>
</trkpt>
<trkpt lat="64.245742798" lon="-20.212665558">
<ele>211.160156</ele>
<time>2012-07-20T15:15:44Z</time>
<extensions>
<speed>0.0</speed>
<temp>0.00</temp>
<bpm>0</bpm>
<rpm>0.00</rpm>
</extensions>
</trkpt>
<trkpt lat="64.245742798" lon="-20.212665558">
<ele>211.160156</ele>
<time>2012-07-20T15:15:49Z</time>
<extensions>
<speed>0.0</speed>
<temp>0.00</temp>
<bpm>0</bpm>
<rpm>0.00</rpm>
</extensions>
</trkpt>
<trkpt lat="64.245742798" lon="-20.212665558">
<ele>211.167969</ele>
<time>2012-07-20T15:15:54Z</time>
<extensions>
<speed>0.0</speed>
<temp>0.00</temp>
<bpm>0</bpm>
<rpm>0.00</rpm>
</extensions>
</trkpt>
<trkpt lat="64.245742798" lon="-20.212665558">
<ele>211.179688</ele>
<time>2012-07-20T15:15:59Z</time>
<extensions>
<speed>0.0</speed>
<temp>0.00</temp>
<bpm>0</bpm>
<rpm>0.00</rpm>
</extensions>
</trkpt>
<trkpt lat="64.245742798" lon="-20.212665558">
<ele>211.183594</ele>
<time>2012-07-20T15:16:04Z</time>
<extensions>
<speed>0.0</speed>
<temp>0.00</temp>
<bpm>0</bpm>
<rpm>0.00</rpm>
</extensions>
</trkpt>
<trkpt lat="64.245742798" lon="-20.212665558">
<ele>211.179688</ele>
<time>2012-07-20T15:16:09Z</time>
<extensions>
<speed>0.0</speed>
<temp>0.00</temp>
<bpm>0</bpm>
<rpm>0.00</rpm>
</extensions>
</trkpt>
<trkpt lat="64.245742798" lon="-20.212665558">
<ele>211.179688</ele>
<time>2012-07-20T15:16:14Z</time>
<speed>0.010000</speed>
<extensions>
<speed>0.0</speed>
<temp>0.00</temp>
<bpm>0</bpm>
<rpm>0.00</rpm>
</extensions>
</trkpt>
<trkpt lat="64.245742798" lon="-20.212665558">
<ele>211.179688</ele>
<time>2012-07-20T15:16:19Z</time>
<extensions>
<speed>0.0</speed>
<temp>0.00</temp>
<bpm>0</bpm>
<rpm>0.00</rpm>
</extensions>
</trkpt>
<trkpt lat="64.245742798" lon="-20.212665558">
<ele>211.175781</ele>
<time>2012-07-20T15:16:24Z</time>
<extensions>
<speed>0.0</speed>
<temp>0.00</temp>
<bpm>0</bpm>
<rpm>0.00</rpm>
</extensions>
</trkpt>
<trkpt lat="64.245742798" lon="-20.212665558">
<ele>211.175781</ele>
<time>2012-07-20T15:16:29Z</time>
<extensions>
<speed>0.0</speed>
<temp>0.00</temp>
<bpm>0</bpm>
<rpm>0.00</rpm>
</extensions>
</trkpt>
<trkpt lat="64.245742798" lon="-20.212663651">
<ele>211.179688</ele>
<time>2012-07-20T15:16:34Z</time>
<extensions>
<speed>0.0</speed>
<temp>0.00</temp>
<bpm>0</bpm>
<rpm>0.00</rpm>
</extensions>
</trkpt>
<trkpt lat="64.245742798" lon="-20.212663651">
<ele>211.179688</ele>
<time>2012-07-20T15:16:39Z</time>
<extensions>
<speed>0.0</speed>
<temp>0.00</temp>
<bpm>0</bpm>
<rpm>0.00</rpm>
</extensions>
</trkpt>
<trkpt lat="64.245742798" lon="-20.212663651">
<ele>211.183594</ele>
<time>2012-07-20T15:16:44Z</time>
<extensions>
<speed>0.0</speed>
<temp>0.00</temp>
<bpm>0</bpm>
<rpm>0.00</rpm>
</extensions>
</trkpt>
<trkpt lat="64.245742798" lon="-20.212663651">
<ele>211.191406</ele>
<time>2012-07-20T15:16:49Z</time>
<extensions>
<speed>0.0</speed>
<temp>0.00</temp>
<bpm>0</bpm>
<rpm>0.00</rpm>
</extensions>
</trkpt>
<trkpt lat="64.245742798" lon="-20.212663651">
<ele>211.195313</ele>
<time>2012-07-20T15:16:54Z</time>
<extensions>
<speed>0.0</speed>
<temp>0.00</temp>
<bpm>0</bpm>
<rpm>0.00</rpm>
</extensions>
</trkpt>
<trkpt lat="64.245742798" lon="-20.212663651">
<ele>211.195313</ele>
<time>2012-07-20T15:16:59Z</time>
<extensions>
<speed>0.0</speed>
<temp>0.00</temp>
<bpm>0</bpm>
<rpm>0.00</rpm>
</extensions>
</trkpt>
<trkpt lat="64.245742798" lon="-20.212663651">
<ele>211.199219</ele>
<time>2012-07-20T15:17:04Z</time>
<extensions>
<speed>0.0</speed>
<temp>0.00</temp>
<bpm>0</bpm>
<rpm>0.00</rpm>
</extensions>
</trkpt>
<trkpt lat="64.245742798" lon="-20.212663651">
<ele>211.203125</ele>
<time>2012-07-20T15:17:09Z</time>
<extensions>
<speed>0.0</speed>
<temp>0.00</temp>
<bpm>0</bpm>
<rpm>0.00</rpm>
</extensions>
</trkpt>
<trkpt lat="64.245742798" lon="-20.212663651">
<ele>211.207031</ele>
<time>2012-07-20T15:17:14Z</time>
<extensions>
<speed>0.0</speed>
<temp>0.00</temp>
<bpm>0</bpm>
<rpm>0.00</rpm>
</extensions>
</trkpt>
<trkpt lat="64.245742798" lon="-20.212663651">
<ele>211.210938</ele>
<time>2012-07-20T15:17:19Z</time>
<speed>0.010000</speed>
<extensions>
<speed>0.0</speed>
<temp>0.00</temp>
<bpm>0</bpm>
<rpm>0.00</rpm>
</extensions>
</trkpt>
<trkpt lat="64.245742798" lon="-20.212663651">
<ele>211.218750</ele>
<time>2012-07-20T15:17:24Z</time>
<extensions>
<speed>0.0</speed>
<temp>0.00</temp>
<bpm>0</bpm>
<rpm>0.00</rpm>
</extensions>
</trkpt>
<trkpt lat="64.245742798" lon="-20.212663651">
<ele>211.222656</ele>
<time>2012-07-20T15:17:29Z</time>
<extensions>
<speed>0.0</speed>
<temp>0.00</temp>
<bpm>0</bpm>
<rpm>0.00</rpm>
</extensions>
</trkpt>
<trkpt lat="64.245742798" lon="-20.212663651">
<ele>211.226563</ele>
<time>2012-07-20T15:17:34Z</time>
<extensions>
<speed>0.0</speed>
<temp>0.00</temp>
<bpm>0</bpm>
<rpm>0.00</rpm>
</extensions>
</trkpt>
<trkpt lat="64.245742798" lon="-20.212663651">
<ele>211.222656</ele>
<time>2012-07-20T15:17:39Z</time>
<speed>0.010000</speed>
<extensions>
<speed>0.0</speed>
<temp>0.00</temp>
<bpm>0</bpm>
<rpm>0.00</rpm>
</extensions>
</trkpt>
<trkpt lat="64.245742798" lon="-20.212663651">
<ele>211.230469</ele>
<time>2012-07-20T15:17:44Z</time>
<extensions>
<speed>0.0</speed>
<temp>0.00</temp>
<bpm>0</bpm>
<rpm>0.00</rpm>
</extensions>
</trkpt>
<trkpt lat="64.245742798" lon="-20.212663651">
<ele>211.226563</ele>
<time>2012-07-20T15:17:49Z</time>
<extensions>
<speed>0.0</speed>
<temp>0.00</temp>
<bpm>0</bpm>
<rpm>0.00</rpm>
</extensions>
</trkpt>
<trkpt lat="64.245742798" lon="-20.212663651">
<ele>211.230469</ele>
<time>2012-07-20T15:17:54Z</time>
<extensions>
<speed>0.0</speed>
<temp>0.00</temp>
<bpm>0</bpm>
<rpm>0.00</rpm>
</extensions>
</trkpt>
<trkpt lat="64.245742798" lon="-20.212663651">
<ele>211.234375</ele>
<time>2012-07-20T15:17:59Z</time>
<extensions>
<speed>0.0</speed>
<temp>0.00</temp>
<bpm>0</bpm>
<rpm>0.00</rpm>
</extensions>
</trkpt>
<trkpt lat="64.245742798" lon="-20.212663651">
<ele>211.234375</ele>
<time>2012-07-20T15:18:04Z</time>
<extensions>
<speed>0.0</speed>
<temp>0.00</temp>
<bpm>0</bpm>
<rpm>0.00</rpm>
</extensions>
</trkpt>
<trkpt lat="64.245742798" lon="-20.212663651">
<ele>211.230469</ele>
<time>2012-07-20T15:18:09Z</time>
<extensions>
<speed>0.0</speed>
<temp>0.00</temp>
<bpm>0</bpm>
<rpm>0.00</rpm>
</extensions>
</trkpt>
<trkpt lat="64.245742798" lon="-20.212663651">
<ele>211.226563</ele>
<time>2012-07-20T15:18:14Z</time>
<extensions>
<speed>0.0</speed>
<temp>0.00</temp>
<bpm>0</bpm>
<rpm>0.00</rpm>
</extensions>
</trkpt>
<trkpt lat="64.245742798" lon="-20.212663651">
<ele>211.226563</ele>
<time>2012-07-20T15:18:19Z</time>
<extensions>
<speed>0.0</speed>
<temp>0.00</temp>
<bpm>0</bpm>
<rpm>0.00</rpm>
</extensions>
</trkpt>
<trkpt lat="64.245742798" lon="-20.212663651">
<ele>211.226563</ele>
<time>2012-07-20T15:18:24Z</time>
<extensions>
<speed>0.0</speed>
<temp>0.00</temp>
<bpm>0</bpm>
<rpm>0.00</rpm>
</extensions>
</trkpt>
<trkpt lat="64.245742798" lon="-20.212663651">
<ele>211.226563</ele>
<time>2012-07-20T15:18:29Z</time>
<extensions>
<speed>0.0</speed>
<temp>0.00</temp>
<bpm>0</bpm>
<rpm>0.00</rpm>
</extensions>
</trkpt>
<trkpt lat="64.245742798" lon="-20.212663651">
<ele>211.226563</ele>
<time>2012-07-20T15:18:34Z</time>
<extensions>
<speed>0.0</speed>
<temp>0.00</temp>
<bpm>0</bpm>
<rpm>0.00</rpm>
</extensions>
</trkpt>
<trkpt lat="64.245742798" lon="-20.212663651">
<ele>211.226563</ele>
<time>2012-07-20T15:18:39Z</time>
<extensions>
<speed>0.0</speed>
<temp>0.00</temp>
<bpm>0</bpm>
<rpm>0.00</rpm>
</extensions>
</trkpt>
<trkpt lat="64.245742798" lon="-20.212663651">
<ele>211.222656</ele>
<time>2012-07-20T15:18:44Z</time>
<extensions>
<speed>0.0</speed>
<temp>0.00</temp>
<bpm>0</bpm>
<rpm>0.00</rpm>
</extensions>
</trkpt>
<trkpt lat="64.245742798" lon="-20.212663651">
<ele>211.222656</ele>
<time>2012-07-20T15:18:49Z</time>
<extensions>
<speed>0.0</speed>
<temp>0.00</temp>
<bpm>0</bpm>
<rpm>0.00</rpm>
</extensions>
</trkpt>
<trkpt lat="64.245742798" lon="-20.212663651">
<ele>211.222656</ele>
<time>2012-07-20T15:18:54Z</time>
<extensions>
<speed>0.0</speed>
<temp>0.00</temp>
<bpm>0</bpm>
<rpm>0.00</rpm>
</extensions>
</trkpt>
<trkpt lat="64.245742798" lon="-20.212663651">
<ele>211.222656</ele>
<time>2012-07-20T15:18:59Z</time>
<extensions>
<speed>0.0</speed>
<temp>0.00</temp>
<bpm>0</bpm>
<rpm>0.00</rpm>
</extensions>
</trkpt>
<trkpt lat="64.245742798" lon="-20.212663651">
<ele>211.222656</ele>
<time>2012-07-20T15:19:04Z</time>
<extensions>
<speed>0.0</speed>
<temp>0.00</temp>
<bpm>0</bpm>
<rpm>0.00</rpm>
</extensions>
</trkpt>
<trkpt lat="64.245742798" lon="-20.212663651">
<ele>211.222656</ele>
<time>2012-07-20T15:19:09Z</time>
<extensions>
<speed>0.0</speed>
<temp>0.00</temp>
<bpm>0</bpm>
<rpm>0.00</rpm>
</extensions>
</trkpt>
<trkpt lat="64.245742798" lon="-20.212663651">
<ele>211.222656</ele>
<time>2012-07-20T15:19:14Z</time>
<extensions>
<speed>0.0</speed>
<temp>0.00</temp>
<bpm>0</bpm>
<rpm>0.00</rpm>
</extensions>
</trkpt>
<trkpt lat="64.245742798" lon="-20.212663651">
<ele>211.226563</ele>
<time>2012-07-20T15:19:19Z</time>
<extensions>
<speed>0.0</speed>
<temp>0.00</temp>
<bpm>0</bpm>
<rpm>0.00</rpm>
</extensions>
</trkpt>
<trkpt lat="64.245742798" lon="-20.212663651">
<ele>211.226563</ele>
<time>2012-07-20T15:19:24Z</time>
<extensions>
<speed>0.0</speed>
<temp>0.00</temp>
<bpm>0</bpm>
<rpm>0.00</rpm>
</extensions>
</trkpt>
<trkpt lat="64.245742798" lon="-20.212663651">
<ele>211.222656</ele>
<time>2012-07-20T15:19:29Z</time>
<extensions>
<speed>0.0</speed>
<temp>0.00</temp>
<bpm>0</bpm>
<rpm>0.00</rpm>
</extensions>
</trkpt>
<trkpt lat="64.245742798" lon="-20.212663651">
<ele>211.218750</ele>
<time>2012-07-20T15:19:34Z</time>
<extensions>
<speed>0.0</speed>
<temp>0.00</temp>
<bpm>0</bpm>
<rpm>0.00</rpm>
</extensions>
</trkpt>
<trkpt lat="64.245742798" lon="-20.212663651">
<ele>211.214844</ele>
<time>2012-07-20T15:19:39Z</time>
<extensions>
<speed>0.0</speed>
<temp>0.00</temp>
<bpm>0</bpm>
<rpm>0.00</rpm>
</extensions>
</trkpt>
<trkpt lat="64.245742798" lon="-20.212663651">
<ele>211.210938</ele>
<time>2012-07-20T15:19:44Z</time>
<extensions>
<speed>0.0</speed>
<temp>0.00</temp>
<bpm>0</bpm>
<rpm>0.00</rpm>
</extensions>
</trkpt>
<trkpt lat="64.245742798" lon="-20.212663651">
<ele>211.207031</ele>
<time>2012-07-20T15:19:49Z</time>
<extensions>
<speed>0.0</speed>
<temp>0.00</temp>
<bpm>0</bpm>
<rpm>0.00</rpm>
</extensions>
</trkpt>
<trkpt lat="64.245742798" lon="-20.212661743">
<ele>211.203125</ele>
<time>2012-07-20T15:19:54Z</time>
<extensions>
<speed>0.0</speed>
<temp>0.00</temp>
<bpm>0</bpm>
<rpm>0.00</rpm>
</extensions>
</trkpt>
<trkpt lat="64.245742798" lon="-20.212661743">
<ele>211.199219</ele>
<time>2012-07-20T15:19:59Z</time>
<extensions>
<speed>0.0</speed>
<temp>0.00</temp>
<bpm>0</bpm>
<rpm>0.00</rpm>
</extensions>
</trkpt>
<trkpt lat="64.245742798" lon="-20.212661743">
<ele>211.195313</ele>
<time>2012-07-20T15:20:04Z</time>
<extensions>
<speed>0.0</speed>
<temp>0.00</temp>
<bpm>0</bpm>
<rpm>0.00</rpm>
</extensions>
</trkpt>
<trkpt lat="64.245742798" lon="-20.212661743">
<ele>211.187500</ele>
<time>2012-07-20T15:20:09Z</time>
<extensions>
<speed>0.0</speed>
<temp>0.00</temp>
<bpm>0</bpm>
<rpm>0.00</rpm>
</extensions>
</trkpt>
<trkpt lat="64.245742798" lon="-20.212661743">
<ele>211.183594</ele>
<time>2012-07-20T15:20:14Z</time>
<extensions>
<speed>0.0</speed>
<temp>0.00</temp>
<bpm>0</bpm>
<rpm>0.00</rpm>
</extensions>
</trkpt>
<trkpt lat="64.245742798" lon="-20.212661743">
<ele>211.179688</ele>
<time>2012-07-20T15:20:19Z</time>
<extensions>
<speed>0.0</speed>
<temp>0.00</temp>
<bpm>0</bpm>
<rpm>0.00</rpm>
</extensions>
</trkpt>
<trkpt lat="64.245742798" lon="-20.212661743">
<ele>211.179688</ele>
<time>2012-07-20T15:20:24Z</time>
<extensions>
<speed>0.0</speed>
<temp>0.00</temp>
<bpm>0</bpm>
<rpm>0.00</rpm>
</extensions>
</trkpt>
<trkpt lat="64.245742798" lon="-20.212661743">
<ele>211.171875</ele>
<time>2012-07-20T15:20:29Z</time>
<extensions>
<speed>0.0</speed>
<temp>0.00</temp>
<bpm>0</bpm>
<rpm>0.00</rpm>
</extensions>
</trkpt>
<trkpt lat="64.245742798" lon="-20.212661743">
<ele>211.167969</ele>
<time>2012-07-20T15:20:34Z</time>
<extensions>
<speed>0.0</speed>
<temp>0.00</temp>
<bpm>0</bpm>
<rpm>0.00</rpm>
</extensions>
</trkpt>
<trkpt lat="64.245742798" lon="-20.212661743">
<ele>211.167969</ele>
<time>2012-07-20T15:20:39Z</time>
<extensions>
<speed>0.0</speed>
<temp>0.00</temp>
<bpm>0</bpm>
<rpm>0.00</rpm>
</extensions>
</trkpt>
<trkpt lat="64.245742798" lon="-20.212661743">
<ele>211.167969</ele>
<time>2012-07-20T15:20:44Z</time>
<speed>0.010000</speed>
<extensions>
<speed>0.0</speed>
<temp>0.00</temp>
<bpm>0</bpm>
<rpm>0.00</rpm>
</extensions>
</trkpt>
<trkpt lat="64.245742798" lon="-20.212661743">
<ele>211.164063</ele>
<time>2012-07-20T15:20:49Z</time>
<extensions>
<speed>0.0</speed>
<temp>0.00</temp>
<bpm>0</bpm>
<rpm>0.00</rpm>
</extensions>
</trkpt>
<trkpt lat="64.245742798" lon="-20.212661743">
<ele>211.160156</ele>
<time>2012-07-20T15:20:54Z</time>
<extensions>
<speed>0.0</speed>
<temp>0.00</temp>
<bpm>0</bpm>
<rpm>0.00</rpm>
</extensions>
</trkpt>
<trkpt lat="64.245742798" lon="-20.212659836">
<ele>211.156250</ele>
<time>2012-07-20T15:20:59Z</time>
<extensions>
<speed>0.0</speed>
<temp>0.00</temp>
<bpm>0</bpm>
<rpm>0.00</rpm>
</extensions>
</trkpt>
<trkpt lat="64.245742798" lon="-20.212661743">
<ele>211.156250</ele>
<time>2012-07-20T15:21:04Z</time>
<extensions>
<speed>0.0</speed>
<temp>0.00</temp>
<bpm>0</bpm>
<rpm>0.00</rpm>
</extensions>
</trkpt>
<trkpt lat="64.245742798" lon="-20.212659836">
<ele>211.148438</ele>
<time>2012-07-20T15:21:09Z</time>
<extensions>
<speed>0.0</speed>
<temp>0.00</temp>
<bpm>0</bpm>
<rpm>0.00</rpm>
</extensions>
</trkpt>
<trkpt lat="64.245742798" lon="-20.212659836">
<ele>211.144531</ele>
<time>2012-07-20T15:21:14Z</time>
<speed>0.010000</speed>
<extensions>
<speed>0.0</speed>
<temp>0.00</temp>
<bpm>0</bpm>
<rpm>0.00</rpm>
</extensions>
</trkpt>
<trkpt lat="64.245742798" lon="-20.212659836">
<ele>211.136719</ele>
<time>2012-07-20T15:21:19Z</time>
<extensions>
<speed>0.0</speed>
<temp>0.00</temp>
<bpm>0</bpm>
<rpm>0.00</rpm>
</extensions>
</trkpt>
<trkpt lat="64.245742798" lon="-20.212659836">
<ele>211.132813</ele>
<time>2012-07-20T15:21:24Z</time>
<speed>0.010000</speed>
<extensions>
<speed>0.0</speed>
<temp>0.00</temp>
<bpm>0</bpm>
<rpm>0.00</rpm>
</extensions>
</trkpt>
<trkpt lat="64.245742798" lon="-20.212659836">
<ele>211.132813</ele>
<time>2012-07-20T15:21:29Z</time>
<extensions>
<speed>0.0</speed>
<temp>0.00</temp>
<bpm>0</bpm>
<rpm>0.00</rpm>
</extensions>
</trkpt>
<trkpt lat="64.245742798" lon="-20.212659836">
<ele>211.125000</ele>
<time>2012-07-20T15:21:34Z</time>
<extensions>
<speed>0.0</speed>
<temp>0.00</temp>
<bpm>0</bpm>
<rpm>0.00</rpm>
</extensions>
</trkpt>
<trkpt lat="64.245742798" lon="-20.212659836">
<ele>211.121094</ele>
<time>2012-07-20T15:21:39Z</time>
<speed>0.010000</speed>
<extensions>
<speed>0.0</speed>
<temp>0.00</temp>
<bpm>0</bpm>
<rpm>0.00</rpm>
</extensions>
</trkpt>
<trkpt lat="64.245742798" lon="-20.212659836">
<ele>211.125000</ele>
<time>2012-07-20T15:21:44Z</time>
<extensions>
<speed>0.0</speed>
<temp>0.00</temp>
<bpm>0</bpm>
<rpm>0.00</rpm>
</extensions>
</trkpt>
<trkpt lat="64.245742798" lon="-20.212659836">
<ele>211.125000</ele>
<time>2012-07-20T15:21:49Z</time>
<speed>0.010000</speed>
<extensions>
<speed>0.0</speed>
<temp>0.00</temp>
<bpm>0</bpm>
<rpm>0.00</rpm>
</extensions>
</trkpt>
<trkpt lat="64.245742798" lon="-20.212659836">
<ele>211.125000</ele>
<time>2012-07-20T15:21:54Z</time>
<extensions>
<speed>0.0</speed>
<temp>0.00</temp>
<bpm>0</bpm>
<rpm>0.00</rpm>
</extensions>
</trkpt>
<trkpt lat="64.245742798" lon="-20.212659836">
<ele>211.125000</ele>
<time>2012-07-20T15:21:59Z</time>
<extensions>
<speed>0.0</speed>
<temp>0.00</temp>
<bpm>0</bpm>
<rpm>0.00</rpm>
</extensions>
</trkpt>
<trkpt lat="64.245742798" lon="-20.212659836">
<ele>211.125000</ele>
<time>2012-07-20T15:22:04Z</time>
<extensions>
<speed>0.0</speed>
<temp>0.00</temp>
<bpm>0</bpm>
<rpm>0.00</rpm>
</extensions>
</trkpt>
<trkpt lat="64.245742798" lon="-20.212659836">
<ele>211.125000</ele>
<time>2012-07-20T15:22:09Z</time>
<extensions>
<speed>0.0</speed>
<temp>0.00</temp>
<bpm>0</bpm>
<rpm>0.00</rpm>
</extensions>
</trkpt>
<trkpt lat="64.245742798" lon="-20.212659836">
<ele>211.125000</ele>
<time>2012-07-20T15:22:14Z</time>
<extensions>
<speed>0.0</speed>
<temp>0.00</temp>
<bpm>0</bpm>
<rpm>0.00</rpm>
</extensions>
</trkpt>
<trkpt lat="64.245742798" lon="-20.212659836">
<ele>211.128906</ele>
<time>2012-07-20T15:22:19Z</time>
<speed>0.010000</speed>
<extensions>
<speed>0.0</speed>
<temp>0.00</temp>
<bpm>0</bpm>
<rpm>0.00</rpm>
</extensions>
</trkpt>
<trkpt lat="64.245742798" lon="-20.212657928">
<ele>211.128906</ele>
<time>2012-07-20T15:22:24Z</time>
<speed>0.010000</speed>
<extensions>
<speed>0.0</speed>
<temp>0.00</temp>
<bpm>0</bpm>
<rpm>0.00</rpm>
</extensions>
</trkpt>
<trkpt lat="64.245742798" lon="-20.212659836">
<ele>211.164063</ele>
<time>2012-07-20T15:22:29Z</time>
<speed>0.310000</speed>
<extensions>
<speed>0.3</speed>
<temp>0.00</temp>
<bpm>0</bpm>
<rpm>0.00</rpm>
</extensions>
</trkpt>
<trkpt lat="64.245742798" lon="-20.212663651">
<ele>211.226563</ele>
<time>2012-07-20T15:22:34Z</time>
<speed>0.010000</speed>
<extensions>
<speed>0.0</speed>
<temp>0.00</temp>
<bpm>0</bpm>
<rpm>0.00</rpm>
</extensions>
</trkpt>
<trkpt lat="64.245750427" lon="-20.212669373">
<ele>211.652344</ele>
<time>2012-07-20T15:22:39Z</time>
<speed>0.140000</speed>
<extensions>
<speed>0.1</speed>
<temp>0.00</temp>
<bpm>0</bpm>
<rpm>0.00</rpm>
</extensions>
</trkpt>
<trkpt lat="64.245735168" lon="-20.212654114">
<ele>211.906250</ele>
<time>2012-07-20T15:22:44Z</time>
<speed>1.080000</speed>
<extensions>
<speed>1.1</speed>
<temp>0.00</temp>
<bpm>0</bpm>
<rpm>0.00</rpm>
</extensions>
</trkpt>
<trkpt lat="64.245704651" lon="-20.212591171">
<ele>212.648438</ele>
<time>2012-07-20T15:22:49Z</time>
<speed>0.340000</speed>
<extensions>
<speed>0.3</speed>
<temp>0.00</temp>
<bpm>0</bpm>
<rpm>0.00</rpm>
</extensions>
</trkpt>
<trkpt lat="64.245697021" lon="-20.212575912">
<ele>213.328125</ele>
<time>2012-07-20T15:22:54Z</time>
<speed>0.590000</speed>
<extensions>
<speed>0.6</speed>
<temp>0.00</temp>
<bpm>0</bpm>
<rpm>0.00</rpm>
</extensions>
</trkpt>
<trkpt lat="64.245681763" lon="-20.212589264">
<ele>213.550781</ele>
<time>2012-07-20T15:22:59Z</time>
<speed>0.090000</speed>
<extensions>
<speed>0.1</speed>
<temp>0.00</temp>
<bpm>0</bpm>
<rpm>0.00</rpm>
</extensions>
</trkpt>
<trkpt lat="64.245681763" lon="-20.212598801">
<ele>213.488281</ele>
<time>2012-07-20T15:23:04Z</time>
<speed>0.070000</speed>
<extensions>
<speed>0.1</speed>
<temp>0.00</temp>
<bpm>0</bpm>
<rpm>0.00</rpm>
</extensions>
</trkpt>
<trkpt lat="64.245681763" lon="-20.212598801">
<ele>213.523438</ele>
<time>2012-07-20T15:23:09Z</time>
<speed>0.340000</speed>
<extensions>
<speed>0.3</speed>
<temp>0.00</temp>
<bpm>0</bpm>
<rpm>0.00</rpm>
</extensions>
</trkpt>
<trkpt lat="64.245681763" lon="-20.212606430">
<ele>213.550781</ele>
<time>2012-07-20T15:23:14Z</time>
<extensions>
<speed>0.0</speed>
<temp>0.00</temp>
<bpm>0</bpm>
<rpm>0.00</rpm>
</extensions>
</trkpt>
<trkpt lat="64.245681763" lon="-20.212606430">
<ele>213.578125</ele>
<time>2012-07-20T15:23:19Z</time>
<extensions>
<speed>0.0</speed>
<temp>0.00</temp>
<bpm>0</bpm>
<rpm>0.00</rpm>
</extensions>
</trkpt>
<trkpt lat="64.245681763" lon="-20.212606430">
<ele>213.578125</ele>
<time>2012-07-20T15:23:24Z</time>
<speed>0.020000</speed>
<extensions>
<speed>0.0</speed>
<temp>0.00</temp>
<bpm>0</bpm>
<rpm>0.00</rpm>
</extensions>
</trkpt>
<trkpt lat="64.245681763" lon="-20.212606430">
<ele>213.562500</ele>
<time>2012-07-20T15:23:29Z</time>
<speed>0.010000</speed>
<extensions>
<speed>0.0</speed>
<temp>0.00</temp>
<bpm>0</bpm>
<rpm>0.00</rpm>
</extensions>
</trkpt>
<trkpt lat="64.245681763" lon="-20.212606430">
<ele>213.558594</ele>
<time>2012-07-20T15:23:34Z</time>
<speed>0.010000</speed>
<extensions>
<speed>0.0</speed>
<temp>0.00</temp>
<bpm>0</bpm>
<rpm>0.00</rpm>
</extensions>
</trkpt>
<trkpt lat="64.245681763" lon="-20.212606430">
<ele>213.515625</ele>
<time>2012-07-20T15:23:39Z</time>
<speed>0.020000</speed>
<extensions>
<speed>0.0</speed>
<temp>0.00</temp>
<bpm>0</bpm>
<rpm>0.00</rpm>
</extensions>
</trkpt>
<trkpt lat="64.245681763" lon="-20.212606430">
<ele>213.515625</ele>
<time>2012-07-20T15:23:44Z</time>
<speed>0.010000</speed>
<extensions>
<speed>0.0</speed>
<temp>0.00</temp>
<bpm>0</bpm>
<rpm>0.00</rpm>
</extensions>
</trkpt>
<trkpt lat="64.245681763" lon="-20.212606430">
<ele>213.507813</ele>
<time>2012-07-20T15:23:49Z</time>
<extensions>
<speed>0.0</speed>
<temp>0.00</temp>
<bpm>0</bpm>
<rpm>0.00</rpm>
</extensions>
</trkpt>
<trkpt lat="64.245681763" lon="-20.212606430">
<ele>213.503906</ele>
<time>2012-07-20T15:23:54Z</time>
<extensions>
<speed>0.0</speed>
<temp>0.00</temp>
<bpm>0</bpm>
<rpm>0.00</rpm>
</extensions>
</trkpt>
<trkpt lat="64.245681763" lon="-20.212606430">
<ele>213.500000</ele>
<time>2012-07-20T15:23:59Z</time>
<speed>0.010000</speed>
<extensions>
<speed>0.0</speed>
<temp>0.00</temp>
<bpm>0</bpm>
<rpm>0.00</rpm>
</extensions>
</trkpt>
<trkpt lat="64.245681763" lon="-20.212606430">
<ele>213.742188</ele>
<time>2012-07-20T15:24:04Z</time>
<speed>0.050000</speed>
<extensions>
<speed>0.1</speed>
<temp>0.00</temp>
<bpm>0</bpm>
<rpm>0.00</rpm>
</extensions>
</trkpt>
<trkpt lat="64.245681763" lon="-20.212604523">
<ele>214.679688</ele>
<time>2012-07-20T15:24:09Z</time>
<speed>0.030000</speed>
<extensions>
<speed>0.0</speed>
<temp>0.00</temp>
<bpm>0</bpm>
<rpm>0.00</rpm>
</extensions>
</trkpt>
<trkpt lat="64.245681763" lon="-20.212600708">
<ele>215.542969</ele>
<time>2012-07-20T15:24:14Z</time>
<speed>0.030000</speed>
<extensions>
<speed>0.0</speed>
<temp>0.00</temp>
<bpm>0</bpm>
<rpm>0.00</rpm>
</extensions>
</trkpt>
<trkpt lat="64.245674133" lon="-20.212608337">
<ele>215.257813</ele>
<time>2012-07-20T15:24:19Z</time>
<speed>0.470000</speed>
<extensions>
<speed>0.5</speed>
<temp>0.00</temp>
<bpm>0</bpm>
<rpm>0.00</rpm>
</extensions>
</trkpt>
<trkpt lat="64.245666504" lon="-20.212589264">
<ele>214.179688</ele>
<time>2012-07-20T15:24:24Z</time>
<speed>0.020000</speed>
<extensions>
<speed>0.0</speed>
<temp>0.00</temp>
<bpm>0</bpm>
<rpm>0.00</rpm>
</extensions>
</trkpt>
<trkpt lat="64.245666504" lon="-20.212589264">
<ele>214.167969</ele>
<time>2012-07-20T15:24:29Z</time>
<speed>0.010000</speed>
<extensions>
<speed>0.0</speed>
<temp>0.00</temp>
<bpm>0</bpm>
<rpm>0.00</rpm>
</extensions>
</trkpt>
<trkpt lat="64.245605469" lon="-20.212633133">
<ele>213.402344</ele>
<time>2012-07-20T15:24:34Z</time>
<speed>2.300000</speed>
<extensions>
<speed>2.3</speed>
<temp>0.00</temp>
<bpm>0</bpm>
<rpm>0.00</rpm>
</extensions>
</trkpt>
<trkpt lat="64.245498657" lon="-20.212772369">
<ele>213.015625</ele>
<time>2012-07-20T15:24:39Z</time>
<speed>2.680000</speed>
<extensions>
<speed>2.7</speed>
<temp>0.00</temp>
<bpm>0</bpm>
<rpm>0.00</rpm>
</extensions>
</trkpt>
<trkpt lat="64.245384216" lon="-20.212902069">
<ele>212.804688</ele>
<time>2012-07-20T15:24:44Z</time>
<speed>3.030000</speed>
<extensions>
<speed>3.0</speed>
<temp>0.00</temp>
<bpm>0</bpm>
<rpm>0.00</rpm>
</extensions>
</trkpt>
<trkpt lat="64.245239258" lon="-20.213047028">
<ele>212.273438</ele>
<time>2012-07-20T15:24:49Z</time>
<speed>3.740000</speed>
<extensions>
<speed>3.7</speed>
<temp>0.00</temp>
<bpm>0</bpm>
<rpm>0.00</rpm>
</extensions>
</trkpt>
<trkpt lat="64.245086670" lon="-20.213207245">
<ele>211.328125</ele>
<time>2012-07-20T15:24:54Z</time>
<speed>3.590000</speed>
<extensions>
<speed>3.6</speed>
<temp>0.00</temp>
<bpm>0</bpm>
<rpm>0.00</rpm>
</extensions>
</trkpt>
<trkpt lat="64.244941711" lon="-20.213333130">
<ele>210.449219</ele>
<time>2012-07-20T15:24:59Z</time>
<speed>3.120000</speed>
<extensions>
<speed>3.1</speed>
<temp>0.00</temp>
<bpm>0</bpm>
<rpm>0.00</rpm>
</extensions>
</trkpt>
<trkpt lat="64.244819641" lon="-20.213457108">
<ele>209.816406</ele>
<time>2012-07-20T15:25:04Z</time>
<speed>3.010000</speed>
<extensions>
<speed>3.0</speed>
<temp>0.00</temp>
<bpm>0</bpm>
<rpm>0.00</rpm>
</extensions>
</trkpt>
<trkpt lat="64.244682312" lon="-20.213571548">
<ele>208.988281</ele>
<time>2012-07-20T15:25:09Z</time>
<speed>3.590000</speed>
<extensions>
<speed>3.6</speed>
<temp>0.00</temp>
<bpm>0</bpm>
<rpm>0.00</rpm>
</extensions>
</trkpt>
<trkpt lat="64.244506836" lon="-20.213754654">
<ele>208.171875</ele>
<time>2012-07-20T15:25:14Z</time>
<speed>4.730000</speed>
<extensions>
<speed>4.7</speed>
<temp>0.00</temp>
<bpm>0</bpm>
<rpm>0.00</rpm>
</extensions>
</trkpt>
<trkpt lat="64.244308472" lon="-20.213956833">
<ele>207.316406</ele>
<time>2012-07-20T15:25:19Z</time>
<speed>4.960000</speed>
<extensions>
<speed>5.0</speed>
<temp>0.00</temp>
<bpm>0</bpm>
<rpm>0.00</rpm>
</extensions>
</trkpt>
<trkpt lat="64.244110107" lon="-20.214183807">
<ele>206.199219</ele>
<time>2012-07-20T15:25:24Z</time>
<speed>5.140000</speed>
<extensions>
<speed>5.1</speed>
<temp>0.00</temp>
<bpm>0</bpm>
<rpm>0.00</rpm>
</extensions>
</trkpt>
<trkpt lat="64.243881226" lon="-20.214439392">
<ele>205.382813</ele>
<time>2012-07-20T15:25:29Z</time>
<speed>5.770000</speed>
<extensions>
<speed>5.8</speed>
<temp>0.00</temp>
<bpm>0</bpm>
<rpm>0.00</rpm>
</extensions>
</trkpt>
<trkpt lat="64.243652344" lon="-20.214738846">
<ele>204.796875</ele>
<time>2012-07-20T15:25:34Z</time>
<speed>5.770000</speed>
<extensions>
<speed>5.8</speed>
<temp>0.00</temp>
<bpm>0</bpm>
<rpm>0.00</rpm>
</extensions>
</trkpt>
<trkpt lat="64.243423462" lon="-20.215042114">
<ele>204.527344</ele>
<time>2012-07-20T15:25:39Z</time>
<speed>5.900000</speed>
<extensions>
<speed>5.9</speed>
<temp>0.00</temp>
<bpm>0</bpm>
<rpm>0.00</rpm>
</extensions>
</trkpt>
<trkpt lat="64.243217468" lon="-20.215335846">
<ele>204.785156</ele>
<time>2012-07-20T15:25:44Z</time>
<speed>5.360000</speed>
<extensions>
<speed>5.4</speed>
<temp>0.00</temp>
<bpm>0</bpm>
<rpm>0.00</rpm>
</extensions>
</trkpt>
<trkpt lat="64.242996216" lon="-20.215665817">
<ele>204.628906</ele>
<time>2012-07-20T15:25:49Z</time>
<speed>5.990000</speed>
<extensions>
<speed>6.0</speed>
<temp>0.00</temp>
<bpm>0</bpm>
<rpm>0.00</rpm>
</extensions>
</trkpt>
<trkpt lat="64.242782593" lon="-20.216012955">
<ele>203.957031</ele>
<time>2012-07-20T15:25:54Z</time>
<speed>5.850000</speed>
<extensions>
<speed>5.8</speed>
<temp>0.00</temp>
<bpm>0</bpm>
<rpm>0.00</rpm>
</extensions>
</trkpt>
<trkpt lat="64.242568970" lon="-20.216363907">
<ele>203.554688</ele>
<time>2012-07-20T15:25:59Z</time>
<speed>5.760000</speed>
<extensions>
<speed>5.8</speed>
<temp>0.00</temp>
<bpm>0</bpm>
<rpm>0.00</rpm>
</extensions>
</trkpt>
<trkpt lat="64.242370605" lon="-20.216714859">
<ele>203.578125</ele>
<time>2012-07-20T15:26:04Z</time>
<speed>5.280000</speed>
<extensions>
<speed>5.3</speed>
<temp>0.00</temp>
<bpm>0</bpm>
<rpm>0.00</rpm>
</extensions>
</trkpt>
<trkpt lat="64.242202759" lon="-20.217042923">
<ele>204.050781</ele>
<time>2012-07-20T15:26:09Z</time>
<speed>5.140000</speed>
<extensions>
<speed>5.1</speed>
<temp>0.00</temp>
<bpm>0</bpm>
<rpm>0.00</rpm>
</extensions>
</trkpt>
<trkpt lat="64.242019653" lon="-20.217411041">
<ele>203.636719</ele>
<time>2012-07-20T15:26:14Z</time>
<speed>5.460000</speed>
<extensions>
<speed>5.5</speed>
<temp>0.00</temp>
<bpm>0</bpm>
<rpm>0.00</rpm>
</extensions>
</trkpt>
<trkpt lat="64.241851807" lon="-20.217781067">
<ele>203.074219</ele>
<time>2012-07-20T15:26:19Z</time>
<speed>5.120000</speed>
<extensions>
<speed>5.1</speed>
<temp>0.00</temp>
<bpm>0</bpm>
<rpm>0.00</rpm>
</extensions>
</trkpt>
<trkpt lat="64.241676331" lon="-20.218143463">
<ele>202.382813</ele>
<time>2012-07-20T15:26:24Z</time>
<speed>5.010000</speed>
<extensions>
<speed>5.0</speed>
<temp>0.00</temp>
<bpm>0</bpm>
<rpm>0.00</rpm>
</extensions>
</trkpt>
<trkpt lat="64.241516113" lon="-20.218534470">
<ele>202.304688</ele>
<time>2012-07-20T15:26:29Z</time>
<speed>5.370000</speed>
<extensions>
<speed>5.4</speed>
<temp>0.00</temp>
<bpm>0</bpm>
<rpm>0.00</rpm>
</extensions>
</trkpt>
<trkpt lat="64.241355896" lon="-20.218954086">
<ele>201.582031</ele>
<time>2012-07-20T15:26:34Z</time>
<speed>5.680000</speed>
<extensions>
<speed>5.7</speed>
<temp>0.00</temp>
<bpm>0</bpm>
<rpm>0.00</rpm>
</extensions>
</trkpt>
<trkpt lat="64.241180420" lon="-20.219400406">
<ele>200.078125</ele>
<time>2012-07-20T15:26:39Z</time>
<speed>5.870000</speed>
<extensions>
<speed>5.9</speed>
<temp>0.00</temp>
<bpm>0</bpm>
<rpm>0.00</rpm>
</extensions>
</trkpt>
<trkpt lat="64.240997314" lon="-20.219905853">
<ele>199.246094</ele>
<time>2012-07-20T15:26:44Z</time>
<speed>6.440000</speed>
<extensions>
<speed>6.4</speed>
<temp>0.00</temp>
<bpm>0</bpm>
<rpm>0.00</rpm>
</extensions>
</trkpt>
<trkpt lat="64.240821838" lon="-20.220420837">
<ele>197.843750</ele>
<time>2012-07-20T15:26:49Z</time>
<speed>6.130000</speed>
<extensions>
<speed>6.1</speed>
<temp>0.00</temp>
<bpm>0</bpm>
<rpm>0.00</rpm>
</extensions>
</trkpt>
<trkpt lat="64.240653992" lon="-20.220912933">
<ele>195.816406</ele>
<time>2012-07-20T15:26:54Z</time>
<speed>6.090000</speed>
<extensions>
<speed>6.1</speed>
<temp>0.00</temp>
<bpm>0</bpm>
<rpm>0.00</rpm>
</extensions>
</trkpt>
<trkpt lat="64.240486145" lon="-20.221429825">
<ele>194.933594</ele>
<time>2012-07-20T15:26:59Z</time>
<speed>6.210000</speed>
<extensions>
<speed>6.2</speed>
<temp>0.00</temp>
<bpm>0</bpm>
<rpm>0.00</rpm>
</extensions>
</trkpt>
<trkpt lat="64.240310669" lon="-20.221948624">
<ele>191.968750</ele>
<time>2012-07-20T15:27:04Z</time>
<speed>6.430000</speed>
<extensions>
<speed>6.4</speed>
<temp>0.00</temp>
<bpm>0</bpm>
<rpm>0.00</rpm>
</extensions>
</trkpt>
<trkpt lat="64.240119934" lon="-20.222497940">
<ele>190.640625</ele>
<time>2012-07-20T15:27:09Z</time>
<speed>6.820000</speed>
<extensions>
<speed>6.8</speed>
<temp>0.00</temp>
<bpm>0</bpm>
<rpm>0.00</rpm>
</extensions>
</trkpt>
<trkpt lat="64.239929199" lon="-20.223077774">
<ele>187.804688</ele>
<time>2012-07-20T15:27:14Z</time>
<speed>7.410000</speed>
<extensions>
<speed>7.4</speed>
<temp>0.00</temp>
<bpm>0</bpm>
<rpm>0.00</rpm>
</extensions>
</trkpt>
<trkpt lat="64.239715576" lon="-20.223703384">
<ele>185.730469</ele>
<time>2012-07-20T15:27:19Z</time>
<speed>7.820000</speed>
<extensions>
<speed>7.8</speed>
<temp>0.00</temp>
<bpm>0</bpm>
<rpm>0.00</rpm>
</extensions>
</trkpt>
<trkpt lat="64.239501953" lon="-20.224353790">
<ele>183.871094</ele>
<time>2012-07-20T15:27:24Z</time>
<speed>8.030000</speed>
<extensions>
<speed>8.0</speed>
<temp>0.00</temp>
<bpm>0</bpm>
<rpm>0.00</rpm>
</extensions>
</trkpt>
<trkpt lat="64.239280701" lon="-20.225008011">
<ele>181.750000</ele>
<time>2012-07-20T15:27:29Z</time>
<speed>8.060000</speed>
<extensions>
<speed>8.1</speed>
<temp>0.00</temp>
<bpm>0</bpm>
<rpm>0.00</rpm>
</extensions>
</trkpt>
<trkpt lat="64.239059448" lon="-20.225675583">
<ele>179.460938</ele>
<time>2012-07-20T15:27:34Z</time>
<speed>8.480000</speed>
<extensions>
<speed>8.5</speed>
<temp>0.00</temp>
<bpm>0</bpm>
<rpm>0.00</rpm>
</extensions>
</trkpt>
<trkpt lat="64.238822937" lon="-20.226406097">
<ele>177.410156</ele>
<time>2012-07-20T15:27:39Z</time>
<speed>8.900000</speed>
<extensions>
<speed>8.9</speed>
<temp>0.00</temp>
<bpm>0</bpm>
<rpm>0.00</rpm>
</extensions>
</trkpt>
<trkpt lat="64.238571167" lon="-20.227136612">
<ele>174.535156</ele>
<time>2012-07-20T15:27:44Z</time>
<speed>8.960000</speed>
<extensions>
<speed>9.0</speed>
<temp>0.00</temp>
<bpm>0</bpm>
<rpm>0.00</rpm>
</extensions>
</trkpt>
<trkpt lat="64.238334656" lon="-20.227867126">
<ele>172.171875</ele>
<time>2012-07-20T15:27:49Z</time>
<speed>8.470000</speed>
<extensions>
<speed>8.5</speed>
<temp>0.00</temp>
<bpm>0</bpm>
<rpm>0.00</rpm>
</extensions>
</trkpt>
<trkpt lat="64.238113403" lon="-20.228519440">
<ele>170.890625</ele>
<time>2012-07-20T15:27:54Z</time>
<speed>7.540000</speed>
<extensions>
<speed>7.5</speed>
<temp>0.00</temp>
<bpm>0</bpm>
<rpm>0.00</rpm>
</extensions>
</trkpt>
<trkpt lat="64.237907410" lon="-20.229093552">
<ele>170.718750</ele>
<time>2012-07-20T15:27:59Z</time>
<speed>6.970000</speed>
<extensions>
<speed>7.0</speed>
<temp>0.00</temp>
<bpm>0</bpm>
<rpm>0.00</rpm>
</extensions>
</trkpt>
<trkpt lat="64.237724304" lon="-20.229648590">
<ele>169.703125</ele>
<time>2012-07-20T15:28:04Z</time>
<speed>6.760000</speed>
<extensions>
<speed>6.8</speed>
<temp>0.00</temp>
<bpm>0</bpm>
<rpm>0.00</rpm>
</extensions>
</trkpt>
<trkpt lat="64.237541199" lon="-20.230190277">
<ele>169.480469</ele>
<time>2012-07-20T15:28:09Z</time>
<speed>6.470000</speed>
<extensions>
<speed>6.5</speed>
<temp>0.00</temp>
<bpm>0</bpm>
<rpm>0.00</rpm>
</extensions>
</trkpt>
<trkpt lat="64.237365723" lon="-20.230699539">
<ele>170.953125</ele>
<time>2012-07-20T15:28:14Z</time>
<speed>5.960000</speed>
<extensions>
<speed>6.0</speed>
<temp>0.00</temp>
<bpm>0</bpm>
<rpm>0.00</rpm>
</extensions>
</trkpt>
<trkpt lat="64.237197876" lon="-20.231170654">
<ele>165.312500</ele>
<time>2012-07-20T15:28:19Z</time>
<speed>5.430000</speed>
<extensions>
<speed>5.4</speed>
<temp>0.00</temp>
<bpm>0</bpm>
<rpm>0.00</rpm>
</extensions>
</trkpt>
<trkpt lat="64.237060547" lon="-20.231584549">
<ele>167.480469</ele>
<time>2012-07-20T15:28:24Z</time>
<speed>5.180000</speed>
<extensions>
<speed>5.2</speed>
<temp>0.00</temp>
<bpm>0</bpm>
<rpm>0.00</rpm>
</extensions>
</trkpt>
<trkpt lat="64.236915588" lon="-20.231983185">
<ele>167.656250</ele>
<time>2012-07-20T15:28:29Z</time>
<speed>4.980000</speed>
<extensions>
<speed>5.0</speed>
<temp>0.00</temp>
<bpm>0</bpm>
<rpm>0.00</rpm>
</extensions>
</trkpt>
<trkpt lat="64.236778259" lon="-20.232368469">
<ele>168.089844</ele>
<time>2012-07-20T15:28:34Z</time>
<speed>4.930000</speed>
<extensions>
<speed>4.9</speed>
<temp>0.00</temp>
<bpm>0</bpm>
<rpm>0.00</rpm>
</extensions>
</trkpt>
<trkpt lat="64.236633301" lon="-20.232757568">
<ele>168.355469</ele>
<time>2012-07-20T15:28:39Z</time>
<speed>4.900000</speed>
<extensions>
<speed>4.9</speed>
<temp>0.00</temp>
<bpm>0</bpm>
<rpm>0.00</rpm>
</extensions>
</trkpt>
<trkpt lat="64.236480713" lon="-20.233142853">
<ele>167.765625</ele>
<time>2012-07-20T15:28:44Z</time>
<speed>5.260000</speed>
<extensions>
<speed>5.3</speed>
<temp>0.00</temp>
<bpm>0</bpm>
<rpm>0.00</rpm>
</extensions>
</trkpt>
<trkpt lat="64.236312866" lon="-20.233556747">
<ele>167.605469</ele>
<time>2012-07-20T15:28:49Z</time>
<speed>5.500000</speed>
<extensions>
<speed>5.5</speed>
<temp>0.00</temp>
<bpm>0</bpm>
<rpm>0.00</rpm>
</extensions>
</trkpt>
<trkpt lat="64.236137390" lon="-20.233985901">
<ele>167.136719</ele>
<time>2012-07-20T15:28:54Z</time>
<speed>5.870000</speed>
<extensions>
<speed>5.9</speed>
<temp>0.00</temp>
<bpm>0</bpm>
<rpm>0.00</rpm>
</extensions>
</trkpt>
<trkpt lat="64.235961914" lon="-20.234439850">
<ele>166.214844</ele>
<time>2012-07-20T15:28:59Z</time>
<speed>5.930000</speed>
<extensions>
<speed>5.9</speed>
<temp>0.00</temp>
<bpm>0</bpm>
<rpm>0.00</rpm>
</extensions>
</trkpt>
<trkpt lat="64.235786438" lon="-20.234893799">
<ele>165.660156</ele>
<time>2012-07-20T15:29:04Z</time>
<speed>5.810000</speed>
<extensions>
<speed>5.8</speed>
<temp>0.00</temp>
<bpm>0</bpm>
<rpm>0.00</rpm>
</extensions>
</trkpt>
<trkpt lat="64.235610962" lon="-20.235334396">
<ele>164.820313</ele>
<time>2012-07-20T15:29:09Z</time>
<speed>6.100000</speed>
<extensions>
<speed>6.1</speed>
<temp>0.00</temp>
<bpm>0</bpm>
<rpm>0.00</rpm>
</extensions>
</trkpt>
<trkpt lat="64.235420227" lon="-20.235818863">
<ele>164.179688</ele>
<time>2012-07-20T15:29:14Z</time>
<speed>6.300000</speed>
<extensions>
<speed>6.3</speed>
<temp>0.00</temp>
<bpm>0</bpm>
<rpm>0.00</rpm>
</extensions>
</trkpt>
<trkpt lat="64.235237122" lon="-20.236299515">
<ele>163.117188</ele>
<time>2012-07-20T15:29:19Z</time>
<speed>6.260000</speed>
<extensions>
<speed>6.3</speed>
<temp>0.00</temp>
<bpm>0</bpm>
<rpm>0.00</rpm>
</extensions>
</trkpt>
<trkpt lat="64.235046387" lon="-20.236776352">
<ele>162.191406</ele>
<time>2012-07-20T15:29:24Z</time>
<speed>6.180000</speed>
<extensions>
<speed>6.2</speed>
<temp>0.00</temp>
<bpm>0</bpm>
<rpm>0.00</rpm>
</extensions>
</trkpt>
<trkpt lat="64.234863281" lon="-20.237226486">
<ele>160.921875</ele>
<time>2012-07-20T15:29:29Z</time>
<speed>6.190000</speed>
<extensions>
<speed>6.2</speed>
<temp>0.00</temp>
<bpm>0</bpm>
<rpm>0.00</rpm>
</extensions>
</trkpt>
<trkpt lat="64.234664917" lon="-20.237686157">
<ele>159.917969</ele>
<time>2012-07-20T15:29:34Z</time>
<speed>6.420000</speed>
<extensions>
<speed>6.4</speed>
<temp>0.00</temp>
<bpm>0</bpm>
<rpm>0.00</rpm>
</extensions>
</trkpt>
<trkpt lat="64.234466553" lon="-20.238128662">
<ele>158.710938</ele>
<time>2012-07-20T15:29:39Z</time>
<speed>6.360000</speed>
<extensions>
<speed>6.4</speed>
<temp>0.00</temp>
<bpm>0</bpm>
<rpm>0.00</rpm>
</extensions>
</trkpt>
<trkpt lat="64.234237671" lon="-20.238573074">
<ele>157.351563</ele>
<time>2012-07-20T15:29:44Z</time>
<speed>6.540000</speed>
<extensions>
<speed>6.5</speed>
<temp>0.00</temp>
<bpm>0</bpm>
<rpm>0.00</rpm>
</extensions>
</trkpt>
<trkpt lat="64.234016418" lon="-20.238971710">
<ele>156.167969</ele>
<time>2012-07-20T15:29:49Z</time>
<speed>6.490000</speed>
<extensions>
<speed>6.5</speed>
<temp>0.00</temp>
<bpm>0</bpm>
<rpm>0.00</rpm>
</extensions>
</trkpt>
<trkpt lat="64.233764648" lon="-20.239379883">
<ele>154.722656</ele>
<time>2012-07-20T15:29:54Z</time>
<speed>7.040000</speed>
<extensions>
<speed>7.0</speed>
<temp>0.00</temp>
<bpm>0</bpm>
<rpm>0.00</rpm>
</extensions>
</trkpt>
<trkpt lat="64.233512878" lon="-20.239768982">
<ele>153.062500</ele>
<time>2012-07-20T15:29:59Z</time>
<speed>6.670000</speed>
<extensions>
<speed>6.7</speed>
<temp>0.00</temp>
<bpm>0</bpm>
<rpm>0.00</rpm>
</extensions>
</trkpt>
<trkpt lat="64.233253479" lon="-20.240159988">
<ele>150.988281</ele>
<time>2012-07-20T15:30:04Z</time>
<speed>6.790000</speed>
<extensions>
<speed>6.8</speed>
<temp>0.00</temp>
<bpm>0</bpm>
<rpm>0.00</rpm>
</extensions>
</trkpt>
<trkpt lat="64.233001709" lon="-20.240556717">
<ele>149.250000</ele>
<time>2012-07-20T15:30:09Z</time>
<speed>6.970000</speed>
<extensions>
<speed>7.0</speed>
<temp>0.00</temp>
<bpm>0</bpm>
<rpm>0.00</rpm>
</extensions>
</trkpt>
<trkpt lat="64.232742310" lon="-20.240993500">
<ele>147.972656</ele>
<time>2012-07-20T15:30:14Z</time>
<speed>7.430000</speed>
<extensions>
<speed>7.4</speed>
<temp>0.00</temp>
<bpm>0</bpm>
<rpm>0.00</rpm>
</extensions>
</trkpt>
<trkpt lat="64.232482910" lon="-20.241456985">
<ele>145.574219</ele>
<time>2012-07-20T15:30:19Z</time>
<speed>7.170000</speed>
<extensions>
<speed>7.2</speed>
<temp>0.00</temp>
<bpm>0</bpm>
<rpm>0.00</rpm>
</extensions>
</trkpt>
<trkpt lat="64.232231140" lon="-20.241954803">
<ele>143.058594</ele>
<time>2012-07-20T15:30:24Z</time>
<speed>7.240000</speed>
<extensions>
<speed>7.2</speed>
<temp>0.00</temp>
<bpm>0</bpm>
<rpm>0.00</rpm>
</extensions>
</trkpt>
<trkpt lat="64.231994629" lon="-20.242458344">
<ele>141.347656</ele>
<time>2012-07-20T15:30:29Z</time>
<speed>7.110000</speed>
<extensions>
<speed>7.1</speed>
<temp>0.00</temp>
<bpm>0</bpm>
<rpm>0.00</rpm>
</extensions>
</trkpt>
<trkpt lat="64.231773376" lon="-20.242935181">
<ele>139.457031</ele>
<time>2012-07-20T15:30:34Z</time>
<speed>6.920000</speed>
<extensions>
<speed>6.9</speed>
<temp>0.00</temp>
<bpm>0</bpm>
<rpm>0.00</rpm>
</extensions>
</trkpt>
<trkpt lat="64.231552124" lon="-20.243444443">
<ele>138.800781</ele>
<time>2012-07-20T15:30:39Z</time>
<speed>7.100000</speed>
<extensions>
<speed>7.1</speed>
<temp>0.00</temp>
<bpm>0</bpm>
<rpm>0.00</rpm>
</extensions>
</trkpt>
<trkpt lat="64.231323242" lon="-20.243942261">
<ele>136.671875</ele>
<time>2012-07-20T15:30:44Z</time>
<speed>7.030000</speed>
<extensions>
<speed>7.0</speed>
<temp>0.00</temp>
<bpm>0</bpm>
<rpm>0.00</rpm>
</extensions>
</trkpt>
<trkpt lat="64.231086731" lon="-20.244445801">
<ele>135.882813</ele>
<time>2012-07-20T15:30:49Z</time>
<speed>7.400000</speed>
<extensions>
<speed>7.4</speed>
<temp>0.00</temp>
<bpm>0</bpm>
<rpm>0.00</rpm>
</extensions>
</trkpt>
<trkpt lat="64.230842590" lon="-20.244970322">
<ele>135.449219</ele>
<time>2012-07-20T15:30:54Z</time>
<speed>7.150000</speed>
<extensions>
<speed>7.1</speed>
<temp>0.00</temp>
<bpm>0</bpm>
<rpm>0.00</rpm>
</extensions>
</trkpt>
<trkpt lat="64.230598450" lon="-20.245437622">
<ele>135.066406</ele>
<time>2012-07-20T15:30:59Z</time>
<speed>7.080000</speed>
<extensions>
<speed>7.1</speed>
<temp>0.00</temp>
<bpm>0</bpm>
<rpm>0.00</rpm>
</extensions>
</trkpt>
<trkpt lat="64.230361938" lon="-20.245880127">
<ele>134.875000</ele>
<time>2012-07-20T15:31:04Z</time>
<speed>6.770000</speed>
<extensions>
<speed>6.8</speed>
<temp>0.00</temp>
<bpm>0</bpm>
<rpm>0.00</rpm>
</extensions>
</trkpt>
<trkpt lat="64.230125427" lon="-20.246280670">
<ele>134.203125</ele>
<time>2012-07-20T15:31:09Z</time>
<speed>6.040000</speed>
<extensions>
<speed>6.0</speed>
<temp>0.00</temp>
<bpm>0</bpm>
<rpm>0.00</rpm>
</extensions>
</trkpt>
<trkpt lat="64.229904175" lon="-20.246606827">
<ele>133.453125</ele>
<time>2012-07-20T15:31:14Z</time>
<speed>5.910000</speed>
<extensions>
<speed>5.9</speed>
<temp>0.00</temp>
<bpm>0</bpm>
<rpm>0.00</rpm>
</extensions>
</trkpt>
<trkpt lat="64.229690552" lon="-20.246913910">
<ele>132.828125</ele>
<time>2012-07-20T15:31:19Z</time>
<speed>5.630000</speed>
<extensions>
<speed>5.6</speed>
<temp>0.00</temp>
<bpm>0</bpm>
<rpm>0.00</rpm>
</extensions>
</trkpt>
<trkpt lat="64.229469299" lon="-20.247205734">
<ele>132.097656</ele>
<time>2012-07-20T15:31:24Z</time>
<speed>5.470000</speed>
<extensions>
<speed>5.5</speed>
<temp>0.00</temp>
<bpm>0</bpm>
<rpm>0.00</rpm>
</extensions>
</trkpt>
<trkpt lat="64.229255676" lon="-20.247499466">
<ele>131.207031</ele>
<time>2012-07-20T15:31:29Z</time>
<speed>5.750000</speed>
<extensions>
<speed>5.8</speed>
<temp>0.00</temp>
<bpm>0</bpm>
<rpm>0.00</rpm>
</extensions>
</trkpt>
<trkpt lat="64.229049683" lon="-20.247781754">
<ele>130.527344</ele>
<time>2012-07-20T15:31:34Z</time>
<speed>4.950000</speed>
<extensions>
<speed>4.9</speed>
<temp>0.00</temp>
<bpm>0</bpm>
<rpm>0.00</rpm>
</extensions>
</trkpt>
<trkpt lat="64.228836060" lon="-20.248064041">
<ele>129.167969</ele>
<time>2012-07-20T15:31:39Z</time>
<speed>5.720000</speed>
<extensions>
<speed>5.7</speed>
<temp>0.00</temp>
<bpm>0</bpm>
<rpm>0.00</rpm>
</extensions>
</trkpt>
<trkpt lat="64.228607178" lon="-20.248382568">
<ele>128.132813</ele>
<time>2012-07-20T15:31:44Z</time>
<speed>6.040000</speed>
<extensions>
<speed>6.0</speed>
<temp>0.00</temp>
<bpm>0</bpm>
<rpm>0.00</rpm>
</extensions>
</trkpt>
<trkpt lat="64.228393555" lon="-20.248682022">
<ele>127.390625</ele>
<time>2012-07-20T15:31:49Z</time>
<speed>5.650000</speed>
<extensions>
<speed>5.7</speed>
<temp>0.00</temp>
<bpm>0</bpm>
<rpm>0.00</rpm>
</extensions>
</trkpt>
<trkpt lat="64.228172302" lon="-20.248975754">
<ele>125.994141</ele>
<time>2012-07-20T15:31:54Z</time>
<speed>5.230000</speed>
<extensions>
<speed>5.2</speed>
<temp>0.00</temp>
<bpm>0</bpm>
<rpm>0.00</rpm>
</extensions>
</trkpt>
<trkpt lat="64.227981567" lon="-20.249227524">
<ele>125.898438</ele>
<time>2012-07-20T15:31:59Z</time>
<speed>4.660000</speed>
<extensions>
<speed>4.7</speed>
<temp>0.00</temp>
<bpm>0</bpm>
<rpm>0.00</rpm>
</extensions>
</trkpt>
<trkpt lat="64.227798462" lon="-20.249473572">
<ele>125.021484</ele>
<time>2012-07-20T15:32:04Z</time>
<speed>4.670000</speed>
<extensions>
<speed>4.7</speed>
<temp>0.00</temp>
<bpm>0</bpm>
<rpm>0.00</rpm>
</extensions>
</trkpt>
<trkpt lat="64.227615356" lon="-20.249715805">
<ele>124.611328</ele>
<time>2012-07-20T15:32:09Z</time>
<speed>5.170000</speed>
<extensions>
<speed>5.2</speed>
<temp>0.00</temp>
<bpm>0</bpm>
<rpm>0.00</rpm>
</extensions>
</trkpt>
<trkpt lat="64.227394104" lon="-20.250003815">
<ele>123.771484</ele>
<time>2012-07-20T15:32:14Z</time>
<speed>5.820000</speed>
<extensions>
<speed>5.8</speed>
<temp>0.00</temp>
<bpm>0</bpm>
<rpm>0.00</rpm>
</extensions>
</trkpt>
<trkpt lat="64.227157593" lon="-20.250333786">
<ele>122.474609</ele>
<time>2012-07-20T15:32:19Z</time>
<speed>6.310000</speed>
<extensions>
<speed>6.3</speed>
<temp>0.00</temp>
<bpm>0</bpm>
<rpm>0.00</rpm>
</extensions>
</trkpt>
<trkpt lat="64.226921082" lon="-20.250684738">
<ele>120.947266</ele>
<time>2012-07-20T15:32:24Z</time>
<speed>6.060000</speed>
<extensions>
<speed>6.1</speed>
<temp>0.00</temp>
<bpm>0</bpm>
<rpm>0.00</rpm>
</extensions>
</trkpt>
<trkpt lat="64.226699829" lon="-20.251041412">
<ele>119.347656</ele>
<time>2012-07-20T15:32:29Z</time>
<speed>5.900000</speed>
<extensions>
<speed>5.9</speed>
<temp>0.00</temp>
<bpm>0</bpm>
<rpm>0.00</rpm>
</extensions>
</trkpt>
<trkpt lat="64.226486206" lon="-20.251415253">
<ele>118.613281</ele>
<time>2012-07-20T15:32:34Z</time>
<speed>6.530000</speed>
<extensions>
<speed>6.5</speed>
<temp>0.00</temp>
<bpm>0</bpm>
<rpm>0.00</rpm>
</extensions>
</trkpt>
<trkpt lat="64.226264954" lon="-20.251853943">
<ele>116.970703</ele>
<time>2012-07-20T15:32:39Z</time>
<speed>6.670000</speed>
<extensions>
<speed>6.7</speed>
<temp>0.00</temp>
<bpm>0</bpm>
<rpm>0.00</rpm>
</extensions>
</trkpt>
<trkpt lat="64.226043701" lon="-20.252325058">
<ele>115.656250</ele>
<time>2012-07-20T15:32:44Z</time>
<speed>6.640000</speed>
<extensions>
<speed>6.6</speed>
<temp>0.00</temp>
<bpm>0</bpm>
<rpm>0.00</rpm>
</extensions>
</trkpt>
<trkpt lat="64.225830078" lon="-20.252807617">
<ele>114.861328</ele>
<time>2012-07-20T15:32:49Z</time>
<speed>6.570000</speed>
<extensions>
<speed>6.6</speed>
<temp>0.00</temp>
<bpm>0</bpm>
<rpm>0.00</rpm>
</extensions>
</trkpt>
<trkpt lat="64.225624084" lon="-20.253274918">
<ele>113.800781</ele>
<time>2012-07-20T15:32:54Z</time>
<speed>6.470000</speed>
<extensions>
<speed>6.5</speed>
<temp>0.00</temp>
<bpm>0</bpm>
<rpm>0.00</rpm>
</extensions>
</trkpt>
<trkpt lat="64.225395203" lon="-20.253736496">
<ele>112.347656</ele>
<time>2012-07-20T15:32:59Z</time>
<speed>7.410000</speed>
<extensions>
<speed>7.4</speed>
<temp>0.00</temp>
<bpm>0</bpm>
<rpm>0.00</rpm>
</extensions>
</trkpt>
<trkpt lat="64.225135803" lon="-20.254306793">
<ele>110.623047</ele>
<time>2012-07-20T15:33:04Z</time>
<speed>8.160000</speed>
<extensions>
<speed>8.2</speed>
<temp>0.00</temp>
<bpm>0</bpm>
<rpm>0.00</rpm>
</extensions>
</trkpt>
<trkpt lat="64.224853516" lon="-20.254856110">
<ele>108.220703</ele>
<time>2012-07-20T15:33:09Z</time>
<speed>8.270000</speed>
<extensions>
<speed>8.3</speed>
<temp>0.00</temp>
<bpm>0</bpm>
<rpm>0.00</rpm>
</extensions>
</trkpt>
<trkpt lat="64.224555969" lon="-20.255369186">
<ele>105.562500</ele>
<time>2012-07-20T15:33:14Z</time>
<speed>8.160000</speed>
<extensions>
<speed>8.2</speed>
<temp>0.00</temp>
<bpm>0</bpm>
<rpm>0.00</rpm>
</extensions>
</trkpt>
<trkpt lat="64.224258423" lon="-20.255851746">
<ele>103.386719</ele>
<time>2012-07-20T15:33:19Z</time>
<speed>8.050000</speed>
<extensions>
<speed>8.0</speed>
<temp>0.00</temp>
<bpm>0</bpm>
<rpm>0.00</rpm>
</extensions>
</trkpt>
<trkpt lat="64.223960876" lon="-20.256301880">
<ele>101.531250</ele>
<time>2012-07-20T15:33:24Z</time>
<speed>7.770000</speed>
<extensions>
<speed>7.8</speed>
<temp>0.00</temp>
<bpm>0</bpm>
<rpm>0.00</rpm>
</extensions>
</trkpt>
<trkpt lat="64.223663330" lon="-20.256698608">
<ele>100.259766</ele>
<time>2012-07-20T15:33:29Z</time>
<speed>7.830000</speed>
<extensions>
<speed>7.8</speed>
<temp>0.00</temp>
<bpm>0</bpm>
<rpm>0.00</rpm>
</extensions>
</trkpt>
<trkpt lat="64.223350525" lon="-20.257101059">
<ele>98.541016</ele>
<time>2012-07-20T15:33:34Z</time>
<speed>8.070000</speed>
<extensions>
<speed>8.1</speed>
<temp>0.00</temp>
<bpm>0</bpm>
<rpm>0.00</rpm>
</extensions>
</trkpt>
<trkpt lat="64.223022461" lon="-20.257476807">
<ele>96.974609</ele>
<time>2012-07-20T15:33:39Z</time>
<speed>7.660000</speed>
<extensions>
<speed>7.7</speed>
<temp>0.00</temp>
<bpm>0</bpm>
<rpm>0.00</rpm>
</extensions>
</trkpt>
<trkpt lat="64.222740173" lon="-20.257785797">
<ele>96.595703</ele>
<time>2012-07-20T15:33:44Z</time>
<speed>6.250000</speed>
<extensions>
<speed>6.3</speed>
<temp>0.00</temp>
<bpm>0</bpm>
<rpm>0.00</rpm>
</extensions>
</trkpt>
<trkpt lat="64.222511292" lon="-20.257999420">
<ele>96.419922</ele>
<time>2012-07-20T15:33:49Z</time>
<speed>5.250000</speed>
<extensions>
<speed>5.2</speed>
<temp>0.00</temp>
<bpm>0</bpm>
<rpm>0.00</rpm>
</extensions>
</trkpt>
<trkpt lat="64.222290039" lon="-20.258201599">
<ele>96.820313</ele>
<time>2012-07-20T15:33:54Z</time>
<speed>5.130000</speed>
<extensions>
<speed>5.1</speed>
<temp>0.00</temp>
<bpm>0</bpm>
<rpm>0.00</rpm>
</extensions>
</trkpt>
<trkpt lat="64.222091675" lon="-20.258358002">
<ele>97.279297</ele>
<time>2012-07-20T15:33:59Z</time>
<speed>4.860000</speed>
<extensions>
<speed>4.9</speed>
<temp>0.00</temp>
<bpm>0</bpm>
<rpm>0.00</rpm>
</extensions>
</trkpt>
<trkpt lat="64.221885681" lon="-20.258508682">
<ele>97.126953</ele>
<time>2012-07-20T15:34:04Z</time>
<speed>4.910000</speed>
<extensions>
<speed>4.9</speed>
<temp>0.00</temp>
<bpm>0</bpm>
<rpm>0.00</rpm>
</extensions>
</trkpt>
<trkpt lat="64.221672058" lon="-20.258655548">
<ele>97.470703</ele>
<time>2012-07-20T15:34:09Z</time>
<speed>4.760000</speed>
<extensions>
<speed>4.8</speed>
<temp>0.00</temp>
<bpm>0</bpm>
<rpm>0.00</rpm>
</extensions>
</trkpt>
<trkpt lat="64.221473694" lon="-20.258800507">
<ele>97.220703</ele>
<time>2012-07-20T15:34:14Z</time>
<speed>4.820000</speed>
<extensions>
<speed>4.8</speed>
<temp>0.00</temp>
<bpm>0</bpm>
<rpm>0.00</rpm>
</extensions>
</trkpt>
<trkpt lat="64.221260071" lon="-20.258934021">
<ele>96.898438</ele>
<time>2012-07-20T15:34:19Z</time>
<speed>4.910000</speed>
<extensions>
<speed>4.9</speed>
<temp>0.00</temp>
<bpm>0</bpm>
<rpm>0.00</rpm>
</extensions>
</trkpt>
<trkpt lat="64.221054077" lon="-20.259073257">
<ele>96.759766</ele>
<time>2012-07-20T15:34:24Z</time>
<speed>4.800000</speed>
<extensions>
<speed>4.8</speed>
<temp>0.00</temp>
<bpm>0</bpm>
<rpm>0.00</rpm>
</extensions>
</trkpt>
<trkpt lat="64.220848083" lon="-20.259197235">
<ele>96.904297</ele>
<time>2012-07-20T15:34:29Z</time>
<speed>4.900000</speed>
<extensions>
<speed>4.9</speed>
<temp>0.00</temp>
<bpm>0</bpm>
<rpm>0.00</rpm>
</extensions>
</trkpt>
<trkpt lat="64.220626831" lon="-20.259328842">
<ele>97.291016</ele>
<time>2012-07-20T15:34:34Z</time>
<speed>5.290000</speed>
<extensions>
<speed>5.3</speed>
<temp>0.00</temp>
<bpm>0</bpm>
<rpm>0.00</rpm>
</extensions>
</trkpt>
<trkpt lat="64.220428467" lon="-20.259439468">
<ele>97.140625</ele>
<time>2012-07-20T15:34:39Z</time>
<speed>3.890000</speed>
<extensions>
<speed>3.9</speed>
<temp>0.00</temp>
<bpm>0</bpm>
<rpm>0.00</rpm>
</extensions>
</trkpt>
<trkpt lat="64.220252991" lon="-20.259574890">
<ele>97.378906</ele>
<time>2012-07-20T15:34:44Z</time>
<speed>4.480000</speed>
<extensions>
<speed>4.5</speed>
<temp>0.00</temp>
<bpm>0</bpm>
<rpm>0.00</rpm>
</extensions>
</trkpt>
<trkpt lat="64.220054626" lon="-20.259698868">
<ele>98.431641</ele>
<time>2012-07-20T15:34:49Z</time>
<speed>4.780000</speed>
<extensions>
<speed>4.8</speed>
<temp>0.00</temp>
<bpm>0</bpm>
<rpm>0.00</rpm>
</extensions>
</trkpt>
<trkpt lat="64.219863892" lon="-20.259820938">
<ele>98.449219</ele>
<time>2012-07-20T15:34:54Z</time>
<speed>4.080000</speed>
<extensions>
<speed>4.1</speed>
<temp>0.00</temp>
<bpm>0</bpm>
<rpm>0.00</rpm>
</extensions>
</trkpt>
<trkpt lat="64.219703674" lon="-20.259923935">
<ele>98.982422</ele>
<time>2012-07-20T15:34:59Z</time>
<speed>3.600000</speed>
<extensions>
<speed>3.6</speed>
<temp>0.00</temp>
<bpm>0</bpm>
<rpm>0.00</rpm>
</extensions>
</trkpt>
<trkpt lat="64.219543457" lon="-20.260040283">
<ele>98.292969</ele>
<time>2012-07-20T15:35:04Z</time>
<speed>3.570000</speed>
<extensions>
<speed>3.6</speed>
<temp>0.00</temp>
<bpm>0</bpm>
<rpm>0.00</rpm>
</extensions>
</trkpt>
<trkpt lat="64.219375610" lon="-20.260139465">
<ele>98.201172</ele>
<time>2012-07-20T15:35:09Z</time>
<speed>4.420000</speed>
<extensions>
<speed>4.4</speed>
<temp>0.00</temp>
<bpm>0</bpm>
<rpm>0.00</rpm>
</extensions>
</trkpt>
<trkpt lat="64.219192505" lon="-20.260225296">
<ele>98.158203</ele>
<time>2012-07-20T15:35:14Z</time>
<speed>4.240000</speed>
<extensions>
<speed>4.2</speed>
<temp>0.00</temp>
<bpm>0</bpm>
<rpm>0.00</rpm>
</extensions>
</trkpt>
<trkpt lat="64.219017029" lon="-20.260334015">
<ele>98.119141</ele>
<time>2012-07-20T15:35:19Z</time>
<speed>3.790000</speed>
<extensions>
<speed>3.8</speed>
<temp>0.00</temp>
<bpm>0</bpm>
<rpm>0.00</rpm>
</extensions>
</trkpt>
<trkpt lat="64.218864441" lon="-20.260442734">
<ele>98.496094</ele>
<time>2012-07-20T15:35:24Z</time>
<speed>3.610000</speed>
<extensions>
<speed>3.6</speed>
<temp>0.00</temp>
<bpm>0</bpm>
<rpm>0.00</rpm>
</extensions>
</trkpt>
<trkpt lat="64.218711853" lon="-20.260534286">
<ele>98.830078</ele>
<time>2012-07-20T15:35:29Z</time>
<speed>3.640000</speed>
<extensions>
<speed>3.6</speed>
<temp>0.00</temp>
<bpm>0</bpm>
<rpm>0.00</rpm>
</extensions>
</trkpt>
<trkpt lat="64.218559265" lon="-20.260643005">
<ele>99.250000</ele>
<time>2012-07-20T15:35:34Z</time>
<speed>3.380000</speed>
<extensions>
<speed>3.4</speed>
<temp>0.00</temp>
<bpm>0</bpm>
<rpm>0.00</rpm>
</extensions>
</trkpt>
<trkpt lat="64.218414307" lon="-20.260728836">
<ele>100.355469</ele>
<time>2012-07-20T15:35:39Z</time>
<speed>3.190000</speed>
<extensions>
<speed>3.2</speed>
<temp>0.00</temp>
<bpm>0</bpm>
<rpm>0.00</rpm>
</extensions>
</trkpt>
<trkpt lat="64.218269348" lon="-20.260826111">
<ele>99.855469</ele>
<time>2012-07-20T15:35:44Z</time>
<speed>3.550000</speed>
<extensions>
<speed>3.5</speed>
<temp>0.00</temp>
<bpm>0</bpm>
<rpm>0.00</rpm>
</extensions>
</trkpt>
<trkpt lat="64.218116760" lon="-20.260927200">
<ele>99.531250</ele>
<time>2012-07-20T15:35:49Z</time>
<speed>3.510000</speed>
<extensions>
<speed>3.5</speed>
<temp>0.00</temp>
<bpm>0</bpm>
<rpm>0.00</rpm>
</extensions>
</trkpt>
<trkpt lat="64.217956543" lon="-20.261047363">
<ele>99.597656</ele>
<time>2012-07-20T15:35:54Z</time>
<speed>3.740000</speed>
<extensions>
<speed>3.7</speed>
<temp>0.00</temp>
<bpm>0</bpm>
<rpm>0.00</rpm>
</extensions>
</trkpt>
<trkpt lat="64.217788696" lon="-20.261146545">
<ele>99.142578</ele>
<time>2012-07-20T15:35:59Z</time>
<speed>3.530000</speed>
<extensions>
<speed>3.5</speed>
<temp>0.00</temp>
<bpm>0</bpm>
<rpm>0.00</rpm>
</extensions>
</trkpt>
<trkpt lat="64.217643738" lon="-20.261247635">
<ele>99.056641</ele>
<time>2012-07-20T15:36:04Z</time>
<speed>3.180000</speed>
<extensions>
<speed>3.2</speed>
<temp>0.00</temp>
<bpm>0</bpm>
<rpm>0.00</rpm>
</extensions>
</trkpt>
<trkpt lat="64.217498779" lon="-20.261344910">
<ele>99.314453</ele>
<time>2012-07-20T15:36:09Z</time>
<speed>3.310000</speed>
<extensions>
<speed>3.3</speed>
<temp>0.00</temp>
<bpm>0</bpm>
<rpm>0.00</rpm>
</extensions>
</trkpt>
<trkpt lat="64.217361450" lon="-20.261445999">
<ele>99.041016</ele>
<time>2012-07-20T15:36:14Z</time>
<speed>3.300000</speed>
<extensions>
<speed>3.3</speed>
<temp>0.00</temp>
<bpm>0</bpm>
<rpm>0.00</rpm>
</extensions>
</trkpt>
<trkpt lat="64.217224121" lon="-20.261548996">
<ele>98.919922</ele>
<time>2012-07-20T15:36:19Z</time>
<speed>3.280000</speed>
<extensions>
<speed>3.3</speed>
<temp>0.00</temp>
<bpm>0</bpm>
<rpm>0.00</rpm>
</extensions>
</trkpt>
<trkpt lat="64.217086792" lon="-20.261659622">
<ele>98.691406</ele>
<time>2012-07-20T15:36:24Z</time>
<speed>3.220000</speed>
<extensions>
<speed>3.2</speed>
<temp>0.00</temp>
<bpm>0</bpm>
<rpm>0.00</rpm>
</extensions>
</trkpt>
<trkpt lat="64.216957092" lon="-20.261775970">
<ele>98.791016</ele>
<time>2012-07-20T15:36:29Z</time>
<speed>3.240000</speed>
<extensions>
<speed>3.2</speed>
<temp>0.00</temp>
<bpm>0</bpm>
<rpm>0.00</rpm>
</extensions>
</trkpt>
<trkpt lat="64.216819763" lon="-20.261888504">
<ele>98.910156</ele>
<time>2012-07-20T15:36:34Z</time>
<speed>3.450000</speed>
<extensions>
<speed>3.5</speed>
<temp>0.00</temp>
<bpm>0</bpm>
<rpm>0.00</rpm>
</extensions>
</trkpt>
<trkpt lat="64.216674805" lon="-20.262014389">
<ele>99.265625</ele>
<time>2012-07-20T15:36:39Z</time>
<speed>3.240000</speed>
<extensions>
<speed>3.2</speed>
<temp>0.00</temp>
<bpm>0</bpm>
<rpm>0.00</rpm>
</extensions>
</trkpt>
<trkpt lat="64.216522217" lon="-20.262123108">
<ele>98.337891</ele>
<time>2012-07-20T15:36:44Z</time>
<speed>3.250000</speed>
<extensions>
<speed>3.2</speed>
<temp>0.00</temp>
<bpm>0</bpm>
<rpm>0.00</rpm>
</extensions>
</trkpt>
<trkpt lat="64.216369629" lon="-20.262241364">
<ele>98.623047</ele>
<time>2012-07-20T15:36:49Z</time>
<speed>3.550000</speed>
<extensions>
<speed>3.5</speed>
<temp>0.00</temp>
<bpm>0</bpm>
<rpm>0.00</rpm>
</extensions>
</trkpt>
<trkpt lat="64.216232300" lon="-20.262369156">
<ele>98.738281</ele>
<time>2012-07-20T15:36:54Z</time>
<speed>3.440000</speed>
<extensions>
<speed>3.4</speed>
<temp>0.00</temp>
<bpm>0</bpm>
<rpm>0.00</rpm>
</extensions>
</trkpt>
<trkpt lat="64.216087341" lon="-20.262496948">
<ele>100.791016</ele>
<time>2012-07-20T15:36:59Z</time>
<speed>3.630000</speed>
<extensions>
<speed>3.6</speed>
<temp>0.00</temp>
<bpm>0</bpm>
<rpm>0.00</rpm>
</extensions>
</trkpt>
<trkpt lat="64.215934753" lon="-20.262636185">
<ele>101.439453</ele>
<time>2012-07-20T15:37:04Z</time>
<speed>3.700000</speed>
<extensions>
<speed>3.7</speed>
<temp>0.00</temp>
<bpm>0</bpm>
<rpm>0.00</rpm>
</extensions>
</trkpt>
<trkpt lat="64.215782166" lon="-20.262796402">
<ele>102.310547</ele>
<time>2012-07-20T15:37:09Z</time>
<speed>3.760000</speed>
<extensions>
<speed>3.8</speed>
<temp>0.00</temp>
<bpm>0</bpm>
<rpm>0.00</rpm>
</extensions>
</trkpt>
<trkpt lat="64.215621948" lon="-20.262969971">
<ele>101.859375</ele>
<time>2012-07-20T15:37:14Z</time>
<speed>3.810000</speed>
<extensions>
<speed>3.8</speed>
<temp>0.00</temp>
<bpm>0</bpm>
<rpm>0.00</rpm>
</extensions>
</trkpt>
<trkpt lat="64.215454102" lon="-20.263113022">
<ele>99.451172</ele>
<time>2012-07-20T15:37:19Z</time>
<speed>3.600000</speed>
<extensions>
<speed>3.6</speed>
<temp>0.00</temp>
<bpm>0</bpm>
<rpm>0.00</rpm>
</extensions>
</trkpt>
<trkpt lat="64.215301514" lon="-20.263267517">
<ele>98.306641</ele>
<time>2012-07-20T15:37:24Z</time>
<speed>3.880000</speed>
<extensions>
<speed>3.9</speed>
<temp>0.00</temp>
<bpm>0</bpm>
<rpm>0.00</rpm>
</extensions>
</trkpt>
<trkpt lat="64.215156555" lon="-20.263402939">
<ele>100.298828</ele>
<time>2012-07-20T15:37:29Z</time>
<speed>3.380000</speed>
<extensions>
<speed>3.4</speed>
<temp>0.00</temp>
<bpm>0</bpm>
<rpm>0.00</rpm>
</extensions>
</trkpt>
<trkpt lat="64.215011597" lon="-20.263544083">
<ele>100.537109</ele>
<time>2012-07-20T15:37:34Z</time>
<speed>3.610000</speed>
<extensions>
<speed>3.6</speed>
<temp>0.00</temp>
<bpm>0</bpm>
<rpm>0.00</rpm>
</extensions>
</trkpt>
<trkpt lat="64.214874268" lon="-20.263662338">
<ele>100.703125</ele>
<time>2012-07-20T15:37:39Z</time>
<speed>2.990000</speed>
<extensions>
<speed>3.0</speed>
<temp>0.00</temp>
<bpm>0</bpm>
<rpm>0.00</rpm>
</extensions>
</trkpt>
<trkpt lat="64.214752197" lon="-20.263771057">
<ele>100.779297</ele>
<time>2012-07-20T15:37:44Z</time>
<speed>3.100000</speed>
<extensions>
<speed>3.1</speed>
<temp>0.00</temp>
<bpm>0</bpm>
<rpm>0.00</rpm>
</extensions>
</trkpt>
<trkpt lat="64.214630127" lon="-20.263885498">
<ele>99.699219</ele>
<time>2012-07-20T15:37:49Z</time>
<speed>3.190000</speed>
<extensions>
<speed>3.2</speed>
<temp>0.00</temp>
<bpm>0</bpm>
<rpm>0.00</rpm>
</extensions>
</trkpt>
<trkpt lat="64.214485168" lon="-20.264015198">
<ele>99.449219</ele>
<time>2012-07-20T15:37:54Z</time>
<speed>3.440000</speed>
<extensions>
<speed>3.4</speed>
<temp>0.00</temp>
<bpm>0</bpm>
<rpm>0.00</rpm>
</extensions>
</trkpt>
<trkpt lat="64.214355469" lon="-20.264146805">
<ele>100.009766</ele>
<time>2012-07-20T15:37:59Z</time>
<speed>3.270000</speed>
<extensions>
<speed>3.3</speed>
<temp>0.00</temp>
<bpm>0</bpm>
<rpm>0.00</rpm>
</extensions>
</trkpt>
<trkpt lat="64.214218140" lon="-20.264289856">
<ele>99.474609</ele>
<time>2012-07-20T15:38:04Z</time>
<speed>2.960000</speed>
<extensions>
<speed>3.0</speed>
<temp>0.00</temp>
<bpm>0</bpm>
<rpm>0.00</rpm>
</extensions>
</trkpt>
<trkpt lat="64.214073181" lon="-20.264419556">
<ele>98.822266</ele>
<time>2012-07-20T15:38:09Z</time>
<speed>3.780000</speed>
<extensions>
<speed>3.8</speed>
<temp>0.00</temp>
<bpm>0</bpm>
<rpm>0.00</rpm>
</extensions>
</trkpt>
<trkpt lat="64.213943481" lon="-20.264551163">
<ele>99.738281</ele>
<time>2012-07-20T15:38:14Z</time>
<speed>3.020000</speed>
<extensions>
<speed>3.0</speed>
<temp>0.00</temp>
<bpm>0</bpm>
<rpm>0.00</rpm>
</extensions>
</trkpt>
<trkpt lat="64.213806152" lon="-20.264673233">
<ele>99.201172</ele>
<time>2012-07-20T15:38:19Z</time>
<speed>3.060000</speed>
<extensions>
<speed>3.1</speed>
<temp>0.00</temp>
<bpm>0</bpm>
<rpm>0.00</rpm>
</extensions>
</trkpt>
<trkpt lat="64.213668823" lon="-20.264804840">
<ele>98.466797</ele>
<time>2012-07-20T15:38:24Z</time>
<speed>3.030000</speed>
<extensions>
<speed>3.0</speed>
<temp>0.00</temp>
<bpm>0</bpm>
<rpm>0.00</rpm>
</extensions>
</trkpt>
<trkpt lat="64.213531494" lon="-20.264936447">
<ele>97.462891</ele>
<time>2012-07-20T15:38:29Z</time>
<speed>3.540000</speed>
<extensions>
<speed>3.5</speed>
<temp>0.00</temp>
<bpm>0</bpm>
<rpm>0.00</rpm>
</extensions>
</trkpt>
<trkpt lat="64.213378906" lon="-20.265069962">
<ele>97.037109</ele>
<time>2012-07-20T15:38:34Z</time>
<speed>3.540000</speed>
<extensions>
<speed>3.5</speed>
<temp>0.00</temp>
<bpm>0</bpm>
<rpm>0.00</rpm>
</extensions>
</trkpt>
<trkpt lat="64.213241577" lon="-20.265195847">
<ele>98.150391</ele>
<time>2012-07-20T15:38:39Z</time>
<speed>3.610000</speed>
<extensions>
<speed>3.6</speed>
<temp>0.00</temp>
<bpm>0</bpm>
<rpm>0.00</rpm>
</extensions>
</trkpt>
<trkpt lat="64.213096619" lon="-20.265352249">
<ele>97.853516</ele>
<time>2012-07-20T15:38:44Z</time>
<speed>3.470000</speed>
<extensions>
<speed>3.5</speed>
<temp>0.00</temp>
<bpm>0</bpm>
<rpm>0.00</rpm>
</extensions>
</trkpt>
<trkpt lat="64.212944031" lon="-20.265478134">
<ele>98.962891</ele>
<time>2012-07-20T15:38:49Z</time>
<speed>3.600000</speed>
<extensions>
<speed>3.6</speed>
<temp>0.00</temp>
<bpm>0</bpm>
<rpm>0.00</rpm>
</extensions>
</trkpt>
<trkpt lat="64.212783813" lon="-20.265634537">
<ele>98.619141</ele>
<time>2012-07-20T15:38:54Z</time>
<speed>3.810000</speed>
<extensions>
<speed>3.8</speed>
<temp>0.00</temp>
<bpm>0</bpm>
<rpm>0.00</rpm>
</extensions>
</trkpt>
<trkpt lat="64.212631226" lon="-20.265779495">
<ele>97.166016</ele>
<time>2012-07-20T15:38:59Z</time>
<speed>3.730000</speed>
<extensions>
<speed>3.7</speed>
<temp>0.00</temp>
<bpm>0</bpm>
<rpm>0.00</rpm>
</extensions>
</trkpt>
<trkpt lat="64.212493896" lon="-20.265897751">
<ele>96.693359</ele>
<time>2012-07-20T15:39:04Z</time>
<speed>3.280000</speed>
<extensions>
<speed>3.3</speed>
<temp>0.00</temp>
<bpm>0</bpm>
<rpm>0.00</rpm>
</extensions>
</trkpt>
<trkpt lat="64.212371826" lon="-20.266035080">
<ele>96.228516</ele>
<time>2012-07-20T15:39:09Z</time>
<speed>3.250000</speed>
<extensions>
<speed>3.2</speed>
<temp>0.00</temp>
<bpm>0</bpm>
<rpm>0.00</rpm>
</extensions>
</trkpt>
<trkpt lat="64.212249756" lon="-20.266149521">
<ele>96.150391</ele>
<time>2012-07-20T15:39:14Z</time>
<speed>3.200000</speed>
<extensions>
<speed>3.2</speed>
<temp>0.00</temp>
<bpm>0</bpm>
<rpm>0.00</rpm>
</extensions>
</trkpt>
<trkpt lat="64.212120056" lon="-20.266281128">
<ele>95.248047</ele>
<time>2012-07-20T15:39:19Z</time>
<speed>3.050000</speed>
<extensions>
<speed>3.0</speed>
<temp>0.00</temp>
<bpm>0</bpm>
<rpm>0.00</rpm>
</extensions>
</trkpt>
<trkpt lat="64.212005615" lon="-20.266403198">
<ele>93.966797</ele>
<time>2012-07-20T15:39:24Z</time>
<speed>3.080000</speed>
<extensions>
<speed>3.1</speed>
<temp>0.00</temp>
<bpm>0</bpm>
<rpm>0.00</rpm>
</extensions>
</trkpt>
<trkpt lat="64.211868286" lon="-20.266517639">
<ele>93.792969</ele>
<time>2012-07-20T15:39:29Z</time>
<speed>2.970000</speed>
<extensions>
<speed>3.0</speed>
<temp>0.00</temp>
<bpm>0</bpm>
<rpm>0.00</rpm>
</extensions>
</trkpt>
<trkpt lat="64.211753845" lon="-20.266626358">
<ele>94.269531</ele>
<time>2012-07-20T15:39:34Z</time>
<speed>2.780000</speed>
<extensions>
<speed>2.8</speed>
<temp>0.00</temp>
<bpm>0</bpm>
<rpm>0.00</rpm>
</extensions>
</trkpt>
<trkpt lat="64.211639404" lon="-20.266740799">
<ele>93.789063</ele>
<time>2012-07-20T15:39:39Z</time>
<speed>2.820000</speed>
<extensions>
<speed>2.8</speed>
<temp>0.00</temp>
<bpm>0</bpm>
<rpm>0.00</rpm>
</extensions>
</trkpt>
<trkpt lat="64.211517334" lon="-20.266849518">
<ele>94.865234</ele>
<time>2012-07-20T15:39:44Z</time>
<speed>2.540000</speed>
<extensions>
<speed>2.5</speed>
<temp>0.00</temp>
<bpm>0</bpm>
<rpm>0.00</rpm>
</extensions>
</trkpt>
<trkpt lat="64.211410522" lon="-20.266965866">
<ele>95.335938</ele>
<time>2012-07-20T15:39:49Z</time>
<speed>2.490000</speed>
<extensions>
<speed>2.5</speed>
<temp>0.00</temp>
<bpm>0</bpm>
<rpm>0.00</rpm>
</extensions>
</trkpt>
<trkpt lat="64.211296082" lon="-20.267076492">
<ele>94.011719</ele>
<time>2012-07-20T15:39:54Z</time>
<speed>2.420000</speed>
<extensions>
<speed>2.4</speed>
<temp>0.00</temp>
<bpm>0</bpm>
<rpm>0.00</rpm>
</extensions>
</trkpt>
<trkpt lat="64.211189270" lon="-20.267183304">
<ele>94.058594</ele>
<time>2012-07-20T15:39:59Z</time>
<speed>2.820000</speed>
<extensions>
<speed>2.8</speed>
<temp>0.00</temp>
<bpm>0</bpm>
<rpm>0.00</rpm>
</extensions>
</trkpt>
<trkpt lat="64.211082458" lon="-20.267265320">
<ele>96.228516</ele>
<time>2012-07-20T15:40:04Z</time>
<speed>2.530000</speed>
<extensions>
<speed>2.5</speed>
<temp>0.00</temp>
<bpm>0</bpm>
<rpm>0.00</rpm>
</extensions>
</trkpt>
<trkpt lat="64.210975647" lon="-20.267360687">
<ele>95.138672</ele>
<time>2012-07-20T15:40:09Z</time>
<speed>2.790000</speed>
<extensions>
<speed>2.8</speed>
<temp>0.00</temp>
<bpm>0</bpm>
<rpm>0.00</rpm>
</extensions>
</trkpt>
<trkpt lat="64.210853577" lon="-20.267490387">
<ele>94.324219</ele>
<time>2012-07-20T15:40:14Z</time>
<speed>3.000000</speed>
<extensions>
<speed>3.0</speed>
<temp>0.00</temp>
<bpm>0</bpm>
<rpm>0.00</rpm>
</extensions>
</trkpt>
<trkpt lat="64.210731506" lon="-20.267599106">
<ele>94.509766</ele>
<time>2012-07-20T15:40:19Z</time>
<speed>2.720000</speed>
<extensions>
<speed>2.7</speed>
<temp>0.00</temp>
<bpm>0</bpm>
<rpm>0.00</rpm>
</extensions>
</trkpt>
<trkpt lat="64.210624695" lon="-20.267692566">
<ele>95.500000</ele>
<time>2012-07-20T15:40:24Z</time>
<speed>2.890000</speed>
<extensions>
<speed>2.9</speed>
<temp>0.00</temp>
<bpm>0</bpm>
<rpm>0.00</rpm>
</extensions>
</trkpt>
<trkpt lat="64.210487366" lon="-20.267824173">
<ele>94.800781</ele>
<time>2012-07-20T15:40:29Z</time>
<speed>3.310000</speed>
<extensions>
<speed>3.3</speed>
<temp>0.00</temp>
<bpm>0</bpm>
<rpm>0.00</rpm>
</extensions>
</trkpt>
<trkpt lat="64.210365295" lon="-20.267965317">
<ele>94.458984</ele>
<time>2012-07-20T15:40:34Z</time>
<speed>3.250000</speed>
<extensions>
<speed>3.2</speed>
<temp>0.00</temp>
<bpm>0</bpm>
<rpm>0.00</rpm>
</extensions>
</trkpt>
<trkpt lat="64.210243225" lon="-20.268106461">
<ele>94.732422</ele>
<time>2012-07-20T15:40:39Z</time>
<speed>2.640000</speed>
<extensions>
<speed>2.6</speed>
<temp>0.00</temp>
<bpm>0</bpm>
<rpm>0.00</rpm>
</extensions>
</trkpt>
<trkpt lat="64.210128784" lon="-20.268207550">
<ele>95.324219</ele>
<time>2012-07-20T15:40:44Z</time>
<speed>2.810000</speed>
<extensions>
<speed>2.8</speed>
<temp>0.00</temp>
<bpm>0</bpm>
<rpm>0.00</rpm>
</extensions>
</trkpt>
<trkpt lat="64.210021973" lon="-20.268312454">
<ele>95.142578</ele>
<time>2012-07-20T15:40:49Z</time>
<speed>2.470000</speed>
<extensions>
<speed>2.5</speed>
<temp>0.00</temp>
<bpm>0</bpm>
<rpm>0.00</rpm>
</extensions>
</trkpt>
<trkpt lat="64.209907532" lon="-20.268413544">
<ele>95.039063</ele>
<time>2012-07-20T15:40:54Z</time>
<speed>2.340000</speed>
<extensions>
<speed>2.3</speed>
<temp>0.00</temp>
<bpm>0</bpm>
<rpm>0.00</rpm>
</extensions>
</trkpt>
<trkpt lat="64.209793091" lon="-20.268518448">
<ele>94.673828</ele>
<time>2012-07-20T15:40:59Z</time>
<speed>2.990000</speed>
<extensions>
<speed>3.0</speed>
<temp>0.00</temp>
<bpm>0</bpm>
<rpm>0.00</rpm>
</extensions>
</trkpt>
<trkpt lat="64.209671021" lon="-20.268627167">
<ele>95.513672</ele>
<time>2012-07-20T15:41:04Z</time>
<speed>2.910000</speed>
<extensions>
<speed>2.9</speed>
<temp>0.00</temp>
<bpm>0</bpm>
<rpm>0.00</rpm>
</extensions>
</trkpt>
<trkpt lat="64.209556580" lon="-20.268760681">
<ele>96.203125</ele>
<time>2012-07-20T15:41:09Z</time>
<speed>3.030000</speed>
<extensions>
<speed>3.0</speed>
<temp>0.00</temp>
<bpm>0</bpm>
<rpm>0.00</rpm>
</extensions>
</trkpt>
<trkpt lat="64.209442139" lon="-20.268875122">
<ele>96.324219</ele>
<time>2012-07-20T15:41:14Z</time>
<speed>2.950000</speed>
<extensions>
<speed>2.9</speed>
<temp>0.00</temp>
<bpm>0</bpm>
<rpm>0.00</rpm>
</extensions>
</trkpt>
<trkpt lat="64.209327698" lon="-20.268978119">
<ele>96.816406</ele>
<time>2012-07-20T15:41:19Z</time>
<speed>2.500000</speed>
<extensions>
<speed>2.5</speed>
<temp>0.00</temp>
<bpm>0</bpm>
<rpm>0.00</rpm>
</extensions>
</trkpt>
<trkpt lat="64.209228516" lon="-20.269071579">
<ele>96.953125</ele>
<time>2012-07-20T15:41:24Z</time>
<speed>2.810000</speed>
<extensions>
<speed>2.8</speed>
<temp>0.00</temp>
<bpm>0</bpm>
<rpm>0.00</rpm>
</extensions>
</trkpt>
<trkpt lat="64.209106445" lon="-20.269197464">
<ele>96.712891</ele>
<time>2012-07-20T15:41:29Z</time>
<speed>2.790000</speed>
<extensions>
<speed>2.8</speed>
<temp>0.00</temp>
<bpm>0</bpm>
<rpm>0.00</rpm>
</extensions>
</trkpt>
<trkpt lat="64.209022522" lon="-20.269271851">
<ele>98.083984</ele>
<time>2012-07-20T15:41:34Z</time>
<speed>1.920000</speed>
<extensions>
<speed>1.9</speed>
<temp>0.00</temp>
<bpm>0</bpm>
<rpm>0.00</rpm>
</extensions>
</trkpt>
<trkpt lat="64.208930969" lon="-20.269359589">
<ele>97.996094</ele>
<time>2012-07-20T15:41:39Z</time>
<speed>2.190000</speed>
<extensions>
<speed>2.2</speed>
<temp>0.00</temp>
<bpm>0</bpm>
<rpm>0.00</rpm>
</extensions>
</trkpt>
<trkpt lat="64.208839417" lon="-20.269453049">
<ele>98.451172</ele>
<time>2012-07-20T15:41:44Z</time>
<speed>2.430000</speed>
<extensions>
<speed>2.4</speed>
<temp>0.00</temp>
<bpm>0</bpm>
<rpm>0.00</rpm>
</extensions>
</trkpt>
<trkpt lat="64.208755493" lon="-20.269531250">
<ele>99.109375</ele>
<time>2012-07-20T15:41:49Z</time>
<speed>2.170000</speed>
<extensions>
<speed>2.2</speed>
<temp>0.00</temp>
<bpm>0</bpm>
<rpm>0.00</rpm>
</extensions>
</trkpt>
<trkpt lat="64.208641052" lon="-20.269618988">
<ele>99.833984</ele>
<time>2012-07-20T15:41:54Z</time>
<speed>2.780000</speed>
<extensions>
<speed>2.8</speed>
<temp>0.00</temp>
<bpm>0</bpm>
<rpm>0.00</rpm>
</extensions>
</trkpt>
<trkpt lat="64.208541870" lon="-20.269733429">
<ele>100.017578</ele>
<time>2012-07-20T15:41:59Z</time>
<speed>2.730000</speed>
<extensions>
<speed>2.7</speed>
<temp>0.00</temp>
<bpm>0</bpm>
<rpm>0.00</rpm>
</extensions>
</trkpt>
<trkpt lat="64.208442688" lon="-20.269832611">
<ele>101.544922</ele>
<time>2012-07-20T15:42:04Z</time>
<speed>2.910000</speed>
<extensions>
<speed>2.9</speed>
<temp>0.00</temp>
<bpm>0</bpm>
<rpm>0.00</rpm>
</extensions>
</trkpt>
<trkpt lat="64.208328247" lon="-20.269968033">
<ele>102.593750</ele>
<time>2012-07-20T15:42:09Z</time>
<speed>2.790000</speed>
<extensions>
<speed>2.8</speed>
<temp>0.00</temp>
<bpm>0</bpm>
<rpm>0.00</rpm>
</extensions>
</trkpt>
<trkpt lat="64.208206177" lon="-20.270065308">
<ele>103.564453</ele>
<time>2012-07-20T15:42:14Z</time>
<speed>2.670000</speed>
<extensions>
<speed>2.7</speed>
<temp>0.00</temp>
<bpm>0</bpm>
<rpm>0.00</rpm>
</extensions>
</trkpt>
<trkpt lat="64.208084106" lon="-20.270187378">
<ele>103.193359</ele>
<time>2012-07-20T15:42:19Z</time>
<speed>2.980000</speed>
<extensions>
<speed>3.0</speed>
<temp>0.00</temp>
<bpm>0</bpm>
<rpm>0.00</rpm>
</extensions>
</trkpt>
<trkpt lat="64.207962036" lon="-20.270301819">
<ele>103.289063</ele>
<time>2012-07-20T15:42:24Z</time>
<speed>3.260000</speed>
<extensions>
<speed>3.3</speed>
<temp>0.00</temp>
<bpm>0</bpm>
<rpm>0.00</rpm>
</extensions>
</trkpt>
<trkpt lat="64.207824707" lon="-20.270433426">
<ele>104.996094</ele>
<time>2012-07-20T15:42:29Z</time>
<speed>3.100000</speed>
<extensions>
<speed>3.1</speed>
<temp>0.00</temp>
<bpm>0</bpm>
<rpm>0.00</rpm>
</extensions>
</trkpt>
<trkpt lat="64.207687378" lon="-20.270582199">
<ele>105.009766</ele>
<time>2012-07-20T15:42:34Z</time>
<speed>3.670000</speed>
<extensions>
<speed>3.7</speed>
<temp>0.00</temp>
<bpm>0</bpm>
<rpm>0.00</rpm>
</extensions>
</trkpt>
<trkpt lat="64.207519531" lon="-20.270761490">
<ele>104.003906</ele>
<time>2012-07-20T15:42:39Z</time>
<speed>3.970000</speed>
<extensions>
<speed>4.0</speed>
<temp>0.00</temp>
<bpm>0</bpm>
<rpm>0.00</rpm>
</extensions>
</trkpt>
<trkpt lat="64.207359314" lon="-20.270935059">
<ele>103.517578</ele>
<time>2012-07-20T15:42:44Z</time>
<speed>4.110000</speed>
<extensions>
<speed>4.1</speed>
<temp>0.00</temp>
<bpm>0</bpm>
<rpm>0.00</rpm>
</extensions>
</trkpt>
<trkpt lat="64.207191467" lon="-20.271125793">
<ele>103.830078</ele>
<time>2012-07-20T15:42:49Z</time>
<speed>4.180000</speed>
<extensions>
<speed>4.2</speed>
<temp>0.00</temp>
<bpm>0</bpm>
<rpm>0.00</rpm>
</extensions>
</trkpt>
<trkpt lat="64.207023621" lon="-20.271297455">
<ele>103.876953</ele>
<time>2012-07-20T15:42:54Z</time>
<speed>4.130000</speed>
<extensions>
<speed>4.1</speed>
<temp>0.00</temp>
<bpm>0</bpm>
<rpm>0.00</rpm>
</extensions>
</trkpt>
<trkpt lat="64.206848145" lon="-20.271474838">
<ele>103.197266</ele>
<time>2012-07-20T15:42:59Z</time>
<speed>4.420000</speed>
<extensions>
<speed>4.4</speed>
<temp>0.00</temp>
<bpm>0</bpm>
<rpm>0.00</rpm>
</extensions>
</trkpt>
<trkpt lat="64.206665039" lon="-20.271671295">
<ele>102.865234</ele>
<time>2012-07-20T15:43:04Z</time>
<speed>4.500000</speed>
<extensions>
<speed>4.5</speed>
<temp>0.00</temp>
<bpm>0</bpm>
<rpm>0.00</rpm>
</extensions>
</trkpt>
<trkpt lat="64.206481934" lon="-20.271852493">
<ele>102.757813</ele>
<time>2012-07-20T15:43:09Z</time>
<speed>4.380000</speed>
<extensions>
<speed>4.4</speed>
<temp>0.00</temp>
<bpm>0</bpm>
<rpm>0.00</rpm>
</extensions>
</trkpt>
<trkpt lat="64.206298828" lon="-20.272045135">
<ele>102.460938</ele>
<time>2012-07-20T15:43:14Z</time>
<speed>4.350000</speed>
<extensions>
<speed>4.3</speed>
<temp>0.00</temp>
<bpm>0</bpm>
<rpm>0.00</rpm>
</extensions>
</trkpt>
<trkpt lat="64.206130981" lon="-20.272239685">
<ele>101.933594</ele>
<time>2012-07-20T15:43:19Z</time>
<speed>4.080000</speed>
<extensions>
<speed>4.1</speed>
<temp>0.00</temp>
<bpm>0</bpm>
<rpm>0.00</rpm>
</extensions>
</trkpt>
<trkpt lat="64.205970764" lon="-20.272420883">
<ele>101.804688</ele>
<time>2012-07-20T15:43:24Z</time>
<speed>4.210000</speed>
<extensions>
<speed>4.2</speed>
<temp>0.00</temp>
<bpm>0</bpm>
<rpm>0.00</rpm>
</extensions>
</trkpt>
<trkpt lat="64.205810547" lon="-20.272603989">
<ele>102.578125</ele>
<time>2012-07-20T15:43:29Z</time>
<speed>4.070000</speed>
<extensions>
<speed>4.1</speed>
<temp>0.00</temp>
<bpm>0</bpm>
<rpm>0.00</rpm>
</extensions>
</trkpt>
<trkpt lat="64.205635071" lon="-20.272792816">
<ele>101.750000</ele>
<time>2012-07-20T15:43:34Z</time>
<speed>4.170000</speed>
<extensions>
<speed>4.2</speed>
<temp>0.00</temp>
<bpm>0</bpm>
<rpm>0.00</rpm>
</extensions>
</trkpt>
<trkpt lat="64.205474854" lon="-20.272970200">
<ele>101.376953</ele>
<time>2012-07-20T15:43:39Z</time>
<speed>4.280000</speed>
<extensions>
<speed>4.3</speed>
<temp>0.00</temp>
<bpm>0</bpm>
<rpm>0.00</rpm>
</extensions>
</trkpt>
<trkpt lat="64.205307007" lon="-20.273162842">
<ele>100.525391</ele>
<time>2012-07-20T15:43:44Z</time>
<speed>3.920000</speed>
<extensions>
<speed>3.9</speed>
<temp>0.00</temp>
<bpm>0</bpm>
<rpm>0.00</rpm>
</extensions>
</trkpt>
<trkpt lat="64.205139160" lon="-20.273349762">
<ele>100.361328</ele>
<time>2012-07-20T15:43:49Z</time>
<speed>4.310000</speed>
<extensions>
<speed>4.3</speed>
<temp>0.00</temp>
<bpm>0</bpm>
<rpm>0.00</rpm>
</extensions>
</trkpt>
<trkpt lat="64.204978943" lon="-20.273511887">
<ele>99.687500</ele>
<time>2012-07-20T15:43:54Z</time>
<speed>4.050000</speed>
<extensions>
<speed>4.0</speed>
<temp>0.00</temp>
<bpm>0</bpm>
<rpm>0.00</rpm>
</extensions>
</trkpt>
<trkpt lat="64.204818726" lon="-20.273681641">
<ele>99.951172</ele>
<time>2012-07-20T15:43:59Z</time>
<speed>3.890000</speed>
<extensions>
<speed>3.9</speed>
<temp>0.00</temp>
<bpm>0</bpm>
<rpm>0.00</rpm>
</extensions>
</trkpt>
<trkpt lat="64.204650879" lon="-20.273839951">
<ele>100.310547</ele>
<time>2012-07-20T15:44:04Z</time>
<speed>4.130000</speed>
<extensions>
<speed>4.1</speed>
<temp>0.00</temp>
<bpm>0</bpm>
<rpm>0.00</rpm>
</extensions>
</trkpt>
<trkpt lat="64.204483032" lon="-20.274015427">
<ele>98.732422</ele>
<time>2012-07-20T15:44:09Z</time>
<speed>4.170000</speed>
<extensions>
<speed>4.2</speed>
<temp>0.00</temp>
<bpm>0</bpm>
<rpm>0.00</rpm>
</extensions>
</trkpt>
<trkpt lat="64.204299927" lon="-20.274204254">
<ele>97.289063</ele>
<time>2012-07-20T15:44:14Z</time>
<speed>4.370000</speed>
<extensions>
<speed>4.4</speed>
<temp>0.00</temp>
<bpm>0</bpm>
<rpm>0.00</rpm>
</extensions>
</trkpt>
<trkpt lat="64.204109192" lon="-20.274360657">
<ele>97.445313</ele>
<time>2012-07-20T15:44:19Z</time>
<speed>4.450000</speed>
<extensions>
<speed>4.5</speed>
<temp>0.00</temp>
<bpm>0</bpm>
<rpm>0.00</rpm>
</extensions>
</trkpt>
<trkpt lat="64.203926086" lon="-20.274513245">
<ele>96.289063</ele>
<time>2012-07-20T15:44:24Z</time>
<speed>4.270000</speed>
<extensions>
<speed>4.3</speed>
<temp>0.00</temp>
<bpm>0</bpm>
<rpm>0.00</rpm>
</extensions>
</trkpt>
<trkpt lat="64.203742981" lon="-20.274646759">
<ele>96.664063</ele>
<time>2012-07-20T15:44:29Z</time>
<speed>4.190000</speed>
<extensions>
<speed>4.2</speed>
<temp>0.00</temp>
<bpm>0</bpm>
<rpm>0.00</rpm>
</extensions>
</trkpt>
<trkpt lat="64.203552246" lon="-20.274789810">
<ele>95.441406</ele>
<time>2012-07-20T15:44:34Z</time>
<speed>4.300000</speed>
<extensions>
<speed>4.3</speed>
<temp>0.00</temp>
<bpm>0</bpm>
<rpm>0.00</rpm>
</extensions>
</trkpt>
<trkpt lat="64.203361511" lon="-20.274930954">
<ele>95.800781</ele>
<time>2012-07-20T15:44:39Z</time>
<speed>4.870000</speed>
<extensions>
<speed>4.9</speed>
<temp>0.00</temp>
<bpm>0</bpm>
<rpm>0.00</rpm>
</extensions>
</trkpt>
<trkpt lat="64.203147888" lon="-20.275068283">
<ele>94.802734</ele>
<time>2012-07-20T15:44:44Z</time>
<speed>5.090000</speed>
<extensions>
<speed>5.1</speed>
<temp>0.00</temp>
<bpm>0</bpm>
<rpm>0.00</rpm>
</extensions>
</trkpt>
<trkpt lat="64.202911377" lon="-20.275224686">
<ele>93.255859</ele>
<time>2012-07-20T15:44:49Z</time>
<speed>5.370000</speed>
<extensions>
<speed>5.4</speed>
<temp>0.00</temp>
<bpm>0</bpm>
<rpm>0.00</rpm>
</extensions>
</trkpt>
<trkpt lat="64.202690125" lon="-20.275362015">
<ele>93.859375</ele>
<time>2012-07-20T15:44:54Z</time>
<speed>5.360000</speed>
<extensions>
<speed>5.4</speed>
<temp>0.00</temp>
<bpm>0</bpm>
<rpm>0.00</rpm>
</extensions>
</trkpt>
<trkpt lat="64.202453613" lon="-20.275516510">
<ele>93.740234</ele>
<time>2012-07-20T15:44:59Z</time>
<speed>5.500000</speed>
<extensions>
<speed>5.5</speed>
<temp>0.00</temp>
<bpm>0</bpm>
<rpm>0.00</rpm>
</extensions>
</trkpt>
<trkpt lat="64.202217102" lon="-20.275678635">
<ele>92.974609</ele>
<time>2012-07-20T15:45:04Z</time>
<speed>5.330000</speed>
<extensions>
<speed>5.3</speed>
<temp>0.00</temp>
<bpm>0</bpm>
<rpm>0.00</rpm>
</extensions>
</trkpt>
<trkpt lat="64.201980591" lon="-20.275823593">
<ele>93.251953</ele>
<time>2012-07-20T15:45:09Z</time>
<speed>5.590000</speed>
<extensions>
<speed>5.6</speed>
<temp>0.00</temp>
<bpm>0</bpm>
<rpm>0.00</rpm>
</extensions>
</trkpt>
<trkpt lat="64.201744080" lon="-20.275983810">
<ele>92.808594</ele>
<time>2012-07-20T15:45:14Z</time>
<speed>5.440000</speed>
<extensions>
<speed>5.4</speed>
<temp>0.00</temp>
<bpm>0</bpm>
<rpm>0.00</rpm>
</extensions>
</trkpt>
<trkpt lat="64.201499939" lon="-20.276128769">
<ele>91.037109</ele>
<time>2012-07-20T15:45:19Z</time>
<speed>5.640000</speed>
<extensions>
<speed>5.6</speed>
<temp>0.00</temp>
<bpm>0</bpm>
<rpm>0.00</rpm>
</extensions>
</trkpt>
<trkpt lat="64.201271057" lon="-20.276288986">
<ele>90.890625</ele>
<time>2012-07-20T15:45:24Z</time>
<speed>5.060000</speed>
<extensions>
<speed>5.1</speed>
<temp>0.00</temp>
<bpm>0</bpm>
<rpm>0.00</rpm>
</extensions>
</trkpt>
<trkpt lat="64.201057434" lon="-20.276445389">
<ele>90.142578</ele>
<time>2012-07-20T15:45:29Z</time>
<speed>4.890000</speed>
<extensions>
<speed>4.9</speed>
<temp>0.00</temp>
<bpm>0</bpm>
<rpm>0.00</rpm>
</extensions>
</trkpt>
<trkpt lat="64.200851440" lon="-20.276561737">
<ele>90.072266</ele>
<time>2012-07-20T15:45:34Z</time>
<speed>4.510000</speed>
<extensions>
<speed>4.5</speed>
<temp>0.00</temp>
<bpm>0</bpm>
<rpm>0.00</rpm>
</extensions>
</trkpt>
<trkpt lat="64.200637817" lon="-20.276689529">
<ele>88.855469</ele>
<time>2012-07-20T15:45:39Z</time>
<speed>4.720000</speed>
<extensions>
<speed>4.7</speed>
<temp>0.00</temp>
<bpm>0</bpm>
<rpm>0.00</rpm>
</extensions>
</trkpt>
<trkpt lat="64.200439453" lon="-20.276832581">
<ele>89.613281</ele>
<time>2012-07-20T15:45:44Z</time>
<speed>4.660000</speed>
<extensions>
<speed>4.7</speed>
<temp>0.00</temp>
<bpm>0</bpm>
<rpm>0.00</rpm>
</extensions>
</trkpt>
<trkpt lat="64.200233459" lon="-20.276964188">
<ele>89.136719</ele>
<time>2012-07-20T15:45:49Z</time>
<speed>4.590000</speed>
<extensions>
<speed>4.6</speed>
<temp>0.00</temp>
<bpm>0</bpm>
<rpm>0.00</rpm>
</extensions>
</trkpt>
<trkpt lat="64.200027466" lon="-20.277105331">
<ele>87.353516</ele>
<time>2012-07-20T15:45:54Z</time>
<speed>4.750000</speed>
<extensions>
<speed>4.8</speed>
<temp>0.00</temp>
<bpm>0</bpm>
<rpm>0.00</rpm>
</extensions>
</trkpt>
<trkpt lat="64.199806213" lon="-20.277240753">
<ele>84.626953</ele>
<time>2012-07-20T15:45:59Z</time>
<speed>4.710000</speed>
<extensions>
<speed>4.7</speed>
<temp>0.00</temp>
<bpm>0</bpm>
<rpm>0.00</rpm>
</extensions>
</trkpt>
<trkpt lat="64.199600220" lon="-20.277381897">
<ele>85.101563</ele>
<time>2012-07-20T15:46:04Z</time>
<speed>4.800000</speed>
<extensions>
<speed>4.8</speed>
<temp>0.00</temp>
<bpm>0</bpm>
<rpm>0.00</rpm>
</extensions>
</trkpt>
<trkpt lat="64.199394226" lon="-20.277488708">
<ele>86.365234</ele>
<time>2012-07-20T15:46:09Z</time>
<speed>4.790000</speed>
<extensions>
<speed>4.8</speed>
<temp>0.00</temp>
<bpm>0</bpm>
<rpm>0.00</rpm>
</extensions>
</trkpt>
<trkpt lat="64.199203491" lon="-20.277601242">
<ele>87.341797</ele>
<time>2012-07-20T15:46:14Z</time>
<speed>4.200000</speed>
<extensions>
<speed>4.2</speed>
<temp>0.00</temp>
<bpm>0</bpm>
<rpm>0.00</rpm>
</extensions>
</trkpt>
<trkpt lat="64.199012756" lon="-20.277681351">
<ele>87.816406</ele>
<time>2012-07-20T15:46:19Z</time>
<speed>4.730000</speed>
<extensions>
<speed>4.7</speed>
<temp>0.00</temp>
<bpm>0</bpm>
<rpm>0.00</rpm>
</extensions>
</trkpt>
<trkpt lat="64.198806763" lon="-20.277774811">
<ele>87.494141</ele>
<time>2012-07-20T15:46:24Z</time>
<speed>4.320000</speed>
<extensions>
<speed>4.3</speed>
<temp>0.00</temp>
<bpm>0</bpm>
<rpm>0.00</rpm>
</extensions>
</trkpt>
<trkpt lat="64.198623657" lon="-20.277833939">
<ele>89.265625</ele>
<time>2012-07-20T15:46:29Z</time>
<speed>4.050000</speed>
<extensions>
<speed>4.0</speed>
<temp>0.00</temp>
<bpm>0</bpm>
<rpm>0.00</rpm>
</extensions>
</trkpt>
<trkpt lat="64.198448181" lon="-20.277877808">
<ele>89.013672</ele>
<time>2012-07-20T15:46:34Z</time>
<speed>3.870000</speed>
<extensions>
<speed>3.9</speed>
<temp>0.00</temp>
<bpm>0</bpm>
<rpm>0.00</rpm>
</extensions>
</trkpt>
<trkpt lat="64.198287964" lon="-20.277902603">
<ele>90.121094</ele>
<time>2012-07-20T15:46:39Z</time>
<speed>3.140000</speed>
<extensions>
<speed>3.1</speed>
<temp>0.00</temp>
<bpm>0</bpm>
<rpm>0.00</rpm>
</extensions>
</trkpt>
<trkpt lat="64.198143005" lon="-20.277917862">
<ele>90.365234</ele>
<time>2012-07-20T15:46:44Z</time>
<speed>2.740000</speed>
<extensions>
<speed>2.7</speed>
<temp>0.00</temp>
<bpm>0</bpm>
<rpm>0.00</rpm>
</extensions>
</trkpt>
<trkpt lat="64.198028564" lon="-20.277908325">
<ele>90.843750</ele>
<time>2012-07-20T15:46:49Z</time>
<speed>2.780000</speed>
<extensions>
<speed>2.8</speed>
<temp>0.00</temp>
<bpm>0</bpm>
<rpm>0.00</rpm>
</extensions>
</trkpt>
<trkpt lat="64.197898865" lon="-20.277933121">
<ele>91.261719</ele>
<time>2012-07-20T15:46:54Z</time>
<speed>2.930000</speed>
<extensions>
<speed>2.9</speed>
<temp>0.00</temp>
<bpm>0</bpm>
<rpm>0.00</rpm>
</extensions>
</trkpt>
<trkpt lat="64.197753906" lon="-20.277919769">
<ele>92.210938</ele>
<time>2012-07-20T15:46:59Z</time>
<speed>3.180000</speed>
<extensions>
<speed>3.2</speed>
<temp>0.00</temp>
<bpm>0</bpm>
<rpm>0.00</rpm>
</extensions>
</trkpt>
<trkpt lat="64.197608948" lon="-20.277917862">
<ele>93.156250</ele>
<time>2012-07-20T15:47:04Z</time>
<speed>3.020000</speed>
<extensions>
<speed>3.0</speed>
<temp>0.00</temp>
<bpm>0</bpm>
<rpm>0.00</rpm>
</extensions>
</trkpt>
<trkpt lat="64.197471619" lon="-20.277902603">
<ele>93.080078</ele>
<time>2012-07-20T15:47:09Z</time>
<speed>3.170000</speed>
<extensions>
<speed>3.2</speed>
<temp>0.00</temp>
<bpm>0</bpm>
<rpm>0.00</rpm>
</extensions>
</trkpt>
<trkpt lat="64.197319031" lon="-20.277891159">
<ele>93.695313</ele>
<time>2012-07-20T15:47:14Z</time>
<speed>3.440000</speed>
<extensions>
<speed>3.4</speed>
<temp>0.00</temp>
<bpm>0</bpm>
<rpm>0.00</rpm>
</extensions>
</trkpt>
<trkpt lat="64.197158813" lon="-20.277883530">
<ele>92.882813</ele>
<time>2012-07-20T15:47:19Z</time>
<speed>3.580000</speed>
<extensions>
<speed>3.6</speed>
<temp>0.00</temp>
<bpm>0</bpm>
<rpm>0.00</rpm>
</extensions>
</trkpt>
<trkpt lat="64.196998596" lon="-20.277881622">
<ele>93.189453</ele>
<time>2012-07-20T15:47:24Z</time>
<speed>3.600000</speed>
<extensions>
<speed>3.6</speed>
<temp>0.00</temp>
<bpm>0</bpm>
<rpm>0.00</rpm>
</extensions>
</trkpt>
<trkpt lat="64.196838379" lon="-20.277877808">
<ele>92.986328</ele>
<time>2012-07-20T15:47:29Z</time>
<speed>3.660000</speed>
<extensions>
<speed>3.7</speed>
<temp>0.00</temp>
<bpm>0</bpm>
<rpm>0.00</rpm>
</extensions>
</trkpt>
<trkpt lat="64.196670532" lon="-20.277883530">
<ele>93.126953</ele>
<time>2012-07-20T15:47:34Z</time>
<speed>3.800000</speed>
<extensions>
<speed>3.8</speed>
<temp>0.00</temp>
<bpm>0</bpm>
<rpm>0.00</rpm>
</extensions>
</trkpt>
<trkpt lat="64.196502686" lon="-20.277877808">
<ele>93.701172</ele>
<time>2012-07-20T15:47:39Z</time>
<speed>3.740000</speed>
<extensions>
<speed>3.7</speed>
<temp>0.00</temp>
<bpm>0</bpm>
<rpm>0.00</rpm>
</extensions>
</trkpt>
<trkpt lat="64.196334839" lon="-20.277885437">
<ele>93.507813</ele>
<time>2012-07-20T15:47:44Z</time>
<speed>3.810000</speed>
<extensions>
<speed>3.8</speed>
<temp>0.00</temp>
<bpm>0</bpm>
<rpm>0.00</rpm>
</extensions>
</trkpt>
<trkpt lat="64.196151733" lon="-20.277881622">
<ele>92.998047</ele>
<time>2012-07-20T15:47:49Z</time>
<speed>4.170000</speed>
<extensions>
<speed>4.2</speed>
<temp>0.00</temp>
<bpm>0</bpm>
<rpm>0.00</rpm>
</extensions>
</trkpt>
<trkpt lat="64.195968628" lon="-20.277873993">
<ele>92.730469</ele>
<time>2012-07-20T15:47:54Z</time>
<speed>3.940000</speed>
<extensions>
<speed>3.9</speed>
<temp>0.00</temp>
<bpm>0</bpm>
<rpm>0.00</rpm>
</extensions>
</trkpt>
<trkpt lat="64.195785522" lon="-20.277872086">
<ele>92.591797</ele>
<time>2012-07-20T15:47:59Z</time>
<speed>4.250000</speed>
<extensions>
<speed>4.3</speed>
<temp>0.00</temp>
<bpm>0</bpm>
<rpm>0.00</rpm>
</extensions>
</trkpt>
<trkpt lat="64.195587158" lon="-20.277870178">
<ele>91.962891</ele>
<time>2012-07-20T15:48:04Z</time>
<speed>4.260000</speed>
<extensions>
<speed>4.3</speed>
<temp>0.00</temp>
<bpm>0</bpm>
<rpm>0.00</rpm>
</extensions>
</trkpt>
<trkpt lat="64.195388794" lon="-20.277879715">
<ele>91.673828</ele>
<time>2012-07-20T15:48:09Z</time>
<speed>4.380000</speed>
<extensions>
<speed>4.4</speed>
<temp>0.00</temp>
<bpm>0</bpm>
<rpm>0.00</rpm>
</extensions>
</trkpt>
<trkpt lat="64.195190430" lon="-20.277870178">
<ele>91.455078</ele>
<time>2012-07-20T15:48:14Z</time>
<speed>4.190000</speed>
<extensions>
<speed>4.2</speed>
<temp>0.00</temp>
<bpm>0</bpm>
<rpm>0.00</rpm>
</extensions>
</trkpt>
<trkpt lat="64.194992065" lon="-20.277843475">
<ele>90.837891</ele>
<time>2012-07-20T15:48:19Z</time>
<speed>4.620000</speed>
<extensions>
<speed>4.6</speed>
<temp>0.00</temp>
<bpm>0</bpm>
<rpm>0.00</rpm>
</extensions>
</trkpt>
<trkpt lat="64.194793701" lon="-20.277835846">
<ele>90.212891</ele>
<time>2012-07-20T15:48:24Z</time>
<speed>4.260000</speed>
<extensions>
<speed>4.3</speed>
<temp>0.00</temp>
<bpm>0</bpm>
<rpm>0.00</rpm>
</extensions>
</trkpt>
<trkpt lat="64.194602966" lon="-20.277833939">
<ele>90.250000</ele>
<time>2012-07-20T15:48:29Z</time>
<speed>4.240000</speed>
<extensions>
<speed>4.2</speed>
<temp>0.00</temp>
<bpm>0</bpm>
<rpm>0.00</rpm>
</extensions>
</trkpt>
<trkpt lat="64.194412231" lon="-20.277841568">
<ele>90.417969</ele>
<time>2012-07-20T15:48:34Z</time>
<speed>4.320000</speed>
<extensions>
<speed>4.3</speed>
<temp>0.00</temp>
<bpm>0</bpm>
<rpm>0.00</rpm>
</extensions>
</trkpt>
<trkpt lat="64.194221497" lon="-20.277843475">
<ele>91.009766</ele>
<time>2012-07-20T15:48:39Z</time>
<speed>4.360000</speed>
<extensions>
<speed>4.4</speed>
<temp>0.00</temp>
<bpm>0</bpm>
<rpm>0.00</rpm>
</extensions>
</trkpt>
<trkpt lat="64.194023132" lon="-20.277839661">
<ele>90.773438</ele>
<time>2012-07-20T15:48:44Z</time>
<speed>4.520000</speed>
<extensions>
<speed>4.5</speed>
<temp>0.00</temp>
<bpm>0</bpm>
<rpm>0.00</rpm>
</extensions>
</trkpt>
<trkpt lat="64.193817139" lon="-20.277828217">
<ele>90.166016</ele>
<time>2012-07-20T15:48:49Z</time>
<speed>4.420000</speed>
<extensions>
<speed>4.4</speed>
<temp>0.00</temp>
<bpm>0</bpm>
<rpm>0.00</rpm>
</extensions>
</trkpt>
<trkpt lat="64.193618774" lon="-20.277824402">
<ele>90.292969</ele>
<time>2012-07-20T15:48:54Z</time>
<speed>4.420000</speed>
<extensions>
<speed>4.4</speed>
<temp>0.00</temp>
<bpm>0</bpm>
<rpm>0.00</rpm>
</extensions>
</trkpt>
<trkpt lat="64.193420410" lon="-20.277811050">
<ele>89.951172</ele>
<time>2012-07-20T15:48:59Z</time>
<speed>4.570000</speed>
<extensions>
<speed>4.6</speed>
<temp>0.00</temp>
<bpm>0</bpm>
<rpm>0.00</rpm>
</extensions>
</trkpt>
<trkpt lat="64.193222046" lon="-20.277799606">
<ele>89.386719</ele>
<time>2012-07-20T15:49:04Z</time>
<speed>4.310000</speed>
<extensions>
<speed>4.3</speed>
<temp>0.00</temp>
<bpm>0</bpm>
<rpm>0.00</rpm>
</extensions>
</trkpt>
<trkpt lat="64.193023682" lon="-20.277793884">
<ele>89.068359</ele>
<time>2012-07-20T15:49:09Z</time>
<speed>4.470000</speed>
<extensions>
<speed>4.5</speed>
<temp>0.00</temp>
<bpm>0</bpm>
<rpm>0.00</rpm>
</extensions>
</trkpt>
<trkpt lat="64.192832947" lon="-20.277795792">
<ele>89.480469</ele>
<time>2012-07-20T15:49:14Z</time>
<speed>3.900000</speed>
<extensions>
<speed>3.9</speed>
<temp>0.00</temp>
<bpm>0</bpm>
<rpm>0.00</rpm>
</extensions>
</trkpt>
<trkpt lat="64.192642212" lon="-20.277791977">
<ele>88.992188</ele>
<time>2012-07-20T15:49:19Z</time>
<speed>4.010000</speed>
<extensions>
<speed>4.0</speed>
<temp>0.00</temp>
<bpm>0</bpm>
<rpm>0.00</rpm>
</extensions>
</trkpt>
<trkpt lat="64.192459106" lon="-20.277786255">
<ele>89.144531</ele>
<time>2012-07-20T15:49:24Z</time>
<speed>4.370000</speed>
<extensions>
<speed>4.4</speed>
<temp>0.00</temp>
<bpm>0</bpm>
<rpm>0.00</rpm>
</extensions>
</trkpt>
<trkpt lat="64.192260742" lon="-20.277772903">
<ele>89.250000</ele>
<time>2012-07-20T15:49:29Z</time>
<speed>4.080000</speed>
<extensions>
<speed>4.1</speed>
<temp>0.00</temp>
<bpm>0</bpm>
<rpm>0.00</rpm>
</extensions>
</trkpt>
<trkpt lat="64.192077637" lon="-20.277767181">
<ele>89.052734</ele>
<time>2012-07-20T15:49:34Z</time>
<speed>4.190000</speed>
<extensions>
<speed>4.2</speed>
<temp>0.00</temp>
<bpm>0</bpm>
<rpm>0.00</rpm>
</extensions>
</trkpt>
<trkpt lat="64.191902161" lon="-20.277765274">
<ele>89.087891</ele>
<time>2012-07-20T15:49:39Z</time>
<speed>4.200000</speed>
<extensions>
<speed>4.2</speed>
<temp>0.00</temp>
<bpm>0</bpm>
<rpm>0.00</rpm>
</extensions>
</trkpt>
<trkpt lat="64.191711426" lon="-20.277750015">
<ele>89.000000</ele>
<time>2012-07-20T15:49:44Z</time>
<speed>4.220000</speed>
<extensions>
<speed>4.2</speed>
<temp>0.00</temp>
<bpm>0</bpm>
<rpm>0.00</rpm>
</extensions>
</trkpt>
<trkpt lat="64.191505432" lon="-20.277742386">
<ele>88.238281</ele>
<time>2012-07-20T15:49:49Z</time>
<speed>4.470000</speed>
<extensions>
<speed>4.5</speed>
<temp>0.00</temp>
<bpm>0</bpm>
<rpm>0.00</rpm>
</extensions>
</trkpt>
<trkpt lat="64.191307068" lon="-20.277751923">
<ele>87.912109</ele>
<time>2012-07-20T15:49:54Z</time>
<speed>4.080000</speed>
<extensions>
<speed>4.1</speed>
<temp>0.00</temp>
<bpm>0</bpm>
<rpm>0.00</rpm>
</extensions>
</trkpt>
<trkpt lat="64.191131592" lon="-20.277750015">
<ele>87.986328</ele>
<time>2012-07-20T15:49:59Z</time>
<speed>4.190000</speed>
<extensions>
<speed>4.2</speed>
<temp>0.00</temp>
<bpm>0</bpm>
<rpm>0.00</rpm>
</extensions>
</trkpt>
<trkpt lat="64.190956116" lon="-20.277744293">
<ele>87.867188</ele>
<time>2012-07-20T15:50:04Z</time>
<speed>3.890000</speed>
<extensions>
<speed>3.9</speed>
<temp>0.00</temp>
<bpm>0</bpm>
<rpm>0.00</rpm>
</extensions>
</trkpt>
<trkpt lat="64.190780640" lon="-20.277759552">
<ele>88.212891</ele>
<time>2012-07-20T15:50:09Z</time>
<speed>4.160000</speed>
<extensions>
<speed>4.2</speed>
<temp>0.00</temp>
<bpm>0</bpm>
<rpm>0.00</rpm>
</extensions>
</trkpt>
<trkpt lat="64.190605164" lon="-20.277780533">
<ele>88.535156</ele>
<time>2012-07-20T15:50:14Z</time>
<speed>3.890000</speed>
<extensions>
<speed>3.9</speed>
<temp>0.00</temp>
<bpm>0</bpm>
<rpm>0.00</rpm>
</extensions>
</trkpt>
<trkpt lat="64.190406799" lon="-20.277799606">
<ele>88.326172</ele>
<time>2012-07-20T15:50:19Z</time>
<speed>4.530000</speed>
<extensions>
<speed>4.5</speed>
<temp>0.00</temp>
<bpm>0</bpm>
<rpm>0.00</rpm>
</extensions>
</trkpt>
<trkpt lat="64.190200806" lon="-20.277818680">
<ele>87.980469</ele>
<time>2012-07-20T15:50:24Z</time>
<speed>4.140000</speed>
<extensions>
<speed>4.1</speed>
<temp>0.00</temp>
<bpm>0</bpm>
<rpm>0.00</rpm>
</extensions>
</trkpt>
<trkpt lat="64.190025330" lon="-20.277868271">
<ele>88.087891</ele>
<time>2012-07-20T15:50:29Z</time>
<speed>3.530000</speed>
<extensions>
<speed>3.5</speed>
<temp>0.00</temp>
<bpm>0</bpm>
<rpm>0.00</rpm>
</extensions>
</trkpt>
<trkpt lat="64.189857483" lon="-20.277921677">
<ele>88.208984</ele>
<time>2012-07-20T15:50:34Z</time>
<speed>4.060000</speed>
<extensions>
<speed>4.1</speed>
<temp>0.00</temp>
<bpm>0</bpm>
<rpm>0.00</rpm>
</extensions>
</trkpt>
<trkpt lat="64.189689636" lon="-20.277990341">
<ele>87.785156</ele>
<time>2012-07-20T15:50:39Z</time>
<speed>3.900000</speed>
<extensions>
<speed>3.9</speed>
<temp>0.00</temp>
<bpm>0</bpm>
<rpm>0.00</rpm>
</extensions>
</trkpt>
<trkpt lat="64.189514160" lon="-20.278059006">
<ele>87.994141</ele>
<time>2012-07-20T15:50:44Z</time>
<speed>4.250000</speed>
<extensions>
<speed>4.3</speed>
<temp>0.00</temp>
<bpm>0</bpm>
<rpm>0.00</rpm>
</extensions>
</trkpt>
<trkpt lat="64.189353943" lon="-20.278141022">
<ele>87.832031</ele>
<time>2012-07-20T15:50:49Z</time>
<speed>3.120000</speed>
<extensions>
<speed>3.1</speed>
<temp>0.00</temp>
<bpm>0</bpm>
<rpm>0.00</rpm>
</extensions>
</trkpt>
<trkpt lat="64.189201355" lon="-20.278200150">
<ele>88.046875</ele>
<time>2012-07-20T15:50:54Z</time>
<speed>3.540000</speed>
<extensions>
<speed>3.5</speed>
<temp>0.00</temp>
<bpm>0</bpm>
<rpm>0.00</rpm>
</extensions>
</trkpt>
<trkpt lat="64.189033508" lon="-20.278268814">
<ele>87.167969</ele>
<time>2012-07-20T15:50:59Z</time>
<speed>3.830000</speed>
<extensions>
<speed>3.8</speed>
<temp>0.00</temp>
<bpm>0</bpm>
<rpm>0.00</rpm>
</extensions>
</trkpt>
<trkpt lat="64.188888550" lon="-20.278345108">
<ele>86.667969</ele>
<time>2012-07-20T15:51:04Z</time>
<speed>3.490000</speed>
<extensions>
<speed>3.5</speed>
<temp>0.00</temp>
<bpm>0</bpm>
<rpm>0.00</rpm>
</extensions>
</trkpt>
<trkpt lat="64.188720703" lon="-20.278450012">
<ele>87.363281</ele>
<time>2012-07-20T15:51:09Z</time>
<speed>4.010000</speed>
<extensions>
<speed>4.0</speed>
<temp>0.00</temp>
<bpm>0</bpm>
<rpm>0.00</rpm>
</extensions>
</trkpt>
<trkpt lat="64.188537598" lon="-20.278547287">
<ele>87.617188</ele>
<time>2012-07-20T15:51:14Z</time>
<speed>3.980000</speed>
<extensions>
<speed>4.0</speed>
<temp>0.00</temp>
<bpm>0</bpm>
<rpm>0.00</rpm>
</extensions>
</trkpt>
<trkpt lat="64.188377380" lon="-20.278676987">
<ele>88.001953</ele>
<time>2012-07-20T15:51:19Z</time>
<speed>3.570000</speed>
<extensions>
<speed>3.6</speed>
<temp>0.00</temp>
<bpm>0</bpm>
<rpm>0.00</rpm>
</extensions>
</trkpt>
<trkpt lat="64.188224792" lon="-20.278791428">
<ele>88.173828</ele>
<time>2012-07-20T15:51:24Z</time>
<speed>3.800000</speed>
<extensions>
<speed>3.8</speed>
<temp>0.00</temp>
<bpm>0</bpm>
<rpm>0.00</rpm>
</extensions>
</trkpt>
<trkpt lat="64.188041687" lon="-20.278913498">
<ele>87.732422</ele>
<time>2012-07-20T15:51:29Z</time>
<speed>3.970000</speed>
<extensions>
<speed>4.0</speed>
<temp>0.00</temp>
<bpm>0</bpm>
<rpm>0.00</rpm>
</extensions>
</trkpt>
<trkpt lat="64.187881470" lon="-20.279037476">
<ele>87.066406</ele>
<time>2012-07-20T15:51:34Z</time>
<speed>3.960000</speed>
<extensions>
<speed>4.0</speed>
<temp>0.00</temp>
<bpm>0</bpm>
<rpm>0.00</rpm>
</extensions>
</trkpt>
<trkpt lat="64.187713623" lon="-20.279174805">
<ele>87.287109</ele>
<time>2012-07-20T15:51:39Z</time>
<speed>3.960000</speed>
<extensions>
<speed>4.0</speed>
<temp>0.00</temp>
<bpm>0</bpm>
<rpm>0.00</rpm>
</extensions>
</trkpt>
<trkpt lat="64.187561035" lon="-20.279296875">
<ele>87.953125</ele>
<time>2012-07-20T15:51:44Z</time>
<speed>3.750000</speed>
<extensions>
<speed>3.8</speed>
<temp>0.00</temp>
<bpm>0</bpm>
<rpm>0.00</rpm>
</extensions>
</trkpt>
<trkpt lat="64.187408447" lon="-20.279413223">
<ele>88.070313</ele>
<time>2012-07-20T15:51:49Z</time>
<speed>3.650000</speed>
<extensions>
<speed>3.7</speed>
<temp>0.00</temp>
<bpm>0</bpm>
<rpm>0.00</rpm>
</extensions>
</trkpt>
<trkpt lat="64.187255859" lon="-20.279537201">
<ele>87.277344</ele>
<time>2012-07-20T15:51:54Z</time>
<speed>3.780000</speed>
<extensions>
<speed>3.8</speed>
<temp>0.00</temp>
<bpm>0</bpm>
<rpm>0.00</rpm>
</extensions>
</trkpt>
<trkpt lat="64.187095642" lon="-20.279670715">
<ele>86.449219</ele>
<time>2012-07-20T15:51:59Z</time>
<speed>3.940000</speed>
<extensions>
<speed>3.9</speed>
<temp>0.00</temp>
<bpm>0</bpm>
<rpm>0.00</rpm>
</extensions>
</trkpt>
<trkpt lat="64.186935425" lon="-20.279796600">
<ele>86.472656</ele>
<time>2012-07-20T15:52:04Z</time>
<speed>3.810000</speed>
<extensions>
<speed>3.8</speed>
<temp>0.00</temp>
<bpm>0</bpm>
<rpm>0.00</rpm>
</extensions>
</trkpt>
<trkpt lat="64.186767578" lon="-20.279928207">
<ele>86.771484</ele>
<time>2012-07-20T15:52:09Z</time>
<speed>3.860000</speed>
<extensions>
<speed>3.9</speed>
<temp>0.00</temp>
<bpm>0</bpm>
<rpm>0.00</rpm>
</extensions>
</trkpt>
<trkpt lat="64.186614990" lon="-20.280063629">
<ele>87.357422</ele>
<time>2012-07-20T15:52:14Z</time>
<speed>3.840000</speed>
<extensions>
<speed>3.8</speed>
<temp>0.00</temp>
<bpm>0</bpm>
<rpm>0.00</rpm>
</extensions>
</trkpt>
<trkpt lat="64.186462402" lon="-20.280185699">
<ele>87.464844</ele>
<time>2012-07-20T15:52:19Z</time>
<speed>3.720000</speed>
<extensions>
<speed>3.7</speed>
<temp>0.00</temp>
<bpm>0</bpm>
<rpm>0.00</rpm>
</extensions>
</trkpt>
<trkpt lat="64.186317444" lon="-20.280309677">
<ele>87.107422</ele>
<time>2012-07-20T15:52:24Z</time>
<speed>3.280000</speed>
<extensions>
<speed>3.3</speed>
<temp>0.00</temp>
<bpm>0</bpm>
<rpm>0.00</rpm>
</extensions>
</trkpt>
<trkpt lat="64.186164856" lon="-20.280437469">
<ele>87.185547</ele>
<time>2012-07-20T15:52:29Z</time>
<speed>3.810000</speed>
<extensions>
<speed>3.8</speed>
<temp>0.00</temp>
<bpm>0</bpm>
<rpm>0.00</rpm>
</extensions>
</trkpt>
<trkpt lat="64.185997009" lon="-20.280569077">
<ele>88.058594</ele>
<time>2012-07-20T15:52:34Z</time>
<speed>4.130000</speed>
<extensions>
<speed>4.1</speed>
<temp>0.00</temp>
<bpm>0</bpm>
<rpm>0.00</rpm>
</extensions>
</trkpt>
<trkpt lat="64.185829163" lon="-20.280687332">
<ele>88.421875</ele>
<time>2012-07-20T15:52:39Z</time>
<speed>4.150000</speed>
<extensions>
<speed>4.1</speed>
<temp>0.00</temp>
<bpm>0</bpm>
<rpm>0.00</rpm>
</extensions>
</trkpt>
<trkpt lat="64.185653687" lon="-20.280849457">
<ele>88.572266</ele>
<time>2012-07-20T15:52:44Z</time>
<speed>4.040000</speed>
<extensions>
<speed>4.0</speed>
<temp>0.00</temp>
<bpm>0</bpm>
<rpm>0.00</rpm>
</extensions>
</trkpt>
<trkpt lat="64.185462952" lon="-20.280996323">
<ele>89.083984</ele>
<time>2012-07-20T15:52:49Z</time>
<speed>4.290000</speed>
<extensions>
<speed>4.3</speed>
<temp>0.00</temp>
<bpm>0</bpm>
<rpm>0.00</rpm>
</extensions>
</trkpt>
<trkpt lat="64.185287476" lon="-20.281139374">
<ele>88.363281</ele>
<time>2012-07-20T15:52:54Z</time>
<speed>4.080000</speed>
<extensions>
<speed>4.1</speed>
<temp>0.00</temp>
<bpm>0</bpm>
<rpm>0.00</rpm>
</extensions>
</trkpt>
<trkpt lat="64.185119629" lon="-20.281270981">
<ele>87.845703</ele>
<time>2012-07-20T15:52:59Z</time>
<speed>4.220000</speed>
<extensions>
<speed>4.2</speed>
<temp>0.00</temp>
<bpm>0</bpm>
<rpm>0.00</rpm>
</extensions>
</trkpt>
<trkpt lat="64.184944153" lon="-20.281414032">
<ele>88.074219</ele>
<time>2012-07-20T15:53:04Z</time>
<speed>3.870000</speed>
<extensions>
<speed>3.9</speed>
<temp>0.00</temp>
<bpm>0</bpm>
<rpm>0.00</rpm>
</extensions>
</trkpt>
<trkpt lat="64.184783936" lon="-20.281543732">
<ele>88.546875</ele>
<time>2012-07-20T15:53:09Z</time>
<speed>3.590000</speed>
<extensions>
<speed>3.6</speed>
<temp>0.00</temp>
<bpm>0</bpm>
<rpm>0.00</rpm>
</extensions>
</trkpt>
<trkpt lat="64.184616089" lon="-20.281673431">
<ele>88.236328</ele>
<time>2012-07-20T15:53:14Z</time>
<speed>4.070000</speed>
<extensions>
<speed>4.1</speed>
<temp>0.00</temp>
<bpm>0</bpm>
<rpm>0.00</rpm>
</extensions>
</trkpt>
<trkpt lat="64.184440613" lon="-20.281803131">
<ele>87.664063</ele>
<time>2012-07-20T15:53:19Z</time>
<speed>3.650000</speed>
<extensions>
<speed>3.7</speed>
<temp>0.00</temp>
<bpm>0</bpm>
<rpm>0.00</rpm>
</extensions>
</trkpt>
<trkpt lat="64.184303284" lon="-20.281917572">
<ele>87.962891</ele>
<time>2012-07-20T15:53:24Z</time>
<speed>3.410000</speed>
<extensions>
<speed>3.4</speed>
<temp>0.00</temp>
<bpm>0</bpm>
<rpm>0.00</rpm>
</extensions>
</trkpt>
<trkpt lat="64.184158325" lon="-20.282037735">
<ele>88.050781</ele>
<time>2012-07-20T15:53:29Z</time>
<speed>3.670000</speed>
<extensions>
<speed>3.7</speed>
<temp>0.00</temp>
<bpm>0</bpm>
<rpm>0.00</rpm>
</extensions>
</trkpt>
<trkpt lat="64.183998108" lon="-20.282161713">
<ele>88.337891</ele>
<time>2012-07-20T15:53:34Z</time>
<speed>3.570000</speed>
<extensions>
<speed>3.6</speed>
<temp>0.00</temp>
<bpm>0</bpm>
<rpm>0.00</rpm>
</extensions>
</trkpt>
<trkpt lat="64.183830261" lon="-20.282297134">
<ele>88.171875</ele>
<time>2012-07-20T15:53:39Z</time>
<speed>3.700000</speed>
<extensions>
<speed>3.7</speed>
<temp>0.00</temp>
<bpm>0</bpm>
<rpm>0.00</rpm>
</extensions>
</trkpt>
<trkpt lat="64.183677673" lon="-20.282421112">
<ele>87.925781</ele>
<time>2012-07-20T15:53:44Z</time>
<speed>3.790000</speed>
<extensions>
<speed>3.8</speed>
<temp>0.00</temp>
<bpm>0</bpm>
<rpm>0.00</rpm>
</extensions>
</trkpt>
<trkpt lat="64.183509827" lon="-20.282543182">
<ele>87.951172</ele>
<time>2012-07-20T15:53:49Z</time>
<speed>3.940000</speed>
<extensions>
<speed>3.9</speed>
<temp>0.00</temp>
<bpm>0</bpm>
<rpm>0.00</rpm>
</extensions>
</trkpt>
<trkpt lat="64.183349609" lon="-20.282676697">
<ele>88.154297</ele>
<time>2012-07-20T15:53:54Z</time>
<speed>3.920000</speed>
<extensions>
<speed>3.9</speed>
<temp>0.00</temp>
<bpm>0</bpm>
<rpm>0.00</rpm>
</extensions>
</trkpt>
<trkpt lat="64.183181763" lon="-20.282815933">
<ele>88.646484</ele>
<time>2012-07-20T15:53:59Z</time>
<speed>3.930000</speed>
<extensions>
<speed>3.9</speed>
<temp>0.00</temp>
<bpm>0</bpm>
<rpm>0.00</rpm>
</extensions>
</trkpt>
<trkpt lat="64.183006287" lon="-20.282949448">
<ele>88.044922</ele>
<time>2012-07-20T15:54:04Z</time>
<speed>4.060000</speed>
<extensions>
<speed>4.1</speed>
<temp>0.00</temp>
<bpm>0</bpm>
<rpm>0.00</rpm>
</extensions>
</trkpt>
<trkpt lat="64.182823181" lon="-20.283082962">
<ele>88.156250</ele>
<time>2012-07-20T15:54:09Z</time>
<speed>4.180000</speed>
<extensions>
<speed>4.2</speed>
<temp>0.00</temp>
<bpm>0</bpm>
<rpm>0.00</rpm>
</extensions>
</trkpt>
<trkpt lat="64.182655334" lon="-20.283243179">
<ele>89.318359</ele>
<time>2012-07-20T15:54:14Z</time>
<speed>4.170000</speed>
<extensions>
<speed>4.2</speed>
<temp>0.00</temp>
<bpm>0</bpm>
<rpm>0.00</rpm>
</extensions>
</trkpt>
<trkpt lat="64.182479858" lon="-20.283382416">
<ele>89.691406</ele>
<time>2012-07-20T15:54:19Z</time>
<speed>4.150000</speed>
<extensions>
<speed>4.1</speed>
<temp>0.00</temp>
<bpm>0</bpm>
<rpm>0.00</rpm>
</extensions>
</trkpt>
<trkpt lat="64.182304382" lon="-20.283521652">
<ele>90.267578</ele>
<time>2012-07-20T15:54:24Z</time>
<speed>4.160000</speed>
<extensions>
<speed>4.2</speed>
<temp>0.00</temp>
<bpm>0</bpm>
<rpm>0.00</rpm>
</extensions>
</trkpt>
<trkpt lat="64.182121277" lon="-20.283660889">
<ele>90.226563</ele>
<time>2012-07-20T15:54:29Z</time>
<speed>4.250000</speed>
<extensions>
<speed>4.3</speed>
<temp>0.00</temp>
<bpm>0</bpm>
<rpm>0.00</rpm>
</extensions>
</trkpt>
<trkpt lat="64.181938171" lon="-20.283809662">
<ele>90.460938</ele>
<time>2012-07-20T15:54:34Z</time>
<speed>4.230000</speed>
<extensions>
<speed>4.2</speed>
<temp>0.00</temp>
<bpm>0</bpm>
<rpm>0.00</rpm>
</extensions>
</trkpt>
<trkpt lat="64.181762695" lon="-20.283962250">
<ele>90.058594</ele>
<time>2012-07-20T15:54:39Z</time>
<speed>4.290000</speed>
<extensions>
<speed>4.3</speed>
<temp>0.00</temp>
<bpm>0</bpm>
<rpm>0.00</rpm>
</extensions>
</trkpt>
<trkpt lat="64.181579590" lon="-20.284114838">
<ele>90.044922</ele>
<time>2012-07-20T15:54:44Z</time>
<speed>4.170000</speed>
<extensions>
<speed>4.2</speed>
<temp>0.00</temp>
<bpm>0</bpm>
<rpm>0.00</rpm>
</extensions>
</trkpt>
<trkpt lat="64.181396484" lon="-20.284265518">
<ele>90.357422</ele>
<time>2012-07-20T15:54:49Z</time>
<speed>4.450000</speed>
<extensions>
<speed>4.5</speed>
<temp>0.00</temp>
<bpm>0</bpm>
<rpm>0.00</rpm>
</extensions>
</trkpt>
<trkpt lat="64.181213379" lon="-20.284412384">
<ele>91.220703</ele>
<time>2012-07-20T15:54:54Z</time>
<speed>4.230000</speed>
<extensions>
<speed>4.2</speed>
<temp>0.00</temp>
<bpm>0</bpm>
<rpm>0.00</rpm>
</extensions>
</trkpt>
<trkpt lat="64.181030273" lon="-20.284551620">
<ele>90.380859</ele>
<time>2012-07-20T15:54:59Z</time>
<speed>4.270000</speed>
<extensions>
<speed>4.3</speed>
<temp>0.00</temp>
<bpm>0</bpm>
<rpm>0.00</rpm>
</extensions>
</trkpt>
<trkpt lat="64.180847168" lon="-20.284698486">
<ele>89.628906</ele>
<time>2012-07-20T15:55:04Z</time>
<speed>4.300000</speed>
<extensions>
<speed>4.3</speed>
<temp>0.00</temp>
<bpm>0</bpm>
<rpm>0.00</rpm>
</extensions>
</trkpt>
<trkpt lat="64.180686951" lon="-20.284837723">
<ele>88.730469</ele>
<time>2012-07-20T15:55:09Z</time>
<speed>3.880000</speed>
<extensions>
<speed>3.9</speed>
<temp>0.00</temp>
<bpm>0</bpm>
<rpm>0.00</rpm>
</extensions>
</trkpt>
<trkpt lat="64.180534363" lon="-20.284936905">
<ele>90.396484</ele>
<time>2012-07-20T15:55:14Z</time>
<speed>3.560000</speed>
<extensions>
<speed>3.6</speed>
<temp>0.00</temp>
<bpm>0</bpm>
<rpm>0.00</rpm>
</extensions>
</trkpt>
<trkpt lat="64.180397034" lon="-20.285049438">
<ele>90.712891</ele>
<time>2012-07-20T15:55:19Z</time>
<speed>2.970000</speed>
<extensions>
<speed>3.0</speed>
<temp>0.00</temp>
<bpm>0</bpm>
<rpm>0.00</rpm>
</extensions>
</trkpt>
<trkpt lat="64.180297852" lon="-20.285146713">
<ele>90.210938</ele>
<time>2012-07-20T15:55:24Z</time>
<speed>2.240000</speed>
<extensions>
<speed>2.2</speed>
<temp>0.00</temp>
<bpm>0</bpm>
<rpm>0.00</rpm>
</extensions>
</trkpt>
<trkpt lat="64.180191040" lon="-20.285230637">
<ele>90.443359</ele>
<time>2012-07-20T15:55:29Z</time>
<speed>2.900000</speed>
<extensions>
<speed>2.9</speed>
<temp>0.00</temp>
<bpm>0</bpm>
<rpm>0.00</rpm>
</extensions>
</trkpt>
<trkpt lat="64.180061340" lon="-20.285318375">
<ele>90.783203</ele>
<time>2012-07-20T15:55:34Z</time>
<speed>2.900000</speed>
<extensions>
<speed>2.9</speed>
<temp>0.00</temp>
<bpm>0</bpm>
<rpm>0.00</rpm>
</extensions>
</trkpt>
<trkpt lat="64.179977417" lon="-20.285394669">
<ele>91.591797</ele>
<time>2012-07-20T15:55:39Z</time>
<speed>1.990000</speed>
<extensions>
<speed>2.0</speed>
<temp>0.00</temp>
<bpm>0</bpm>
<rpm>0.00</rpm>
</extensions>
</trkpt>
<trkpt lat="64.179885864" lon="-20.285463333">
<ele>91.769531</ele>
<time>2012-07-20T15:55:44Z</time>
<speed>2.340000</speed>
<extensions>
<speed>2.3</speed>
<temp>0.00</temp>
<bpm>0</bpm>
<rpm>0.00</rpm>
</extensions>
</trkpt>
<trkpt lat="64.179786682" lon="-20.285552979">
<ele>91.820313</ele>
<time>2012-07-20T15:55:49Z</time>
<speed>2.430000</speed>
<extensions>
<speed>2.4</speed>
<temp>0.00</temp>
<bpm>0</bpm>
<rpm>0.00</rpm>
</extensions>
</trkpt>
<trkpt lat="64.179687500" lon="-20.285625458">
<ele>92.470703</ele>
<time>2012-07-20T15:55:54Z</time>
<speed>2.360000</speed>
<extensions>
<speed>2.4</speed>
<temp>0.00</temp>
<bpm>0</bpm>
<rpm>0.00</rpm>
</extensions>
</trkpt>
<trkpt lat="64.179595947" lon="-20.285682678">
<ele>92.876953</ele>
<time>2012-07-20T15:55:59Z</time>
<speed>2.290000</speed>
<extensions>
<speed>2.3</speed>
<temp>0.00</temp>
<bpm>0</bpm>
<rpm>0.00</rpm>
</extensions>
</trkpt>
<trkpt lat="64.179489136" lon="-20.285762787">
<ele>92.220703</ele>
<time>2012-07-20T15:56:04Z</time>
<speed>2.390000</speed>
<extensions>
<speed>2.4</speed>
<temp>0.00</temp>
<bpm>0</bpm>
<rpm>0.00</rpm>
</extensions>
</trkpt>
<trkpt lat="64.179420471" lon="-20.285789490">
<ele>93.578125</ele>
<time>2012-07-20T15:56:09Z</time>
<speed>1.540000</speed>
<extensions>
<speed>1.5</speed>
<temp>0.00</temp>
<bpm>0</bpm>
<rpm>0.00</rpm>
</extensions>
</trkpt>
<trkpt lat="64.179344177" lon="-20.285840988">
<ele>94.785156</ele>
<time>2012-07-20T15:56:14Z</time>
<speed>1.850000</speed>
<extensions>
<speed>1.8</speed>
<temp>0.00</temp>
<bpm>0</bpm>
<rpm>0.00</rpm>
</extensions>
</trkpt>
<trkpt lat="64.179260254" lon="-20.285892487">
<ele>94.621094</ele>
<time>2012-07-20T15:56:19Z</time>
<speed>1.970000</speed>
<extensions>
<speed>2.0</speed>
<temp>0.00</temp>
<bpm>0</bpm>
<rpm>0.00</rpm>
</extensions>
</trkpt>
<trkpt lat="64.179161072" lon="-20.285961151">
<ele>95.203125</ele>
<time>2012-07-20T15:56:24Z</time>
<speed>2.270000</speed>
<extensions>
<speed>2.3</speed>
<temp>0.00</temp>
<bpm>0</bpm>
<rpm>0.00</rpm>
</extensions>
</trkpt>
<trkpt lat="64.179061890" lon="-20.286006927">
<ele>95.257813</ele>
<time>2012-07-20T15:56:29Z</time>
<speed>2.220000</speed>
<extensions>
<speed>2.2</speed>
<temp>0.00</temp>
<bpm>0</bpm>
<rpm>0.00</rpm>
</extensions>
</trkpt>
<trkpt lat="64.178962708" lon="-20.286060333">
<ele>96.111328</ele>
<time>2012-07-20T15:56:34Z</time>
<speed>2.190000</speed>
<extensions>
<speed>2.2</speed>
<temp>0.00</temp>
<bpm>0</bpm>
<rpm>0.00</rpm>
</extensions>
</trkpt>
<trkpt lat="64.178871155" lon="-20.286092758">
<ele>96.251953</ele>
<time>2012-07-20T15:56:39Z</time>
<speed>1.970000</speed>
<extensions>
<speed>2.0</speed>
<temp>0.00</temp>
<bpm>0</bpm>
<rpm>0.00</rpm>
</extensions>
</trkpt>
<trkpt lat="64.178779602" lon="-20.286119461">
<ele>96.123047</ele>
<time>2012-07-20T15:56:44Z</time>
<speed>1.900000</speed>
<extensions>
<speed>1.9</speed>
<temp>0.00</temp>
<bpm>0</bpm>
<rpm>0.00</rpm>
</extensions>
</trkpt>
<trkpt lat="64.178710938" lon="-20.286151886">
<ele>96.826172</ele>
<time>2012-07-20T15:56:49Z</time>
<speed>1.820000</speed>
<extensions>
<speed>1.8</speed>
<temp>0.00</temp>
<bpm>0</bpm>
<rpm>0.00</rpm>
</extensions>
</trkpt>
<trkpt lat="64.178627014" lon="-20.286174774">
<ele>95.916016</ele>
<time>2012-07-20T15:56:54Z</time>
<speed>1.980000</speed>
<extensions>
<speed>2.0</speed>
<temp>0.00</temp>
<bpm>0</bpm>
<rpm>0.00</rpm>
</extensions>
</trkpt>
<trkpt lat="64.178543091" lon="-20.286199570">
<ele>97.902344</ele>
<time>2012-07-20T15:56:59Z</time>
<speed>2.120000</speed>
<extensions>
<speed>2.1</speed>
<temp>0.00</temp>
<bpm>0</bpm>
<rpm>0.00</rpm>
</extensions>
</trkpt>
<trkpt lat="64.178459167" lon="-20.286230087">
<ele>98.457031</ele>
<time>2012-07-20T15:57:04Z</time>
<speed>1.930000</speed>
<extensions>
<speed>1.9</speed>
<temp>0.00</temp>
<bpm>0</bpm>
<rpm>0.00</rpm>
</extensions>
</trkpt>
<trkpt lat="64.178382874" lon="-20.286266327">
<ele>99.599609</ele>
<time>2012-07-20T15:57:09Z</time>
<speed>2.060000</speed>
<extensions>
<speed>2.1</speed>
<temp>0.00</temp>
<bpm>0</bpm>
<rpm>0.00</rpm>
</extensions>
</trkpt>
<trkpt lat="64.178291321" lon="-20.286308289">
<ele>101.236328</ele>
<time>2012-07-20T15:57:14Z</time>
<speed>2.260000</speed>
<extensions>
<speed>2.3</speed>
<temp>0.00</temp>
<bpm>0</bpm>
<rpm>0.00</rpm>
</extensions>
</trkpt>
<trkpt lat="64.178199768" lon="-20.286344528">
<ele>101.146484</ele>
<time>2012-07-20T15:57:19Z</time>
<speed>1.760000</speed>
<extensions>
<speed>1.8</speed>
<temp>0.00</temp>
<bpm>0</bpm>
<rpm>0.00</rpm>
</extensions>
</trkpt>
<trkpt lat="64.178115845" lon="-20.286359787">
<ele>101.607422</ele>
<time>2012-07-20T15:57:24Z</time>
<speed>1.790000</speed>
<extensions>
<speed>1.8</speed>
<temp>0.00</temp>
<bpm>0</bpm>
<rpm>0.00</rpm>
</extensions>
</trkpt>
<trkpt lat="64.178031921" lon="-20.286380768">
<ele>102.632813</ele>
<time>2012-07-20T15:57:29Z</time>
<speed>1.810000</speed>
<extensions>
<speed>1.8</speed>
<temp>0.00</temp>
<bpm>0</bpm>
<rpm>0.00</rpm>
</extensions>
</trkpt>
<trkpt lat="64.177940369" lon="-20.286386490">
<ele>102.759766</ele>
<time>2012-07-20T15:57:34Z</time>
<speed>2.200000</speed>
<extensions>
<speed>2.2</speed>
<temp>0.00</temp>
<bpm>0</bpm>
<rpm>0.00</rpm>
</extensions>
</trkpt>
<trkpt lat="64.177848816" lon="-20.286382675">
<ele>103.158203</ele>
<time>2012-07-20T15:57:39Z</time>
<speed>2.350000</speed>
<extensions>
<speed>2.4</speed>
<temp>0.00</temp>
<bpm>0</bpm>
<rpm>0.00</rpm>
</extensions>
</trkpt>
<trkpt lat="64.177734375" lon="-20.286388397">
<ele>102.472656</ele>
<time>2012-07-20T15:57:44Z</time>
<speed>2.290000</speed>
<extensions>
<speed>2.3</speed>
<temp>0.00</temp>
<bpm>0</bpm>
<rpm>0.00</rpm>
</extensions>
</trkpt>
<trkpt lat="64.177627563" lon="-20.286401749">
<ele>102.800781</ele>
<time>2012-07-20T15:57:49Z</time>
<speed>2.330000</speed>
<extensions>
<speed>2.3</speed>
<temp>0.00</temp>
<bpm>0</bpm>
<rpm>0.00</rpm>
</extensions>
</trkpt>
<trkpt lat="64.177551270" lon="-20.286420822">
<ele>103.630859</ele>
<time>2012-07-20T15:57:54Z</time>
<speed>0.990000</speed>
<extensions>
<speed>1.0</speed>
<temp>0.00</temp>
<bpm>0</bpm>
<rpm>0.00</rpm>
</extensions>
</trkpt>
<trkpt lat="64.177452087" lon="-20.286396027">
<ele>103.556641</ele>
<time>2012-07-20T15:57:59Z</time>
<speed>2.690000</speed>
<extensions>
<speed>2.7</speed>
<temp>0.00</temp>
<bpm>0</bpm>
<rpm>0.00</rpm>
</extensions>
</trkpt>
<trkpt lat="64.177330017" lon="-20.286397934">
<ele>104.085938</ele>
<time>2012-07-20T15:58:04Z</time>
<speed>2.850000</speed>
<extensions>
<speed>2.9</speed>
<temp>0.00</temp>
<bpm>0</bpm>
<rpm>0.00</rpm>
</extensions>
</trkpt>
<trkpt lat="64.177207947" lon="-20.286392212">
<ele>104.671875</ele>
<time>2012-07-20T15:58:09Z</time>
<speed>2.690000</speed>
<extensions>
<speed>2.7</speed>
<temp>0.00</temp>
<bpm>0</bpm>
<rpm>0.00</rpm>
</extensions>
</trkpt>
<trkpt lat="64.177093506" lon="-20.286392212">
<ele>106.960938</ele>
<time>2012-07-20T15:58:14Z</time>
<speed>2.700000</speed>
<extensions>
<speed>2.7</speed>
<temp>0.00</temp>
<bpm>0</bpm>
<rpm>0.00</rpm>
</extensions>
</trkpt>
<trkpt lat="64.176971436" lon="-20.286382675">
<ele>107.382813</ele>
<time>2012-07-20T15:58:19Z</time>
<speed>2.830000</speed>
<extensions>
<speed>2.8</speed>
<temp>0.00</temp>
<bpm>0</bpm>
<rpm>0.00</rpm>
</extensions>
</trkpt>
<trkpt lat="64.176834106" lon="-20.286354065">
<ele>107.279297</ele>
<time>2012-07-20T15:58:24Z</time>
<speed>2.900000</speed>
<extensions>
<speed>2.9</speed>
<temp>0.00</temp>
<bpm>0</bpm>
<rpm>0.00</rpm>
</extensions>
</trkpt>
<trkpt lat="64.176704407" lon="-20.286325455">
<ele>107.601563</ele>
<time>2012-07-20T15:58:29Z</time>
<speed>2.950000</speed>
<extensions>
<speed>2.9</speed>
<temp>0.00</temp>
<bpm>0</bpm>
<rpm>0.00</rpm>
</extensions>
</trkpt>
<trkpt lat="64.176567078" lon="-20.286293030">
<ele>107.431641</ele>
<time>2012-07-20T15:58:34Z</time>
<speed>3.110000</speed>
<extensions>
<speed>3.1</speed>
<temp>0.00</temp>
<bpm>0</bpm>
<rpm>0.00</rpm>
</extensions>
</trkpt>
<trkpt lat="64.176429749" lon="-20.286241531">
<ele>107.025391</ele>
<time>2012-07-20T15:58:39Z</time>
<speed>3.010000</speed>
<extensions>
<speed>3.0</speed>
<temp>0.00</temp>
<bpm>0</bpm>
<rpm>0.00</rpm>
</extensions>
</trkpt>
<trkpt lat="64.176292419" lon="-20.286193848">
<ele>107.634766</ele>
<time>2012-07-20T15:58:44Z</time>
<speed>2.880000</speed>
<extensions>
<speed>2.9</speed>
<temp>0.00</temp>
<bpm>0</bpm>
<rpm>0.00</rpm>
</extensions>
</trkpt>
<trkpt lat="64.176162720" lon="-20.286138535">
<ele>108.013672</ele>
<time>2012-07-20T15:58:49Z</time>
<speed>3.430000</speed>
<extensions>
<speed>3.4</speed>
<temp>0.00</temp>
<bpm>0</bpm>
<rpm>0.00</rpm>
</extensions>
</trkpt>
<trkpt lat="64.176017761" lon="-20.286064148">
<ele>108.326172</ele>
<time>2012-07-20T15:58:54Z</time>
<speed>3.150000</speed>
<extensions>
<speed>3.2</speed>
<temp>0.00</temp>
<bpm>0</bpm>
<rpm>0.00</rpm>
</extensions>
</trkpt>
<trkpt lat="64.175903320" lon="-20.286008835">
<ele>108.425781</ele>
<time>2012-07-20T15:58:59Z</time>
<speed>2.230000</speed>
<extensions>
<speed>2.2</speed>
<temp>0.00</temp>
<bpm>0</bpm>
<rpm>0.00</rpm>
</extensions>
</trkpt>
<trkpt lat="64.175811768" lon="-20.285953522">
<ele>107.902344</ele>
<time>2012-07-20T15:59:04Z</time>
<speed>2.230000</speed>
<extensions>
<speed>2.2</speed>
<temp>0.00</temp>
<bpm>0</bpm>
<rpm>0.00</rpm>
</extensions>
</trkpt>
<trkpt lat="64.175682068" lon="-20.285911560">
<ele>107.751953</ele>
<time>2012-07-20T15:59:09Z</time>
<speed>3.430000</speed>
<extensions>
<speed>3.4</speed>
<temp>0.00</temp>
<bpm>0</bpm>
<rpm>0.00</rpm>
</extensions>
</trkpt>
<trkpt lat="64.175521851" lon="-20.285825729">
<ele>107.921875</ele>
<time>2012-07-20T15:59:14Z</time>
<speed>3.520000</speed>
<extensions>
<speed>3.5</speed>
<temp>0.00</temp>
<bpm>0</bpm>
<rpm>0.00</rpm>
</extensions>
</trkpt>
<trkpt lat="64.175369263" lon="-20.285751343">
<ele>108.498047</ele>
<time>2012-07-20T15:59:19Z</time>
<speed>3.550000</speed>
<extensions>
<speed>3.5</speed>
<temp>0.00</temp>
<bpm>0</bpm>
<rpm>0.00</rpm>
</extensions>
</trkpt>
<trkpt lat="64.175239563" lon="-20.285682678">
<ele>108.636719</ele>
<time>2012-07-20T15:59:24Z</time>
<speed>2.500000</speed>
<extensions>
<speed>2.5</speed>
<temp>0.00</temp>
<bpm>0</bpm>
<rpm>0.00</rpm>
</extensions>
</trkpt>
<trkpt lat="64.175140381" lon="-20.285623550">
<ele>108.144531</ele>
<time>2012-07-20T15:59:29Z</time>
<speed>2.230000</speed>
<extensions>
<speed>2.2</speed>
<temp>0.00</temp>
<bpm>0</bpm>
<rpm>0.00</rpm>
</extensions>
</trkpt>
<trkpt lat="64.175010681" lon="-20.285539627">
<ele>107.609375</ele>
<time>2012-07-20T15:59:34Z</time>
<speed>3.460000</speed>
<extensions>
<speed>3.5</speed>
<temp>0.00</temp>
<bpm>0</bpm>
<rpm>0.00</rpm>
</extensions>
</trkpt>
<trkpt lat="64.174865723" lon="-20.285480499">
<ele>107.468750</ele>
<time>2012-07-20T15:59:39Z</time>
<speed>2.820000</speed>
<extensions>
<speed>2.8</speed>
<temp>0.00</temp>
<bpm>0</bpm>
<rpm>0.00</rpm>
</extensions>
</trkpt>
<trkpt lat="64.174766541" lon="-20.285430908">
<ele>107.046875</ele>
<time>2012-07-20T15:59:44Z</time>
<speed>1.980000</speed>
<extensions>
<speed>2.0</speed>
<temp>0.00</temp>
<bpm>0</bpm>
<rpm>0.00</rpm>
</extensions>
</trkpt>
<trkpt lat="64.174713135" lon="-20.285398483">
<ele>107.031250</ele>
<time>2012-07-20T15:59:49Z</time>
<speed>0.480000</speed>
<extensions>
<speed>0.5</speed>
<temp>0.00</temp>
<bpm>0</bpm>
<rpm>0.00</rpm>
</extensions>
</trkpt>
<trkpt lat="64.174713135" lon="-20.285400391">
<ele>106.835938</ele>
<time>2012-07-20T15:59:54Z</time>
<speed>0.010000</speed>
<extensions>
<speed>0.0</speed>
<temp>0.00</temp>
<bpm>0</bpm>
<rpm>0.00</rpm>
</extensions>
</trkpt>
<trkpt lat="64.174713135" lon="-20.285400391">
<ele>106.847656</ele>
<time>2012-07-20T15:59:59Z</time>
<speed>0.010000</speed>
<extensions>
<speed>0.0</speed>
<temp>0.00</temp>
<bpm>0</bpm>
<rpm>0.00</rpm>
</extensions>
</trkpt>
<trkpt lat="64.174713135" lon="-20.285400391">
<ele>106.906250</ele>
<time>2012-07-20T16:00:04Z</time>
<extensions>
<speed>0.0</speed>
<temp>0.00</temp>
<bpm>0</bpm>
<rpm>0.00</rpm>
</extensions>
</trkpt>
<trkpt lat="64.174713135" lon="-20.285400391">
<ele>106.935547</ele>
<time>2012-07-20T16:00:09Z</time>
<speed>0.400000</speed>
<extensions>
<speed>0.4</speed>
<temp>0.00</temp>
<bpm>0</bpm>
<rpm>0.00</rpm>
</extensions>
</trkpt>
<trkpt lat="64.174659729" lon="-20.285377502">
<ele>107.246094</ele>
<time>2012-07-20T16:00:14Z</time>
<speed>2.430000</speed>
<extensions>
<speed>2.4</speed>
<temp>0.00</temp>
<bpm>0</bpm>
<rpm>0.00</rpm>
</extensions>
</trkpt>
<trkpt lat="64.174537659" lon="-20.285324097">
<ele>107.365234</ele>
<time>2012-07-20T16:00:19Z</time>
<speed>2.920000</speed>
<extensions>
<speed>2.9</speed>
<temp>0.00</temp>
<bpm>0</bpm>
<rpm>0.00</rpm>
</extensions>
</trkpt>
<trkpt lat="64.174392700" lon="-20.285247803">
<ele>107.644531</ele>
<time>2012-07-20T16:00:24Z</time>
<speed>3.260000</speed>
<extensions>
<speed>3.3</speed>
<temp>0.00</temp>
<bpm>0</bpm>
<rpm>0.00</rpm>
</extensions>
</trkpt>
<trkpt lat="64.174240112" lon="-20.285186768">
<ele>107.765625</ele>
<time>2012-07-20T16:00:29Z</time>
<speed>3.410000</speed>
<extensions>
<speed>3.4</speed>
<temp>0.00</temp>
<bpm>0</bpm>
<rpm>0.00</rpm>
</extensions>
</trkpt>
<trkpt lat="64.174087524" lon="-20.285110474">
<ele>108.117188</ele>
<time>2012-07-20T16:00:34Z</time>
<speed>3.550000</speed>
<extensions>
<speed>3.5</speed>
<temp>0.00</temp>
<bpm>0</bpm>
<rpm>0.00</rpm>
</extensions>
</trkpt>
<trkpt lat="64.173934937" lon="-20.285024643">
<ele>108.203125</ele>
<time>2012-07-20T16:00:39Z</time>
<speed>3.650000</speed>
<extensions>
<speed>3.7</speed>
<temp>0.00</temp>
<bpm>0</bpm>
<rpm>0.00</rpm>
</extensions>
</trkpt>
<trkpt lat="64.173767090" lon="-20.284961700">
<ele>108.650391</ele>
<time>2012-07-20T16:00:44Z</time>
<speed>3.560000</speed>
<extensions>
<speed>3.6</speed>
<temp>0.00</temp>
<bpm>0</bpm>
<rpm>0.00</rpm>
</extensions>
</trkpt>
<trkpt lat="64.173614502" lon="-20.284896851">
<ele>108.976563</ele>
<time>2012-07-20T16:00:49Z</time>
<speed>3.700000</speed>
<extensions>
<speed>3.7</speed>
<temp>0.00</temp>
<bpm>0</bpm>
<rpm>0.00</rpm>
</extensions>
</trkpt>
<trkpt lat="64.173446655" lon="-20.284847260">
<ele>108.921875</ele>
<time>2012-07-20T16:00:54Z</time>
<speed>3.910000</speed>
<extensions>
<speed>3.9</speed>
<temp>0.00</temp>
<bpm>0</bpm>
<rpm>0.00</rpm>
</extensions>
</trkpt>
<trkpt lat="64.173278809" lon="-20.284820557">
<ele>108.941406</ele>
<time>2012-07-20T16:00:59Z</time>
<speed>3.780000</speed>
<extensions>
<speed>3.8</speed>
<temp>0.00</temp>
<bpm>0</bpm>
<rpm>0.00</rpm>
</extensions>
</trkpt>
<trkpt lat="64.173103333" lon="-20.284797668">
<ele>108.750000</ele>
<time>2012-07-20T16:01:04Z</time>
<speed>3.850000</speed>
<extensions>
<speed>3.8</speed>
<temp>0.00</temp>
<bpm>0</bpm>
<rpm>0.00</rpm>
</extensions>
</trkpt>
<trkpt lat="64.172935486" lon="-20.284801483">
<ele>108.595703</ele>
<time>2012-07-20T16:01:09Z</time>
<speed>3.140000</speed>
<extensions>
<speed>3.1</speed>
<temp>0.00</temp>
<bpm>0</bpm>
<rpm>0.00</rpm>
</extensions>
</trkpt>
<trkpt lat="64.172821045" lon="-20.284820557">
<ele>108.546875</ele>
<time>2012-07-20T16:01:14Z</time>
<speed>2.420000</speed>
<extensions>
<speed>2.4</speed>
<temp>0.00</temp>
<bpm>0</bpm>
<rpm>0.00</rpm>
</extensions>
</trkpt>
<trkpt lat="64.172706604" lon="-20.284822464">
<ele>109.130859</ele>
<time>2012-07-20T16:01:19Z</time>
<speed>2.870000</speed>
<extensions>
<speed>2.9</speed>
<temp>0.00</temp>
<bpm>0</bpm>
<rpm>0.00</rpm>
</extensions>
</trkpt>
<trkpt lat="64.172569275" lon="-20.284828186">
<ele>107.455078</ele>
<time>2012-07-20T16:01:24Z</time>
<speed>3.260000</speed>
<extensions>
<speed>3.3</speed>
<temp>0.00</temp>
<bpm>0</bpm>
<rpm>0.00</rpm>
</extensions>
</trkpt>
<trkpt lat="64.172416687" lon="-20.284866333">
<ele>108.986328</ele>
<time>2012-07-20T16:01:29Z</time>
<speed>3.340000</speed>
<extensions>
<speed>3.3</speed>
<temp>0.00</temp>
<bpm>0</bpm>
<rpm>0.00</rpm>
</extensions>
</trkpt>
<trkpt lat="64.172256470" lon="-20.284915924">
<ele>108.933594</ele>
<time>2012-07-20T16:01:34Z</time>
<speed>3.800000</speed>
<extensions>
<speed>3.8</speed>
<temp>0.00</temp>
<bpm>0</bpm>
<rpm>0.00</rpm>
</extensions>
</trkpt>
<trkpt lat="64.172080994" lon="-20.284988403">
<ele>109.005859</ele>
<time>2012-07-20T16:01:39Z</time>
<speed>4.040000</speed>
<extensions>
<speed>4.0</speed>
<temp>0.00</temp>
<bpm>0</bpm>
<rpm>0.00</rpm>
</extensions>
</trkpt>
<trkpt lat="64.171913147" lon="-20.285062790">
<ele>111.015625</ele>
<time>2012-07-20T16:01:44Z</time>
<speed>3.370000</speed>
<extensions>
<speed>3.4</speed>
<temp>0.00</temp>
<bpm>0</bpm>
<rpm>0.00</rpm>
</extensions>
</trkpt>
<trkpt lat="64.171775818" lon="-20.285139084">
<ele>109.060547</ele>
<time>2012-07-20T16:01:49Z</time>
<speed>3.020000</speed>
<extensions>
<speed>3.0</speed>
<temp>0.00</temp>
<bpm>0</bpm>
<rpm>0.00</rpm>
</extensions>
</trkpt>
<trkpt lat="64.171646118" lon="-20.285238266">
<ele>108.890625</ele>
<time>2012-07-20T16:01:54Z</time>
<speed>3.410000</speed>
<extensions>
<speed>3.4</speed>
<temp>0.00</temp>
<bpm>0</bpm>
<rpm>0.00</rpm>
</extensions>
</trkpt>
<trkpt lat="64.171485901" lon="-20.285356522">
<ele>108.037109</ele>
<time>2012-07-20T16:01:59Z</time>
<speed>4.230000</speed>
<extensions>
<speed>4.2</speed>
<temp>0.00</temp>
<bpm>0</bpm>
<rpm>0.00</rpm>
</extensions>
</trkpt>
<trkpt lat="64.171302795" lon="-20.285495758">
<ele>108.265625</ele>
<time>2012-07-20T16:02:04Z</time>
<speed>4.200000</speed>
<extensions>
<speed>4.2</speed>
<temp>0.00</temp>
<bpm>0</bpm>
<rpm>0.00</rpm>
</extensions>
</trkpt>
<trkpt lat="64.171127319" lon="-20.285648346">
<ele>108.210938</ele>
<time>2012-07-20T16:02:09Z</time>
<speed>4.270000</speed>
<extensions>
<speed>4.3</speed>
<temp>0.00</temp>
<bpm>0</bpm>
<rpm>0.00</rpm>
</extensions>
</trkpt>
<trkpt lat="64.170959473" lon="-20.285842896">
<ele>107.958984</ele>
<time>2012-07-20T16:02:14Z</time>
<speed>4.380000</speed>
<extensions>
<speed>4.4</speed>
<temp>0.00</temp>
<bpm>0</bpm>
<rpm>0.00</rpm>
</extensions>
</trkpt>
<trkpt lat="64.170783997" lon="-20.286075592">
<ele>107.183594</ele>
<time>2012-07-20T16:02:19Z</time>
<speed>4.440000</speed>
<extensions>
<speed>4.4</speed>
<temp>0.00</temp>
<bpm>0</bpm>
<rpm>0.00</rpm>
</extensions>
</trkpt>
<trkpt lat="64.170608521" lon="-20.286304474">
<ele>106.837891</ele>
<time>2012-07-20T16:02:24Z</time>
<speed>4.490000</speed>
<extensions>
<speed>4.5</speed>
<temp>0.00</temp>
<bpm>0</bpm>
<rpm>0.00</rpm>
</extensions>
</trkpt>
<trkpt lat="64.170425415" lon="-20.286525726">
<ele>106.935547</ele>
<time>2012-07-20T16:02:29Z</time>
<speed>4.510000</speed>
<extensions>
<speed>4.5</speed>
<temp>0.00</temp>
<bpm>0</bpm>
<rpm>0.00</rpm>
</extensions>
</trkpt>
<trkpt lat="64.170265198" lon="-20.286727905">
<ele>106.603516</ele>
<time>2012-07-20T16:02:34Z</time>
<speed>3.850000</speed>
<extensions>
<speed>3.8</speed>
<temp>0.00</temp>
<bpm>0</bpm>
<rpm>0.00</rpm>
</extensions>
</trkpt>
<trkpt lat="64.170135498" lon="-20.286905289">
<ele>106.937500</ele>
<time>2012-07-20T16:02:39Z</time>
<speed>3.140000</speed>
<extensions>
<speed>3.1</speed>
<temp>0.00</temp>
<bpm>0</bpm>
<rpm>0.00</rpm>
</extensions>
</trkpt>
<trkpt lat="64.170021057" lon="-20.287059784">
<ele>106.859375</ele>
<time>2012-07-20T16:02:44Z</time>
<speed>3.500000</speed>
<extensions>
<speed>3.5</speed>
<temp>0.00</temp>
<bpm>0</bpm>
<rpm>0.00</rpm>
</extensions>
</trkpt>
<trkpt lat="64.169868469" lon="-20.287246704">
<ele>106.833984</ele>
<time>2012-07-20T16:02:49Z</time>
<speed>4.060000</speed>
<extensions>
<speed>4.1</speed>
<temp>0.00</temp>
<bpm>0</bpm>
<rpm>0.00</rpm>
</extensions>
</trkpt>
<trkpt lat="64.169692993" lon="-20.287466049">
<ele>106.546875</ele>
<time>2012-07-20T16:02:54Z</time>
<speed>4.170000</speed>
<extensions>
<speed>4.2</speed>
<temp>0.00</temp>
<bpm>0</bpm>
<rpm>0.00</rpm>
</extensions>
</trkpt>
<trkpt lat="64.169532776" lon="-20.287691116">
<ele>106.472656</ele>
<time>2012-07-20T16:02:59Z</time>
<speed>4.260000</speed>
<extensions>
<speed>4.3</speed>
<temp>0.00</temp>
<bpm>0</bpm>
<rpm>0.00</rpm>
</extensions>
</trkpt>
<trkpt lat="64.169357300" lon="-20.287893295">
<ele>106.142578</ele>
<time>2012-07-20T16:03:04Z</time>
<speed>4.440000</speed>
<extensions>
<speed>4.4</speed>
<temp>0.00</temp>
<bpm>0</bpm>
<rpm>0.00</rpm>
</extensions>
</trkpt>
<trkpt lat="64.169181824" lon="-20.288139343">
<ele>105.722656</ele>
<time>2012-07-20T16:03:09Z</time>
<speed>4.580000</speed>
<extensions>
<speed>4.6</speed>
<temp>0.00</temp>
<bpm>0</bpm>
<rpm>0.00</rpm>
</extensions>
</trkpt>
<trkpt lat="64.169006348" lon="-20.288372040">
<ele>105.500000</ele>
<time>2012-07-20T16:03:14Z</time>
<speed>4.500000</speed>
<extensions>
<speed>4.5</speed>
<temp>0.00</temp>
<bpm>0</bpm>
<rpm>0.00</rpm>
</extensions>
</trkpt>
<trkpt lat="64.168838501" lon="-20.288608551">
<ele>105.751953</ele>
<time>2012-07-20T16:03:19Z</time>
<speed>4.460000</speed>
<extensions>
<speed>4.5</speed>
<temp>0.00</temp>
<bpm>0</bpm>
<rpm>0.00</rpm>
</extensions>
</trkpt>
<trkpt lat="64.168663025" lon="-20.288822174">
<ele>106.298828</ele>
<time>2012-07-20T16:03:24Z</time>
<speed>4.360000</speed>
<extensions>
<speed>4.4</speed>
<temp>0.00</temp>
<bpm>0</bpm>
<rpm>0.00</rpm>
</extensions>
</trkpt>
<trkpt lat="64.168487549" lon="-20.289054871">
<ele>106.072266</ele>
<time>2012-07-20T16:03:29Z</time>
<speed>4.530000</speed>
<extensions>
<speed>4.5</speed>
<temp>0.00</temp>
<bpm>0</bpm>
<rpm>0.00</rpm>
</extensions>
</trkpt>
<trkpt lat="64.168312073" lon="-20.289291382">
<ele>105.646484</ele>
<time>2012-07-20T16:03:34Z</time>
<speed>4.560000</speed>
<extensions>
<speed>4.6</speed>
<temp>0.00</temp>
<bpm>0</bpm>
<rpm>0.00</rpm>
</extensions>
</trkpt>
<trkpt lat="64.168136597" lon="-20.289510727">
<ele>105.902344</ele>
<time>2012-07-20T16:03:39Z</time>
<speed>4.300000</speed>
<extensions>
<speed>4.3</speed>
<temp>0.00</temp>
<bpm>0</bpm>
<rpm>0.00</rpm>
</extensions>
</trkpt>
<trkpt lat="64.167961121" lon="-20.289726257">
<ele>104.714844</ele>
<time>2012-07-20T16:03:44Z</time>
<speed>4.330000</speed>
<extensions>
<speed>4.3</speed>
<temp>0.00</temp>
<bpm>0</bpm>
<rpm>0.00</rpm>
</extensions>
</trkpt>
<trkpt lat="64.167808533" lon="-20.289924622">
<ele>103.435547</ele>
<time>2012-07-20T16:03:49Z</time>
<speed>4.190000</speed>
<extensions>
<speed>4.2</speed>
<temp>0.00</temp>
<bpm>0</bpm>
<rpm>0.00</rpm>
</extensions>
</trkpt>
<trkpt lat="64.167648315" lon="-20.290140152">
<ele>103.433594</ele>
<time>2012-07-20T16:03:54Z</time>
<speed>4.110000</speed>
<extensions>
<speed>4.1</speed>
<temp>0.00</temp>
<bpm>0</bpm>
<rpm>0.00</rpm>
</extensions>
</trkpt>
<trkpt lat="64.167495728" lon="-20.290348053">
<ele>103.460938</ele>
<time>2012-07-20T16:03:59Z</time>
<speed>3.640000</speed>
<extensions>
<speed>3.6</speed>
<temp>0.00</temp>
<bpm>0</bpm>
<rpm>0.00</rpm>
</extensions>
</trkpt>
<trkpt lat="64.167381287" lon="-20.290504456">
<ele>103.240234</ele>
<time>2012-07-20T16:04:04Z</time>
<speed>2.740000</speed>
<extensions>
<speed>2.7</speed>
<temp>0.00</temp>
<bpm>0</bpm>
<rpm>0.00</rpm>
</extensions>
</trkpt>
<trkpt lat="64.167282104" lon="-20.290678024">
<ele>103.183594</ele>
<time>2012-07-20T16:04:09Z</time>
<speed>3.170000</speed>
<extensions>
<speed>3.2</speed>
<temp>0.00</temp>
<bpm>0</bpm>
<rpm>0.00</rpm>
</extensions>
</trkpt>
<trkpt lat="64.167160034" lon="-20.290893555">
<ele>102.722656</ele>
<time>2012-07-20T16:04:14Z</time>
<speed>3.670000</speed>
<extensions>
<speed>3.7</speed>
<temp>0.00</temp>
<bpm>0</bpm>
<rpm>0.00</rpm>
</extensions>
</trkpt>
<trkpt lat="64.167022705" lon="-20.291124344">
<ele>103.023438</ele>
<time>2012-07-20T16:04:19Z</time>
<speed>3.800000</speed>
<extensions>
<speed>3.8</speed>
<temp>0.00</temp>
<bpm>0</bpm>
<rpm>0.00</rpm>
</extensions>
</trkpt>
<trkpt lat="64.166877747" lon="-20.291374207">
<ele>103.324219</ele>
<time>2012-07-20T16:04:24Z</time>
<speed>3.930000</speed>
<extensions>
<speed>3.9</speed>
<temp>0.00</temp>
<bpm>0</bpm>
<rpm>0.00</rpm>
</extensions>
</trkpt>
<trkpt lat="64.166740417" lon="-20.291654587">
<ele>103.519531</ele>
<time>2012-07-20T16:04:29Z</time>
<speed>4.220000</speed>
<extensions>
<speed>4.2</speed>
<temp>0.00</temp>
<bpm>0</bpm>
<rpm>0.00</rpm>
</extensions>
</trkpt>
<trkpt lat="64.166603088" lon="-20.291952133">
<ele>103.583984</ele>
<time>2012-07-20T16:04:34Z</time>
<speed>4.350000</speed>
<extensions>
<speed>4.3</speed>
<temp>0.00</temp>
<bpm>0</bpm>
<rpm>0.00</rpm>
</extensions>
</trkpt>
<trkpt lat="64.166450500" lon="-20.292243958">
<ele>103.351563</ele>
<time>2012-07-20T16:04:39Z</time>
<speed>4.310000</speed>
<extensions>
<speed>4.3</speed>
<temp>0.00</temp>
<bpm>0</bpm>
<rpm>0.00</rpm>
</extensions>
</trkpt>
<trkpt lat="64.166313171" lon="-20.292552948">
<ele>103.550781</ele>
<time>2012-07-20T16:04:44Z</time>
<speed>4.510000</speed>
<extensions>
<speed>4.5</speed>
<temp>0.00</temp>
<bpm>0</bpm>
<rpm>0.00</rpm>
</extensions>
</trkpt>
<trkpt lat="64.166175842" lon="-20.292829514">
<ele>103.025391</ele>
<time>2012-07-20T16:04:49Z</time>
<speed>3.590000</speed>
<extensions>
<speed>3.6</speed>
<temp>0.00</temp>
<bpm>0</bpm>
<rpm>0.00</rpm>
</extensions>
</trkpt>
<trkpt lat="64.166069031" lon="-20.293039322">
<ele>102.720703</ele>
<time>2012-07-20T16:04:54Z</time>
<speed>2.740000</speed>
<extensions>
<speed>2.7</speed>
<temp>0.00</temp>
<bpm>0</bpm>
<rpm>0.00</rpm>
</extensions>
</trkpt>
<trkpt lat="64.166000366" lon="-20.293201447">
<ele>103.113281</ele>
<time>2012-07-20T16:04:59Z</time>
<speed>2.030000</speed>
<extensions>
<speed>2.0</speed>
<temp>0.00</temp>
<bpm>0</bpm>
<rpm>0.00</rpm>
</extensions>
</trkpt>
<trkpt lat="64.165908813" lon="-20.293432236">
<ele>104.435547</ele>
<time>2012-07-20T16:05:04Z</time>
<speed>3.580000</speed>
<extensions>
<speed>3.6</speed>
<temp>0.00</temp>
<bpm>0</bpm>
<rpm>0.00</rpm>
</extensions>
</trkpt>
<trkpt lat="64.165779114" lon="-20.293693542">
<ele>105.107422</ele>
<time>2012-07-20T16:05:09Z</time>
<speed>3.380000</speed>
<extensions>
<speed>3.4</speed>
<temp>0.00</temp>
<bpm>0</bpm>
<rpm>0.00</rpm>
</extensions>
</trkpt>
<trkpt lat="64.165695190" lon="-20.293889999">
<ele>106.175781</ele>
<time>2012-07-20T16:05:14Z</time>
<speed>2.030000</speed>
<extensions>
<speed>2.0</speed>
<temp>0.00</temp>
<bpm>0</bpm>
<rpm>0.00</rpm>
</extensions>
</trkpt>
<trkpt lat="64.165618896" lon="-20.294027328">
<ele>107.474609</ele>
<time>2012-07-20T16:05:19Z</time>
<speed>2.710000</speed>
<extensions>
<speed>2.7</speed>
<temp>0.00</temp>
<bpm>0</bpm>
<rpm>0.00</rpm>
</extensions>
</trkpt>
<trkpt lat="64.165519714" lon="-20.294248581">
<ele>107.912109</ele>
<time>2012-07-20T16:05:24Z</time>
<speed>3.610000</speed>
<extensions>
<speed>3.6</speed>
<temp>0.00</temp>
<bpm>0</bpm>
<rpm>0.00</rpm>
</extensions>
</trkpt>
<trkpt lat="64.165412903" lon="-20.294502258">
<ele>108.755859</ele>
<time>2012-07-20T16:05:29Z</time>
<speed>3.320000</speed>
<extensions>
<speed>3.3</speed>
<temp>0.00</temp>
<bpm>0</bpm>
<rpm>0.00</rpm>
</extensions>
</trkpt>
<trkpt lat="64.165283203" lon="-20.294769287">
<ele>109.333984</ele>
<time>2012-07-20T16:05:34Z</time>
<speed>4.180000</speed>
<extensions>
<speed>4.2</speed>
<temp>0.00</temp>
<bpm>0</bpm>
<rpm>0.00</rpm>
</extensions>
</trkpt>
<trkpt lat="64.165145874" lon="-20.295021057">
<ele>109.164063</ele>
<time>2012-07-20T16:05:39Z</time>
<speed>3.570000</speed>
<extensions>
<speed>3.6</speed>
<temp>0.00</temp>
<bpm>0</bpm>
<rpm>0.00</rpm>
</extensions>
</trkpt>
<trkpt lat="64.165016174" lon="-20.295274734">
<ele>108.625000</ele>
<time>2012-07-20T16:05:44Z</time>
<speed>3.980000</speed>
<extensions>
<speed>4.0</speed>
<temp>0.00</temp>
<bpm>0</bpm>
<rpm>0.00</rpm>
</extensions>
</trkpt>
<trkpt lat="64.164894104" lon="-20.295499802">
<ele>108.755859</ele>
<time>2012-07-20T16:05:49Z</time>
<speed>2.860000</speed>
<extensions>
<speed>2.9</speed>
<temp>0.00</temp>
<bpm>0</bpm>
<rpm>0.00</rpm>
</extensions>
</trkpt>
<trkpt lat="64.164810181" lon="-20.295640945">
<ele>108.541016</ele>
<time>2012-07-20T16:05:54Z</time>
<speed>1.910000</speed>
<extensions>
<speed>1.9</speed>
<temp>0.00</temp>
<bpm>0</bpm>
<rpm>0.00</rpm>
</extensions>
</trkpt>
<trkpt lat="64.164749146" lon="-20.295724869">
<ele>107.896484</ele>
<time>2012-07-20T16:05:59Z</time>
<speed>1.510000</speed>
<extensions>
<speed>1.5</speed>
<temp>0.00</temp>
<bpm>0</bpm>
<rpm>0.00</rpm>
</extensions>
</trkpt>
<trkpt lat="64.164680481" lon="-20.295812607">
<ele>108.500000</ele>
<time>2012-07-20T16:06:04Z</time>
<speed>2.700000</speed>
<extensions>
<speed>2.7</speed>
<temp>0.00</temp>
<bpm>0</bpm>
<rpm>0.00</rpm>
</extensions>
</trkpt>
<trkpt lat="64.164566040" lon="-20.296012878">
<ele>109.275391</ele>
<time>2012-07-20T16:06:09Z</time>
<speed>3.410000</speed>
<extensions>
<speed>3.4</speed>
<temp>0.00</temp>
<bpm>0</bpm>
<rpm>0.00</rpm>
</extensions>
</trkpt>
<trkpt lat="64.164428711" lon="-20.296220779">
<ele>109.498047</ele>
<time>2012-07-20T16:06:14Z</time>
<speed>3.840000</speed>
<extensions>
<speed>3.8</speed>
<temp>0.00</temp>
<bpm>0</bpm>
<rpm>0.00</rpm>
</extensions>
</trkpt>
<trkpt lat="64.164299011" lon="-20.296411514">
<ele>109.775391</ele>
<time>2012-07-20T16:06:19Z</time>
<speed>3.020000</speed>
<extensions>
<speed>3.0</speed>
<temp>0.00</temp>
<bpm>0</bpm>
<rpm>0.00</rpm>
</extensions>
</trkpt>
<trkpt lat="64.164199829" lon="-20.296541214">
<ele>110.509766</ele>
<time>2012-07-20T16:06:24Z</time>
<speed>2.230000</speed>
<extensions>
<speed>2.2</speed>
<temp>0.00</temp>
<bpm>0</bpm>
<rpm>0.00</rpm>
</extensions>
</trkpt>
<trkpt lat="64.164138794" lon="-20.296642303">
<ele>110.900391</ele>
<time>2012-07-20T16:06:29Z</time>
<speed>1.830000</speed>
<extensions>
<speed>1.8</speed>
<temp>0.00</temp>
<bpm>0</bpm>
<rpm>0.00</rpm>
</extensions>
</trkpt>
<trkpt lat="64.164024353" lon="-20.296779633">
<ele>109.009766</ele>
<time>2012-07-20T16:06:34Z</time>
<speed>3.330000</speed>
<extensions>
<speed>3.3</speed>
<temp>0.00</temp>
<bpm>0</bpm>
<rpm>0.00</rpm>
</extensions>
</trkpt>
<trkpt lat="64.163887024" lon="-20.296966553">
<ele>106.935547</ele>
<time>2012-07-20T16:06:39Z</time>
<speed>3.820000</speed>
<extensions>
<speed>3.8</speed>
<temp>0.00</temp>
<bpm>0</bpm>
<rpm>0.00</rpm>
</extensions>
</trkpt>
<trkpt lat="64.163742065" lon="-20.297155380">
<ele>107.068359</ele>
<time>2012-07-20T16:06:44Z</time>
<speed>3.280000</speed>
<extensions>
<speed>3.3</speed>
<temp>0.00</temp>
<bpm>0</bpm>
<rpm>0.00</rpm>
</extensions>
</trkpt>
<trkpt lat="64.163627625" lon="-20.297309875">
<ele>107.107422</ele>
<time>2012-07-20T16:06:49Z</time>
<speed>2.690000</speed>
<extensions>
<speed>2.7</speed>
<temp>0.00</temp>
<bpm>0</bpm>
<rpm>0.00</rpm>
</extensions>
</trkpt>
<trkpt lat="64.163513184" lon="-20.297441483">
<ele>105.160156</ele>
<time>2012-07-20T16:06:54Z</time>
<speed>3.450000</speed>
<extensions>
<speed>3.5</speed>
<temp>0.00</temp>
<bpm>0</bpm>
<rpm>0.00</rpm>
</extensions>
</trkpt>
<trkpt lat="64.163368225" lon="-20.297632217">
<ele>104.630859</ele>
<time>2012-07-20T16:06:59Z</time>
<speed>3.750000</speed>
<extensions>
<speed>3.8</speed>
<temp>0.00</temp>
<bpm>0</bpm>
<rpm>0.00</rpm>
</extensions>
</trkpt>
<trkpt lat="64.163215637" lon="-20.297828674">
<ele>104.722656</ele>
<time>2012-07-20T16:07:04Z</time>
<speed>3.750000</speed>
<extensions>
<speed>3.8</speed>
<temp>0.00</temp>
<bpm>0</bpm>
<rpm>0.00</rpm>
</extensions>
</trkpt>
<trkpt lat="64.163078308" lon="-20.298007965">
<ele>104.105469</ele>
<time>2012-07-20T16:07:09Z</time>
<speed>3.890000</speed>
<extensions>
<speed>3.9</speed>
<temp>0.00</temp>
<bpm>0</bpm>
<rpm>0.00</rpm>
</extensions>
</trkpt>
<trkpt lat="64.162918091" lon="-20.298227310">
<ele>103.566406</ele>
<time>2012-07-20T16:07:14Z</time>
<speed>4.240000</speed>
<extensions>
<speed>4.2</speed>
<temp>0.00</temp>
<bpm>0</bpm>
<rpm>0.00</rpm>
</extensions>
</trkpt>
<trkpt lat="64.162750244" lon="-20.298456192">
<ele>102.935547</ele>
<time>2012-07-20T16:07:19Z</time>
<speed>4.540000</speed>
<extensions>
<speed>4.5</speed>
<temp>0.00</temp>
<bpm>0</bpm>
<rpm>0.00</rpm>
</extensions>
</trkpt>
<trkpt lat="64.162597656" lon="-20.298648834">
<ele>103.408203</ele>
<time>2012-07-20T16:07:24Z</time>
<speed>3.350000</speed>
<extensions>
<speed>3.4</speed>
<temp>0.00</temp>
<bpm>0</bpm>
<rpm>0.00</rpm>
</extensions>
</trkpt>
<trkpt lat="64.162445068" lon="-20.298871994">
<ele>102.652344</ele>
<time>2012-07-20T16:07:29Z</time>
<speed>4.510000</speed>
<extensions>
<speed>4.5</speed>
<temp>0.00</temp>
<bpm>0</bpm>
<rpm>0.00</rpm>
</extensions>
</trkpt>
<trkpt lat="64.162277222" lon="-20.299106598">
<ele>102.724609</ele>
<time>2012-07-20T16:07:34Z</time>
<speed>4.090000</speed>
<extensions>
<speed>4.1</speed>
<temp>0.00</temp>
<bpm>0</bpm>
<rpm>0.00</rpm>
</extensions>
</trkpt>
<trkpt lat="64.162139893" lon="-20.299278259">
<ele>103.515625</ele>
<time>2012-07-20T16:07:39Z</time>
<speed>3.070000</speed>
<extensions>
<speed>3.1</speed>
<temp>0.00</temp>
<bpm>0</bpm>
<rpm>0.00</rpm>
</extensions>
</trkpt>
<trkpt lat="64.161994934" lon="-20.299468994">
<ele>103.251953</ele>
<time>2012-07-20T16:07:44Z</time>
<speed>4.190000</speed>
<extensions>
<speed>4.2</speed>
<temp>0.00</temp>
<bpm>0</bpm>
<rpm>0.00</rpm>
</extensions>
</trkpt>
<trkpt lat="64.161842346" lon="-20.299673080">
<ele>103.365234</ele>
<time>2012-07-20T16:07:49Z</time>
<speed>4.190000</speed>
<extensions>
<speed>4.2</speed>
<temp>0.00</temp>
<bpm>0</bpm>
<rpm>0.00</rpm>
</extensions>
</trkpt>
<trkpt lat="64.161666870" lon="-20.299915314">
<ele>103.785156</ele>
<time>2012-07-20T16:07:54Z</time>
<speed>4.770000</speed>
<extensions>
<speed>4.8</speed>
<temp>0.00</temp>
<bpm>0</bpm>
<rpm>0.00</rpm>
</extensions>
</trkpt>
<trkpt lat="64.161483765" lon="-20.300144196">
<ele>102.947266</ele>
<time>2012-07-20T16:07:59Z</time>
<speed>4.690000</speed>
<extensions>
<speed>4.7</speed>
<temp>0.00</temp>
<bpm>0</bpm>
<rpm>0.00</rpm>
</extensions>
</trkpt>
<trkpt lat="64.161315918" lon="-20.300363541">
<ele>102.806641</ele>
<time>2012-07-20T16:08:04Z</time>
<speed>3.710000</speed>
<extensions>
<speed>3.7</speed>
<temp>0.00</temp>
<bpm>0</bpm>
<rpm>0.00</rpm>
</extensions>
</trkpt>
<trkpt lat="64.161186218" lon="-20.300542831">
<ele>101.943359</ele>
<time>2012-07-20T16:08:09Z</time>
<speed>3.660000</speed>
<extensions>
<speed>3.7</speed>
<temp>0.00</temp>
<bpm>0</bpm>
<rpm>0.00</rpm>
</extensions>
</trkpt>
<trkpt lat="64.161041260" lon="-20.300729752">
<ele>101.345703</ele>
<time>2012-07-20T16:08:14Z</time>
<speed>4.070000</speed>
<extensions>
<speed>4.1</speed>
<temp>0.00</temp>
<bpm>0</bpm>
<rpm>0.00</rpm>
</extensions>
</trkpt>
<trkpt lat="64.160888672" lon="-20.300930023">
<ele>100.435547</ele>
<time>2012-07-20T16:08:19Z</time>
<speed>3.420000</speed>
<extensions>
<speed>3.4</speed>
<temp>0.00</temp>
<bpm>0</bpm>
<rpm>0.00</rpm>
</extensions>
</trkpt>
<trkpt lat="64.160781860" lon="-20.301059723">
<ele>101.363281</ele>
<time>2012-07-20T16:08:24Z</time>
<speed>2.460000</speed>
<extensions>
<speed>2.5</speed>
<temp>0.00</temp>
<bpm>0</bpm>
<rpm>0.00</rpm>
</extensions>
</trkpt>
<trkpt lat="64.160667419" lon="-20.301231384">
<ele>101.375000</ele>
<time>2012-07-20T16:08:29Z</time>
<speed>3.560000</speed>
<extensions>
<speed>3.6</speed>
<temp>0.00</temp>
<bpm>0</bpm>
<rpm>0.00</rpm>
</extensions>
</trkpt>
<trkpt lat="64.160507202" lon="-20.301445007">
<ele>100.537109</ele>
<time>2012-07-20T16:08:34Z</time>
<speed>4.270000</speed>
<extensions>
<speed>4.3</speed>
<temp>0.00</temp>
<bpm>0</bpm>
<rpm>0.00</rpm>
</extensions>
</trkpt>
<trkpt lat="64.160354614" lon="-20.301656723">
<ele>100.421875</ele>
<time>2012-07-20T16:08:39Z</time>
<speed>4.370000</speed>
<extensions>
<speed>4.4</speed>
<temp>0.00</temp>
<bpm>0</bpm>
<rpm>0.00</rpm>
</extensions>
</trkpt>
<trkpt lat="64.160194397" lon="-20.301868439">
<ele>100.548828</ele>
<time>2012-07-20T16:08:44Z</time>
<speed>3.650000</speed>
<extensions>
<speed>3.7</speed>
<temp>0.00</temp>
<bpm>0</bpm>
<rpm>0.00</rpm>
</extensions>
</trkpt>
<trkpt lat="64.160034180" lon="-20.302083969">
<ele>100.007813</ele>
<time>2012-07-20T16:08:49Z</time>
<speed>4.390000</speed>
<extensions>
<speed>4.4</speed>
<temp>0.00</temp>
<bpm>0</bpm>
<rpm>0.00</rpm>
</extensions>
</trkpt>
<trkpt lat="64.159881592" lon="-20.302278519">
<ele>99.658203</ele>
<time>2012-07-20T16:08:54Z</time>
<speed>3.370000</speed>
<extensions>
<speed>3.4</speed>
<temp>0.00</temp>
<bpm>0</bpm>
<rpm>0.00</rpm>
</extensions>
</trkpt>
<trkpt lat="64.159767151" lon="-20.302421570">
<ele>100.703125</ele>
<time>2012-07-20T16:08:59Z</time>
<speed>2.920000</speed>
<extensions>
<speed>2.9</speed>
<temp>0.00</temp>
<bpm>0</bpm>
<rpm>0.00</rpm>
</extensions>
</trkpt>
<trkpt lat="64.159660339" lon="-20.302572250">
<ele>100.886719</ele>
<time>2012-07-20T16:09:04Z</time>
<speed>3.220000</speed>
<extensions>
<speed>3.2</speed>
<temp>0.00</temp>
<bpm>0</bpm>
<rpm>0.00</rpm>
</extensions>
</trkpt>
<trkpt lat="64.159515381" lon="-20.302766800">
<ele>101.154297</ele>
<time>2012-07-20T16:09:09Z</time>
<speed>3.900000</speed>
<extensions>
<speed>3.9</speed>
<temp>0.00</temp>
<bpm>0</bpm>
<rpm>0.00</rpm>
</extensions>
</trkpt>
<trkpt lat="64.159362793" lon="-20.302997589">
<ele>100.888672</ele>
<time>2012-07-20T16:09:14Z</time>
<speed>4.170000</speed>
<extensions>
<speed>4.2</speed>
<temp>0.00</temp>
<bpm>0</bpm>
<rpm>0.00</rpm>
</extensions>
</trkpt>
<trkpt lat="64.159210205" lon="-20.303199768">
<ele>99.824219</ele>
<time>2012-07-20T16:09:19Z</time>
<speed>3.410000</speed>
<extensions>
<speed>3.4</speed>
<temp>0.00</temp>
<bpm>0</bpm>
<rpm>0.00</rpm>
</extensions>
</trkpt>
<trkpt lat="64.159072876" lon="-20.303421021">
<ele>99.744141</ele>
<time>2012-07-20T16:09:24Z</time>
<speed>4.110000</speed>
<extensions>
<speed>4.1</speed>
<temp>0.00</temp>
<bpm>0</bpm>
<rpm>0.00</rpm>
</extensions>
</trkpt>
<trkpt lat="64.158935547" lon="-20.303640366">
<ele>99.943359</ele>
<time>2012-07-20T16:09:29Z</time>
<speed>3.160000</speed>
<extensions>
<speed>3.2</speed>
<temp>0.00</temp>
<bpm>0</bpm>
<rpm>0.00</rpm>
</extensions>
</trkpt>
<trkpt lat="64.158813477" lon="-20.303882599">
<ele>99.857422</ele>
<time>2012-07-20T16:09:34Z</time>
<speed>4.200000</speed>
<extensions>
<speed>4.2</speed>
<temp>0.00</temp>
<bpm>0</bpm>
<rpm>0.00</rpm>
</extensions>
</trkpt>
<trkpt lat="64.158668518" lon="-20.304183960">
<ele>99.748047</ele>
<time>2012-07-20T16:09:39Z</time>
<speed>4.080000</speed>
<extensions>
<speed>4.1</speed>
<temp>0.00</temp>
<bpm>0</bpm>
<rpm>0.00</rpm>
</extensions>
</trkpt>
<trkpt lat="64.158554077" lon="-20.304450989">
<ele>99.847656</ele>
<time>2012-07-20T16:09:44Z</time>
<speed>3.380000</speed>
<extensions>
<speed>3.4</speed>
<temp>0.00</temp>
<bpm>0</bpm>
<rpm>0.00</rpm>
</extensions>
</trkpt>
<trkpt lat="64.158432007" lon="-20.304759979">
<ele>100.017578</ele>
<time>2012-07-20T16:09:49Z</time>
<speed>4.330000</speed>
<extensions>
<speed>4.3</speed>
<temp>0.00</temp>
<bpm>0</bpm>
<rpm>0.00</rpm>
</extensions>
</trkpt>
<trkpt lat="64.158302307" lon="-20.305141449">
<ele>100.302734</ele>
<time>2012-07-20T16:09:54Z</time>
<speed>4.940000</speed>
<extensions>
<speed>4.9</speed>
<temp>0.00</temp>
<bpm>0</bpm>
<rpm>0.00</rpm>
</extensions>
</trkpt>
<trkpt lat="64.158180237" lon="-20.305482864">
<ele>99.753906</ele>
<time>2012-07-20T16:09:59Z</time>
<speed>3.930000</speed>
<extensions>
<speed>3.9</speed>
<temp>0.00</temp>
<bpm>0</bpm>
<rpm>0.00</rpm>
</extensions>
</trkpt>
<trkpt lat="64.158073425" lon="-20.305877686">
<ele>99.037109</ele>
<time>2012-07-20T16:10:04Z</time>
<speed>4.560000</speed>
<extensions>
<speed>4.6</speed>
<temp>0.00</temp>
<bpm>0</bpm>
<rpm>0.00</rpm>
</extensions>
</trkpt>
<trkpt lat="64.157981873" lon="-20.306262970">
<ele>99.472656</ele>
<time>2012-07-20T16:10:09Z</time>
<speed>4.450000</speed>
<extensions>
<speed>4.5</speed>
<temp>0.00</temp>
<bpm>0</bpm>
<rpm>0.00</rpm>
</extensions>
</trkpt>
<trkpt lat="64.157875061" lon="-20.306642532">
<ele>99.208984</ele>
<time>2012-07-20T16:10:14Z</time>
<speed>3.730000</speed>
<extensions>
<speed>3.7</speed>
<temp>0.00</temp>
<bpm>0</bpm>
<rpm>0.00</rpm>
</extensions>
</trkpt>
<trkpt lat="64.157814026" lon="-20.306928635">
<ele>99.169922</ele>
<time>2012-07-20T16:10:19Z</time>
<speed>2.760000</speed>
<extensions>
<speed>2.8</speed>
<temp>0.00</temp>
<bpm>0</bpm>
<rpm>0.00</rpm>
</extensions>
</trkpt>
<trkpt lat="64.157745361" lon="-20.307250977">
<ele>99.421875</ele>
<time>2012-07-20T16:10:24Z</time>
<speed>4.180000</speed>
<extensions>
<speed>4.2</speed>
<temp>0.00</temp>
<bpm>0</bpm>
<rpm>0.00</rpm>
</extensions>
</trkpt>
<trkpt lat="64.157646179" lon="-20.307680130">
<ele>99.037109</ele>
<time>2012-07-20T16:10:29Z</time>
<speed>5.030000</speed>
<extensions>
<speed>5.0</speed>
<temp>0.00</temp>
<bpm>0</bpm>
<rpm>0.00</rpm>
</extensions>
</trkpt>
<trkpt lat="64.157539368" lon="-20.308168411">
<ele>99.787109</ele>
<time>2012-07-20T16:10:34Z</time>
<speed>5.050000</speed>
<extensions>
<speed>5.1</speed>
<temp>0.00</temp>
<bpm>0</bpm>
<rpm>0.00</rpm>
</extensions>
</trkpt>
<trkpt lat="64.157447815" lon="-20.308578491">
<ele>99.412109</ele>
<time>2012-07-20T16:10:39Z</time>
<speed>4.180000</speed>
<extensions>
<speed>4.2</speed>
<temp>0.00</temp>
<bpm>0</bpm>
<rpm>0.00</rpm>
</extensions>
</trkpt>
<trkpt lat="64.157356262" lon="-20.308942795">
<ele>97.970703</ele>
<time>2012-07-20T16:10:44Z</time>
<speed>4.620000</speed>
<extensions>
<speed>4.6</speed>
<temp>0.00</temp>
<bpm>0</bpm>
<rpm>0.00</rpm>
</extensions>
</trkpt>
<trkpt lat="64.157249451" lon="-20.309408188">
<ele>97.357422</ele>
<time>2012-07-20T16:10:49Z</time>
<speed>5.180000</speed>
<extensions>
<speed>5.2</speed>
<temp>0.00</temp>
<bpm>0</bpm>
<rpm>0.00</rpm>
</extensions>
</trkpt>
<trkpt lat="64.157150269" lon="-20.309900284">
<ele>97.058594</ele>
<time>2012-07-20T16:10:54Z</time>
<speed>5.080000</speed>
<extensions>
<speed>5.1</speed>
<temp>0.00</temp>
<bpm>0</bpm>
<rpm>0.00</rpm>
</extensions>
</trkpt>
<trkpt lat="64.157058716" lon="-20.310346603">
<ele>96.873047</ele>
<time>2012-07-20T16:10:59Z</time>
<speed>4.660000</speed>
<extensions>
<speed>4.7</speed>
<temp>0.00</temp>
<bpm>0</bpm>
<rpm>0.00</rpm>
</extensions>
</trkpt>
<trkpt lat="64.156967163" lon="-20.310764313">
<ele>96.988281</ele>
<time>2012-07-20T16:11:04Z</time>
<speed>4.180000</speed>
<extensions>
<speed>4.2</speed>
<temp>0.00</temp>
<bpm>0</bpm>
<rpm>0.00</rpm>
</extensions>
</trkpt>
<trkpt lat="64.156883240" lon="-20.311138153">
<ele>96.679688</ele>
<time>2012-07-20T16:11:09Z</time>
<speed>3.730000</speed>
<extensions>
<speed>3.7</speed>
<temp>0.00</temp>
<bpm>0</bpm>
<rpm>0.00</rpm>
</extensions>
</trkpt>
<trkpt lat="64.156799316" lon="-20.311475754">
<ele>96.519531</ele>
<time>2012-07-20T16:11:14Z</time>
<speed>4.300000</speed>
<extensions>
<speed>4.3</speed>
<temp>0.00</temp>
<bpm>0</bpm>
<rpm>0.00</rpm>
</extensions>
</trkpt>
<trkpt lat="64.156677246" lon="-20.311866760">
<ele>94.945313</ele>
<time>2012-07-20T16:11:19Z</time>
<speed>5.150000</speed>
<extensions>
<speed>5.2</speed>
<temp>0.00</temp>
<bpm>0</bpm>
<rpm>0.00</rpm>
</extensions>
</trkpt>
<trkpt lat="64.156532288" lon="-20.312292099">
<ele>93.175781</ele>
<time>2012-07-20T16:11:24Z</time>
<speed>5.100000</speed>
<extensions>
<speed>5.1</speed>
<temp>0.00</temp>
<bpm>0</bpm>
<rpm>0.00</rpm>
</extensions>
</trkpt>
<trkpt lat="64.156402588" lon="-20.312675476">
<ele>93.654297</ele>
<time>2012-07-20T16:11:29Z</time>
<speed>4.570000</speed>
<extensions>
<speed>4.6</speed>
<temp>0.00</temp>
<bpm>0</bpm>
<rpm>0.00</rpm>
</extensions>
</trkpt>
<trkpt lat="64.156272888" lon="-20.313005447">
<ele>94.435547</ele>
<time>2012-07-20T16:11:34Z</time>
<speed>4.230000</speed>
<extensions>
<speed>4.2</speed>
<temp>0.00</temp>
<bpm>0</bpm>
<rpm>0.00</rpm>
</extensions>
</trkpt>
<trkpt lat="64.156127930" lon="-20.313301086">
<ele>93.224609</ele>
<time>2012-07-20T16:11:39Z</time>
<speed>4.630000</speed>
<extensions>
<speed>4.6</speed>
<temp>0.00</temp>
<bpm>0</bpm>
<rpm>0.00</rpm>
</extensions>
</trkpt>
<trkpt lat="64.155967712" lon="-20.313642502">
<ele>94.130859</ele>
<time>2012-07-20T16:11:44Z</time>
<speed>5.170000</speed>
<extensions>
<speed>5.2</speed>
<temp>0.00</temp>
<bpm>0</bpm>
<rpm>0.00</rpm>
</extensions>
</trkpt>
<trkpt lat="64.155776978" lon="-20.313989639">
<ele>92.855469</ele>
<time>2012-07-20T16:11:49Z</time>
<speed>5.180000</speed>
<extensions>
<speed>5.2</speed>
<temp>0.00</temp>
<bpm>0</bpm>
<rpm>0.00</rpm>
</extensions>
</trkpt>
<trkpt lat="64.155616760" lon="-20.314306259">
<ele>93.326172</ele>
<time>2012-07-20T16:11:54Z</time>
<speed>4.720000</speed>
<extensions>
<speed>4.7</speed>
<temp>0.00</temp>
<bpm>0</bpm>
<rpm>0.00</rpm>
</extensions>
</trkpt>
<trkpt lat="64.155464172" lon="-20.314590454">
<ele>92.576172</ele>
<time>2012-07-20T16:11:59Z</time>
<speed>4.390000</speed>
<extensions>
<speed>4.4</speed>
<temp>0.00</temp>
<bpm>0</bpm>
<rpm>0.00</rpm>
</extensions>
</trkpt>
<trkpt lat="64.155303955" lon="-20.314867020">
<ele>92.087891</ele>
<time>2012-07-20T16:12:04Z</time>
<speed>4.830000</speed>
<extensions>
<speed>4.8</speed>
<temp>0.00</temp>
<bpm>0</bpm>
<rpm>0.00</rpm>
</extensions>
</trkpt>
<trkpt lat="64.155113220" lon="-20.315195084">
<ele>91.394531</ele>
<time>2012-07-20T16:12:09Z</time>
<speed>5.250000</speed>
<extensions>
<speed>5.2</speed>
<temp>0.00</temp>
<bpm>0</bpm>
<rpm>0.00</rpm>
</extensions>
</trkpt>
<trkpt lat="64.154922485" lon="-20.315534592">
<ele>90.917969</ele>
<time>2012-07-20T16:12:14Z</time>
<speed>5.140000</speed>
<extensions>
<speed>5.1</speed>
<temp>0.00</temp>
<bpm>0</bpm>
<rpm>0.00</rpm>
</extensions>
</trkpt>
<trkpt lat="64.154769897" lon="-20.315816879">
<ele>91.810547</ele>
<time>2012-07-20T16:12:19Z</time>
<speed>3.790000</speed>
<extensions>
<speed>3.8</speed>
<temp>0.00</temp>
<bpm>0</bpm>
<rpm>0.00</rpm>
</extensions>
</trkpt>
<trkpt lat="64.154632568" lon="-20.316024780">
<ele>91.705078</ele>
<time>2012-07-20T16:12:24Z</time>
<speed>3.890000</speed>
<extensions>
<speed>3.9</speed>
<temp>0.00</temp>
<bpm>0</bpm>
<rpm>0.00</rpm>
</extensions>
</trkpt>
<trkpt lat="64.154472351" lon="-20.316257477">
<ele>91.332031</ele>
<time>2012-07-20T16:12:29Z</time>
<speed>4.550000</speed>
<extensions>
<speed>4.5</speed>
<temp>0.00</temp>
<bpm>0</bpm>
<rpm>0.00</rpm>
</extensions>
</trkpt>
<trkpt lat="64.154312134" lon="-20.316482544">
<ele>92.906250</ele>
<time>2012-07-20T16:12:34Z</time>
<speed>3.840000</speed>
<extensions>
<speed>3.8</speed>
<temp>0.00</temp>
<bpm>0</bpm>
<rpm>0.00</rpm>
</extensions>
</trkpt>
<trkpt lat="64.154182434" lon="-20.316625595">
<ele>93.554688</ele>
<time>2012-07-20T16:12:39Z</time>
<speed>3.340000</speed>
<extensions>
<speed>3.3</speed>
<temp>0.00</temp>
<bpm>0</bpm>
<rpm>0.00</rpm>
</extensions>
</trkpt>
<trkpt lat="64.154022217" lon="-20.316810608">
<ele>92.902344</ele>
<time>2012-07-20T16:12:44Z</time>
<speed>4.110000</speed>
<extensions>
<speed>4.1</speed>
<temp>0.00</temp>
<bpm>0</bpm>
<rpm>0.00</rpm>
</extensions>
</trkpt>
<trkpt lat="64.153846741" lon="-20.317012787">
<ele>92.496094</ele>
<time>2012-07-20T16:12:49Z</time>
<speed>4.480000</speed>
<extensions>
<speed>4.5</speed>
<temp>0.00</temp>
<bpm>0</bpm>
<rpm>0.00</rpm>
</extensions>
</trkpt>
<trkpt lat="64.153678894" lon="-20.317165375">
<ele>93.121094</ele>
<time>2012-07-20T16:12:54Z</time>
<speed>3.680000</speed>
<extensions>
<speed>3.7</speed>
<temp>0.00</temp>
<bpm>0</bpm>
<rpm>0.00</rpm>
</extensions>
</trkpt>
<trkpt lat="64.153549194" lon="-20.317281723">
<ele>95.201172</ele>
<time>2012-07-20T16:12:59Z</time>
<speed>3.100000</speed>
<extensions>
<speed>3.1</speed>
<temp>0.00</temp>
<bpm>0</bpm>
<rpm>0.00</rpm>
</extensions>
</trkpt>
<trkpt lat="64.153396606" lon="-20.317438126">
<ele>99.041016</ele>
<time>2012-07-20T16:13:04Z</time>
<speed>3.910000</speed>
<extensions>
<speed>3.9</speed>
<temp>0.00</temp>
<bpm>0</bpm>
<rpm>0.00</rpm>
</extensions>
</trkpt>
<trkpt lat="64.153251648" lon="-20.317550659">
<ele>96.632813</ele>
<time>2012-07-20T16:13:09Z</time>
<speed>3.030000</speed>
<extensions>
<speed>3.0</speed>
<temp>0.00</temp>
<bpm>0</bpm>
<rpm>0.00</rpm>
</extensions>
</trkpt>
<trkpt lat="64.153114319" lon="-20.317634583">
<ele>94.824219</ele>
<time>2012-07-20T16:13:14Z</time>
<speed>3.800000</speed>
<extensions>
<speed>3.8</speed>
<temp>0.00</temp>
<bpm>0</bpm>
<rpm>0.00</rpm>
</extensions>
</trkpt>
<trkpt lat="64.152938843" lon="-20.317764282">
<ele>93.951172</ele>
<time>2012-07-20T16:13:19Z</time>
<speed>4.360000</speed>
<extensions>
<speed>4.4</speed>
<temp>0.00</temp>
<bpm>0</bpm>
<rpm>0.00</rpm>
</extensions>
</trkpt>
<trkpt lat="64.152755737" lon="-20.317899704">
<ele>93.216797</ele>
<time>2012-07-20T16:13:24Z</time>
<speed>3.820000</speed>
<extensions>
<speed>3.8</speed>
<temp>0.00</temp>
<bpm>0</bpm>
<rpm>0.00</rpm>
</extensions>
</trkpt>
<trkpt lat="64.152603149" lon="-20.318012238">
<ele>92.314453</ele>
<time>2012-07-20T16:13:29Z</time>
<speed>3.830000</speed>
<extensions>
<speed>3.8</speed>
<temp>0.00</temp>
<bpm>0</bpm>
<rpm>0.00</rpm>
</extensions>
</trkpt>
<trkpt lat="64.152420044" lon="-20.318149567">
<ele>91.880859</ele>
<time>2012-07-20T16:13:34Z</time>
<speed>4.540000</speed>
<extensions>
<speed>4.5</speed>
<temp>0.00</temp>
<bpm>0</bpm>
<rpm>0.00</rpm>
</extensions>
</trkpt>
<trkpt lat="64.152236938" lon="-20.318279266">
<ele>90.988281</ele>
<time>2012-07-20T16:13:39Z</time>
<speed>4.130000</speed>
<extensions>
<speed>4.1</speed>
<temp>0.00</temp>
<bpm>0</bpm>
<rpm>0.00</rpm>
</extensions>
</trkpt>
<trkpt lat="64.152061462" lon="-20.318410873">
<ele>90.458984</ele>
<time>2012-07-20T16:13:44Z</time>
<speed>3.750000</speed>
<extensions>
<speed>3.8</speed>
<temp>0.00</temp>
<bpm>0</bpm>
<rpm>0.00</rpm>
</extensions>
</trkpt>
<trkpt lat="64.151901245" lon="-20.318536758">
<ele>89.589844</ele>
<time>2012-07-20T16:13:49Z</time>
<speed>3.750000</speed>
<extensions>
<speed>3.8</speed>
<temp>0.00</temp>
<bpm>0</bpm>
<rpm>0.00</rpm>
</extensions>
</trkpt>
<trkpt lat="64.151741028" lon="-20.318658829">
<ele>89.316406</ele>
<time>2012-07-20T16:13:54Z</time>
<speed>3.680000</speed>
<extensions>
<speed>3.7</speed>
<temp>0.00</temp>
<bpm>0</bpm>
<rpm>0.00</rpm>
</extensions>
</trkpt>
<trkpt lat="64.151580811" lon="-20.318765640">
<ele>89.710938</ele>
<time>2012-07-20T16:13:59Z</time>
<speed>4.150000</speed>
<extensions>
<speed>4.1</speed>
<temp>0.00</temp>
<bpm>0</bpm>
<rpm>0.00</rpm>
</extensions>
</trkpt>
<trkpt lat="64.151382446" lon="-20.318922043">
<ele>88.992188</ele>
<time>2012-07-20T16:14:04Z</time>
<speed>4.950000</speed>
<extensions>
<speed>4.9</speed>
<temp>0.00</temp>
<bpm>0</bpm>
<rpm>0.00</rpm>
</extensions>
</trkpt>
<trkpt lat="64.151176453" lon="-20.319067001">
<ele>88.505859</ele>
<time>2012-07-20T16:14:09Z</time>
<speed>4.540000</speed>
<extensions>
<speed>4.5</speed>
<temp>0.00</temp>
<bpm>0</bpm>
<rpm>0.00</rpm>
</extensions>
</trkpt>
<trkpt lat="64.150985718" lon="-20.319204330">
<ele>87.705078</ele>
<time>2012-07-20T16:14:14Z</time>
<speed>4.360000</speed>
<extensions>
<speed>4.4</speed>
<temp>0.00</temp>
<bpm>0</bpm>
<rpm>0.00</rpm>
</extensions>
</trkpt>
<trkpt lat="64.150787354" lon="-20.319351196">
<ele>86.902344</ele>
<time>2012-07-20T16:14:19Z</time>
<speed>4.650000</speed>
<extensions>
<speed>4.6</speed>
<temp>0.00</temp>
<bpm>0</bpm>
<rpm>0.00</rpm>
</extensions>
</trkpt>
<trkpt lat="64.150596619" lon="-20.319499969">
<ele>86.218750</ele>
<time>2012-07-20T16:14:24Z</time>
<speed>4.330000</speed>
<extensions>
<speed>4.3</speed>
<temp>0.00</temp>
<bpm>0</bpm>
<rpm>0.00</rpm>
</extensions>
</trkpt>
<trkpt lat="64.150398254" lon="-20.319641113">
<ele>85.650391</ele>
<time>2012-07-20T16:14:29Z</time>
<speed>4.540000</speed>
<extensions>
<speed>4.5</speed>
<temp>0.00</temp>
<bpm>0</bpm>
<rpm>0.00</rpm>
</extensions>
</trkpt>
<trkpt lat="64.150207520" lon="-20.319782257">
<ele>85.150391</ele>
<time>2012-07-20T16:14:34Z</time>
<speed>4.540000</speed>
<extensions>
<speed>4.5</speed>
<temp>0.00</temp>
<bpm>0</bpm>
<rpm>0.00</rpm>
</extensions>
</trkpt>
<trkpt lat="64.150016785" lon="-20.319919586">
<ele>84.478516</ele>
<time>2012-07-20T16:14:39Z</time>
<speed>4.360000</speed>
<extensions>
<speed>4.4</speed>
<temp>0.00</temp>
<bpm>0</bpm>
<rpm>0.00</rpm>
</extensions>
</trkpt>
<trkpt lat="64.149826050" lon="-20.320077896">
<ele>83.976563</ele>
<time>2012-07-20T16:14:44Z</time>
<speed>4.570000</speed>
<extensions>
<speed>4.6</speed>
<temp>0.00</temp>
<bpm>0</bpm>
<rpm>0.00</rpm>
</extensions>
</trkpt>
<trkpt lat="64.149620056" lon="-20.320219040">
<ele>83.316406</ele>
<time>2012-07-20T16:14:49Z</time>
<speed>5.280000</speed>
<extensions>
<speed>5.3</speed>
<temp>0.00</temp>
<bpm>0</bpm>
<rpm>0.00</rpm>
</extensions>
</trkpt>
<trkpt lat="64.149406433" lon="-20.320371628">
<ele>82.890625</ele>
<time>2012-07-20T16:14:54Z</time>
<speed>4.740000</speed>
<extensions>
<speed>4.7</speed>
<temp>0.00</temp>
<bpm>0</bpm>
<rpm>0.00</rpm>
</extensions>
</trkpt>
<trkpt lat="64.149200439" lon="-20.320529938">
<ele>82.326172</ele>
<time>2012-07-20T16:14:59Z</time>
<speed>4.870000</speed>
<extensions>
<speed>4.9</speed>
<temp>0.00</temp>
<bpm>0</bpm>
<rpm>0.00</rpm>
</extensions>
</trkpt>
<trkpt lat="64.149002075" lon="-20.320686340">
<ele>82.169922</ele>
<time>2012-07-20T16:15:04Z</time>
<speed>4.260000</speed>
<extensions>
<speed>4.3</speed>
<temp>0.00</temp>
<bpm>0</bpm>
<rpm>0.00</rpm>
</extensions>
</trkpt>
<trkpt lat="64.148811340" lon="-20.320816040">
<ele>82.228516</ele>
<time>2012-07-20T16:15:09Z</time>
<speed>4.780000</speed>
<extensions>
<speed>4.8</speed>
<temp>0.00</temp>
<bpm>0</bpm>
<rpm>0.00</rpm>
</extensions>
</trkpt>
<trkpt lat="64.148612976" lon="-20.320970535">
<ele>81.416016</ele>
<time>2012-07-20T16:15:14Z</time>
<speed>4.520000</speed>
<extensions>
<speed>4.5</speed>
<temp>0.00</temp>
<bpm>0</bpm>
<rpm>0.00</rpm>
</extensions>
</trkpt>
<trkpt lat="64.148414612" lon="-20.321102142">
<ele>81.027344</ele>
<time>2012-07-20T16:15:19Z</time>
<speed>4.740000</speed>
<extensions>
<speed>4.7</speed>
<temp>0.00</temp>
<bpm>0</bpm>
<rpm>0.00</rpm>
</extensions>
</trkpt>
<trkpt lat="64.148208618" lon="-20.321250916">
<ele>80.435547</ele>
<time>2012-07-20T16:15:24Z</time>
<speed>4.940000</speed>
<extensions>
<speed>4.9</speed>
<temp>0.00</temp>
<bpm>0</bpm>
<rpm>0.00</rpm>
</extensions>
</trkpt>
<trkpt lat="64.147994995" lon="-20.321413040">
<ele>79.652344</ele>
<time>2012-07-20T16:15:29Z</time>
<speed>4.930000</speed>
<extensions>
<speed>4.9</speed>
<temp>0.00</temp>
<bpm>0</bpm>
<rpm>0.00</rpm>
</extensions>
</trkpt>
<trkpt lat="64.147766113" lon="-20.321571350">
<ele>78.375000</ele>
<time>2012-07-20T16:15:34Z</time>
<speed>5.080000</speed>
<extensions>
<speed>5.1</speed>
<temp>0.00</temp>
<bpm>0</bpm>
<rpm>0.00</rpm>
</extensions>
</trkpt>
<trkpt lat="64.147560120" lon="-20.321735382">
<ele>77.945313</ele>
<time>2012-07-20T16:15:39Z</time>
<speed>5.060000</speed>
<extensions>
<speed>5.1</speed>
<temp>0.00</temp>
<bpm>0</bpm>
<rpm>0.00</rpm>
</extensions>
</trkpt>
<trkpt lat="64.147354126" lon="-20.321887970">
<ele>77.593750</ele>
<time>2012-07-20T16:15:44Z</time>
<speed>4.440000</speed>
<extensions>
<speed>4.4</speed>
<temp>0.00</temp>
<bpm>0</bpm>
<rpm>0.00</rpm>
</extensions>
</trkpt>
<trkpt lat="64.147186279" lon="-20.322025299">
<ele>77.519531</ele>
<time>2012-07-20T16:15:49Z</time>
<speed>3.670000</speed>
<extensions>
<speed>3.7</speed>
<temp>0.00</temp>
<bpm>0</bpm>
<rpm>0.00</rpm>
</extensions>
</trkpt>
<trkpt lat="64.147041321" lon="-20.322135925">
<ele>77.291016</ele>
<time>2012-07-20T16:15:54Z</time>
<speed>2.950000</speed>
<extensions>
<speed>2.9</speed>
<temp>0.00</temp>
<bpm>0</bpm>
<rpm>0.00</rpm>
</extensions>
</trkpt>
<trkpt lat="64.146934509" lon="-20.322225571">
<ele>76.921875</ele>
<time>2012-07-20T16:15:59Z</time>
<speed>2.670000</speed>
<extensions>
<speed>2.7</speed>
<temp>0.00</temp>
<bpm>0</bpm>
<rpm>0.00</rpm>
</extensions>
</trkpt>
<trkpt lat="64.146804810" lon="-20.322328568">
<ele>76.720703</ele>
<time>2012-07-20T16:16:04Z</time>
<speed>3.420000</speed>
<extensions>
<speed>3.4</speed>
<temp>0.00</temp>
<bpm>0</bpm>
<rpm>0.00</rpm>
</extensions>
</trkpt>
<trkpt lat="64.146675110" lon="-20.322423935">
<ele>76.701172</ele>
<time>2012-07-20T16:16:09Z</time>
<speed>2.480000</speed>
<extensions>
<speed>2.5</speed>
<temp>0.00</temp>
<bpm>0</bpm>
<rpm>0.00</rpm>
</extensions>
</trkpt>
<trkpt lat="64.146583557" lon="-20.322479248">
<ele>77.152344</ele>
<time>2012-07-20T16:16:14Z</time>
<speed>2.320000</speed>
<extensions>
<speed>2.3</speed>
<temp>0.00</temp>
<bpm>0</bpm>
<rpm>0.00</rpm>
</extensions>
</trkpt>
<trkpt lat="64.146453857" lon="-20.322578430">
<ele>77.007813</ele>
<time>2012-07-20T16:16:19Z</time>
<speed>3.170000</speed>
<extensions>
<speed>3.2</speed>
<temp>0.00</temp>
<bpm>0</bpm>
<rpm>0.00</rpm>
</extensions>
</trkpt>
<trkpt lat="64.146331787" lon="-20.322662354">
<ele>77.183594</ele>
<time>2012-07-20T16:16:24Z</time>
<speed>3.010000</speed>
<extensions>
<speed>3.0</speed>
<temp>0.00</temp>
<bpm>0</bpm>
<rpm>0.00</rpm>
</extensions>
</trkpt>
<trkpt lat="64.146179199" lon="-20.322772980">
<ele>77.175781</ele>
<time>2012-07-20T16:16:29Z</time>
<speed>3.680000</speed>
<extensions>
<speed>3.7</speed>
<temp>0.00</temp>
<bpm>0</bpm>
<rpm>0.00</rpm>
</extensions>
</trkpt>
<trkpt lat="64.146049500" lon="-20.322872162">
<ele>77.169922</ele>
<time>2012-07-20T16:16:34Z</time>
<speed>2.820000</speed>
<extensions>
<speed>2.8</speed>
<temp>0.00</temp>
<bpm>0</bpm>
<rpm>0.00</rpm>
</extensions>
</trkpt>
<trkpt lat="64.145904541" lon="-20.322973251">
<ele>76.878906</ele>
<time>2012-07-20T16:16:39Z</time>
<speed>4.240000</speed>
<extensions>
<speed>4.2</speed>
<temp>0.00</temp>
<bpm>0</bpm>
<rpm>0.00</rpm>
</extensions>
</trkpt>
<trkpt lat="64.145729065" lon="-20.323101044">
<ele>76.619141</ele>
<time>2012-07-20T16:16:44Z</time>
<speed>3.590000</speed>
<extensions>
<speed>3.6</speed>
<temp>0.00</temp>
<bpm>0</bpm>
<rpm>0.00</rpm>
</extensions>
</trkpt>
<trkpt lat="64.145576477" lon="-20.323217392">
<ele>76.210938</ele>
<time>2012-07-20T16:16:49Z</time>
<speed>4.030000</speed>
<extensions>
<speed>4.0</speed>
<temp>0.00</temp>
<bpm>0</bpm>
<rpm>0.00</rpm>
</extensions>
</trkpt>
<trkpt lat="64.145408630" lon="-20.323328018">
<ele>75.919922</ele>
<time>2012-07-20T16:16:54Z</time>
<speed>3.690000</speed>
<extensions>
<speed>3.7</speed>
<temp>0.00</temp>
<bpm>0</bpm>
<rpm>0.00</rpm>
</extensions>
</trkpt>
<trkpt lat="64.145271301" lon="-20.323432922">
<ele>76.130859</ele>
<time>2012-07-20T16:16:59Z</time>
<speed>3.630000</speed>
<extensions>
<speed>3.6</speed>
<temp>0.00</temp>
<bpm>0</bpm>
<rpm>0.00</rpm>
</extensions>
</trkpt>
<trkpt lat="64.145111084" lon="-20.323558807">
<ele>76.259766</ele>
<time>2012-07-20T16:17:04Z</time>
<speed>3.890000</speed>
<extensions>
<speed>3.9</speed>
<temp>0.00</temp>
<bpm>0</bpm>
<rpm>0.00</rpm>
</extensions>
</trkpt>
<trkpt lat="64.144950867" lon="-20.323675156">
<ele>76.380859</ele>
<time>2012-07-20T16:17:09Z</time>
<speed>3.320000</speed>
<extensions>
<speed>3.3</speed>
<temp>0.00</temp>
<bpm>0</bpm>
<rpm>0.00</rpm>
</extensions>
</trkpt>
<trkpt lat="64.144836426" lon="-20.323762894">
<ele>76.458984</ele>
<time>2012-07-20T16:17:14Z</time>
<speed>2.410000</speed>
<extensions>
<speed>2.4</speed>
<temp>0.00</temp>
<bpm>0</bpm>
<rpm>0.00</rpm>
</extensions>
</trkpt>
<trkpt lat="64.144721985" lon="-20.323839188">
<ele>76.472656</ele>
<time>2012-07-20T16:17:19Z</time>
<speed>2.900000</speed>
<extensions>
<speed>2.9</speed>
<temp>0.00</temp>
<bpm>0</bpm>
<rpm>0.00</rpm>
</extensions>
</trkpt>
<trkpt lat="64.144577026" lon="-20.323940277">
<ele>75.769531</ele>
<time>2012-07-20T16:17:24Z</time>
<speed>3.600000</speed>
<extensions>
<speed>3.6</speed>
<temp>0.00</temp>
<bpm>0</bpm>
<rpm>0.00</rpm>
</extensions>
</trkpt>
<trkpt lat="64.144439697" lon="-20.324047089">
<ele>75.976563</ele>
<time>2012-07-20T16:17:29Z</time>
<speed>3.310000</speed>
<extensions>
<speed>3.3</speed>
<temp>0.00</temp>
<bpm>0</bpm>
<rpm>0.00</rpm>
</extensions>
</trkpt>
<trkpt lat="64.144287109" lon="-20.324169159">
<ele>75.960938</ele>
<time>2012-07-20T16:17:34Z</time>
<speed>3.560000</speed>
<extensions>
<speed>3.6</speed>
<temp>0.00</temp>
<bpm>0</bpm>
<rpm>0.00</rpm>
</extensions>
</trkpt>
<trkpt lat="64.144142151" lon="-20.324272156">
<ele>76.220703</ele>
<time>2012-07-20T16:17:39Z</time>
<speed>3.660000</speed>
<extensions>
<speed>3.7</speed>
<temp>0.00</temp>
<bpm>0</bpm>
<rpm>0.00</rpm>
</extensions>
</trkpt>
<trkpt lat="64.143981934" lon="-20.324388504">
<ele>76.611328</ele>
<time>2012-07-20T16:17:44Z</time>
<speed>3.100000</speed>
<extensions>
<speed>3.1</speed>
<temp>0.00</temp>
<bpm>0</bpm>
<rpm>0.00</rpm>
</extensions>
</trkpt>
<trkpt lat="64.143867493" lon="-20.324478149">
<ele>76.744141</ele>
<time>2012-07-20T16:17:49Z</time>
<speed>2.860000</speed>
<extensions>
<speed>2.9</speed>
<temp>0.00</temp>
<bpm>0</bpm>
<rpm>0.00</rpm>
</extensions>
</trkpt>
<trkpt lat="64.143730164" lon="-20.324581146">
<ele>76.843750</ele>
<time>2012-07-20T16:17:54Z</time>
<speed>3.600000</speed>
<extensions>
<speed>3.6</speed>
<temp>0.00</temp>
<bpm>0</bpm>
<rpm>0.00</rpm>
</extensions>
</trkpt>
<trkpt lat="64.143569946" lon="-20.324689865">
<ele>77.199219</ele>
<time>2012-07-20T16:17:59Z</time>
<speed>3.900000</speed>
<extensions>
<speed>3.9</speed>
<temp>0.00</temp>
<bpm>0</bpm>
<rpm>0.00</rpm>
</extensions>
</trkpt>
<trkpt lat="64.143417358" lon="-20.324806213">
<ele>77.138672</ele>
<time>2012-07-20T16:18:04Z</time>
<speed>3.210000</speed>
<extensions>
<speed>3.2</speed>
<temp>0.00</temp>
<bpm>0</bpm>
<rpm>0.00</rpm>
</extensions>
</trkpt>
<trkpt lat="64.143280029" lon="-20.324907303">
<ele>77.285156</ele>
<time>2012-07-20T16:18:09Z</time>
<speed>3.330000</speed>
<extensions>
<speed>3.3</speed>
<temp>0.00</temp>
<bpm>0</bpm>
<rpm>0.00</rpm>
</extensions>
</trkpt>
<trkpt lat="64.143127441" lon="-20.325021744">
<ele>77.187500</ele>
<time>2012-07-20T16:18:14Z</time>
<speed>3.720000</speed>
<extensions>
<speed>3.7</speed>
<temp>0.00</temp>
<bpm>0</bpm>
<rpm>0.00</rpm>
</extensions>
</trkpt>
<trkpt lat="64.142959595" lon="-20.325139999">
<ele>77.042969</ele>
<time>2012-07-20T16:18:19Z</time>
<speed>4.000000</speed>
<extensions>
<speed>4.0</speed>
<temp>0.00</temp>
<bpm>0</bpm>
<rpm>0.00</rpm>
</extensions>
</trkpt>
<trkpt lat="64.142791748" lon="-20.325265884">
<ele>77.328125</ele>
<time>2012-07-20T16:18:24Z</time>
<speed>4.210000</speed>
<extensions>
<speed>4.2</speed>
<temp>0.00</temp>
<bpm>0</bpm>
<rpm>0.00</rpm>
</extensions>
</trkpt>
<trkpt lat="64.142608643" lon="-20.325405121">
<ele>77.623047</ele>
<time>2012-07-20T16:18:29Z</time>
<speed>4.360000</speed>
<extensions>
<speed>4.4</speed>
<temp>0.00</temp>
<bpm>0</bpm>
<rpm>0.00</rpm>
</extensions>
</trkpt>
<trkpt lat="64.142425537" lon="-20.325551987">
<ele>77.406250</ele>
<time>2012-07-20T16:18:34Z</time>
<speed>4.010000</speed>
<extensions>
<speed>4.0</speed>
<temp>0.00</temp>
<bpm>0</bpm>
<rpm>0.00</rpm>
</extensions>
</trkpt>
<trkpt lat="64.142257690" lon="-20.325681686">
<ele>77.451172</ele>
<time>2012-07-20T16:18:39Z</time>
<speed>4.360000</speed>
<extensions>
<speed>4.4</speed>
<temp>0.00</temp>
<bpm>0</bpm>
<rpm>0.00</rpm>
</extensions>
</trkpt>
<trkpt lat="64.142059326" lon="-20.325817108">
<ele>77.046875</ele>
<time>2012-07-20T16:18:44Z</time>
<speed>4.630000</speed>
<extensions>
<speed>4.6</speed>
<temp>0.00</temp>
<bpm>0</bpm>
<rpm>0.00</rpm>
</extensions>
</trkpt>
<trkpt lat="64.141860962" lon="-20.325960159">
<ele>77.035156</ele>
<time>2012-07-20T16:18:49Z</time>
<speed>4.800000</speed>
<extensions>
<speed>4.8</speed>
<temp>0.00</temp>
<bpm>0</bpm>
<rpm>0.00</rpm>
</extensions>
</trkpt>
<trkpt lat="64.141654968" lon="-20.326112747">
<ele>76.552734</ele>
<time>2012-07-20T16:18:54Z</time>
<speed>4.360000</speed>
<extensions>
<speed>4.4</speed>
<temp>0.00</temp>
<bpm>0</bpm>
<rpm>0.00</rpm>
</extensions>
</trkpt>
<trkpt lat="64.141494751" lon="-20.326250076">
<ele>76.814453</ele>
<time>2012-07-20T16:18:59Z</time>
<speed>3.460000</speed>
<extensions>
<speed>3.5</speed>
<temp>0.00</temp>
<bpm>0</bpm>
<rpm>0.00</rpm>
</extensions>
</trkpt>
<trkpt lat="64.141342163" lon="-20.326347351">
<ele>76.832031</ele>
<time>2012-07-20T16:19:04Z</time>
<speed>3.280000</speed>
<extensions>
<speed>3.3</speed>
<temp>0.00</temp>
<bpm>0</bpm>
<rpm>0.00</rpm>
</extensions>
</trkpt>
<trkpt lat="64.141227722" lon="-20.326456070">
<ele>76.484375</ele>
<time>2012-07-20T16:19:09Z</time>
<speed>2.490000</speed>
<extensions>
<speed>2.5</speed>
<temp>0.00</temp>
<bpm>0</bpm>
<rpm>0.00</rpm>
</extensions>
</trkpt>
<trkpt lat="64.141143799" lon="-20.326503754">
<ele>76.642578</ele>
<time>2012-07-20T16:19:14Z</time>
<speed>1.890000</speed>
<extensions>
<speed>1.9</speed>
<temp>0.00</temp>
<bpm>0</bpm>
<rpm>0.00</rpm>
</extensions>
</trkpt>
<trkpt lat="64.141036987" lon="-20.326589584">
<ele>76.578125</ele>
<time>2012-07-20T16:19:19Z</time>
<speed>2.810000</speed>
<extensions>
<speed>2.8</speed>
<temp>0.00</temp>
<bpm>0</bpm>
<rpm>0.00</rpm>
</extensions>
</trkpt>
<trkpt lat="64.140945435" lon="-20.326654434">
<ele>76.804688</ele>
<time>2012-07-20T16:19:24Z</time>
<speed>1.810000</speed>
<extensions>
<speed>1.8</speed>
<temp>0.00</temp>
<bpm>0</bpm>
<rpm>0.00</rpm>
</extensions>
</trkpt>
<trkpt lat="64.140869141" lon="-20.326686859">
<ele>76.923828</ele>
<time>2012-07-20T16:19:29Z</time>
<speed>1.680000</speed>
<extensions>
<speed>1.7</speed>
<temp>0.00</temp>
<bpm>0</bpm>
<rpm>0.00</rpm>
</extensions>
</trkpt>
<trkpt lat="64.140777588" lon="-20.326726913">
<ele>77.189453</ele>
<time>2012-07-20T16:19:34Z</time>
<speed>1.880000</speed>
<extensions>
<speed>1.9</speed>
<temp>0.00</temp>
<bpm>0</bpm>
<rpm>0.00</rpm>
</extensions>
</trkpt>
<trkpt lat="64.140701294" lon="-20.326770782">
<ele>77.378906</ele>
<time>2012-07-20T16:19:39Z</time>
<speed>2.150000</speed>
<extensions>
<speed>2.1</speed>
<temp>0.00</temp>
<bpm>0</bpm>
<rpm>0.00</rpm>
</extensions>
</trkpt>
<trkpt lat="64.140594482" lon="-20.326778412">
<ele>77.826172</ele>
<time>2012-07-20T16:19:44Z</time>
<speed>2.030000</speed>
<extensions>
<speed>2.0</speed>
<temp>0.00</temp>
<bpm>0</bpm>
<rpm>0.00</rpm>
</extensions>
</trkpt>
<trkpt lat="64.140525818" lon="-20.326774597">
<ele>78.179688</ele>
<time>2012-07-20T16:19:49Z</time>
<speed>1.730000</speed>
<extensions>
<speed>1.7</speed>
<temp>0.00</temp>
<bpm>0</bpm>
<rpm>0.00</rpm>
</extensions>
</trkpt>
<trkpt lat="64.140441895" lon="-20.326799393">
<ele>78.171875</ele>
<time>2012-07-20T16:19:54Z</time>
<speed>1.450000</speed>
<extensions>
<speed>1.4</speed>
<temp>0.00</temp>
<bpm>0</bpm>
<rpm>0.00</rpm>
</extensions>
</trkpt>
<trkpt lat="64.140342712" lon="-20.326805115">
<ele>78.066406</ele>
<time>2012-07-20T16:19:59Z</time>
<speed>2.910000</speed>
<extensions>
<speed>2.9</speed>
<temp>0.00</temp>
<bpm>0</bpm>
<rpm>0.00</rpm>
</extensions>
</trkpt>
<trkpt lat="64.140197754" lon="-20.326810837">
<ele>78.386719</ele>
<time>2012-07-20T16:20:04Z</time>
<speed>3.230000</speed>
<extensions>
<speed>3.2</speed>
<temp>0.00</temp>
<bpm>0</bpm>
<rpm>0.00</rpm>
</extensions>
</trkpt>
<trkpt lat="64.140045166" lon="-20.326829910">
<ele>78.654297</ele>
<time>2012-07-20T16:20:09Z</time>
<speed>3.700000</speed>
<extensions>
<speed>3.7</speed>
<temp>0.00</temp>
<bpm>0</bpm>
<rpm>0.00</rpm>
</extensions>
</trkpt>
<trkpt lat="64.139907837" lon="-20.326860428">
<ele>78.384766</ele>
<time>2012-07-20T16:20:14Z</time>
<speed>2.890000</speed>
<extensions>
<speed>2.9</speed>
<temp>0.00</temp>
<bpm>0</bpm>
<rpm>0.00</rpm>
</extensions>
</trkpt>
<trkpt lat="64.139785767" lon="-20.326910019">
<ele>77.826172</ele>
<time>2012-07-20T16:20:19Z</time>
<speed>3.260000</speed>
<extensions>
<speed>3.3</speed>
<temp>0.00</temp>
<bpm>0</bpm>
<rpm>0.00</rpm>
</extensions>
</trkpt>
<trkpt lat="64.139648438" lon="-20.327024460">
<ele>77.779297</ele>
<time>2012-07-20T16:20:24Z</time>
<speed>2.580000</speed>
<extensions>
<speed>2.6</speed>
<temp>0.00</temp>
<bpm>0</bpm>
<rpm>0.00</rpm>
</extensions>
</trkpt>
<trkpt lat="64.139556885" lon="-20.327136993">
<ele>77.535156</ele>
<time>2012-07-20T16:20:29Z</time>
<speed>1.890000</speed>
<extensions>
<speed>1.9</speed>
<temp>0.00</temp>
<bpm>0</bpm>
<rpm>0.00</rpm>
</extensions>
</trkpt>
<trkpt lat="64.139457703" lon="-20.327302933">
<ele>77.925781</ele>
<time>2012-07-20T16:20:34Z</time>
<speed>2.820000</speed>
<extensions>
<speed>2.8</speed>
<temp>0.00</temp>
<bpm>0</bpm>
<rpm>0.00</rpm>
</extensions>
</trkpt>
<trkpt lat="64.139389038" lon="-20.327508926">
<ele>78.269531</ele>
<time>2012-07-20T16:20:39Z</time>
<speed>2.320000</speed>
<extensions>
<speed>2.3</speed>
<temp>0.00</temp>
<bpm>0</bpm>
<rpm>0.00</rpm>
</extensions>
</trkpt>
<trkpt lat="64.139350891" lon="-20.327617645">
<ele>78.773438</ele>
<time>2012-07-20T16:20:44Z</time>
<speed>0.340000</speed>
<extensions>
<speed>0.3</speed>
<temp>0.00</temp>
<bpm>0</bpm>
<rpm>0.00</rpm>
</extensions>
</trkpt>
<trkpt lat="64.139389038" lon="-20.327686310">
<ele>77.679688</ele>
<time>2012-07-20T16:20:49Z</time>
<speed>0.420000</speed>
<extensions>
<speed>0.4</speed>
<temp>0.00</temp>
<bpm>0</bpm>
<rpm>0.00</rpm>
</extensions>
</trkpt>
<trkpt lat="64.139396667" lon="-20.327682495">
<ele>77.681641</ele>
<time>2012-07-20T16:20:54Z</time>
<speed>0.010000</speed>
<extensions>
<speed>0.0</speed>
<temp>0.00</temp>
<bpm>0</bpm>
<rpm>0.00</rpm>
</extensions>
</trkpt>
<trkpt lat="64.139396667" lon="-20.327684402">
<ele>77.519531</ele>
<time>2012-07-20T16:20:59Z</time>
<speed>0.020000</speed>
<extensions>
<speed>0.0</speed>
<temp>0.00</temp>
<bpm>0</bpm>
<rpm>0.00</rpm>
</extensions>
</trkpt>
<trkpt lat="64.139389038" lon="-20.327684402">
<ele>77.417969</ele>
<time>2012-07-20T16:21:04Z</time>
<extensions>
<speed>0.0</speed>
<temp>0.00</temp>
<bpm>0</bpm>
<rpm>0.00</rpm>
</extensions>
</trkpt>
<trkpt lat="64.139389038" lon="-20.327684402">
<ele>77.408203</ele>
<time>2012-07-20T16:21:09Z</time>
<extensions>
<speed>0.0</speed>
<temp>0.00</temp>
<bpm>0</bpm>
<rpm>0.00</rpm>
</extensions>
</trkpt>
<trkpt lat="64.139389038" lon="-20.327684402">
<ele>77.400391</ele>
<time>2012-07-20T16:21:14Z</time>
<speed>0.010000</speed>
<extensions>
<speed>0.0</speed>
<temp>0.00</temp>
<bpm>0</bpm>
<rpm>0.00</rpm>
</extensions>
</trkpt>
<trkpt lat="64.139396667" lon="-20.327684402">
<ele>77.384766</ele>
<time>2012-07-20T16:21:19Z</time>
<speed>0.020000</speed>
<extensions>
<speed>0.0</speed>
<temp>0.00</temp>
<bpm>0</bpm>
<rpm>0.00</rpm>
</extensions>
</trkpt>
<trkpt lat="64.139396667" lon="-20.327684402">
<ele>77.386719</ele>
<time>2012-07-20T16:21:24Z</time>
<speed>0.010000</speed>
<extensions>
<speed>0.0</speed>
<temp>0.00</temp>
<bpm>0</bpm>
<rpm>0.00</rpm>
</extensions>
</trkpt>
<trkpt lat="64.139396667" lon="-20.327684402">
<ele>77.378906</ele>
<time>2012-07-20T16:21:29Z</time>
<extensions>
<speed>0.0</speed>
<temp>0.00</temp>
<bpm>0</bpm>
<rpm>0.00</rpm>
</extensions>
</trkpt>
<trkpt lat="64.139389038" lon="-20.327684402">
<ele>77.371094</ele>
<time>2012-07-20T16:21:34Z</time>
<extensions>
<speed>0.0</speed>
<temp>0.00</temp>
<bpm>0</bpm>
<rpm>0.00</rpm>
</extensions>
</trkpt>
<trkpt lat="64.139389038" lon="-20.327684402">
<ele>77.363281</ele>
<time>2012-07-20T16:21:39Z</time>
<extensions>
<speed>0.0</speed>
<temp>0.00</temp>
<bpm>0</bpm>
<rpm>0.00</rpm>
</extensions>
</trkpt>
<trkpt lat="64.139389038" lon="-20.327684402">
<ele>77.353516</ele>
<time>2012-07-20T16:21:44Z</time>
<speed>0.010000</speed>
<extensions>
<speed>0.0</speed>
<temp>0.00</temp>
<bpm>0</bpm>
<rpm>0.00</rpm>
</extensions>
</trkpt>
<trkpt lat="64.139389038" lon="-20.327684402">
<ele>77.339844</ele>
<time>2012-07-20T16:21:49Z</time>
<extensions>
<speed>0.0</speed>
<temp>0.00</temp>
<bpm>0</bpm>
<rpm>0.00</rpm>
</extensions>
</trkpt>
<trkpt lat="64.139389038" lon="-20.327684402">
<ele>77.324219</ele>
<time>2012-07-20T16:21:54Z</time>
<speed>0.010000</speed>
<extensions>
<speed>0.0</speed>
<temp>0.00</temp>
<bpm>0</bpm>
<rpm>0.00</rpm>
</extensions>
</trkpt>
<trkpt lat="64.139389038" lon="-20.327684402">
<ele>77.302734</ele>
<time>2012-07-20T16:21:59Z</time>
<extensions>
<speed>0.0</speed>
<temp>0.00</temp>
<bpm>0</bpm>
<rpm>0.00</rpm>
</extensions>
</trkpt>
<trkpt lat="64.139389038" lon="-20.327684402">
<ele>77.298828</ele>
<time>2012-07-20T16:22:04Z</time>
<speed>0.010000</speed>
<extensions>
<speed>0.0</speed>
<temp>0.00</temp>
<bpm>0</bpm>
<rpm>0.00</rpm>
</extensions>
</trkpt>
<trkpt lat="64.139389038" lon="-20.327684402">
<ele>77.294922</ele>
<time>2012-07-20T16:22:09Z</time>
<extensions>
<speed>0.0</speed>
<temp>0.00</temp>
<bpm>0</bpm>
<rpm>0.00</rpm>
</extensions>
</trkpt>
<trkpt lat="64.139389038" lon="-20.327684402">
<ele>77.285156</ele>
<time>2012-07-20T16:22:14Z</time>
<speed>0.010000</speed>
<extensions>
<speed>0.0</speed>
<temp>0.00</temp>
<bpm>0</bpm>
<rpm>0.00</rpm>
</extensions>
</trkpt>
<trkpt lat="64.139389038" lon="-20.327684402">
<ele>77.281250</ele>
<time>2012-07-20T16:22:19Z</time>
<speed>0.020000</speed>
<extensions>
<speed>0.0</speed>
<temp>0.00</temp>
<bpm>0</bpm>
<rpm>0.00</rpm>
</extensions>
</trkpt>
<trkpt lat="64.139389038" lon="-20.327684402">
<ele>77.263672</ele>
<time>2012-07-20T16:22:24Z</time>
<extensions>
<speed>0.0</speed>
<temp>0.00</temp>
<bpm>0</bpm>
<rpm>0.00</rpm>
</extensions>
</trkpt>
<trkpt lat="64.139389038" lon="-20.327684402">
<ele>77.248047</ele>
<time>2012-07-20T16:22:29Z</time>
<extensions>
<speed>0.0</speed>
<temp>0.00</temp>
<bpm>0</bpm>
<rpm>0.00</rpm>
</extensions>
</trkpt>
<trkpt lat="64.139389038" lon="-20.327684402">
<ele>77.240234</ele>
<time>2012-07-20T16:22:34Z</time>
<speed>0.010000</speed>
<extensions>
<speed>0.0</speed>
<temp>0.00</temp>
<bpm>0</bpm>
<rpm>0.00</rpm>
</extensions>
</trkpt>
<trkpt lat="64.139389038" lon="-20.327684402">
<ele>77.228516</ele>
<time>2012-07-20T16:22:39Z</time>
<speed>0.010000</speed>
<extensions>
<speed>0.0</speed>
<temp>0.00</temp>
<bpm>0</bpm>
<rpm>0.00</rpm>
</extensions>
</trkpt>
<trkpt lat="64.139389038" lon="-20.327684402">
<ele>77.218750</ele>
<time>2012-07-20T16:22:44Z</time>
<extensions>
<speed>0.0</speed>
<temp>0.00</temp>
<bpm>0</bpm>
<rpm>0.00</rpm>
</extensions>
</trkpt>
<trkpt lat="64.139389038" lon="-20.327684402">
<ele>77.210938</ele>
<time>2012-07-20T16:22:49Z</time>
<speed>0.010000</speed>
<extensions>
<speed>0.0</speed>
<temp>0.00</temp>
<bpm>0</bpm>
<rpm>0.00</rpm>
</extensions>
</trkpt>
<trkpt lat="64.139389038" lon="-20.327684402">
<ele>77.203125</ele>
<time>2012-07-20T16:22:54Z</time>
<extensions>
<speed>0.0</speed>
<temp>0.00</temp>
<bpm>0</bpm>
<rpm>0.00</rpm>
</extensions>
</trkpt>
<trkpt lat="64.139389038" lon="-20.327684402">
<ele>77.185547</ele>
<time>2012-07-20T16:22:59Z</time>
<extensions>
<speed>0.0</speed>
<temp>0.00</temp>
<bpm>0</bpm>
<rpm>0.00</rpm>
</extensions>
</trkpt>
<trkpt lat="64.139389038" lon="-20.327684402">
<ele>77.177734</ele>
<time>2012-07-20T16:23:04Z</time>
<speed>0.010000</speed>
<extensions>
<speed>0.0</speed>
<temp>0.00</temp>
<bpm>0</bpm>
<rpm>0.00</rpm>
</extensions>
</trkpt>
<trkpt lat="64.139389038" lon="-20.327684402">
<ele>77.169922</ele>
<time>2012-07-20T16:23:09Z</time>
<speed>0.010000</speed>
<extensions>
<speed>0.0</speed>
<temp>0.00</temp>
<bpm>0</bpm>
<rpm>0.00</rpm>
</extensions>
</trkpt>
<trkpt lat="64.139389038" lon="-20.327684402">
<ele>77.158203</ele>
<time>2012-07-20T16:23:14Z</time>
<extensions>
<speed>0.0</speed>
<temp>0.00</temp>
<bpm>0</bpm>
<rpm>0.00</rpm>
</extensions>
</trkpt>
<trkpt lat="64.139389038" lon="-20.327684402">
<ele>77.152344</ele>
<time>2012-07-20T16:23:19Z</time>
<extensions>
<speed>0.0</speed>
<temp>0.00</temp>
<bpm>0</bpm>
<rpm>0.00</rpm>
</extensions>
</trkpt>
<trkpt lat="64.139389038" lon="-20.327684402">
<ele>77.148438</ele>
<time>2012-07-20T16:23:24Z</time>
<extensions>
<speed>0.0</speed>
<temp>0.00</temp>
<bpm>0</bpm>
<rpm>0.00</rpm>
</extensions>
</trkpt>
<trkpt lat="64.139389038" lon="-20.327684402">
<ele>77.136719</ele>
<time>2012-07-20T16:23:29Z</time>
<extensions>
<speed>0.0</speed>
<temp>0.00</temp>
<bpm>0</bpm>
<rpm>0.00</rpm>
</extensions>
</trkpt>
<trkpt lat="64.139389038" lon="-20.327684402">
<ele>77.123047</ele>
<time>2012-07-20T16:23:34Z</time>
<extensions>
<speed>0.0</speed>
<temp>0.00</temp>
<bpm>0</bpm>
<rpm>0.00</rpm>
</extensions>
</trkpt>
<trkpt lat="64.139389038" lon="-20.327684402">
<ele>77.111328</ele>
<time>2012-07-20T16:23:39Z</time>
<extensions>
<speed>0.0</speed>
<temp>0.00</temp>
<bpm>0</bpm>
<rpm>0.00</rpm>
</extensions>
</trkpt>
<trkpt lat="64.139389038" lon="-20.327684402">
<ele>77.105469</ele>
<time>2012-07-20T16:23:44Z</time>
<extensions>
<speed>0.0</speed>
<temp>0.00</temp>
<bpm>0</bpm>
<rpm>0.00</rpm>
</extensions>
</trkpt>
<trkpt lat="64.139389038" lon="-20.327684402">
<ele>77.125000</ele>
<time>2012-07-20T16:23:49Z</time>
<extensions>
<speed>0.0</speed>
<temp>0.00</temp>
<bpm>0</bpm>
<rpm>0.00</rpm>
</extensions>
</trkpt>
<trkpt lat="64.139389038" lon="-20.327684402">
<ele>77.113281</ele>
<time>2012-07-20T16:23:54Z</time>
<extensions>
<speed>0.0</speed>
<temp>0.00</temp>
<bpm>0</bpm>
<rpm>0.00</rpm>
</extensions>
</trkpt>
<trkpt lat="64.139389038" lon="-20.327684402">
<ele>77.099609</ele>
<time>2012-07-20T16:23:59Z</time>
<extensions>
<speed>0.0</speed>
<temp>0.00</temp>
<bpm>0</bpm>
<rpm>0.00</rpm>
</extensions>
</trkpt>
<trkpt lat="64.139389038" lon="-20.327684402">
<ele>77.089844</ele>
<time>2012-07-20T16:24:04Z</time>
<extensions>
<speed>0.0</speed>
<temp>0.00</temp>
<bpm>0</bpm>
<rpm>0.00</rpm>
</extensions>
</trkpt>
<trkpt lat="64.139389038" lon="-20.327684402">
<ele>77.091797</ele>
<time>2012-07-20T16:24:09Z</time>
<extensions>
<speed>0.0</speed>
<temp>0.00</temp>
<bpm>0</bpm>
<rpm>0.00</rpm>
</extensions>
</trkpt>
<trkpt lat="64.139389038" lon="-20.327684402">
<ele>77.085938</ele>
<time>2012-07-20T16:24:14Z</time>
<extensions>
<speed>0.0</speed>
<temp>0.00</temp>
<bpm>0</bpm>
<rpm>0.00</rpm>
</extensions>
</trkpt>
<trkpt lat="64.139389038" lon="-20.327684402">
<ele>77.076172</ele>
<time>2012-07-20T16:24:19Z</time>
<speed>0.010000</speed>
<extensions>
<speed>0.0</speed>
<temp>0.00</temp>
<bpm>0</bpm>
<rpm>0.00</rpm>
</extensions>
</trkpt>
<trkpt lat="64.139389038" lon="-20.327684402">
<ele>77.074219</ele>
<time>2012-07-20T16:24:24Z</time>
<speed>0.010000</speed>
<extensions>
<speed>0.0</speed>
<temp>0.00</temp>
<bpm>0</bpm>
<rpm>0.00</rpm>
</extensions>
</trkpt>
<trkpt lat="64.139389038" lon="-20.327726364">
<ele>77.029297</ele>
<time>2012-07-20T16:24:29Z</time>
<speed>0.690000</speed>
<extensions>
<speed>0.7</speed>
<temp>0.00</temp>
<bpm>0</bpm>
<rpm>0.00</rpm>
</extensions>
</trkpt>
<trkpt lat="64.139389038" lon="-20.327737808">
<ele>76.556641</ele>
<time>2012-07-20T16:24:34Z</time>
<speed>0.020000</speed>
<extensions>
<speed>0.0</speed>
<temp>0.00</temp>
<bpm>0</bpm>
<rpm>0.00</rpm>
</extensions>
</trkpt>
<trkpt lat="64.139373779" lon="-20.327779770">
<ele>76.541016</ele>
<time>2012-07-20T16:24:39Z</time>
<speed>1.630000</speed>
<extensions>
<speed>1.6</speed>
<temp>0.00</temp>
<bpm>0</bpm>
<rpm>0.00</rpm>
</extensions>
</trkpt>
<trkpt lat="64.139274597" lon="-20.327754974">
<ele>76.841797</ele>
<time>2012-07-20T16:24:44Z</time>
<speed>2.270000</speed>
<extensions>
<speed>2.3</speed>
<temp>0.00</temp>
<bpm>0</bpm>
<rpm>0.00</rpm>
</extensions>
</trkpt>
<trkpt lat="64.139183044" lon="-20.327669144">
<ele>76.292969</ele>
<time>2012-07-20T16:24:49Z</time>
<speed>2.760000</speed>
<extensions>
<speed>2.8</speed>
<temp>0.00</temp>
<bpm>0</bpm>
<rpm>0.00</rpm>
</extensions>
</trkpt>
<trkpt lat="64.139045715" lon="-20.327465057">
<ele>75.982422</ele>
<time>2012-07-20T16:24:54Z</time>
<speed>3.900000</speed>
<extensions>
<speed>3.9</speed>
<temp>0.00</temp>
<bpm>0</bpm>
<rpm>0.00</rpm>
</extensions>
</trkpt>
<trkpt lat="64.138885498" lon="-20.327243805">
<ele>75.947266</ele>
<time>2012-07-20T16:24:59Z</time>
<speed>4.190000</speed>
<extensions>
<speed>4.2</speed>
<temp>0.00</temp>
<bpm>0</bpm>
<rpm>0.00</rpm>
</extensions>
</trkpt>
<trkpt lat="64.138702393" lon="-20.327087402">
<ele>75.136719</ele>
<time>2012-07-20T16:25:04Z</time>
<speed>3.660000</speed>
<extensions>
<speed>3.7</speed>
<temp>0.00</temp>
<bpm>0</bpm>
<rpm>0.00</rpm>
</extensions>
</trkpt>
<trkpt lat="64.138595581" lon="-20.326986313">
<ele>75.429688</ele>
<time>2012-07-20T16:25:09Z</time>
<speed>2.900000</speed>
<extensions>
<speed>2.9</speed>
<temp>0.00</temp>
<bpm>0</bpm>
<rpm>0.00</rpm>
</extensions>
</trkpt>
<trkpt lat="64.138473511" lon="-20.326889038">
<ele>75.683594</ele>
<time>2012-07-20T16:25:14Z</time>
<speed>2.630000</speed>
<extensions>
<speed>2.6</speed>
<temp>0.00</temp>
<bpm>0</bpm>
<rpm>0.00</rpm>
</extensions>
</trkpt>
<trkpt lat="64.138381958" lon="-20.326807022">
<ele>74.652344</ele>
<time>2012-07-20T16:25:19Z</time>
<speed>1.910000</speed>
<extensions>
<speed>1.9</speed>
<temp>0.00</temp>
<bpm>0</bpm>
<rpm>0.00</rpm>
</extensions>
</trkpt>
<trkpt lat="64.138267517" lon="-20.326723099">
<ele>73.380859</ele>
<time>2012-07-20T16:25:24Z</time>
<speed>2.760000</speed>
<extensions>
<speed>2.8</speed>
<temp>0.00</temp>
<bpm>0</bpm>
<rpm>0.00</rpm>
</extensions>
</trkpt>
<trkpt lat="64.138153076" lon="-20.326595306">
<ele>71.824219</ele>
<time>2012-07-20T16:25:29Z</time>
<speed>2.330000</speed>
<extensions>
<speed>2.3</speed>
<temp>0.00</temp>
<bpm>0</bpm>
<rpm>0.00</rpm>
</extensions>
</trkpt>
<trkpt lat="64.138046265" lon="-20.326463699">
<ele>71.210938</ele>
<time>2012-07-20T16:25:34Z</time>
<speed>2.420000</speed>
<extensions>
<speed>2.4</speed>
<temp>0.00</temp>
<bpm>0</bpm>
<rpm>0.00</rpm>
</extensions>
</trkpt>
<trkpt lat="64.137947083" lon="-20.326368332">
<ele>70.843750</ele>
<time>2012-07-20T16:25:39Z</time>
<speed>2.260000</speed>
<extensions>
<speed>2.3</speed>
<temp>0.00</temp>
<bpm>0</bpm>
<rpm>0.00</rpm>
</extensions>
</trkpt>
<trkpt lat="64.137863159" lon="-20.326234818">
<ele>69.144531</ele>
<time>2012-07-20T16:25:44Z</time>
<speed>2.240000</speed>
<extensions>
<speed>2.2</speed>
<temp>0.00</temp>
<bpm>0</bpm>
<rpm>0.00</rpm>
</extensions>
</trkpt>
<trkpt lat="64.137748718" lon="-20.326082230">
<ele>68.707031</ele>
<time>2012-07-20T16:25:49Z</time>
<speed>3.140000</speed>
<extensions>
<speed>3.1</speed>
<temp>0.00</temp>
<bpm>0</bpm>
<rpm>0.00</rpm>
</extensions>
</trkpt>
<trkpt lat="64.137626648" lon="-20.325927734">
<ele>68.298828</ele>
<time>2012-07-20T16:25:54Z</time>
<speed>2.790000</speed>
<extensions>
<speed>2.8</speed>
<temp>0.00</temp>
<bpm>0</bpm>
<rpm>0.00</rpm>
</extensions>
</trkpt>
<trkpt lat="64.137535095" lon="-20.325782776">
<ele>67.763672</ele>
<time>2012-07-20T16:25:59Z</time>
<speed>2.190000</speed>
<extensions>
<speed>2.2</speed>
<temp>0.00</temp>
<bpm>0</bpm>
<rpm>0.00</rpm>
</extensions>
</trkpt>
<trkpt lat="64.137443542" lon="-20.325649261">
<ele>67.828125</ele>
<time>2012-07-20T16:26:04Z</time>
<speed>2.880000</speed>
<extensions>
<speed>2.9</speed>
<temp>0.00</temp>
<bpm>0</bpm>
<rpm>0.00</rpm>
</extensions>
</trkpt>
<trkpt lat="64.137329102" lon="-20.325523376">
<ele>69.691406</ele>
<time>2012-07-20T16:26:09Z</time>
<speed>3.160000</speed>
<extensions>
<speed>3.2</speed>
<temp>0.00</temp>
<bpm>0</bpm>
<rpm>0.00</rpm>
</extensions>
</trkpt>
<trkpt lat="64.137199402" lon="-20.325401306">
<ele>69.275391</ele>
<time>2012-07-20T16:26:14Z</time>
<speed>3.070000</speed>
<extensions>
<speed>3.1</speed>
<temp>0.00</temp>
<bpm>0</bpm>
<rpm>0.00</rpm>
</extensions>
</trkpt>
<trkpt lat="64.137069702" lon="-20.325283051">
<ele>68.478516</ele>
<time>2012-07-20T16:26:19Z</time>
<speed>2.930000</speed>
<extensions>
<speed>2.9</speed>
<temp>0.00</temp>
<bpm>0</bpm>
<rpm>0.00</rpm>
</extensions>
</trkpt>
<trkpt lat="64.136947632" lon="-20.325185776">
<ele>68.158203</ele>
<time>2012-07-20T16:26:24Z</time>
<speed>2.960000</speed>
<extensions>
<speed>3.0</speed>
<temp>0.00</temp>
<bpm>0</bpm>
<rpm>0.00</rpm>
</extensions>
</trkpt>
<trkpt lat="64.136795044" lon="-20.325096130">
<ele>68.062500</ele>
<time>2012-07-20T16:26:29Z</time>
<speed>3.500000</speed>
<extensions>
<speed>3.5</speed>
<temp>0.00</temp>
<bpm>0</bpm>
<rpm>0.00</rpm>
</extensions>
</trkpt>
<trkpt lat="64.136642456" lon="-20.325031281">
<ele>74.050781</ele>
<time>2012-07-20T16:26:34Z</time>
<speed>3.270000</speed>
<extensions>
<speed>3.3</speed>
<temp>0.00</temp>
<bpm>0</bpm>
<rpm>0.00</rpm>
</extensions>
</trkpt>
<trkpt lat="64.136482239" lon="-20.324985504">
<ele>73.441406</ele>
<time>2012-07-20T16:26:39Z</time>
<speed>3.540000</speed>
<extensions>
<speed>3.5</speed>
<temp>0.00</temp>
<bpm>0</bpm>
<rpm>0.00</rpm>
</extensions>
</trkpt>
<trkpt lat="64.136344910" lon="-20.324941635">
<ele>73.669922</ele>
<time>2012-07-20T16:26:44Z</time>
<speed>3.350000</speed>
<extensions>
<speed>3.4</speed>
<temp>0.00</temp>
<bpm>0</bpm>
<rpm>0.00</rpm>
</extensions>
</trkpt>
<trkpt lat="64.136199951" lon="-20.324941635">
<ele>79.421875</ele>
<time>2012-07-20T16:26:49Z</time>
<speed>3.220000</speed>
<extensions>
<speed>3.2</speed>
<temp>0.00</temp>
<bpm>0</bpm>
<rpm>0.00</rpm>
</extensions>
</trkpt>
<trkpt lat="64.136070251" lon="-20.324954987">
<ele>78.849609</ele>
<time>2012-07-20T16:26:54Z</time>
<speed>2.790000</speed>
<extensions>
<speed>2.8</speed>
<temp>0.00</temp>
<bpm>0</bpm>
<rpm>0.00</rpm>
</extensions>
</trkpt>
<trkpt lat="64.135932922" lon="-20.324972153">
<ele>78.259766</ele>
<time>2012-07-20T16:26:59Z</time>
<speed>3.580000</speed>
<extensions>
<speed>3.6</speed>
<temp>0.00</temp>
<bpm>0</bpm>
<rpm>0.00</rpm>
</extensions>
</trkpt>
<trkpt lat="64.135765076" lon="-20.325033188">
<ele>77.251953</ele>
<time>2012-07-20T16:27:04Z</time>
<speed>4.000000</speed>
<extensions>
<speed>4.0</speed>
<temp>0.00</temp>
<bpm>0</bpm>
<rpm>0.00</rpm>
</extensions>
</trkpt>
<trkpt lat="64.135604858" lon="-20.325103760">
<ele>77.271484</ele>
<time>2012-07-20T16:27:09Z</time>
<speed>3.860000</speed>
<extensions>
<speed>3.9</speed>
<temp>0.00</temp>
<bpm>0</bpm>
<rpm>0.00</rpm>
</extensions>
</trkpt>
<trkpt lat="64.135421753" lon="-20.325149536">
<ele>77.095703</ele>
<time>2012-07-20T16:27:14Z</time>
<speed>4.400000</speed>
<extensions>
<speed>4.4</speed>
<temp>0.00</temp>
<bpm>0</bpm>
<rpm>0.00</rpm>
</extensions>
</trkpt>
<trkpt lat="64.135223389" lon="-20.325136185">
<ele>76.628906</ele>
<time>2012-07-20T16:27:19Z</time>
<speed>4.530000</speed>
<extensions>
<speed>4.5</speed>
<temp>0.00</temp>
<bpm>0</bpm>
<rpm>0.00</rpm>
</extensions>
</trkpt>
<trkpt lat="64.135017395" lon="-20.325111389">
<ele>75.398438</ele>
<time>2012-07-20T16:27:24Z</time>
<speed>4.530000</speed>
<extensions>
<speed>4.5</speed>
<temp>0.00</temp>
<bpm>0</bpm>
<rpm>0.00</rpm>
</extensions>
</trkpt>
<trkpt lat="64.134803772" lon="-20.325044632">
<ele>74.119141</ele>
<time>2012-07-20T16:27:29Z</time>
<speed>4.580000</speed>
<extensions>
<speed>4.6</speed>
<temp>0.00</temp>
<bpm>0</bpm>
<rpm>0.00</rpm>
</extensions>
</trkpt>
<trkpt lat="64.134605408" lon="-20.324966431">
<ele>73.712891</ele>
<time>2012-07-20T16:27:34Z</time>
<speed>4.730000</speed>
<extensions>
<speed>4.7</speed>
<temp>0.00</temp>
<bpm>0</bpm>
<rpm>0.00</rpm>
</extensions>
</trkpt>
<trkpt lat="64.134384155" lon="-20.324842453">
<ele>72.962891</ele>
<time>2012-07-20T16:27:39Z</time>
<speed>5.210000</speed>
<extensions>
<speed>5.2</speed>
<temp>0.00</temp>
<bpm>0</bpm>
<rpm>0.00</rpm>
</extensions>
</trkpt>
<trkpt lat="64.134140015" lon="-20.324651718">
<ele>69.414063</ele>
<time>2012-07-20T16:27:44Z</time>
<speed>5.910000</speed>
<extensions>
<speed>5.9</speed>
<temp>0.00</temp>
<bpm>0</bpm>
<rpm>0.00</rpm>
</extensions>
</trkpt>
<trkpt lat="64.133865356" lon="-20.324405670">
<ele>66.630859</ele>
<time>2012-07-20T16:27:49Z</time>
<speed>6.940000</speed>
<extensions>
<speed>6.9</speed>
<temp>0.00</temp>
<bpm>0</bpm>
<rpm>0.00</rpm>
</extensions>
</trkpt>
<trkpt lat="64.133560181" lon="-20.324129105">
<ele>63.336914</ele>
<time>2012-07-20T16:27:54Z</time>
<speed>7.410000</speed>
<extensions>
<speed>7.4</speed>
<temp>0.00</temp>
<bpm>0</bpm>
<rpm>0.00</rpm>
</extensions>
</trkpt>
<trkpt lat="64.133255005" lon="-20.323825836">
<ele>59.034180</ele>
<time>2012-07-20T16:27:59Z</time>
<speed>7.270000</speed>
<extensions>
<speed>7.3</speed>
<temp>0.00</temp>
<bpm>0</bpm>
<rpm>0.00</rpm>
</extensions>
</trkpt>
<trkpt lat="64.132972717" lon="-20.323545456">
<ele>55.632813</ele>
<time>2012-07-20T16:28:04Z</time>
<speed>6.140000</speed>
<extensions>
<speed>6.1</speed>
<temp>0.00</temp>
<bpm>0</bpm>
<rpm>0.00</rpm>
</extensions>
</trkpt>
<trkpt lat="64.132743835" lon="-20.323333740">
<ele>56.594727</ele>
<time>2012-07-20T16:28:09Z</time>
<speed>5.100000</speed>
<extensions>
<speed>5.1</speed>
<temp>0.00</temp>
<bpm>0</bpm>
<rpm>0.00</rpm>
</extensions>
</trkpt>
<trkpt lat="64.132545471" lon="-20.323158264">
<ele>58.865234</ele>
<time>2012-07-20T16:28:14Z</time>
<speed>4.540000</speed>
<extensions>
<speed>4.5</speed>
<temp>0.00</temp>
<bpm>0</bpm>
<rpm>0.00</rpm>
</extensions>
</trkpt>
<trkpt lat="64.132392883" lon="-20.323017120">
<ele>61.202148</ele>
<time>2012-07-20T16:28:19Z</time>
<speed>2.560000</speed>
<extensions>
<speed>2.6</speed>
<temp>0.00</temp>
<bpm>0</bpm>
<rpm>0.00</rpm>
</extensions>
</trkpt>
<trkpt lat="64.132293701" lon="-20.322900772">
<ele>64.103516</ele>
<time>2012-07-20T16:28:24Z</time>
<speed>2.710000</speed>
<extensions>
<speed>2.7</speed>
<temp>0.00</temp>
<bpm>0</bpm>
<rpm>0.00</rpm>
</extensions>
</trkpt>
<trkpt lat="64.132194519" lon="-20.322834015">
<ele>67.417969</ele>
<time>2012-07-20T16:28:29Z</time>
<speed>2.080000</speed>
<extensions>
<speed>2.1</speed>
<temp>0.00</temp>
<bpm>0</bpm>
<rpm>0.00</rpm>
</extensions>
</trkpt>
<trkpt lat="64.132118225" lon="-20.322742462">
<ele>67.001953</ele>
<time>2012-07-20T16:28:34Z</time>
<speed>1.940000</speed>
<extensions>
<speed>1.9</speed>
<temp>0.00</temp>
<bpm>0</bpm>
<rpm>0.00</rpm>
</extensions>
</trkpt>
<trkpt lat="64.132034302" lon="-20.322669983">
<ele>69.306641</ele>
<time>2012-07-20T16:28:39Z</time>
<speed>2.270000</speed>
<extensions>
<speed>2.3</speed>
<temp>0.00</temp>
<bpm>0</bpm>
<rpm>0.00</rpm>
</extensions>
</trkpt>
<trkpt lat="64.131942749" lon="-20.322591782">
<ele>68.251953</ele>
<time>2012-07-20T16:28:44Z</time>
<speed>2.260000</speed>
<extensions>
<speed>2.3</speed>
<temp>0.00</temp>
<bpm>0</bpm>
<rpm>0.00</rpm>
</extensions>
</trkpt>
<trkpt lat="64.131843567" lon="-20.322498322">
<ele>70.380859</ele>
<time>2012-07-20T16:28:49Z</time>
<speed>2.300000</speed>
<extensions>
<speed>2.3</speed>
<temp>0.00</temp>
<bpm>0</bpm>
<rpm>0.00</rpm>
</extensions>
</trkpt>
<trkpt lat="64.131752014" lon="-20.322422028">
<ele>71.451172</ele>
<time>2012-07-20T16:28:54Z</time>
<speed>2.150000</speed>
<extensions>
<speed>2.1</speed>
<temp>0.00</temp>
<bpm>0</bpm>
<rpm>0.00</rpm>
</extensions>
</trkpt>
<trkpt lat="64.131660461" lon="-20.322351456">
<ele>73.982422</ele>
<time>2012-07-20T16:28:59Z</time>
<speed>1.460000</speed>
<extensions>
<speed>1.5</speed>
<temp>0.00</temp>
<bpm>0</bpm>
<rpm>0.00</rpm>
</extensions>
</trkpt>
<trkpt lat="64.131584167" lon="-20.322286606">
<ele>75.390625</ele>
<time>2012-07-20T16:29:04Z</time>
<speed>2.270000</speed>
<extensions>
<speed>2.3</speed>
<temp>0.00</temp>
<bpm>0</bpm>
<rpm>0.00</rpm>
</extensions>
</trkpt>
<trkpt lat="64.131500244" lon="-20.322216034">
<ele>75.828125</ele>
<time>2012-07-20T16:29:09Z</time>
<speed>2.010000</speed>
<extensions>
<speed>2.0</speed>
<temp>0.00</temp>
<bpm>0</bpm>
<rpm>0.00</rpm>
</extensions>
</trkpt>
<trkpt lat="64.131408691" lon="-20.322135925">
<ele>77.460938</ele>
<time>2012-07-20T16:29:14Z</time>
<speed>2.150000</speed>
<extensions>
<speed>2.1</speed>
<temp>0.00</temp>
<bpm>0</bpm>
<rpm>0.00</rpm>
</extensions>
</trkpt>
<trkpt lat="64.131324768" lon="-20.322031021">
<ele>77.388672</ele>
<time>2012-07-20T16:29:19Z</time>
<speed>2.300000</speed>
<extensions>
<speed>2.3</speed>
<temp>0.00</temp>
<bpm>0</bpm>
<rpm>0.00</rpm>
</extensions>
</trkpt>
<trkpt lat="64.131233215" lon="-20.321935654">
<ele>78.591797</ele>
<time>2012-07-20T16:29:24Z</time>
<speed>1.750000</speed>
<extensions>
<speed>1.8</speed>
<temp>0.00</temp>
<bpm>0</bpm>
<rpm>0.00</rpm>
</extensions>
</trkpt>
<trkpt lat="64.131141663" lon="-20.321849823">
<ele>79.029297</ele>
<time>2012-07-20T16:29:29Z</time>
<speed>2.550000</speed>
<extensions>
<speed>2.6</speed>
<temp>0.00</temp>
<bpm>0</bpm>
<rpm>0.00</rpm>
</extensions>
</trkpt>
<trkpt lat="64.131027222" lon="-20.321758270">
<ele>78.980469</ele>
<time>2012-07-20T16:29:34Z</time>
<speed>2.360000</speed>
<extensions>
<speed>2.4</speed>
<temp>0.00</temp>
<bpm>0</bpm>
<rpm>0.00</rpm>
</extensions>
</trkpt>
<trkpt lat="64.130950928" lon="-20.321687698">
<ele>78.564453</ele>
<time>2012-07-20T16:29:39Z</time>
<speed>0.910000</speed>
<extensions>
<speed>0.9</speed>
<temp>0.00</temp>
<bpm>0</bpm>
<rpm>0.00</rpm>
</extensions>
</trkpt>
<trkpt lat="64.130935669" lon="-20.321533203">
<ele>80.500000</ele>
<time>2012-07-20T16:29:44Z</time>
<speed>1.970000</speed>
<extensions>
<speed>2.0</speed>
<temp>0.00</temp>
<bpm>0</bpm>
<rpm>0.00</rpm>
</extensions>
</trkpt>
<trkpt lat="64.130950928" lon="-20.321435928">
<ele>82.708984</ele>
<time>2012-07-20T16:29:49Z</time>
<speed>0.130000</speed>
<extensions>
<speed>0.1</speed>
<temp>0.00</temp>
<bpm>0</bpm>
<rpm>0.00</rpm>
</extensions>
</trkpt>
<trkpt lat="64.130958557" lon="-20.321445465">
<ele>82.789063</ele>
<time>2012-07-20T16:29:54Z</time>
<speed>0.030000</speed>
<extensions>
<speed>0.0</speed>
<temp>0.00</temp>
<bpm>0</bpm>
<rpm>0.00</rpm>
</extensions>
</trkpt>
<trkpt lat="64.130958557" lon="-20.321445465">
<ele>82.732422</ele>
<time>2012-07-20T16:29:59Z</time>
<extensions>
<speed>0.0</speed>
<temp>0.00</temp>
<bpm>0</bpm>
<rpm>0.00</rpm>
</extensions>
</trkpt>
<trkpt lat="64.130958557" lon="-20.321445465">
<ele>82.732422</ele>
<time>2012-07-20T16:30:04Z</time>
<speed>0.010000</speed>
<extensions>
<speed>0.0</speed>
<temp>0.00</temp>
<bpm>0</bpm>
<rpm>0.00</rpm>
</extensions>
</trkpt>
<trkpt lat="64.130958557" lon="-20.321455002">
<ele>83.214844</ele>
<time>2012-07-20T16:30:09Z</time>
<speed>0.040000</speed>
<extensions>
<speed>0.0</speed>
<temp>0.00</temp>
<bpm>0</bpm>
<rpm>0.00</rpm>
</extensions>
</trkpt>
<trkpt lat="64.130958557" lon="-20.321455002">
<ele>83.357422</ele>
<time>2012-07-20T16:30:14Z</time>
<speed>0.010000</speed>
<extensions>
<speed>0.0</speed>
<temp>0.00</temp>
<bpm>0</bpm>
<rpm>0.00</rpm>
</extensions>
</trkpt>
<trkpt lat="64.130958557" lon="-20.321449280">
<ele>83.330078</ele>
<time>2012-07-20T16:30:19Z</time>
<speed>0.490000</speed>
<extensions>
<speed>0.5</speed>
<temp>0.00</temp>
<bpm>0</bpm>
<rpm>0.00</rpm>
</extensions>
</trkpt>
<trkpt lat="64.130958557" lon="-20.321416855">
<ele>83.283203</ele>
<time>2012-07-20T16:30:24Z</time>
<speed>0.480000</speed>
<extensions>
<speed>0.5</speed>
<temp>0.00</temp>
<bpm>0</bpm>
<rpm>0.00</rpm>
</extensions>
</trkpt>
<trkpt lat="64.130943298" lon="-20.321376801">
<ele>83.251953</ele>
<time>2012-07-20T16:30:29Z</time>
<speed>0.300000</speed>
<extensions>
<speed>0.3</speed>
<temp>0.00</temp>
<bpm>0</bpm>
<rpm>0.00</rpm>
</extensions>
</trkpt>
<trkpt lat="64.130935669" lon="-20.321363449">
<ele>83.306641</ele>
<time>2012-07-20T16:30:34Z</time>
<speed>0.450000</speed>
<extensions>
<speed>0.5</speed>
<temp>0.00</temp>
<bpm>0</bpm>
<rpm>0.00</rpm>
</extensions>
</trkpt>
<trkpt lat="64.130928040" lon="-20.321359634">
<ele>83.296875</ele>
<time>2012-07-20T16:30:39Z</time>
<speed>0.040000</speed>
<extensions>
<speed>0.0</speed>
<temp>0.00</temp>
<bpm>0</bpm>
<rpm>0.00</rpm>
</extensions>
</trkpt>
<trkpt lat="64.130928040" lon="-20.321363449">
<ele>83.275391</ele>
<time>2012-07-20T16:30:44Z</time>
<speed>0.050000</speed>
<extensions>
<speed>0.1</speed>
<temp>0.00</temp>
<bpm>0</bpm>
<rpm>0.00</rpm>
</extensions>
</trkpt>
<trkpt lat="64.130928040" lon="-20.321359634">
<ele>83.281250</ele>
<time>2012-07-20T16:30:49Z</time>
<speed>0.050000</speed>
<extensions>
<speed>0.1</speed>
<temp>0.00</temp>
<bpm>0</bpm>
<rpm>0.00</rpm>
</extensions>
</trkpt>
<trkpt lat="64.130928040" lon="-20.321355820">
<ele>83.222656</ele>
<time>2012-07-20T16:30:54Z</time>
<speed>0.020000</speed>
<extensions>
<speed>0.0</speed>
<temp>0.00</temp>
<bpm>0</bpm>
<rpm>0.00</rpm>
</extensions>
</trkpt>
<trkpt lat="64.130928040" lon="-20.321355820">
<ele>83.218750</ele>
<time>2012-07-20T16:30:59Z</time>
<speed>0.060000</speed>
<extensions>
<speed>0.1</speed>
<temp>0.00</temp>
<bpm>0</bpm>
<rpm>0.00</rpm>
</extensions>
</trkpt>
<trkpt lat="64.130928040" lon="-20.321355820">
<ele>83.216797</ele>
<time>2012-07-20T16:31:04Z</time>
<speed>0.010000</speed>
<extensions>
<speed>0.0</speed>
<temp>0.00</temp>
<bpm>0</bpm>
<rpm>0.00</rpm>
</extensions>
</trkpt>
<trkpt lat="64.130928040" lon="-20.321353912">
<ele>83.214844</ele>
<time>2012-07-20T16:31:09Z</time>
<speed>0.010000</speed>
<extensions>
<speed>0.0</speed>
<temp>0.00</temp>
<bpm>0</bpm>
<rpm>0.00</rpm>
</extensions>
</trkpt>
<trkpt lat="64.130928040" lon="-20.321355820">
<ele>83.220703</ele>
<time>2012-07-20T16:31:14Z</time>
<extensions>
<speed>0.0</speed>
<temp>0.00</temp>
<bpm>0</bpm>
<rpm>0.00</rpm>
</extensions>
</trkpt>
<trkpt lat="64.130928040" lon="-20.321353912">
<ele>83.207031</ele>
<time>2012-07-20T16:31:19Z</time>
<extensions>
<speed>0.0</speed>
<temp>0.00</temp>
<bpm>0</bpm>
<rpm>0.00</rpm>
</extensions>
</trkpt>
<trkpt lat="64.130928040" lon="-20.321353912">
<ele>83.179688</ele>
<time>2012-07-20T16:31:24Z</time>
<extensions>
<speed>0.0</speed>
<temp>0.00</temp>
<bpm>0</bpm>
<rpm>0.00</rpm>
</extensions>
</trkpt>
<trkpt lat="64.130928040" lon="-20.321357727">
<ele>83.343750</ele>
<time>2012-07-20T16:31:29Z</time>
<speed>0.020000</speed>
<extensions>
<speed>0.0</speed>
<temp>0.00</temp>
<bpm>0</bpm>
<rpm>0.00</rpm>
</extensions>
</trkpt>
<trkpt lat="64.130928040" lon="-20.321357727">
<ele>83.343750</ele>
<time>2012-07-20T16:31:34Z</time>
<speed>0.050000</speed>
<extensions>
<speed>0.1</speed>
<temp>0.00</temp>
<bpm>0</bpm>
<rpm>0.00</rpm>
</extensions>
</trkpt>
<trkpt lat="64.130928040" lon="-20.321359634">
<ele>83.335938</ele>
<time>2012-07-20T16:31:39Z</time>
<speed>0.030000</speed>
<extensions>
<speed>0.0</speed>
<temp>0.00</temp>
<bpm>0</bpm>
<rpm>0.00</rpm>
</extensions>
</trkpt>
<trkpt lat="64.130928040" lon="-20.321359634">
<ele>83.291016</ele>
<time>2012-07-20T16:31:44Z</time>
<speed>0.010000</speed>
<extensions>
<speed>0.0</speed>
<temp>0.00</temp>
<bpm>0</bpm>
<rpm>0.00</rpm>
</extensions>
</trkpt>
<trkpt lat="64.130928040" lon="-20.321357727">
<ele>83.302734</ele>
<time>2012-07-20T16:31:49Z</time>
<extensions>
<speed>0.0</speed>
<temp>0.00</temp>
<bpm>0</bpm>
<rpm>0.00</rpm>
</extensions>
</trkpt>
<trkpt lat="64.130928040" lon="-20.321357727">
<ele>83.302734</ele>
<time>2012-07-20T16:31:54Z</time>
<extensions>
<speed>0.0</speed>
<temp>0.00</temp>
<bpm>0</bpm>
<rpm>0.00</rpm>
</extensions>
</trkpt>
<trkpt lat="64.130928040" lon="-20.321357727">
<ele>83.312500</ele>
<time>2012-07-20T16:31:59Z</time>
<extensions>
<speed>0.0</speed>
<temp>0.00</temp>
<bpm>0</bpm>
<rpm>0.00</rpm>
</extensions>
</trkpt>
<trkpt lat="64.130928040" lon="-20.321357727">
<ele>83.316406</ele>
<time>2012-07-20T16:32:04Z</time>
<speed>0.010000</speed>
<extensions>
<speed>0.0</speed>
<temp>0.00</temp>
<bpm>0</bpm>
<rpm>0.00</rpm>
</extensions>
</trkpt>
<trkpt lat="64.130928040" lon="-20.321357727">
<ele>83.320313</ele>
<time>2012-07-20T16:32:09Z</time>
<speed>0.020000</speed>
<extensions>
<speed>0.0</speed>
<temp>0.00</temp>
<bpm>0</bpm>
<rpm>0.00</rpm>
</extensions>
</trkpt>
<trkpt lat="64.130928040" lon="-20.321357727">
<ele>83.300781</ele>
<time>2012-07-20T16:32:14Z</time>
<extensions>
<speed>0.0</speed>
<temp>0.00</temp>
<bpm>0</bpm>
<rpm>0.00</rpm>
</extensions>
</trkpt>
<trkpt lat="64.130928040" lon="-20.321357727">
<ele>83.285156</ele>
<time>2012-07-20T16:32:19Z</time>
<speed>0.010000</speed>
<extensions>
<speed>0.0</speed>
<temp>0.00</temp>
<bpm>0</bpm>
<rpm>0.00</rpm>
</extensions>
</trkpt>
<trkpt lat="64.130928040" lon="-20.321357727">
<ele>83.281250</ele>
<time>2012-07-20T16:32:24Z</time>
<speed>0.010000</speed>
<extensions>
<speed>0.0</speed>
<temp>0.00</temp>
<bpm>0</bpm>
<rpm>0.00</rpm>
</extensions>
</trkpt>
<trkpt lat="64.130928040" lon="-20.321357727">
<ele>83.279297</ele>
<time>2012-07-20T16:32:29Z</time>
<speed>0.010000</speed>
<extensions>
<speed>0.0</speed>
<temp>0.00</temp>
<bpm>0</bpm>
<rpm>0.00</rpm>
</extensions>
</trkpt>
<trkpt lat="64.130928040" lon="-20.321357727">
<ele>83.248047</ele>
<time>2012-07-20T16:32:34Z</time>
<speed>0.050000</speed>
<extensions>
<speed>0.1</speed>
<temp>0.00</temp>
<bpm>0</bpm>
<rpm>0.00</rpm>
</extensions>
</trkpt>
<trkpt lat="64.130928040" lon="-20.321359634">
<ele>83.230469</ele>
<time>2012-07-20T16:32:39Z</time>
<speed>0.010000</speed>
<extensions>
<speed>0.0</speed>
<temp>0.00</temp>
<bpm>0</bpm>
<rpm>0.00</rpm>
</extensions>
</trkpt>
<trkpt lat="64.130928040" lon="-20.321357727">
<ele>83.205078</ele>
<time>2012-07-20T16:32:44Z</time>
<speed>0.010000</speed>
<extensions>
<speed>0.0</speed>
<temp>0.00</temp>
<bpm>0</bpm>
<rpm>0.00</rpm>
</extensions>
</trkpt>
<trkpt lat="64.130928040" lon="-20.321357727">
<ele>83.189453</ele>
<time>2012-07-20T16:32:49Z</time>
<speed>0.010000</speed>
<extensions>
<speed>0.0</speed>
<temp>0.00</temp>
<bpm>0</bpm>
<rpm>0.00</rpm>
</extensions>
</trkpt>
<trkpt lat="64.130928040" lon="-20.321357727">
<ele>83.152344</ele>
<time>2012-07-20T16:32:54Z</time>
<speed>0.010000</speed>
<extensions>
<speed>0.0</speed>
<temp>0.00</temp>
<bpm>0</bpm>
<rpm>0.00</rpm>
</extensions>
</trkpt>
<trkpt lat="64.130928040" lon="-20.321357727">
<ele>83.132813</ele>
<time>2012-07-20T16:32:59Z</time>
<speed>0.010000</speed>
<extensions>
<speed>0.0</speed>
<temp>0.00</temp>
<bpm>0</bpm>
<rpm>0.00</rpm>
</extensions>
</trkpt>
<trkpt lat="64.130928040" lon="-20.321355820">
<ele>83.097656</ele>
<time>2012-07-20T16:33:04Z</time>
<speed>0.020000</speed>
<extensions>
<speed>0.0</speed>
<temp>0.00</temp>
<bpm>0</bpm>
<rpm>0.00</rpm>
</extensions>
</trkpt>
<trkpt lat="64.130928040" lon="-20.321355820">
<ele>83.085938</ele>
<time>2012-07-20T16:33:09Z</time>
<speed>0.010000</speed>
<extensions>
<speed>0.0</speed>
<temp>0.00</temp>
<bpm>0</bpm>
<rpm>0.00</rpm>
</extensions>
</trkpt>
<trkpt lat="64.130928040" lon="-20.321353912">
<ele>83.052734</ele>
<time>2012-07-20T16:33:14Z</time>
<speed>0.030000</speed>
<extensions>
<speed>0.0</speed>
<temp>0.00</temp>
<bpm>0</bpm>
<rpm>0.00</rpm>
</extensions>
</trkpt>
<trkpt lat="64.130928040" lon="-20.321353912">
<ele>83.035156</ele>
<time>2012-07-20T16:33:19Z</time>
<speed>0.010000</speed>
<extensions>
<speed>0.0</speed>
<temp>0.00</temp>
<bpm>0</bpm>
<rpm>0.00</rpm>
</extensions>
</trkpt>
<trkpt lat="64.130928040" lon="-20.321353912">
<ele>83.005859</ele>
<time>2012-07-20T16:33:24Z</time>
<speed>0.010000</speed>
<extensions>
<speed>0.0</speed>
<temp>0.00</temp>
<bpm>0</bpm>
<rpm>0.00</rpm>
</extensions>
</trkpt>
<trkpt lat="64.130928040" lon="-20.321352005">
<ele>82.994141</ele>
<time>2012-07-20T16:33:29Z</time>
<extensions>
<speed>0.0</speed>
<temp>0.00</temp>
<bpm>0</bpm>
<rpm>0.00</rpm>
</extensions>
</trkpt>
<trkpt lat="64.130928040" lon="-20.321352005">
<ele>82.988281</ele>
<time>2012-07-20T16:33:34Z</time>
<extensions>
<speed>0.0</speed>
<temp>0.00</temp>
<bpm>0</bpm>
<rpm>0.00</rpm>
</extensions>
</trkpt>
<trkpt lat="64.130928040" lon="-20.321352005">
<ele>82.968750</ele>
<time>2012-07-20T16:33:39Z</time>
<extensions>
<speed>0.0</speed>
<temp>0.00</temp>
<bpm>0</bpm>
<rpm>0.00</rpm>
</extensions>
</trkpt>
<trkpt lat="64.130928040" lon="-20.321352005">
<ele>82.958984</ele>
<time>2012-07-20T16:33:44Z</time>
<speed>0.010000</speed>
<extensions>
<speed>0.0</speed>
<temp>0.00</temp>
<bpm>0</bpm>
<rpm>0.00</rpm>
</extensions>
</trkpt>
<trkpt lat="64.130928040" lon="-20.321352005">
<ele>82.935547</ele>
<time>2012-07-20T16:33:49Z</time>
<extensions>
<speed>0.0</speed>
<temp>0.00</temp>
<bpm>0</bpm>
<rpm>0.00</rpm>
</extensions>
</trkpt>
<trkpt lat="64.130928040" lon="-20.321353912">
<ele>82.923828</ele>
<time>2012-07-20T16:33:54Z</time>
<speed>0.010000</speed>
<extensions>
<speed>0.0</speed>
<temp>0.00</temp>
<bpm>0</bpm>
<rpm>0.00</rpm>
</extensions>
</trkpt>
<trkpt lat="64.130928040" lon="-20.321353912">
<ele>82.916016</ele>
<time>2012-07-20T16:33:59Z</time>
<speed>0.030000</speed>
<extensions>
<speed>0.0</speed>
<temp>0.00</temp>
<bpm>0</bpm>
<rpm>0.00</rpm>
</extensions>
</trkpt>
<trkpt lat="64.130928040" lon="-20.321353912">
<ele>82.906250</ele>
<time>2012-07-20T16:34:04Z</time>
<speed>0.010000</speed>
<extensions>
<speed>0.0</speed>
<temp>0.00</temp>
<bpm>0</bpm>
<rpm>0.00</rpm>
</extensions>
</trkpt>
<trkpt lat="64.130928040" lon="-20.321353912">
<ele>82.900391</ele>
<time>2012-07-20T16:34:09Z</time>
<extensions>
<speed>0.0</speed>
<temp>0.00</temp>
<bpm>0</bpm>
<rpm>0.00</rpm>
</extensions>
</trkpt>
<trkpt lat="64.130928040" lon="-20.321353912">
<ele>82.892578</ele>
<time>2012-07-20T16:34:14Z</time>
<speed>0.010000</speed>
<extensions>
<speed>0.0</speed>
<temp>0.00</temp>
<bpm>0</bpm>
<rpm>0.00</rpm>
</extensions>
</trkpt>
<trkpt lat="64.130928040" lon="-20.321353912">
<ele>82.894531</ele>
<time>2012-07-20T16:34:19Z</time>
<speed>0.010000</speed>
<extensions>
<speed>0.0</speed>
<temp>0.00</temp>
<bpm>0</bpm>
<rpm>0.00</rpm>
</extensions>
</trkpt>
<trkpt lat="64.130928040" lon="-20.321353912">
<ele>82.912109</ele>
<time>2012-07-20T16:34:24Z</time>
<extensions>
<speed>0.0</speed>
<temp>0.00</temp>
<bpm>0</bpm>
<rpm>0.00</rpm>
</extensions>
</trkpt>
<trkpt lat="64.130928040" lon="-20.321353912">
<ele>82.931641</ele>
<time>2012-07-20T16:34:29Z</time>
<speed>0.030000</speed>
<extensions>
<speed>0.0</speed>
<temp>0.00</temp>
<bpm>0</bpm>
<rpm>0.00</rpm>
</extensions>
</trkpt>
<trkpt lat="64.130928040" lon="-20.321353912">
<ele>82.953125</ele>
<time>2012-07-20T16:34:34Z</time>
<extensions>
<speed>0.0</speed>
<temp>0.00</temp>
<bpm>0</bpm>
<rpm>0.00</rpm>
</extensions>
</trkpt>
<trkpt lat="64.130928040" lon="-20.321353912">
<ele>82.966797</ele>
<time>2012-07-20T16:34:39Z</time>
<speed>0.020000</speed>
<extensions>
<speed>0.0</speed>
<temp>0.00</temp>
<bpm>0</bpm>
<rpm>0.00</rpm>
</extensions>
</trkpt>
<trkpt lat="64.130928040" lon="-20.321353912">
<ele>82.951172</ele>
<time>2012-07-20T16:34:44Z</time>
<speed>0.010000</speed>
<extensions>
<speed>0.0</speed>
<temp>0.00</temp>
<bpm>0</bpm>
<rpm>0.00</rpm>
</extensions>
</trkpt>
<trkpt lat="64.130928040" lon="-20.321353912">
<ele>82.951172</ele>
<time>2012-07-20T16:34:49Z</time>
<speed>0.010000</speed>
<extensions>
<speed>0.0</speed>
<temp>0.00</temp>
<bpm>0</bpm>
<rpm>0.00</rpm>
</extensions>
</trkpt>
<trkpt lat="64.130928040" lon="-20.321353912">
<ele>82.968750</ele>
<time>2012-07-20T16:34:54Z</time>
<speed>0.010000</speed>
<extensions>
<speed>0.0</speed>
<temp>0.00</temp>
<bpm>0</bpm>
<rpm>0.00</rpm>
</extensions>
</trkpt>
<trkpt lat="64.130928040" lon="-20.321353912">
<ele>82.966797</ele>
<time>2012-07-20T16:34:59Z</time>
<extensions>
<speed>0.0</speed>
<temp>0.00</temp>
<bpm>0</bpm>
<rpm>0.00</rpm>
</extensions>
</trkpt>
<trkpt lat="64.130928040" lon="-20.321353912">
<ele>82.968750</ele>
<time>2012-07-20T16:35:04Z</time>
<extensions>
<speed>0.0</speed>
<temp>0.00</temp>
<bpm>0</bpm>
<rpm>0.00</rpm>
</extensions>
</trkpt>
<trkpt lat="64.130928040" lon="-20.321352005">
<ele>82.974609</ele>
<time>2012-07-20T16:35:09Z</time>
<speed>0.010000</speed>
<extensions>
<speed>0.0</speed>
<temp>0.00</temp>
<bpm>0</bpm>
<rpm>0.00</rpm>
</extensions>
</trkpt>
<trkpt lat="64.130928040" lon="-20.321352005">
<ele>82.984375</ele>
<time>2012-07-20T16:35:14Z</time>
<extensions>
<speed>0.0</speed>
<temp>0.00</temp>
<bpm>0</bpm>
<rpm>0.00</rpm>
</extensions>
</trkpt>
<trkpt lat="64.130928040" lon="-20.321352005">
<ele>83.001953</ele>
<time>2012-07-20T16:35:19Z</time>
<speed>0.010000</speed>
<extensions>
<speed>0.0</speed>
<temp>0.00</temp>
<bpm>0</bpm>
<rpm>0.00</rpm>
</extensions>
</trkpt>
<trkpt lat="64.130928040" lon="-20.321352005">
<ele>83.001953</ele>
<time>2012-07-20T16:35:24Z</time>
<speed>0.010000</speed>
<extensions>
<speed>0.0</speed>
<temp>0.00</temp>
<bpm>0</bpm>
<rpm>0.00</rpm>
</extensions>
</trkpt>
<trkpt lat="64.130928040" lon="-20.321352005">
<ele>82.996094</ele>
<time>2012-07-20T16:35:29Z</time>
<speed>0.010000</speed>
<extensions>
<speed>0.0</speed>
<temp>0.00</temp>
<bpm>0</bpm>
<rpm>0.00</rpm>
</extensions>
</trkpt>
<trkpt lat="64.130928040" lon="-20.321350098">
<ele>82.994141</ele>
<time>2012-07-20T16:35:34Z</time>
<extensions>
<speed>0.0</speed>
<temp>0.00</temp>
<bpm>0</bpm>
<rpm>0.00</rpm>
</extensions>
</trkpt>
<trkpt lat="64.130928040" lon="-20.321350098">
<ele>82.994141</ele>
<time>2012-07-20T16:35:39Z</time>
<extensions>
<speed>0.0</speed>
<temp>0.00</temp>
<bpm>0</bpm>
<rpm>0.00</rpm>
</extensions>
</trkpt>
<trkpt lat="64.130928040" lon="-20.321350098">
<ele>82.984375</ele>
<time>2012-07-20T16:35:44Z</time>
<extensions>
<speed>0.0</speed>
<temp>0.00</temp>
<bpm>0</bpm>
<rpm>0.00</rpm>
</extensions>
</trkpt>
<trkpt lat="64.130928040" lon="-20.321350098">
<ele>82.958984</ele>
<time>2012-07-20T16:35:49Z</time>
<speed>0.420000</speed>
<extensions>
<speed>0.4</speed>
<temp>0.00</temp>
<bpm>0</bpm>
<rpm>0.00</rpm>
</extensions>
</trkpt>
<trkpt lat="64.130928040" lon="-20.321342468">
<ele>82.447266</ele>
<time>2012-07-20T16:35:54Z</time>
<speed>0.040000</speed>
<extensions>
<speed>0.0</speed>
<temp>0.00</temp>
<bpm>0</bpm>
<rpm>0.00</rpm>
</extensions>
</trkpt>
<trkpt lat="64.130928040" lon="-20.321340561">
<ele>82.359375</ele>
<time>2012-07-20T16:35:59Z</time>
<speed>0.020000</speed>
<extensions>
<speed>0.0</speed>
<temp>0.00</temp>
<bpm>0</bpm>
<rpm>0.00</rpm>
</extensions>
</trkpt>
<trkpt lat="64.130928040" lon="-20.321340561">
<ele>82.359375</ele>
<time>2012-07-20T16:36:04Z</time>
<speed>0.670000</speed>
<extensions>
<speed>0.7</speed>
<temp>0.00</temp>
<bpm>0</bpm>
<rpm>0.00</rpm>
</extensions>
</trkpt>
<trkpt lat="64.130928040" lon="-20.321315765">
<ele>82.257813</ele>
<time>2012-07-20T16:36:09Z</time>
<speed>0.010000</speed>
<extensions>
<speed>0.0</speed>
<temp>0.00</temp>
<bpm>0</bpm>
<rpm>0.00</rpm>
</extensions>
</trkpt>
<trkpt lat="64.130928040" lon="-20.321315765">
<ele>82.263672</ele>
<time>2012-07-20T16:36:14Z</time>
<extensions>
<speed>0.0</speed>
<temp>0.00</temp>
<bpm>0</bpm>
<rpm>0.00</rpm>
</extensions>
</trkpt>
<trkpt lat="64.130928040" lon="-20.321313858">
<ele>82.277344</ele>
<time>2012-07-20T16:36:19Z</time>
<extensions>
<speed>0.0</speed>
<temp>0.00</temp>
<bpm>0</bpm>
<rpm>0.00</rpm>
</extensions>
</trkpt>
<trkpt lat="64.130928040" lon="-20.321313858">
<ele>82.292969</ele>
<time>2012-07-20T16:36:24Z</time>
<extensions>
<speed>0.0</speed>
<temp>0.00</temp>
<bpm>0</bpm>
<rpm>0.00</rpm>
</extensions>
</trkpt>
<trkpt lat="64.130928040" lon="-20.321315765">
<ele>82.302734</ele>
<time>2012-07-20T16:36:29Z</time>
<speed>0.010000</speed>
<extensions>
<speed>0.0</speed>
<temp>0.00</temp>
<bpm>0</bpm>
<rpm>0.00</rpm>
</extensions>
</trkpt>
<trkpt lat="64.130928040" lon="-20.321315765">
<ele>82.347656</ele>
<time>2012-07-20T16:36:34Z</time>
<extensions>
<speed>0.0</speed>
<temp>0.00</temp>
<bpm>0</bpm>
<rpm>0.00</rpm>
</extensions>
</trkpt>
<trkpt lat="64.130928040" lon="-20.321313858">
<ele>82.359375</ele>
<time>2012-07-20T16:36:39Z</time>
<extensions>
<speed>0.0</speed>
<temp>0.00</temp>
<bpm>0</bpm>
<rpm>0.00</rpm>
</extensions>
</trkpt>
<trkpt lat="64.130928040" lon="-20.321313858">
<ele>82.369141</ele>
<time>2012-07-20T16:36:44Z</time>
<extensions>
<speed>0.0</speed>
<temp>0.00</temp>
<bpm>0</bpm>
<rpm>0.00</rpm>
</extensions>
</trkpt>
<trkpt lat="64.130928040" lon="-20.321313858">
<ele>82.375000</ele>
<time>2012-07-20T16:36:49Z</time>
<speed>0.010000</speed>
<extensions>
<speed>0.0</speed>
<temp>0.00</temp>
<bpm>0</bpm>
<rpm>0.00</rpm>
</extensions>
</trkpt>
<trkpt lat="64.130928040" lon="-20.321313858">
<ele>82.384766</ele>
<time>2012-07-20T16:36:54Z</time>
<extensions>
<speed>0.0</speed>
<temp>0.00</temp>
<bpm>0</bpm>
<rpm>0.00</rpm>
</extensions>
</trkpt>
<trkpt lat="64.130928040" lon="-20.321311951">
<ele>82.398438</ele>
<time>2012-07-20T16:36:59Z</time>
<speed>0.090000</speed>
<extensions>
<speed>0.1</speed>
<temp>0.00</temp>
<bpm>0</bpm>
<rpm>0.00</rpm>
</extensions>
</trkpt>
<trkpt lat="64.130928040" lon="-20.321311951">
<ele>82.408203</ele>
<time>2012-07-20T16:37:04Z</time>
<extensions>
<speed>0.0</speed>
<temp>0.00</temp>
<bpm>0</bpm>
<rpm>0.00</rpm>
</extensions>
</trkpt>
<trkpt lat="64.130928040" lon="-20.321311951">
<ele>82.400391</ele>
<time>2012-07-20T16:37:09Z</time>
<extensions>
<speed>0.0</speed>
<temp>0.00</temp>
<bpm>0</bpm>
<rpm>0.00</rpm>
</extensions>
</trkpt>
<trkpt lat="64.130928040" lon="-20.321311951">
<ele>82.378906</ele>
<time>2012-07-20T16:37:14Z</time>
<extensions>
<speed>0.0</speed>
<temp>0.00</temp>
<bpm>0</bpm>
<rpm>0.00</rpm>
</extensions>
</trkpt>
<trkpt lat="64.130928040" lon="-20.321311951">
<ele>82.376953</ele>
<time>2012-07-20T16:37:19Z</time>
<extensions>
<speed>0.0</speed>
<temp>0.00</temp>
<bpm>0</bpm>
<rpm>0.00</rpm>
</extensions>
</trkpt>
<trkpt lat="64.130928040" lon="-20.321310043">
<ele>82.382813</ele>
<time>2012-07-20T16:37:24Z</time>
<extensions>
<speed>0.0</speed>
<temp>0.00</temp>
<bpm>0</bpm>
<rpm>0.00</rpm>
</extensions>
</trkpt>
<trkpt lat="64.130928040" lon="-20.321310043">
<ele>82.384766</ele>
<time>2012-07-20T16:37:29Z</time>
<extensions>
<speed>0.0</speed>
<temp>0.00</temp>
<bpm>0</bpm>
<rpm>0.00</rpm>
</extensions>
</trkpt>
<trkpt lat="64.130928040" lon="-20.321310043">
<ele>82.388672</ele>
<time>2012-07-20T16:37:34Z</time>
<speed>0.010000</speed>
<extensions>
<speed>0.0</speed>
<temp>0.00</temp>
<bpm>0</bpm>
<rpm>0.00</rpm>
</extensions>
</trkpt>
<trkpt lat="64.130928040" lon="-20.321310043">
<ele>82.390625</ele>
<time>2012-07-20T16:37:39Z</time>
<speed>0.010000</speed>
<extensions>
<speed>0.0</speed>
<temp>0.00</temp>
<bpm>0</bpm>
<rpm>0.00</rpm>
</extensions>
</trkpt>
<trkpt lat="64.130928040" lon="-20.321310043">
<ele>82.402344</ele>
<time>2012-07-20T16:37:44Z</time>
<extensions>
<speed>0.0</speed>
<temp>0.00</temp>
<bpm>0</bpm>
<rpm>0.00</rpm>
</extensions>
</trkpt>
<trkpt lat="64.130928040" lon="-20.321310043">
<ele>82.412109</ele>
<time>2012-07-20T16:37:49Z</time>
<speed>0.020000</speed>
<extensions>
<speed>0.0</speed>
<temp>0.00</temp>
<bpm>0</bpm>
<rpm>0.00</rpm>
</extensions>
</trkpt>
<trkpt lat="64.130928040" lon="-20.321310043">
<ele>82.408203</ele>
<time>2012-07-20T16:37:54Z</time>
<extensions>
<speed>0.0</speed>
<temp>0.00</temp>
<bpm>0</bpm>
<rpm>0.00</rpm>
</extensions>
</trkpt>
<trkpt lat="64.130928040" lon="-20.321311951">
<ele>82.406250</ele>
<time>2012-07-20T16:37:59Z</time>
<speed>0.020000</speed>
<extensions>
<speed>0.0</speed>
<temp>0.00</temp>
<bpm>0</bpm>
<rpm>0.00</rpm>
</extensions>
</trkpt>
<trkpt lat="64.130928040" lon="-20.321311951">
<ele>82.410156</ele>
<time>2012-07-20T16:38:04Z</time>
<speed>0.010000</speed>
<extensions>
<speed>0.0</speed>
<temp>0.00</temp>
<bpm>0</bpm>
<rpm>0.00</rpm>
</extensions>
</trkpt>
<trkpt lat="64.130928040" lon="-20.321311951">
<ele>82.419922</ele>
<time>2012-07-20T16:38:09Z</time>
<speed>0.010000</speed>
<extensions>
<speed>0.0</speed>
<temp>0.00</temp>
<bpm>0</bpm>
<rpm>0.00</rpm>
</extensions>
</trkpt>
<trkpt lat="64.130928040" lon="-20.321311951">
<ele>82.421875</ele>
<time>2012-07-20T16:38:14Z</time>
<speed>0.010000</speed>
<extensions>
<speed>0.0</speed>
<temp>0.00</temp>
<bpm>0</bpm>
<rpm>0.00</rpm>
</extensions>
</trkpt>
<trkpt lat="64.130928040" lon="-20.321311951">
<ele>82.439453</ele>
<time>2012-07-20T16:38:19Z</time>
<extensions>
<speed>0.0</speed>
<temp>0.00</temp>
<bpm>0</bpm>
<rpm>0.00</rpm>
</extensions>
</trkpt>
<trkpt lat="64.130928040" lon="-20.321313858">
<ele>82.447266</ele>
<time>2012-07-20T16:38:24Z</time>
<extensions>
<speed>0.0</speed>
<temp>0.00</temp>
<bpm>0</bpm>
<rpm>0.00</rpm>
</extensions>
</trkpt>
<trkpt lat="64.130928040" lon="-20.321313858">
<ele>82.458984</ele>
<time>2012-07-20T16:38:29Z</time>
<speed>0.020000</speed>
<extensions>
<speed>0.0</speed>
<temp>0.00</temp>
<bpm>0</bpm>
<rpm>0.00</rpm>
</extensions>
</trkpt>
<trkpt lat="64.130928040" lon="-20.321311951">
<ele>82.462891</ele>
<time>2012-07-20T16:38:34Z</time>
<speed>0.010000</speed>
<extensions>
<speed>0.0</speed>
<temp>0.00</temp>
<bpm>0</bpm>
<rpm>0.00</rpm>
</extensions>
</trkpt>
<trkpt lat="64.130928040" lon="-20.321311951">
<ele>82.472656</ele>
<time>2012-07-20T16:38:39Z</time>
<speed>0.020000</speed>
<extensions>
<speed>0.0</speed>
<temp>0.00</temp>
<bpm>0</bpm>
<rpm>0.00</rpm>
</extensions>
</trkpt>
<trkpt lat="64.130928040" lon="-20.321311951">
<ele>82.472656</ele>
<time>2012-07-20T16:38:44Z</time>
<speed>0.010000</speed>
<extensions>
<speed>0.0</speed>
<temp>0.00</temp>
<bpm>0</bpm>
<rpm>0.00</rpm>
</extensions>
</trkpt>
<trkpt lat="64.130928040" lon="-20.321310043">
<ele>82.457031</ele>
<time>2012-07-20T16:38:49Z</time>
<speed>0.010000</speed>
<extensions>
<speed>0.0</speed>
<temp>0.00</temp>
<bpm>0</bpm>
<rpm>0.00</rpm>
</extensions>
</trkpt>
<trkpt lat="64.130928040" lon="-20.321310043">
<ele>82.439453</ele>
<time>2012-07-20T16:38:54Z</time>
<extensions>
<speed>0.0</speed>
<temp>0.00</temp>
<bpm>0</bpm>
<rpm>0.00</rpm>
</extensions>
</trkpt>
<trkpt lat="64.130928040" lon="-20.321308136">
<ele>82.417969</ele>
<time>2012-07-20T16:38:59Z</time>
<extensions>
<speed>0.0</speed>
<temp>0.00</temp>
<bpm>0</bpm>
<rpm>0.00</rpm>
</extensions>
</trkpt>
<trkpt lat="64.130928040" lon="-20.321308136">
<ele>82.398438</ele>
<time>2012-07-20T16:39:04Z</time>
<extensions>
<speed>0.0</speed>
<temp>0.00</temp>
<bpm>0</bpm>
<rpm>0.00</rpm>
</extensions>
</trkpt>
<trkpt lat="64.130928040" lon="-20.321308136">
<ele>82.371094</ele>
<time>2012-07-20T16:39:09Z</time>
<extensions>
<speed>0.0</speed>
<temp>0.00</temp>
<bpm>0</bpm>
<rpm>0.00</rpm>
</extensions>
</trkpt>
<trkpt lat="64.130928040" lon="-20.321308136">
<ele>82.365234</ele>
<time>2012-07-20T16:39:14Z</time>
<extensions>
<speed>0.0</speed>
<temp>0.00</temp>
<bpm>0</bpm>
<rpm>0.00</rpm>
</extensions>
</trkpt>
<trkpt lat="64.130928040" lon="-20.321308136">
<ele>82.333984</ele>
<time>2012-07-20T16:39:19Z</time>
<extensions>
<speed>0.0</speed>
<temp>0.00</temp>
<bpm>0</bpm>
<rpm>0.00</rpm>
</extensions>
</trkpt>
<trkpt lat="64.130928040" lon="-20.321308136">
<ele>82.318359</ele>
<time>2012-07-20T16:39:24Z</time>
<extensions>
<speed>0.0</speed>
<temp>0.00</temp>
<bpm>0</bpm>
<rpm>0.00</rpm>
</extensions>
</trkpt>
<trkpt lat="64.130928040" lon="-20.321306229">
<ele>82.304688</ele>
<time>2012-07-20T16:39:29Z</time>
<extensions>
<speed>0.0</speed>
<temp>0.00</temp>
<bpm>0</bpm>
<rpm>0.00</rpm>
</extensions>
</trkpt>
<trkpt lat="64.130928040" lon="-20.321306229">
<ele>82.298828</ele>
<time>2012-07-20T16:39:34Z</time>
<speed>0.020000</speed>
<extensions>
<speed>0.0</speed>
<temp>0.00</temp>
<bpm>0</bpm>
<rpm>0.00</rpm>
</extensions>
</trkpt>
<trkpt lat="64.130928040" lon="-20.321306229">
<ele>82.308594</ele>
<time>2012-07-20T16:39:39Z</time>
<speed>0.030000</speed>
<extensions>
<speed>0.0</speed>
<temp>0.00</temp>
<bpm>0</bpm>
<rpm>0.00</rpm>
</extensions>
</trkpt>
<trkpt lat="64.130928040" lon="-20.321306229">
<ele>82.333984</ele>
<time>2012-07-20T16:39:44Z</time>
<speed>0.010000</speed>
<extensions>
<speed>0.0</speed>
<temp>0.00</temp>
<bpm>0</bpm>
<rpm>0.00</rpm>
</extensions>
</trkpt>
<trkpt lat="64.130928040" lon="-20.321304321">
<ele>82.314453</ele>
<time>2012-07-20T16:39:49Z</time>
<speed>0.020000</speed>
<extensions>
<speed>0.0</speed>
<temp>0.00</temp>
<bpm>0</bpm>
<rpm>0.00</rpm>
</extensions>
</trkpt>
<trkpt lat="64.130928040" lon="-20.321302414">
<ele>82.300781</ele>
<time>2012-07-20T16:39:54Z</time>
<extensions>
<speed>0.0</speed>
<temp>0.00</temp>
<bpm>0</bpm>
<rpm>0.00</rpm>
</extensions>
</trkpt>
<trkpt lat="64.130928040" lon="-20.321302414">
<ele>82.320313</ele>
<time>2012-07-20T16:39:59Z</time>
<speed>0.010000</speed>
<extensions>
<speed>0.0</speed>
<temp>0.00</temp>
<bpm>0</bpm>
<rpm>0.00</rpm>
</extensions>
</trkpt>
<trkpt lat="64.130928040" lon="-20.321302414">
<ele>82.314453</ele>
<time>2012-07-20T16:40:04Z</time>
<extensions>
<speed>0.0</speed>
<temp>0.00</temp>
<bpm>0</bpm>
<rpm>0.00</rpm>
</extensions>
</trkpt>
<trkpt lat="64.130928040" lon="-20.321302414">
<ele>82.318359</ele>
<time>2012-07-20T16:40:09Z</time>
<extensions>
<speed>0.0</speed>
<temp>0.00</temp>
<bpm>0</bpm>
<rpm>0.00</rpm>
</extensions>
</trkpt>
<trkpt lat="64.130928040" lon="-20.321300507">
<ele>82.341797</ele>
<time>2012-07-20T16:40:14Z</time>
<speed>0.020000</speed>
<extensions>
<speed>0.0</speed>
<temp>0.00</temp>
<bpm>0</bpm>
<rpm>0.00</rpm>
</extensions>
</trkpt>
<trkpt lat="64.130928040" lon="-20.321300507">
<ele>82.333984</ele>
<time>2012-07-20T16:40:19Z</time>
<speed>0.010000</speed>
<extensions>
<speed>0.0</speed>
<temp>0.00</temp>
<bpm>0</bpm>
<rpm>0.00</rpm>
</extensions>
</trkpt>
<trkpt lat="64.130928040" lon="-20.321300507">
<ele>82.318359</ele>
<time>2012-07-20T16:40:24Z</time>
<speed>0.020000</speed>
<extensions>
<speed>0.0</speed>
<temp>0.00</temp>
<bpm>0</bpm>
<rpm>0.00</rpm>
</extensions>
</trkpt>
<trkpt lat="64.130928040" lon="-20.321300507">
<ele>82.316406</ele>
<time>2012-07-20T16:40:29Z</time>
<speed>0.010000</speed>
<extensions>
<speed>0.0</speed>
<temp>0.00</temp>
<bpm>0</bpm>
<rpm>0.00</rpm>
</extensions>
</trkpt>
<trkpt lat="64.130928040" lon="-20.321300507">
<ele>82.318359</ele>
<time>2012-07-20T16:40:34Z</time>
<speed>0.010000</speed>
<extensions>
<speed>0.0</speed>
<temp>0.00</temp>
<bpm>0</bpm>
<rpm>0.00</rpm>
</extensions>
</trkpt>
<trkpt lat="64.130928040" lon="-20.321300507">
<ele>82.314453</ele>
<time>2012-07-20T16:40:39Z</time>
<speed>0.010000</speed>
<extensions>
<speed>0.0</speed>
<temp>0.00</temp>
<bpm>0</bpm>
<rpm>0.00</rpm>
</extensions>
</trkpt>
<trkpt lat="64.130920410" lon="-20.321300507">
<ele>82.332031</ele>
<time>2012-07-20T16:40:44Z</time>
<speed>0.020000</speed>
<extensions>
<speed>0.0</speed>
<temp>0.00</temp>
<bpm>0</bpm>
<rpm>0.00</rpm>
</extensions>
</trkpt>
<trkpt lat="64.130920410" lon="-20.321300507">
<ele>82.343750</ele>
<time>2012-07-20T16:40:49Z</time>
<extensions>
<speed>0.0</speed>
<temp>0.00</temp>
<bpm>0</bpm>
<rpm>0.00</rpm>
</extensions>
</trkpt>
<trkpt lat="64.130920410" lon="-20.321298599">
<ele>82.351563</ele>
<time>2012-07-20T16:40:54Z</time>
<extensions>
<speed>0.0</speed>
<temp>0.00</temp>
<bpm>0</bpm>
<rpm>0.00</rpm>
</extensions>
</trkpt>
<trkpt lat="64.130920410" lon="-20.321298599">
<ele>82.367188</ele>
<time>2012-07-20T16:40:59Z</time>
<speed>0.010000</speed>
<extensions>
<speed>0.0</speed>
<temp>0.00</temp>
<bpm>0</bpm>
<rpm>0.00</rpm>
</extensions>
</trkpt>
<trkpt lat="64.130920410" lon="-20.321298599">
<ele>82.359375</ele>
<time>2012-07-20T16:41:04Z</time>
<extensions>
<speed>0.0</speed>
<temp>0.00</temp>
<bpm>0</bpm>
<rpm>0.00</rpm>
</extensions>
</trkpt>
<trkpt lat="64.130920410" lon="-20.321298599">
<ele>82.345703</ele>
<time>2012-07-20T16:41:09Z</time>
<extensions>
<speed>0.0</speed>
<temp>0.00</temp>
<bpm>0</bpm>
<rpm>0.00</rpm>
</extensions>
</trkpt>
<trkpt lat="64.130920410" lon="-20.321298599">
<ele>82.322266</ele>
<time>2012-07-20T16:41:14Z</time>
<extensions>
<speed>0.0</speed>
<temp>0.00</temp>
<bpm>0</bpm>
<rpm>0.00</rpm>
</extensions>
</trkpt>
<trkpt lat="64.130920410" lon="-20.321296692">
<ele>82.322266</ele>
<time>2012-07-20T16:41:19Z</time>
<speed>0.030000</speed>
<extensions>
<speed>0.0</speed>
<temp>0.00</temp>
<bpm>0</bpm>
<rpm>0.00</rpm>
</extensions>
</trkpt>
<trkpt lat="64.130920410" lon="-20.321298599">
<ele>82.296875</ele>
<time>2012-07-20T16:41:24Z</time>
<speed>0.020000</speed>
<extensions>
<speed>0.0</speed>
<temp>0.00</temp>
<bpm>0</bpm>
<rpm>0.00</rpm>
</extensions>
</trkpt>
<trkpt lat="64.130920410" lon="-20.321298599">
<ele>82.269531</ele>
<time>2012-07-20T16:41:29Z</time>
<speed>0.010000</speed>
<extensions>
<speed>0.0</speed>
<temp>0.00</temp>
<bpm>0</bpm>
<rpm>0.00</rpm>
</extensions>
</trkpt>
<trkpt lat="64.130920410" lon="-20.321298599">
<ele>82.250000</ele>
<time>2012-07-20T16:41:34Z</time>
<speed>0.020000</speed>
<extensions>
<speed>0.0</speed>
<temp>0.00</temp>
<bpm>0</bpm>
<rpm>0.00</rpm>
</extensions>
</trkpt>
<trkpt lat="64.130920410" lon="-20.321298599">
<ele>82.240234</ele>
<time>2012-07-20T16:41:39Z</time>
<extensions>
<speed>0.0</speed>
<temp>0.00</temp>
<bpm>0</bpm>
<rpm>0.00</rpm>
</extensions>
</trkpt>
<trkpt lat="64.130920410" lon="-20.321298599">
<ele>82.238281</ele>
<time>2012-07-20T16:41:44Z</time>
<speed>0.010000</speed>
<extensions>
<speed>0.0</speed>
<temp>0.00</temp>
<bpm>0</bpm>
<rpm>0.00</rpm>
</extensions>
</trkpt>
<trkpt lat="64.130920410" lon="-20.321298599">
<ele>82.255859</ele>
<time>2012-07-20T16:41:49Z</time>
<extensions>
<speed>0.0</speed>
<temp>0.00</temp>
<bpm>0</bpm>
<rpm>0.00</rpm>
</extensions>
</trkpt>
<trkpt lat="64.130920410" lon="-20.321298599">
<ele>82.250000</ele>
<time>2012-07-20T16:41:54Z</time>
<extensions>
<speed>0.0</speed>
<temp>0.00</temp>
<bpm>0</bpm>
<rpm>0.00</rpm>
</extensions>
</trkpt>
<trkpt lat="64.130920410" lon="-20.321296692">
<ele>82.251953</ele>
<time>2012-07-20T16:41:59Z</time>
<speed>0.010000</speed>
<extensions>
<speed>0.0</speed>
<temp>0.00</temp>
<bpm>0</bpm>
<rpm>0.00</rpm>
</extensions>
</trkpt>
<trkpt lat="64.130920410" lon="-20.321296692">
<ele>82.251953</ele>
<time>2012-07-20T16:42:04Z</time>
<extensions>
<speed>0.0</speed>
<temp>0.00</temp>
<bpm>0</bpm>
<rpm>0.00</rpm>
</extensions>
</trkpt>
<trkpt lat="64.130920410" lon="-20.321296692">
<ele>82.253906</ele>
<time>2012-07-20T16:42:09Z</time>
<speed>0.020000</speed>
<extensions>
<speed>0.0</speed>
<temp>0.00</temp>
<bpm>0</bpm>
<rpm>0.00</rpm>
</extensions>
</trkpt>
<trkpt lat="64.130920410" lon="-20.321296692">
<ele>82.257813</ele>
<time>2012-07-20T16:42:14Z</time>
<extensions>
<speed>0.0</speed>
<temp>0.00</temp>
<bpm>0</bpm>
<rpm>0.00</rpm>
</extensions>
</trkpt>
<trkpt lat="64.130920410" lon="-20.321296692">
<ele>82.244141</ele>
<time>2012-07-20T16:42:19Z</time>
<speed>0.020000</speed>
<extensions>
<speed>0.0</speed>
<temp>0.00</temp>
<bpm>0</bpm>
<rpm>0.00</rpm>
</extensions>
</trkpt>
<trkpt lat="64.130920410" lon="-20.321296692">
<ele>82.236328</ele>
<time>2012-07-20T16:42:24Z</time>
<speed>0.020000</speed>
<extensions>
<speed>0.0</speed>
<temp>0.00</temp>
<bpm>0</bpm>
<rpm>0.00</rpm>
</extensions>
</trkpt>
<trkpt lat="64.130920410" lon="-20.321296692">
<ele>82.228516</ele>
<time>2012-07-20T16:42:29Z</time>
<speed>0.010000</speed>
<extensions>
<speed>0.0</speed>
<temp>0.00</temp>
<bpm>0</bpm>
<rpm>0.00</rpm>
</extensions>
</trkpt>
<trkpt lat="64.130920410" lon="-20.321296692">
<ele>82.208984</ele>
<time>2012-07-20T16:42:34Z</time>
<speed>0.030000</speed>
<extensions>
<speed>0.0</speed>
<temp>0.00</temp>
<bpm>0</bpm>
<rpm>0.00</rpm>
</extensions>
</trkpt>
<trkpt lat="64.130920410" lon="-20.321296692">
<ele>82.197266</ele>
<time>2012-07-20T16:42:39Z</time>
<extensions>
<speed>0.0</speed>
<temp>0.00</temp>
<bpm>0</bpm>
<rpm>0.00</rpm>
</extensions>
</trkpt>
<trkpt lat="64.130920410" lon="-20.321298599">
<ele>82.179688</ele>
<time>2012-07-20T16:42:44Z</time>
<speed>0.010000</speed>
<extensions>
<speed>0.0</speed>
<temp>0.00</temp>
<bpm>0</bpm>
<rpm>0.00</rpm>
</extensions>
</trkpt>
<trkpt lat="64.130920410" lon="-20.321298599">
<ele>82.152344</ele>
<time>2012-07-20T16:42:49Z</time>
<speed>0.010000</speed>
<extensions>
<speed>0.0</speed>
<temp>0.00</temp>
<bpm>0</bpm>
<rpm>0.00</rpm>
</extensions>
</trkpt>
<trkpt lat="64.130920410" lon="-20.321298599">
<ele>82.134766</ele>
<time>2012-07-20T16:42:54Z</time>
<speed>0.010000</speed>
<extensions>
<speed>0.0</speed>
<temp>0.00</temp>
<bpm>0</bpm>
<rpm>0.00</rpm>
</extensions>
</trkpt>
<trkpt lat="64.130920410" lon="-20.321298599">
<ele>82.142578</ele>
<time>2012-07-20T16:42:59Z</time>
<extensions>
<speed>0.0</speed>
<temp>0.00</temp>
<bpm>0</bpm>
<rpm>0.00</rpm>
</extensions>
</trkpt>
<trkpt lat="64.130920410" lon="-20.321298599">
<ele>82.142578</ele>
<time>2012-07-20T16:43:04Z</time>
<speed>0.010000</speed>
<extensions>
<speed>0.0</speed>
<temp>0.00</temp>
<bpm>0</bpm>
<rpm>0.00</rpm>
</extensions>
</trkpt>
<trkpt lat="64.130920410" lon="-20.321296692">
<ele>82.152344</ele>
<time>2012-07-20T16:43:09Z</time>
<speed>0.010000</speed>
<extensions>
<speed>0.0</speed>
<temp>0.00</temp>
<bpm>0</bpm>
<rpm>0.00</rpm>
</extensions>
</trkpt>
<trkpt lat="64.130920410" lon="-20.321296692">
<ele>82.166016</ele>
<time>2012-07-20T16:43:14Z</time>
<extensions>
<speed>0.0</speed>
<temp>0.00</temp>
<bpm>0</bpm>
<rpm>0.00</rpm>
</extensions>
</trkpt>
<trkpt lat="64.130920410" lon="-20.321294785">
<ele>82.142578</ele>
<time>2012-07-20T16:43:19Z</time>
<speed>0.010000</speed>
<extensions>
<speed>0.0</speed>
<temp>0.00</temp>
<bpm>0</bpm>
<rpm>0.00</rpm>
</extensions>
</trkpt>
<trkpt lat="64.130920410" lon="-20.321294785">
<ele>82.132813</ele>
<time>2012-07-20T16:43:24Z</time>
<speed>0.010000</speed>
<extensions>
<speed>0.0</speed>
<temp>0.00</temp>
<bpm>0</bpm>
<rpm>0.00</rpm>
</extensions>
</trkpt>
<trkpt lat="64.130920410" lon="-20.321294785">
<ele>82.121094</ele>
<time>2012-07-20T16:43:29Z</time>
<speed>0.010000</speed>
<extensions>
<speed>0.0</speed>
<temp>0.00</temp>
<bpm>0</bpm>
<rpm>0.00</rpm>
</extensions>
</trkpt>
<trkpt lat="64.130920410" lon="-20.321294785">
<ele>82.130859</ele>
<time>2012-07-20T16:43:34Z</time>
<speed>0.010000</speed>
<extensions>
<speed>0.0</speed>
<temp>0.00</temp>
<bpm>0</bpm>
<rpm>0.00</rpm>
</extensions>
</trkpt>
<trkpt lat="64.130920410" lon="-20.321294785">
<ele>82.125000</ele>
<time>2012-07-20T16:43:39Z</time>
<speed>0.010000</speed>
<extensions>
<speed>0.0</speed>
<temp>0.00</temp>
<bpm>0</bpm>
<rpm>0.00</rpm>
</extensions>
</trkpt>
<trkpt lat="64.130920410" lon="-20.321292877">
<ele>82.119141</ele>
<time>2012-07-20T16:43:44Z</time>
<speed>0.030000</speed>
<extensions>
<speed>0.0</speed>
<temp>0.00</temp>
<bpm>0</bpm>
<rpm>0.00</rpm>
</extensions>
</trkpt>
<trkpt lat="64.130920410" lon="-20.321290970">
<ele>82.105469</ele>
<time>2012-07-20T16:43:49Z</time>
<speed>0.030000</speed>
<extensions>
<speed>0.0</speed>
<temp>0.00</temp>
<bpm>0</bpm>
<rpm>0.00</rpm>
</extensions>
</trkpt>
<trkpt lat="64.130920410" lon="-20.321290970">
<ele>82.087891</ele>
<time>2012-07-20T16:43:54Z</time>
<speed>0.010000</speed>
<extensions>
<speed>0.0</speed>
<temp>0.00</temp>
<bpm>0</bpm>
<rpm>0.00</rpm>
</extensions>
</trkpt>
<trkpt lat="64.130920410" lon="-20.321289063">
<ele>82.072266</ele>
<time>2012-07-20T16:43:59Z</time>
<speed>0.040000</speed>
<extensions>
<speed>0.0</speed>
<temp>0.00</temp>
<bpm>0</bpm>
<rpm>0.00</rpm>
</extensions>
</trkpt>
<trkpt lat="64.130920410" lon="-20.321289063">
<ele>82.056641</ele>
<time>2012-07-20T16:44:04Z</time>
<speed>0.010000</speed>
<extensions>
<speed>0.0</speed>
<temp>0.00</temp>
<bpm>0</bpm>
<rpm>0.00</rpm>
</extensions>
</trkpt>
<trkpt lat="64.130920410" lon="-20.321290970">
<ele>82.044922</ele>
<time>2012-07-20T16:44:09Z</time>
<speed>0.030000</speed>
<extensions>
<speed>0.0</speed>
<temp>0.00</temp>
<bpm>0</bpm>
<rpm>0.00</rpm>
</extensions>
</trkpt>
<trkpt lat="64.130920410" lon="-20.321290970">
<ele>82.031250</ele>
<time>2012-07-20T16:44:14Z</time>
<speed>0.030000</speed>
<extensions>
<speed>0.0</speed>
<temp>0.00</temp>
<bpm>0</bpm>
<rpm>0.00</rpm>
</extensions>
</trkpt>
<trkpt lat="64.130920410" lon="-20.321292877">
<ele>82.005859</ele>
<time>2012-07-20T16:44:19Z</time>
<speed>0.010000</speed>
<extensions>
<speed>0.0</speed>
<temp>0.00</temp>
<bpm>0</bpm>
<rpm>0.00</rpm>
</extensions>
</trkpt>
<trkpt lat="64.130920410" lon="-20.321292877">
<ele>82.007813</ele>
<time>2012-07-20T16:44:24Z</time>
<extensions>
<speed>0.0</speed>
<temp>0.00</temp>
<bpm>0</bpm>
<rpm>0.00</rpm>
</extensions>
</trkpt>
<trkpt lat="64.130920410" lon="-20.321292877">
<ele>81.996094</ele>
<time>2012-07-20T16:44:29Z</time>
<speed>0.030000</speed>
<extensions>
<speed>0.0</speed>
<temp>0.00</temp>
<bpm>0</bpm>
<rpm>0.00</rpm>
</extensions>
</trkpt>
<trkpt lat="64.130920410" lon="-20.321292877">
<ele>81.990234</ele>
<time>2012-07-20T16:44:34Z</time>
<speed>0.010000</speed>
<extensions>
<speed>0.0</speed>
<temp>0.00</temp>
<bpm>0</bpm>
<rpm>0.00</rpm>
</extensions>
</trkpt>
<trkpt lat="64.130920410" lon="-20.321294785">
<ele>81.978516</ele>
<time>2012-07-20T16:44:39Z</time>
<speed>0.010000</speed>
<extensions>
<speed>0.0</speed>
<temp>0.00</temp>
<bpm>0</bpm>
<rpm>0.00</rpm>
</extensions>
</trkpt>
<trkpt lat="64.130920410" lon="-20.321294785">
<ele>81.960938</ele>
<time>2012-07-20T16:44:44Z</time>
<speed>0.030000</speed>
<extensions>
<speed>0.0</speed>
<temp>0.00</temp>
<bpm>0</bpm>
<rpm>0.00</rpm>
</extensions>
</trkpt>
<trkpt lat="64.130920410" lon="-20.321294785">
<ele>81.923828</ele>
<time>2012-07-20T16:44:49Z</time>
<extensions>
<speed>0.0</speed>
<temp>0.00</temp>
<bpm>0</bpm>
<rpm>0.00</rpm>
</extensions>
</trkpt>
<trkpt lat="64.130920410" lon="-20.321296692">
<ele>81.890625</ele>
<time>2012-07-20T16:44:54Z</time>
<extensions>
<speed>0.0</speed>
<temp>0.00</temp>
<bpm>0</bpm>
<rpm>0.00</rpm>
</extensions>
</trkpt>
<trkpt lat="64.130920410" lon="-20.321294785">
<ele>81.853516</ele>
<time>2012-07-20T16:44:59Z</time>
<extensions>
<speed>0.0</speed>
<temp>0.00</temp>
<bpm>0</bpm>
<rpm>0.00</rpm>
</extensions>
</trkpt>
<trkpt lat="64.130920410" lon="-20.321296692">
<ele>81.830078</ele>
<time>2012-07-20T16:45:04Z</time>
<speed>0.010000</speed>
<extensions>
<speed>0.0</speed>
<temp>0.00</temp>
<bpm>0</bpm>
<rpm>0.00</rpm>
</extensions>
</trkpt>
<trkpt lat="64.130920410" lon="-20.321296692">
<ele>81.822266</ele>
<time>2012-07-20T16:45:09Z</time>
<speed>0.010000</speed>
<extensions>
<speed>0.0</speed>
<temp>0.00</temp>
<bpm>0</bpm>
<rpm>0.00</rpm>
</extensions>
</trkpt>
<trkpt lat="64.130920410" lon="-20.321296692">
<ele>81.822266</ele>
<time>2012-07-20T16:45:14Z</time>
<speed>0.020000</speed>
<extensions>
<speed>0.0</speed>
<temp>0.00</temp>
<bpm>0</bpm>
<rpm>0.00</rpm>
</extensions>
</trkpt>
<trkpt lat="64.130920410" lon="-20.321296692">
<ele>81.800781</ele>
<time>2012-07-20T16:45:19Z</time>
<speed>0.010000</speed>
<extensions>
<speed>0.0</speed>
<temp>0.00</temp>
<bpm>0</bpm>
<rpm>0.00</rpm>
</extensions>
</trkpt>
<trkpt lat="64.130920410" lon="-20.321296692">
<ele>81.738281</ele>
<time>2012-07-20T16:45:24Z</time>
<extensions>
<speed>0.0</speed>
<temp>0.00</temp>
<bpm>0</bpm>
<rpm>0.00</rpm>
</extensions>
</trkpt>
<trkpt lat="64.130920410" lon="-20.321296692">
<ele>81.718750</ele>
<time>2012-07-20T16:45:29Z</time>
<extensions>
<speed>0.0</speed>
<temp>0.00</temp>
<bpm>0</bpm>
<rpm>0.00</rpm>
</extensions>
</trkpt>
<trkpt lat="64.130920410" lon="-20.321296692">
<ele>81.699219</ele>
<time>2012-07-20T16:45:34Z</time>
<speed>0.010000</speed>
<extensions>
<speed>0.0</speed>
<temp>0.00</temp>
<bpm>0</bpm>
<rpm>0.00</rpm>
</extensions>
</trkpt>
<trkpt lat="64.130920410" lon="-20.321296692">
<ele>81.699219</ele>
<time>2012-07-20T16:45:39Z</time>
<speed>0.010000</speed>
<extensions>
<speed>0.0</speed>
<temp>0.00</temp>
<bpm>0</bpm>
<rpm>0.00</rpm>
</extensions>
</trkpt>
<trkpt lat="64.130920410" lon="-20.321296692">
<ele>81.701172</ele>
<time>2012-07-20T16:45:44Z</time>
<extensions>
<speed>0.0</speed>
<temp>0.00</temp>
<bpm>0</bpm>
<rpm>0.00</rpm>
</extensions>
</trkpt>
<trkpt lat="64.130920410" lon="-20.321296692">
<ele>81.677734</ele>
<time>2012-07-20T16:45:49Z</time>
<extensions>
<speed>0.0</speed>
<temp>0.00</temp>
<bpm>0</bpm>
<rpm>0.00</rpm>
</extensions>
</trkpt>
<trkpt lat="64.130920410" lon="-20.321296692">
<ele>81.640625</ele>
<time>2012-07-20T16:45:54Z</time>
<extensions>
<speed>0.0</speed>
<temp>0.00</temp>
<bpm>0</bpm>
<rpm>0.00</rpm>
</extensions>
</trkpt>
<trkpt lat="64.130920410" lon="-20.321296692">
<ele>81.625000</ele>
<time>2012-07-20T16:45:59Z</time>
<extensions>
<speed>0.0</speed>
<temp>0.00</temp>
<bpm>0</bpm>
<rpm>0.00</rpm>
</extensions>
</trkpt>
<trkpt lat="64.130920410" lon="-20.321296692">
<ele>81.595703</ele>
<time>2012-07-20T16:46:04Z</time>
<extensions>
<speed>0.0</speed>
<temp>0.00</temp>
<bpm>0</bpm>
<rpm>0.00</rpm>
</extensions>
</trkpt>
<trkpt lat="64.130920410" lon="-20.321296692">
<ele>81.576172</ele>
<time>2012-07-20T16:46:09Z</time>
<extensions>
<speed>0.0</speed>
<temp>0.00</temp>
<bpm>0</bpm>
<rpm>0.00</rpm>
</extensions>
</trkpt>
<trkpt lat="64.130920410" lon="-20.321296692">
<ele>81.566406</ele>
<time>2012-07-20T16:46:14Z</time>
<speed>0.010000</speed>
<extensions>
<speed>0.0</speed>
<temp>0.00</temp>
<bpm>0</bpm>
<rpm>0.00</rpm>
</extensions>
</trkpt>
<trkpt lat="64.130920410" lon="-20.321296692">
<ele>81.552734</ele>
<time>2012-07-20T16:46:19Z</time>
<extensions>
<speed>0.0</speed>
<temp>0.00</temp>
<bpm>0</bpm>
<rpm>0.00</rpm>
</extensions>
</trkpt>
<trkpt lat="64.130920410" lon="-20.321296692">
<ele>81.541016</ele>
<time>2012-07-20T16:46:24Z</time>
<extensions>
<speed>0.0</speed>
<temp>0.00</temp>
<bpm>0</bpm>
<rpm>0.00</rpm>
</extensions>
</trkpt>
<trkpt lat="64.130920410" lon="-20.321294785">
<ele>81.533203</ele>
<time>2012-07-20T16:46:29Z</time>
<speed>0.010000</speed>
<extensions>
<speed>0.0</speed>
<temp>0.00</temp>
<bpm>0</bpm>
<rpm>0.00</rpm>
</extensions>
</trkpt>
<trkpt lat="64.130920410" lon="-20.321294785">
<ele>81.521484</ele>
<time>2012-07-20T16:46:34Z</time>
<speed>0.010000</speed>
<extensions>
<speed>0.0</speed>
<temp>0.00</temp>
<bpm>0</bpm>
<rpm>0.00</rpm>
</extensions>
</trkpt>
<trkpt lat="64.130920410" lon="-20.321294785">
<ele>81.509766</ele>
<time>2012-07-20T16:46:39Z</time>
<extensions>
<speed>0.0</speed>
<temp>0.00</temp>
<bpm>0</bpm>
<rpm>0.00</rpm>
</extensions>
</trkpt>
<trkpt lat="64.130920410" lon="-20.321294785">
<ele>81.498047</ele>
<time>2012-07-20T16:46:44Z</time>
<speed>0.010000</speed>
<extensions>
<speed>0.0</speed>
<temp>0.00</temp>
<bpm>0</bpm>
<rpm>0.00</rpm>
</extensions>
</trkpt>
<trkpt lat="64.130920410" lon="-20.321294785">
<ele>81.490234</ele>
<time>2012-07-20T16:46:49Z</time>
<extensions>
<speed>0.0</speed>
<temp>0.00</temp>
<bpm>0</bpm>
<rpm>0.00</rpm>
</extensions>
</trkpt>
<trkpt lat="64.130920410" lon="-20.321294785">
<ele>81.478516</ele>
<time>2012-07-20T16:46:54Z</time>
<extensions>
<speed>0.0</speed>
<temp>0.00</temp>
<bpm>0</bpm>
<rpm>0.00</rpm>
</extensions>
</trkpt>
<trkpt lat="64.130920410" lon="-20.321294785">
<ele>81.470703</ele>
<time>2012-07-20T16:46:59Z</time>
<speed>0.010000</speed>
<extensions>
<speed>0.0</speed>
<temp>0.00</temp>
<bpm>0</bpm>
<rpm>0.00</rpm>
</extensions>
</trkpt>
<trkpt lat="64.130920410" lon="-20.321294785">
<ele>81.453125</ele>
<time>2012-07-20T16:47:04Z</time>
<extensions>
<speed>0.0</speed>
<temp>0.00</temp>
<bpm>0</bpm>
<rpm>0.00</rpm>
</extensions>
</trkpt>
<trkpt lat="64.130920410" lon="-20.321294785">
<ele>81.435547</ele>
<time>2012-07-20T16:47:09Z</time>
<extensions>
<speed>0.0</speed>
<temp>0.00</temp>
<bpm>0</bpm>
<rpm>0.00</rpm>
</extensions>
</trkpt>
<trkpt lat="64.130920410" lon="-20.321294785">
<ele>81.417969</ele>
<time>2012-07-20T16:47:14Z</time>
<speed>0.010000</speed>
<extensions>
<speed>0.0</speed>
<temp>0.00</temp>
<bpm>0</bpm>
<rpm>0.00</rpm>
</extensions>
</trkpt>
<trkpt lat="64.130920410" lon="-20.321294785">
<ele>81.392578</ele>
<time>2012-07-20T16:47:19Z</time>
<extensions>
<speed>0.0</speed>
<temp>0.00</temp>
<bpm>0</bpm>
<rpm>0.00</rpm>
</extensions>
</trkpt>
<trkpt lat="64.130920410" lon="-20.321294785">
<ele>81.376953</ele>
<time>2012-07-20T16:47:24Z</time>
<extensions>
<speed>0.0</speed>
<temp>0.00</temp>
<bpm>0</bpm>
<rpm>0.00</rpm>
</extensions>
</trkpt>
<trkpt lat="64.130920410" lon="-20.321294785">
<ele>81.353516</ele>
<time>2012-07-20T16:47:29Z</time>
<extensions>
<speed>0.0</speed>
<temp>0.00</temp>
<bpm>0</bpm>
<rpm>0.00</rpm>
</extensions>
</trkpt>
<trkpt lat="64.130920410" lon="-20.321294785">
<ele>81.345703</ele>
<time>2012-07-20T16:47:34Z</time>
<speed>0.010000</speed>
<extensions>
<speed>0.0</speed>
<temp>0.00</temp>
<bpm>0</bpm>
<rpm>0.00</rpm>
</extensions>
</trkpt>
<trkpt lat="64.130920410" lon="-20.321294785">
<ele>81.337891</ele>
<time>2012-07-20T16:47:39Z</time>
<extensions>
<speed>0.0</speed>
<temp>0.00</temp>
<bpm>0</bpm>
<rpm>0.00</rpm>
</extensions>
</trkpt>
<trkpt lat="64.130920410" lon="-20.321294785">
<ele>81.335938</ele>
<time>2012-07-20T16:47:44Z</time>
<speed>0.010000</speed>
<extensions>
<speed>0.0</speed>
<temp>0.00</temp>
<bpm>0</bpm>
<rpm>0.00</rpm>
</extensions>
</trkpt>
<trkpt lat="64.130920410" lon="-20.321294785">
<ele>81.318359</ele>
<time>2012-07-20T16:47:49Z</time>
<speed>0.010000</speed>
<extensions>
<speed>0.0</speed>
<temp>0.00</temp>
<bpm>0</bpm>
<rpm>0.00</rpm>
</extensions>
</trkpt>
<trkpt lat="64.130920410" lon="-20.321294785">
<ele>81.291016</ele>
<time>2012-07-20T16:47:54Z</time>
<speed>0.010000</speed>
<extensions>
<speed>0.0</speed>
<temp>0.00</temp>
<bpm>0</bpm>
<rpm>0.00</rpm>
</extensions>
</trkpt>
<trkpt lat="64.130920410" lon="-20.321292877">
<ele>81.261719</ele>
<time>2012-07-20T16:47:59Z</time>
<extensions>
<speed>0.0</speed>
<temp>0.00</temp>
<bpm>0</bpm>
<rpm>0.00</rpm>
</extensions>
</trkpt>
<trkpt lat="64.130920410" lon="-20.321292877">
<ele>81.244141</ele>
<time>2012-07-20T16:48:04Z</time>
<extensions>
<speed>0.0</speed>
<temp>0.00</temp>
<bpm>0</bpm>
<rpm>0.00</rpm>
</extensions>
</trkpt>
<trkpt lat="64.130920410" lon="-20.321292877">
<ele>81.240234</ele>
<time>2012-07-20T16:48:09Z</time>
<speed>0.010000</speed>
<extensions>
<speed>0.0</speed>
<temp>0.00</temp>
<bpm>0</bpm>
<rpm>0.00</rpm>
</extensions>
</trkpt>
<trkpt lat="64.130920410" lon="-20.321292877">
<ele>81.242188</ele>
<time>2012-07-20T16:48:14Z</time>
<extensions>
<speed>0.0</speed>
<temp>0.00</temp>
<bpm>0</bpm>
<rpm>0.00</rpm>
</extensions>
</trkpt>
<trkpt lat="64.130920410" lon="-20.321292877">
<ele>81.240234</ele>
<time>2012-07-20T16:48:19Z</time>
<extensions>
<speed>0.0</speed>
<temp>0.00</temp>
<bpm>0</bpm>
<rpm>0.00</rpm>
</extensions>
</trkpt>
<trkpt lat="64.130920410" lon="-20.321292877">
<ele>81.234375</ele>
<time>2012-07-20T16:48:24Z</time>
<extensions>
<speed>0.0</speed>
<temp>0.00</temp>
<bpm>0</bpm>
<rpm>0.00</rpm>
</extensions>
</trkpt>
<trkpt lat="64.130920410" lon="-20.321292877">
<ele>81.228516</ele>
<time>2012-07-20T16:48:29Z</time>
<extensions>
<speed>0.0</speed>
<temp>0.00</temp>
<bpm>0</bpm>
<rpm>0.00</rpm>
</extensions>
</trkpt>
<trkpt lat="64.130920410" lon="-20.321292877">
<ele>81.214844</ele>
<time>2012-07-20T16:48:34Z</time>
<speed>0.010000</speed>
<extensions>
<speed>0.0</speed>
<temp>0.00</temp>
<bpm>0</bpm>
<rpm>0.00</rpm>
</extensions>
</trkpt>
<trkpt lat="64.130920410" lon="-20.321292877">
<ele>81.199219</ele>
<time>2012-07-20T16:48:39Z</time>
<speed>0.010000</speed>
<extensions>
<speed>0.0</speed>
<temp>0.00</temp>
<bpm>0</bpm>
<rpm>0.00</rpm>
</extensions>
</trkpt>
<trkpt lat="64.130920410" lon="-20.321292877">
<ele>81.185547</ele>
<time>2012-07-20T16:48:44Z</time>
<speed>0.010000</speed>
<extensions>
<speed>0.0</speed>
<temp>0.00</temp>
<bpm>0</bpm>
<rpm>0.00</rpm>
</extensions>
</trkpt>
<trkpt lat="64.130920410" lon="-20.321292877">
<ele>81.173828</ele>
<time>2012-07-20T16:48:49Z</time>
<extensions>
<speed>0.0</speed>
<temp>0.00</temp>
<bpm>0</bpm>
<rpm>0.00</rpm>
</extensions>
</trkpt>
<trkpt lat="64.130920410" lon="-20.321292877">
<ele>81.169922</ele>
<time>2012-07-20T16:48:54Z</time>
<extensions>
<speed>0.0</speed>
<temp>0.00</temp>
<bpm>0</bpm>
<rpm>0.00</rpm>
</extensions>
</trkpt>
<trkpt lat="64.130920410" lon="-20.321292877">
<ele>81.164063</ele>
<time>2012-07-20T16:48:59Z</time>
<speed>0.010000</speed>
<extensions>
<speed>0.0</speed>
<temp>0.00</temp>
<bpm>0</bpm>
<rpm>0.00</rpm>
</extensions>
</trkpt>
<trkpt lat="64.130920410" lon="-20.321292877">
<ele>81.162109</ele>
<time>2012-07-20T16:49:04Z</time>
<extensions>
<speed>0.0</speed>
<temp>0.00</temp>
<bpm>0</bpm>
<rpm>0.00</rpm>
</extensions>
</trkpt>
<trkpt lat="64.130920410" lon="-20.321292877">
<ele>81.158203</ele>
<time>2012-07-20T16:49:09Z</time>
<extensions>
<speed>0.0</speed>
<temp>0.00</temp>
<bpm>0</bpm>
<rpm>0.00</rpm>
</extensions>
</trkpt>
<trkpt lat="64.130920410" lon="-20.321292877">
<ele>81.156250</ele>
<time>2012-07-20T16:49:14Z</time>
<speed>0.010000</speed>
<extensions>
<speed>0.0</speed>
<temp>0.00</temp>
<bpm>0</bpm>
<rpm>0.00</rpm>
</extensions>
</trkpt>
<trkpt lat="64.130920410" lon="-20.321292877">
<ele>81.150391</ele>
<time>2012-07-20T16:49:19Z</time>
<speed>0.010000</speed>
<extensions>
<speed>0.0</speed>
<temp>0.00</temp>
<bpm>0</bpm>
<rpm>0.00</rpm>
</extensions>
</trkpt>
<trkpt lat="64.130920410" lon="-20.321292877">
<ele>81.146484</ele>
<time>2012-07-20T16:49:24Z</time>
<extensions>
<speed>0.0</speed>
<temp>0.00</temp>
<bpm>0</bpm>
<rpm>0.00</rpm>
</extensions>
</trkpt>
<trkpt lat="64.130920410" lon="-20.321292877">
<ele>81.138672</ele>
<time>2012-07-20T16:49:29Z</time>
<extensions>
<speed>0.0</speed>
<temp>0.00</temp>
<bpm>0</bpm>
<rpm>0.00</rpm>
</extensions>
</trkpt>
<trkpt lat="64.130920410" lon="-20.321292877">
<ele>81.126953</ele>
<time>2012-07-20T16:49:34Z</time>
<extensions>
<speed>0.0</speed>
<temp>0.00</temp>
<bpm>0</bpm>
<rpm>0.00</rpm>
</extensions>
</trkpt>
<trkpt lat="64.130920410" lon="-20.321292877">
<ele>81.123047</ele>
<time>2012-07-20T16:49:39Z</time>
<extensions>
<speed>0.0</speed>
<temp>0.00</temp>
<bpm>0</bpm>
<rpm>0.00</rpm>
</extensions>
</trkpt>
<trkpt lat="64.130920410" lon="-20.321292877">
<ele>81.121094</ele>
<time>2012-07-20T16:49:44Z</time>
<extensions>
<speed>0.0</speed>
<temp>0.00</temp>
<bpm>0</bpm>
<rpm>0.00</rpm>
</extensions>
</trkpt>
<trkpt lat="64.130920410" lon="-20.321292877">
<ele>81.115234</ele>
<time>2012-07-20T16:49:49Z</time>
<speed>0.010000</speed>
<extensions>
<speed>0.0</speed>
<temp>0.00</temp>
<bpm>0</bpm>
<rpm>0.00</rpm>
</extensions>
</trkpt>
<trkpt lat="64.130920410" lon="-20.321294785">
<ele>81.115234</ele>
<time>2012-07-20T16:49:54Z</time>
<extensions>
<speed>0.0</speed>
<temp>0.00</temp>
<bpm>0</bpm>
<rpm>0.00</rpm>
</extensions>
</trkpt>
<trkpt lat="64.130920410" lon="-20.321294785">
<ele>81.123047</ele>
<time>2012-07-20T16:49:59Z</time>
<extensions>
<speed>0.0</speed>
<temp>0.00</temp>
<bpm>0</bpm>
<rpm>0.00</rpm>
</extensions>
</trkpt>
<trkpt lat="64.130920410" lon="-20.321294785">
<ele>81.125000</ele>
<time>2012-07-20T16:50:04Z</time>
<speed>0.010000</speed>
<extensions>
<speed>0.0</speed>
<temp>0.00</temp>
<bpm>0</bpm>
<rpm>0.00</rpm>
</extensions>
</trkpt>
<trkpt lat="64.130920410" lon="-20.321294785">
<ele>81.128906</ele>
<time>2012-07-20T16:50:09Z</time>
<extensions>
<speed>0.0</speed>
<temp>0.00</temp>
<bpm>0</bpm>
<rpm>0.00</rpm>
</extensions>
</trkpt>
<trkpt lat="64.130920410" lon="-20.321294785">
<ele>81.128906</ele>
<time>2012-07-20T16:50:14Z</time>
<extensions>
<speed>0.0</speed>
<temp>0.00</temp>
<bpm>0</bpm>
<rpm>0.00</rpm>
</extensions>
</trkpt>
<trkpt lat="64.130920410" lon="-20.321294785">
<ele>81.134766</ele>
<time>2012-07-20T16:50:19Z</time>
<speed>0.010000</speed>
<extensions>
<speed>0.0</speed>
<temp>0.00</temp>
<bpm>0</bpm>
<rpm>0.00</rpm>
</extensions>
</trkpt>
<trkpt lat="64.130920410" lon="-20.321294785">
<ele>81.134766</ele>
<time>2012-07-20T16:50:24Z</time>
<extensions>
<speed>0.0</speed>
<temp>0.00</temp>
<bpm>0</bpm>
<rpm>0.00</rpm>
</extensions>
</trkpt>
<trkpt lat="64.130920410" lon="-20.321294785">
<ele>81.126953</ele>
<time>2012-07-20T16:50:29Z</time>
<extensions>
<speed>0.0</speed>
<temp>0.00</temp>
<bpm>0</bpm>
<rpm>0.00</rpm>
</extensions>
</trkpt>
<trkpt lat="64.130920410" lon="-20.321296692">
<ele>81.115234</ele>
<time>2012-07-20T16:50:34Z</time>
<extensions>
<speed>0.0</speed>
<temp>0.00</temp>
<bpm>0</bpm>
<rpm>0.00</rpm>
</extensions>
</trkpt>
<trkpt lat="64.130920410" lon="-20.321296692">
<ele>81.101563</ele>
<time>2012-07-20T16:50:39Z</time>
<extensions>
<speed>0.0</speed>
<temp>0.00</temp>
<bpm>0</bpm>
<rpm>0.00</rpm>
</extensions>
</trkpt>
<trkpt lat="64.130920410" lon="-20.321296692">
<ele>81.091797</ele>
<time>2012-07-20T16:50:44Z</time>
<extensions>
<speed>0.0</speed>
<temp>0.00</temp>
<bpm>0</bpm>
<rpm>0.00</rpm>
</extensions>
</trkpt>
<trkpt lat="64.130920410" lon="-20.321296692">
<ele>81.082031</ele>
<time>2012-07-20T16:50:49Z</time>
<speed>0.010000</speed>
<extensions>
<speed>0.0</speed>
<temp>0.00</temp>
<bpm>0</bpm>
<rpm>0.00</rpm>
</extensions>
</trkpt>
<trkpt lat="64.130920410" lon="-20.321296692">
<ele>81.078125</ele>
<time>2012-07-20T16:50:54Z</time>
<speed>0.010000</speed>
<extensions>
<speed>0.0</speed>
<temp>0.00</temp>
<bpm>0</bpm>
<rpm>0.00</rpm>
</extensions>
</trkpt>
<trkpt lat="64.130920410" lon="-20.321296692">
<ele>81.076172</ele>
<time>2012-07-20T16:50:59Z</time>
<extensions>
<speed>0.0</speed>
<temp>0.00</temp>
<bpm>0</bpm>
<rpm>0.00</rpm>
</extensions>
</trkpt>
<trkpt lat="64.130920410" lon="-20.321296692">
<ele>81.072266</ele>
<time>2012-07-20T16:51:04Z</time>
<extensions>
<speed>0.0</speed>
<temp>0.00</temp>
<bpm>0</bpm>
<rpm>0.00</rpm>
</extensions>
</trkpt>
<trkpt lat="64.130920410" lon="-20.321298599">
<ele>81.064453</ele>
<time>2012-07-20T16:51:09Z</time>
<extensions>
<speed>0.0</speed>
<temp>0.00</temp>
<bpm>0</bpm>
<rpm>0.00</rpm>
</extensions>
</trkpt>
<trkpt lat="64.130920410" lon="-20.321298599">
<ele>81.052734</ele>
<time>2012-07-20T16:51:14Z</time>
<extensions>
<speed>0.0</speed>
<temp>0.00</temp>
<bpm>0</bpm>
<rpm>0.00</rpm>
</extensions>
</trkpt>
<trkpt lat="64.130920410" lon="-20.321298599">
<ele>81.052734</ele>
<time>2012-07-20T16:51:19Z</time>
<extensions>
<speed>0.0</speed>
<temp>0.00</temp>
<bpm>0</bpm>
<rpm>0.00</rpm>
</extensions>
</trkpt>
<trkpt lat="64.130920410" lon="-20.321298599">
<ele>81.056641</ele>
<time>2012-07-20T16:51:24Z</time>
<speed>0.010000</speed>
<extensions>
<speed>0.0</speed>
<temp>0.00</temp>
<bpm>0</bpm>
<rpm>0.00</rpm>
</extensions>
</trkpt>
<trkpt lat="64.130920410" lon="-20.321300507">
<ele>81.050781</ele>
<time>2012-07-20T16:51:29Z</time>
<extensions>
<speed>0.0</speed>
<temp>0.00</temp>
<bpm>0</bpm>
<rpm>0.00</rpm>
</extensions>
</trkpt>
<trkpt lat="64.130920410" lon="-20.321300507">
<ele>81.050781</ele>
<time>2012-07-20T16:51:34Z</time>
<extensions>
<speed>0.0</speed>
<temp>0.00</temp>
<bpm>0</bpm>
<rpm>0.00</rpm>
</extensions>
</trkpt>
<trkpt lat="64.130920410" lon="-20.321300507">
<ele>81.046875</ele>
<time>2012-07-20T16:51:39Z</time>
<extensions>
<speed>0.0</speed>
<temp>0.00</temp>
<bpm>0</bpm>
<rpm>0.00</rpm>
</extensions>
</trkpt>
<trkpt lat="64.130920410" lon="-20.321300507">
<ele>81.033203</ele>
<time>2012-07-20T16:51:44Z</time>
<speed>0.010000</speed>
<extensions>
<speed>0.0</speed>
<temp>0.00</temp>
<bpm>0</bpm>
<rpm>0.00</rpm>
</extensions>
</trkpt>
<trkpt lat="64.130920410" lon="-20.321300507">
<ele>81.029297</ele>
<time>2012-07-20T16:51:49Z</time>
<speed>0.010000</speed>
<extensions>
<speed>0.0</speed>
<temp>0.00</temp>
<bpm>0</bpm>
<rpm>0.00</rpm>
</extensions>
</trkpt>
<trkpt lat="64.130920410" lon="-20.321300507">
<ele>81.017578</ele>
<time>2012-07-20T16:51:54Z</time>
<speed>0.010000</speed>
<extensions>
<speed>0.0</speed>
<temp>0.00</temp>
<bpm>0</bpm>
<rpm>0.00</rpm>
</extensions>
</trkpt>
<trkpt lat="64.130920410" lon="-20.321300507">
<ele>81.003906</ele>
<time>2012-07-20T16:51:59Z</time>
<speed>0.010000</speed>
<extensions>
<speed>0.0</speed>
<temp>0.00</temp>
<bpm>0</bpm>
<rpm>0.00</rpm>
</extensions>
</trkpt>
<trkpt lat="64.130920410" lon="-20.321302414">
<ele>81.000000</ele>
<time>2012-07-20T16:52:04Z</time>
<extensions>
<speed>0.0</speed>
<temp>0.00</temp>
<bpm>0</bpm>
<rpm>0.00</rpm>
</extensions>
</trkpt>
<trkpt lat="64.130920410" lon="-20.321302414">
<ele>80.994141</ele>
<time>2012-07-20T16:52:09Z</time>
<speed>0.010000</speed>
<extensions>
<speed>0.0</speed>
<temp>0.00</temp>
<bpm>0</bpm>
<rpm>0.00</rpm>
</extensions>
</trkpt>
<trkpt lat="64.130920410" lon="-20.321302414">
<ele>80.974609</ele>
<time>2012-07-20T16:52:14Z</time>
<speed>0.010000</speed>
<extensions>
<speed>0.0</speed>
<temp>0.00</temp>
<bpm>0</bpm>
<rpm>0.00</rpm>
</extensions>
</trkpt>
<trkpt lat="64.130920410" lon="-20.321302414">
<ele>80.964844</ele>
<time>2012-07-20T16:52:19Z</time>
<speed>0.010000</speed>
<extensions>
<speed>0.0</speed>
<temp>0.00</temp>
<bpm>0</bpm>
<rpm>0.00</rpm>
</extensions>
</trkpt>
<trkpt lat="64.130920410" lon="-20.321304321">
<ele>80.960938</ele>
<time>2012-07-20T16:52:24Z</time>
<extensions>
<speed>0.0</speed>
<temp>0.00</temp>
<bpm>0</bpm>
<rpm>0.00</rpm>
</extensions>
</trkpt>
<trkpt lat="64.130920410" lon="-20.321304321">
<ele>80.964844</ele>
<time>2012-07-20T16:52:29Z</time>
<speed>0.010000</speed>
<extensions>
<speed>0.0</speed>
<temp>0.00</temp>
<bpm>0</bpm>
<rpm>0.00</rpm>
</extensions>
</trkpt>
<trkpt lat="64.130920410" lon="-20.321304321">
<ele>80.974609</ele>
<time>2012-07-20T16:52:34Z</time>
<extensions>
<speed>0.0</speed>
<temp>0.00</temp>
<bpm>0</bpm>
<rpm>0.00</rpm>
</extensions>
</trkpt>
<trkpt lat="64.130920410" lon="-20.321304321">
<ele>80.972656</ele>
<time>2012-07-20T16:52:39Z</time>
<extensions>
<speed>0.0</speed>
<temp>0.00</temp>
<bpm>0</bpm>
<rpm>0.00</rpm>
</extensions>
</trkpt>
<trkpt lat="64.130920410" lon="-20.321306229">
<ele>80.968750</ele>
<time>2012-07-20T16:52:44Z</time>
<extensions>
<speed>0.0</speed>
<temp>0.00</temp>
<bpm>0</bpm>
<rpm>0.00</rpm>
</extensions>
</trkpt>
<trkpt lat="64.130920410" lon="-20.321306229">
<ele>80.958984</ele>
<time>2012-07-20T16:52:49Z</time>
<extensions>
<speed>0.0</speed>
<temp>0.00</temp>
<bpm>0</bpm>
<rpm>0.00</rpm>
</extensions>
</trkpt>
<trkpt lat="64.130920410" lon="-20.321304321">
<ele>80.945313</ele>
<time>2012-07-20T16:52:54Z</time>
<speed>0.010000</speed>
<extensions>
<speed>0.0</speed>
<temp>0.00</temp>
<bpm>0</bpm>
<rpm>0.00</rpm>
</extensions>
</trkpt>
<trkpt lat="64.130920410" lon="-20.321304321">
<ele>80.929688</ele>
<time>2012-07-20T16:52:59Z</time>
<extensions>
<speed>0.0</speed>
<temp>0.00</temp>
<bpm>0</bpm>
<rpm>0.00</rpm>
</extensions>
</trkpt>
<trkpt lat="64.130920410" lon="-20.321304321">
<ele>80.914063</ele>
<time>2012-07-20T16:53:04Z</time>
<extensions>
<speed>0.0</speed>
<temp>0.00</temp>
<bpm>0</bpm>
<rpm>0.00</rpm>
</extensions>
</trkpt>
<trkpt lat="64.130920410" lon="-20.321304321">
<ele>80.906250</ele>
<time>2012-07-20T16:53:09Z</time>
<speed>0.010000</speed>
<extensions>
<speed>0.0</speed>
<temp>0.00</temp>
<bpm>0</bpm>
<rpm>0.00</rpm>
</extensions>
</trkpt>
<trkpt lat="64.130920410" lon="-20.321304321">
<ele>80.904297</ele>
<time>2012-07-20T16:53:14Z</time>
<speed>0.010000</speed>
<extensions>
<speed>0.0</speed>
<temp>0.00</temp>
<bpm>0</bpm>
<rpm>0.00</rpm>
</extensions>
</trkpt>
<trkpt lat="64.130920410" lon="-20.321304321">
<ele>80.890625</ele>
<time>2012-07-20T16:53:19Z</time>
<extensions>
<speed>0.0</speed>
<temp>0.00</temp>
<bpm>0</bpm>
<rpm>0.00</rpm>
</extensions>
</trkpt>
<trkpt lat="64.130920410" lon="-20.321304321">
<ele>80.898438</ele>
<time>2012-07-20T16:53:24Z</time>
<extensions>
<speed>0.0</speed>
<temp>0.00</temp>
<bpm>0</bpm>
<rpm>0.00</rpm>
</extensions>
</trkpt>
<trkpt lat="64.130920410" lon="-20.321304321">
<ele>80.888672</ele>
<time>2012-07-20T16:53:29Z</time>
<extensions>
<speed>0.0</speed>
<temp>0.00</temp>
<bpm>0</bpm>
<rpm>0.00</rpm>
</extensions>
</trkpt>
<trkpt lat="64.130920410" lon="-20.321304321">
<ele>80.882813</ele>
<time>2012-07-20T16:53:34Z</time>
<speed>0.010000</speed>
<extensions>
<speed>0.0</speed>
<temp>0.00</temp>
<bpm>0</bpm>
<rpm>0.00</rpm>
</extensions>
</trkpt>
<trkpt lat="64.130920410" lon="-20.321304321">
<ele>80.875000</ele>
<time>2012-07-20T16:53:39Z</time>
<extensions>
<speed>0.0</speed>
<temp>0.00</temp>
<bpm>0</bpm>
<rpm>0.00</rpm>
</extensions>
</trkpt>
<trkpt lat="64.130920410" lon="-20.321306229">
<ele>80.853516</ele>
<time>2012-07-20T16:53:44Z</time>
<extensions>
<speed>0.0</speed>
<temp>0.00</temp>
<bpm>0</bpm>
<rpm>0.00</rpm>
</extensions>
</trkpt>
<trkpt lat="64.130920410" lon="-20.321306229">
<ele>80.832031</ele>
<time>2012-07-20T16:53:49Z</time>
<speed>0.010000</speed>
<extensions>
<speed>0.0</speed>
<temp>0.00</temp>
<bpm>0</bpm>
<rpm>0.00</rpm>
</extensions>
</trkpt>
<trkpt lat="64.130920410" lon="-20.321306229">
<ele>80.822266</ele>
<time>2012-07-20T16:53:54Z</time>
<speed>0.010000</speed>
<extensions>
<speed>0.0</speed>
<temp>0.00</temp>
<bpm>0</bpm>
<rpm>0.00</rpm>
</extensions>
</trkpt>
<trkpt lat="64.130920410" lon="-20.321306229">
<ele>80.822266</ele>
<time>2012-07-20T16:53:59Z</time>
<extensions>
<speed>0.0</speed>
<temp>0.00</temp>
<bpm>0</bpm>
<rpm>0.00</rpm>
</extensions>
</trkpt>
<trkpt lat="64.130920410" lon="-20.321306229">
<ele>80.826172</ele>
<time>2012-07-20T16:54:04Z</time>
<extensions>
<speed>0.0</speed>
<temp>0.00</temp>
<bpm>0</bpm>
<rpm>0.00</rpm>
</extensions>
</trkpt>
<trkpt lat="64.130920410" lon="-20.321308136">
<ele>80.837891</ele>
<time>2012-07-20T16:54:09Z</time>
<speed>0.010000</speed>
<extensions>
<speed>0.0</speed>
<temp>0.00</temp>
<bpm>0</bpm>
<rpm>0.00</rpm>
</extensions>
</trkpt>
<trkpt lat="64.130920410" lon="-20.321308136">
<ele>80.839844</ele>
<time>2012-07-20T16:54:14Z</time>
<extensions>
<speed>0.0</speed>
<temp>0.00</temp>
<bpm>0</bpm>
<rpm>0.00</rpm>
</extensions>
</trkpt>
<trkpt lat="64.130920410" lon="-20.321308136">
<ele>80.843750</ele>
<time>2012-07-20T16:54:19Z</time>
<extensions>
<speed>0.0</speed>
<temp>0.00</temp>
<bpm>0</bpm>
<rpm>0.00</rpm>
</extensions>
</trkpt>
<trkpt lat="64.130920410" lon="-20.321308136">
<ele>80.837891</ele>
<time>2012-07-20T16:54:24Z</time>
<extensions>
<speed>0.0</speed>
<temp>0.00</temp>
<bpm>0</bpm>
<rpm>0.00</rpm>
</extensions>
</trkpt>
<trkpt lat="64.130920410" lon="-20.321308136">
<ele>80.816406</ele>
<time>2012-07-20T16:54:29Z</time>
<speed>0.010000</speed>
<extensions>
<speed>0.0</speed>
<temp>0.00</temp>
<bpm>0</bpm>
<rpm>0.00</rpm>
</extensions>
</trkpt>
<trkpt lat="64.130920410" lon="-20.321308136">
<ele>80.794922</ele>
<time>2012-07-20T16:54:34Z</time>
<speed>0.010000</speed>
<extensions>
<speed>0.0</speed>
<temp>0.00</temp>
<bpm>0</bpm>
<rpm>0.00</rpm>
</extensions>
</trkpt>
<trkpt lat="64.130920410" lon="-20.321308136">
<ele>80.783203</ele>
<time>2012-07-20T16:54:39Z</time>
<speed>0.020000</speed>
<extensions>
<speed>0.0</speed>
<temp>0.00</temp>
<bpm>0</bpm>
<rpm>0.00</rpm>
</extensions>
</trkpt>
<trkpt lat="64.130920410" lon="-20.321308136">
<ele>80.779297</ele>
<time>2012-07-20T16:54:44Z</time>
<speed>0.010000</speed>
<extensions>
<speed>0.0</speed>
<temp>0.00</temp>
<bpm>0</bpm>
<rpm>0.00</rpm>
</extensions>
</trkpt>
<trkpt lat="64.130920410" lon="-20.321308136">
<ele>80.771484</ele>
<time>2012-07-20T16:54:49Z</time>
<speed>0.020000</speed>
<extensions>
<speed>0.0</speed>
<temp>0.00</temp>
<bpm>0</bpm>
<rpm>0.00</rpm>
</extensions>
</trkpt>
<trkpt lat="64.130920410" lon="-20.321308136">
<ele>80.773438</ele>
<time>2012-07-20T16:54:54Z</time>
<speed>0.030000</speed>
<extensions>
<speed>0.0</speed>
<temp>0.00</temp>
<bpm>0</bpm>
<rpm>0.00</rpm>
</extensions>
</trkpt>
<trkpt lat="64.130920410" lon="-20.321308136">
<ele>80.775391</ele>
<time>2012-07-20T16:54:59Z</time>
<speed>0.010000</speed>
<extensions>
<speed>0.0</speed>
<temp>0.00</temp>
<bpm>0</bpm>
<rpm>0.00</rpm>
</extensions>
</trkpt>
<trkpt lat="64.130920410" lon="-20.321308136">
<ele>80.775391</ele>
<time>2012-07-20T16:55:04Z</time>
<extensions>
<speed>0.0</speed>
<temp>0.00</temp>
<bpm>0</bpm>
<rpm>0.00</rpm>
</extensions>
</trkpt>
<trkpt lat="64.130920410" lon="-20.321308136">
<ele>80.771484</ele>
<time>2012-07-20T16:55:09Z</time>
<extensions>
<speed>0.0</speed>
<temp>0.00</temp>
<bpm>0</bpm>
<rpm>0.00</rpm>
</extensions>
</trkpt>
<trkpt lat="64.130920410" lon="-20.321308136">
<ele>80.777344</ele>
<time>2012-07-20T16:55:14Z</time>
<extensions>
<speed>0.0</speed>
<temp>0.00</temp>
<bpm>0</bpm>
<rpm>0.00</rpm>
</extensions>
</trkpt>
<trkpt lat="64.130920410" lon="-20.321308136">
<ele>80.775391</ele>
<time>2012-07-20T16:55:19Z</time>
<speed>0.020000</speed>
<extensions>
<speed>0.0</speed>
<temp>0.00</temp>
<bpm>0</bpm>
<rpm>0.00</rpm>
</extensions>
</trkpt>
<trkpt lat="64.130920410" lon="-20.321308136">
<ele>80.771484</ele>
<time>2012-07-20T16:55:24Z</time>
<extensions>
<speed>0.0</speed>
<temp>0.00</temp>
<bpm>0</bpm>
<rpm>0.00</rpm>
</extensions>
</trkpt>
<trkpt lat="64.130920410" lon="-20.321308136">
<ele>80.781250</ele>
<time>2012-07-20T16:55:29Z</time>
<speed>0.010000</speed>
<extensions>
<speed>0.0</speed>
<temp>0.00</temp>
<bpm>0</bpm>
<rpm>0.00</rpm>
</extensions>
</trkpt>
<trkpt lat="64.130920410" lon="-20.321308136">
<ele>80.779297</ele>
<time>2012-07-20T16:55:34Z</time>
<extensions>
<speed>0.0</speed>
<temp>0.00</temp>
<bpm>0</bpm>
<rpm>0.00</rpm>
</extensions>
</trkpt>
<trkpt lat="64.130920410" lon="-20.321308136">
<ele>80.783203</ele>
<time>2012-07-20T16:55:39Z</time>
<extensions>
<speed>0.0</speed>
<temp>0.00</temp>
<bpm>0</bpm>
<rpm>0.00</rpm>
</extensions>
</trkpt>
<trkpt lat="64.130920410" lon="-20.321308136">
<ele>80.775391</ele>
<time>2012-07-20T16:55:44Z</time>
<extensions>
<speed>0.0</speed>
<temp>0.00</temp>
<bpm>0</bpm>
<rpm>0.00</rpm>
</extensions>
</trkpt>
<trkpt lat="64.130920410" lon="-20.321308136">
<ele>80.777344</ele>
<time>2012-07-20T16:55:49Z</time>
<speed>0.010000</speed>
<extensions>
<speed>0.0</speed>
<temp>0.00</temp>
<bpm>0</bpm>
<rpm>0.00</rpm>
</extensions>
</trkpt>
<trkpt lat="64.130920410" lon="-20.321308136">
<ele>80.773438</ele>
<time>2012-07-20T16:55:54Z</time>
<speed>0.010000</speed>
<extensions>
<speed>0.0</speed>
<temp>0.00</temp>
<bpm>0</bpm>
<rpm>0.00</rpm>
</extensions>
</trkpt>
<trkpt lat="64.130920410" lon="-20.321308136">
<ele>80.763672</ele>
<time>2012-07-20T16:55:59Z</time>
<speed>0.010000</speed>
<extensions>
<speed>0.0</speed>
<temp>0.00</temp>
<bpm>0</bpm>
<rpm>0.00</rpm>
</extensions>
</trkpt>
<trkpt lat="64.130920410" lon="-20.321308136">
<ele>80.759766</ele>
<time>2012-07-20T16:56:04Z</time>
<extensions>
<speed>0.0</speed>
<temp>0.00</temp>
<bpm>0</bpm>
<rpm>0.00</rpm>
</extensions>
</trkpt>
<trkpt lat="64.130920410" lon="-20.321308136">
<ele>80.746094</ele>
<time>2012-07-20T16:56:09Z</time>
<extensions>
<speed>0.0</speed>
<temp>0.00</temp>
<bpm>0</bpm>
<rpm>0.00</rpm>
</extensions>
</trkpt>
<trkpt lat="64.130920410" lon="-20.321308136">
<ele>80.732422</ele>
<time>2012-07-20T16:56:14Z</time>
<speed>0.010000</speed>
<extensions>
<speed>0.0</speed>
<temp>0.00</temp>
<bpm>0</bpm>
<rpm>0.00</rpm>
</extensions>
</trkpt>
<trkpt lat="64.130920410" lon="-20.321308136">
<ele>80.720703</ele>
<time>2012-07-20T16:56:19Z</time>
<speed>0.010000</speed>
<extensions>
<speed>0.0</speed>
<temp>0.00</temp>
<bpm>0</bpm>
<rpm>0.00</rpm>
</extensions>
</trkpt>
<trkpt lat="64.130920410" lon="-20.321308136">
<ele>80.707031</ele>
<time>2012-07-20T16:56:24Z</time>
<speed>0.020000</speed>
<extensions>
<speed>0.0</speed>
<temp>0.00</temp>
<bpm>0</bpm>
<rpm>0.00</rpm>
</extensions>
</trkpt>
<trkpt lat="64.130920410" lon="-20.321308136">
<ele>80.673828</ele>
<time>2012-07-20T16:56:29Z</time>
<speed>0.010000</speed>
<extensions>
<speed>0.0</speed>
<temp>0.00</temp>
<bpm>0</bpm>
<rpm>0.00</rpm>
</extensions>
</trkpt>
<trkpt lat="64.130920410" lon="-20.321308136">
<ele>80.648438</ele>
<time>2012-07-20T16:56:34Z</time>
<speed>0.010000</speed>
<extensions>
<speed>0.0</speed>
<temp>0.00</temp>
<bpm>0</bpm>
<rpm>0.00</rpm>
</extensions>
</trkpt>
<trkpt lat="64.130920410" lon="-20.321308136">
<ele>80.628906</ele>
<time>2012-07-20T16:56:39Z</time>
<extensions>
<speed>0.0</speed>
<temp>0.00</temp>
<bpm>0</bpm>
<rpm>0.00</rpm>
</extensions>
</trkpt>
<trkpt lat="64.130920410" lon="-20.321310043">
<ele>80.617188</ele>
<time>2012-07-20T16:56:44Z</time>
<speed>0.010000</speed>
<extensions>
<speed>0.0</speed>
<temp>0.00</temp>
<bpm>0</bpm>
<rpm>0.00</rpm>
</extensions>
</trkpt>
<trkpt lat="64.130920410" lon="-20.321310043">
<ele>80.601563</ele>
<time>2012-07-20T16:56:49Z</time>
<extensions>
<speed>0.0</speed>
<temp>0.00</temp>
<bpm>0</bpm>
<rpm>0.00</rpm>
</extensions>
</trkpt>
<trkpt lat="64.130920410" lon="-20.321310043">
<ele>80.587891</ele>
<time>2012-07-20T16:56:54Z</time>
<speed>0.010000</speed>
<extensions>
<speed>0.0</speed>
<temp>0.00</temp>
<bpm>0</bpm>
<rpm>0.00</rpm>
</extensions>
</trkpt>
<trkpt lat="64.130920410" lon="-20.321311951">
<ele>80.593750</ele>
<time>2012-07-20T16:56:59Z</time>
<speed>0.010000</speed>
<extensions>
<speed>0.0</speed>
<temp>0.00</temp>
<bpm>0</bpm>
<rpm>0.00</rpm>
</extensions>
</trkpt>
<trkpt lat="64.130920410" lon="-20.321311951">
<ele>80.580078</ele>
<time>2012-07-20T16:57:04Z</time>
<speed>0.010000</speed>
<extensions>
<speed>0.0</speed>
<temp>0.00</temp>
<bpm>0</bpm>
<rpm>0.00</rpm>
</extensions>
</trkpt>
<trkpt lat="64.130920410" lon="-20.321311951">
<ele>80.566406</ele>
<time>2012-07-20T16:57:09Z</time>
<speed>0.010000</speed>
<extensions>
<speed>0.0</speed>
<temp>0.00</temp>
<bpm>0</bpm>
<rpm>0.00</rpm>
</extensions>
</trkpt>
<trkpt lat="64.130920410" lon="-20.321311951">
<ele>80.554688</ele>
<time>2012-07-20T16:57:14Z</time>
<extensions>
<speed>0.0</speed>
<temp>0.00</temp>
<bpm>0</bpm>
<rpm>0.00</rpm>
</extensions>
</trkpt>
<trkpt lat="64.130920410" lon="-20.321311951">
<ele>80.537109</ele>
<time>2012-07-20T16:57:19Z</time>
<speed>0.010000</speed>
<extensions>
<speed>0.0</speed>
<temp>0.00</temp>
<bpm>0</bpm>
<rpm>0.00</rpm>
</extensions>
</trkpt>
<trkpt lat="64.130920410" lon="-20.321313858">
<ele>80.529297</ele>
<time>2012-07-20T16:57:24Z</time>
<extensions>
<speed>0.0</speed>
<temp>0.00</temp>
<bpm>0</bpm>
<rpm>0.00</rpm>
</extensions>
</trkpt>
<trkpt lat="64.130920410" lon="-20.321313858">
<ele>80.533203</ele>
<time>2012-07-20T16:57:29Z</time>
<speed>0.010000</speed>
<extensions>
<speed>0.0</speed>
<temp>0.00</temp>
<bpm>0</bpm>
<rpm>0.00</rpm>
</extensions>
</trkpt>
<trkpt lat="64.130920410" lon="-20.321313858">
<ele>80.517578</ele>
<time>2012-07-20T16:57:34Z</time>
<extensions>
<speed>0.0</speed>
<temp>0.00</temp>
<bpm>0</bpm>
<rpm>0.00</rpm>
</extensions>
</trkpt>
<trkpt lat="64.130920410" lon="-20.321313858">
<ele>80.517578</ele>
<time>2012-07-20T16:57:39Z</time>
<speed>0.010000</speed>
<extensions>
<speed>0.0</speed>
<temp>0.00</temp>
<bpm>0</bpm>
<rpm>0.00</rpm>
</extensions>
</trkpt>
<trkpt lat="64.130920410" lon="-20.321313858">
<ele>80.513672</ele>
<time>2012-07-20T16:57:44Z</time>
<extensions>
<speed>0.0</speed>
<temp>0.00</temp>
<bpm>0</bpm>
<rpm>0.00</rpm>
</extensions>
</trkpt>
<trkpt lat="64.130920410" lon="-20.321313858">
<ele>80.515625</ele>
<time>2012-07-20T16:57:49Z</time>
<extensions>
<speed>0.0</speed>
<temp>0.00</temp>
<bpm>0</bpm>
<rpm>0.00</rpm>
</extensions>
</trkpt>
<trkpt lat="64.130920410" lon="-20.321313858">
<ele>80.533203</ele>
<time>2012-07-20T16:57:54Z</time>
<extensions>
<speed>0.0</speed>
<temp>0.00</temp>
<bpm>0</bpm>
<rpm>0.00</rpm>
</extensions>
</trkpt>
<trkpt lat="64.130920410" lon="-20.321313858">
<ele>80.535156</ele>
<time>2012-07-20T16:57:59Z</time>
<extensions>
<speed>0.0</speed>
<temp>0.00</temp>
<bpm>0</bpm>
<rpm>0.00</rpm>
</extensions>
</trkpt>
<trkpt lat="64.130920410" lon="-20.321313858">
<ele>80.535156</ele>
<time>2012-07-20T16:58:04Z</time>
<speed>0.010000</speed>
<extensions>
<speed>0.0</speed>
<temp>0.00</temp>
<bpm>0</bpm>
<rpm>0.00</rpm>
</extensions>
</trkpt>
<trkpt lat="64.130920410" lon="-20.321313858">
<ele>80.544922</ele>
<time>2012-07-20T16:58:09Z</time>
<extensions>
<speed>0.0</speed>
<temp>0.00</temp>
<bpm>0</bpm>
<rpm>0.00</rpm>
</extensions>
</trkpt>
<trkpt lat="64.130920410" lon="-20.321313858">
<ele>80.548828</ele>
<time>2012-07-20T16:58:14Z</time>
<speed>0.020000</speed>
<extensions>
<speed>0.0</speed>
<temp>0.00</temp>
<bpm>0</bpm>
<rpm>0.00</rpm>
</extensions>
</trkpt>
<trkpt lat="64.130920410" lon="-20.321313858">
<ele>80.527344</ele>
<time>2012-07-20T16:58:19Z</time>
<extensions>
<speed>0.0</speed>
<temp>0.00</temp>
<bpm>0</bpm>
<rpm>0.00</rpm>
</extensions>
</trkpt>
<trkpt lat="64.130920410" lon="-20.321313858">
<ele>80.482422</ele>
<time>2012-07-20T16:58:24Z</time>
<speed>0.010000</speed>
<extensions>
<speed>0.0</speed>
<temp>0.00</temp>
<bpm>0</bpm>
<rpm>0.00</rpm>
</extensions>
</trkpt>
<trkpt lat="64.130912781" lon="-20.321313858">
<ele>80.449219</ele>
<time>2012-07-20T16:58:29Z</time>
<speed>0.020000</speed>
<extensions>
<speed>0.0</speed>
<temp>0.00</temp>
<bpm>0</bpm>
<rpm>0.00</rpm>
</extensions>
</trkpt>
<trkpt lat="64.130912781" lon="-20.321311951">
<ele>80.408203</ele>
<time>2012-07-20T16:58:34Z</time>
<speed>0.030000</speed>
<extensions>
<speed>0.0</speed>
<temp>0.00</temp>
<bpm>0</bpm>
<rpm>0.00</rpm>
</extensions>
</trkpt>
<trkpt lat="64.130912781" lon="-20.321311951">
<ele>80.343750</ele>
<time>2012-07-20T16:58:39Z</time>
<speed>0.060000</speed>
<extensions>
<speed>0.1</speed>
<temp>0.00</temp>
<bpm>0</bpm>
<rpm>0.00</rpm>
</extensions>
</trkpt>
<trkpt lat="64.130912781" lon="-20.321311951">
<ele>80.328125</ele>
<time>2012-07-20T16:58:44Z</time>
<speed>0.020000</speed>
<extensions>
<speed>0.0</speed>
<temp>0.00</temp>
<bpm>0</bpm>
<rpm>0.00</rpm>
</extensions>
</trkpt>
<trkpt lat="64.130912781" lon="-20.321310043">
<ele>80.281250</ele>
<time>2012-07-20T16:58:49Z</time>
<extensions>
<speed>0.0</speed>
<temp>0.00</temp>
<bpm>0</bpm>
<rpm>0.00</rpm>
</extensions>
</trkpt>
<trkpt lat="64.130912781" lon="-20.321310043">
<ele>80.300781</ele>
<time>2012-07-20T16:58:54Z</time>
<extensions>
<speed>0.0</speed>
<temp>0.00</temp>
<bpm>0</bpm>
<rpm>0.00</rpm>
</extensions>
</trkpt>
<trkpt lat="64.130912781" lon="-20.321310043">
<ele>80.312500</ele>
<time>2012-07-20T16:58:59Z</time>
<extensions>
<speed>0.0</speed>
<temp>0.00</temp>
<bpm>0</bpm>
<rpm>0.00</rpm>
</extensions>
</trkpt>
<trkpt lat="64.130912781" lon="-20.321310043">
<ele>80.320313</ele>
<time>2012-07-20T16:59:04Z</time>
<speed>0.010000</speed>
<extensions>
<speed>0.0</speed>
<temp>0.00</temp>
<bpm>0</bpm>
<rpm>0.00</rpm>
</extensions>
</trkpt>
<trkpt lat="64.130912781" lon="-20.321310043">
<ele>80.283203</ele>
<time>2012-07-20T16:59:09Z</time>
<speed>0.010000</speed>
<extensions>
<speed>0.0</speed>
<temp>0.00</temp>
<bpm>0</bpm>
<rpm>0.00</rpm>
</extensions>
</trkpt>
<trkpt lat="64.130912781" lon="-20.321310043">
<ele>80.265625</ele>
<time>2012-07-20T16:59:14Z</time>
<extensions>
<speed>0.0</speed>
<temp>0.00</temp>
<bpm>0</bpm>
<rpm>0.00</rpm>
</extensions>
</trkpt>
<trkpt lat="64.130912781" lon="-20.321310043">
<ele>80.212891</ele>
<time>2012-07-20T16:59:19Z</time>
<extensions>
<speed>0.0</speed>
<temp>0.00</temp>
<bpm>0</bpm>
<rpm>0.00</rpm>
</extensions>
</trkpt>
<trkpt lat="64.130912781" lon="-20.321310043">
<ele>80.136719</ele>
<time>2012-07-20T16:59:24Z</time>
<speed>0.010000</speed>
<extensions>
<speed>0.0</speed>
<temp>0.00</temp>
<bpm>0</bpm>
<rpm>0.00</rpm>
</extensions>
</trkpt>
<trkpt lat="64.130912781" lon="-20.321310043">
<ele>80.087891</ele>
<time>2012-07-20T16:59:29Z</time>
<speed>0.010000</speed>
<extensions>
<speed>0.0</speed>
<temp>0.00</temp>
<bpm>0</bpm>
<rpm>0.00</rpm>
</extensions>
</trkpt>
<trkpt lat="64.130912781" lon="-20.321310043">
<ele>80.087891</ele>
<time>2012-07-20T16:59:34Z</time>
<extensions>
<speed>0.0</speed>
<temp>0.00</temp>
<bpm>0</bpm>
<rpm>0.00</rpm>
</extensions>
</trkpt>
<trkpt lat="64.130912781" lon="-20.321310043">
<ele>80.115234</ele>
<time>2012-07-20T16:59:39Z</time>
<speed>0.030000</speed>
<extensions>
<speed>0.0</speed>
<temp>0.00</temp>
<bpm>0</bpm>
<rpm>0.00</rpm>
</extensions>
</trkpt>
<trkpt lat="64.130912781" lon="-20.321311951">
<ele>80.140625</ele>
<time>2012-07-20T16:59:44Z</time>
<speed>0.020000</speed>
<extensions>
<speed>0.0</speed>
<temp>0.00</temp>
<bpm>0</bpm>
<rpm>0.00</rpm>
</extensions>
</trkpt>
<trkpt lat="64.130912781" lon="-20.321311951">
<ele>80.169922</ele>
<time>2012-07-20T16:59:49Z</time>
<speed>0.010000</speed>
<extensions>
<speed>0.0</speed>
<temp>0.00</temp>
<bpm>0</bpm>
<rpm>0.00</rpm>
</extensions>
</trkpt>
<trkpt lat="64.130912781" lon="-20.321311951">
<ele>80.175781</ele>
<time>2012-07-20T16:59:54Z</time>
<speed>0.040000</speed>
<extensions>
<speed>0.0</speed>
<temp>0.00</temp>
<bpm>0</bpm>
<rpm>0.00</rpm>
</extensions>
</trkpt>
<trkpt lat="64.130912781" lon="-20.321313858">
<ele>80.156250</ele>
<time>2012-07-20T16:59:59Z</time>
<speed>0.020000</speed>
<extensions>
<speed>0.0</speed>
<temp>0.00</temp>
<bpm>0</bpm>
<rpm>0.00</rpm>
</extensions>
</trkpt>
<trkpt lat="64.130912781" lon="-20.321313858">
<ele>80.138672</ele>
<time>2012-07-20T17:00:04Z</time>
<speed>0.030000</speed>
<extensions>
<speed>0.0</speed>
<temp>0.00</temp>
<bpm>0</bpm>
<rpm>0.00</rpm>
</extensions>
</trkpt>
<trkpt lat="64.130912781" lon="-20.321315765">
<ele>80.123047</ele>
<time>2012-07-20T17:00:09Z</time>
<speed>0.030000</speed>
<extensions>
<speed>0.0</speed>
<temp>0.00</temp>
<bpm>0</bpm>
<rpm>0.00</rpm>
</extensions>
</trkpt>
<trkpt lat="64.130912781" lon="-20.321315765">
<ele>80.103516</ele>
<time>2012-07-20T17:00:14Z</time>
<speed>0.030000</speed>
<extensions>
<speed>0.0</speed>
<temp>0.00</temp>
<bpm>0</bpm>
<rpm>0.00</rpm>
</extensions>
</trkpt>
<trkpt lat="64.130912781" lon="-20.321317673">
<ele>80.091797</ele>
<time>2012-07-20T17:00:19Z</time>
<speed>0.020000</speed>
<extensions>
<speed>0.0</speed>
<temp>0.00</temp>
<bpm>0</bpm>
<rpm>0.00</rpm>
</extensions>
</trkpt>
<trkpt lat="64.130912781" lon="-20.321319580">
<ele>80.064453</ele>
<time>2012-07-20T17:00:24Z</time>
<speed>0.010000</speed>
<extensions>
<speed>0.0</speed>
<temp>0.00</temp>
<bpm>0</bpm>
<rpm>0.00</rpm>
</extensions>
</trkpt>
<trkpt lat="64.130912781" lon="-20.321319580">
<ele>80.076172</ele>
<time>2012-07-20T17:00:29Z</time>
<speed>0.030000</speed>
<extensions>
<speed>0.0</speed>
<temp>0.00</temp>
<bpm>0</bpm>
<rpm>0.00</rpm>
</extensions>
</trkpt>
<trkpt lat="64.130912781" lon="-20.321319580">
<ele>80.101563</ele>
<time>2012-07-20T17:00:34Z</time>
<speed>0.030000</speed>
<extensions>
<speed>0.0</speed>
<temp>0.00</temp>
<bpm>0</bpm>
<rpm>0.00</rpm>
</extensions>
</trkpt>
<trkpt lat="64.130912781" lon="-20.321321487">
<ele>80.121094</ele>
<time>2012-07-20T17:00:39Z</time>
<speed>0.010000</speed>
<extensions>
<speed>0.0</speed>
<temp>0.00</temp>
<bpm>0</bpm>
<rpm>0.00</rpm>
</extensions>
</trkpt>
<trkpt lat="64.130912781" lon="-20.321319580">
<ele>80.134766</ele>
<time>2012-07-20T17:00:44Z</time>
<speed>0.030000</speed>
<extensions>
<speed>0.0</speed>
<temp>0.00</temp>
<bpm>0</bpm>
<rpm>0.00</rpm>
</extensions>
</trkpt>
<trkpt lat="64.130912781" lon="-20.321319580">
<ele>80.136719</ele>
<time>2012-07-20T17:00:49Z</time>
<speed>0.040000</speed>
<extensions>
<speed>0.0</speed>
<temp>0.00</temp>
<bpm>0</bpm>
<rpm>0.00</rpm>
</extensions>
</trkpt>
<trkpt lat="64.130912781" lon="-20.321319580">
<ele>80.119141</ele>
<time>2012-07-20T17:00:54Z</time>
<extensions>
<speed>0.0</speed>
<temp>0.00</temp>
<bpm>0</bpm>
<rpm>0.00</rpm>
</extensions>
</trkpt>
<trkpt lat="64.130912781" lon="-20.321319580">
<ele>80.183594</ele>
<time>2012-07-20T17:00:59Z</time>
<speed>0.020000</speed>
<extensions>
<speed>0.0</speed>
<temp>0.00</temp>
<bpm>0</bpm>
<rpm>0.00</rpm>
</extensions>
</trkpt>
<trkpt lat="64.130912781" lon="-20.321319580">
<ele>80.238281</ele>
<time>2012-07-20T17:01:04Z</time>
<extensions>
<speed>0.0</speed>
<temp>0.00</temp>
<bpm>0</bpm>
<rpm>0.00</rpm>
</extensions>
</trkpt>
<trkpt lat="64.130912781" lon="-20.321319580">
<ele>80.343750</ele>
<time>2012-07-20T17:01:09Z</time>
<speed>0.040000</speed>
<extensions>
<speed>0.0</speed>
<temp>0.00</temp>
<bpm>0</bpm>
<rpm>0.00</rpm>
</extensions>
</trkpt>
<trkpt lat="64.130912781" lon="-20.321319580">
<ele>80.402344</ele>
<time>2012-07-20T17:01:14Z</time>
<extensions>
<speed>0.0</speed>
<temp>0.00</temp>
<bpm>0</bpm>
<rpm>0.00</rpm>
</extensions>
</trkpt>
<trkpt lat="64.130912781" lon="-20.321319580">
<ele>80.427734</ele>
<time>2012-07-20T17:01:19Z</time>
<speed>0.040000</speed>
<extensions>
<speed>0.0</speed>
<temp>0.00</temp>
<bpm>0</bpm>
<rpm>0.00</rpm>
</extensions>
</trkpt>
<trkpt lat="64.130912781" lon="-20.321319580">
<ele>80.470703</ele>
<time>2012-07-20T17:01:24Z</time>
<speed>0.040000</speed>
<extensions>
<speed>0.0</speed>
<temp>0.00</temp>
<bpm>0</bpm>
<rpm>0.00</rpm>
</extensions>
</trkpt>
<trkpt lat="64.130920410" lon="-20.321321487">
<ele>80.529297</ele>
<time>2012-07-20T17:01:29Z</time>
<speed>0.030000</speed>
<extensions>
<speed>0.0</speed>
<temp>0.00</temp>
<bpm>0</bpm>
<rpm>0.00</rpm>
</extensions>
</trkpt>
<trkpt lat="64.130920410" lon="-20.321321487">
<ele>80.583984</ele>
<time>2012-07-20T17:01:34Z</time>
<speed>0.020000</speed>
<extensions>
<speed>0.0</speed>
<temp>0.00</temp>
<bpm>0</bpm>
<rpm>0.00</rpm>
</extensions>
</trkpt>
<trkpt lat="64.130920410" lon="-20.321321487">
<ele>80.664063</ele>
<time>2012-07-20T17:01:39Z</time>
<speed>0.020000</speed>
<extensions>
<speed>0.0</speed>
<temp>0.00</temp>
<bpm>0</bpm>
<rpm>0.00</rpm>
</extensions>
</trkpt>
<trkpt lat="64.130920410" lon="-20.321321487">
<ele>80.726563</ele>
<time>2012-07-20T17:01:44Z</time>
<speed>0.040000</speed>
<extensions>
<speed>0.0</speed>
<temp>0.00</temp>
<bpm>0</bpm>
<rpm>0.00</rpm>
</extensions>
</trkpt>
<trkpt lat="64.130920410" lon="-20.321321487">
<ele>80.785156</ele>
<time>2012-07-20T17:01:49Z</time>
<speed>0.020000</speed>
<extensions>
<speed>0.0</speed>
<temp>0.00</temp>
<bpm>0</bpm>
<rpm>0.00</rpm>
</extensions>
</trkpt>
<trkpt lat="64.130920410" lon="-20.321321487">
<ele>80.792969</ele>
<time>2012-07-20T17:01:54Z</time>
<extensions>
<speed>0.0</speed>
<temp>0.00</temp>
<bpm>0</bpm>
<rpm>0.00</rpm>
</extensions>
</trkpt>
<trkpt lat="64.130920410" lon="-20.321321487">
<ele>80.806641</ele>
<time>2012-07-20T17:01:59Z</time>
<speed>0.010000</speed>
<extensions>
<speed>0.0</speed>
<temp>0.00</temp>
<bpm>0</bpm>
<rpm>0.00</rpm>
</extensions>
</trkpt>
<trkpt lat="64.130920410" lon="-20.321321487">
<ele>80.824219</ele>
<time>2012-07-20T17:02:04Z</time>
<speed>0.020000</speed>
<extensions>
<speed>0.0</speed>
<temp>0.00</temp>
<bpm>0</bpm>
<rpm>0.00</rpm>
</extensions>
</trkpt>
<trkpt lat="64.130920410" lon="-20.321321487">
<ele>80.853516</ele>
<time>2012-07-20T17:02:09Z</time>
<speed>0.010000</speed>
<extensions>
<speed>0.0</speed>
<temp>0.00</temp>
<bpm>0</bpm>
<rpm>0.00</rpm>
</extensions>
</trkpt>
<trkpt lat="64.130920410" lon="-20.321321487">
<ele>80.873047</ele>
<time>2012-07-20T17:02:14Z</time>
<speed>0.020000</speed>
<extensions>
<speed>0.0</speed>
<temp>0.00</temp>
<bpm>0</bpm>
<rpm>0.00</rpm>
</extensions>
</trkpt>
<trkpt lat="64.130920410" lon="-20.321321487">
<ele>80.880859</ele>
<time>2012-07-20T17:02:19Z</time>
<speed>0.020000</speed>
<extensions>
<speed>0.0</speed>
<temp>0.00</temp>
<bpm>0</bpm>
<rpm>0.00</rpm>
</extensions>
</trkpt>
<trkpt lat="64.130920410" lon="-20.321323395">
<ele>80.873047</ele>
<time>2012-07-20T17:02:24Z</time>
<speed>0.010000</speed>
<extensions>
<speed>0.0</speed>
<temp>0.00</temp>
<bpm>0</bpm>
<rpm>0.00</rpm>
</extensions>
</trkpt>
<trkpt lat="64.130920410" lon="-20.321323395">
<ele>80.878906</ele>
<time>2012-07-20T17:02:29Z</time>
<extensions>
<speed>0.0</speed>
<temp>0.00</temp>
<bpm>0</bpm>
<rpm>0.00</rpm>
</extensions>
</trkpt>
<trkpt lat="64.130920410" lon="-20.321321487">
<ele>80.890625</ele>
<time>2012-07-20T17:02:34Z</time>
<speed>0.010000</speed>
<extensions>
<speed>0.0</speed>
<temp>0.00</temp>
<bpm>0</bpm>
<rpm>0.00</rpm>
</extensions>
</trkpt>
<trkpt lat="64.130920410" lon="-20.321321487">
<ele>80.886719</ele>
<time>2012-07-20T17:02:39Z</time>
<speed>0.030000</speed>
<extensions>
<speed>0.0</speed>
<temp>0.00</temp>
<bpm>0</bpm>
<rpm>0.00</rpm>
</extensions>
</trkpt>
<trkpt lat="64.130920410" lon="-20.321321487">
<ele>80.890625</ele>
<time>2012-07-20T17:02:44Z</time>
<speed>0.010000</speed>
<extensions>
<speed>0.0</speed>
<temp>0.00</temp>
<bpm>0</bpm>
<rpm>0.00</rpm>
</extensions>
</trkpt>
<trkpt lat="64.130920410" lon="-20.321321487">
<ele>80.912109</ele>
<time>2012-07-20T17:02:49Z</time>
<speed>0.030000</speed>
<extensions>
<speed>0.0</speed>
<temp>0.00</temp>
<bpm>0</bpm>
<rpm>0.00</rpm>
</extensions>
</trkpt>
<trkpt lat="64.130920410" lon="-20.321319580">
<ele>80.951172</ele>
<time>2012-07-20T17:02:54Z</time>
<speed>0.050000</speed>
<extensions>
<speed>0.1</speed>
<temp>0.00</temp>
<bpm>0</bpm>
<rpm>0.00</rpm>
</extensions>
</trkpt>
<trkpt lat="64.130920410" lon="-20.321319580">
<ele>80.951172</ele>
<time>2012-07-20T17:02:59Z</time>
<speed>0.010000</speed>
<extensions>
<speed>0.0</speed>
<temp>0.00</temp>
<bpm>0</bpm>
<rpm>0.00</rpm>
</extensions>
</trkpt>
<trkpt lat="64.130920410" lon="-20.321319580">
<ele>80.927734</ele>
<time>2012-07-20T17:03:04Z</time>
<speed>0.030000</speed>
<extensions>
<speed>0.0</speed>
<temp>0.00</temp>
<bpm>0</bpm>
<rpm>0.00</rpm>
</extensions>
</trkpt>
<trkpt lat="64.130920410" lon="-20.321321487">
<ele>80.910156</ele>
<time>2012-07-20T17:03:09Z</time>
<extensions>
<speed>0.0</speed>
<temp>0.00</temp>
<bpm>0</bpm>
<rpm>0.00</rpm>
</extensions>
</trkpt>
<trkpt lat="64.130920410" lon="-20.321321487">
<ele>80.869141</ele>
<time>2012-07-20T17:03:14Z</time>
<speed>0.010000</speed>
<extensions>
<speed>0.0</speed>
<temp>0.00</temp>
<bpm>0</bpm>
<rpm>0.00</rpm>
</extensions>
</trkpt>
<trkpt lat="64.130920410" lon="-20.321321487">
<ele>80.839844</ele>
<time>2012-07-20T17:03:19Z</time>
<speed>0.020000</speed>
<extensions>
<speed>0.0</speed>
<temp>0.00</temp>
<bpm>0</bpm>
<rpm>0.00</rpm>
</extensions>
</trkpt>
<trkpt lat="64.130920410" lon="-20.321321487">
<ele>80.824219</ele>
<time>2012-07-20T17:03:24Z</time>
<speed>0.030000</speed>
<extensions>
<speed>0.0</speed>
<temp>0.00</temp>
<bpm>0</bpm>
<rpm>0.00</rpm>
</extensions>
</trkpt>
<trkpt lat="64.130920410" lon="-20.321321487">
<ele>80.818359</ele>
<time>2012-07-20T17:03:29Z</time>
<speed>0.040000</speed>
<extensions>
<speed>0.0</speed>
<temp>0.00</temp>
<bpm>0</bpm>
<rpm>0.00</rpm>
</extensions>
</trkpt>
<trkpt lat="64.130920410" lon="-20.321321487">
<ele>80.798828</ele>
<time>2012-07-20T17:03:34Z</time>
<speed>0.010000</speed>
<extensions>
<speed>0.0</speed>
<temp>0.00</temp>
<bpm>0</bpm>
<rpm>0.00</rpm>
</extensions>
</trkpt>
<trkpt lat="64.130920410" lon="-20.321321487">
<ele>80.802734</ele>
<time>2012-07-20T17:03:39Z</time>
<speed>0.040000</speed>
<extensions>
<speed>0.0</speed>
<temp>0.00</temp>
<bpm>0</bpm>
<rpm>0.00</rpm>
</extensions>
</trkpt>
<trkpt lat="64.130920410" lon="-20.321321487">
<ele>80.781250</ele>
<time>2012-07-20T17:03:44Z</time>
<speed>0.050000</speed>
<extensions>
<speed>0.1</speed>
<temp>0.00</temp>
<bpm>0</bpm>
<rpm>0.00</rpm>
</extensions>
</trkpt>
<trkpt lat="64.130912781" lon="-20.321319580">
<ele>80.759766</ele>
<time>2012-07-20T17:03:49Z</time>
<speed>0.030000</speed>
<extensions>
<speed>0.0</speed>
<temp>0.00</temp>
<bpm>0</bpm>
<rpm>0.00</rpm>
</extensions>
</trkpt>
<trkpt lat="64.130912781" lon="-20.321319580">
<ele>80.751953</ele>
<time>2012-07-20T17:03:54Z</time>
<speed>0.010000</speed>
<extensions>
<speed>0.0</speed>
<temp>0.00</temp>
<bpm>0</bpm>
<rpm>0.00</rpm>
</extensions>
</trkpt>
<trkpt lat="64.130912781" lon="-20.321319580">
<ele>80.791016</ele>
<time>2012-07-20T17:03:59Z</time>
<speed>0.010000</speed>
<extensions>
<speed>0.0</speed>
<temp>0.00</temp>
<bpm>0</bpm>
<rpm>0.00</rpm>
</extensions>
</trkpt>
<trkpt lat="64.130912781" lon="-20.321319580">
<ele>80.814453</ele>
<time>2012-07-20T17:04:04Z</time>
<speed>0.010000</speed>
<extensions>
<speed>0.0</speed>
<temp>0.00</temp>
<bpm>0</bpm>
<rpm>0.00</rpm>
</extensions>
</trkpt>
<trkpt lat="64.130920410" lon="-20.321319580">
<ele>80.835938</ele>
<time>2012-07-20T17:04:09Z</time>
<speed>0.010000</speed>
<extensions>
<speed>0.0</speed>
<temp>0.00</temp>
<bpm>0</bpm>
<rpm>0.00</rpm>
</extensions>
</trkpt>
<trkpt lat="64.130920410" lon="-20.321319580">
<ele>80.859375</ele>
<time>2012-07-20T17:04:14Z</time>
<speed>0.020000</speed>
<extensions>
<speed>0.0</speed>
<temp>0.00</temp>
<bpm>0</bpm>
<rpm>0.00</rpm>
</extensions>
</trkpt>
<trkpt lat="64.130912781" lon="-20.321319580">
<ele>80.882813</ele>
<time>2012-07-20T17:04:19Z</time>
<speed>0.030000</speed>
<extensions>
<speed>0.0</speed>
<temp>0.00</temp>
<bpm>0</bpm>
<rpm>0.00</rpm>
</extensions>
</trkpt>
<trkpt lat="64.130912781" lon="-20.321319580">
<ele>80.884766</ele>
<time>2012-07-20T17:04:24Z</time>
<speed>0.010000</speed>
<extensions>
<speed>0.0</speed>
<temp>0.00</temp>
<bpm>0</bpm>
<rpm>0.00</rpm>
</extensions>
</trkpt>
<trkpt lat="64.130912781" lon="-20.321319580">
<ele>80.878906</ele>
<time>2012-07-20T17:04:29Z</time>
<extensions>
<speed>0.0</speed>
<temp>0.00</temp>
<bpm>0</bpm>
<rpm>0.00</rpm>
</extensions>
</trkpt>
<trkpt lat="64.130912781" lon="-20.321319580">
<ele>80.851563</ele>
<time>2012-07-20T17:04:34Z</time>
<extensions>
<speed>0.0</speed>
<temp>0.00</temp>
<bpm>0</bpm>
<rpm>0.00</rpm>
</extensions>
</trkpt>
<trkpt lat="64.130920410" lon="-20.321319580">
<ele>80.837891</ele>
<time>2012-07-20T17:04:39Z</time>
<speed>0.010000</speed>
<extensions>
<speed>0.0</speed>
<temp>0.00</temp>
<bpm>0</bpm>
<rpm>0.00</rpm>
</extensions>
</trkpt>
<trkpt lat="64.130920410" lon="-20.321319580">
<ele>80.843750</ele>
<time>2012-07-20T17:04:44Z</time>
<speed>0.010000</speed>
<extensions>
<speed>0.0</speed>
<temp>0.00</temp>
<bpm>0</bpm>
<rpm>0.00</rpm>
</extensions>
</trkpt>
<trkpt lat="64.130920410" lon="-20.321319580">
<ele>80.845703</ele>
<time>2012-07-20T17:04:49Z</time>
<extensions>
<speed>0.0</speed>
<temp>0.00</temp>
<bpm>0</bpm>
<rpm>0.00</rpm>
</extensions>
</trkpt>
<trkpt lat="64.130920410" lon="-20.321319580">
<ele>80.845703</ele>
<time>2012-07-20T17:04:54Z</time>
<speed>0.010000</speed>
<extensions>
<speed>0.0</speed>
<temp>0.00</temp>
<bpm>0</bpm>
<rpm>0.00</rpm>
</extensions>
</trkpt>
<trkpt lat="64.130920410" lon="-20.321317673">
<ele>80.837891</ele>
<time>2012-07-20T17:04:59Z</time>
<extensions>
<speed>0.0</speed>
<temp>0.00</temp>
<bpm>0</bpm>
<rpm>0.00</rpm>
</extensions>
</trkpt>
<trkpt lat="64.130920410" lon="-20.321317673">
<ele>80.818359</ele>
<time>2012-07-20T17:05:04Z</time>
<extensions>
<speed>0.0</speed>
<temp>0.00</temp>
<bpm>0</bpm>
<rpm>0.00</rpm>
</extensions>
</trkpt>
<trkpt lat="64.130912781" lon="-20.321315765">
<ele>80.820313</ele>
<time>2012-07-20T17:05:09Z</time>
<speed>0.020000</speed>
<extensions>
<speed>0.0</speed>
<temp>0.00</temp>
<bpm>0</bpm>
<rpm>0.00</rpm>
</extensions>
</trkpt>
<trkpt lat="64.130912781" lon="-20.321315765">
<ele>80.830078</ele>
<time>2012-07-20T17:05:14Z</time>
<extensions>
<speed>0.0</speed>
<temp>0.00</temp>
<bpm>0</bpm>
<rpm>0.00</rpm>
</extensions>
</trkpt>
<trkpt lat="64.130912781" lon="-20.321315765">
<ele>80.832031</ele>
<time>2012-07-20T17:05:19Z</time>
<speed>0.020000</speed>
<extensions>
<speed>0.0</speed>
<temp>0.00</temp>
<bpm>0</bpm>
<rpm>0.00</rpm>
</extensions>
</trkpt>
<trkpt lat="64.130912781" lon="-20.321315765">
<ele>80.832031</ele>
<time>2012-07-20T17:05:24Z</time>
<speed>0.040000</speed>
<extensions>
<speed>0.0</speed>
<temp>0.00</temp>
<bpm>0</bpm>
<rpm>0.00</rpm>
</extensions>
</trkpt>
<trkpt lat="64.130920410" lon="-20.321313858">
<ele>80.859375</ele>
<time>2012-07-20T17:05:29Z</time>
<speed>0.030000</speed>
<extensions>
<speed>0.0</speed>
<temp>0.00</temp>
<bpm>0</bpm>
<rpm>0.00</rpm>
</extensions>
</trkpt>
<trkpt lat="64.130920410" lon="-20.321313858">
<ele>80.886719</ele>
<time>2012-07-20T17:05:34Z</time>
<speed>0.010000</speed>
<extensions>
<speed>0.0</speed>
<temp>0.00</temp>
<bpm>0</bpm>
<rpm>0.00</rpm>
</extensions>
</trkpt>
<trkpt lat="64.130920410" lon="-20.321313858">
<ele>80.933594</ele>
<time>2012-07-20T17:05:39Z</time>
<speed>0.010000</speed>
<extensions>
<speed>0.0</speed>
<temp>0.00</temp>
<bpm>0</bpm>
<rpm>0.00</rpm>
</extensions>
</trkpt>
<trkpt lat="64.130920410" lon="-20.321313858">
<ele>80.972656</ele>
<time>2012-07-20T17:05:44Z</time>
<speed>0.020000</speed>
<extensions>
<speed>0.0</speed>
<temp>0.00</temp>
<bpm>0</bpm>
<rpm>0.00</rpm>
</extensions>
</trkpt>
<trkpt lat="64.130920410" lon="-20.321313858">
<ele>80.992188</ele>
<time>2012-07-20T17:05:49Z</time>
<speed>0.030000</speed>
<extensions>
<speed>0.0</speed>
<temp>0.00</temp>
<bpm>0</bpm>
<rpm>0.00</rpm>
</extensions>
</trkpt>
<trkpt lat="64.130912781" lon="-20.321313858">
<ele>81.031250</ele>
<time>2012-07-20T17:05:54Z</time>
<extensions>
<speed>0.0</speed>
<temp>0.00</temp>
<bpm>0</bpm>
<rpm>0.00</rpm>
</extensions>
</trkpt>
<trkpt lat="64.130912781" lon="-20.321313858">
<ele>81.062500</ele>
<time>2012-07-20T17:05:59Z</time>
<extensions>
<speed>0.0</speed>
<temp>0.00</temp>
<bpm>0</bpm>
<rpm>0.00</rpm>
</extensions>
</trkpt>
<trkpt lat="64.130912781" lon="-20.321313858">
<ele>81.068359</ele>
<time>2012-07-20T17:06:04Z</time>
<extensions>
<speed>0.0</speed>
<temp>0.00</temp>
<bpm>0</bpm>
<rpm>0.00</rpm>
</extensions>
</trkpt>
<trkpt lat="64.130912781" lon="-20.321313858">
<ele>81.062500</ele>
<time>2012-07-20T17:06:09Z</time>
<extensions>
<speed>0.0</speed>
<temp>0.00</temp>
<bpm>0</bpm>
<rpm>0.00</rpm>
</extensions>
</trkpt>
<trkpt lat="64.130912781" lon="-20.321313858">
<ele>81.076172</ele>
<time>2012-07-20T17:06:14Z</time>
<extensions>
<speed>0.0</speed>
<temp>0.00</temp>
<bpm>0</bpm>
<rpm>0.00</rpm>
</extensions>
</trkpt>
<trkpt lat="64.130912781" lon="-20.321313858">
<ele>81.087891</ele>
<time>2012-07-20T17:06:19Z</time>
<speed>0.020000</speed>
<extensions>
<speed>0.0</speed>
<temp>0.00</temp>
<bpm>0</bpm>
<rpm>0.00</rpm>
</extensions>
</trkpt>
<trkpt lat="64.130912781" lon="-20.321313858">
<ele>81.091797</ele>
<time>2012-07-20T17:06:24Z</time>
<extensions>
<speed>0.0</speed>
<temp>0.00</temp>
<bpm>0</bpm>
<rpm>0.00</rpm>
</extensions>
</trkpt>
<trkpt lat="64.130912781" lon="-20.321315765">
<ele>81.097656</ele>
<time>2012-07-20T17:06:29Z</time>
<speed>0.010000</speed>
<extensions>
<speed>0.0</speed>
<temp>0.00</temp>
<bpm>0</bpm>
<rpm>0.00</rpm>
</extensions>
</trkpt>
<trkpt lat="64.130912781" lon="-20.321315765">
<ele>81.142578</ele>
<time>2012-07-20T17:06:34Z</time>
<speed>0.010000</speed>
<extensions>
<speed>0.0</speed>
<temp>0.00</temp>
<bpm>0</bpm>
<rpm>0.00</rpm>
</extensions>
</trkpt>
<trkpt lat="64.130912781" lon="-20.321315765">
<ele>81.216797</ele>
<time>2012-07-20T17:06:39Z</time>
<speed>0.010000</speed>
<extensions>
<speed>0.0</speed>
<temp>0.00</temp>
<bpm>0</bpm>
<rpm>0.00</rpm>
</extensions>
</trkpt>
<trkpt lat="64.130912781" lon="-20.321313858">
<ele>81.257813</ele>
<time>2012-07-20T17:06:44Z</time>
<extensions>
<speed>0.0</speed>
<temp>0.00</temp>
<bpm>0</bpm>
<rpm>0.00</rpm>
</extensions>
</trkpt>
<trkpt lat="64.130912781" lon="-20.321313858">
<ele>81.320313</ele>
<time>2012-07-20T17:06:49Z</time>
<speed>0.030000</speed>
<extensions>
<speed>0.0</speed>
<temp>0.00</temp>
<bpm>0</bpm>
<rpm>0.00</rpm>
</extensions>
</trkpt>
<trkpt lat="64.130912781" lon="-20.321313858">
<ele>81.388672</ele>
<time>2012-07-20T17:06:54Z</time>
<speed>0.020000</speed>
<extensions>
<speed>0.0</speed>
<temp>0.00</temp>
<bpm>0</bpm>
<rpm>0.00</rpm>
</extensions>
</trkpt>
<trkpt lat="64.130912781" lon="-20.321313858">
<ele>81.425781</ele>
<time>2012-07-20T17:06:59Z</time>
<speed>0.010000</speed>
<extensions>
<speed>0.0</speed>
<temp>0.00</temp>
<bpm>0</bpm>
<rpm>0.00</rpm>
</extensions>
</trkpt>
<trkpt lat="64.130920410" lon="-20.321313858">
<ele>81.474609</ele>
<time>2012-07-20T17:07:04Z</time>
<speed>0.020000</speed>
<extensions>
<speed>0.0</speed>
<temp>0.00</temp>
<bpm>0</bpm>
<rpm>0.00</rpm>
</extensions>
</trkpt>
<trkpt lat="64.130920410" lon="-20.321313858">
<ele>81.513672</ele>
<time>2012-07-20T17:07:09Z</time>
<extensions>
<speed>0.0</speed>
<temp>0.00</temp>
<bpm>0</bpm>
<rpm>0.00</rpm>
</extensions>
</trkpt>
<trkpt lat="64.130920410" lon="-20.321313858">
<ele>81.554688</ele>
<time>2012-07-20T17:07:14Z</time>
<speed>0.030000</speed>
<extensions>
<speed>0.0</speed>
<temp>0.00</temp>
<bpm>0</bpm>
<rpm>0.00</rpm>
</extensions>
</trkpt>
<trkpt lat="64.130920410" lon="-20.321315765">
<ele>81.595703</ele>
<time>2012-07-20T17:07:19Z</time>
<extensions>
<speed>0.0</speed>
<temp>0.00</temp>
<bpm>0</bpm>
<rpm>0.00</rpm>
</extensions>
</trkpt>
<trkpt lat="64.130920410" lon="-20.321315765">
<ele>81.650391</ele>
<time>2012-07-20T17:07:24Z</time>
<speed>0.010000</speed>
<extensions>
<speed>0.0</speed>
<temp>0.00</temp>
<bpm>0</bpm>
<rpm>0.00</rpm>
</extensions>
</trkpt>
<trkpt lat="64.130920410" lon="-20.321315765">
<ele>81.681641</ele>
<time>2012-07-20T17:07:29Z</time>
<speed>0.010000</speed>
<extensions>
<speed>0.0</speed>
<temp>0.00</temp>
<bpm>0</bpm>
<rpm>0.00</rpm>
</extensions>
</trkpt>
<trkpt lat="64.130920410" lon="-20.321315765">
<ele>81.710938</ele>
<time>2012-07-20T17:07:34Z</time>
<speed>0.020000</speed>
<extensions>
<speed>0.0</speed>
<temp>0.00</temp>
<bpm>0</bpm>
<rpm>0.00</rpm>
</extensions>
</trkpt>
<trkpt lat="64.130920410" lon="-20.321313858">
<ele>81.734375</ele>
<time>2012-07-20T17:07:39Z</time>
<speed>0.030000</speed>
<extensions>
<speed>0.0</speed>
<temp>0.00</temp>
<bpm>0</bpm>
<rpm>0.00</rpm>
</extensions>
</trkpt>
<trkpt lat="64.130920410" lon="-20.321313858">
<ele>81.742188</ele>
<time>2012-07-20T17:07:44Z</time>
<speed>0.020000</speed>
<extensions>
<speed>0.0</speed>
<temp>0.00</temp>
<bpm>0</bpm>
<rpm>0.00</rpm>
</extensions>
</trkpt>
<trkpt lat="64.130920410" lon="-20.321313858">
<ele>81.763672</ele>
<time>2012-07-20T17:07:49Z</time>
<speed>0.030000</speed>
<extensions>
<speed>0.0</speed>
<temp>0.00</temp>
<bpm>0</bpm>
<rpm>0.00</rpm>
</extensions>
</trkpt>
<trkpt lat="64.130920410" lon="-20.321313858">
<ele>81.779297</ele>
<time>2012-07-20T17:07:54Z</time>
<speed>0.010000</speed>
<extensions>
<speed>0.0</speed>
<temp>0.00</temp>
<bpm>0</bpm>
<rpm>0.00</rpm>
</extensions>
</trkpt>
<trkpt lat="64.130920410" lon="-20.321313858">
<ele>81.794922</ele>
<time>2012-07-20T17:07:59Z</time>
<speed>0.010000</speed>
<extensions>
<speed>0.0</speed>
<temp>0.00</temp>
<bpm>0</bpm>
<rpm>0.00</rpm>
</extensions>
</trkpt>
<trkpt lat="64.130920410" lon="-20.321313858">
<ele>81.851563</ele>
<time>2012-07-20T17:08:04Z</time>
<extensions>
<speed>0.0</speed>
<temp>0.00</temp>
<bpm>0</bpm>
<rpm>0.00</rpm>
</extensions>
</trkpt>
<trkpt lat="64.130920410" lon="-20.321313858">
<ele>81.914063</ele>
<time>2012-07-20T17:08:09Z</time>
<extensions>
<speed>0.0</speed>
<temp>0.00</temp>
<bpm>0</bpm>
<rpm>0.00</rpm>
</extensions>
</trkpt>
<trkpt lat="64.130920410" lon="-20.321313858">
<ele>81.941406</ele>
<time>2012-07-20T17:08:14Z</time>
<speed>0.010000</speed>
<extensions>
<speed>0.0</speed>
<temp>0.00</temp>
<bpm>0</bpm>
<rpm>0.00</rpm>
</extensions>
</trkpt>
<trkpt lat="64.130920410" lon="-20.321313858">
<ele>81.968750</ele>
<time>2012-07-20T17:08:19Z</time>
<speed>0.020000</speed>
<extensions>
<speed>0.0</speed>
<temp>0.00</temp>
<bpm>0</bpm>
<rpm>0.00</rpm>
</extensions>
</trkpt>
<trkpt lat="64.130920410" lon="-20.321313858">
<ele>81.998047</ele>
<time>2012-07-20T17:08:24Z</time>
<extensions>
<speed>0.0</speed>
<temp>0.00</temp>
<bpm>0</bpm>
<rpm>0.00</rpm>
</extensions>
</trkpt>
<trkpt lat="64.130920410" lon="-20.321313858">
<ele>81.992188</ele>
<time>2012-07-20T17:08:29Z</time>
<speed>0.010000</speed>
<extensions>
<speed>0.0</speed>
<temp>0.00</temp>
<bpm>0</bpm>
<rpm>0.00</rpm>
</extensions>
</trkpt>
<trkpt lat="64.130920410" lon="-20.321313858">
<ele>81.992188</ele>
<time>2012-07-20T17:08:34Z</time>
<extensions>
<speed>0.0</speed>
<temp>0.00</temp>
<bpm>0</bpm>
<rpm>0.00</rpm>
</extensions>
</trkpt>
<trkpt lat="64.130920410" lon="-20.321313858">
<ele>81.982422</ele>
<time>2012-07-20T17:08:39Z</time>
<extensions>
<speed>0.0</speed>
<temp>0.00</temp>
<bpm>0</bpm>
<rpm>0.00</rpm>
</extensions>
</trkpt>
<trkpt lat="64.130920410" lon="-20.321313858">
<ele>81.974609</ele>
<time>2012-07-20T17:08:44Z</time>
<extensions>
<speed>0.0</speed>
<temp>0.00</temp>
<bpm>0</bpm>
<rpm>0.00</rpm>
</extensions>
</trkpt>
<trkpt lat="64.130920410" lon="-20.321313858">
<ele>81.980469</ele>
<time>2012-07-20T17:08:49Z</time>
<speed>0.010000</speed>
<extensions>
<speed>0.0</speed>
<temp>0.00</temp>
<bpm>0</bpm>
<rpm>0.00</rpm>
</extensions>
</trkpt>
<trkpt lat="64.130920410" lon="-20.321313858">
<ele>82.009766</ele>
<time>2012-07-20T17:08:54Z</time>
<extensions>
<speed>0.0</speed>
<temp>0.00</temp>
<bpm>0</bpm>
<rpm>0.00</rpm>
</extensions>
</trkpt>
<trkpt lat="64.130920410" lon="-20.321313858">
<ele>82.027344</ele>
<time>2012-07-20T17:08:59Z</time>
<speed>0.010000</speed>
<extensions>
<speed>0.0</speed>
<temp>0.00</temp>
<bpm>0</bpm>
<rpm>0.00</rpm>
</extensions>
</trkpt>
<trkpt lat="64.130920410" lon="-20.321313858">
<ele>82.046875</ele>
<time>2012-07-20T17:09:04Z</time>
<speed>0.010000</speed>
<extensions>
<speed>0.0</speed>
<temp>0.00</temp>
<bpm>0</bpm>
<rpm>0.00</rpm>
</extensions>
</trkpt>
<trkpt lat="64.130920410" lon="-20.321313858">
<ele>82.062500</ele>
<time>2012-07-20T17:09:09Z</time>
<extensions>
<speed>0.0</speed>
<temp>0.00</temp>
<bpm>0</bpm>
<rpm>0.00</rpm>
</extensions>
</trkpt>
<trkpt lat="64.130920410" lon="-20.321313858">
<ele>82.101563</ele>
<time>2012-07-20T17:09:14Z</time>
<extensions>
<speed>0.0</speed>
<temp>0.00</temp>
<bpm>0</bpm>
<rpm>0.00</rpm>
</extensions>
</trkpt>
<trkpt lat="64.130920410" lon="-20.321313858">
<ele>82.160156</ele>
<time>2012-07-20T17:09:19Z</time>
<speed>0.010000</speed>
<extensions>
<speed>0.0</speed>
<temp>0.00</temp>
<bpm>0</bpm>
<rpm>0.00</rpm>
</extensions>
</trkpt>
<trkpt lat="64.130920410" lon="-20.321313858">
<ele>82.212891</ele>
<time>2012-07-20T17:09:24Z</time>
<extensions>
<speed>0.0</speed>
<temp>0.00</temp>
<bpm>0</bpm>
<rpm>0.00</rpm>
</extensions>
</trkpt>
<trkpt lat="64.130920410" lon="-20.321313858">
<ele>82.291016</ele>
<time>2012-07-20T17:09:29Z</time>
<speed>0.010000</speed>
<extensions>
<speed>0.0</speed>
<temp>0.00</temp>
<bpm>0</bpm>
<rpm>0.00</rpm>
</extensions>
</trkpt>
<trkpt lat="64.130920410" lon="-20.321313858">
<ele>82.378906</ele>
<time>2012-07-20T17:09:34Z</time>
<extensions>
<speed>0.0</speed>
<temp>0.00</temp>
<bpm>0</bpm>
<rpm>0.00</rpm>
</extensions>
</trkpt>
<trkpt lat="64.130920410" lon="-20.321313858">
<ele>82.427734</ele>
<time>2012-07-20T17:09:39Z</time>
<speed>0.020000</speed>
<extensions>
<speed>0.0</speed>
<temp>0.00</temp>
<bpm>0</bpm>
<rpm>0.00</rpm>
</extensions>
</trkpt>
<trkpt lat="64.130920410" lon="-20.321311951">
<ele>82.486328</ele>
<time>2012-07-20T17:09:44Z</time>
<speed>0.010000</speed>
<extensions>
<speed>0.0</speed>
<temp>0.00</temp>
<bpm>0</bpm>
<rpm>0.00</rpm>
</extensions>
</trkpt>
<trkpt lat="64.130928040" lon="-20.321311951">
<ele>82.550781</ele>
<time>2012-07-20T17:09:49Z</time>
<speed>0.030000</speed>
<extensions>
<speed>0.0</speed>
<temp>0.00</temp>
<bpm>0</bpm>
<rpm>0.00</rpm>
</extensions>
</trkpt>
<trkpt lat="64.130928040" lon="-20.321311951">
<ele>82.621094</ele>
<time>2012-07-20T17:09:54Z</time>
<extensions>
<speed>0.0</speed>
<temp>0.00</temp>
<bpm>0</bpm>
<rpm>0.00</rpm>
</extensions>
</trkpt>
<trkpt lat="64.130928040" lon="-20.321311951">
<ele>82.689453</ele>
<time>2012-07-20T17:09:59Z</time>
<speed>0.030000</speed>
<extensions>
<speed>0.0</speed>
<temp>0.00</temp>
<bpm>0</bpm>
<rpm>0.00</rpm>
</extensions>
</trkpt>
<trkpt lat="64.130928040" lon="-20.321310043">
<ele>82.798828</ele>
<time>2012-07-20T17:10:04Z</time>
<speed>0.030000</speed>
<extensions>
<speed>0.0</speed>
<temp>0.00</temp>
<bpm>0</bpm>
<rpm>0.00</rpm>
</extensions>
</trkpt>
<trkpt lat="64.130928040" lon="-20.321310043">
<ele>82.906250</ele>
<time>2012-07-20T17:10:09Z</time>
<speed>0.010000</speed>
<extensions>
<speed>0.0</speed>
<temp>0.00</temp>
<bpm>0</bpm>
<rpm>0.00</rpm>
</extensions>
</trkpt>
<trkpt lat="64.130928040" lon="-20.321308136">
<ele>82.980469</ele>
<time>2012-07-20T17:10:14Z</time>
<speed>0.010000</speed>
<extensions>
<speed>0.0</speed>
<temp>0.00</temp>
<bpm>0</bpm>
<rpm>0.00</rpm>
</extensions>
</trkpt>
<trkpt lat="64.130928040" lon="-20.321310043">
<ele>83.017578</ele>
<time>2012-07-20T17:10:19Z</time>
<speed>0.010000</speed>
<extensions>
<speed>0.0</speed>
<temp>0.00</temp>
<bpm>0</bpm>
<rpm>0.00</rpm>
</extensions>
</trkpt>
<trkpt lat="64.130928040" lon="-20.321310043">
<ele>83.046875</ele>
<time>2012-07-20T17:10:24Z</time>
<speed>0.020000</speed>
<extensions>
<speed>0.0</speed>
<temp>0.00</temp>
<bpm>0</bpm>
<rpm>0.00</rpm>
</extensions>
</trkpt>
<trkpt lat="64.130928040" lon="-20.321310043">
<ele>83.082031</ele>
<time>2012-07-20T17:10:29Z</time>
<speed>0.030000</speed>
<extensions>
<speed>0.0</speed>
<temp>0.00</temp>
<bpm>0</bpm>
<rpm>0.00</rpm>
</extensions>
</trkpt>
<trkpt lat="64.130928040" lon="-20.321308136">
<ele>83.117188</ele>
<time>2012-07-20T17:10:34Z</time>
<speed>0.010000</speed>
<extensions>
<speed>0.0</speed>
<temp>0.00</temp>
<bpm>0</bpm>
<rpm>0.00</rpm>
</extensions>
</trkpt>
<trkpt lat="64.130928040" lon="-20.321308136">
<ele>83.140625</ele>
<time>2012-07-20T17:10:39Z</time>
<speed>0.020000</speed>
<extensions>
<speed>0.0</speed>
<temp>0.00</temp>
<bpm>0</bpm>
<rpm>0.00</rpm>
</extensions>
</trkpt>
<trkpt lat="64.130928040" lon="-20.321310043">
<ele>83.164063</ele>
<time>2012-07-20T17:10:44Z</time>
<speed>0.030000</speed>
<extensions>
<speed>0.0</speed>
<temp>0.00</temp>
<bpm>0</bpm>
<rpm>0.00</rpm>
</extensions>
</trkpt>
<trkpt lat="64.130928040" lon="-20.321310043">
<ele>83.173828</ele>
<time>2012-07-20T17:10:49Z</time>
<speed>0.020000</speed>
<extensions>
<speed>0.0</speed>
<temp>0.00</temp>
<bpm>0</bpm>
<rpm>0.00</rpm>
</extensions>
</trkpt>
<trkpt lat="64.130928040" lon="-20.321310043">
<ele>83.181641</ele>
<time>2012-07-20T17:10:54Z</time>
<speed>0.010000</speed>
<extensions>
<speed>0.0</speed>
<temp>0.00</temp>
<bpm>0</bpm>
<rpm>0.00</rpm>
</extensions>
</trkpt>
<trkpt lat="64.130928040" lon="-20.321310043">
<ele>83.220703</ele>
<time>2012-07-20T17:10:59Z</time>
<extensions>
<speed>0.0</speed>
<temp>0.00</temp>
<bpm>0</bpm>
<rpm>0.00</rpm>
</extensions>
</trkpt>
<trkpt lat="64.130928040" lon="-20.321311951">
<ele>83.242188</ele>
<time>2012-07-20T17:11:04Z</time>
<speed>0.010000</speed>
<extensions>
<speed>0.0</speed>
<temp>0.00</temp>
<bpm>0</bpm>
<rpm>0.00</rpm>
</extensions>
</trkpt>
<trkpt lat="64.130928040" lon="-20.321311951">
<ele>83.228516</ele>
<time>2012-07-20T17:11:09Z</time>
<speed>0.010000</speed>
<extensions>
<speed>0.0</speed>
<temp>0.00</temp>
<bpm>0</bpm>
<rpm>0.00</rpm>
</extensions>
</trkpt>
<trkpt lat="64.130928040" lon="-20.321313858">
<ele>83.230469</ele>
<time>2012-07-20T17:11:14Z</time>
<speed>0.020000</speed>
<extensions>
<speed>0.0</speed>
<temp>0.00</temp>
<bpm>0</bpm>
<rpm>0.00</rpm>
</extensions>
</trkpt>
<trkpt lat="64.130928040" lon="-20.321313858">
<ele>83.253906</ele>
<time>2012-07-20T17:11:19Z</time>
<extensions>
<speed>0.0</speed>
<temp>0.00</temp>
<bpm>0</bpm>
<rpm>0.00</rpm>
</extensions>
</trkpt>
<trkpt lat="64.130928040" lon="-20.321313858">
<ele>83.343750</ele>
<time>2012-07-20T17:11:24Z</time>
<speed>0.020000</speed>
<extensions>
<speed>0.0</speed>
<temp>0.00</temp>
<bpm>0</bpm>
<rpm>0.00</rpm>
</extensions>
</trkpt>
<trkpt lat="64.130928040" lon="-20.321311951">
<ele>83.417969</ele>
<time>2012-07-20T17:11:29Z</time>
<speed>0.010000</speed>
<extensions>
<speed>0.0</speed>
<temp>0.00</temp>
<bpm>0</bpm>
<rpm>0.00</rpm>
</extensions>
</trkpt>
<trkpt lat="64.130928040" lon="-20.321311951">
<ele>83.476563</ele>
<time>2012-07-20T17:11:34Z</time>
<speed>0.010000</speed>
<extensions>
<speed>0.0</speed>
<temp>0.00</temp>
<bpm>0</bpm>
<rpm>0.00</rpm>
</extensions>
</trkpt>
<trkpt lat="64.130928040" lon="-20.321311951">
<ele>83.537109</ele>
<time>2012-07-20T17:11:39Z</time>
<speed>0.010000</speed>
<extensions>
<speed>0.0</speed>
<temp>0.00</temp>
<bpm>0</bpm>
<rpm>0.00</rpm>
</extensions>
</trkpt>
<trkpt lat="64.130928040" lon="-20.321311951">
<ele>83.630859</ele>
<time>2012-07-20T17:11:44Z</time>
<speed>0.010000</speed>
<extensions>
<speed>0.0</speed>
<temp>0.00</temp>
<bpm>0</bpm>
<rpm>0.00</rpm>
</extensions>
</trkpt>
<trkpt lat="64.130928040" lon="-20.321311951">
<ele>83.712891</ele>
<time>2012-07-20T17:11:49Z</time>
<extensions>
<speed>0.0</speed>
<temp>0.00</temp>
<bpm>0</bpm>
<rpm>0.00</rpm>
</extensions>
</trkpt>
<trkpt lat="64.130928040" lon="-20.321313858">
<ele>83.781250</ele>
<time>2012-07-20T17:11:54Z</time>
<speed>0.020000</speed>
<extensions>
<speed>0.0</speed>
<temp>0.00</temp>
<bpm>0</bpm>
<rpm>0.00</rpm>
</extensions>
</trkpt>
<trkpt lat="64.130928040" lon="-20.321313858">
<ele>83.851563</ele>
<time>2012-07-20T17:11:59Z</time>
<speed>0.020000</speed>
<extensions>
<speed>0.0</speed>
<temp>0.00</temp>
<bpm>0</bpm>
<rpm>0.00</rpm>
</extensions>
</trkpt>
<trkpt lat="64.130928040" lon="-20.321315765">
<ele>83.900391</ele>
<time>2012-07-20T17:12:04Z</time>
<speed>0.020000</speed>
<extensions>
<speed>0.0</speed>
<temp>0.00</temp>
<bpm>0</bpm>
<rpm>0.00</rpm>
</extensions>
</trkpt>
<trkpt lat="64.130928040" lon="-20.321315765">
<ele>83.945313</ele>
<time>2012-07-20T17:12:09Z</time>
<speed>0.040000</speed>
<extensions>
<speed>0.0</speed>
<temp>0.00</temp>
<bpm>0</bpm>
<rpm>0.00</rpm>
</extensions>
</trkpt>
<trkpt lat="64.130928040" lon="-20.321317673">
<ele>84.017578</ele>
<time>2012-07-20T17:12:14Z</time>
<speed>0.040000</speed>
<extensions>
<speed>0.0</speed>
<temp>0.00</temp>
<bpm>0</bpm>
<rpm>0.00</rpm>
</extensions>
</trkpt>
<trkpt lat="64.130928040" lon="-20.321319580">
<ele>84.054688</ele>
<time>2012-07-20T17:12:19Z</time>
<extensions>
<speed>0.0</speed>
<temp>0.00</temp>
<bpm>0</bpm>
<rpm>0.00</rpm>
</extensions>
</trkpt>
<trkpt lat="64.130928040" lon="-20.321319580">
<ele>84.066406</ele>
<time>2012-07-20T17:12:24Z</time>
<speed>0.030000</speed>
<extensions>
<speed>0.0</speed>
<temp>0.00</temp>
<bpm>0</bpm>
<rpm>0.00</rpm>
</extensions>
</trkpt>
<trkpt lat="64.130928040" lon="-20.321319580">
<ele>84.029297</ele>
<time>2012-07-20T17:12:29Z</time>
<speed>0.020000</speed>
<extensions>
<speed>0.0</speed>
<temp>0.00</temp>
<bpm>0</bpm>
<rpm>0.00</rpm>
</extensions>
</trkpt>
<trkpt lat="64.130928040" lon="-20.321317673">
<ele>84.023438</ele>
<time>2012-07-20T17:12:34Z</time>
<extensions>
<speed>0.0</speed>
<temp>0.00</temp>
<bpm>0</bpm>
<rpm>0.00</rpm>
</extensions>
</trkpt>
<trkpt lat="64.130928040" lon="-20.321317673">
<ele>84.085938</ele>
<time>2012-07-20T17:12:39Z</time>
<speed>0.010000</speed>
<extensions>
<speed>0.0</speed>
<temp>0.00</temp>
<bpm>0</bpm>
<rpm>0.00</rpm>
</extensions>
</trkpt>
<trkpt lat="64.130928040" lon="-20.321317673">
<ele>84.105469</ele>
<time>2012-07-20T17:12:44Z</time>
<speed>0.040000</speed>
<extensions>
<speed>0.0</speed>
<temp>0.00</temp>
<bpm>0</bpm>
<rpm>0.00</rpm>
</extensions>
</trkpt>
<trkpt lat="64.130928040" lon="-20.321315765">
<ele>84.140625</ele>
<time>2012-07-20T17:12:49Z</time>
<speed>0.030000</speed>
<extensions>
<speed>0.0</speed>
<temp>0.00</temp>
<bpm>0</bpm>
<rpm>0.00</rpm>
</extensions>
</trkpt>
<trkpt lat="64.130928040" lon="-20.321315765">
<ele>84.189453</ele>
<time>2012-07-20T17:12:54Z</time>
<speed>0.010000</speed>
<extensions>
<speed>0.0</speed>
<temp>0.00</temp>
<bpm>0</bpm>
<rpm>0.00</rpm>
</extensions>
</trkpt>
<trkpt lat="64.130928040" lon="-20.321315765">
<ele>84.208984</ele>
<time>2012-07-20T17:12:59Z</time>
<speed>0.010000</speed>
<extensions>
<speed>0.0</speed>
<temp>0.00</temp>
<bpm>0</bpm>
<rpm>0.00</rpm>
</extensions>
</trkpt>
<trkpt lat="64.130928040" lon="-20.321315765">
<ele>84.208984</ele>
<time>2012-07-20T17:13:04Z</time>
<extensions>
<speed>0.0</speed>
<temp>0.00</temp>
<bpm>0</bpm>
<rpm>0.00</rpm>
</extensions>
</trkpt>
<trkpt lat="64.130928040" lon="-20.321313858">
<ele>84.224609</ele>
<time>2012-07-20T17:13:09Z</time>
<speed>0.040000</speed>
<extensions>
<speed>0.0</speed>
<temp>0.00</temp>
<bpm>0</bpm>
<rpm>0.00</rpm>
</extensions>
</trkpt>
<trkpt lat="64.130928040" lon="-20.321313858">
<ele>84.255859</ele>
<time>2012-07-20T17:13:14Z</time>
<speed>0.040000</speed>
<extensions>
<speed>0.0</speed>
<temp>0.00</temp>
<bpm>0</bpm>
<rpm>0.00</rpm>
</extensions>
</trkpt>
<trkpt lat="64.130928040" lon="-20.321311951">
<ele>84.283203</ele>
<time>2012-07-20T17:13:19Z</time>
<speed>0.030000</speed>
<extensions>
<speed>0.0</speed>
<temp>0.00</temp>
<bpm>0</bpm>
<rpm>0.00</rpm>
</extensions>
</trkpt>
<trkpt lat="64.130928040" lon="-20.321311951">
<ele>84.289063</ele>
<time>2012-07-20T17:13:24Z</time>
<speed>0.030000</speed>
<extensions>
<speed>0.0</speed>
<temp>0.00</temp>
<bpm>0</bpm>
<rpm>0.00</rpm>
</extensions>
</trkpt>
<trkpt lat="64.130928040" lon="-20.321311951">
<ele>84.296875</ele>
<time>2012-07-20T17:13:29Z</time>
<speed>0.010000</speed>
<extensions>
<speed>0.0</speed>
<temp>0.00</temp>
<bpm>0</bpm>
<rpm>0.00</rpm>
</extensions>
</trkpt>
<trkpt lat="64.130928040" lon="-20.321311951">
<ele>84.308594</ele>
<time>2012-07-20T17:13:34Z</time>
<speed>0.020000</speed>
<extensions>
<speed>0.0</speed>
<temp>0.00</temp>
<bpm>0</bpm>
<rpm>0.00</rpm>
</extensions>
</trkpt>
<trkpt lat="64.130928040" lon="-20.321311951">
<ele>84.312500</ele>
<time>2012-07-20T17:13:39Z</time>
<speed>0.020000</speed>
<extensions>
<speed>0.0</speed>
<temp>0.00</temp>
<bpm>0</bpm>
<rpm>0.00</rpm>
</extensions>
</trkpt>
<trkpt lat="64.130928040" lon="-20.321313858">
<ele>84.339844</ele>
<time>2012-07-20T17:13:44Z</time>
<extensions>
<speed>0.0</speed>
<temp>0.00</temp>
<bpm>0</bpm>
<rpm>0.00</rpm>
</extensions>
</trkpt>
<trkpt lat="64.130928040" lon="-20.321313858">
<ele>84.402344</ele>
<time>2012-07-20T17:13:49Z</time>
<speed>0.040000</speed>
<extensions>
<speed>0.0</speed>
<temp>0.00</temp>
<bpm>0</bpm>
<rpm>0.00</rpm>
</extensions>
</trkpt>
<trkpt lat="64.130928040" lon="-20.321313858">
<ele>84.447266</ele>
<time>2012-07-20T17:13:54Z</time>
<speed>0.010000</speed>
<extensions>
<speed>0.0</speed>
<temp>0.00</temp>
<bpm>0</bpm>
<rpm>0.00</rpm>
</extensions>
</trkpt>
<trkpt lat="64.130928040" lon="-20.321313858">
<ele>84.472656</ele>
<time>2012-07-20T17:13:59Z</time>
<speed>0.010000</speed>
<extensions>
<speed>0.0</speed>
<temp>0.00</temp>
<bpm>0</bpm>
<rpm>0.00</rpm>
</extensions>
</trkpt>
<trkpt lat="64.130928040" lon="-20.321311951">
<ele>84.513672</ele>
<time>2012-07-20T17:14:04Z</time>
<speed>0.030000</speed>
<extensions>
<speed>0.0</speed>
<temp>0.00</temp>
<bpm>0</bpm>
<rpm>0.00</rpm>
</extensions>
</trkpt>
<trkpt lat="64.130928040" lon="-20.321311951">
<ele>84.537109</ele>
<time>2012-07-20T17:14:09Z</time>
<speed>0.030000</speed>
<extensions>
<speed>0.0</speed>
<temp>0.00</temp>
<bpm>0</bpm>
<rpm>0.00</rpm>
</extensions>
</trkpt>
<trkpt lat="64.130928040" lon="-20.321311951">
<ele>84.548828</ele>
<time>2012-07-20T17:14:14Z</time>
<extensions>
<speed>0.0</speed>
<temp>0.00</temp>
<bpm>0</bpm>
<rpm>0.00</rpm>
</extensions>
</trkpt>
<trkpt lat="64.130928040" lon="-20.321311951">
<ele>84.544922</ele>
<time>2012-07-20T17:14:19Z</time>
<speed>0.020000</speed>
<extensions>
<speed>0.0</speed>
<temp>0.00</temp>
<bpm>0</bpm>
<rpm>0.00</rpm>
</extensions>
</trkpt>
<trkpt lat="64.130928040" lon="-20.321313858">
<ele>84.546875</ele>
<time>2012-07-20T17:14:24Z</time>
<speed>0.020000</speed>
<extensions>
<speed>0.0</speed>
<temp>0.00</temp>
<bpm>0</bpm>
<rpm>0.00</rpm>
</extensions>
</trkpt>
<trkpt lat="64.130928040" lon="-20.321313858">
<ele>84.585938</ele>
<time>2012-07-20T17:14:29Z</time>
<speed>0.020000</speed>
<extensions>
<speed>0.0</speed>
<temp>0.00</temp>
<bpm>0</bpm>
<rpm>0.00</rpm>
</extensions>
</trkpt>
<trkpt lat="64.130928040" lon="-20.321311951">
<ele>84.605469</ele>
<time>2012-07-20T17:14:34Z</time>
<speed>0.030000</speed>
<extensions>
<speed>0.0</speed>
<temp>0.00</temp>
<bpm>0</bpm>
<rpm>0.00</rpm>
</extensions>
</trkpt>
<trkpt lat="64.130928040" lon="-20.321311951">
<ele>84.671875</ele>
<time>2012-07-20T17:14:39Z</time>
<speed>0.040000</speed>
<extensions>
<speed>0.0</speed>
<temp>0.00</temp>
<bpm>0</bpm>
<rpm>0.00</rpm>
</extensions>
</trkpt>
<trkpt lat="64.130928040" lon="-20.321310043">
<ele>84.755859</ele>
<time>2012-07-20T17:14:44Z</time>
<speed>0.050000</speed>
<extensions>
<speed>0.1</speed>
<temp>0.00</temp>
<bpm>0</bpm>
<rpm>0.00</rpm>
</extensions>
</trkpt>
<trkpt lat="64.130928040" lon="-20.321310043">
<ele>84.839844</ele>
<time>2012-07-20T17:14:49Z</time>
<speed>0.040000</speed>
<extensions>
<speed>0.0</speed>
<temp>0.00</temp>
<bpm>0</bpm>
<rpm>0.00</rpm>
</extensions>
</trkpt>
<trkpt lat="64.130928040" lon="-20.321310043">
<ele>84.896484</ele>
<time>2012-07-20T17:14:54Z</time>
<speed>0.020000</speed>
<extensions>
<speed>0.0</speed>
<temp>0.00</temp>
<bpm>0</bpm>
<rpm>0.00</rpm>
</extensions>
</trkpt>
<trkpt lat="64.130928040" lon="-20.321308136">
<ele>84.933594</ele>
<time>2012-07-20T17:14:59Z</time>
<speed>0.020000</speed>
<extensions>
<speed>0.0</speed>
<temp>0.00</temp>
<bpm>0</bpm>
<rpm>0.00</rpm>
</extensions>
</trkpt>
<trkpt lat="64.130935669" lon="-20.321308136">
<ele>85.005859</ele>
<time>2012-07-20T17:15:04Z</time>
<speed>0.010000</speed>
<extensions>
<speed>0.0</speed>
<temp>0.00</temp>
<bpm>0</bpm>
<rpm>0.00</rpm>
</extensions>
</trkpt>
<trkpt lat="64.130935669" lon="-20.321308136">
<ele>85.041016</ele>
<time>2012-07-20T17:15:09Z</time>
<speed>0.020000</speed>
<extensions>
<speed>0.0</speed>
<temp>0.00</temp>
<bpm>0</bpm>
<rpm>0.00</rpm>
</extensions>
</trkpt>
<trkpt lat="64.130935669" lon="-20.321308136">
<ele>85.072266</ele>
<time>2012-07-20T17:15:14Z</time>
<speed>0.020000</speed>
<extensions>
<speed>0.0</speed>
<temp>0.00</temp>
<bpm>0</bpm>
<rpm>0.00</rpm>
</extensions>
</trkpt>
<trkpt lat="64.130935669" lon="-20.321308136">
<ele>85.097656</ele>
<time>2012-07-20T17:15:19Z</time>
<speed>0.010000</speed>
<extensions>
<speed>0.0</speed>
<temp>0.00</temp>
<bpm>0</bpm>
<rpm>0.00</rpm>
</extensions>
</trkpt>
<trkpt lat="64.130935669" lon="-20.321308136">
<ele>85.136719</ele>
<time>2012-07-20T17:15:24Z</time>
<speed>0.030000</speed>
<extensions>
<speed>0.0</speed>
<temp>0.00</temp>
<bpm>0</bpm>
<rpm>0.00</rpm>
</extensions>
</trkpt>
<trkpt lat="64.130935669" lon="-20.321308136">
<ele>85.189453</ele>
<time>2012-07-20T17:15:29Z</time>
<speed>0.030000</speed>
<extensions>
<speed>0.0</speed>
<temp>0.00</temp>
<bpm>0</bpm>
<rpm>0.00</rpm>
</extensions>
</trkpt>
<trkpt lat="64.130935669" lon="-20.321308136">
<ele>85.203125</ele>
<time>2012-07-20T17:15:34Z</time>
<speed>0.010000</speed>
<extensions>
<speed>0.0</speed>
<temp>0.00</temp>
<bpm>0</bpm>
<rpm>0.00</rpm>
</extensions>
</trkpt>
<trkpt lat="64.130935669" lon="-20.321308136">
<ele>85.246094</ele>
<time>2012-07-20T17:15:39Z</time>
<speed>0.020000</speed>
<extensions>
<speed>0.0</speed>
<temp>0.00</temp>
<bpm>0</bpm>
<rpm>0.00</rpm>
</extensions>
</trkpt>
<trkpt lat="64.130935669" lon="-20.321308136">
<ele>85.283203</ele>
<time>2012-07-20T17:15:44Z</time>
<speed>0.010000</speed>
<extensions>
<speed>0.0</speed>
<temp>0.00</temp>
<bpm>0</bpm>
<rpm>0.00</rpm>
</extensions>
</trkpt>
<trkpt lat="64.130935669" lon="-20.321310043">
<ele>85.308594</ele>
<time>2012-07-20T17:15:49Z</time>
<speed>0.020000</speed>
<extensions>
<speed>0.0</speed>
<temp>0.00</temp>
<bpm>0</bpm>
<rpm>0.00</rpm>
</extensions>
</trkpt>
<trkpt lat="64.130935669" lon="-20.321310043">
<ele>85.386719</ele>
<time>2012-07-20T17:15:54Z</time>
<speed>0.020000</speed>
<extensions>
<speed>0.0</speed>
<temp>0.00</temp>
<bpm>0</bpm>
<rpm>0.00</rpm>
</extensions>
</trkpt>
<trkpt lat="64.130935669" lon="-20.321310043">
<ele>85.410156</ele>
<time>2012-07-20T17:15:59Z</time>
<speed>0.020000</speed>
<extensions>
<speed>0.0</speed>
<temp>0.00</temp>
<bpm>0</bpm>
<rpm>0.00</rpm>
</extensions>
</trkpt>
<trkpt lat="64.130935669" lon="-20.321310043">
<ele>85.425781</ele>
<time>2012-07-20T17:16:04Z</time>
<speed>0.010000</speed>
<extensions>
<speed>0.0</speed>
<temp>0.00</temp>
<bpm>0</bpm>
<rpm>0.00</rpm>
</extensions>
</trkpt>
<trkpt lat="64.130935669" lon="-20.321310043">
<ele>85.470703</ele>
<time>2012-07-20T17:16:09Z</time>
<speed>0.050000</speed>
<extensions>
<speed>0.1</speed>
<temp>0.00</temp>
<bpm>0</bpm>
<rpm>0.00</rpm>
</extensions>
</trkpt>
<trkpt lat="64.130935669" lon="-20.321308136">
<ele>85.498047</ele>
<time>2012-07-20T17:16:14Z</time>
<speed>0.040000</speed>
<extensions>
<speed>0.0</speed>
<temp>0.00</temp>
<bpm>0</bpm>
<rpm>0.00</rpm>
</extensions>
</trkpt>
<trkpt lat="64.130935669" lon="-20.321308136">
<ele>85.521484</ele>
<time>2012-07-20T17:16:19Z</time>
<speed>0.010000</speed>
<extensions>
<speed>0.0</speed>
<temp>0.00</temp>
<bpm>0</bpm>
<rpm>0.00</rpm>
</extensions>
</trkpt>
<trkpt lat="64.130935669" lon="-20.321306229">
<ele>85.572266</ele>
<time>2012-07-20T17:16:24Z</time>
<speed>0.040000</speed>
<extensions>
<speed>0.0</speed>
<temp>0.00</temp>
<bpm>0</bpm>
<rpm>0.00</rpm>
</extensions>
</trkpt>
<trkpt lat="64.130935669" lon="-20.321306229">
<ele>85.599609</ele>
<time>2012-07-20T17:16:29Z</time>
<extensions>
<speed>0.0</speed>
<temp>0.00</temp>
<bpm>0</bpm>
<rpm>0.00</rpm>
</extensions>
</trkpt>
<trkpt lat="64.130935669" lon="-20.321306229">
<ele>85.625000</ele>
<time>2012-07-20T17:16:34Z</time>
<speed>0.020000</speed>
<extensions>
<speed>0.0</speed>
<temp>0.00</temp>
<bpm>0</bpm>
<rpm>0.00</rpm>
</extensions>
</trkpt>
<trkpt lat="64.130935669" lon="-20.321306229">
<ele>85.734375</ele>
<time>2012-07-20T17:16:39Z</time>
<speed>0.020000</speed>
<extensions>
<speed>0.0</speed>
<temp>0.00</temp>
<bpm>0</bpm>
<rpm>0.00</rpm>
</extensions>
</trkpt>
<trkpt lat="64.130935669" lon="-20.321306229">
<ele>85.812500</ele>
<time>2012-07-20T17:16:44Z</time>
<extensions>
<speed>0.0</speed>
<temp>0.00</temp>
<bpm>0</bpm>
<rpm>0.00</rpm>
</extensions>
</trkpt>
<trkpt lat="64.130943298" lon="-20.321308136">
<ele>85.878906</ele>
<time>2012-07-20T17:16:49Z</time>
<speed>0.010000</speed>
<extensions>
<speed>0.0</speed>
<temp>0.00</temp>
<bpm>0</bpm>
<rpm>0.00</rpm>
</extensions>
</trkpt>
<trkpt lat="64.130935669" lon="-20.321308136">
<ele>85.882813</ele>
<time>2012-07-20T17:16:54Z</time>
<speed>0.020000</speed>
<extensions>
<speed>0.0</speed>
<temp>0.00</temp>
<bpm>0</bpm>
<rpm>0.00</rpm>
</extensions>
</trkpt>
<trkpt lat="64.130935669" lon="-20.321308136">
<ele>85.873047</ele>
<time>2012-07-20T17:16:59Z</time>
<speed>0.020000</speed>
<extensions>
<speed>0.0</speed>
<temp>0.00</temp>
<bpm>0</bpm>
<rpm>0.00</rpm>
</extensions>
</trkpt>
<trkpt lat="64.130935669" lon="-20.321308136">
<ele>85.843750</ele>
<time>2012-07-20T17:17:04Z</time>
<speed>0.010000</speed>
<extensions>
<speed>0.0</speed>
<temp>0.00</temp>
<bpm>0</bpm>
<rpm>0.00</rpm>
</extensions>
</trkpt>
<trkpt lat="64.130935669" lon="-20.321310043">
<ele>85.814453</ele>
<time>2012-07-20T17:17:09Z</time>
<speed>0.010000</speed>
<extensions>
<speed>0.0</speed>
<temp>0.00</temp>
<bpm>0</bpm>
<rpm>0.00</rpm>
</extensions>
</trkpt>
<trkpt lat="64.130935669" lon="-20.321310043">
<ele>85.761719</ele>
<time>2012-07-20T17:17:14Z</time>
<speed>0.010000</speed>
<extensions>
<speed>0.0</speed>
<temp>0.00</temp>
<bpm>0</bpm>
<rpm>0.00</rpm>
</extensions>
</trkpt>
<trkpt lat="64.130935669" lon="-20.321310043">
<ele>85.714844</ele>
<time>2012-07-20T17:17:19Z</time>
<extensions>
<speed>0.0</speed>
<temp>0.00</temp>
<bpm>0</bpm>
<rpm>0.00</rpm>
</extensions>
</trkpt>
<trkpt lat="64.130935669" lon="-20.321310043">
<ele>85.677734</ele>
<time>2012-07-20T17:17:24Z</time>
<extensions>
<speed>0.0</speed>
<temp>0.00</temp>
<bpm>0</bpm>
<rpm>0.00</rpm>
</extensions>
</trkpt>
<trkpt lat="64.130935669" lon="-20.321310043">
<ele>85.642578</ele>
<time>2012-07-20T17:17:29Z</time>
<extensions>
<speed>0.0</speed>
<temp>0.00</temp>
<bpm>0</bpm>
<rpm>0.00</rpm>
</extensions>
</trkpt>
<trkpt lat="64.130935669" lon="-20.321310043">
<ele>85.599609</ele>
<time>2012-07-20T17:17:34Z</time>
<speed>0.010000</speed>
<extensions>
<speed>0.0</speed>
<temp>0.00</temp>
<bpm>0</bpm>
<rpm>0.00</rpm>
</extensions>
</trkpt>
<trkpt lat="64.130935669" lon="-20.321310043">
<ele>85.556641</ele>
<time>2012-07-20T17:17:39Z</time>
<speed>0.020000</speed>
<extensions>
<speed>0.0</speed>
<temp>0.00</temp>
<bpm>0</bpm>
<rpm>0.00</rpm>
</extensions>
</trkpt>
<trkpt lat="64.130935669" lon="-20.321310043">
<ele>85.457031</ele>
<time>2012-07-20T17:17:44Z</time>
<speed>0.010000</speed>
<extensions>
<speed>0.0</speed>
<temp>0.00</temp>
<bpm>0</bpm>
<rpm>0.00</rpm>
</extensions>
</trkpt>
<trkpt lat="64.130935669" lon="-20.321310043">
<ele>85.382813</ele>
<time>2012-07-20T17:17:49Z</time>
<speed>0.010000</speed>
<extensions>
<speed>0.0</speed>
<temp>0.00</temp>
<bpm>0</bpm>
<rpm>0.00</rpm>
</extensions>
</trkpt>
<trkpt lat="64.130935669" lon="-20.321311951">
<ele>85.292969</ele>
<time>2012-07-20T17:17:54Z</time>
<speed>0.010000</speed>
<extensions>
<speed>0.0</speed>
<temp>0.00</temp>
<bpm>0</bpm>
<rpm>0.00</rpm>
</extensions>
</trkpt>
<trkpt lat="64.130935669" lon="-20.321311951">
<ele>85.238281</ele>
<time>2012-07-20T17:17:59Z</time>
<extensions>
<speed>0.0</speed>
<temp>0.00</temp>
<bpm>0</bpm>
<rpm>0.00</rpm>
</extensions>
</trkpt>
<trkpt lat="64.130935669" lon="-20.321311951">
<ele>85.171875</ele>
<time>2012-07-20T17:18:04Z</time>
<extensions>
<speed>0.0</speed>
<temp>0.00</temp>
<bpm>0</bpm>
<rpm>0.00</rpm>
</extensions>
</trkpt>
<trkpt lat="64.130935669" lon="-20.321311951">
<ele>85.136719</ele>
<time>2012-07-20T17:18:09Z</time>
<speed>0.010000</speed>
<extensions>
<speed>0.0</speed>
<temp>0.00</temp>
<bpm>0</bpm>
<rpm>0.00</rpm>
</extensions>
</trkpt>
<trkpt lat="64.130935669" lon="-20.321313858">
<ele>85.099609</ele>
<time>2012-07-20T17:18:14Z</time>
<extensions>
<speed>0.0</speed>
<temp>0.00</temp>
<bpm>0</bpm>
<rpm>0.00</rpm>
</extensions>
</trkpt>
<trkpt lat="64.130935669" lon="-20.321313858">
<ele>85.078125</ele>
<time>2012-07-20T17:18:19Z</time>
<speed>0.010000</speed>
<extensions>
<speed>0.0</speed>
<temp>0.00</temp>
<bpm>0</bpm>
<rpm>0.00</rpm>
</extensions>
</trkpt>
<trkpt lat="64.130935669" lon="-20.321313858">
<ele>85.060547</ele>
<time>2012-07-20T17:18:24Z</time>
<extensions>
<speed>0.0</speed>
<temp>0.00</temp>
<bpm>0</bpm>
<rpm>0.00</rpm>
</extensions>
</trkpt>
<trkpt lat="64.130935669" lon="-20.321313858">
<ele>85.041016</ele>
<time>2012-07-20T17:18:29Z</time>
<speed>0.010000</speed>
<extensions>
<speed>0.0</speed>
<temp>0.00</temp>
<bpm>0</bpm>
<rpm>0.00</rpm>
</extensions>
</trkpt>
<trkpt lat="64.130935669" lon="-20.321315765">
<ele>85.000000</ele>
<time>2012-07-20T17:18:34Z</time>
<speed>0.010000</speed>
<extensions>
<speed>0.0</speed>
<temp>0.00</temp>
<bpm>0</bpm>
<rpm>0.00</rpm>
</extensions>
</trkpt>
<trkpt lat="64.130935669" lon="-20.321313858">
<ele>84.947266</ele>
<time>2012-07-20T17:18:39Z</time>
<speed>0.010000</speed>
<extensions>
<speed>0.0</speed>
<temp>0.00</temp>
<bpm>0</bpm>
<rpm>0.00</rpm>
</extensions>
</trkpt>
<trkpt lat="64.130935669" lon="-20.321313858">
<ele>84.921875</ele>
<time>2012-07-20T17:18:44Z</time>
<extensions>
<speed>0.0</speed>
<temp>0.00</temp>
<bpm>0</bpm>
<rpm>0.00</rpm>
</extensions>
</trkpt>
<trkpt lat="64.130935669" lon="-20.321313858">
<ele>84.910156</ele>
<time>2012-07-20T17:18:49Z</time>
<extensions>
<speed>0.0</speed>
<temp>0.00</temp>
<bpm>0</bpm>
<rpm>0.00</rpm>
</extensions>
</trkpt>
<trkpt lat="64.130935669" lon="-20.321315765">
<ele>84.884766</ele>
<time>2012-07-20T17:18:54Z</time>
<speed>0.010000</speed>
<extensions>
<speed>0.0</speed>
<temp>0.00</temp>
<bpm>0</bpm>
<rpm>0.00</rpm>
</extensions>
</trkpt>
<trkpt lat="64.130935669" lon="-20.321315765">
<ele>84.880859</ele>
<time>2012-07-20T17:18:59Z</time>
<speed>0.020000</speed>
<extensions>
<speed>0.0</speed>
<temp>0.00</temp>
<bpm>0</bpm>
<rpm>0.00</rpm>
</extensions>
</trkpt>
<trkpt lat="64.130935669" lon="-20.321315765">
<ele>84.875000</ele>
<time>2012-07-20T17:19:04Z</time>
<speed>0.020000</speed>
<extensions>
<speed>0.0</speed>
<temp>0.00</temp>
<bpm>0</bpm>
<rpm>0.00</rpm>
</extensions>
</trkpt>
<trkpt lat="64.130935669" lon="-20.321315765">
<ele>84.880859</ele>
<time>2012-07-20T17:19:09Z</time>
<speed>0.010000</speed>
<extensions>
<speed>0.0</speed>
<temp>0.00</temp>
<bpm>0</bpm>
<rpm>0.00</rpm>
</extensions>
</trkpt>
<trkpt lat="64.130928040" lon="-20.321317673">
<ele>84.898438</ele>
<time>2012-07-20T17:19:14Z</time>
<extensions>
<speed>0.0</speed>
<temp>0.00</temp>
<bpm>0</bpm>
<rpm>0.00</rpm>
</extensions>
</trkpt>
<trkpt lat="64.130928040" lon="-20.321317673">
<ele>84.882813</ele>
<time>2012-07-20T17:19:19Z</time>
<extensions>
<speed>0.0</speed>
<temp>0.00</temp>
<bpm>0</bpm>
<rpm>0.00</rpm>
</extensions>
</trkpt>
<trkpt lat="64.130928040" lon="-20.321317673">
<ele>84.867188</ele>
<time>2012-07-20T17:19:24Z</time>
<extensions>
<speed>0.0</speed>
<temp>0.00</temp>
<bpm>0</bpm>
<rpm>0.00</rpm>
</extensions>
</trkpt>
<trkpt lat="64.130928040" lon="-20.321317673">
<ele>84.841797</ele>
<time>2012-07-20T17:19:29Z</time>
<extensions>
<speed>0.0</speed>
<temp>0.00</temp>
<bpm>0</bpm>
<rpm>0.00</rpm>
</extensions>
</trkpt>
<trkpt lat="64.130928040" lon="-20.321317673">
<ele>84.812500</ele>
<time>2012-07-20T17:19:34Z</time>
<extensions>
<speed>0.0</speed>
<temp>0.00</temp>
<bpm>0</bpm>
<rpm>0.00</rpm>
</extensions>
</trkpt>
<trkpt lat="64.130928040" lon="-20.321317673">
<ele>84.798828</ele>
<time>2012-07-20T17:19:39Z</time>
<speed>0.010000</speed>
<extensions>
<speed>0.0</speed>
<temp>0.00</temp>
<bpm>0</bpm>
<rpm>0.00</rpm>
</extensions>
</trkpt>
<trkpt lat="64.130928040" lon="-20.321317673">
<ele>84.785156</ele>
<time>2012-07-20T17:19:44Z</time>
<speed>0.020000</speed>
<extensions>
<speed>0.0</speed>
<temp>0.00</temp>
<bpm>0</bpm>
<rpm>0.00</rpm>
</extensions>
</trkpt>
<trkpt lat="64.130928040" lon="-20.321317673">
<ele>84.751953</ele>
<time>2012-07-20T17:19:49Z</time>
<extensions>
<speed>0.0</speed>
<temp>0.00</temp>
<bpm>0</bpm>
<rpm>0.00</rpm>
</extensions>
</trkpt>
<trkpt lat="64.130928040" lon="-20.321317673">
<ele>84.705078</ele>
<time>2012-07-20T17:19:54Z</time>
<speed>0.010000</speed>
<extensions>
<speed>0.0</speed>
<temp>0.00</temp>
<bpm>0</bpm>
<rpm>0.00</rpm>
</extensions>
</trkpt>
<trkpt lat="64.130928040" lon="-20.321317673">
<ele>84.658203</ele>
<time>2012-07-20T17:19:59Z</time>
<extensions>
<speed>0.0</speed>
<temp>0.00</temp>
<bpm>0</bpm>
<rpm>0.00</rpm>
</extensions>
</trkpt>
<trkpt lat="64.130928040" lon="-20.321319580">
<ele>84.595703</ele>
<time>2012-07-20T17:20:04Z</time>
<speed>0.010000</speed>
<extensions>
<speed>0.0</speed>
<temp>0.00</temp>
<bpm>0</bpm>
<rpm>0.00</rpm>
</extensions>
</trkpt>
<trkpt lat="64.130928040" lon="-20.321319580">
<ele>84.529297</ele>
<time>2012-07-20T17:20:09Z</time>
<speed>0.010000</speed>
<extensions>
<speed>0.0</speed>
<temp>0.00</temp>
<bpm>0</bpm>
<rpm>0.00</rpm>
</extensions>
</trkpt>
<trkpt lat="64.130928040" lon="-20.321319580">
<ele>84.482422</ele>
<time>2012-07-20T17:20:14Z</time>
<extensions>
<speed>0.0</speed>
<temp>0.00</temp>
<bpm>0</bpm>
<rpm>0.00</rpm>
</extensions>
</trkpt>
<trkpt lat="64.130928040" lon="-20.321319580">
<ele>84.458984</ele>
<time>2012-07-20T17:20:19Z</time>
<extensions>
<speed>0.0</speed>
<temp>0.00</temp>
<bpm>0</bpm>
<rpm>0.00</rpm>
</extensions>
</trkpt>
<trkpt lat="64.130928040" lon="-20.321319580">
<ele>84.449219</ele>
<time>2012-07-20T17:20:24Z</time>
<speed>0.010000</speed>
<extensions>
<speed>0.0</speed>
<temp>0.00</temp>
<bpm>0</bpm>
<rpm>0.00</rpm>
</extensions>
</trkpt>
<trkpt lat="64.130928040" lon="-20.321321487">
<ele>84.439453</ele>
<time>2012-07-20T17:20:29Z</time>
<speed>0.010000</speed>
<extensions>
<speed>0.0</speed>
<temp>0.00</temp>
<bpm>0</bpm>
<rpm>0.00</rpm>
</extensions>
</trkpt>
<trkpt lat="64.130928040" lon="-20.321321487">
<ele>84.425781</ele>
<time>2012-07-20T17:20:34Z</time>
<extensions>
<speed>0.0</speed>
<temp>0.00</temp>
<bpm>0</bpm>
<rpm>0.00</rpm>
</extensions>
</trkpt>
<trkpt lat="64.130928040" lon="-20.321321487">
<ele>84.416016</ele>
<time>2012-07-20T17:20:39Z</time>
<extensions>
<speed>0.0</speed>
<temp>0.00</temp>
<bpm>0</bpm>
<rpm>0.00</rpm>
</extensions>
</trkpt>
<trkpt lat="64.130928040" lon="-20.321321487">
<ele>84.402344</ele>
<time>2012-07-20T17:20:44Z</time>
<extensions>
<speed>0.0</speed>
<temp>0.00</temp>
<bpm>0</bpm>
<rpm>0.00</rpm>
</extensions>
</trkpt>
<trkpt lat="64.130928040" lon="-20.321323395">
<ele>84.406250</ele>
<time>2012-07-20T17:20:49Z</time>
<extensions>
<speed>0.0</speed>
<temp>0.00</temp>
<bpm>0</bpm>
<rpm>0.00</rpm>
</extensions>
</trkpt>
<trkpt lat="64.130928040" lon="-20.321323395">
<ele>84.425781</ele>
<time>2012-07-20T17:20:54Z</time>
<extensions>
<speed>0.0</speed>
<temp>0.00</temp>
<bpm>0</bpm>
<rpm>0.00</rpm>
</extensions>
</trkpt>
<trkpt lat="64.130928040" lon="-20.321323395">
<ele>84.417969</ele>
<time>2012-07-20T17:20:59Z</time>
<extensions>
<speed>0.0</speed>
<temp>0.00</temp>
<bpm>0</bpm>
<rpm>0.00</rpm>
</extensions>
</trkpt>
<trkpt lat="64.130928040" lon="-20.321325302">
<ele>84.421875</ele>
<time>2012-07-20T17:21:04Z</time>
<extensions>
<speed>0.0</speed>
<temp>0.00</temp>
<bpm>0</bpm>
<rpm>0.00</rpm>
</extensions>
</trkpt>
<trkpt lat="64.130928040" lon="-20.321325302">
<ele>84.429688</ele>
<time>2012-07-20T17:21:09Z</time>
<extensions>
<speed>0.0</speed>
<temp>0.00</temp>
<bpm>0</bpm>
<rpm>0.00</rpm>
</extensions>
</trkpt>
<trkpt lat="64.130928040" lon="-20.321325302">
<ele>84.416016</ele>
<time>2012-07-20T17:21:14Z</time>
<speed>0.010000</speed>
<extensions>
<speed>0.0</speed>
<temp>0.00</temp>
<bpm>0</bpm>
<rpm>0.00</rpm>
</extensions>
</trkpt>
<trkpt lat="64.130928040" lon="-20.321327209">
<ele>84.406250</ele>
<time>2012-07-20T17:21:19Z</time>
<extensions>
<speed>0.0</speed>
<temp>0.00</temp>
<bpm>0</bpm>
<rpm>0.00</rpm>
</extensions>
</trkpt>
<trkpt lat="64.130928040" lon="-20.321327209">
<ele>84.394531</ele>
<time>2012-07-20T17:21:24Z</time>
<extensions>
<speed>0.0</speed>
<temp>0.00</temp>
<bpm>0</bpm>
<rpm>0.00</rpm>
</extensions>
</trkpt>
<trkpt lat="64.130928040" lon="-20.321327209">
<ele>84.390625</ele>
<time>2012-07-20T17:21:29Z</time>
<extensions>
<speed>0.0</speed>
<temp>0.00</temp>
<bpm>0</bpm>
<rpm>0.00</rpm>
</extensions>
</trkpt>
<trkpt lat="64.130928040" lon="-20.321327209">
<ele>84.373047</ele>
<time>2012-07-20T17:21:34Z</time>
<extensions>
<speed>0.0</speed>
<temp>0.00</temp>
<bpm>0</bpm>
<rpm>0.00</rpm>
</extensions>
</trkpt>
<trkpt lat="64.130928040" lon="-20.321327209">
<ele>84.361328</ele>
<time>2012-07-20T17:21:39Z</time>
<speed>0.010000</speed>
<extensions>
<speed>0.0</speed>
<temp>0.00</temp>
<bpm>0</bpm>
<rpm>0.00</rpm>
</extensions>
</trkpt>
<trkpt lat="64.130928040" lon="-20.321325302">
<ele>84.343750</ele>
<time>2012-07-20T17:21:44Z</time>
<speed>0.020000</speed>
<extensions>
<speed>0.0</speed>
<temp>0.00</temp>
<bpm>0</bpm>
<rpm>0.00</rpm>
</extensions>
</trkpt>
<trkpt lat="64.130928040" lon="-20.321325302">
<ele>84.318359</ele>
<time>2012-07-20T17:21:49Z</time>
<extensions>
<speed>0.0</speed>
<temp>0.00</temp>
<bpm>0</bpm>
<rpm>0.00</rpm>
</extensions>
</trkpt>
<trkpt lat="64.130928040" lon="-20.321323395">
<ele>84.289063</ele>
<time>2012-07-20T17:21:54Z</time>
<extensions>
<speed>0.0</speed>
<temp>0.00</temp>
<bpm>0</bpm>
<rpm>0.00</rpm>
</extensions>
</trkpt>
<trkpt lat="64.130928040" lon="-20.321323395">
<ele>84.263672</ele>
<time>2012-07-20T17:21:59Z</time>
<speed>0.010000</speed>
<extensions>
<speed>0.0</speed>
<temp>0.00</temp>
<bpm>0</bpm>
<rpm>0.00</rpm>
</extensions>
</trkpt>
<trkpt lat="64.130928040" lon="-20.321323395">
<ele>84.248047</ele>
<time>2012-07-20T17:22:04Z</time>
<extensions>
<speed>0.0</speed>
<temp>0.00</temp>
<bpm>0</bpm>
<rpm>0.00</rpm>
</extensions>
</trkpt>
<trkpt lat="64.130928040" lon="-20.321323395">
<ele>84.216797</ele>
<time>2012-07-20T17:22:09Z</time>
<speed>0.030000</speed>
<extensions>
<speed>0.0</speed>
<temp>0.00</temp>
<bpm>0</bpm>
<rpm>0.00</rpm>
</extensions>
</trkpt>
<trkpt lat="64.130928040" lon="-20.321323395">
<ele>84.197266</ele>
<time>2012-07-20T17:22:14Z</time>
<extensions>
<speed>0.0</speed>
<temp>0.00</temp>
<bpm>0</bpm>
<rpm>0.00</rpm>
</extensions>
</trkpt>
<trkpt lat="64.130928040" lon="-20.321323395">
<ele>84.189453</ele>
<time>2012-07-20T17:22:19Z</time>
<speed>0.020000</speed>
<extensions>
<speed>0.0</speed>
<temp>0.00</temp>
<bpm>0</bpm>
<rpm>0.00</rpm>
</extensions>
</trkpt>
<trkpt lat="64.130928040" lon="-20.321323395">
<ele>84.164063</ele>
<time>2012-07-20T17:22:24Z</time>
<speed>0.010000</speed>
<extensions>
<speed>0.0</speed>
<temp>0.00</temp>
<bpm>0</bpm>
<rpm>0.00</rpm>
</extensions>
</trkpt>
<trkpt lat="64.130928040" lon="-20.321323395">
<ele>84.132813</ele>
<time>2012-07-20T17:22:29Z</time>
<extensions>
<speed>0.0</speed>
<temp>0.00</temp>
<bpm>0</bpm>
<rpm>0.00</rpm>
</extensions>
</trkpt>
<trkpt lat="64.130928040" lon="-20.321323395">
<ele>84.091797</ele>
<time>2012-07-20T17:22:34Z</time>
<speed>0.010000</speed>
<extensions>
<speed>0.0</speed>
<temp>0.00</temp>
<bpm>0</bpm>
<rpm>0.00</rpm>
</extensions>
</trkpt>
<trkpt lat="64.130928040" lon="-20.321323395">
<ele>84.068359</ele>
<time>2012-07-20T17:22:39Z</time>
<extensions>
<speed>0.0</speed>
<temp>0.00</temp>
<bpm>0</bpm>
<rpm>0.00</rpm>
</extensions>
</trkpt>
<trkpt lat="64.130928040" lon="-20.321323395">
<ele>84.048828</ele>
<time>2012-07-20T17:22:44Z</time>
<speed>0.010000</speed>
<extensions>
<speed>0.0</speed>
<temp>0.00</temp>
<bpm>0</bpm>
<rpm>0.00</rpm>
</extensions>
</trkpt>
<trkpt lat="64.130928040" lon="-20.321323395">
<ele>84.001953</ele>
<time>2012-07-20T17:22:49Z</time>
<speed>0.020000</speed>
<extensions>
<speed>0.0</speed>
<temp>0.00</temp>
<bpm>0</bpm>
<rpm>0.00</rpm>
</extensions>
</trkpt>
<trkpt lat="64.130928040" lon="-20.321323395">
<ele>83.947266</ele>
<time>2012-07-20T17:22:54Z</time>
<extensions>
<speed>0.0</speed>
<temp>0.00</temp>
<bpm>0</bpm>
<rpm>0.00</rpm>
</extensions>
</trkpt>
<trkpt lat="64.130928040" lon="-20.321323395">
<ele>83.908203</ele>
<time>2012-07-20T17:22:59Z</time>
<speed>0.010000</speed>
<extensions>
<speed>0.0</speed>
<temp>0.00</temp>
<bpm>0</bpm>
<rpm>0.00</rpm>
</extensions>
</trkpt>
<trkpt lat="64.130928040" lon="-20.321323395">
<ele>83.865234</ele>
<time>2012-07-20T17:23:04Z</time>
<speed>0.010000</speed>
<extensions>
<speed>0.0</speed>
<temp>0.00</temp>
<bpm>0</bpm>
<rpm>0.00</rpm>
</extensions>
</trkpt>
<trkpt lat="64.130928040" lon="-20.321325302">
<ele>83.822266</ele>
<time>2012-07-20T17:23:09Z</time>
<extensions>
<speed>0.0</speed>
<temp>0.00</temp>
<bpm>0</bpm>
<rpm>0.00</rpm>
</extensions>
</trkpt>
<trkpt lat="64.130928040" lon="-20.321323395">
<ele>83.781250</ele>
<time>2012-07-20T17:23:14Z</time>
<speed>0.020000</speed>
<extensions>
<speed>0.0</speed>
<temp>0.00</temp>
<bpm>0</bpm>
<rpm>0.00</rpm>
</extensions>
</trkpt>
<trkpt lat="64.130928040" lon="-20.321323395">
<ele>83.730469</ele>
<time>2012-07-20T17:23:19Z</time>
<speed>0.010000</speed>
<extensions>
<speed>0.0</speed>
<temp>0.00</temp>
<bpm>0</bpm>
<rpm>0.00</rpm>
</extensions>
</trkpt>
<trkpt lat="64.130928040" lon="-20.321323395">
<ele>83.652344</ele>
<time>2012-07-20T17:23:24Z</time>
<extensions>
<speed>0.0</speed>
<temp>0.00</temp>
<bpm>0</bpm>
<rpm>0.00</rpm>
</extensions>
</trkpt>
<trkpt lat="64.130928040" lon="-20.321323395">
<ele>83.603516</ele>
<time>2012-07-20T17:23:29Z</time>
<extensions>
<speed>0.0</speed>
<temp>0.00</temp>
<bpm>0</bpm>
<rpm>0.00</rpm>
</extensions>
</trkpt>
<trkpt lat="64.130928040" lon="-20.321323395">
<ele>83.548828</ele>
<time>2012-07-20T17:23:34Z</time>
<extensions>
<speed>0.0</speed>
<temp>0.00</temp>
<bpm>0</bpm>
<rpm>0.00</rpm>
</extensions>
</trkpt>
<trkpt lat="64.130928040" lon="-20.321323395">
<ele>83.490234</ele>
<time>2012-07-20T17:23:39Z</time>
<extensions>
<speed>0.0</speed>
<temp>0.00</temp>
<bpm>0</bpm>
<rpm>0.00</rpm>
</extensions>
</trkpt>
<trkpt lat="64.130928040" lon="-20.321323395">
<ele>83.462891</ele>
<time>2012-07-20T17:23:44Z</time>
<extensions>
<speed>0.0</speed>
<temp>0.00</temp>
<bpm>0</bpm>
<rpm>0.00</rpm>
</extensions>
</trkpt>
<trkpt lat="64.130928040" lon="-20.321323395">
<ele>83.431641</ele>
<time>2012-07-20T17:23:49Z</time>
<extensions>
<speed>0.0</speed>
<temp>0.00</temp>
<bpm>0</bpm>
<rpm>0.00</rpm>
</extensions>
</trkpt>
<trkpt lat="64.130928040" lon="-20.321321487">
<ele>83.400391</ele>
<time>2012-07-20T17:23:54Z</time>
<speed>0.020000</speed>
<extensions>
<speed>0.0</speed>
<temp>0.00</temp>
<bpm>0</bpm>
<rpm>0.00</rpm>
</extensions>
</trkpt>
<trkpt lat="64.130928040" lon="-20.321321487">
<ele>83.394531</ele>
<time>2012-07-20T17:23:59Z</time>
<extensions>
<speed>0.0</speed>
<temp>0.00</temp>
<bpm>0</bpm>
<rpm>0.00</rpm>
</extensions>
</trkpt>
<trkpt lat="64.130928040" lon="-20.321321487">
<ele>83.402344</ele>
<time>2012-07-20T17:24:04Z</time>
<extensions>
<speed>0.0</speed>
<temp>0.00</temp>
<bpm>0</bpm>
<rpm>0.00</rpm>
</extensions>
</trkpt>
<trkpt lat="64.130928040" lon="-20.321321487">
<ele>83.384766</ele>
<time>2012-07-20T17:24:09Z</time>
<extensions>
<speed>0.0</speed>
<temp>0.00</temp>
<bpm>0</bpm>
<rpm>0.00</rpm>
</extensions>
</trkpt>
<trkpt lat="64.130928040" lon="-20.321321487">
<ele>83.371094</ele>
<time>2012-07-20T17:24:14Z</time>
<extensions>
<speed>0.0</speed>
<temp>0.00</temp>
<bpm>0</bpm>
<rpm>0.00</rpm>
</extensions>
</trkpt>
<trkpt lat="64.130928040" lon="-20.321321487">
<ele>83.361328</ele>
<time>2012-07-20T17:24:19Z</time>
<speed>0.010000</speed>
<extensions>
<speed>0.0</speed>
<temp>0.00</temp>
<bpm>0</bpm>
<rpm>0.00</rpm>
</extensions>
</trkpt>
<trkpt lat="64.130928040" lon="-20.321321487">
<ele>83.375000</ele>
<time>2012-07-20T17:24:24Z</time>
<extensions>
<speed>0.0</speed>
<temp>0.00</temp>
<bpm>0</bpm>
<rpm>0.00</rpm>
</extensions>
</trkpt>
<trkpt lat="64.130928040" lon="-20.321321487">
<ele>83.384766</ele>
<time>2012-07-20T17:24:29Z</time>
<extensions>
<speed>0.0</speed>
<temp>0.00</temp>
<bpm>0</bpm>
<rpm>0.00</rpm>
</extensions>
</trkpt>
<trkpt lat="64.130928040" lon="-20.321321487">
<ele>83.390625</ele>
<time>2012-07-20T17:24:34Z</time>
<extensions>
<speed>0.0</speed>
<temp>0.00</temp>
<bpm>0</bpm>
<rpm>0.00</rpm>
</extensions>
</trkpt>
<trkpt lat="64.130928040" lon="-20.321321487">
<ele>83.392578</ele>
<time>2012-07-20T17:24:39Z</time>
<extensions>
<speed>0.0</speed>
<temp>0.00</temp>
<bpm>0</bpm>
<rpm>0.00</rpm>
</extensions>
</trkpt>
<trkpt lat="64.130928040" lon="-20.321321487">
<ele>83.394531</ele>
<time>2012-07-20T17:24:44Z</time>
<extensions>
<speed>0.0</speed>
<temp>0.00</temp>
<bpm>0</bpm>
<rpm>0.00</rpm>
</extensions>
</trkpt>
<trkpt lat="64.130928040" lon="-20.321321487">
<ele>83.382813</ele>
<time>2012-07-20T17:24:49Z</time>
<extensions>
<speed>0.0</speed>
<temp>0.00</temp>
<bpm>0</bpm>
<rpm>0.00</rpm>
</extensions>
</trkpt>
<trkpt lat="64.130928040" lon="-20.321321487">
<ele>83.382813</ele>
<time>2012-07-20T17:24:54Z</time>
<speed>0.010000</speed>
<extensions>
<speed>0.0</speed>
<temp>0.00</temp>
<bpm>0</bpm>
<rpm>0.00</rpm>
</extensions>
</trkpt>
<trkpt lat="64.130928040" lon="-20.321321487">
<ele>83.384766</ele>
<time>2012-07-20T17:24:59Z</time>
<extensions>
<speed>0.0</speed>
<temp>0.00</temp>
<bpm>0</bpm>
<rpm>0.00</rpm>
</extensions>
</trkpt>
<trkpt lat="64.130928040" lon="-20.321321487">
<ele>83.373047</ele>
<time>2012-07-20T17:25:04Z</time>
<speed>0.010000</speed>
<extensions>
<speed>0.0</speed>
<temp>0.00</temp>
<bpm>0</bpm>
<rpm>0.00</rpm>
</extensions>
</trkpt>
<trkpt lat="64.130928040" lon="-20.321321487">
<ele>83.369141</ele>
<time>2012-07-20T17:25:09Z</time>
<extensions>
<speed>0.0</speed>
<temp>0.00</temp>
<bpm>0</bpm>
<rpm>0.00</rpm>
</extensions>
</trkpt>
<trkpt lat="64.130928040" lon="-20.321321487">
<ele>83.347656</ele>
<time>2012-07-20T17:25:14Z</time>
<extensions>
<speed>0.0</speed>
<temp>0.00</temp>
<bpm>0</bpm>
<rpm>0.00</rpm>
</extensions>
</trkpt>
<trkpt lat="64.130928040" lon="-20.321321487">
<ele>83.341797</ele>
<time>2012-07-20T17:25:19Z</time>
<speed>0.010000</speed>
<extensions>
<speed>0.0</speed>
<temp>0.00</temp>
<bpm>0</bpm>
<rpm>0.00</rpm>
</extensions>
</trkpt>
<trkpt lat="64.130928040" lon="-20.321321487">
<ele>83.337891</ele>
<time>2012-07-20T17:25:24Z</time>
<extensions>
<speed>0.0</speed>
<temp>0.00</temp>
<bpm>0</bpm>
<rpm>0.00</rpm>
</extensions>
</trkpt>
<trkpt lat="64.130928040" lon="-20.321323395">
<ele>83.339844</ele>
<time>2012-07-20T17:25:29Z</time>
<extensions>
<speed>0.0</speed>
<temp>0.00</temp>
<bpm>0</bpm>
<rpm>0.00</rpm>
</extensions>
</trkpt>
<trkpt lat="64.130928040" lon="-20.321323395">
<ele>83.328125</ele>
<time>2012-07-20T17:25:34Z</time>
<extensions>
<speed>0.0</speed>
<temp>0.00</temp>
<bpm>0</bpm>
<rpm>0.00</rpm>
</extensions>
</trkpt>
<trkpt lat="64.130928040" lon="-20.321323395">
<ele>83.322266</ele>
<time>2012-07-20T17:25:39Z</time>
<extensions>
<speed>0.0</speed>
<temp>0.00</temp>
<bpm>0</bpm>
<rpm>0.00</rpm>
</extensions>
</trkpt>
<trkpt lat="64.130928040" lon="-20.321323395">
<ele>83.306641</ele>
<time>2012-07-20T17:25:44Z</time>
<extensions>
<speed>0.0</speed>
<temp>0.00</temp>
<bpm>0</bpm>
<rpm>0.00</rpm>
</extensions>
</trkpt>
<trkpt lat="64.130928040" lon="-20.321323395">
<ele>83.294922</ele>
<time>2012-07-20T17:25:49Z</time>
<extensions>
<speed>0.0</speed>
<temp>0.00</temp>
<bpm>0</bpm>
<rpm>0.00</rpm>
</extensions>
</trkpt>
<trkpt lat="64.130920410" lon="-20.321323395">
<ele>83.287109</ele>
<time>2012-07-20T17:25:54Z</time>
<extensions>
<speed>0.0</speed>
<temp>0.00</temp>
<bpm>0</bpm>
<rpm>0.00</rpm>
</extensions>
</trkpt>
<trkpt lat="64.130920410" lon="-20.321323395">
<ele>83.271484</ele>
<time>2012-07-20T17:25:59Z</time>
<extensions>
<speed>0.0</speed>
<temp>0.00</temp>
<bpm>0</bpm>
<rpm>0.00</rpm>
</extensions>
</trkpt>
<trkpt lat="64.130920410" lon="-20.321323395">
<ele>83.269531</ele>
<time>2012-07-20T17:26:04Z</time>
<extensions>
<speed>0.0</speed>
<temp>0.00</temp>
<bpm>0</bpm>
<rpm>0.00</rpm>
</extensions>
</trkpt>
<trkpt lat="64.130920410" lon="-20.321321487">
<ele>83.269531</ele>
<time>2012-07-20T17:26:09Z</time>
<speed>0.010000</speed>
<extensions>
<speed>0.0</speed>
<temp>0.00</temp>
<bpm>0</bpm>
<rpm>0.00</rpm>
</extensions>
</trkpt>
<trkpt lat="64.130920410" lon="-20.321321487">
<ele>83.265625</ele>
<time>2012-07-20T17:26:14Z</time>
<speed>0.020000</speed>
<extensions>
<speed>0.0</speed>
<temp>0.00</temp>
<bpm>0</bpm>
<rpm>0.00</rpm>
</extensions>
</trkpt>
<trkpt lat="64.130920410" lon="-20.321321487">
<ele>83.251953</ele>
<time>2012-07-20T17:26:19Z</time>
<extensions>
<speed>0.0</speed>
<temp>0.00</temp>
<bpm>0</bpm>
<rpm>0.00</rpm>
</extensions>
</trkpt>
<trkpt lat="64.130920410" lon="-20.321321487">
<ele>83.246094</ele>
<time>2012-07-20T17:26:24Z</time>
<speed>0.030000</speed>
<extensions>
<speed>0.0</speed>
<temp>0.00</temp>
<bpm>0</bpm>
<rpm>0.00</rpm>
</extensions>
</trkpt>
<trkpt lat="64.130920410" lon="-20.321321487">
<ele>83.238281</ele>
<time>2012-07-20T17:26:29Z</time>
<speed>0.010000</speed>
<extensions>
<speed>0.0</speed>
<temp>0.00</temp>
<bpm>0</bpm>
<rpm>0.00</rpm>
</extensions>
</trkpt>
<trkpt lat="64.130920410" lon="-20.321321487">
<ele>83.222656</ele>
<time>2012-07-20T17:26:34Z</time>
<extensions>
<speed>0.0</speed>
<temp>0.00</temp>
<bpm>0</bpm>
<rpm>0.00</rpm>
</extensions>
</trkpt>
<trkpt lat="64.130920410" lon="-20.321321487">
<ele>83.207031</ele>
<time>2012-07-20T17:26:39Z</time>
<speed>0.030000</speed>
<extensions>
<speed>0.0</speed>
<temp>0.00</temp>
<bpm>0</bpm>
<rpm>0.00</rpm>
</extensions>
</trkpt>
<trkpt lat="64.130920410" lon="-20.321321487">
<ele>83.193359</ele>
<time>2012-07-20T17:26:44Z</time>
<extensions>
<speed>0.0</speed>
<temp>0.00</temp>
<bpm>0</bpm>
<rpm>0.00</rpm>
</extensions>
</trkpt>
<trkpt lat="64.130920410" lon="-20.321321487">
<ele>83.177734</ele>
<time>2012-07-20T17:26:49Z</time>
<speed>0.020000</speed>
<extensions>
<speed>0.0</speed>
<temp>0.00</temp>
<bpm>0</bpm>
<rpm>0.00</rpm>
</extensions>
</trkpt>
<trkpt lat="64.130920410" lon="-20.321321487">
<ele>83.166016</ele>
<time>2012-07-20T17:26:54Z</time>
<extensions>
<speed>0.0</speed>
<temp>0.00</temp>
<bpm>0</bpm>
<rpm>0.00</rpm>
</extensions>
</trkpt>
<trkpt lat="64.130920410" lon="-20.321321487">
<ele>83.171875</ele>
<time>2012-07-20T17:26:59Z</time>
<speed>0.020000</speed>
<extensions>
<speed>0.0</speed>
<temp>0.00</temp>
<bpm>0</bpm>
<rpm>0.00</rpm>
</extensions>
</trkpt>
<trkpt lat="64.130920410" lon="-20.321321487">
<ele>83.167969</ele>
<time>2012-07-20T17:27:04Z</time>
<extensions>
<speed>0.0</speed>
<temp>0.00</temp>
<bpm>0</bpm>
<rpm>0.00</rpm>
</extensions>
</trkpt>
<trkpt lat="64.130920410" lon="-20.321321487">
<ele>83.152344</ele>
<time>2012-07-20T17:27:09Z</time>
<extensions>
<speed>0.0</speed>
<temp>0.00</temp>
<bpm>0</bpm>
<rpm>0.00</rpm>
</extensions>
</trkpt>
<trkpt lat="64.130920410" lon="-20.321321487">
<ele>83.140625</ele>
<time>2012-07-20T17:27:14Z</time>
<extensions>
<speed>0.0</speed>
<temp>0.00</temp>
<bpm>0</bpm>
<rpm>0.00</rpm>
</extensions>
</trkpt>
<trkpt lat="64.130920410" lon="-20.321321487">
<ele>83.128906</ele>
<time>2012-07-20T17:27:19Z</time>
<extensions>
<speed>0.0</speed>
<temp>0.00</temp>
<bpm>0</bpm>
<rpm>0.00</rpm>
</extensions>
</trkpt>
<trkpt lat="64.130920410" lon="-20.321321487">
<ele>83.121094</ele>
<time>2012-07-20T17:27:24Z</time>
<speed>0.010000</speed>
<extensions>
<speed>0.0</speed>
<temp>0.00</temp>
<bpm>0</bpm>
<rpm>0.00</rpm>
</extensions>
</trkpt>
<trkpt lat="64.130920410" lon="-20.321321487">
<ele>83.105469</ele>
<time>2012-07-20T17:27:29Z</time>
<extensions>
<speed>0.0</speed>
<temp>0.00</temp>
<bpm>0</bpm>
<rpm>0.00</rpm>
</extensions>
</trkpt>
<trkpt lat="64.130920410" lon="-20.321321487">
<ele>83.085938</ele>
<time>2012-07-20T17:27:34Z</time>
<extensions>
<speed>0.0</speed>
<temp>0.00</temp>
<bpm>0</bpm>
<rpm>0.00</rpm>
</extensions>
</trkpt>
<trkpt lat="64.130920410" lon="-20.321321487">
<ele>83.080078</ele>
<time>2012-07-20T17:27:39Z</time>
<speed>0.010000</speed>
<extensions>
<speed>0.0</speed>
<temp>0.00</temp>
<bpm>0</bpm>
<rpm>0.00</rpm>
</extensions>
</trkpt>
<trkpt lat="64.130920410" lon="-20.321321487">
<ele>83.078125</ele>
<time>2012-07-20T17:27:44Z</time>
<speed>0.020000</speed>
<extensions>
<speed>0.0</speed>
<temp>0.00</temp>
<bpm>0</bpm>
<rpm>0.00</rpm>
</extensions>
</trkpt>
<trkpt lat="64.130920410" lon="-20.321321487">
<ele>83.072266</ele>
<time>2012-07-20T17:27:49Z</time>
<extensions>
<speed>0.0</speed>
<temp>0.00</temp>
<bpm>0</bpm>
<rpm>0.00</rpm>
</extensions>
</trkpt>
<trkpt lat="64.130920410" lon="-20.321321487">
<ele>83.070313</ele>
<time>2012-07-20T17:27:54Z</time>
<speed>0.010000</speed>
<extensions>
<speed>0.0</speed>
<temp>0.00</temp>
<bpm>0</bpm>
<rpm>0.00</rpm>
</extensions>
</trkpt>
<trkpt lat="64.130920410" lon="-20.321323395">
<ele>83.070313</ele>
<time>2012-07-20T17:27:59Z</time>
<speed>0.010000</speed>
<extensions>
<speed>0.0</speed>
<temp>0.00</temp>
<bpm>0</bpm>
<rpm>0.00</rpm>
</extensions>
</trkpt>
<trkpt lat="64.130920410" lon="-20.321323395">
<ele>83.078125</ele>
<time>2012-07-20T17:28:04Z</time>
<speed>0.020000</speed>
<extensions>
<speed>0.0</speed>
<temp>0.00</temp>
<bpm>0</bpm>
<rpm>0.00</rpm>
</extensions>
</trkpt>
<trkpt lat="64.130920410" lon="-20.321323395">
<ele>83.078125</ele>
<time>2012-07-20T17:28:09Z</time>
<extensions>
<speed>0.0</speed>
<temp>0.00</temp>
<bpm>0</bpm>
<rpm>0.00</rpm>
</extensions>
</trkpt>
<trkpt lat="64.130920410" lon="-20.321323395">
<ele>83.078125</ele>
<time>2012-07-20T17:28:14Z</time>
<extensions>
<speed>0.0</speed>
<temp>0.00</temp>
<bpm>0</bpm>
<rpm>0.00</rpm>
</extensions>
</trkpt>
<trkpt lat="64.130920410" lon="-20.321323395">
<ele>83.066406</ele>
<time>2012-07-20T17:28:19Z</time>
<extensions>
<speed>0.0</speed>
<temp>0.00</temp>
<bpm>0</bpm>
<rpm>0.00</rpm>
</extensions>
</trkpt>
<trkpt lat="64.130920410" lon="-20.321323395">
<ele>83.068359</ele>
<time>2012-07-20T17:28:24Z</time>
<extensions>
<speed>0.0</speed>
<temp>0.00</temp>
<bpm>0</bpm>
<rpm>0.00</rpm>
</extensions>
</trkpt>
<trkpt lat="64.130920410" lon="-20.321323395">
<ele>83.076172</ele>
<time>2012-07-20T17:28:29Z</time>
<extensions>
<speed>0.0</speed>
<temp>0.00</temp>
<bpm>0</bpm>
<rpm>0.00</rpm>
</extensions>
</trkpt>
<trkpt lat="64.130920410" lon="-20.321323395">
<ele>83.080078</ele>
<time>2012-07-20T17:28:34Z</time>
<speed>0.010000</speed>
<extensions>
<speed>0.0</speed>
<temp>0.00</temp>
<bpm>0</bpm>
<rpm>0.00</rpm>
</extensions>
</trkpt>
<trkpt lat="64.130920410" lon="-20.321323395">
<ele>83.087891</ele>
<time>2012-07-20T17:28:39Z</time>
<extensions>
<speed>0.0</speed>
<temp>0.00</temp>
<bpm>0</bpm>
<rpm>0.00</rpm>
</extensions>
</trkpt>
<trkpt lat="64.130920410" lon="-20.321323395">
<ele>83.091797</ele>
<time>2012-07-20T17:28:44Z</time>
<extensions>
<speed>0.0</speed>
<temp>0.00</temp>
<bpm>0</bpm>
<rpm>0.00</rpm>
</extensions>
</trkpt>
<trkpt lat="64.130920410" lon="-20.321323395">
<ele>83.078125</ele>
<time>2012-07-20T17:28:49Z</time>
<extensions>
<speed>0.0</speed>
<temp>0.00</temp>
<bpm>0</bpm>
<rpm>0.00</rpm>
</extensions>
</trkpt>
<trkpt lat="64.130920410" lon="-20.321323395">
<ele>83.060547</ele>
<time>2012-07-20T17:28:54Z</time>
<extensions>
<speed>0.0</speed>
<temp>0.00</temp>
<bpm>0</bpm>
<rpm>0.00</rpm>
</extensions>
</trkpt>
<trkpt lat="64.130920410" lon="-20.321323395">
<ele>83.044922</ele>
<time>2012-07-20T17:28:59Z</time>
<speed>0.010000</speed>
<extensions>
<speed>0.0</speed>
<temp>0.00</temp>
<bpm>0</bpm>
<rpm>0.00</rpm>
</extensions>
</trkpt>
<trkpt lat="64.130920410" lon="-20.321323395">
<ele>83.025391</ele>
<time>2012-07-20T17:29:04Z</time>
<extensions>
<speed>0.0</speed>
<temp>0.00</temp>
<bpm>0</bpm>
<rpm>0.00</rpm>
</extensions>
</trkpt>
<trkpt lat="64.130920410" lon="-20.321323395">
<ele>83.011719</ele>
<time>2012-07-20T17:29:09Z</time>
<extensions>
<speed>0.0</speed>
<temp>0.00</temp>
<bpm>0</bpm>
<rpm>0.00</rpm>
</extensions>
</trkpt>
<trkpt lat="64.130920410" lon="-20.321323395">
<ele>83.003906</ele>
<time>2012-07-20T17:29:14Z</time>
<extensions>
<speed>0.0</speed>
<temp>0.00</temp>
<bpm>0</bpm>
<rpm>0.00</rpm>
</extensions>
</trkpt>
<trkpt lat="64.130920410" lon="-20.321323395">
<ele>83.001953</ele>
<time>2012-07-20T17:29:19Z</time>
<extensions>
<speed>0.0</speed>
<temp>0.00</temp>
<bpm>0</bpm>
<rpm>0.00</rpm>
</extensions>
</trkpt>
<trkpt lat="64.130920410" lon="-20.321323395">
<ele>83.001953</ele>
<time>2012-07-20T17:29:24Z</time>
<extensions>
<speed>0.0</speed>
<temp>0.00</temp>
<bpm>0</bpm>
<rpm>0.00</rpm>
</extensions>
</trkpt>
<trkpt lat="64.130920410" lon="-20.321323395">
<ele>83.007813</ele>
<time>2012-07-20T17:29:29Z</time>
<extensions>
<speed>0.0</speed>
<temp>0.00</temp>
<bpm>0</bpm>
<rpm>0.00</rpm>
</extensions>
</trkpt>
<trkpt lat="64.130920410" lon="-20.321323395">
<ele>83.007813</ele>
<time>2012-07-20T17:29:34Z</time>
<extensions>
<speed>0.0</speed>
<temp>0.00</temp>
<bpm>0</bpm>
<rpm>0.00</rpm>
</extensions>
</trkpt>
<trkpt lat="64.130920410" lon="-20.321325302">
<ele>83.001953</ele>
<time>2012-07-20T17:29:39Z</time>
<speed>0.010000</speed>
<extensions>
<speed>0.0</speed>
<temp>0.00</temp>
<bpm>0</bpm>
<rpm>0.00</rpm>
</extensions>
</trkpt>
<trkpt lat="64.130920410" lon="-20.321323395">
<ele>82.998047</ele>
<time>2012-07-20T17:29:44Z</time>
<speed>0.010000</speed>
<extensions>
<speed>0.0</speed>
<temp>0.00</temp>
<bpm>0</bpm>
<rpm>0.00</rpm>
</extensions>
</trkpt>
<trkpt lat="64.130920410" lon="-20.321323395">
<ele>83.001953</ele>
<time>2012-07-20T17:29:49Z</time>
<extensions>
<speed>0.0</speed>
<temp>0.00</temp>
<bpm>0</bpm>
<rpm>0.00</rpm>
</extensions>
</trkpt>
<trkpt lat="64.130920410" lon="-20.321323395">
<ele>83.005859</ele>
<time>2012-07-20T17:29:54Z</time>
<extensions>
<speed>0.0</speed>
<temp>0.00</temp>
<bpm>0</bpm>
<rpm>0.00</rpm>
</extensions>
</trkpt>
<trkpt lat="64.130920410" lon="-20.321323395">
<ele>83.009766</ele>
<time>2012-07-20T17:29:59Z</time>
<extensions>
<speed>0.0</speed>
<temp>0.00</temp>
<bpm>0</bpm>
<rpm>0.00</rpm>
</extensions>
</trkpt>
<trkpt lat="64.130920410" lon="-20.321323395">
<ele>83.013672</ele>
<time>2012-07-20T17:30:04Z</time>
<extensions>
<speed>0.0</speed>
<temp>0.00</temp>
<bpm>0</bpm>
<rpm>0.00</rpm>
</extensions>
</trkpt>
<trkpt lat="64.130920410" lon="-20.321323395">
<ele>83.007813</ele>
<time>2012-07-20T17:30:09Z</time>
<extensions>
<speed>0.0</speed>
<temp>0.00</temp>
<bpm>0</bpm>
<rpm>0.00</rpm>
</extensions>
</trkpt>
<trkpt lat="64.130920410" lon="-20.321323395">
<ele>82.998047</ele>
<time>2012-07-20T17:30:14Z</time>
<extensions>
<speed>0.0</speed>
<temp>0.00</temp>
<bpm>0</bpm>
<rpm>0.00</rpm>
</extensions>
</trkpt>
<trkpt lat="64.130920410" lon="-20.321323395">
<ele>82.994141</ele>
<time>2012-07-20T17:30:19Z</time>
<extensions>
<speed>0.0</speed>
<temp>0.00</temp>
<bpm>0</bpm>
<rpm>0.00</rpm>
</extensions>
</trkpt>
<trkpt lat="64.130920410" lon="-20.321323395">
<ele>82.988281</ele>
<time>2012-07-20T17:30:24Z</time>
<extensions>
<speed>0.0</speed>
<temp>0.00</temp>
<bpm>0</bpm>
<rpm>0.00</rpm>
</extensions>
</trkpt>
<trkpt lat="64.130920410" lon="-20.321323395">
<ele>82.972656</ele>
<time>2012-07-20T17:30:29Z</time>
<extensions>
<speed>0.0</speed>
<temp>0.00</temp>
<bpm>0</bpm>
<rpm>0.00</rpm>
</extensions>
</trkpt>
<trkpt lat="64.130920410" lon="-20.321323395">
<ele>82.953125</ele>
<time>2012-07-20T17:30:34Z</time>
<extensions>
<speed>0.0</speed>
<temp>0.00</temp>
<bpm>0</bpm>
<rpm>0.00</rpm>
</extensions>
</trkpt>
<trkpt lat="64.130920410" lon="-20.321323395">
<ele>82.939453</ele>
<time>2012-07-20T17:30:39Z</time>
<extensions>
<speed>0.0</speed>
<temp>0.00</temp>
<bpm>0</bpm>
<rpm>0.00</rpm>
</extensions>
</trkpt>
<trkpt lat="64.130920410" lon="-20.321323395">
<ele>82.925781</ele>
<time>2012-07-20T17:30:44Z</time>
<speed>0.010000</speed>
<extensions>
<speed>0.0</speed>
<temp>0.00</temp>
<bpm>0</bpm>
<rpm>0.00</rpm>
</extensions>
</trkpt>
<trkpt lat="64.130920410" lon="-20.321323395">
<ele>82.910156</ele>
<time>2012-07-20T17:30:49Z</time>
<extensions>
<speed>0.0</speed>
<temp>0.00</temp>
<bpm>0</bpm>
<rpm>0.00</rpm>
</extensions>
</trkpt>
<trkpt lat="64.130920410" lon="-20.321321487">
<ele>82.898438</ele>
<time>2012-07-20T17:30:54Z</time>
<extensions>
<speed>0.0</speed>
<temp>0.00</temp>
<bpm>0</bpm>
<rpm>0.00</rpm>
</extensions>
</trkpt>
<trkpt lat="64.130920410" lon="-20.321321487">
<ele>82.894531</ele>
<time>2012-07-20T17:30:59Z</time>
<extensions>
<speed>0.0</speed>
<temp>0.00</temp>
<bpm>0</bpm>
<rpm>0.00</rpm>
</extensions>
</trkpt>
<trkpt lat="64.130920410" lon="-20.321323395">
<ele>82.890625</ele>
<time>2012-07-20T17:31:04Z</time>
<extensions>
<speed>0.0</speed>
<temp>0.00</temp>
<bpm>0</bpm>
<rpm>0.00</rpm>
</extensions>
</trkpt>
<trkpt lat="64.130920410" lon="-20.321323395">
<ele>82.861328</ele>
<time>2012-07-20T17:31:09Z</time>
<extensions>
<speed>0.0</speed>
<temp>0.00</temp>
<bpm>0</bpm>
<rpm>0.00</rpm>
</extensions>
</trkpt>
<trkpt lat="64.130920410" lon="-20.321323395">
<ele>82.849609</ele>
<time>2012-07-20T17:31:14Z</time>
<speed>0.010000</speed>
<extensions>
<speed>0.0</speed>
<temp>0.00</temp>
<bpm>0</bpm>
<rpm>0.00</rpm>
</extensions>
</trkpt>
<trkpt lat="64.130920410" lon="-20.321323395">
<ele>82.843750</ele>
<time>2012-07-20T17:31:19Z</time>
<extensions>
<speed>0.0</speed>
<temp>0.00</temp>
<bpm>0</bpm>
<rpm>0.00</rpm>
</extensions>
</trkpt>
<trkpt lat="64.130920410" lon="-20.321323395">
<ele>82.839844</ele>
<time>2012-07-20T17:31:24Z</time>
<speed>0.010000</speed>
<extensions>
<speed>0.0</speed>
<temp>0.00</temp>
<bpm>0</bpm>
<rpm>0.00</rpm>
</extensions>
</trkpt>
<trkpt lat="64.130920410" lon="-20.321323395">
<ele>82.816406</ele>
<time>2012-07-20T17:31:29Z</time>
<extensions>
<speed>0.0</speed>
<temp>0.00</temp>
<bpm>0</bpm>
<rpm>0.00</rpm>
</extensions>
</trkpt>
<trkpt lat="64.130920410" lon="-20.321323395">
<ele>82.794922</ele>
<time>2012-07-20T17:31:34Z</time>
<extensions>
<speed>0.0</speed>
<temp>0.00</temp>
<bpm>0</bpm>
<rpm>0.00</rpm>
</extensions>
</trkpt>
<trkpt lat="64.130920410" lon="-20.321323395">
<ele>82.757813</ele>
<time>2012-07-20T17:31:39Z</time>
<extensions>
<speed>0.0</speed>
<temp>0.00</temp>
<bpm>0</bpm>
<rpm>0.00</rpm>
</extensions>
</trkpt>
<trkpt lat="64.130920410" lon="-20.321323395">
<ele>82.728516</ele>
<time>2012-07-20T17:31:44Z</time>
<extensions>
<speed>0.0</speed>
<temp>0.00</temp>
<bpm>0</bpm>
<rpm>0.00</rpm>
</extensions>
</trkpt>
<trkpt lat="64.130920410" lon="-20.321323395">
<ele>82.703125</ele>
<time>2012-07-20T17:31:49Z</time>
<extensions>
<speed>0.0</speed>
<temp>0.00</temp>
<bpm>0</bpm>
<rpm>0.00</rpm>
</extensions>
</trkpt>
<trkpt lat="64.130920410" lon="-20.321323395">
<ele>82.685547</ele>
<time>2012-07-20T17:31:54Z</time>
<extensions>
<speed>0.0</speed>
<temp>0.00</temp>
<bpm>0</bpm>
<rpm>0.00</rpm>
</extensions>
</trkpt>
<trkpt lat="64.130920410" lon="-20.321323395">
<ele>82.662109</ele>
<time>2012-07-20T17:31:59Z</time>
<speed>0.010000</speed>
<extensions>
<speed>0.0</speed>
<temp>0.00</temp>
<bpm>0</bpm>
<rpm>0.00</rpm>
</extensions>
</trkpt>
<trkpt lat="64.130920410" lon="-20.321323395">
<ele>82.632813</ele>
<time>2012-07-20T17:32:04Z</time>
<speed>0.010000</speed>
<extensions>
<speed>0.0</speed>
<temp>0.00</temp>
<bpm>0</bpm>
<rpm>0.00</rpm>
</extensions>
</trkpt>
<trkpt lat="64.130912781" lon="-20.321323395">
<ele>82.599609</ele>
<time>2012-07-20T17:32:09Z</time>
<speed>0.020000</speed>
<extensions>
<speed>0.0</speed>
<temp>0.00</temp>
<bpm>0</bpm>
<rpm>0.00</rpm>
</extensions>
</trkpt>
<trkpt lat="64.130905151" lon="-20.321319580">
<ele>82.550781</ele>
<time>2012-07-20T17:32:14Z</time>
<speed>0.490000</speed>
<extensions>
<speed>0.5</speed>
<temp>0.00</temp>
<bpm>0</bpm>
<rpm>0.00</rpm>
</extensions>
</trkpt>
<trkpt lat="64.130882263" lon="-20.321331024">
<ele>82.228516</ele>
<time>2012-07-20T17:32:19Z</time>
<speed>0.330000</speed>
<extensions>
<speed>0.3</speed>
<temp>0.00</temp>
<bpm>0</bpm>
<rpm>0.00</rpm>
</extensions>
</trkpt>
<trkpt lat="64.130874634" lon="-20.321334839">
<ele>81.851563</ele>
<time>2012-07-20T17:32:24Z</time>
<speed>0.200000</speed>
<extensions>
<speed>0.2</speed>
<temp>0.00</temp>
<bpm>0</bpm>
<rpm>0.00</rpm>
</extensions>
</trkpt>
<trkpt lat="64.130836487" lon="-20.321277618">
<ele>82.007813</ele>
<time>2012-07-20T17:32:29Z</time>
<speed>1.200000</speed>
<extensions>
<speed>1.2</speed>
<temp>0.00</temp>
<bpm>0</bpm>
<rpm>0.00</rpm>
</extensions>
</trkpt>
<trkpt lat="64.130783081" lon="-20.321207047">
<ele>81.990234</ele>
<time>2012-07-20T17:32:34Z</time>
<speed>2.240000</speed>
<extensions>
<speed>2.2</speed>
<temp>0.00</temp>
<bpm>0</bpm>
<rpm>0.00</rpm>
</extensions>
</trkpt>
<trkpt lat="64.130676270" lon="-20.321163177">
<ele>81.796875</ele>
<time>2012-07-20T17:32:39Z</time>
<speed>2.020000</speed>
<extensions>
<speed>2.0</speed>
<temp>0.00</temp>
<bpm>0</bpm>
<rpm>0.00</rpm>
</extensions>
</trkpt>
<trkpt lat="64.130569458" lon="-20.321126938">
<ele>82.466797</ele>
<time>2012-07-20T17:32:44Z</time>
<speed>2.500000</speed>
<extensions>
<speed>2.5</speed>
<temp>0.00</temp>
<bpm>0</bpm>
<rpm>0.00</rpm>
</extensions>
</trkpt>
<trkpt lat="64.130470276" lon="-20.321029663">
<ele>83.804688</ele>
<time>2012-07-20T17:32:49Z</time>
<speed>2.440000</speed>
<extensions>
<speed>2.4</speed>
<temp>0.00</temp>
<bpm>0</bpm>
<rpm>0.00</rpm>
</extensions>
</trkpt>
<trkpt lat="64.130516052" lon="-20.320819855">
<ele>85.601563</ele>
<time>2012-07-20T17:32:54Z</time>
<speed>1.980000</speed>
<extensions>
<speed>2.0</speed>
<temp>0.00</temp>
<bpm>0</bpm>
<rpm>0.00</rpm>
</extensions>
</trkpt>
<trkpt lat="64.130554199" lon="-20.320732117">
<ele>85.300781</ele>
<time>2012-07-20T17:32:59Z</time>
<speed>0.090000</speed>
<extensions>
<speed>0.1</speed>
<temp>0.00</temp>
<bpm>0</bpm>
<rpm>0.00</rpm>
</extensions>
</trkpt>
<trkpt lat="64.130561829" lon="-20.320741653">
<ele>85.220703</ele>
<time>2012-07-20T17:33:04Z</time>
<speed>0.050000</speed>
<extensions>
<speed>0.1</speed>
<temp>0.00</temp>
<bpm>0</bpm>
<rpm>0.00</rpm>
</extensions>
</trkpt>
<trkpt lat="64.130554199" lon="-20.320745468">
<ele>85.339844</ele>
<time>2012-07-20T17:33:09Z</time>
<speed>0.040000</speed>
<extensions>
<speed>0.0</speed>
<temp>0.00</temp>
<bpm>0</bpm>
<rpm>0.00</rpm>
</extensions>
</trkpt>
<trkpt lat="64.130554199" lon="-20.320737839">
<ele>85.375000</ele>
<time>2012-07-20T17:33:14Z</time>
<speed>0.010000</speed>
<extensions>
<speed>0.0</speed>
<temp>0.00</temp>
<bpm>0</bpm>
<rpm>0.00</rpm>
</extensions>
</trkpt>
<trkpt lat="64.130554199" lon="-20.320739746">
<ele>85.375000</ele>
<time>2012-07-20T17:33:19Z</time>
<speed>0.100000</speed>
<extensions>
<speed>0.1</speed>
<temp>0.00</temp>
<bpm>0</bpm>
<rpm>0.00</rpm>
</extensions>
</trkpt>
<trkpt lat="64.130554199" lon="-20.320737839">
<ele>85.373047</ele>
<time>2012-07-20T17:33:24Z</time>
<speed>0.040000</speed>
<extensions>
<speed>0.0</speed>
<temp>0.00</temp>
<bpm>0</bpm>
<rpm>0.00</rpm>
</extensions>
</trkpt>
<trkpt lat="64.130554199" lon="-20.320735931">
<ele>85.359375</ele>
<time>2012-07-20T17:33:29Z</time>
<speed>0.010000</speed>
<extensions>
<speed>0.0</speed>
<temp>0.00</temp>
<bpm>0</bpm>
<rpm>0.00</rpm>
</extensions>
</trkpt>
<trkpt lat="64.130554199" lon="-20.320735931">
<ele>85.335938</ele>
<time>2012-07-20T17:33:34Z</time>
<speed>0.030000</speed>
<extensions>
<speed>0.0</speed>
<temp>0.00</temp>
<bpm>0</bpm>
<rpm>0.00</rpm>
</extensions>
</trkpt>
<trkpt lat="64.130554199" lon="-20.320734024">
<ele>85.335938</ele>
<time>2012-07-20T17:33:39Z</time>
<speed>0.010000</speed>
<extensions>
<speed>0.0</speed>
<temp>0.00</temp>
<bpm>0</bpm>
<rpm>0.00</rpm>
</extensions>
</trkpt>
<trkpt lat="64.130554199" lon="-20.320734024">
<ele>85.330078</ele>
<time>2012-07-20T17:33:44Z</time>
<extensions>
<speed>0.0</speed>
<temp>0.00</temp>
<bpm>0</bpm>
<rpm>0.00</rpm>
</extensions>
</trkpt>
<trkpt lat="64.130554199" lon="-20.320734024">
<ele>85.318359</ele>
<time>2012-07-20T17:33:49Z</time>
<speed>0.010000</speed>
<extensions>
<speed>0.0</speed>
<temp>0.00</temp>
<bpm>0</bpm>
<rpm>0.00</rpm>
</extensions>
</trkpt>
<trkpt lat="64.130554199" lon="-20.320732117">
<ele>85.320313</ele>
<time>2012-07-20T17:33:54Z</time>
<speed>0.080000</speed>
<extensions>
<speed>0.1</speed>
<temp>0.00</temp>
<bpm>0</bpm>
<rpm>0.00</rpm>
</extensions>
</trkpt>
<trkpt lat="64.130554199" lon="-20.320732117">
<ele>85.324219</ele>
<time>2012-07-20T17:33:59Z</time>
<extensions>
<speed>0.0</speed>
<temp>0.00</temp>
<bpm>0</bpm>
<rpm>0.00</rpm>
</extensions>
</trkpt>
<trkpt lat="64.130554199" lon="-20.320732117">
<ele>85.324219</ele>
<time>2012-07-20T17:34:04Z</time>
<extensions>
<speed>0.0</speed>
<temp>0.00</temp>
<bpm>0</bpm>
<rpm>0.00</rpm>
</extensions>
</trkpt>
<trkpt lat="64.130554199" lon="-20.320732117">
<ele>85.349609</ele>
<time>2012-07-20T17:34:09Z</time>
<extensions>
<speed>0.0</speed>
<temp>0.00</temp>
<bpm>0</bpm>
<rpm>0.00</rpm>
</extensions>
</trkpt>
<trkpt lat="64.130554199" lon="-20.320734024">
<ele>85.371094</ele>
<time>2012-07-20T17:34:14Z</time>
<extensions>
<speed>0.0</speed>
<temp>0.00</temp>
<bpm>0</bpm>
<rpm>0.00</rpm>
</extensions>
</trkpt>
<trkpt lat="64.130554199" lon="-20.320734024">
<ele>85.396484</ele>
<time>2012-07-20T17:34:19Z</time>
<speed>0.010000</speed>
<extensions>
<speed>0.0</speed>
<temp>0.00</temp>
<bpm>0</bpm>
<rpm>0.00</rpm>
</extensions>
</trkpt>
<trkpt lat="64.130554199" lon="-20.320734024">
<ele>85.400391</ele>
<time>2012-07-20T17:34:24Z</time>
<speed>0.010000</speed>
<extensions>
<speed>0.0</speed>
<temp>0.00</temp>
<bpm>0</bpm>
<rpm>0.00</rpm>
</extensions>
</trkpt>
<trkpt lat="64.130561829" lon="-20.320734024">
<ele>85.376953</ele>
<time>2012-07-20T17:34:29Z</time>
<speed>0.010000</speed>
<extensions>
<speed>0.0</speed>
<temp>0.00</temp>
<bpm>0</bpm>
<rpm>0.00</rpm>
</extensions>
</trkpt>
<trkpt lat="64.130561829" lon="-20.320734024">
<ele>85.369141</ele>
<time>2012-07-20T17:34:34Z</time>
<speed>0.060000</speed>
<extensions>
<speed>0.1</speed>
<temp>0.00</temp>
<bpm>0</bpm>
<rpm>0.00</rpm>
</extensions>
</trkpt>
<trkpt lat="64.130561829" lon="-20.320734024">
<ele>85.371094</ele>
<time>2012-07-20T17:34:39Z</time>
<speed>0.010000</speed>
<extensions>
<speed>0.0</speed>
<temp>0.00</temp>
<bpm>0</bpm>
<rpm>0.00</rpm>
</extensions>
</trkpt>
<trkpt lat="64.130592346" lon="-20.320753098">
<ele>85.513672</ele>
<time>2012-07-20T17:34:44Z</time>
<speed>1.370000</speed>
<extensions>
<speed>1.4</speed>
<temp>0.00</temp>
<bpm>0</bpm>
<rpm>0.00</rpm>
</extensions>
</trkpt>
<trkpt lat="64.130668640" lon="-20.320878983">
<ele>85.412109</ele>
<time>2012-07-20T17:34:49Z</time>
<speed>1.510000</speed>
<extensions>
<speed>1.5</speed>
<temp>0.00</temp>
<bpm>0</bpm>
<rpm>0.00</rpm>
</extensions>
</trkpt>
<trkpt lat="64.130622864" lon="-20.321023941">
<ele>85.560547</ele>
<time>2012-07-20T17:34:54Z</time>
<speed>2.650000</speed>
<extensions>
<speed>2.6</speed>
<temp>0.00</temp>
<bpm>0</bpm>
<rpm>0.00</rpm>
</extensions>
</trkpt>
<trkpt lat="64.130493164" lon="-20.321006775">
<ele>85.060547</ele>
<time>2012-07-20T17:34:59Z</time>
<speed>2.390000</speed>
<extensions>
<speed>2.4</speed>
<temp>0.00</temp>
<bpm>0</bpm>
<rpm>0.00</rpm>
</extensions>
</trkpt>
<trkpt lat="64.130531311" lon="-20.321166992">
<ele>84.875000</ele>
<time>2012-07-20T17:35:04Z</time>
<speed>2.220000</speed>
<extensions>
<speed>2.2</speed>
<temp>0.00</temp>
<bpm>0</bpm>
<rpm>0.00</rpm>
</extensions>
</trkpt>
<trkpt lat="64.130615234" lon="-20.321166992">
<ele>88.488281</ele>
<time>2012-07-20T17:35:09Z</time>
<speed>1.880000</speed>
<extensions>
<speed>1.9</speed>
<temp>0.00</temp>
<bpm>0</bpm>
<rpm>0.00</rpm>
</extensions>
</trkpt>
<trkpt lat="64.130653381" lon="-20.321153641">
<ele>89.111328</ele>
<time>2012-07-20T17:35:14Z</time>
<speed>0.100000</speed>
<extensions>
<speed>0.1</speed>
<temp>0.00</temp>
<bpm>0</bpm>
<rpm>0.00</rpm>
</extensions>
</trkpt>
<trkpt lat="64.130653381" lon="-20.321123123">
<ele>88.333984</ele>
<time>2012-07-20T17:35:19Z</time>
<speed>0.010000</speed>
<extensions>
<speed>0.0</speed>
<temp>0.00</temp>
<bpm>0</bpm>
<rpm>0.00</rpm>
</extensions>
</trkpt>
<trkpt lat="64.130653381" lon="-20.321125031">
<ele>88.453125</ele>
<time>2012-07-20T17:35:24Z</time>
<extensions>
<speed>0.0</speed>
<temp>0.00</temp>
<bpm>0</bpm>
<rpm>0.00</rpm>
</extensions>
</trkpt>
<trkpt lat="64.130653381" lon="-20.321125031">
<ele>88.449219</ele>
<time>2012-07-20T17:35:29Z</time>
<extensions>
<speed>0.0</speed>
<temp>0.00</temp>
<bpm>0</bpm>
<rpm>0.00</rpm>
</extensions>
</trkpt>
<trkpt lat="64.130653381" lon="-20.321125031">
<ele>88.435547</ele>
<time>2012-07-20T17:35:34Z</time>
<speed>0.010000</speed>
<extensions>
<speed>0.0</speed>
<temp>0.00</temp>
<bpm>0</bpm>
<rpm>0.00</rpm>
</extensions>
</trkpt>
<trkpt lat="64.130653381" lon="-20.321125031">
<ele>88.390625</ele>
<time>2012-07-20T17:35:39Z</time>
<speed>0.010000</speed>
<extensions>
<speed>0.0</speed>
<temp>0.00</temp>
<bpm>0</bpm>
<rpm>0.00</rpm>
</extensions>
</trkpt>
<trkpt lat="64.130653381" lon="-20.321125031">
<ele>88.320313</ele>
<time>2012-07-20T17:35:44Z</time>
<speed>0.020000</speed>
<extensions>
<speed>0.0</speed>
<temp>0.00</temp>
<bpm>0</bpm>
<rpm>0.00</rpm>
</extensions>
</trkpt>
<trkpt lat="64.130653381" lon="-20.321125031">
<ele>88.312500</ele>
<time>2012-07-20T17:35:49Z</time>
<extensions>
<speed>0.0</speed>
<temp>0.00</temp>
<bpm>0</bpm>
<rpm>0.00</rpm>
</extensions>
</trkpt>
<trkpt lat="64.130653381" lon="-20.321126938">
<ele>88.302734</ele>
<time>2012-07-20T17:35:54Z</time>
<speed>0.090000</speed>
<extensions>
<speed>0.1</speed>
<temp>0.00</temp>
<bpm>0</bpm>
<rpm>0.00</rpm>
</extensions>
</trkpt>
<trkpt lat="64.130706787" lon="-20.321163177">
<ele>87.708984</ele>
<time>2012-07-20T17:35:59Z</time>
<speed>2.020000</speed>
<extensions>
<speed>2.0</speed>
<temp>0.00</temp>
<bpm>0</bpm>
<rpm>0.00</rpm>
</extensions>
</trkpt>
<trkpt lat="64.130744934" lon="-20.320970535">
<ele>86.351563</ele>
<time>2012-07-20T17:36:04Z</time>
<speed>2.420000</speed>
<extensions>
<speed>2.4</speed>
<temp>0.00</temp>
<bpm>0</bpm>
<rpm>0.00</rpm>
</extensions>
</trkpt>
<trkpt lat="64.130752563" lon="-20.320749283">
<ele>85.765625</ele>
<time>2012-07-20T17:36:09Z</time>
<speed>2.320000</speed>
<extensions>
<speed>2.3</speed>
<temp>0.00</temp>
<bpm>0</bpm>
<rpm>0.00</rpm>
</extensions>
</trkpt>
<trkpt lat="64.130760193" lon="-20.320577621">
<ele>84.853516</ele>
<time>2012-07-20T17:36:14Z</time>
<speed>1.510000</speed>
<extensions>
<speed>1.5</speed>
<temp>0.00</temp>
<bpm>0</bpm>
<rpm>0.00</rpm>
</extensions>
</trkpt>
<trkpt lat="64.130760193" lon="-20.320339203">
<ele>84.134766</ele>
<time>2012-07-20T17:36:19Z</time>
<speed>2.890000</speed>
<extensions>
<speed>2.9</speed>
<temp>0.00</temp>
<bpm>0</bpm>
<rpm>0.00</rpm>
</extensions>
</trkpt>
<trkpt lat="64.130760193" lon="-20.320083618">
<ele>84.406250</ele>
<time>2012-07-20T17:36:24Z</time>
<speed>2.450000</speed>
<extensions>
<speed>2.4</speed>
<temp>0.00</temp>
<bpm>0</bpm>
<rpm>0.00</rpm>
</extensions>
</trkpt>
<trkpt lat="64.130714417" lon="-20.319791794">
<ele>81.521484</ele>
<time>2012-07-20T17:36:29Z</time>
<speed>3.050000</speed>
<extensions>
<speed>3.0</speed>
<temp>0.00</temp>
<bpm>0</bpm>
<rpm>0.00</rpm>
</extensions>
</trkpt>
<trkpt lat="64.130691528" lon="-20.319421768">
<ele>81.966797</ele>
<time>2012-07-20T17:36:34Z</time>
<speed>3.640000</speed>
<extensions>
<speed>3.6</speed>
<temp>0.00</temp>
<bpm>0</bpm>
<rpm>0.00</rpm>
</extensions>
</trkpt>
<trkpt lat="64.130661011" lon="-20.319046021">
<ele>82.080078</ele>
<time>2012-07-20T17:36:39Z</time>
<speed>3.620000</speed>
<extensions>
<speed>3.6</speed>
<temp>0.00</temp>
<bpm>0</bpm>
<rpm>0.00</rpm>
</extensions>
</trkpt>
<trkpt lat="64.130615234" lon="-20.318681717">
<ele>82.857422</ele>
<time>2012-07-20T17:36:44Z</time>
<speed>4.130000</speed>
<extensions>
<speed>4.1</speed>
<temp>0.00</temp>
<bpm>0</bpm>
<rpm>0.00</rpm>
</extensions>
</trkpt>
<trkpt lat="64.130554199" lon="-20.318252563">
<ele>83.025391</ele>
<time>2012-07-20T17:36:49Z</time>
<speed>4.290000</speed>
<extensions>
<speed>4.3</speed>
<temp>0.00</temp>
<bpm>0</bpm>
<rpm>0.00</rpm>
</extensions>
</trkpt>
<trkpt lat="64.130470276" lon="-20.317850113">
<ele>82.517578</ele>
<time>2012-07-20T17:36:54Z</time>
<speed>4.540000</speed>
<extensions>
<speed>4.5</speed>
<temp>0.00</temp>
<bpm>0</bpm>
<rpm>0.00</rpm>
</extensions>
</trkpt>
<trkpt lat="64.130348206" lon="-20.317449570">
<ele>81.046875</ele>
<time>2012-07-20T17:36:59Z</time>
<speed>4.720000</speed>
<extensions>
<speed>4.7</speed>
<temp>0.00</temp>
<bpm>0</bpm>
<rpm>0.00</rpm>
</extensions>
</trkpt>
<trkpt lat="64.130195618" lon="-20.317054749">
<ele>80.623047</ele>
<time>2012-07-20T17:37:04Z</time>
<speed>5.310000</speed>
<extensions>
<speed>5.3</speed>
<temp>0.00</temp>
<bpm>0</bpm>
<rpm>0.00</rpm>
</extensions>
</trkpt>
<trkpt lat="64.130027771" lon="-20.316730499">
<ele>80.464844</ele>
<time>2012-07-20T17:37:09Z</time>
<speed>4.630000</speed>
<extensions>
<speed>4.6</speed>
<temp>0.00</temp>
<bpm>0</bpm>
<rpm>0.00</rpm>
</extensions>
</trkpt>
<trkpt lat="64.129829407" lon="-20.316432953">
<ele>80.839844</ele>
<time>2012-07-20T17:37:14Z</time>
<speed>4.540000</speed>
<extensions>
<speed>4.5</speed>
<temp>0.00</temp>
<bpm>0</bpm>
<rpm>0.00</rpm>
</extensions>
</trkpt>
<trkpt lat="64.129615784" lon="-20.316320419">
<ele>81.521484</ele>
<time>2012-07-20T17:37:19Z</time>
<speed>4.410000</speed>
<extensions>
<speed>4.4</speed>
<temp>0.00</temp>
<bpm>0</bpm>
<rpm>0.00</rpm>
</extensions>
</trkpt>
<trkpt lat="64.129402161" lon="-20.316345215">
<ele>79.806641</ele>
<time>2012-07-20T17:37:24Z</time>
<speed>4.580000</speed>
<extensions>
<speed>4.6</speed>
<temp>0.00</temp>
<bpm>0</bpm>
<rpm>0.00</rpm>
</extensions>
</trkpt>
<trkpt lat="64.129196167" lon="-20.316478729">
<ele>79.726563</ele>
<time>2012-07-20T17:37:29Z</time>
<speed>5.050000</speed>
<extensions>
<speed>5.1</speed>
<temp>0.00</temp>
<bpm>0</bpm>
<rpm>0.00</rpm>
</extensions>
</trkpt>
<trkpt lat="64.128974915" lon="-20.316625595">
<ele>79.261719</ele>
<time>2012-07-20T17:37:34Z</time>
<speed>5.060000</speed>
<extensions>
<speed>5.1</speed>
<temp>0.00</temp>
<bpm>0</bpm>
<rpm>0.00</rpm>
</extensions>
</trkpt>
<trkpt lat="64.128715515" lon="-20.316734314">
<ele>79.328125</ele>
<time>2012-07-20T17:37:39Z</time>
<speed>6.010000</speed>
<extensions>
<speed>6.0</speed>
<temp>0.00</temp>
<bpm>0</bpm>
<rpm>0.00</rpm>
</extensions>
</trkpt>
<trkpt lat="64.128463745" lon="-20.316757202">
<ele>80.455078</ele>
<time>2012-07-20T17:37:44Z</time>
<speed>5.190000</speed>
<extensions>
<speed>5.2</speed>
<temp>0.00</temp>
<bpm>0</bpm>
<rpm>0.00</rpm>
</extensions>
</trkpt>
<trkpt lat="64.128227234" lon="-20.316703796">
<ele>83.205078</ele>
<time>2012-07-20T17:37:49Z</time>
<speed>5.640000</speed>
<extensions>
<speed>5.6</speed>
<temp>0.00</temp>
<bpm>0</bpm>
<rpm>0.00</rpm>
</extensions>
</trkpt>
<trkpt lat="64.127983093" lon="-20.316583633">
<ele>83.746094</ele>
<time>2012-07-20T17:37:54Z</time>
<speed>5.950000</speed>
<extensions>
<speed>6.0</speed>
<temp>0.00</temp>
<bpm>0</bpm>
<rpm>0.00</rpm>
</extensions>
</trkpt>
<trkpt lat="64.127746582" lon="-20.316495895">
<ele>83.759766</ele>
<time>2012-07-20T17:37:59Z</time>
<speed>4.640000</speed>
<extensions>
<speed>4.6</speed>
<temp>0.00</temp>
<bpm>0</bpm>
<rpm>0.00</rpm>
</extensions>
</trkpt>
<trkpt lat="64.127517700" lon="-20.316457748">
<ele>82.832031</ele>
<time>2012-07-20T17:38:04Z</time>
<speed>5.290000</speed>
<extensions>
<speed>5.3</speed>
<temp>0.00</temp>
<bpm>0</bpm>
<rpm>0.00</rpm>
</extensions>
</trkpt>
<trkpt lat="64.127296448" lon="-20.316493988">
<ele>83.589844</ele>
<time>2012-07-20T17:38:09Z</time>
<speed>4.490000</speed>
<extensions>
<speed>4.5</speed>
<temp>0.00</temp>
<bpm>0</bpm>
<rpm>0.00</rpm>
</extensions>
</trkpt>
<trkpt lat="64.127098083" lon="-20.316562653">
<ele>85.181641</ele>
<time>2012-07-20T17:38:14Z</time>
<speed>4.680000</speed>
<extensions>
<speed>4.7</speed>
<temp>0.00</temp>
<bpm>0</bpm>
<rpm>0.00</rpm>
</extensions>
</trkpt>
<trkpt lat="64.126884460" lon="-20.316675186">
<ele>86.099609</ele>
<time>2012-07-20T17:38:19Z</time>
<speed>4.460000</speed>
<extensions>
<speed>4.5</speed>
<temp>0.00</temp>
<bpm>0</bpm>
<rpm>0.00</rpm>
</extensions>
</trkpt>
<trkpt lat="64.126693726" lon="-20.316843033">
<ele>85.191406</ele>
<time>2012-07-20T17:38:24Z</time>
<speed>4.650000</speed>
<extensions>
<speed>4.6</speed>
<temp>0.00</temp>
<bpm>0</bpm>
<rpm>0.00</rpm>
</extensions>
</trkpt>
<trkpt lat="64.126495361" lon="-20.317045212">
<ele>84.843750</ele>
<time>2012-07-20T17:38:29Z</time>
<speed>4.790000</speed>
<extensions>
<speed>4.8</speed>
<temp>0.00</temp>
<bpm>0</bpm>
<rpm>0.00</rpm>
</extensions>
</trkpt>
<trkpt lat="64.126319885" lon="-20.317213058">
<ele>85.419922</ele>
<time>2012-07-20T17:38:34Z</time>
<speed>3.760000</speed>
<extensions>
<speed>3.8</speed>
<temp>0.00</temp>
<bpm>0</bpm>
<rpm>0.00</rpm>
</extensions>
</trkpt>
<trkpt lat="64.126136780" lon="-20.317367554">
<ele>85.939453</ele>
<time>2012-07-20T17:38:39Z</time>
<speed>4.840000</speed>
<extensions>
<speed>4.8</speed>
<temp>0.00</temp>
<bpm>0</bpm>
<rpm>0.00</rpm>
</extensions>
</trkpt>
<trkpt lat="64.125915527" lon="-20.317485809">
<ele>85.666016</ele>
<time>2012-07-20T17:38:44Z</time>
<speed>4.750000</speed>
<extensions>
<speed>4.8</speed>
<temp>0.00</temp>
<bpm>0</bpm>
<rpm>0.00</rpm>
</extensions>
</trkpt>
<trkpt lat="64.125740051" lon="-20.317571640">
<ele>85.583984</ele>
<time>2012-07-20T17:38:49Z</time>
<speed>3.960000</speed>
<extensions>
<speed>4.0</speed>
<temp>0.00</temp>
<bpm>0</bpm>
<rpm>0.00</rpm>
</extensions>
</trkpt>
<trkpt lat="64.125549316" lon="-20.317611694">
<ele>85.220703</ele>
<time>2012-07-20T17:38:54Z</time>
<speed>4.550000</speed>
<extensions>
<speed>4.5</speed>
<temp>0.00</temp>
<bpm>0</bpm>
<rpm>0.00</rpm>
</extensions>
</trkpt>
<trkpt lat="64.125343323" lon="-20.317607880">
<ele>85.248047</ele>
<time>2012-07-20T17:38:59Z</time>
<speed>4.540000</speed>
<extensions>
<speed>4.5</speed>
<temp>0.00</temp>
<bpm>0</bpm>
<rpm>0.00</rpm>
</extensions>
</trkpt>
<trkpt lat="64.125167847" lon="-20.317615509">
<ele>85.939453</ele>
<time>2012-07-20T17:39:04Z</time>
<speed>3.260000</speed>
<extensions>
<speed>3.3</speed>
<temp>0.00</temp>
<bpm>0</bpm>
<rpm>0.00</rpm>
</extensions>
</trkpt>
<trkpt lat="64.124992371" lon="-20.317594528">
<ele>85.099609</ele>
<time>2012-07-20T17:39:09Z</time>
<speed>3.860000</speed>
<extensions>
<speed>3.9</speed>
<temp>0.00</temp>
<bpm>0</bpm>
<rpm>0.00</rpm>
</extensions>
</trkpt>
<trkpt lat="64.124809265" lon="-20.317592621">
<ele>85.048828</ele>
<time>2012-07-20T17:39:14Z</time>
<speed>4.610000</speed>
<extensions>
<speed>4.6</speed>
<temp>0.00</temp>
<bpm>0</bpm>
<rpm>0.00</rpm>
</extensions>
</trkpt>
<trkpt lat="64.124588013" lon="-20.317583084">
<ele>84.968750</ele>
<time>2012-07-20T17:39:19Z</time>
<speed>5.000000</speed>
<extensions>
<speed>5.0</speed>
<temp>0.00</temp>
<bpm>0</bpm>
<rpm>0.00</rpm>
</extensions>
</trkpt>
<trkpt lat="64.124374390" lon="-20.317579269">
<ele>84.666016</ele>
<time>2012-07-20T17:39:24Z</time>
<speed>4.260000</speed>
<extensions>
<speed>4.3</speed>
<temp>0.00</temp>
<bpm>0</bpm>
<rpm>0.00</rpm>
</extensions>
</trkpt>
<trkpt lat="64.124160767" lon="-20.317598343">
<ele>85.955078</ele>
<time>2012-07-20T17:39:29Z</time>
<speed>5.100000</speed>
<extensions>
<speed>5.1</speed>
<temp>0.00</temp>
<bpm>0</bpm>
<rpm>0.00</rpm>
</extensions>
</trkpt>
<trkpt lat="64.123924255" lon="-20.317613602">
<ele>86.625000</ele>
<time>2012-07-20T17:39:34Z</time>
<speed>5.370000</speed>
<extensions>
<speed>5.4</speed>
<temp>0.00</temp>
<bpm>0</bpm>
<rpm>0.00</rpm>
</extensions>
</trkpt>
<trkpt lat="64.123687744" lon="-20.317607880">
<ele>86.656250</ele>
<time>2012-07-20T17:39:39Z</time>
<speed>4.750000</speed>
<extensions>
<speed>4.8</speed>
<temp>0.00</temp>
<bpm>0</bpm>
<rpm>0.00</rpm>
</extensions>
</trkpt>
<trkpt lat="64.123489380" lon="-20.317604065">
<ele>86.400391</ele>
<time>2012-07-20T17:39:44Z</time>
<speed>4.240000</speed>
<extensions>
<speed>4.2</speed>
<temp>0.00</temp>
<bpm>0</bpm>
<rpm>0.00</rpm>
</extensions>
</trkpt>
<trkpt lat="64.123291016" lon="-20.317605972">
<ele>86.107422</ele>
<time>2012-07-20T17:39:49Z</time>
<speed>4.820000</speed>
<extensions>
<speed>4.8</speed>
<temp>0.00</temp>
<bpm>0</bpm>
<rpm>0.00</rpm>
</extensions>
</trkpt>
<trkpt lat="64.123062134" lon="-20.317613602">
<ele>85.638672</ele>
<time>2012-07-20T17:39:54Z</time>
<speed>4.750000</speed>
<extensions>
<speed>4.8</speed>
<temp>0.00</temp>
<bpm>0</bpm>
<rpm>0.00</rpm>
</extensions>
</trkpt>
<trkpt lat="64.122848511" lon="-20.317590714">
<ele>84.814453</ele>
<time>2012-07-20T17:39:59Z</time>
<speed>5.030000</speed>
<extensions>
<speed>5.0</speed>
<temp>0.00</temp>
<bpm>0</bpm>
<rpm>0.00</rpm>
</extensions>
</trkpt>
<trkpt lat="64.122619629" lon="-20.317584991">
<ele>84.343750</ele>
<time>2012-07-20T17:40:04Z</time>
<speed>4.790000</speed>
<extensions>
<speed>4.8</speed>
<temp>0.00</temp>
<bpm>0</bpm>
<rpm>0.00</rpm>
</extensions>
</trkpt>
<trkpt lat="64.122413635" lon="-20.317564011">
<ele>84.105469</ele>
<time>2012-07-20T17:40:09Z</time>
<speed>4.810000</speed>
<extensions>
<speed>4.8</speed>
<temp>0.00</temp>
<bpm>0</bpm>
<rpm>0.00</rpm>
</extensions>
</trkpt>
<trkpt lat="64.122200012" lon="-20.317565918">
<ele>84.007813</ele>
<time>2012-07-20T17:40:14Z</time>
<speed>4.520000</speed>
<extensions>
<speed>4.5</speed>
<temp>0.00</temp>
<bpm>0</bpm>
<rpm>0.00</rpm>
</extensions>
</trkpt>
<trkpt lat="64.122024536" lon="-20.317565918">
<ele>84.064453</ele>
<time>2012-07-20T17:40:19Z</time>
<speed>3.330000</speed>
<extensions>
<speed>3.3</speed>
<temp>0.00</temp>
<bpm>0</bpm>
<rpm>0.00</rpm>
</extensions>
</trkpt>
<trkpt lat="64.121841431" lon="-20.317567825">
<ele>83.791016</ele>
<time>2012-07-20T17:40:24Z</time>
<speed>4.470000</speed>
<extensions>
<speed>4.5</speed>
<temp>0.00</temp>
<bpm>0</bpm>
<rpm>0.00</rpm>
</extensions>
</trkpt>
<trkpt lat="64.121627808" lon="-20.317550659">
<ele>83.726563</ele>
<time>2012-07-20T17:40:29Z</time>
<speed>4.890000</speed>
<extensions>
<speed>4.9</speed>
<temp>0.00</temp>
<bpm>0</bpm>
<rpm>0.00</rpm>
</extensions>
</trkpt>
<trkpt lat="64.121414185" lon="-20.317556381">
<ele>84.753906</ele>
<time>2012-07-20T17:40:34Z</time>
<speed>5.010000</speed>
<extensions>
<speed>5.0</speed>
<temp>0.00</temp>
<bpm>0</bpm>
<rpm>0.00</rpm>
</extensions>
</trkpt>
<trkpt lat="64.121200562" lon="-20.317569733">
<ele>85.109375</ele>
<time>2012-07-20T17:40:39Z</time>
<speed>4.280000</speed>
<extensions>
<speed>4.3</speed>
<temp>0.00</temp>
<bpm>0</bpm>
<rpm>0.00</rpm>
</extensions>
</trkpt>
<trkpt lat="64.121040344" lon="-20.317565918">
<ele>85.333984</ele>
<time>2012-07-20T17:40:44Z</time>
<speed>3.100000</speed>
<extensions>
<speed>3.1</speed>
<temp>0.00</temp>
<bpm>0</bpm>
<rpm>0.00</rpm>
</extensions>
</trkpt>
<trkpt lat="64.120880127" lon="-20.317550659">
<ele>85.660156</ele>
<time>2012-07-20T17:40:49Z</time>
<speed>4.030000</speed>
<extensions>
<speed>4.0</speed>
<temp>0.00</temp>
<bpm>0</bpm>
<rpm>0.00</rpm>
</extensions>
</trkpt>
<trkpt lat="64.120689392" lon="-20.317539215">
<ele>85.482422</ele>
<time>2012-07-20T17:40:54Z</time>
<speed>4.630000</speed>
<extensions>
<speed>4.6</speed>
<temp>0.00</temp>
<bpm>0</bpm>
<rpm>0.00</rpm>
</extensions>
</trkpt>
<trkpt lat="64.120468140" lon="-20.317518234">
<ele>84.519531</ele>
<time>2012-07-20T17:40:59Z</time>
<speed>5.070000</speed>
<extensions>
<speed>5.1</speed>
<temp>0.00</temp>
<bpm>0</bpm>
<rpm>0.00</rpm>
</extensions>
</trkpt>
<trkpt lat="64.120239258" lon="-20.317504883">
<ele>84.591797</ele>
<time>2012-07-20T17:41:04Z</time>
<speed>5.150000</speed>
<extensions>
<speed>5.2</speed>
<temp>0.00</temp>
<bpm>0</bpm>
<rpm>0.00</rpm>
</extensions>
</trkpt>
<trkpt lat="64.120002747" lon="-20.317501068">
<ele>85.183594</ele>
<time>2012-07-20T17:41:09Z</time>
<speed>4.970000</speed>
<extensions>
<speed>5.0</speed>
<temp>0.00</temp>
<bpm>0</bpm>
<rpm>0.00</rpm>
</extensions>
</trkpt>
<trkpt lat="64.119819641" lon="-20.317504883">
<ele>85.390625</ele>
<time>2012-07-20T17:41:14Z</time>
<speed>3.480000</speed>
<extensions>
<speed>3.5</speed>
<temp>0.00</temp>
<bpm>0</bpm>
<rpm>0.00</rpm>
</extensions>
</trkpt>
<trkpt lat="64.119659424" lon="-20.317506790">
<ele>86.431641</ele>
<time>2012-07-20T17:41:19Z</time>
<speed>3.940000</speed>
<extensions>
<speed>3.9</speed>
<temp>0.00</temp>
<bpm>0</bpm>
<rpm>0.00</rpm>
</extensions>
</trkpt>
<trkpt lat="64.119476318" lon="-20.317516327">
<ele>86.812500</ele>
<time>2012-07-20T17:41:24Z</time>
<speed>4.040000</speed>
<extensions>
<speed>4.0</speed>
<temp>0.00</temp>
<bpm>0</bpm>
<rpm>0.00</rpm>
</extensions>
</trkpt>
<trkpt lat="64.119293213" lon="-20.317520142">
<ele>88.142578</ele>
<time>2012-07-20T17:41:29Z</time>
<speed>4.120000</speed>
<extensions>
<speed>4.1</speed>
<temp>0.00</temp>
<bpm>0</bpm>
<rpm>0.00</rpm>
</extensions>
</trkpt>
<trkpt lat="64.119110107" lon="-20.317510605">
<ele>88.951172</ele>
<time>2012-07-20T17:41:34Z</time>
<speed>4.210000</speed>
<extensions>
<speed>4.2</speed>
<temp>0.00</temp>
<bpm>0</bpm>
<rpm>0.00</rpm>
</extensions>
</trkpt>
<trkpt lat="64.118927002" lon="-20.317493439">
<ele>88.927734</ele>
<time>2012-07-20T17:41:39Z</time>
<speed>3.510000</speed>
<extensions>
<speed>3.5</speed>
<temp>0.00</temp>
<bpm>0</bpm>
<rpm>0.00</rpm>
</extensions>
</trkpt>
<trkpt lat="64.118751526" lon="-20.317485809">
<ele>88.029297</ele>
<time>2012-07-20T17:41:44Z</time>
<speed>4.320000</speed>
<extensions>
<speed>4.3</speed>
<temp>0.00</temp>
<bpm>0</bpm>
<rpm>0.00</rpm>
</extensions>
</trkpt>
<trkpt lat="64.118560791" lon="-20.317480087">
<ele>90.132813</ele>
<time>2012-07-20T17:41:49Z</time>
<speed>4.020000</speed>
<extensions>
<speed>4.0</speed>
<temp>0.00</temp>
<bpm>0</bpm>
<rpm>0.00</rpm>
</extensions>
</trkpt>
<trkpt lat="64.118400574" lon="-20.317497253">
<ele>91.847656</ele>
<time>2012-07-20T17:41:54Z</time>
<speed>4.260000</speed>
<extensions>
<speed>4.3</speed>
<temp>0.00</temp>
<bpm>0</bpm>
<rpm>0.00</rpm>
</extensions>
</trkpt>
<trkpt lat="64.118209839" lon="-20.317510605">
<ele>91.888672</ele>
<time>2012-07-20T17:41:59Z</time>
<speed>3.620000</speed>
<extensions>
<speed>3.6</speed>
<temp>0.00</temp>
<bpm>0</bpm>
<rpm>0.00</rpm>
</extensions>
</trkpt>
<trkpt lat="64.118034363" lon="-20.317543030">
<ele>92.320313</ele>
<time>2012-07-20T17:42:04Z</time>
<speed>4.000000</speed>
<extensions>
<speed>4.0</speed>
<temp>0.00</temp>
<bpm>0</bpm>
<rpm>0.00</rpm>
</extensions>
</trkpt>
<trkpt lat="64.117866516" lon="-20.317583084">
<ele>93.273438</ele>
<time>2012-07-20T17:42:09Z</time>
<speed>3.720000</speed>
<extensions>
<speed>3.7</speed>
<temp>0.00</temp>
<bpm>0</bpm>
<rpm>0.00</rpm>
</extensions>
</trkpt>
<trkpt lat="64.117721558" lon="-20.317621231">
<ele>91.615234</ele>
<time>2012-07-20T17:42:14Z</time>
<speed>3.240000</speed>
<extensions>
<speed>3.2</speed>
<temp>0.00</temp>
<bpm>0</bpm>
<rpm>0.00</rpm>
</extensions>
</trkpt>
<trkpt lat="64.117553711" lon="-20.317647934">
<ele>91.111328</ele>
<time>2012-07-20T17:42:19Z</time>
<speed>3.770000</speed>
<extensions>
<speed>3.8</speed>
<temp>0.00</temp>
<bpm>0</bpm>
<rpm>0.00</rpm>
</extensions>
</trkpt>
<trkpt lat="64.117393494" lon="-20.317708969">
<ele>91.341797</ele>
<time>2012-07-20T17:42:24Z</time>
<speed>4.250000</speed>
<extensions>
<speed>4.3</speed>
<temp>0.00</temp>
<bpm>0</bpm>
<rpm>0.00</rpm>
</extensions>
</trkpt>
<trkpt lat="64.117195129" lon="-20.317785263">
<ele>91.507813</ele>
<time>2012-07-20T17:42:29Z</time>
<speed>4.360000</speed>
<extensions>
<speed>4.4</speed>
<temp>0.00</temp>
<bpm>0</bpm>
<rpm>0.00</rpm>
</extensions>
</trkpt>
<trkpt lat="64.116996765" lon="-20.317859650">
<ele>89.072266</ele>
<time>2012-07-20T17:42:34Z</time>
<speed>4.060000</speed>
<extensions>
<speed>4.1</speed>
<temp>0.00</temp>
<bpm>0</bpm>
<rpm>0.00</rpm>
</extensions>
</trkpt>
<trkpt lat="64.116828918" lon="-20.317955017">
<ele>89.376953</ele>
<time>2012-07-20T17:42:39Z</time>
<speed>4.520000</speed>
<extensions>
<speed>4.5</speed>
<temp>0.00</temp>
<bpm>0</bpm>
<rpm>0.00</rpm>
</extensions>
</trkpt>
<trkpt lat="64.116630554" lon="-20.318046570">
<ele>89.968750</ele>
<time>2012-07-20T17:42:44Z</time>
<speed>4.830000</speed>
<extensions>
<speed>4.8</speed>
<temp>0.00</temp>
<bpm>0</bpm>
<rpm>0.00</rpm>
</extensions>
</trkpt>
<trkpt lat="64.116424561" lon="-20.318122864">
<ele>88.800781</ele>
<time>2012-07-20T17:42:49Z</time>
<speed>3.740000</speed>
<extensions>
<speed>3.7</speed>
<temp>0.00</temp>
<bpm>0</bpm>
<rpm>0.00</rpm>
</extensions>
</trkpt>
<trkpt lat="64.116287231" lon="-20.318189621">
<ele>88.857422</ele>
<time>2012-07-20T17:42:54Z</time>
<speed>3.010000</speed>
<extensions>
<speed>3.0</speed>
<temp>0.00</temp>
<bpm>0</bpm>
<rpm>0.00</rpm>
</extensions>
</trkpt>
<trkpt lat="64.116119385" lon="-20.318264008">
<ele>88.439453</ele>
<time>2012-07-20T17:42:59Z</time>
<speed>4.220000</speed>
<extensions>
<speed>4.2</speed>
<temp>0.00</temp>
<bpm>0</bpm>
<rpm>0.00</rpm>
</extensions>
</trkpt>
<trkpt lat="64.115951538" lon="-20.318338394">
<ele>88.166016</ele>
<time>2012-07-20T17:43:04Z</time>
<speed>3.170000</speed>
<extensions>
<speed>3.2</speed>
<temp>0.00</temp>
<bpm>0</bpm>
<rpm>0.00</rpm>
</extensions>
</trkpt>
<trkpt lat="64.115829468" lon="-20.318372726">
<ele>87.427734</ele>
<time>2012-07-20T17:43:09Z</time>
<speed>1.910000</speed>
<extensions>
<speed>1.9</speed>
<temp>0.00</temp>
<bpm>0</bpm>
<rpm>0.00</rpm>
</extensions>
</trkpt>
<trkpt lat="64.115722656" lon="-20.318437576">
<ele>87.406250</ele>
<time>2012-07-20T17:43:14Z</time>
<speed>2.960000</speed>
<extensions>
<speed>3.0</speed>
<temp>0.00</temp>
<bpm>0</bpm>
<rpm>0.00</rpm>
</extensions>
</trkpt>
<trkpt lat="64.115577698" lon="-20.318510056">
<ele>86.546875</ele>
<time>2012-07-20T17:43:19Z</time>
<speed>3.800000</speed>
<extensions>
<speed>3.8</speed>
<temp>0.00</temp>
<bpm>0</bpm>
<rpm>0.00</rpm>
</extensions>
</trkpt>
<trkpt lat="64.115394592" lon="-20.318607330">
<ele>87.884766</ele>
<time>2012-07-20T17:43:24Z</time>
<speed>4.220000</speed>
<extensions>
<speed>4.2</speed>
<temp>0.00</temp>
<bpm>0</bpm>
<rpm>0.00</rpm>
</extensions>
</trkpt>
<trkpt lat="64.115211487" lon="-20.318693161">
<ele>87.984375</ele>
<time>2012-07-20T17:43:29Z</time>
<speed>4.540000</speed>
<extensions>
<speed>4.5</speed>
<temp>0.00</temp>
<bpm>0</bpm>
<rpm>0.00</rpm>
</extensions>
</trkpt>
<trkpt lat="64.115013123" lon="-20.318782806">
<ele>88.210938</ele>
<time>2012-07-20T17:43:34Z</time>
<speed>3.930000</speed>
<extensions>
<speed>3.9</speed>
<temp>0.00</temp>
<bpm>0</bpm>
<rpm>0.00</rpm>
</extensions>
</trkpt>
<trkpt lat="64.114852905" lon="-20.318847656">
<ele>87.585938</ele>
<time>2012-07-20T17:43:39Z</time>
<speed>3.770000</speed>
<extensions>
<speed>3.8</speed>
<temp>0.00</temp>
<bpm>0</bpm>
<rpm>0.00</rpm>
</extensions>
</trkpt>
<trkpt lat="64.114677429" lon="-20.318920135">
<ele>87.478516</ele>
<time>2012-07-20T17:43:44Z</time>
<speed>4.020000</speed>
<extensions>
<speed>4.0</speed>
<temp>0.00</temp>
<bpm>0</bpm>
<rpm>0.00</rpm>
</extensions>
</trkpt>
<trkpt lat="64.114486694" lon="-20.318996429">
<ele>89.402344</ele>
<time>2012-07-20T17:43:49Z</time>
<speed>4.540000</speed>
<extensions>
<speed>4.5</speed>
<temp>0.00</temp>
<bpm>0</bpm>
<rpm>0.00</rpm>
</extensions>
</trkpt>
<trkpt lat="64.114311218" lon="-20.319087982">
<ele>91.302734</ele>
<time>2012-07-20T17:43:54Z</time>
<speed>3.700000</speed>
<extensions>
<speed>3.7</speed>
<temp>0.00</temp>
<bpm>0</bpm>
<rpm>0.00</rpm>
</extensions>
</trkpt>
<trkpt lat="64.114135742" lon="-20.319160461">
<ele>91.763672</ele>
<time>2012-07-20T17:43:59Z</time>
<speed>4.360000</speed>
<extensions>
<speed>4.4</speed>
<temp>0.00</temp>
<bpm>0</bpm>
<rpm>0.00</rpm>
</extensions>
</trkpt>
<trkpt lat="64.113937378" lon="-20.319229126">
<ele>92.052734</ele>
<time>2012-07-20T17:44:04Z</time>
<speed>4.000000</speed>
<extensions>
<speed>4.0</speed>
<temp>0.00</temp>
<bpm>0</bpm>
<rpm>0.00</rpm>
</extensions>
</trkpt>
<trkpt lat="64.113777161" lon="-20.319311142">
<ele>92.005859</ele>
<time>2012-07-20T17:44:09Z</time>
<speed>3.720000</speed>
<extensions>
<speed>3.7</speed>
<temp>0.00</temp>
<bpm>0</bpm>
<rpm>0.00</rpm>
</extensions>
</trkpt>
<trkpt lat="64.113594055" lon="-20.319412231">
<ele>92.382813</ele>
<time>2012-07-20T17:44:14Z</time>
<speed>4.270000</speed>
<extensions>
<speed>4.3</speed>
<temp>0.00</temp>
<bpm>0</bpm>
<rpm>0.00</rpm>
</extensions>
</trkpt>
<trkpt lat="64.113433838" lon="-20.319538116">
<ele>91.578125</ele>
<time>2012-07-20T17:44:19Z</time>
<speed>2.990000</speed>
<extensions>
<speed>3.0</speed>
<temp>0.00</temp>
<bpm>0</bpm>
<rpm>0.00</rpm>
</extensions>
</trkpt>
<trkpt lat="64.113296509" lon="-20.319639206">
<ele>92.917969</ele>
<time>2012-07-20T17:44:24Z</time>
<speed>3.650000</speed>
<extensions>
<speed>3.7</speed>
<temp>0.00</temp>
<bpm>0</bpm>
<rpm>0.00</rpm>
</extensions>
</trkpt>
<trkpt lat="64.113136292" lon="-20.319780350">
<ele>93.617188</ele>
<time>2012-07-20T17:44:29Z</time>
<speed>4.010000</speed>
<extensions>
<speed>4.0</speed>
<temp>0.00</temp>
<bpm>0</bpm>
<rpm>0.00</rpm>
</extensions>
</trkpt>
<trkpt lat="64.112983704" lon="-20.319936752">
<ele>94.599609</ele>
<time>2012-07-20T17:44:34Z</time>
<speed>3.690000</speed>
<extensions>
<speed>3.7</speed>
<temp>0.00</temp>
<bpm>0</bpm>
<rpm>0.00</rpm>
</extensions>
</trkpt>
<trkpt lat="64.112838745" lon="-20.320110321">
<ele>94.482422</ele>
<time>2012-07-20T17:44:39Z</time>
<speed>3.510000</speed>
<extensions>
<speed>3.5</speed>
<temp>0.00</temp>
<bpm>0</bpm>
<rpm>0.00</rpm>
</extensions>
</trkpt>
<trkpt lat="64.112686157" lon="-20.320308685">
<ele>94.617188</ele>
<time>2012-07-20T17:44:44Z</time>
<speed>3.970000</speed>
<extensions>
<speed>4.0</speed>
<temp>0.00</temp>
<bpm>0</bpm>
<rpm>0.00</rpm>
</extensions>
</trkpt>
<trkpt lat="64.112556458" lon="-20.320489883">
<ele>94.839844</ele>
<time>2012-07-20T17:44:49Z</time>
<speed>2.700000</speed>
<extensions>
<speed>2.7</speed>
<temp>0.00</temp>
<bpm>0</bpm>
<rpm>0.00</rpm>
</extensions>
</trkpt>
<trkpt lat="64.112472534" lon="-20.320573807">
<ele>94.947266</ele>
<time>2012-07-20T17:44:54Z</time>
<speed>1.580000</speed>
<extensions>
<speed>1.6</speed>
<temp>0.00</temp>
<bpm>0</bpm>
<rpm>0.00</rpm>
</extensions>
</trkpt>
<trkpt lat="64.112457275" lon="-20.320583344">
<ele>94.888672</ele>
<time>2012-07-20T17:44:59Z</time>
<extensions>
<speed>0.0</speed>
<temp>0.00</temp>
<bpm>0</bpm>
<rpm>0.00</rpm>
</extensions>
</trkpt>
<trkpt lat="64.112457275" lon="-20.320583344">
<ele>95.011719</ele>
<time>2012-07-20T17:45:04Z</time>
<speed>0.090000</speed>
<extensions>
<speed>0.1</speed>
<temp>0.00</temp>
<bpm>0</bpm>
<rpm>0.00</rpm>
</extensions>
</trkpt>
<trkpt lat="64.112434387" lon="-20.320631027">
<ele>95.271484</ele>
<time>2012-07-20T17:45:09Z</time>
<speed>1.780000</speed>
<extensions>
<speed>1.8</speed>
<temp>0.00</temp>
<bpm>0</bpm>
<rpm>0.00</rpm>
</extensions>
</trkpt>
<trkpt lat="64.112335205" lon="-20.320793152">
<ele>95.498047</ele>
<time>2012-07-20T17:45:14Z</time>
<speed>3.350000</speed>
<extensions>
<speed>3.4</speed>
<temp>0.00</temp>
<bpm>0</bpm>
<rpm>0.00</rpm>
</extensions>
</trkpt>
<trkpt lat="64.112190247" lon="-20.320991516">
<ele>94.115234</ele>
<time>2012-07-20T17:45:19Z</time>
<speed>3.720000</speed>
<extensions>
<speed>3.7</speed>
<temp>0.00</temp>
<bpm>0</bpm>
<rpm>0.00</rpm>
</extensions>
</trkpt>
<trkpt lat="64.112068176" lon="-20.321161270">
<ele>93.953125</ele>
<time>2012-07-20T17:45:24Z</time>
<speed>2.570000</speed>
<extensions>
<speed>2.6</speed>
<temp>0.00</temp>
<bpm>0</bpm>
<rpm>0.00</rpm>
</extensions>
</trkpt>
<trkpt lat="64.111953735" lon="-20.321323395">
<ele>94.195313</ele>
<time>2012-07-20T17:45:29Z</time>
<speed>3.400000</speed>
<extensions>
<speed>3.4</speed>
<temp>0.00</temp>
<bpm>0</bpm>
<rpm>0.00</rpm>
</extensions>
</trkpt>
<trkpt lat="64.111824036" lon="-20.321525574">
<ele>94.564453</ele>
<time>2012-07-20T17:45:34Z</time>
<speed>3.560000</speed>
<extensions>
<speed>3.6</speed>
<temp>0.00</temp>
<bpm>0</bpm>
<rpm>0.00</rpm>
</extensions>
</trkpt>
<trkpt lat="64.111694336" lon="-20.321689606">
<ele>94.150391</ele>
<time>2012-07-20T17:45:39Z</time>
<speed>2.750000</speed>
<extensions>
<speed>2.7</speed>
<temp>0.00</temp>
<bpm>0</bpm>
<rpm>0.00</rpm>
</extensions>
</trkpt>
<trkpt lat="64.111579895" lon="-20.321828842">
<ele>93.947266</ele>
<time>2012-07-20T17:45:44Z</time>
<speed>3.160000</speed>
<extensions>
<speed>3.2</speed>
<temp>0.00</temp>
<bpm>0</bpm>
<rpm>0.00</rpm>
</extensions>
</trkpt>
<trkpt lat="64.111450195" lon="-20.322027206">
<ele>94.814453</ele>
<time>2012-07-20T17:45:49Z</time>
<speed>3.430000</speed>
<extensions>
<speed>3.4</speed>
<temp>0.00</temp>
<bpm>0</bpm>
<rpm>0.00</rpm>
</extensions>
</trkpt>
<trkpt lat="64.111351013" lon="-20.322172165">
<ele>94.466797</ele>
<time>2012-07-20T17:45:54Z</time>
<speed>1.830000</speed>
<extensions>
<speed>1.8</speed>
<temp>0.00</temp>
<bpm>0</bpm>
<rpm>0.00</rpm>
</extensions>
</trkpt>
<trkpt lat="64.111335754" lon="-20.322172165">
<ele>94.392578</ele>
<time>2012-07-20T17:45:59Z</time>
<speed>0.030000</speed>
<extensions>
<speed>0.0</speed>
<temp>0.00</temp>
<bpm>0</bpm>
<rpm>0.00</rpm>
</extensions>
</trkpt>
<trkpt lat="64.111335754" lon="-20.322174072">
<ele>94.507813</ele>
<time>2012-07-20T17:46:04Z</time>
<speed>0.020000</speed>
<extensions>
<speed>0.0</speed>
<temp>0.00</temp>
<bpm>0</bpm>
<rpm>0.00</rpm>
</extensions>
</trkpt>
<trkpt lat="64.111335754" lon="-20.322174072">
<ele>94.472656</ele>
<time>2012-07-20T17:46:09Z</time>
<speed>0.010000</speed>
<extensions>
<speed>0.0</speed>
<temp>0.00</temp>
<bpm>0</bpm>
<rpm>0.00</rpm>
</extensions>
</trkpt>
<trkpt lat="64.111335754" lon="-20.322172165">
<ele>94.394531</ele>
<time>2012-07-20T17:46:14Z</time>
<speed>0.030000</speed>
<extensions>
<speed>0.0</speed>
<temp>0.00</temp>
<bpm>0</bpm>
<rpm>0.00</rpm>
</extensions>
</trkpt>
<trkpt lat="64.111335754" lon="-20.322172165">
<ele>94.275391</ele>
<time>2012-07-20T17:46:19Z</time>
<speed>0.070000</speed>
<extensions>
<speed>0.1</speed>
<temp>0.00</temp>
<bpm>0</bpm>
<rpm>0.00</rpm>
</extensions>
</trkpt>
<trkpt lat="64.111335754" lon="-20.322172165">
<ele>94.218750</ele>
<time>2012-07-20T17:46:24Z</time>
<speed>0.040000</speed>
<extensions>
<speed>0.0</speed>
<temp>0.00</temp>
<bpm>0</bpm>
<rpm>0.00</rpm>
</extensions>
</trkpt>
<trkpt lat="64.111335754" lon="-20.322172165">
<ele>94.175781</ele>
<time>2012-07-20T17:46:29Z</time>
<speed>0.040000</speed>
<extensions>
<speed>0.0</speed>
<temp>0.00</temp>
<bpm>0</bpm>
<rpm>0.00</rpm>
</extensions>
</trkpt>
<trkpt lat="64.111335754" lon="-20.322170258">
<ele>94.173828</ele>
<time>2012-07-20T17:46:34Z</time>
<extensions>
<speed>0.0</speed>
<temp>0.00</temp>
<bpm>0</bpm>
<rpm>0.00</rpm>
</extensions>
</trkpt>
<trkpt lat="64.111335754" lon="-20.322170258">
<ele>94.169922</ele>
<time>2012-07-20T17:46:39Z</time>
<extensions>
<speed>0.0</speed>
<temp>0.00</temp>
<bpm>0</bpm>
<rpm>0.00</rpm>
</extensions>
</trkpt>
<trkpt lat="64.111335754" lon="-20.322170258">
<ele>94.169922</ele>
<time>2012-07-20T17:46:44Z</time>
<extensions>
<speed>0.0</speed>
<temp>0.00</temp>
<bpm>0</bpm>
<rpm>0.00</rpm>
</extensions>
</trkpt>
<trkpt lat="64.111335754" lon="-20.322170258">
<ele>94.154297</ele>
<time>2012-07-20T17:46:49Z</time>
<speed>0.010000</speed>
<extensions>
<speed>0.0</speed>
<temp>0.00</temp>
<bpm>0</bpm>
<rpm>0.00</rpm>
</extensions>
</trkpt>
<trkpt lat="64.111335754" lon="-20.322168350">
<ele>94.142578</ele>
<time>2012-07-20T17:46:54Z</time>
<speed>0.010000</speed>
<extensions>
<speed>0.0</speed>
<temp>0.00</temp>
<bpm>0</bpm>
<rpm>0.00</rpm>
</extensions>
</trkpt>
<trkpt lat="64.111320496" lon="-20.322181702">
<ele>94.414063</ele>
<time>2012-07-20T17:46:59Z</time>
<speed>1.860000</speed>
<extensions>
<speed>1.9</speed>
<temp>0.00</temp>
<bpm>0</bpm>
<rpm>0.00</rpm>
</extensions>
</trkpt>
<trkpt lat="64.111221313" lon="-20.322320938">
<ele>94.806641</ele>
<time>2012-07-20T17:47:04Z</time>
<speed>2.640000</speed>
<extensions>
<speed>2.6</speed>
<temp>0.00</temp>
<bpm>0</bpm>
<rpm>0.00</rpm>
</extensions>
</trkpt>
<trkpt lat="64.111137390" lon="-20.322446823">
<ele>95.121094</ele>
<time>2012-07-20T17:47:09Z</time>
<speed>2.230000</speed>
<extensions>
<speed>2.2</speed>
<temp>0.00</temp>
<bpm>0</bpm>
<rpm>0.00</rpm>
</extensions>
</trkpt>
<trkpt lat="64.111038208" lon="-20.322574615">
<ele>94.916016</ele>
<time>2012-07-20T17:47:14Z</time>
<speed>2.230000</speed>
<extensions>
<speed>2.2</speed>
<temp>0.00</temp>
<bpm>0</bpm>
<rpm>0.00</rpm>
</extensions>
</trkpt>
<trkpt lat="64.110954285" lon="-20.322696686">
<ele>95.550781</ele>
<time>2012-07-20T17:47:19Z</time>
<speed>2.430000</speed>
<extensions>
<speed>2.4</speed>
<temp>0.00</temp>
<bpm>0</bpm>
<rpm>0.00</rpm>
</extensions>
</trkpt>
<trkpt lat="64.110855103" lon="-20.322854996">
<ele>96.603516</ele>
<time>2012-07-20T17:47:24Z</time>
<speed>2.370000</speed>
<extensions>
<speed>2.4</speed>
<temp>0.00</temp>
<bpm>0</bpm>
<rpm>0.00</rpm>
</extensions>
</trkpt>
<trkpt lat="64.110771179" lon="-20.322971344">
<ele>96.902344</ele>
<time>2012-07-20T17:47:29Z</time>
<speed>2.270000</speed>
<extensions>
<speed>2.3</speed>
<temp>0.00</temp>
<bpm>0</bpm>
<rpm>0.00</rpm>
</extensions>
</trkpt>
<trkpt lat="64.110725403" lon="-20.323036194">
<ele>97.533203</ele>
<time>2012-07-20T17:47:34Z</time>
<speed>0.110000</speed>
<extensions>
<speed>0.1</speed>
<temp>0.00</temp>
<bpm>0</bpm>
<rpm>0.00</rpm>
</extensions>
</trkpt>
<trkpt lat="64.110725403" lon="-20.323034286">
<ele>97.494141</ele>
<time>2012-07-20T17:47:39Z</time>
<speed>0.020000</speed>
<extensions>
<speed>0.0</speed>
<temp>0.00</temp>
<bpm>0</bpm>
<rpm>0.00</rpm>
</extensions>
</trkpt>
<trkpt lat="64.110725403" lon="-20.323034286">
<ele>97.566406</ele>
<time>2012-07-20T17:47:44Z</time>
<speed>0.010000</speed>
<extensions>
<speed>0.0</speed>
<temp>0.00</temp>
<bpm>0</bpm>
<rpm>0.00</rpm>
</extensions>
</trkpt>
<trkpt lat="64.110725403" lon="-20.323034286">
<ele>97.560547</ele>
<time>2012-07-20T17:47:49Z</time>
<extensions>
<speed>0.0</speed>
<temp>0.00</temp>
<bpm>0</bpm>
<rpm>0.00</rpm>
</extensions>
</trkpt>
<trkpt lat="64.110725403" lon="-20.323034286">
<ele>97.535156</ele>
<time>2012-07-20T17:47:54Z</time>
<extensions>
<speed>0.0</speed>
<temp>0.00</temp>
<bpm>0</bpm>
<rpm>0.00</rpm>
</extensions>
</trkpt>
<trkpt lat="64.110725403" lon="-20.323034286">
<ele>97.521484</ele>
<time>2012-07-20T17:47:59Z</time>
<speed>0.030000</speed>
<extensions>
<speed>0.0</speed>
<temp>0.00</temp>
<bpm>0</bpm>
<rpm>0.00</rpm>
</extensions>
</trkpt>
<trkpt lat="64.110710144" lon="-20.323047638">
<ele>97.367188</ele>
<time>2012-07-20T17:48:04Z</time>
<speed>2.720000</speed>
<extensions>
<speed>2.7</speed>
<temp>0.00</temp>
<bpm>0</bpm>
<rpm>0.00</rpm>
</extensions>
</trkpt>
<trkpt lat="64.110572815" lon="-20.323238373">
<ele>97.820313</ele>
<time>2012-07-20T17:48:09Z</time>
<speed>3.800000</speed>
<extensions>
<speed>3.8</speed>
<temp>0.00</temp>
<bpm>0</bpm>
<rpm>0.00</rpm>
</extensions>
</trkpt>
<trkpt lat="64.110412598" lon="-20.323457718">
<ele>97.445313</ele>
<time>2012-07-20T17:48:14Z</time>
<speed>4.280000</speed>
<extensions>
<speed>4.3</speed>
<temp>0.00</temp>
<bpm>0</bpm>
<rpm>0.00</rpm>
</extensions>
</trkpt>
<trkpt lat="64.110260010" lon="-20.323659897">
<ele>97.113281</ele>
<time>2012-07-20T17:48:19Z</time>
<speed>3.630000</speed>
<extensions>
<speed>3.6</speed>
<temp>0.00</temp>
<bpm>0</bpm>
<rpm>0.00</rpm>
</extensions>
</trkpt>
<trkpt lat="64.110099792" lon="-20.323875427">
<ele>96.574219</ele>
<time>2012-07-20T17:48:24Z</time>
<speed>4.430000</speed>
<extensions>
<speed>4.4</speed>
<temp>0.00</temp>
<bpm>0</bpm>
<rpm>0.00</rpm>
</extensions>
</trkpt>
<trkpt lat="64.109931946" lon="-20.324110031">
<ele>96.230469</ele>
<time>2012-07-20T17:48:29Z</time>
<speed>4.020000</speed>
<extensions>
<speed>4.0</speed>
<temp>0.00</temp>
<bpm>0</bpm>
<rpm>0.00</rpm>
</extensions>
</trkpt>
<trkpt lat="64.109771729" lon="-20.324333191">
<ele>95.587891</ele>
<time>2012-07-20T17:48:34Z</time>
<speed>4.420000</speed>
<extensions>
<speed>4.4</speed>
<temp>0.00</temp>
<bpm>0</bpm>
<rpm>0.00</rpm>
</extensions>
</trkpt>
<trkpt lat="64.109588623" lon="-20.324565887">
<ele>95.013672</ele>
<time>2012-07-20T17:48:39Z</time>
<speed>4.340000</speed>
<extensions>
<speed>4.3</speed>
<temp>0.00</temp>
<bpm>0</bpm>
<rpm>0.00</rpm>
</extensions>
</trkpt>
<trkpt lat="64.109428406" lon="-20.324783325">
<ele>94.955078</ele>
<time>2012-07-20T17:48:44Z</time>
<speed>4.530000</speed>
<extensions>
<speed>4.5</speed>
<temp>0.00</temp>
<bpm>0</bpm>
<rpm>0.00</rpm>
</extensions>
</trkpt>
<trkpt lat="64.109237671" lon="-20.325035095">
<ele>94.968750</ele>
<time>2012-07-20T17:48:49Z</time>
<speed>4.730000</speed>
<extensions>
<speed>4.7</speed>
<temp>0.00</temp>
<bpm>0</bpm>
<rpm>0.00</rpm>
</extensions>
</trkpt>
<trkpt lat="64.109046936" lon="-20.325296402">
<ele>94.921875</ele>
<time>2012-07-20T17:48:54Z</time>
<speed>5.140000</speed>
<extensions>
<speed>5.1</speed>
<temp>0.00</temp>
<bpm>0</bpm>
<rpm>0.00</rpm>
</extensions>
</trkpt>
<trkpt lat="64.108856201" lon="-20.325578690">
<ele>95.759766</ele>
<time>2012-07-20T17:48:59Z</time>
<speed>5.030000</speed>
<extensions>
<speed>5.0</speed>
<temp>0.00</temp>
<bpm>0</bpm>
<rpm>0.00</rpm>
</extensions>
</trkpt>
<trkpt lat="64.108665466" lon="-20.325824738">
<ele>94.953125</ele>
<time>2012-07-20T17:49:04Z</time>
<speed>4.920000</speed>
<extensions>
<speed>4.9</speed>
<temp>0.00</temp>
<bpm>0</bpm>
<rpm>0.00</rpm>
</extensions>
</trkpt>
<trkpt lat="64.108467102" lon="-20.326099396">
<ele>95.210938</ele>
<time>2012-07-20T17:49:09Z</time>
<speed>5.040000</speed>
<extensions>
<speed>5.0</speed>
<temp>0.00</temp>
<bpm>0</bpm>
<rpm>0.00</rpm>
</extensions>
</trkpt>
<trkpt lat="64.108268738" lon="-20.326354980">
<ele>94.812500</ele>
<time>2012-07-20T17:49:14Z</time>
<speed>4.820000</speed>
<extensions>
<speed>4.8</speed>
<temp>0.00</temp>
<bpm>0</bpm>
<rpm>0.00</rpm>
</extensions>
</trkpt>
<trkpt lat="64.108100891" lon="-20.326578140">
<ele>94.152344</ele>
<time>2012-07-20T17:49:19Z</time>
<speed>4.840000</speed>
<extensions>
<speed>4.8</speed>
<temp>0.00</temp>
<bpm>0</bpm>
<rpm>0.00</rpm>
</extensions>
</trkpt>
<trkpt lat="64.107917786" lon="-20.326837540">
<ele>93.402344</ele>
<time>2012-07-20T17:49:24Z</time>
<speed>4.770000</speed>
<extensions>
<speed>4.8</speed>
<temp>0.00</temp>
<bpm>0</bpm>
<rpm>0.00</rpm>
</extensions>
</trkpt>
<trkpt lat="64.107772827" lon="-20.327039719">
<ele>93.875000</ele>
<time>2012-07-20T17:49:29Z</time>
<speed>3.380000</speed>
<extensions>
<speed>3.4</speed>
<temp>0.00</temp>
<bpm>0</bpm>
<rpm>0.00</rpm>
</extensions>
</trkpt>
<trkpt lat="64.107627869" lon="-20.327228546">
<ele>94.572266</ele>
<time>2012-07-20T17:49:34Z</time>
<speed>4.080000</speed>
<extensions>
<speed>4.1</speed>
<temp>0.00</temp>
<bpm>0</bpm>
<rpm>0.00</rpm>
</extensions>
</trkpt>
<trkpt lat="64.107475281" lon="-20.327432632">
<ele>94.978516</ele>
<time>2012-07-20T17:49:39Z</time>
<speed>4.060000</speed>
<extensions>
<speed>4.1</speed>
<temp>0.00</temp>
<bpm>0</bpm>
<rpm>0.00</rpm>
</extensions>
</trkpt>
<trkpt lat="64.107315063" lon="-20.327640533">
<ele>96.394531</ele>
<time>2012-07-20T17:49:44Z</time>
<speed>4.090000</speed>
<extensions>
<speed>4.1</speed>
<temp>0.00</temp>
<bpm>0</bpm>
<rpm>0.00</rpm>
</extensions>
</trkpt>
<trkpt lat="64.107162476" lon="-20.327852249">
<ele>96.603516</ele>
<time>2012-07-20T17:49:49Z</time>
<speed>3.630000</speed>
<extensions>
<speed>3.6</speed>
<temp>0.00</temp>
<bpm>0</bpm>
<rpm>0.00</rpm>
</extensions>
</trkpt>
<trkpt lat="64.107040405" lon="-20.328033447">
<ele>97.423828</ele>
<time>2012-07-20T17:49:54Z</time>
<speed>3.630000</speed>
<extensions>
<speed>3.6</speed>
<temp>0.00</temp>
<bpm>0</bpm>
<rpm>0.00</rpm>
</extensions>
</trkpt>
<trkpt lat="64.106895447" lon="-20.328231812">
<ele>97.814453</ele>
<time>2012-07-20T17:49:59Z</time>
<speed>3.630000</speed>
<extensions>
<speed>3.6</speed>
<temp>0.00</temp>
<bpm>0</bpm>
<rpm>0.00</rpm>
</extensions>
</trkpt>
<trkpt lat="64.106750488" lon="-20.328432083">
<ele>97.955078</ele>
<time>2012-07-20T17:50:04Z</time>
<speed>3.830000</speed>
<extensions>
<speed>3.8</speed>
<temp>0.00</temp>
<bpm>0</bpm>
<rpm>0.00</rpm>
</extensions>
</trkpt>
<trkpt lat="64.106643677" lon="-20.328546524">
<ele>98.824219</ele>
<time>2012-07-20T17:50:09Z</time>
<speed>2.460000</speed>
<extensions>
<speed>2.5</speed>
<temp>0.00</temp>
<bpm>0</bpm>
<rpm>0.00</rpm>
</extensions>
</trkpt>
<trkpt lat="64.106536865" lon="-20.328701019">
<ele>99.503906</ele>
<time>2012-07-20T17:50:14Z</time>
<speed>3.240000</speed>
<extensions>
<speed>3.2</speed>
<temp>0.00</temp>
<bpm>0</bpm>
<rpm>0.00</rpm>
</extensions>
</trkpt>
<trkpt lat="64.106399536" lon="-20.328880310">
<ele>100.353516</ele>
<time>2012-07-20T17:50:19Z</time>
<speed>2.820000</speed>
<extensions>
<speed>2.8</speed>
<temp>0.00</temp>
<bpm>0</bpm>
<rpm>0.00</rpm>
</extensions>
</trkpt>
<trkpt lat="64.106323242" lon="-20.328971863">
<ele>101.314453</ele>
<time>2012-07-20T17:50:24Z</time>
<speed>1.300000</speed>
<extensions>
<speed>1.3</speed>
<temp>0.00</temp>
<bpm>0</bpm>
<rpm>0.00</rpm>
</extensions>
</trkpt>
<trkpt lat="64.106231689" lon="-20.329082489">
<ele>101.906250</ele>
<time>2012-07-20T17:50:29Z</time>
<speed>2.650000</speed>
<extensions>
<speed>2.6</speed>
<temp>0.00</temp>
<bpm>0</bpm>
<rpm>0.00</rpm>
</extensions>
</trkpt>
<trkpt lat="64.106124878" lon="-20.329223633">
<ele>103.000000</ele>
<time>2012-07-20T17:50:34Z</time>
<speed>2.950000</speed>
<extensions>
<speed>2.9</speed>
<temp>0.00</temp>
<bpm>0</bpm>
<rpm>0.00</rpm>
</extensions>
</trkpt>
<trkpt lat="64.106010437" lon="-20.329378128">
<ele>103.554688</ele>
<time>2012-07-20T17:50:39Z</time>
<speed>3.150000</speed>
<extensions>
<speed>3.2</speed>
<temp>0.00</temp>
<bpm>0</bpm>
<rpm>0.00</rpm>
</extensions>
</trkpt>
<trkpt lat="64.105911255" lon="-20.329486847">
<ele>104.470703</ele>
<time>2012-07-20T17:50:44Z</time>
<speed>1.610000</speed>
<extensions>
<speed>1.6</speed>
<temp>0.00</temp>
<bpm>0</bpm>
<rpm>0.00</rpm>
</extensions>
</trkpt>
<trkpt lat="64.105819702" lon="-20.329586029">
<ele>105.447266</ele>
<time>2012-07-20T17:50:49Z</time>
<speed>2.810000</speed>
<extensions>
<speed>2.8</speed>
<temp>0.00</temp>
<bpm>0</bpm>
<rpm>0.00</rpm>
</extensions>
</trkpt>
<trkpt lat="64.105690002" lon="-20.329727173">
<ele>106.244141</ele>
<time>2012-07-20T17:50:54Z</time>
<speed>3.130000</speed>
<extensions>
<speed>3.1</speed>
<temp>0.00</temp>
<bpm>0</bpm>
<rpm>0.00</rpm>
</extensions>
</trkpt>
<trkpt lat="64.105575562" lon="-20.329860687">
<ele>107.353516</ele>
<time>2012-07-20T17:50:59Z</time>
<speed>1.860000</speed>
<extensions>
<speed>1.9</speed>
<temp>0.00</temp>
<bpm>0</bpm>
<rpm>0.00</rpm>
</extensions>
</trkpt>
<trkpt lat="64.105476379" lon="-20.329950333">
<ele>108.591797</ele>
<time>2012-07-20T17:51:04Z</time>
<speed>2.820000</speed>
<extensions>
<speed>2.8</speed>
<temp>0.00</temp>
<bpm>0</bpm>
<rpm>0.00</rpm>
</extensions>
</trkpt>
<trkpt lat="64.105369568" lon="-20.330072403">
<ele>109.625000</ele>
<time>2012-07-20T17:51:09Z</time>
<speed>2.000000</speed>
<extensions>
<speed>2.0</speed>
<temp>0.00</temp>
<bpm>0</bpm>
<rpm>0.00</rpm>
</extensions>
</trkpt>
<trkpt lat="64.105278015" lon="-20.330148697">
<ele>110.861328</ele>
<time>2012-07-20T17:51:14Z</time>
<speed>2.510000</speed>
<extensions>
<speed>2.5</speed>
<temp>0.00</temp>
<bpm>0</bpm>
<rpm>0.00</rpm>
</extensions>
</trkpt>
<trkpt lat="64.105171204" lon="-20.330242157">
<ele>112.091797</ele>
<time>2012-07-20T17:51:19Z</time>
<speed>2.700000</speed>
<extensions>
<speed>2.7</speed>
<temp>0.00</temp>
<bpm>0</bpm>
<rpm>0.00</rpm>
</extensions>
</trkpt>
<trkpt lat="64.105049133" lon="-20.330333710">
<ele>113.685547</ele>
<time>2012-07-20T17:51:24Z</time>
<speed>2.790000</speed>
<extensions>
<speed>2.8</speed>
<temp>0.00</temp>
<bpm>0</bpm>
<rpm>0.00</rpm>
</extensions>
</trkpt>
<trkpt lat="64.104911804" lon="-20.330427170">
<ele>115.154297</ele>
<time>2012-07-20T17:51:29Z</time>
<speed>3.020000</speed>
<extensions>
<speed>3.0</speed>
<temp>0.00</temp>
<bpm>0</bpm>
<rpm>0.00</rpm>
</extensions>
</trkpt>
<trkpt lat="64.104804993" lon="-20.330482483">
<ele>116.832031</ele>
<time>2012-07-20T17:51:34Z</time>
<speed>1.780000</speed>
<extensions>
<speed>1.8</speed>
<temp>0.00</temp>
<bpm>0</bpm>
<rpm>0.00</rpm>
</extensions>
</trkpt>
<trkpt lat="64.104705811" lon="-20.330522537">
<ele>119.099609</ele>
<time>2012-07-20T17:51:39Z</time>
<speed>2.810000</speed>
<extensions>
<speed>2.8</speed>
<temp>0.00</temp>
<bpm>0</bpm>
<rpm>0.00</rpm>
</extensions>
</trkpt>
<trkpt lat="64.104576111" lon="-20.330570221">
<ele>122.193359</ele>
<time>2012-07-20T17:51:44Z</time>
<speed>2.990000</speed>
<extensions>
<speed>3.0</speed>
<temp>0.00</temp>
<bpm>0</bpm>
<rpm>0.00</rpm>
</extensions>
</trkpt>
<trkpt lat="64.104446411" lon="-20.330638885">
<ele>120.332031</ele>
<time>2012-07-20T17:51:49Z</time>
<speed>2.340000</speed>
<extensions>
<speed>2.3</speed>
<temp>0.00</temp>
<bpm>0</bpm>
<rpm>0.00</rpm>
</extensions>
</trkpt>
<trkpt lat="64.104370117" lon="-20.330669403">
<ele>120.734375</ele>
<time>2012-07-20T17:51:54Z</time>
<speed>2.450000</speed>
<extensions>
<speed>2.4</speed>
<temp>0.00</temp>
<bpm>0</bpm>
<rpm>0.00</rpm>
</extensions>
</trkpt>
<trkpt lat="64.104240417" lon="-20.330696106">
<ele>121.822266</ele>
<time>2012-07-20T17:51:59Z</time>
<speed>3.420000</speed>
<extensions>
<speed>3.4</speed>
<temp>0.00</temp>
<bpm>0</bpm>
<rpm>0.00</rpm>
</extensions>
</trkpt>
<trkpt lat="64.104080200" lon="-20.330722809">
<ele>121.714844</ele>
<time>2012-07-20T17:52:04Z</time>
<speed>3.640000</speed>
<extensions>
<speed>3.6</speed>
<temp>0.00</temp>
<bpm>0</bpm>
<rpm>0.00</rpm>
</extensions>
</trkpt>
<trkpt lat="64.103904724" lon="-20.330730438">
<ele>123.214844</ele>
<time>2012-07-20T17:52:09Z</time>
<speed>4.110000</speed>
<extensions>
<speed>4.1</speed>
<temp>0.00</temp>
<bpm>0</bpm>
<rpm>0.00</rpm>
</extensions>
</trkpt>
<trkpt lat="64.103752136" lon="-20.330738068">
<ele>123.960938</ele>
<time>2012-07-20T17:52:14Z</time>
<speed>3.020000</speed>
<extensions>
<speed>3.0</speed>
<temp>0.00</temp>
<bpm>0</bpm>
<rpm>0.00</rpm>
</extensions>
</trkpt>
<trkpt lat="64.103630066" lon="-20.330751419">
<ele>122.697266</ele>
<time>2012-07-20T17:52:19Z</time>
<speed>2.880000</speed>
<extensions>
<speed>2.9</speed>
<temp>0.00</temp>
<bpm>0</bpm>
<rpm>0.00</rpm>
</extensions>
</trkpt>
<trkpt lat="64.103477478" lon="-20.330707550">
<ele>119.917969</ele>
<time>2012-07-20T17:52:24Z</time>
<speed>3.750000</speed>
<extensions>
<speed>3.8</speed>
<temp>0.00</temp>
<bpm>0</bpm>
<rpm>0.00</rpm>
</extensions>
</trkpt>
<trkpt lat="64.103302002" lon="-20.330663681">
<ele>118.865234</ele>
<time>2012-07-20T17:52:29Z</time>
<speed>4.170000</speed>
<extensions>
<speed>4.2</speed>
<temp>0.00</temp>
<bpm>0</bpm>
<rpm>0.00</rpm>
</extensions>
</trkpt>
<trkpt lat="64.103141785" lon="-20.330615997">
<ele>118.058594</ele>
<time>2012-07-20T17:52:34Z</time>
<speed>3.650000</speed>
<extensions>
<speed>3.7</speed>
<temp>0.00</temp>
<bpm>0</bpm>
<rpm>0.00</rpm>
</extensions>
</trkpt>
<trkpt lat="64.102973938" lon="-20.330503464">
<ele>115.484375</ele>
<time>2012-07-20T17:52:39Z</time>
<speed>3.510000</speed>
<extensions>
<speed>3.5</speed>
<temp>0.00</temp>
<bpm>0</bpm>
<rpm>0.00</rpm>
</extensions>
</trkpt>
<trkpt lat="64.102836609" lon="-20.330410004">
<ele>113.142578</ele>
<time>2012-07-20T17:52:44Z</time>
<speed>2.930000</speed>
<extensions>
<speed>2.9</speed>
<temp>0.00</temp>
<bpm>0</bpm>
<rpm>0.00</rpm>
</extensions>
</trkpt>
<trkpt lat="64.102729797" lon="-20.330337524">
<ele>112.621094</ele>
<time>2012-07-20T17:52:49Z</time>
<speed>2.910000</speed>
<extensions>
<speed>2.9</speed>
<temp>0.00</temp>
<bpm>0</bpm>
<rpm>0.00</rpm>
</extensions>
</trkpt>
<trkpt lat="64.102592468" lon="-20.330240250">
<ele>110.957031</ele>
<time>2012-07-20T17:52:54Z</time>
<speed>3.380000</speed>
<extensions>
<speed>3.4</speed>
<temp>0.00</temp>
<bpm>0</bpm>
<rpm>0.00</rpm>
</extensions>
</trkpt>
<trkpt lat="64.102523804" lon="-20.330190659">
<ele>111.222656</ele>
<time>2012-07-20T17:52:59Z</time>
<speed>0.580000</speed>
<extensions>
<speed>0.6</speed>
<temp>0.00</temp>
<bpm>0</bpm>
<rpm>0.00</rpm>
</extensions>
</trkpt>
<trkpt lat="64.102531433" lon="-20.330184937">
<ele>111.964844</ele>
<time>2012-07-20T17:53:04Z</time>
<extensions>
<speed>0.0</speed>
<temp>0.00</temp>
<bpm>0</bpm>
<rpm>0.00</rpm>
</extensions>
</trkpt>
<trkpt lat="64.102531433" lon="-20.330184937">
<ele>111.937500</ele>
<time>2012-07-20T17:53:09Z</time>
<speed>0.030000</speed>
<extensions>
<speed>0.0</speed>
<temp>0.00</temp>
<bpm>0</bpm>
<rpm>0.00</rpm>
</extensions>
</trkpt>
<trkpt lat="64.102531433" lon="-20.330183029">
<ele>111.880859</ele>
<time>2012-07-20T17:53:14Z</time>
<extensions>
<speed>0.0</speed>
<temp>0.00</temp>
<bpm>0</bpm>
<rpm>0.00</rpm>
</extensions>
</trkpt>
<trkpt lat="64.102531433" lon="-20.330183029">
<ele>111.841797</ele>
<time>2012-07-20T17:53:19Z</time>
<speed>0.010000</speed>
<extensions>
<speed>0.0</speed>
<temp>0.00</temp>
<bpm>0</bpm>
<rpm>0.00</rpm>
</extensions>
</trkpt>
<trkpt lat="64.102531433" lon="-20.330183029">
<ele>111.857422</ele>
<time>2012-07-20T17:53:24Z</time>
<speed>0.020000</speed>
<extensions>
<speed>0.0</speed>
<temp>0.00</temp>
<bpm>0</bpm>
<rpm>0.00</rpm>
</extensions>
</trkpt>
<trkpt lat="64.102531433" lon="-20.330184937">
<ele>111.851563</ele>
<time>2012-07-20T17:53:29Z</time>
<speed>0.010000</speed>
<extensions>
<speed>0.0</speed>
<temp>0.00</temp>
<bpm>0</bpm>
<rpm>0.00</rpm>
</extensions>
</trkpt>
<trkpt lat="64.102531433" lon="-20.330186844">
<ele>111.896484</ele>
<time>2012-07-20T17:53:34Z</time>
<speed>0.020000</speed>
<extensions>
<speed>0.0</speed>
<temp>0.00</temp>
<bpm>0</bpm>
<rpm>0.00</rpm>
</extensions>
</trkpt>
<trkpt lat="64.102531433" lon="-20.330184937">
<ele>111.867188</ele>
<time>2012-07-20T17:53:39Z</time>
<speed>0.020000</speed>
<extensions>
<speed>0.0</speed>
<temp>0.00</temp>
<bpm>0</bpm>
<rpm>0.00</rpm>
</extensions>
</trkpt>
<trkpt lat="64.102531433" lon="-20.330184937">
<ele>111.873047</ele>
<time>2012-07-20T17:53:44Z</time>
<extensions>
<speed>0.0</speed>
<temp>0.00</temp>
<bpm>0</bpm>
<rpm>0.00</rpm>
</extensions>
</trkpt>
<trkpt lat="64.102531433" lon="-20.330184937">
<ele>111.871094</ele>
<time>2012-07-20T17:53:49Z</time>
<extensions>
<speed>0.0</speed>
<temp>0.00</temp>
<bpm>0</bpm>
<rpm>0.00</rpm>
</extensions>
</trkpt>
<trkpt lat="64.102531433" lon="-20.330184937">
<ele>111.857422</ele>
<time>2012-07-20T17:53:54Z</time>
<speed>0.010000</speed>
<extensions>
<speed>0.0</speed>
<temp>0.00</temp>
<bpm>0</bpm>
<rpm>0.00</rpm>
</extensions>
</trkpt>
<trkpt lat="64.102531433" lon="-20.330184937">
<ele>111.843750</ele>
<time>2012-07-20T17:53:59Z</time>
<extensions>
<speed>0.0</speed>
<temp>0.00</temp>
<bpm>0</bpm>
<rpm>0.00</rpm>
</extensions>
</trkpt>
<trkpt lat="64.102531433" lon="-20.330184937">
<ele>111.833984</ele>
<time>2012-07-20T17:54:04Z</time>
<speed>0.010000</speed>
<extensions>
<speed>0.0</speed>
<temp>0.00</temp>
<bpm>0</bpm>
<rpm>0.00</rpm>
</extensions>
</trkpt>
<trkpt lat="64.102531433" lon="-20.330184937">
<ele>111.830078</ele>
<time>2012-07-20T17:54:09Z</time>
<extensions>
<speed>0.0</speed>
<temp>0.00</temp>
<bpm>0</bpm>
<rpm>0.00</rpm>
</extensions>
</trkpt>
<trkpt lat="64.102531433" lon="-20.330184937">
<ele>111.816406</ele>
<time>2012-07-20T17:54:14Z</time>
<speed>0.010000</speed>
<extensions>
<speed>0.0</speed>
<temp>0.00</temp>
<bpm>0</bpm>
<rpm>0.00</rpm>
</extensions>
</trkpt>
<trkpt lat="64.102531433" lon="-20.330184937">
<ele>111.779297</ele>
<time>2012-07-20T17:54:19Z</time>
<speed>0.010000</speed>
<extensions>
<speed>0.0</speed>
<temp>0.00</temp>
<bpm>0</bpm>
<rpm>0.00</rpm>
</extensions>
</trkpt>
<trkpt lat="64.102531433" lon="-20.330184937">
<ele>111.765625</ele>
<time>2012-07-20T17:54:24Z</time>
<extensions>
<speed>0.0</speed>
<temp>0.00</temp>
<bpm>0</bpm>
<rpm>0.00</rpm>
</extensions>
</trkpt>
<trkpt lat="64.102531433" lon="-20.330184937">
<ele>111.779297</ele>
<time>2012-07-20T17:54:29Z</time>
<speed>0.020000</speed>
<extensions>
<speed>0.0</speed>
<temp>0.00</temp>
<bpm>0</bpm>
<rpm>0.00</rpm>
</extensions>
</trkpt>
<trkpt lat="64.102531433" lon="-20.330184937">
<ele>111.796875</ele>
<time>2012-07-20T17:54:34Z</time>
<extensions>
<speed>0.0</speed>
<temp>0.00</temp>
<bpm>0</bpm>
<rpm>0.00</rpm>
</extensions>
</trkpt>
<trkpt lat="64.102531433" lon="-20.330184937">
<ele>111.787109</ele>
<time>2012-07-20T17:54:39Z</time>
<speed>0.010000</speed>
<extensions>
<speed>0.0</speed>
<temp>0.00</temp>
<bpm>0</bpm>
<rpm>0.00</rpm>
</extensions>
</trkpt>
<trkpt lat="64.102531433" lon="-20.330184937">
<ele>111.796875</ele>
<time>2012-07-20T17:54:44Z</time>
<extensions>
<speed>0.0</speed>
<temp>0.00</temp>
<bpm>0</bpm>
<rpm>0.00</rpm>
</extensions>
</trkpt>
<trkpt lat="64.102531433" lon="-20.330184937">
<ele>111.769531</ele>
<time>2012-07-20T17:54:49Z</time>
<extensions>
<speed>0.0</speed>
<temp>0.00</temp>
<bpm>0</bpm>
<rpm>0.00</rpm>
</extensions>
</trkpt>
<trkpt lat="64.102531433" lon="-20.330184937">
<ele>111.720703</ele>
<time>2012-07-20T17:54:54Z</time>
<speed>0.010000</speed>
<extensions>
<speed>0.0</speed>
<temp>0.00</temp>
<bpm>0</bpm>
<rpm>0.00</rpm>
</extensions>
</trkpt>
<trkpt lat="64.102531433" lon="-20.330184937">
<ele>111.703125</ele>
<time>2012-07-20T17:54:59Z</time>
<speed>0.010000</speed>
<extensions>
<speed>0.0</speed>
<temp>0.00</temp>
<bpm>0</bpm>
<rpm>0.00</rpm>
</extensions>
</trkpt>
<trkpt lat="64.102531433" lon="-20.330184937">
<ele>111.712891</ele>
<time>2012-07-20T17:55:04Z</time>
<speed>0.020000</speed>
<extensions>
<speed>0.0</speed>
<temp>0.00</temp>
<bpm>0</bpm>
<rpm>0.00</rpm>
</extensions>
</trkpt>
<trkpt lat="64.102531433" lon="-20.330184937">
<ele>111.730469</ele>
<time>2012-07-20T17:55:09Z</time>
<speed>0.010000</speed>
<extensions>
<speed>0.0</speed>
<temp>0.00</temp>
<bpm>0</bpm>
<rpm>0.00</rpm>
</extensions>
</trkpt>
<trkpt lat="64.102531433" lon="-20.330186844">
<ele>111.718750</ele>
<time>2012-07-20T17:55:14Z</time>
<extensions>
<speed>0.0</speed>
<temp>0.00</temp>
<bpm>0</bpm>
<rpm>0.00</rpm>
</extensions>
</trkpt>
<trkpt lat="64.102531433" lon="-20.330186844">
<ele>111.695313</ele>
<time>2012-07-20T17:55:19Z</time>
<speed>0.020000</speed>
<extensions>
<speed>0.0</speed>
<temp>0.00</temp>
<bpm>0</bpm>
<rpm>0.00</rpm>
</extensions>
</trkpt>
<trkpt lat="64.102531433" lon="-20.330186844">
<ele>111.705078</ele>
<time>2012-07-20T17:55:24Z</time>
<extensions>
<speed>0.0</speed>
<temp>0.00</temp>
<bpm>0</bpm>
<rpm>0.00</rpm>
</extensions>
</trkpt>
<trkpt lat="64.102531433" lon="-20.330186844">
<ele>111.708984</ele>
<time>2012-07-20T17:55:29Z</time>
<extensions>
<speed>0.0</speed>
<temp>0.00</temp>
<bpm>0</bpm>
<rpm>0.00</rpm>
</extensions>
</trkpt>
<trkpt lat="64.102531433" lon="-20.330186844">
<ele>111.699219</ele>
<time>2012-07-20T17:55:34Z</time>
<extensions>
<speed>0.0</speed>
<temp>0.00</temp>
<bpm>0</bpm>
<rpm>0.00</rpm>
</extensions>
</trkpt>
<trkpt lat="64.102516174" lon="-20.330165863">
<ele>111.488281</ele>
<time>2012-07-20T17:55:39Z</time>
<speed>1.650000</speed>
<extensions>
<speed>1.7</speed>
<temp>0.00</temp>
<bpm>0</bpm>
<rpm>0.00</rpm>
</extensions>
</trkpt>
<trkpt lat="64.102409363" lon="-20.330080032">
<ele>110.855469</ele>
<time>2012-07-20T17:55:44Z</time>
<speed>2.330000</speed>
<extensions>
<speed>2.3</speed>
<temp>0.00</temp>
<bpm>0</bpm>
<rpm>0.00</rpm>
</extensions>
</trkpt>
<trkpt lat="64.102302551" lon="-20.330009460">
<ele>110.765625</ele>
<time>2012-07-20T17:55:49Z</time>
<speed>3.260000</speed>
<extensions>
<speed>3.3</speed>
<temp>0.00</temp>
<bpm>0</bpm>
<rpm>0.00</rpm>
</extensions>
</trkpt>
<trkpt lat="64.102157593" lon="-20.329902649">
<ele>111.591797</ele>
<time>2012-07-20T17:55:54Z</time>
<speed>3.450000</speed>
<extensions>
<speed>3.5</speed>
<temp>0.00</temp>
<bpm>0</bpm>
<rpm>0.00</rpm>
</extensions>
</trkpt>
<trkpt lat="64.102005005" lon="-20.329803467">
<ele>112.750000</ele>
<time>2012-07-20T17:55:59Z</time>
<speed>3.330000</speed>
<extensions>
<speed>3.3</speed>
<temp>0.00</temp>
<bpm>0</bpm>
<rpm>0.00</rpm>
</extensions>
</trkpt>
<trkpt lat="64.101875305" lon="-20.329700470">
<ele>110.988281</ele>
<time>2012-07-20T17:56:04Z</time>
<speed>3.040000</speed>
<extensions>
<speed>3.0</speed>
<temp>0.00</temp>
<bpm>0</bpm>
<rpm>0.00</rpm>
</extensions>
</trkpt>
<trkpt lat="64.101760864" lon="-20.329597473">
<ele>109.916016</ele>
<time>2012-07-20T17:56:09Z</time>
<speed>2.400000</speed>
<extensions>
<speed>2.4</speed>
<temp>0.00</temp>
<bpm>0</bpm>
<rpm>0.00</rpm>
</extensions>
</trkpt>
<trkpt lat="64.101631165" lon="-20.329496384">
<ele>109.632813</ele>
<time>2012-07-20T17:56:14Z</time>
<speed>3.410000</speed>
<extensions>
<speed>3.4</speed>
<temp>0.00</temp>
<bpm>0</bpm>
<rpm>0.00</rpm>
</extensions>
</trkpt>
<trkpt lat="64.101478577" lon="-20.329401016">
<ele>108.183594</ele>
<time>2012-07-20T17:56:19Z</time>
<speed>3.610000</speed>
<extensions>
<speed>3.6</speed>
<temp>0.00</temp>
<bpm>0</bpm>
<rpm>0.00</rpm>
</extensions>
</trkpt>
<trkpt lat="64.101325989" lon="-20.329284668">
<ele>108.742188</ele>
<time>2012-07-20T17:56:24Z</time>
<speed>3.670000</speed>
<extensions>
<speed>3.7</speed>
<temp>0.00</temp>
<bpm>0</bpm>
<rpm>0.00</rpm>
</extensions>
</trkpt>
<trkpt lat="64.101181030" lon="-20.329166412">
<ele>110.804688</ele>
<time>2012-07-20T17:56:29Z</time>
<speed>3.770000</speed>
<extensions>
<speed>3.8</speed>
<temp>0.00</temp>
<bpm>0</bpm>
<rpm>0.00</rpm>
</extensions>
</trkpt>
<trkpt lat="64.101020813" lon="-20.329050064">
<ele>109.136719</ele>
<time>2012-07-20T17:56:34Z</time>
<speed>4.080000</speed>
<extensions>
<speed>4.1</speed>
<temp>0.00</temp>
<bpm>0</bpm>
<rpm>0.00</rpm>
</extensions>
</trkpt>
<trkpt lat="64.100830078" lon="-20.328914642">
<ele>105.740234</ele>
<time>2012-07-20T17:56:39Z</time>
<speed>4.680000</speed>
<extensions>
<speed>4.7</speed>
<temp>0.00</temp>
<bpm>0</bpm>
<rpm>0.00</rpm>
</extensions>
</trkpt>
<trkpt lat="64.100608826" lon="-20.328741074">
<ele>102.394531</ele>
<time>2012-07-20T17:56:44Z</time>
<speed>5.490000</speed>
<extensions>
<speed>5.5</speed>
<temp>0.00</temp>
<bpm>0</bpm>
<rpm>0.00</rpm>
</extensions>
</trkpt>
<trkpt lat="64.100357056" lon="-20.328521729">
<ele>100.330078</ele>
<time>2012-07-20T17:56:49Z</time>
<speed>6.310000</speed>
<extensions>
<speed>6.3</speed>
<temp>0.00</temp>
<bpm>0</bpm>
<rpm>0.00</rpm>
</extensions>
</trkpt>
<trkpt lat="64.100051880" lon="-20.328277588">
<ele>96.218750</ele>
<time>2012-07-20T17:56:54Z</time>
<speed>7.480000</speed>
<extensions>
<speed>7.5</speed>
<temp>0.00</temp>
<bpm>0</bpm>
<rpm>0.00</rpm>
</extensions>
</trkpt>
<trkpt lat="64.099739075" lon="-20.328029633">
<ele>95.359375</ele>
<time>2012-07-20T17:56:59Z</time>
<speed>8.070000</speed>
<extensions>
<speed>8.1</speed>
<temp>0.00</temp>
<bpm>0</bpm>
<rpm>0.00</rpm>
</extensions>
</trkpt>
<trkpt lat="64.099388123" lon="-20.327741623">
<ele>94.154297</ele>
<time>2012-07-20T17:57:04Z</time>
<speed>8.560000</speed>
<extensions>
<speed>8.6</speed>
<temp>0.00</temp>
<bpm>0</bpm>
<rpm>0.00</rpm>
</extensions>
</trkpt>
<trkpt lat="64.099021912" lon="-20.327465057">
<ele>93.226563</ele>
<time>2012-07-20T17:57:09Z</time>
<speed>8.360000</speed>
<extensions>
<speed>8.4</speed>
<temp>0.00</temp>
<bpm>0</bpm>
<rpm>0.00</rpm>
</extensions>
</trkpt>
<trkpt lat="64.098686218" lon="-20.327213287">
<ele>93.390625</ele>
<time>2012-07-20T17:57:14Z</time>
<speed>7.620000</speed>
<extensions>
<speed>7.6</speed>
<temp>0.00</temp>
<bpm>0</bpm>
<rpm>0.00</rpm>
</extensions>
</trkpt>
<trkpt lat="64.098388672" lon="-20.326972961">
<ele>93.867188</ele>
<time>2012-07-20T17:57:19Z</time>
<speed>6.440000</speed>
<extensions>
<speed>6.4</speed>
<temp>0.00</temp>
<bpm>0</bpm>
<rpm>0.00</rpm>
</extensions>
</trkpt>
<trkpt lat="64.098144531" lon="-20.326795578">
<ele>95.628906</ele>
<time>2012-07-20T17:57:24Z</time>
<speed>5.860000</speed>
<extensions>
<speed>5.9</speed>
<temp>0.00</temp>
<bpm>0</bpm>
<rpm>0.00</rpm>
</extensions>
</trkpt>
<trkpt lat="64.097908020" lon="-20.326623917">
<ele>100.091797</ele>
<time>2012-07-20T17:57:29Z</time>
<speed>5.760000</speed>
<extensions>
<speed>5.8</speed>
<temp>0.00</temp>
<bpm>0</bpm>
<rpm>0.00</rpm>
</extensions>
</trkpt>
<trkpt lat="64.097686768" lon="-20.326427460">
<ele>102.818359</ele>
<time>2012-07-20T17:57:34Z</time>
<speed>5.230000</speed>
<extensions>
<speed>5.2</speed>
<temp>0.00</temp>
<bpm>0</bpm>
<rpm>0.00</rpm>
</extensions>
</trkpt>
<trkpt lat="64.097503662" lon="-20.326282501">
<ele>104.480469</ele>
<time>2012-07-20T17:57:39Z</time>
<speed>4.050000</speed>
<extensions>
<speed>4.0</speed>
<temp>0.00</temp>
<bpm>0</bpm>
<rpm>0.00</rpm>
</extensions>
</trkpt>
<trkpt lat="64.097282410" lon="-20.326143265">
<ele>102.417969</ele>
<time>2012-07-20T17:57:44Z</time>
<speed>5.460000</speed>
<extensions>
<speed>5.5</speed>
<temp>0.00</temp>
<bpm>0</bpm>
<rpm>0.00</rpm>
</extensions>
</trkpt>
<trkpt lat="64.097045898" lon="-20.325935364">
<ele>100.859375</ele>
<time>2012-07-20T17:57:49Z</time>
<speed>6.000000</speed>
<extensions>
<speed>6.0</speed>
<temp>0.00</temp>
<bpm>0</bpm>
<rpm>0.00</rpm>
</extensions>
</trkpt>
<trkpt lat="64.096824646" lon="-20.325769424">
<ele>102.289063</ele>
<time>2012-07-20T17:57:54Z</time>
<speed>5.470000</speed>
<extensions>
<speed>5.5</speed>
<temp>0.00</temp>
<bpm>0</bpm>
<rpm>0.00</rpm>
</extensions>
</trkpt>
<trkpt lat="64.096618652" lon="-20.325624466">
<ele>103.931641</ele>
<time>2012-07-20T17:57:59Z</time>
<speed>4.980000</speed>
<extensions>
<speed>5.0</speed>
<temp>0.00</temp>
<bpm>0</bpm>
<rpm>0.00</rpm>
</extensions>
</trkpt>
<trkpt lat="64.096397400" lon="-20.325460434">
<ele>104.865234</ele>
<time>2012-07-20T17:58:04Z</time>
<speed>5.180000</speed>
<extensions>
<speed>5.2</speed>
<temp>0.00</temp>
<bpm>0</bpm>
<rpm>0.00</rpm>
</extensions>
</trkpt>
<trkpt lat="64.096176147" lon="-20.325286865">
<ele>103.318359</ele>
<time>2012-07-20T17:58:09Z</time>
<speed>5.080000</speed>
<extensions>
<speed>5.1</speed>
<temp>0.00</temp>
<bpm>0</bpm>
<rpm>0.00</rpm>
</extensions>
</trkpt>
<trkpt lat="64.095970154" lon="-20.325113297">
<ele>104.021484</ele>
<time>2012-07-20T17:58:14Z</time>
<speed>5.180000</speed>
<extensions>
<speed>5.2</speed>
<temp>0.00</temp>
<bpm>0</bpm>
<rpm>0.00</rpm>
</extensions>
</trkpt>
<trkpt lat="64.095741272" lon="-20.324943542">
<ele>105.025391</ele>
<time>2012-07-20T17:58:19Z</time>
<speed>4.950000</speed>
<extensions>
<speed>4.9</speed>
<temp>0.00</temp>
<bpm>0</bpm>
<rpm>0.00</rpm>
</extensions>
</trkpt>
<trkpt lat="64.095535278" lon="-20.324802399">
<ele>104.906250</ele>
<time>2012-07-20T17:58:24Z</time>
<speed>5.070000</speed>
<extensions>
<speed>5.1</speed>
<temp>0.00</temp>
<bpm>0</bpm>
<rpm>0.00</rpm>
</extensions>
</trkpt>
<trkpt lat="64.095321655" lon="-20.324630737">
<ele>107.634766</ele>
<time>2012-07-20T17:58:29Z</time>
<speed>4.730000</speed>
<extensions>
<speed>4.7</speed>
<temp>0.00</temp>
<bpm>0</bpm>
<rpm>0.00</rpm>
</extensions>
</trkpt>
<trkpt lat="64.095123291" lon="-20.324468613">
<ele>106.732422</ele>
<time>2012-07-20T17:58:34Z</time>
<speed>4.920000</speed>
<extensions>
<speed>4.9</speed>
<temp>0.00</temp>
<bpm>0</bpm>
<rpm>0.00</rpm>
</extensions>
</trkpt>
<trkpt lat="64.094902039" lon="-20.324298859">
<ele>107.164063</ele>
<time>2012-07-20T17:58:39Z</time>
<speed>5.450000</speed>
<extensions>
<speed>5.5</speed>
<temp>0.00</temp>
<bpm>0</bpm>
<rpm>0.00</rpm>
</extensions>
</trkpt>
<trkpt lat="64.094703674" lon="-20.324159622">
<ele>109.154297</ele>
<time>2012-07-20T17:58:44Z</time>
<speed>4.120000</speed>
<extensions>
<speed>4.1</speed>
<temp>0.00</temp>
<bpm>0</bpm>
<rpm>0.00</rpm>
</extensions>
</trkpt>
<trkpt lat="64.094505310" lon="-20.324010849">
<ele>108.902344</ele>
<time>2012-07-20T17:58:49Z</time>
<speed>5.400000</speed>
<extensions>
<speed>5.4</speed>
<temp>0.00</temp>
<bpm>0</bpm>
<rpm>0.00</rpm>
</extensions>
</trkpt>
<trkpt lat="64.094284058" lon="-20.323854446">
<ele>111.289063</ele>
<time>2012-07-20T17:58:54Z</time>
<speed>4.550000</speed>
<extensions>
<speed>4.5</speed>
<temp>0.00</temp>
<bpm>0</bpm>
<rpm>0.00</rpm>
</extensions>
</trkpt>
<trkpt lat="64.094093323" lon="-20.323732376">
<ele>109.853516</ele>
<time>2012-07-20T17:58:59Z</time>
<speed>4.780000</speed>
<extensions>
<speed>4.8</speed>
<temp>0.00</temp>
<bpm>0</bpm>
<rpm>0.00</rpm>
</extensions>
</trkpt>
<trkpt lat="64.093849182" lon="-20.323564529">
<ele>108.511719</ele>
<time>2012-07-20T17:59:04Z</time>
<speed>6.020000</speed>
<extensions>
<speed>6.0</speed>
<temp>0.00</temp>
<bpm>0</bpm>
<rpm>0.00</rpm>
</extensions>
</trkpt>
<trkpt lat="64.093620300" lon="-20.323417664">
<ele>108.814453</ele>
<time>2012-07-20T17:59:09Z</time>
<speed>5.740000</speed>
<extensions>
<speed>5.7</speed>
<temp>0.00</temp>
<bpm>0</bpm>
<rpm>0.00</rpm>
</extensions>
</trkpt>
<trkpt lat="64.093360901" lon="-20.323232651">
<ele>108.960938</ele>
<time>2012-07-20T17:59:14Z</time>
<speed>5.800000</speed>
<extensions>
<speed>5.8</speed>
<temp>0.00</temp>
<bpm>0</bpm>
<rpm>0.00</rpm>
</extensions>
</trkpt>
<trkpt lat="64.093139648" lon="-20.323099136">
<ele>109.107422</ele>
<time>2012-07-20T17:59:19Z</time>
<speed>4.980000</speed>
<extensions>
<speed>5.0</speed>
<temp>0.00</temp>
<bpm>0</bpm>
<rpm>0.00</rpm>
</extensions>
</trkpt>
<trkpt lat="64.092926025" lon="-20.322984695">
<ele>109.574219</ele>
<time>2012-07-20T17:59:24Z</time>
<speed>4.670000</speed>
<extensions>
<speed>4.7</speed>
<temp>0.00</temp>
<bpm>0</bpm>
<rpm>0.00</rpm>
</extensions>
</trkpt>
<trkpt lat="64.092727661" lon="-20.322858810">
<ele>108.884766</ele>
<time>2012-07-20T17:59:29Z</time>
<speed>4.950000</speed>
<extensions>
<speed>4.9</speed>
<temp>0.00</temp>
<bpm>0</bpm>
<rpm>0.00</rpm>
</extensions>
</trkpt>
<trkpt lat="64.092514038" lon="-20.322751999">
<ele>111.082031</ele>
<time>2012-07-20T17:59:34Z</time>
<speed>4.560000</speed>
<extensions>
<speed>4.6</speed>
<temp>0.00</temp>
<bpm>0</bpm>
<rpm>0.00</rpm>
</extensions>
</trkpt>
<trkpt lat="64.092323303" lon="-20.322641373">
<ele>111.550781</ele>
<time>2012-07-20T17:59:39Z</time>
<speed>4.400000</speed>
<extensions>
<speed>4.4</speed>
<temp>0.00</temp>
<bpm>0</bpm>
<rpm>0.00</rpm>
</extensions>
</trkpt>
<trkpt lat="64.092147827" lon="-20.322526932">
<ele>113.146484</ele>
<time>2012-07-20T17:59:44Z</time>
<speed>4.230000</speed>
<extensions>
<speed>4.2</speed>
<temp>0.00</temp>
<bpm>0</bpm>
<rpm>0.00</rpm>
</extensions>
</trkpt>
<trkpt lat="64.091957092" lon="-20.322446823">
<ele>113.632813</ele>
<time>2012-07-20T17:59:49Z</time>
<speed>4.590000</speed>
<extensions>
<speed>4.6</speed>
<temp>0.00</temp>
<bpm>0</bpm>
<rpm>0.00</rpm>
</extensions>
</trkpt>
<trkpt lat="64.091751099" lon="-20.322332382">
<ele>113.822266</ele>
<time>2012-07-20T17:59:54Z</time>
<speed>4.640000</speed>
<extensions>
<speed>4.6</speed>
<temp>0.00</temp>
<bpm>0</bpm>
<rpm>0.00</rpm>
</extensions>
</trkpt>
<trkpt lat="64.091537476" lon="-20.322240829">
<ele>113.404297</ele>
<time>2012-07-20T17:59:59Z</time>
<speed>4.930000</speed>
<extensions>
<speed>4.9</speed>
<temp>0.00</temp>
<bpm>0</bpm>
<rpm>0.00</rpm>
</extensions>
</trkpt>
<trkpt lat="64.091331482" lon="-20.322141647">
<ele>112.873047</ele>
<time>2012-07-20T18:00:04Z</time>
<speed>4.630000</speed>
<extensions>
<speed>4.6</speed>
<temp>0.00</temp>
<bpm>0</bpm>
<rpm>0.00</rpm>
</extensions>
</trkpt>
<trkpt lat="64.091133118" lon="-20.322044373">
<ele>110.048828</ele>
<time>2012-07-20T18:00:09Z</time>
<speed>4.510000</speed>
<extensions>
<speed>4.5</speed>
<temp>0.00</temp>
<bpm>0</bpm>
<rpm>0.00</rpm>
</extensions>
</trkpt>
<trkpt lat="64.090927124" lon="-20.321947098">
<ele>108.212891</ele>
<time>2012-07-20T18:00:14Z</time>
<speed>4.840000</speed>
<extensions>
<speed>4.8</speed>
<temp>0.00</temp>
<bpm>0</bpm>
<rpm>0.00</rpm>
</extensions>
</trkpt>
<trkpt lat="64.090713501" lon="-20.321844101">
<ele>108.171875</ele>
<time>2012-07-20T18:00:19Z</time>
<speed>4.580000</speed>
<extensions>
<speed>4.6</speed>
<temp>0.00</temp>
<bpm>0</bpm>
<rpm>0.00</rpm>
</extensions>
</trkpt>
<trkpt lat="64.090522766" lon="-20.321748734">
<ele>109.687500</ele>
<time>2012-07-20T18:00:24Z</time>
<speed>4.740000</speed>
<extensions>
<speed>4.7</speed>
<temp>0.00</temp>
<bpm>0</bpm>
<rpm>0.00</rpm>
</extensions>
</trkpt>
<trkpt lat="64.090316772" lon="-20.321664810">
<ele>112.486328</ele>
<time>2012-07-20T18:00:29Z</time>
<speed>4.870000</speed>
<extensions>
<speed>4.9</speed>
<temp>0.00</temp>
<bpm>0</bpm>
<rpm>0.00</rpm>
</extensions>
</trkpt>
<trkpt lat="64.090118408" lon="-20.321550369">
<ele>113.335938</ele>
<time>2012-07-20T18:00:34Z</time>
<speed>4.260000</speed>
<extensions>
<speed>4.3</speed>
<temp>0.00</temp>
<bpm>0</bpm>
<rpm>0.00</rpm>
</extensions>
</trkpt>
<trkpt lat="64.089912415" lon="-20.321445465">
<ele>112.125000</ele>
<time>2012-07-20T18:00:39Z</time>
<speed>4.540000</speed>
<extensions>
<speed>4.5</speed>
<temp>0.00</temp>
<bpm>0</bpm>
<rpm>0.00</rpm>
</extensions>
</trkpt>
<trkpt lat="64.089714050" lon="-20.321361542">
<ele>109.228516</ele>
<time>2012-07-20T18:00:44Z</time>
<speed>4.550000</speed>
<extensions>
<speed>4.5</speed>
<temp>0.00</temp>
<bpm>0</bpm>
<rpm>0.00</rpm>
</extensions>
</trkpt>
<trkpt lat="64.089523315" lon="-20.321271896">
<ele>109.265625</ele>
<time>2012-07-20T18:00:49Z</time>
<speed>4.100000</speed>
<extensions>
<speed>4.1</speed>
<temp>0.00</temp>
<bpm>0</bpm>
<rpm>0.00</rpm>
</extensions>
</trkpt>
<trkpt lat="64.089324951" lon="-20.321187973">
<ele>110.535156</ele>
<time>2012-07-20T18:00:54Z</time>
<speed>4.820000</speed>
<extensions>
<speed>4.8</speed>
<temp>0.00</temp>
<bpm>0</bpm>
<rpm>0.00</rpm>
</extensions>
</trkpt>
<trkpt lat="64.089111328" lon="-20.321073532">
<ele>111.509766</ele>
<time>2012-07-20T18:00:59Z</time>
<speed>4.660000</speed>
<extensions>
<speed>4.7</speed>
<temp>0.00</temp>
<bpm>0</bpm>
<rpm>0.00</rpm>
</extensions>
</trkpt>
<trkpt lat="64.088905334" lon="-20.320985794">
<ele>111.027344</ele>
<time>2012-07-20T18:01:04Z</time>
<speed>4.810000</speed>
<extensions>
<speed>4.8</speed>
<temp>0.00</temp>
<bpm>0</bpm>
<rpm>0.00</rpm>
</extensions>
</trkpt>
<trkpt lat="64.088691711" lon="-20.320894241">
<ele>111.505859</ele>
<time>2012-07-20T18:01:09Z</time>
<speed>5.330000</speed>
<extensions>
<speed>5.3</speed>
<temp>0.00</temp>
<bpm>0</bpm>
<rpm>0.00</rpm>
</extensions>
</trkpt>
<trkpt lat="64.088447571" lon="-20.320756912">
<ele>109.876953</ele>
<time>2012-07-20T18:01:14Z</time>
<speed>5.440000</speed>
<extensions>
<speed>5.4</speed>
<temp>0.00</temp>
<bpm>0</bpm>
<rpm>0.00</rpm>
</extensions>
</trkpt>
<trkpt lat="64.088218689" lon="-20.320648193">
<ele>108.072266</ele>
<time>2012-07-20T18:01:19Z</time>
<speed>5.010000</speed>
<extensions>
<speed>5.0</speed>
<temp>0.00</temp>
<bpm>0</bpm>
<rpm>0.00</rpm>
</extensions>
</trkpt>
<trkpt lat="64.087989807" lon="-20.320545197">
<ele>109.955078</ele>
<time>2012-07-20T18:01:24Z</time>
<speed>5.370000</speed>
<extensions>
<speed>5.4</speed>
<temp>0.00</temp>
<bpm>0</bpm>
<rpm>0.00</rpm>
</extensions>
</trkpt>
<trkpt lat="64.087745667" lon="-20.320438385">
<ele>108.521484</ele>
<time>2012-07-20T18:01:29Z</time>
<speed>5.220000</speed>
<extensions>
<speed>5.2</speed>
<temp>0.00</temp>
<bpm>0</bpm>
<rpm>0.00</rpm>
</extensions>
</trkpt>
<trkpt lat="64.087532043" lon="-20.320346832">
<ele>110.025391</ele>
<time>2012-07-20T18:01:34Z</time>
<speed>5.040000</speed>
<extensions>
<speed>5.0</speed>
<temp>0.00</temp>
<bpm>0</bpm>
<rpm>0.00</rpm>
</extensions>
</trkpt>
<trkpt lat="64.087318420" lon="-20.320228577">
<ele>113.550781</ele>
<time>2012-07-20T18:01:39Z</time>
<speed>4.870000</speed>
<extensions>
<speed>4.9</speed>
<temp>0.00</temp>
<bpm>0</bpm>
<rpm>0.00</rpm>
</extensions>
</trkpt>
<trkpt lat="64.087127686" lon="-20.320117950">
<ele>110.060547</ele>
<time>2012-07-20T18:01:44Z</time>
<speed>4.330000</speed>
<extensions>
<speed>4.3</speed>
<temp>0.00</temp>
<bpm>0</bpm>
<rpm>0.00</rpm>
</extensions>
</trkpt>
<trkpt lat="64.086914063" lon="-20.319993973">
<ele>110.126953</ele>
<time>2012-07-20T18:01:49Z</time>
<speed>5.230000</speed>
<extensions>
<speed>5.2</speed>
<temp>0.00</temp>
<bpm>0</bpm>
<rpm>0.00</rpm>
</extensions>
</trkpt>
<trkpt lat="64.086692810" lon="-20.319889069">
<ele>109.531250</ele>
<time>2012-07-20T18:01:54Z</time>
<speed>4.780000</speed>
<extensions>
<speed>4.8</speed>
<temp>0.00</temp>
<bpm>0</bpm>
<rpm>0.00</rpm>
</extensions>
</trkpt>
<trkpt lat="64.086486816" lon="-20.319807053">
<ele>110.230469</ele>
<time>2012-07-20T18:01:59Z</time>
<speed>5.000000</speed>
<extensions>
<speed>5.0</speed>
<temp>0.00</temp>
<bpm>0</bpm>
<rpm>0.00</rpm>
</extensions>
</trkpt>
<trkpt lat="64.086250305" lon="-20.319704056">
<ele>110.507813</ele>
<time>2012-07-20T18:02:04Z</time>
<speed>5.620000</speed>
<extensions>
<speed>5.6</speed>
<temp>0.00</temp>
<bpm>0</bpm>
<rpm>0.00</rpm>
</extensions>
</trkpt>
<trkpt lat="64.085990906" lon="-20.319599152">
<ele>109.337891</ele>
<time>2012-07-20T18:02:09Z</time>
<speed>5.870000</speed>
<extensions>
<speed>5.9</speed>
<temp>0.00</temp>
<bpm>0</bpm>
<rpm>0.00</rpm>
</extensions>
</trkpt>
<trkpt lat="64.085739136" lon="-20.319456100">
<ele>108.144531</ele>
<time>2012-07-20T18:02:14Z</time>
<speed>5.660000</speed>
<extensions>
<speed>5.7</speed>
<temp>0.00</temp>
<bpm>0</bpm>
<rpm>0.00</rpm>
</extensions>
</trkpt>
<trkpt lat="64.085472107" lon="-20.319324493">
<ele>106.337891</ele>
<time>2012-07-20T18:02:19Z</time>
<speed>5.950000</speed>
<extensions>
<speed>6.0</speed>
<temp>0.00</temp>
<bpm>0</bpm>
<rpm>0.00</rpm>
</extensions>
</trkpt>
<trkpt lat="64.085205078" lon="-20.319208145">
<ele>106.873047</ele>
<time>2012-07-20T18:02:24Z</time>
<speed>6.150000</speed>
<extensions>
<speed>6.1</speed>
<temp>0.00</temp>
<bpm>0</bpm>
<rpm>0.00</rpm>
</extensions>
</trkpt>
<trkpt lat="64.084938049" lon="-20.319101334">
<ele>107.027344</ele>
<time>2012-07-20T18:02:29Z</time>
<speed>6.130000</speed>
<extensions>
<speed>6.1</speed>
<temp>0.00</temp>
<bpm>0</bpm>
<rpm>0.00</rpm>
</extensions>
</trkpt>
<trkpt lat="64.084693909" lon="-20.318981171">
<ele>107.328125</ele>
<time>2012-07-20T18:02:34Z</time>
<speed>5.680000</speed>
<extensions>
<speed>5.7</speed>
<temp>0.00</temp>
<bpm>0</bpm>
<rpm>0.00</rpm>
</extensions>
</trkpt>
<trkpt lat="64.084465027" lon="-20.318834305">
<ele>107.193359</ele>
<time>2012-07-20T18:02:39Z</time>
<speed>4.940000</speed>
<extensions>
<speed>4.9</speed>
<temp>0.00</temp>
<bpm>0</bpm>
<rpm>0.00</rpm>
</extensions>
</trkpt>
<trkpt lat="64.084251404" lon="-20.318746567">
<ele>108.208984</ele>
<time>2012-07-20T18:02:44Z</time>
<speed>4.950000</speed>
<extensions>
<speed>4.9</speed>
<temp>0.00</temp>
<bpm>0</bpm>
<rpm>0.00</rpm>
</extensions>
</trkpt>
<trkpt lat="64.084022522" lon="-20.318651199">
<ele>108.158203</ele>
<time>2012-07-20T18:02:49Z</time>
<speed>5.240000</speed>
<extensions>
<speed>5.2</speed>
<temp>0.00</temp>
<bpm>0</bpm>
<rpm>0.00</rpm>
</extensions>
</trkpt>
<trkpt lat="64.083801270" lon="-20.318557739">
<ele>109.011719</ele>
<time>2012-07-20T18:02:54Z</time>
<speed>4.640000</speed>
<extensions>
<speed>4.6</speed>
<temp>0.00</temp>
<bpm>0</bpm>
<rpm>0.00</rpm>
</extensions>
</trkpt>
<trkpt lat="64.083572388" lon="-20.318500519">
<ele>108.582031</ele>
<time>2012-07-20T18:02:59Z</time>
<speed>5.050000</speed>
<extensions>
<speed>5.1</speed>
<temp>0.00</temp>
<bpm>0</bpm>
<rpm>0.00</rpm>
</extensions>
</trkpt>
<trkpt lat="64.083366394" lon="-20.318458557">
<ele>108.794922</ele>
<time>2012-07-20T18:03:04Z</time>
<speed>4.430000</speed>
<extensions>
<speed>4.4</speed>
<temp>0.00</temp>
<bpm>0</bpm>
<rpm>0.00</rpm>
</extensions>
</trkpt>
<trkpt lat="64.083190918" lon="-20.318422318">
<ele>110.076172</ele>
<time>2012-07-20T18:03:09Z</time>
<speed>3.210000</speed>
<extensions>
<speed>3.2</speed>
<temp>0.00</temp>
<bpm>0</bpm>
<rpm>0.00</rpm>
</extensions>
</trkpt>
<trkpt lat="64.083045959" lon="-20.318386078">
<ele>110.625000</ele>
<time>2012-07-20T18:03:14Z</time>
<speed>3.870000</speed>
<extensions>
<speed>3.9</speed>
<temp>0.00</temp>
<bpm>0</bpm>
<rpm>0.00</rpm>
</extensions>
</trkpt>
<trkpt lat="64.082878113" lon="-20.318372726">
<ele>111.251953</ele>
<time>2012-07-20T18:03:19Z</time>
<speed>3.840000</speed>
<extensions>
<speed>3.8</speed>
<temp>0.00</temp>
<bpm>0</bpm>
<rpm>0.00</rpm>
</extensions>
</trkpt>
<trkpt lat="64.082702637" lon="-20.318359375">
<ele>113.703125</ele>
<time>2012-07-20T18:03:24Z</time>
<speed>3.550000</speed>
<extensions>
<speed>3.5</speed>
<temp>0.00</temp>
<bpm>0</bpm>
<rpm>0.00</rpm>
</extensions>
</trkpt>
<trkpt lat="64.082542419" lon="-20.318357468">
<ele>114.150391</ele>
<time>2012-07-20T18:03:29Z</time>
<speed>3.660000</speed>
<extensions>
<speed>3.7</speed>
<temp>0.00</temp>
<bpm>0</bpm>
<rpm>0.00</rpm>
</extensions>
</trkpt>
<trkpt lat="64.082389832" lon="-20.318353653">
<ele>115.044922</ele>
<time>2012-07-20T18:03:34Z</time>
<speed>3.660000</speed>
<extensions>
<speed>3.7</speed>
<temp>0.00</temp>
<bpm>0</bpm>
<rpm>0.00</rpm>
</extensions>
</trkpt>
<trkpt lat="64.082229614" lon="-20.318380356">
<ele>115.625000</ele>
<time>2012-07-20T18:03:39Z</time>
<speed>3.640000</speed>
<extensions>
<speed>3.6</speed>
<temp>0.00</temp>
<bpm>0</bpm>
<rpm>0.00</rpm>
</extensions>
</trkpt>
<trkpt lat="64.082054138" lon="-20.318414688">
<ele>116.531250</ele>
<time>2012-07-20T18:03:44Z</time>
<speed>3.540000</speed>
<extensions>
<speed>3.5</speed>
<temp>0.00</temp>
<bpm>0</bpm>
<rpm>0.00</rpm>
</extensions>
</trkpt>
<trkpt lat="64.081871033" lon="-20.318460464">
<ele>116.974609</ele>
<time>2012-07-20T18:03:49Z</time>
<speed>4.330000</speed>
<extensions>
<speed>4.3</speed>
<temp>0.00</temp>
<bpm>0</bpm>
<rpm>0.00</rpm>
</extensions>
</trkpt>
<trkpt lat="64.081687927" lon="-20.318500519">
<ele>116.687500</ele>
<time>2012-07-20T18:03:54Z</time>
<speed>4.110000</speed>
<extensions>
<speed>4.1</speed>
<temp>0.00</temp>
<bpm>0</bpm>
<rpm>0.00</rpm>
</extensions>
</trkpt>
<trkpt lat="64.081497192" lon="-20.318563461">
<ele>116.437500</ele>
<time>2012-07-20T18:03:59Z</time>
<speed>4.300000</speed>
<extensions>
<speed>4.3</speed>
<temp>0.00</temp>
<bpm>0</bpm>
<rpm>0.00</rpm>
</extensions>
</trkpt>
<trkpt lat="64.081306458" lon="-20.318641663">
<ele>116.773438</ele>
<time>2012-07-20T18:04:04Z</time>
<speed>4.160000</speed>
<extensions>
<speed>4.2</speed>
<temp>0.00</temp>
<bpm>0</bpm>
<rpm>0.00</rpm>
</extensions>
</trkpt>
<trkpt lat="64.081130981" lon="-20.318738937">
<ele>116.029297</ele>
<time>2012-07-20T18:04:09Z</time>
<speed>3.870000</speed>
<extensions>
<speed>3.9</speed>
<temp>0.00</temp>
<bpm>0</bpm>
<rpm>0.00</rpm>
</extensions>
</trkpt>
<trkpt lat="64.080947876" lon="-20.318805695">
<ele>115.837891</ele>
<time>2012-07-20T18:04:14Z</time>
<speed>4.190000</speed>
<extensions>
<speed>4.2</speed>
<temp>0.00</temp>
<bpm>0</bpm>
<rpm>0.00</rpm>
</extensions>
</trkpt>
<trkpt lat="64.080772400" lon="-20.318910599">
<ele>115.148438</ele>
<time>2012-07-20T18:04:19Z</time>
<speed>3.750000</speed>
<extensions>
<speed>3.8</speed>
<temp>0.00</temp>
<bpm>0</bpm>
<rpm>0.00</rpm>
</extensions>
</trkpt>
<trkpt lat="64.080612183" lon="-20.319026947">
<ele>114.833984</ele>
<time>2012-07-20T18:04:24Z</time>
<speed>3.600000</speed>
<extensions>
<speed>3.6</speed>
<temp>0.00</temp>
<bpm>0</bpm>
<rpm>0.00</rpm>
</extensions>
</trkpt>
<trkpt lat="64.080436707" lon="-20.319152832">
<ele>114.390625</ele>
<time>2012-07-20T18:04:29Z</time>
<speed>4.330000</speed>
<extensions>
<speed>4.3</speed>
<temp>0.00</temp>
<bpm>0</bpm>
<rpm>0.00</rpm>
</extensions>
</trkpt>
<trkpt lat="64.080238342" lon="-20.319309235">
<ele>112.611328</ele>
<time>2012-07-20T18:04:34Z</time>
<speed>4.880000</speed>
<extensions>
<speed>4.9</speed>
<temp>0.00</temp>
<bpm>0</bpm>
<rpm>0.00</rpm>
</extensions>
</trkpt>
<trkpt lat="64.080024719" lon="-20.319484711">
<ele>111.427734</ele>
<time>2012-07-20T18:04:39Z</time>
<speed>5.340000</speed>
<extensions>
<speed>5.3</speed>
<temp>0.00</temp>
<bpm>0</bpm>
<rpm>0.00</rpm>
</extensions>
</trkpt>
<trkpt lat="64.079803467" lon="-20.319705963">
<ele>110.191406</ele>
<time>2012-07-20T18:04:44Z</time>
<speed>5.480000</speed>
<extensions>
<speed>5.5</speed>
<temp>0.00</temp>
<bpm>0</bpm>
<rpm>0.00</rpm>
</extensions>
</trkpt>
<trkpt lat="64.079566956" lon="-20.319955826">
<ele>109.337891</ele>
<time>2012-07-20T18:04:49Z</time>
<speed>6.310000</speed>
<extensions>
<speed>6.3</speed>
<temp>0.00</temp>
<bpm>0</bpm>
<rpm>0.00</rpm>
</extensions>
</trkpt>
<trkpt lat="64.079315186" lon="-20.320251465">
<ele>108.193359</ele>
<time>2012-07-20T18:04:54Z</time>
<speed>6.710000</speed>
<extensions>
<speed>6.7</speed>
<temp>0.00</temp>
<bpm>0</bpm>
<rpm>0.00</rpm>
</extensions>
</trkpt>
<trkpt lat="64.079032898" lon="-20.320596695">
<ele>108.185547</ele>
<time>2012-07-20T18:04:59Z</time>
<speed>7.290000</speed>
<extensions>
<speed>7.3</speed>
<temp>0.00</temp>
<bpm>0</bpm>
<rpm>0.00</rpm>
</extensions>
</trkpt>
<trkpt lat="64.078742981" lon="-20.320995331">
<ele>106.632813</ele>
<time>2012-07-20T18:05:04Z</time>
<speed>7.810000</speed>
<extensions>
<speed>7.8</speed>
<temp>0.00</temp>
<bpm>0</bpm>
<rpm>0.00</rpm>
</extensions>
</trkpt>
<trkpt lat="64.078437805" lon="-20.321393967">
<ele>106.207031</ele>
<time>2012-07-20T18:05:09Z</time>
<speed>8.070000</speed>
<extensions>
<speed>8.1</speed>
<temp>0.00</temp>
<bpm>0</bpm>
<rpm>0.00</rpm>
</extensions>
</trkpt>
<trkpt lat="64.078125000" lon="-20.321813583">
<ele>104.158203</ele>
<time>2012-07-20T18:05:14Z</time>
<speed>8.210000</speed>
<extensions>
<speed>8.2</speed>
<temp>0.00</temp>
<bpm>0</bpm>
<rpm>0.00</rpm>
</extensions>
</trkpt>
<trkpt lat="64.077819824" lon="-20.322246552">
<ele>100.482422</ele>
<time>2012-07-20T18:05:19Z</time>
<speed>8.020000</speed>
<extensions>
<speed>8.0</speed>
<temp>0.00</temp>
<bpm>0</bpm>
<rpm>0.00</rpm>
</extensions>
</trkpt>
<trkpt lat="64.077514648" lon="-20.322654724">
<ele>98.498047</ele>
<time>2012-07-20T18:05:24Z</time>
<speed>7.520000</speed>
<extensions>
<speed>7.5</speed>
<temp>0.00</temp>
<bpm>0</bpm>
<rpm>0.00</rpm>
</extensions>
</trkpt>
<trkpt lat="64.077239990" lon="-20.323011398">
<ele>94.271484</ele>
<time>2012-07-20T18:05:29Z</time>
<speed>6.790000</speed>
<extensions>
<speed>6.8</speed>
<temp>0.00</temp>
<bpm>0</bpm>
<rpm>0.00</rpm>
</extensions>
</trkpt>
<trkpt lat="64.076995850" lon="-20.323331833">
<ele>93.085938</ele>
<time>2012-07-20T18:05:34Z</time>
<speed>6.150000</speed>
<extensions>
<speed>6.1</speed>
<temp>0.00</temp>
<bpm>0</bpm>
<rpm>0.00</rpm>
</extensions>
</trkpt>
<trkpt lat="64.076766968" lon="-20.323638916">
<ele>90.380859</ele>
<time>2012-07-20T18:05:39Z</time>
<speed>6.000000</speed>
<extensions>
<speed>6.0</speed>
<temp>0.00</temp>
<bpm>0</bpm>
<rpm>0.00</rpm>
</extensions>
</trkpt>
<trkpt lat="64.076553345" lon="-20.323921204">
<ele>89.560547</ele>
<time>2012-07-20T18:05:44Z</time>
<speed>5.180000</speed>
<extensions>
<speed>5.2</speed>
<temp>0.00</temp>
<bpm>0</bpm>
<rpm>0.00</rpm>
</extensions>
</trkpt>
<trkpt lat="64.076362610" lon="-20.324155807">
<ele>90.953125</ele>
<time>2012-07-20T18:05:49Z</time>
<speed>4.340000</speed>
<extensions>
<speed>4.3</speed>
<temp>0.00</temp>
<bpm>0</bpm>
<rpm>0.00</rpm>
</extensions>
</trkpt>
<trkpt lat="64.076210022" lon="-20.324359894">
<ele>90.214844</ele>
<time>2012-07-20T18:05:54Z</time>
<speed>4.010000</speed>
<extensions>
<speed>4.0</speed>
<temp>0.00</temp>
<bpm>0</bpm>
<rpm>0.00</rpm>
</extensions>
</trkpt>
<trkpt lat="64.076057434" lon="-20.324577332">
<ele>89.816406</ele>
<time>2012-07-20T18:05:59Z</time>
<speed>4.520000</speed>
<extensions>
<speed>4.5</speed>
<temp>0.00</temp>
<bpm>0</bpm>
<rpm>0.00</rpm>
</extensions>
</trkpt>
<trkpt lat="64.075866699" lon="-20.324808121">
<ele>93.273438</ele>
<time>2012-07-20T18:06:04Z</time>
<speed>4.940000</speed>
<extensions>
<speed>4.9</speed>
<temp>0.00</temp>
<bpm>0</bpm>
<rpm>0.00</rpm>
</extensions>
</trkpt>
<trkpt lat="64.075668335" lon="-20.325048447">
<ele>94.396484</ele>
<time>2012-07-20T18:06:09Z</time>
<speed>4.930000</speed>
<extensions>
<speed>4.9</speed>
<temp>0.00</temp>
<bpm>0</bpm>
<rpm>0.00</rpm>
</extensions>
</trkpt>
<trkpt lat="64.075454712" lon="-20.325325012">
<ele>94.808594</ele>
<time>2012-07-20T18:06:14Z</time>
<speed>5.590000</speed>
<extensions>
<speed>5.6</speed>
<temp>0.00</temp>
<bpm>0</bpm>
<rpm>0.00</rpm>
</extensions>
</trkpt>
<trkpt lat="64.075241089" lon="-20.325607300">
<ele>93.154297</ele>
<time>2012-07-20T18:06:19Z</time>
<speed>5.570000</speed>
<extensions>
<speed>5.6</speed>
<temp>0.00</temp>
<bpm>0</bpm>
<rpm>0.00</rpm>
</extensions>
</trkpt>
<trkpt lat="64.075027466" lon="-20.325878143">
<ele>92.759766</ele>
<time>2012-07-20T18:06:24Z</time>
<speed>5.250000</speed>
<extensions>
<speed>5.2</speed>
<temp>0.00</temp>
<bpm>0</bpm>
<rpm>0.00</rpm>
</extensions>
</trkpt>
<trkpt lat="64.074836731" lon="-20.326141357">
<ele>93.474609</ele>
<time>2012-07-20T18:06:29Z</time>
<speed>4.940000</speed>
<extensions>
<speed>4.9</speed>
<temp>0.00</temp>
<bpm>0</bpm>
<rpm>0.00</rpm>
</extensions>
</trkpt>
<trkpt lat="64.074630737" lon="-20.326406479">
<ele>92.478516</ele>
<time>2012-07-20T18:06:34Z</time>
<speed>5.380000</speed>
<extensions>
<speed>5.4</speed>
<temp>0.00</temp>
<bpm>0</bpm>
<rpm>0.00</rpm>
</extensions>
</trkpt>
<trkpt lat="64.074417114" lon="-20.326671600">
<ele>93.402344</ele>
<time>2012-07-20T18:06:39Z</time>
<speed>4.690000</speed>
<extensions>
<speed>4.7</speed>
<temp>0.00</temp>
<bpm>0</bpm>
<rpm>0.00</rpm>
</extensions>
</trkpt>
<trkpt lat="64.074241638" lon="-20.326883316">
<ele>92.761719</ele>
<time>2012-07-20T18:06:44Z</time>
<speed>4.430000</speed>
<extensions>
<speed>4.4</speed>
<temp>0.00</temp>
<bpm>0</bpm>
<rpm>0.00</rpm>
</extensions>
</trkpt>
<trkpt lat="64.074058533" lon="-20.327102661">
<ele>90.207031</ele>
<time>2012-07-20T18:06:49Z</time>
<speed>4.360000</speed>
<extensions>
<speed>4.4</speed>
<temp>0.00</temp>
<bpm>0</bpm>
<rpm>0.00</rpm>
</extensions>
</trkpt>
<trkpt lat="64.073875427" lon="-20.327352524">
<ele>88.960938</ele>
<time>2012-07-20T18:06:54Z</time>
<speed>5.170000</speed>
<extensions>
<speed>5.2</speed>
<temp>0.00</temp>
<bpm>0</bpm>
<rpm>0.00</rpm>
</extensions>
</trkpt>
<trkpt lat="64.073669434" lon="-20.327610016">
<ele>89.226563</ele>
<time>2012-07-20T18:06:59Z</time>
<speed>5.330000</speed>
<extensions>
<speed>5.3</speed>
<temp>0.00</temp>
<bpm>0</bpm>
<rpm>0.00</rpm>
</extensions>
</trkpt>
<trkpt lat="64.073448181" lon="-20.327882767">
<ele>89.634766</ele>
<time>2012-07-20T18:07:04Z</time>
<speed>5.560000</speed>
<extensions>
<speed>5.6</speed>
<temp>0.00</temp>
<bpm>0</bpm>
<rpm>0.00</rpm>
</extensions>
</trkpt>
<trkpt lat="64.073234558" lon="-20.328163147">
<ele>90.328125</ele>
<time>2012-07-20T18:07:09Z</time>
<speed>5.330000</speed>
<extensions>
<speed>5.3</speed>
<temp>0.00</temp>
<bpm>0</bpm>
<rpm>0.00</rpm>
</extensions>
</trkpt>
<trkpt lat="64.073036194" lon="-20.328445435">
<ele>89.855469</ele>
<time>2012-07-20T18:07:14Z</time>
<speed>4.750000</speed>
<extensions>
<speed>4.8</speed>
<temp>0.00</temp>
<bpm>0</bpm>
<rpm>0.00</rpm>
</extensions>
</trkpt>
<trkpt lat="64.072875977" lon="-20.328645706">
<ele>91.386719</ele>
<time>2012-07-20T18:07:19Z</time>
<speed>3.210000</speed>
<extensions>
<speed>3.2</speed>
<temp>0.00</temp>
<bpm>0</bpm>
<rpm>0.00</rpm>
</extensions>
</trkpt>
<trkpt lat="64.072738647" lon="-20.328817368">
<ele>91.205078</ele>
<time>2012-07-20T18:07:24Z</time>
<speed>3.500000</speed>
<extensions>
<speed>3.5</speed>
<temp>0.00</temp>
<bpm>0</bpm>
<rpm>0.00</rpm>
</extensions>
</trkpt>
<trkpt lat="64.072601318" lon="-20.328983307">
<ele>91.880859</ele>
<time>2012-07-20T18:07:29Z</time>
<speed>3.510000</speed>
<extensions>
<speed>3.5</speed>
<temp>0.00</temp>
<bpm>0</bpm>
<rpm>0.00</rpm>
</extensions>
</trkpt>
<trkpt lat="64.072456360" lon="-20.329179764">
<ele>92.267578</ele>
<time>2012-07-20T18:07:34Z</time>
<speed>3.660000</speed>
<extensions>
<speed>3.7</speed>
<temp>0.00</temp>
<bpm>0</bpm>
<rpm>0.00</rpm>
</extensions>
</trkpt>
<trkpt lat="64.072319031" lon="-20.329357147">
<ele>93.240234</ele>
<time>2012-07-20T18:07:39Z</time>
<speed>3.230000</speed>
<extensions>
<speed>3.2</speed>
<temp>0.00</temp>
<bpm>0</bpm>
<rpm>0.00</rpm>
</extensions>
</trkpt>
<trkpt lat="64.072174072" lon="-20.329547882">
<ele>95.417969</ele>
<time>2012-07-20T18:07:44Z</time>
<speed>3.480000</speed>
<extensions>
<speed>3.5</speed>
<temp>0.00</temp>
<bpm>0</bpm>
<rpm>0.00</rpm>
</extensions>
</trkpt>
<trkpt lat="64.072036743" lon="-20.329706192">
<ele>95.738281</ele>
<time>2012-07-20T18:07:49Z</time>
<speed>3.450000</speed>
<extensions>
<speed>3.5</speed>
<temp>0.00</temp>
<bpm>0</bpm>
<rpm>0.00</rpm>
</extensions>
</trkpt>
<trkpt lat="64.071907043" lon="-20.329874039">
<ele>95.097656</ele>
<time>2012-07-20T18:07:54Z</time>
<speed>3.440000</speed>
<extensions>
<speed>3.4</speed>
<temp>0.00</temp>
<bpm>0</bpm>
<rpm>0.00</rpm>
</extensions>
</trkpt>
<trkpt lat="64.071769714" lon="-20.330055237">
<ele>95.642578</ele>
<time>2012-07-20T18:07:59Z</time>
<speed>3.540000</speed>
<extensions>
<speed>3.5</speed>
<temp>0.00</temp>
<bpm>0</bpm>
<rpm>0.00</rpm>
</extensions>
</trkpt>
<trkpt lat="64.071655273" lon="-20.330215454">
<ele>96.800781</ele>
<time>2012-07-20T18:08:04Z</time>
<speed>2.620000</speed>
<extensions>
<speed>2.6</speed>
<temp>0.00</temp>
<bpm>0</bpm>
<rpm>0.00</rpm>
</extensions>
</trkpt>
<trkpt lat="64.071525574" lon="-20.330375671">
<ele>96.230469</ele>
<time>2012-07-20T18:08:09Z</time>
<speed>3.930000</speed>
<extensions>
<speed>3.9</speed>
<temp>0.00</temp>
<bpm>0</bpm>
<rpm>0.00</rpm>
</extensions>
</trkpt>
<trkpt lat="64.071388245" lon="-20.330558777">
<ele>96.792969</ele>
<time>2012-07-20T18:08:14Z</time>
<speed>3.360000</speed>
<extensions>
<speed>3.4</speed>
<temp>0.00</temp>
<bpm>0</bpm>
<rpm>0.00</rpm>
</extensions>
</trkpt>
<trkpt lat="64.071266174" lon="-20.330713272">
<ele>98.695313</ele>
<time>2012-07-20T18:08:19Z</time>
<speed>3.190000</speed>
<extensions>
<speed>3.2</speed>
<temp>0.00</temp>
<bpm>0</bpm>
<rpm>0.00</rpm>
</extensions>
</trkpt>
<trkpt lat="64.071128845" lon="-20.330884933">
<ele>100.037109</ele>
<time>2012-07-20T18:08:24Z</time>
<speed>3.520000</speed>
<extensions>
<speed>3.5</speed>
<temp>0.00</temp>
<bpm>0</bpm>
<rpm>0.00</rpm>
</extensions>
</trkpt>
<trkpt lat="64.070991516" lon="-20.331064224">
<ele>99.072266</ele>
<time>2012-07-20T18:08:29Z</time>
<speed>3.800000</speed>
<extensions>
<speed>3.8</speed>
<temp>0.00</temp>
<bpm>0</bpm>
<rpm>0.00</rpm>
</extensions>
</trkpt>
<trkpt lat="64.070854187" lon="-20.331245422">
<ele>99.080078</ele>
<time>2012-07-20T18:08:34Z</time>
<speed>3.460000</speed>
<extensions>
<speed>3.5</speed>
<temp>0.00</temp>
<bpm>0</bpm>
<rpm>0.00</rpm>
</extensions>
</trkpt>
<trkpt lat="64.070716858" lon="-20.331422806">
<ele>99.910156</ele>
<time>2012-07-20T18:08:39Z</time>
<speed>2.870000</speed>
<extensions>
<speed>2.9</speed>
<temp>0.00</temp>
<bpm>0</bpm>
<rpm>0.00</rpm>
</extensions>
</trkpt>
<trkpt lat="64.070610046" lon="-20.331537247">
<ele>100.642578</ele>
<time>2012-07-20T18:08:44Z</time>
<speed>2.410000</speed>
<extensions>
<speed>2.4</speed>
<temp>0.00</temp>
<bpm>0</bpm>
<rpm>0.00</rpm>
</extensions>
</trkpt>
<trkpt lat="64.070495605" lon="-20.331655502">
<ele>102.183594</ele>
<time>2012-07-20T18:08:49Z</time>
<speed>3.540000</speed>
<extensions>
<speed>3.5</speed>
<temp>0.00</temp>
<bpm>0</bpm>
<rpm>0.00</rpm>
</extensions>
</trkpt>
<trkpt lat="64.070343018" lon="-20.331846237">
<ele>100.236328</ele>
<time>2012-07-20T18:08:54Z</time>
<speed>4.050000</speed>
<extensions>
<speed>4.0</speed>
<temp>0.00</temp>
<bpm>0</bpm>
<rpm>0.00</rpm>
</extensions>
</trkpt>
<trkpt lat="64.070167542" lon="-20.332059860">
<ele>99.615234</ele>
<time>2012-07-20T18:08:59Z</time>
<speed>4.270000</speed>
<extensions>
<speed>4.3</speed>
<temp>0.00</temp>
<bpm>0</bpm>
<rpm>0.00</rpm>
</extensions>
</trkpt>
<trkpt lat="64.070014954" lon="-20.332239151">
<ele>99.777344</ele>
<time>2012-07-20T18:09:04Z</time>
<speed>3.590000</speed>
<extensions>
<speed>3.6</speed>
<temp>0.00</temp>
<bpm>0</bpm>
<rpm>0.00</rpm>
</extensions>
</trkpt>
<trkpt lat="64.069847107" lon="-20.332403183">
<ele>98.023438</ele>
<time>2012-07-20T18:09:09Z</time>
<speed>4.190000</speed>
<extensions>
<speed>4.2</speed>
<temp>0.00</temp>
<bpm>0</bpm>
<rpm>0.00</rpm>
</extensions>
</trkpt>
<trkpt lat="64.069679260" lon="-20.332605362">
<ele>97.363281</ele>
<time>2012-07-20T18:09:14Z</time>
<speed>4.580000</speed>
<extensions>
<speed>4.6</speed>
<temp>0.00</temp>
<bpm>0</bpm>
<rpm>0.00</rpm>
</extensions>
</trkpt>
<trkpt lat="64.069465637" lon="-20.332820892">
<ele>96.056641</ele>
<time>2012-07-20T18:09:19Z</time>
<speed>5.370000</speed>
<extensions>
<speed>5.4</speed>
<temp>0.00</temp>
<bpm>0</bpm>
<rpm>0.00</rpm>
</extensions>
</trkpt>
<trkpt lat="64.069236755" lon="-20.333057404">
<ele>95.154297</ele>
<time>2012-07-20T18:09:24Z</time>
<speed>5.530000</speed>
<extensions>
<speed>5.5</speed>
<temp>0.00</temp>
<bpm>0</bpm>
<rpm>0.00</rpm>
</extensions>
</trkpt>
<trkpt lat="64.069000244" lon="-20.333295822">
<ele>94.708984</ele>
<time>2012-07-20T18:09:29Z</time>
<speed>5.580000</speed>
<extensions>
<speed>5.6</speed>
<temp>0.00</temp>
<bpm>0</bpm>
<rpm>0.00</rpm>
</extensions>
</trkpt>
<trkpt lat="64.068794250" lon="-20.333532333">
<ele>93.435547</ele>
<time>2012-07-20T18:09:34Z</time>
<speed>5.190000</speed>
<extensions>
<speed>5.2</speed>
<temp>0.00</temp>
<bpm>0</bpm>
<rpm>0.00</rpm>
</extensions>
</trkpt>
<trkpt lat="64.068557739" lon="-20.333776474">
<ele>93.349609</ele>
<time>2012-07-20T18:09:39Z</time>
<speed>6.070000</speed>
<extensions>
<speed>6.1</speed>
<temp>0.00</temp>
<bpm>0</bpm>
<rpm>0.00</rpm>
</extensions>
</trkpt>
<trkpt lat="64.068305969" lon="-20.334026337">
<ele>93.732422</ele>
<time>2012-07-20T18:09:44Z</time>
<speed>6.430000</speed>
<extensions>
<speed>6.4</speed>
<temp>0.00</temp>
<bpm>0</bpm>
<rpm>0.00</rpm>
</extensions>
</trkpt>
<trkpt lat="64.068031311" lon="-20.334297180">
<ele>93.019531</ele>
<time>2012-07-20T18:09:49Z</time>
<speed>6.710000</speed>
<extensions>
<speed>6.7</speed>
<temp>0.00</temp>
<bpm>0</bpm>
<rpm>0.00</rpm>
</extensions>
</trkpt>
<trkpt lat="64.067749023" lon="-20.334590912">
<ele>92.572266</ele>
<time>2012-07-20T18:09:54Z</time>
<speed>7.340000</speed>
<extensions>
<speed>7.3</speed>
<temp>0.00</temp>
<bpm>0</bpm>
<rpm>0.00</rpm>
</extensions>
</trkpt>
<trkpt lat="64.067459106" lon="-20.334896088">
<ele>91.695313</ele>
<time>2012-07-20T18:09:59Z</time>
<speed>7.080000</speed>
<extensions>
<speed>7.1</speed>
<temp>0.00</temp>
<bpm>0</bpm>
<rpm>0.00</rpm>
</extensions>
</trkpt>
<trkpt lat="64.067161560" lon="-20.335191727">
<ele>90.261719</ele>
<time>2012-07-20T18:10:04Z</time>
<speed>7.520000</speed>
<extensions>
<speed>7.5</speed>
<temp>0.00</temp>
<bpm>0</bpm>
<rpm>0.00</rpm>
</extensions>
</trkpt>
<trkpt lat="64.066833496" lon="-20.335527420">
<ele>88.974609</ele>
<time>2012-07-20T18:10:09Z</time>
<speed>8.090000</speed>
<extensions>
<speed>8.1</speed>
<temp>0.00</temp>
<bpm>0</bpm>
<rpm>0.00</rpm>
</extensions>
</trkpt>
<trkpt lat="64.066513062" lon="-20.335861206">
<ele>87.769531</ele>
<time>2012-07-20T18:10:14Z</time>
<speed>7.760000</speed>
<extensions>
<speed>7.8</speed>
<temp>0.00</temp>
<bpm>0</bpm>
<rpm>0.00</rpm>
</extensions>
</trkpt>
<trkpt lat="64.066200256" lon="-20.336177826">
<ele>86.433594</ele>
<time>2012-07-20T18:10:19Z</time>
<speed>7.570000</speed>
<extensions>
<speed>7.6</speed>
<temp>0.00</temp>
<bpm>0</bpm>
<rpm>0.00</rpm>
</extensions>
</trkpt>
<trkpt lat="64.065887451" lon="-20.336492538">
<ele>87.146484</ele>
<time>2012-07-20T18:10:24Z</time>
<speed>7.560000</speed>
<extensions>
<speed>7.6</speed>
<temp>0.00</temp>
<bpm>0</bpm>
<rpm>0.00</rpm>
</extensions>
</trkpt>
<trkpt lat="64.065582275" lon="-20.336795807">
<ele>86.972656</ele>
<time>2012-07-20T18:10:29Z</time>
<speed>7.120000</speed>
<extensions>
<speed>7.1</speed>
<temp>0.00</temp>
<bpm>0</bpm>
<rpm>0.00</rpm>
</extensions>
</trkpt>
<trkpt lat="64.065322876" lon="-20.337068558">
<ele>87.294922</ele>
<time>2012-07-20T18:10:34Z</time>
<speed>6.190000</speed>
<extensions>
<speed>6.2</speed>
<temp>0.00</temp>
<bpm>0</bpm>
<rpm>0.00</rpm>
</extensions>
</trkpt>
<trkpt lat="64.065063477" lon="-20.337345123">
<ele>88.726563</ele>
<time>2012-07-20T18:10:39Z</time>
<speed>6.440000</speed>
<extensions>
<speed>6.4</speed>
<temp>0.00</temp>
<bpm>0</bpm>
<rpm>0.00</rpm>
</extensions>
</trkpt>
<trkpt lat="64.064796448" lon="-20.337623596">
<ele>89.078125</ele>
<time>2012-07-20T18:10:44Z</time>
<speed>6.620000</speed>
<extensions>
<speed>6.6</speed>
<temp>0.00</temp>
<bpm>0</bpm>
<rpm>0.00</rpm>
</extensions>
</trkpt>
<trkpt lat="64.064537048" lon="-20.337934494">
<ele>89.525391</ele>
<time>2012-07-20T18:10:49Z</time>
<speed>5.970000</speed>
<extensions>
<speed>6.0</speed>
<temp>0.00</temp>
<bpm>0</bpm>
<rpm>0.00</rpm>
</extensions>
</trkpt>
<trkpt lat="64.064315796" lon="-20.338199615">
<ele>87.644531</ele>
<time>2012-07-20T18:10:54Z</time>
<speed>5.550000</speed>
<extensions>
<speed>5.5</speed>
<temp>0.00</temp>
<bpm>0</bpm>
<rpm>0.00</rpm>
</extensions>
</trkpt>
<trkpt lat="64.064109802" lon="-20.338481903">
<ele>87.363281</ele>
<time>2012-07-20T18:10:59Z</time>
<speed>5.620000</speed>
<extensions>
<speed>5.6</speed>
<temp>0.00</temp>
<bpm>0</bpm>
<rpm>0.00</rpm>
</extensions>
</trkpt>
<trkpt lat="64.063888550" lon="-20.338819504">
<ele>85.085938</ele>
<time>2012-07-20T18:11:04Z</time>
<speed>5.930000</speed>
<extensions>
<speed>5.9</speed>
<temp>0.00</temp>
<bpm>0</bpm>
<rpm>0.00</rpm>
</extensions>
</trkpt>
<trkpt lat="64.063659668" lon="-20.339183807">
<ele>85.640625</ele>
<time>2012-07-20T18:11:09Z</time>
<speed>6.460000</speed>
<extensions>
<speed>6.5</speed>
<temp>0.00</temp>
<bpm>0</bpm>
<rpm>0.00</rpm>
</extensions>
</trkpt>
<trkpt lat="64.063453674" lon="-20.339542389">
<ele>83.435547</ele>
<time>2012-07-20T18:11:14Z</time>
<speed>5.430000</speed>
<extensions>
<speed>5.4</speed>
<temp>0.00</temp>
<bpm>0</bpm>
<rpm>0.00</rpm>
</extensions>
</trkpt>
<trkpt lat="64.063278198" lon="-20.339872360">
<ele>80.917969</ele>
<time>2012-07-20T18:11:19Z</time>
<speed>4.930000</speed>
<extensions>
<speed>4.9</speed>
<temp>0.00</temp>
<bpm>0</bpm>
<rpm>0.00</rpm>
</extensions>
</trkpt>
<trkpt lat="64.063117981" lon="-20.340190887">
<ele>79.904297</ele>
<time>2012-07-20T18:11:24Z</time>
<speed>4.210000</speed>
<extensions>
<speed>4.2</speed>
<temp>0.00</temp>
<bpm>0</bpm>
<rpm>0.00</rpm>
</extensions>
</trkpt>
<trkpt lat="64.062965393" lon="-20.340476990">
<ele>80.472656</ele>
<time>2012-07-20T18:11:29Z</time>
<speed>4.480000</speed>
<extensions>
<speed>4.5</speed>
<temp>0.00</temp>
<bpm>0</bpm>
<rpm>0.00</rpm>
</extensions>
</trkpt>
<trkpt lat="64.062828064" lon="-20.340751648">
<ele>80.240234</ele>
<time>2012-07-20T18:11:34Z</time>
<speed>3.660000</speed>
<extensions>
<speed>3.7</speed>
<temp>0.00</temp>
<bpm>0</bpm>
<rpm>0.00</rpm>
</extensions>
</trkpt>
<trkpt lat="64.062690735" lon="-20.341051102">
<ele>78.814453</ele>
<time>2012-07-20T18:11:39Z</time>
<speed>4.430000</speed>
<extensions>
<speed>4.4</speed>
<temp>0.00</temp>
<bpm>0</bpm>
<rpm>0.00</rpm>
</extensions>
</trkpt>
<trkpt lat="64.062553406" lon="-20.341362000">
<ele>78.646484</ele>
<time>2012-07-20T18:11:44Z</time>
<speed>4.040000</speed>
<extensions>
<speed>4.0</speed>
<temp>0.00</temp>
<bpm>0</bpm>
<rpm>0.00</rpm>
</extensions>
</trkpt>
<trkpt lat="64.062423706" lon="-20.341680527">
<ele>77.632813</ele>
<time>2012-07-20T18:11:49Z</time>
<speed>4.410000</speed>
<extensions>
<speed>4.4</speed>
<temp>0.00</temp>
<bpm>0</bpm>
<rpm>0.00</rpm>
</extensions>
</trkpt>
<trkpt lat="64.062286377" lon="-20.342046738">
<ele>76.464844</ele>
<time>2012-07-20T18:11:54Z</time>
<speed>4.890000</speed>
<extensions>
<speed>4.9</speed>
<temp>0.00</temp>
<bpm>0</bpm>
<rpm>0.00</rpm>
</extensions>
</trkpt>
<trkpt lat="64.062141418" lon="-20.342435837">
<ele>75.714844</ele>
<time>2012-07-20T18:11:59Z</time>
<speed>4.700000</speed>
<extensions>
<speed>4.7</speed>
<temp>0.00</temp>
<bpm>0</bpm>
<rpm>0.00</rpm>
</extensions>
</trkpt>
<trkpt lat="64.062004089" lon="-20.342817307">
<ele>74.753906</ele>
<time>2012-07-20T18:12:04Z</time>
<speed>5.040000</speed>
<extensions>
<speed>5.0</speed>
<temp>0.00</temp>
<bpm>0</bpm>
<rpm>0.00</rpm>
</extensions>
</trkpt>
<trkpt lat="64.061866760" lon="-20.343210220">
<ele>72.783203</ele>
<time>2012-07-20T18:12:09Z</time>
<speed>4.820000</speed>
<extensions>
<speed>4.8</speed>
<temp>0.00</temp>
<bpm>0</bpm>
<rpm>0.00</rpm>
</extensions>
</trkpt>
<trkpt lat="64.061729431" lon="-20.343641281">
<ele>70.794922</ele>
<time>2012-07-20T18:12:14Z</time>
<speed>5.200000</speed>
<extensions>
<speed>5.2</speed>
<temp>0.00</temp>
<bpm>0</bpm>
<rpm>0.00</rpm>
</extensions>
</trkpt>
<trkpt lat="64.061592102" lon="-20.344081879">
<ele>70.234375</ele>
<time>2012-07-20T18:12:19Z</time>
<speed>5.320000</speed>
<extensions>
<speed>5.3</speed>
<temp>0.00</temp>
<bpm>0</bpm>
<rpm>0.00</rpm>
</extensions>
</trkpt>
<trkpt lat="64.061462402" lon="-20.344579697">
<ele>68.916016</ele>
<time>2012-07-20T18:12:24Z</time>
<speed>5.940000</speed>
<extensions>
<speed>5.9</speed>
<temp>0.00</temp>
<bpm>0</bpm>
<rpm>0.00</rpm>
</extensions>
</trkpt>
<trkpt lat="64.061317444" lon="-20.345144272">
<ele>68.517578</ele>
<time>2012-07-20T18:12:29Z</time>
<speed>6.230000</speed>
<extensions>
<speed>6.2</speed>
<temp>0.00</temp>
<bpm>0</bpm>
<rpm>0.00</rpm>
</extensions>
</trkpt>
<trkpt lat="64.061187744" lon="-20.345710754">
<ele>67.968750</ele>
<time>2012-07-20T18:12:34Z</time>
<speed>6.200000</speed>
<extensions>
<speed>6.2</speed>
<temp>0.00</temp>
<bpm>0</bpm>
<rpm>0.00</rpm>
</extensions>
</trkpt>
<trkpt lat="64.061058044" lon="-20.346254349">
<ele>66.072266</ele>
<time>2012-07-20T18:12:39Z</time>
<speed>5.640000</speed>
<extensions>
<speed>5.6</speed>
<temp>0.00</temp>
<bpm>0</bpm>
<rpm>0.00</rpm>
</extensions>
</trkpt>
<trkpt lat="64.060951233" lon="-20.346769333">
<ele>66.179688</ele>
<time>2012-07-20T18:12:44Z</time>
<speed>5.860000</speed>
<extensions>
<speed>5.9</speed>
<temp>0.00</temp>
<bpm>0</bpm>
<rpm>0.00</rpm>
</extensions>
</trkpt>
<trkpt lat="64.060836792" lon="-20.347293854">
<ele>66.095703</ele>
<time>2012-07-20T18:12:49Z</time>
<speed>5.240000</speed>
<extensions>
<speed>5.2</speed>
<temp>0.00</temp>
<bpm>0</bpm>
<rpm>0.00</rpm>
</extensions>
</trkpt>
<trkpt lat="64.060737610" lon="-20.347782135">
<ele>65.933594</ele>
<time>2012-07-20T18:12:54Z</time>
<speed>5.190000</speed>
<extensions>
<speed>5.2</speed>
<temp>0.00</temp>
<bpm>0</bpm>
<rpm>0.00</rpm>
</extensions>
</trkpt>
<trkpt lat="64.060646057" lon="-20.348247528">
<ele>66.238281</ele>
<time>2012-07-20T18:12:59Z</time>
<speed>4.380000</speed>
<extensions>
<speed>4.4</speed>
<temp>0.00</temp>
<bpm>0</bpm>
<rpm>0.00</rpm>
</extensions>
</trkpt>
<trkpt lat="64.060562134" lon="-20.348676682">
<ele>66.597656</ele>
<time>2012-07-20T18:13:04Z</time>
<speed>5.000000</speed>
<extensions>
<speed>5.0</speed>
<temp>0.00</temp>
<bpm>0</bpm>
<rpm>0.00</rpm>
</extensions>
</trkpt>
<trkpt lat="64.060455322" lon="-20.349180222">
<ele>66.099609</ele>
<time>2012-07-20T18:13:09Z</time>
<speed>5.330000</speed>
<extensions>
<speed>5.3</speed>
<temp>0.00</temp>
<bpm>0</bpm>
<rpm>0.00</rpm>
</extensions>
</trkpt>
<trkpt lat="64.060363770" lon="-20.349685669">
<ele>65.437500</ele>
<time>2012-07-20T18:13:14Z</time>
<speed>5.260000</speed>
<extensions>
<speed>5.3</speed>
<temp>0.00</temp>
<bpm>0</bpm>
<rpm>0.00</rpm>
</extensions>
</trkpt>
<trkpt lat="64.060256958" lon="-20.350166321">
<ele>67.306641</ele>
<time>2012-07-20T18:13:19Z</time>
<speed>4.840000</speed>
<extensions>
<speed>4.8</speed>
<temp>0.00</temp>
<bpm>0</bpm>
<rpm>0.00</rpm>
</extensions>
</trkpt>
<trkpt lat="64.060165405" lon="-20.350625992">
<ele>69.541016</ele>
<time>2012-07-20T18:13:24Z</time>
<speed>4.900000</speed>
<extensions>
<speed>4.9</speed>
<temp>0.00</temp>
<bpm>0</bpm>
<rpm>0.00</rpm>
</extensions>
</trkpt>
<trkpt lat="64.060081482" lon="-20.351060867">
<ele>71.943359</ele>
<time>2012-07-20T18:13:29Z</time>
<speed>4.690000</speed>
<extensions>
<speed>4.7</speed>
<temp>0.00</temp>
<bpm>0</bpm>
<rpm>0.00</rpm>
</extensions>
</trkpt>
<trkpt lat="64.059997559" lon="-20.351457596">
<ele>75.294922</ele>
<time>2012-07-20T18:13:34Z</time>
<speed>4.500000</speed>
<extensions>
<speed>4.5</speed>
<temp>0.00</temp>
<bpm>0</bpm>
<rpm>0.00</rpm>
</extensions>
</trkpt>
<trkpt lat="64.059906006" lon="-20.351850510">
<ele>75.664063</ele>
<time>2012-07-20T18:13:39Z</time>
<speed>4.700000</speed>
<extensions>
<speed>4.7</speed>
<temp>0.00</temp>
<bpm>0</bpm>
<rpm>0.00</rpm>
</extensions>
</trkpt>
<trkpt lat="64.059822083" lon="-20.352289200">
<ele>76.236328</ele>
<time>2012-07-20T18:13:44Z</time>
<speed>4.890000</speed>
<extensions>
<speed>4.9</speed>
<temp>0.00</temp>
<bpm>0</bpm>
<rpm>0.00</rpm>
</extensions>
</trkpt>
<trkpt lat="64.059730530" lon="-20.352716446">
<ele>76.265625</ele>
<time>2012-07-20T18:13:49Z</time>
<speed>3.670000</speed>
<extensions>
<speed>3.7</speed>
<temp>0.00</temp>
<bpm>0</bpm>
<rpm>0.00</rpm>
</extensions>
</trkpt>
<trkpt lat="64.059661865" lon="-20.353029251">
<ele>75.832031</ele>
<time>2012-07-20T18:13:54Z</time>
<speed>3.300000</speed>
<extensions>
<speed>3.3</speed>
<temp>0.00</temp>
<bpm>0</bpm>
<rpm>0.00</rpm>
</extensions>
</trkpt>
<trkpt lat="64.059600830" lon="-20.353286743">
<ele>72.595703</ele>
<time>2012-07-20T18:13:59Z</time>
<speed>2.920000</speed>
<extensions>
<speed>2.9</speed>
<temp>0.00</temp>
<bpm>0</bpm>
<rpm>0.00</rpm>
</extensions>
</trkpt>
<trkpt lat="64.059555054" lon="-20.353536606">
<ele>73.126953</ele>
<time>2012-07-20T18:14:04Z</time>
<speed>2.970000</speed>
<extensions>
<speed>3.0</speed>
<temp>0.00</temp>
<bpm>0</bpm>
<rpm>0.00</rpm>
</extensions>
</trkpt>
<trkpt lat="64.059478760" lon="-20.353799820">
<ele>73.156250</ele>
<time>2012-07-20T18:14:09Z</time>
<speed>2.650000</speed>
<extensions>
<speed>2.6</speed>
<temp>0.00</temp>
<bpm>0</bpm>
<rpm>0.00</rpm>
</extensions>
</trkpt>
<trkpt lat="64.059417725" lon="-20.354013443">
<ele>73.218750</ele>
<time>2012-07-20T18:14:14Z</time>
<speed>2.850000</speed>
<extensions>
<speed>2.9</speed>
<temp>0.00</temp>
<bpm>0</bpm>
<rpm>0.00</rpm>
</extensions>
</trkpt>
<trkpt lat="64.059356689" lon="-20.354280472">
<ele>72.216797</ele>
<time>2012-07-20T18:14:19Z</time>
<speed>3.160000</speed>
<extensions>
<speed>3.2</speed>
<temp>0.00</temp>
<bpm>0</bpm>
<rpm>0.00</rpm>
</extensions>
</trkpt>
<trkpt lat="64.059280396" lon="-20.354587555">
<ele>72.740234</ele>
<time>2012-07-20T18:14:24Z</time>
<speed>3.460000</speed>
<extensions>
<speed>3.5</speed>
<temp>0.00</temp>
<bpm>0</bpm>
<rpm>0.00</rpm>
</extensions>
</trkpt>
<trkpt lat="64.059188843" lon="-20.354900360">
<ele>71.447266</ele>
<time>2012-07-20T18:14:29Z</time>
<speed>3.930000</speed>
<extensions>
<speed>3.9</speed>
<temp>0.00</temp>
<bpm>0</bpm>
<rpm>0.00</rpm>
</extensions>
</trkpt>
<trkpt lat="64.059089661" lon="-20.355278015">
<ele>72.500000</ele>
<time>2012-07-20T18:14:34Z</time>
<speed>4.150000</speed>
<extensions>
<speed>4.1</speed>
<temp>0.00</temp>
<bpm>0</bpm>
<rpm>0.00</rpm>
</extensions>
</trkpt>
<trkpt lat="64.059005737" lon="-20.355619431">
<ele>73.812500</ele>
<time>2012-07-20T18:14:39Z</time>
<speed>3.160000</speed>
<extensions>
<speed>3.2</speed>
<temp>0.00</temp>
<bpm>0</bpm>
<rpm>0.00</rpm>
</extensions>
</trkpt>
<trkpt lat="64.058921814" lon="-20.355916977">
<ele>73.378906</ele>
<time>2012-07-20T18:14:44Z</time>
<speed>3.860000</speed>
<extensions>
<speed>3.9</speed>
<temp>0.00</temp>
<bpm>0</bpm>
<rpm>0.00</rpm>
</extensions>
</trkpt>
<trkpt lat="64.058822632" lon="-20.356287003">
<ele>71.839844</ele>
<time>2012-07-20T18:14:49Z</time>
<speed>4.350000</speed>
<extensions>
<speed>4.3</speed>
<temp>0.00</temp>
<bpm>0</bpm>
<rpm>0.00</rpm>
</extensions>
</trkpt>
<trkpt lat="64.058708191" lon="-20.356668472">
<ele>70.767578</ele>
<time>2012-07-20T18:14:54Z</time>
<speed>4.000000</speed>
<extensions>
<speed>4.0</speed>
<temp>0.00</temp>
<bpm>0</bpm>
<rpm>0.00</rpm>
</extensions>
</trkpt>
<trkpt lat="64.058624268" lon="-20.356983185">
<ele>70.642578</ele>
<time>2012-07-20T18:14:59Z</time>
<speed>3.750000</speed>
<extensions>
<speed>3.8</speed>
<temp>0.00</temp>
<bpm>0</bpm>
<rpm>0.00</rpm>
</extensions>
</trkpt>
<trkpt lat="64.058509827" lon="-20.357316971">
<ele>71.562500</ele>
<time>2012-07-20T18:15:04Z</time>
<speed>4.100000</speed>
<extensions>
<speed>4.1</speed>
<temp>0.00</temp>
<bpm>0</bpm>
<rpm>0.00</rpm>
</extensions>
</trkpt>
<trkpt lat="64.058395386" lon="-20.357675552">
<ele>72.183594</ele>
<time>2012-07-20T18:15:09Z</time>
<speed>4.540000</speed>
<extensions>
<speed>4.5</speed>
<temp>0.00</temp>
<bpm>0</bpm>
<rpm>0.00</rpm>
</extensions>
</trkpt>
<trkpt lat="64.058273315" lon="-20.358047485">
<ele>71.707031</ele>
<time>2012-07-20T18:15:14Z</time>
<speed>4.610000</speed>
<extensions>
<speed>4.6</speed>
<temp>0.00</temp>
<bpm>0</bpm>
<rpm>0.00</rpm>
</extensions>
</trkpt>
<trkpt lat="64.058158875" lon="-20.358402252">
<ele>71.281250</ele>
<time>2012-07-20T18:15:19Z</time>
<speed>3.670000</speed>
<extensions>
<speed>3.7</speed>
<temp>0.00</temp>
<bpm>0</bpm>
<rpm>0.00</rpm>
</extensions>
</trkpt>
<trkpt lat="64.058052063" lon="-20.358728409">
<ele>70.947266</ele>
<time>2012-07-20T18:15:24Z</time>
<speed>4.360000</speed>
<extensions>
<speed>4.4</speed>
<temp>0.00</temp>
<bpm>0</bpm>
<rpm>0.00</rpm>
</extensions>
</trkpt>
<trkpt lat="64.057922363" lon="-20.359088898">
<ele>70.890625</ele>
<time>2012-07-20T18:15:29Z</time>
<speed>4.290000</speed>
<extensions>
<speed>4.3</speed>
<temp>0.00</temp>
<bpm>0</bpm>
<rpm>0.00</rpm>
</extensions>
</trkpt>
<trkpt lat="64.057807922" lon="-20.359434128">
<ele>71.042969</ele>
<time>2012-07-20T18:15:34Z</time>
<speed>4.590000</speed>
<extensions>
<speed>4.6</speed>
<temp>0.00</temp>
<bpm>0</bpm>
<rpm>0.00</rpm>
</extensions>
</trkpt>
<trkpt lat="64.057678223" lon="-20.359783173">
<ele>70.607422</ele>
<time>2012-07-20T18:15:39Z</time>
<speed>3.850000</speed>
<extensions>
<speed>3.8</speed>
<temp>0.00</temp>
<bpm>0</bpm>
<rpm>0.00</rpm>
</extensions>
</trkpt>
<trkpt lat="64.057579041" lon="-20.360067368">
<ele>72.347656</ele>
<time>2012-07-20T18:15:44Z</time>
<speed>3.570000</speed>
<extensions>
<speed>3.6</speed>
<temp>0.00</temp>
<bpm>0</bpm>
<rpm>0.00</rpm>
</extensions>
</trkpt>
<trkpt lat="64.057464600" lon="-20.360345840">
<ele>72.160156</ele>
<time>2012-07-20T18:15:49Z</time>
<speed>3.630000</speed>
<extensions>
<speed>3.6</speed>
<temp>0.00</temp>
<bpm>0</bpm>
<rpm>0.00</rpm>
</extensions>
</trkpt>
<trkpt lat="64.057373047" lon="-20.360586166">
<ele>71.291016</ele>
<time>2012-07-20T18:15:54Z</time>
<speed>2.450000</speed>
<extensions>
<speed>2.4</speed>
<temp>0.00</temp>
<bpm>0</bpm>
<rpm>0.00</rpm>
</extensions>
</trkpt>
<trkpt lat="64.057350159" lon="-20.360651016">
<ele>70.144531</ele>
<time>2012-07-20T18:15:59Z</time>
<speed>0.120000</speed>
<extensions>
<speed>0.1</speed>
<temp>0.00</temp>
<bpm>0</bpm>
<rpm>0.00</rpm>
</extensions>
</trkpt>
<trkpt lat="64.057350159" lon="-20.360651016">
<ele>70.210938</ele>
<time>2012-07-20T18:16:04Z</time>
<speed>0.080000</speed>
<extensions>
<speed>0.1</speed>
<temp>0.00</temp>
<bpm>0</bpm>
<rpm>0.00</rpm>
</extensions>
</trkpt>
<trkpt lat="64.057342529" lon="-20.360656738">
<ele>70.283203</ele>
<time>2012-07-20T18:16:09Z</time>
<speed>1.100000</speed>
<extensions>
<speed>1.1</speed>
<temp>0.00</temp>
<bpm>0</bpm>
<rpm>0.00</rpm>
</extensions>
</trkpt>
<trkpt lat="64.057273865" lon="-20.360855103">
<ele>71.011719</ele>
<time>2012-07-20T18:16:14Z</time>
<speed>3.090000</speed>
<extensions>
<speed>3.1</speed>
<temp>0.00</temp>
<bpm>0</bpm>
<rpm>0.00</rpm>
</extensions>
</trkpt>
<trkpt lat="64.057167053" lon="-20.361133575">
<ele>70.775391</ele>
<time>2012-07-20T18:16:19Z</time>
<speed>3.910000</speed>
<extensions>
<speed>3.9</speed>
<temp>0.00</temp>
<bpm>0</bpm>
<rpm>0.00</rpm>
</extensions>
</trkpt>
<trkpt lat="64.057044983" lon="-20.361419678">
<ele>69.648438</ele>
<time>2012-07-20T18:16:24Z</time>
<speed>4.110000</speed>
<extensions>
<speed>4.1</speed>
<temp>0.00</temp>
<bpm>0</bpm>
<rpm>0.00</rpm>
</extensions>
</trkpt>
<trkpt lat="64.056915283" lon="-20.361734390">
<ele>69.388672</ele>
<time>2012-07-20T18:16:29Z</time>
<speed>4.140000</speed>
<extensions>
<speed>4.1</speed>
<temp>0.00</temp>
<bpm>0</bpm>
<rpm>0.00</rpm>
</extensions>
</trkpt>
<trkpt lat="64.056793213" lon="-20.362047195">
<ele>69.730469</ele>
<time>2012-07-20T18:16:34Z</time>
<speed>4.320000</speed>
<extensions>
<speed>4.3</speed>
<temp>0.00</temp>
<bpm>0</bpm>
<rpm>0.00</rpm>
</extensions>
</trkpt>
<trkpt lat="64.056678772" lon="-20.362316132">
<ele>70.410156</ele>
<time>2012-07-20T18:16:39Z</time>
<speed>2.910000</speed>
<extensions>
<speed>2.9</speed>
<temp>0.00</temp>
<bpm>0</bpm>
<rpm>0.00</rpm>
</extensions>
</trkpt>
<trkpt lat="64.056617737" lon="-20.362468719">
<ele>70.521484</ele>
<time>2012-07-20T18:16:44Z</time>
<speed>1.790000</speed>
<extensions>
<speed>1.8</speed>
<temp>0.00</temp>
<bpm>0</bpm>
<rpm>0.00</rpm>
</extensions>
</trkpt>
<trkpt lat="64.056541443" lon="-20.362678528">
<ele>71.525391</ele>
<time>2012-07-20T18:16:49Z</time>
<speed>2.120000</speed>
<extensions>
<speed>2.1</speed>
<temp>0.00</temp>
<bpm>0</bpm>
<rpm>0.00</rpm>
</extensions>
</trkpt>
<trkpt lat="64.056533813" lon="-20.362701416">
<ele>71.419922</ele>
<time>2012-07-20T18:16:54Z</time>
<speed>0.010000</speed>
<extensions>
<speed>0.0</speed>
<temp>0.00</temp>
<bpm>0</bpm>
<rpm>0.00</rpm>
</extensions>
</trkpt>
<trkpt lat="64.056533813" lon="-20.362701416">
<ele>71.410156</ele>
<time>2012-07-20T18:16:59Z</time>
<speed>0.020000</speed>
<extensions>
<speed>0.0</speed>
<temp>0.00</temp>
<bpm>0</bpm>
<rpm>0.00</rpm>
</extensions>
</trkpt>
<trkpt lat="64.056533813" lon="-20.362699509">
<ele>71.509766</ele>
<time>2012-07-20T18:17:04Z</time>
<speed>0.020000</speed>
<extensions>
<speed>0.0</speed>
<temp>0.00</temp>
<bpm>0</bpm>
<rpm>0.00</rpm>
</extensions>
</trkpt>
<trkpt lat="64.056533813" lon="-20.362699509">
<ele>71.572266</ele>
<time>2012-07-20T18:17:09Z</time>
<speed>0.010000</speed>
<extensions>
<speed>0.0</speed>
<temp>0.00</temp>
<bpm>0</bpm>
<rpm>0.00</rpm>
</extensions>
</trkpt>
<trkpt lat="64.056533813" lon="-20.362701416">
<ele>71.619141</ele>
<time>2012-07-20T18:17:14Z</time>
<speed>0.020000</speed>
<extensions>
<speed>0.0</speed>
<temp>0.00</temp>
<bpm>0</bpm>
<rpm>0.00</rpm>
</extensions>
</trkpt>
<trkpt lat="64.056533813" lon="-20.362701416">
<ele>71.636719</ele>
<time>2012-07-20T18:17:19Z</time>
<speed>0.010000</speed>
<extensions>
<speed>0.0</speed>
<temp>0.00</temp>
<bpm>0</bpm>
<rpm>0.00</rpm>
</extensions>
</trkpt>
<trkpt lat="64.056533813" lon="-20.362699509">
<ele>71.705078</ele>
<time>2012-07-20T18:17:24Z</time>
<speed>0.020000</speed>
<extensions>
<speed>0.0</speed>
<temp>0.00</temp>
<bpm>0</bpm>
<rpm>0.00</rpm>
</extensions>
</trkpt>
<trkpt lat="64.056533813" lon="-20.362699509">
<ele>71.748047</ele>
<time>2012-07-20T18:17:29Z</time>
<speed>0.010000</speed>
<extensions>
<speed>0.0</speed>
<temp>0.00</temp>
<bpm>0</bpm>
<rpm>0.00</rpm>
</extensions>
</trkpt>
<trkpt lat="64.056533813" lon="-20.362699509">
<ele>71.746094</ele>
<time>2012-07-20T18:17:34Z</time>
<speed>0.010000</speed>
<extensions>
<speed>0.0</speed>
<temp>0.00</temp>
<bpm>0</bpm>
<rpm>0.00</rpm>
</extensions>
</trkpt>
<trkpt lat="64.056533813" lon="-20.362699509">
<ele>71.732422</ele>
<time>2012-07-20T18:17:39Z</time>
<speed>0.010000</speed>
<extensions>
<speed>0.0</speed>
<temp>0.00</temp>
<bpm>0</bpm>
<rpm>0.00</rpm>
</extensions>
</trkpt>
<trkpt lat="64.056533813" lon="-20.362699509">
<ele>71.730469</ele>
<time>2012-07-20T18:17:44Z</time>
<speed>0.010000</speed>
<extensions>
<speed>0.0</speed>
<temp>0.00</temp>
<bpm>0</bpm>
<rpm>0.00</rpm>
</extensions>
</trkpt>
<trkpt lat="64.056533813" lon="-20.362699509">
<ele>71.728516</ele>
<time>2012-07-20T18:17:49Z</time>
<extensions>
<speed>0.0</speed>
<temp>0.00</temp>
<bpm>0</bpm>
<rpm>0.00</rpm>
</extensions>
</trkpt>
<trkpt lat="64.056533813" lon="-20.362699509">
<ele>71.726563</ele>
<time>2012-07-20T18:17:54Z</time>
<extensions>
<speed>0.0</speed>
<temp>0.00</temp>
<bpm>0</bpm>
<rpm>0.00</rpm>
</extensions>
</trkpt>
<trkpt lat="64.056533813" lon="-20.362699509">
<ele>71.734375</ele>
<time>2012-07-20T18:17:59Z</time>
<extensions>
<speed>0.0</speed>
<temp>0.00</temp>
<bpm>0</bpm>
<rpm>0.00</rpm>
</extensions>
</trkpt>
<trkpt lat="64.056533813" lon="-20.362699509">
<ele>71.738281</ele>
<time>2012-07-20T18:18:04Z</time>
<extensions>
<speed>0.0</speed>
<temp>0.00</temp>
<bpm>0</bpm>
<rpm>0.00</rpm>
</extensions>
</trkpt>
<trkpt lat="64.056533813" lon="-20.362699509">
<ele>71.732422</ele>
<time>2012-07-20T18:18:09Z</time>
<extensions>
<speed>0.0</speed>
<temp>0.00</temp>
<bpm>0</bpm>
<rpm>0.00</rpm>
</extensions>
</trkpt>
<trkpt lat="64.056533813" lon="-20.362699509">
<ele>71.724609</ele>
<time>2012-07-20T18:18:14Z</time>
<speed>0.010000</speed>
<extensions>
<speed>0.0</speed>
<temp>0.00</temp>
<bpm>0</bpm>
<rpm>0.00</rpm>
</extensions>
</trkpt>
<trkpt lat="64.056533813" lon="-20.362699509">
<ele>71.720703</ele>
<time>2012-07-20T18:18:19Z</time>
<extensions>
<speed>0.0</speed>
<temp>0.00</temp>
<bpm>0</bpm>
<rpm>0.00</rpm>
</extensions>
</trkpt>
<trkpt lat="64.056533813" lon="-20.362699509">
<ele>71.712891</ele>
<time>2012-07-20T18:18:24Z</time>
<extensions>
<speed>0.0</speed>
<temp>0.00</temp>
<bpm>0</bpm>
<rpm>0.00</rpm>
</extensions>
</trkpt>
<trkpt lat="64.056533813" lon="-20.362699509">
<ele>71.708984</ele>
<time>2012-07-20T18:18:29Z</time>
<extensions>
<speed>0.0</speed>
<temp>0.00</temp>
<bpm>0</bpm>
<rpm>0.00</rpm>
</extensions>
</trkpt>
<trkpt lat="64.056533813" lon="-20.362699509">
<ele>71.699219</ele>
<time>2012-07-20T18:18:34Z</time>
<extensions>
<speed>0.0</speed>
<temp>0.00</temp>
<bpm>0</bpm>
<rpm>0.00</rpm>
</extensions>
</trkpt>
<trkpt lat="64.056533813" lon="-20.362699509">
<ele>71.691406</ele>
<time>2012-07-20T18:18:39Z</time>
<extensions>
<speed>0.0</speed>
<temp>0.00</temp>
<bpm>0</bpm>
<rpm>0.00</rpm>
</extensions>
</trkpt>
<trkpt lat="64.056533813" lon="-20.362699509">
<ele>71.681641</ele>
<time>2012-07-20T18:18:44Z</time>
<speed>0.010000</speed>
<extensions>
<speed>0.0</speed>
<temp>0.00</temp>
<bpm>0</bpm>
<rpm>0.00</rpm>
</extensions>
</trkpt>
<trkpt lat="64.056533813" lon="-20.362699509">
<ele>71.675781</ele>
<time>2012-07-20T18:18:49Z</time>
<speed>0.030000</speed>
<extensions>
<speed>0.0</speed>
<temp>0.00</temp>
<bpm>0</bpm>
<rpm>0.00</rpm>
</extensions>
</trkpt>
<trkpt lat="64.056533813" lon="-20.362699509">
<ele>71.671875</ele>
<time>2012-07-20T18:18:54Z</time>
<extensions>
<speed>0.0</speed>
<temp>0.00</temp>
<bpm>0</bpm>
<rpm>0.00</rpm>
</extensions>
</trkpt>
<trkpt lat="64.056533813" lon="-20.362699509">
<ele>71.675781</ele>
<time>2012-07-20T18:18:59Z</time>
<speed>0.010000</speed>
<extensions>
<speed>0.0</speed>
<temp>0.00</temp>
<bpm>0</bpm>
<rpm>0.00</rpm>
</extensions>
</trkpt>
<trkpt lat="64.056526184" lon="-20.362709045">
<ele>71.656250</ele>
<time>2012-07-20T18:19:04Z</time>
<speed>0.700000</speed>
<extensions>
<speed>0.7</speed>
<temp>0.00</temp>
<bpm>0</bpm>
<rpm>0.00</rpm>
</extensions>
</trkpt>
<trkpt lat="64.056472778" lon="-20.362838745">
<ele>72.148438</ele>
<time>2012-07-20T18:19:09Z</time>
<speed>2.040000</speed>
<extensions>
<speed>2.0</speed>
<temp>0.00</temp>
<bpm>0</bpm>
<rpm>0.00</rpm>
</extensions>
</trkpt>
<trkpt lat="64.056419373" lon="-20.362953186">
<ele>72.134766</ele>
<time>2012-07-20T18:19:14Z</time>
<speed>1.960000</speed>
<extensions>
<speed>2.0</speed>
<temp>0.00</temp>
<bpm>0</bpm>
<rpm>0.00</rpm>
</extensions>
</trkpt>
<trkpt lat="64.056343079" lon="-20.363151550">
<ele>72.601563</ele>
<time>2012-07-20T18:19:19Z</time>
<speed>3.050000</speed>
<extensions>
<speed>3.0</speed>
<temp>0.00</temp>
<bpm>0</bpm>
<rpm>0.00</rpm>
</extensions>
</trkpt>
<trkpt lat="64.056243896" lon="-20.363395691">
<ele>72.724609</ele>
<time>2012-07-20T18:19:24Z</time>
<speed>3.280000</speed>
<extensions>
<speed>3.3</speed>
<temp>0.00</temp>
<bpm>0</bpm>
<rpm>0.00</rpm>
</extensions>
</trkpt>
<trkpt lat="64.056137085" lon="-20.363620758">
<ele>73.224609</ele>
<time>2012-07-20T18:19:29Z</time>
<speed>3.360000</speed>
<extensions>
<speed>3.4</speed>
<temp>0.00</temp>
<bpm>0</bpm>
<rpm>0.00</rpm>
</extensions>
</trkpt>
<trkpt lat="64.056030273" lon="-20.363855362">
<ele>73.515625</ele>
<time>2012-07-20T18:19:34Z</time>
<speed>2.720000</speed>
<extensions>
<speed>2.7</speed>
<temp>0.00</temp>
<bpm>0</bpm>
<rpm>0.00</rpm>
</extensions>
</trkpt>
<trkpt lat="64.055961609" lon="-20.364011765">
<ele>73.826172</ele>
<time>2012-07-20T18:19:39Z</time>
<speed>2.710000</speed>
<extensions>
<speed>2.7</speed>
<temp>0.00</temp>
<bpm>0</bpm>
<rpm>0.00</rpm>
</extensions>
</trkpt>
<trkpt lat="64.055854797" lon="-20.364236832">
<ele>74.392578</ele>
<time>2012-07-20T18:19:44Z</time>
<speed>3.620000</speed>
<extensions>
<speed>3.6</speed>
<temp>0.00</temp>
<bpm>0</bpm>
<rpm>0.00</rpm>
</extensions>
</trkpt>
<trkpt lat="64.055725098" lon="-20.364521027">
<ele>75.396484</ele>
<time>2012-07-20T18:19:49Z</time>
<speed>3.990000</speed>
<extensions>
<speed>4.0</speed>
<temp>0.00</temp>
<bpm>0</bpm>
<rpm>0.00</rpm>
</extensions>
</trkpt>
<trkpt lat="64.055618286" lon="-20.364757538">
<ele>75.281250</ele>
<time>2012-07-20T18:19:54Z</time>
<speed>3.290000</speed>
<extensions>
<speed>3.3</speed>
<temp>0.00</temp>
<bpm>0</bpm>
<rpm>0.00</rpm>
</extensions>
</trkpt>
<trkpt lat="64.055496216" lon="-20.365003586">
<ele>75.533203</ele>
<time>2012-07-20T18:19:59Z</time>
<speed>3.820000</speed>
<extensions>
<speed>3.8</speed>
<temp>0.00</temp>
<bpm>0</bpm>
<rpm>0.00</rpm>
</extensions>
</trkpt>
<trkpt lat="64.055366516" lon="-20.365297318">
<ele>75.644531</ele>
<time>2012-07-20T18:20:04Z</time>
<speed>4.170000</speed>
<extensions>
<speed>4.2</speed>
<temp>0.00</temp>
<bpm>0</bpm>
<rpm>0.00</rpm>
</extensions>
</trkpt>
<trkpt lat="64.055252075" lon="-20.365556717">
<ele>75.804688</ele>
<time>2012-07-20T18:20:09Z</time>
<speed>3.190000</speed>
<extensions>
<speed>3.2</speed>
<temp>0.00</temp>
<bpm>0</bpm>
<rpm>0.00</rpm>
</extensions>
</trkpt>
<trkpt lat="64.055130005" lon="-20.365812302">
<ele>76.105469</ele>
<time>2012-07-20T18:20:14Z</time>
<speed>3.980000</speed>
<extensions>
<speed>4.0</speed>
<temp>0.00</temp>
<bpm>0</bpm>
<rpm>0.00</rpm>
</extensions>
</trkpt>
<trkpt lat="64.054992676" lon="-20.366134644">
<ele>76.255859</ele>
<time>2012-07-20T18:20:19Z</time>
<speed>4.670000</speed>
<extensions>
<speed>4.7</speed>
<temp>0.00</temp>
<bpm>0</bpm>
<rpm>0.00</rpm>
</extensions>
</trkpt>
<trkpt lat="64.054870605" lon="-20.366451263">
<ele>76.841797</ele>
<time>2012-07-20T18:20:24Z</time>
<speed>3.570000</speed>
<extensions>
<speed>3.6</speed>
<temp>0.00</temp>
<bpm>0</bpm>
<rpm>0.00</rpm>
</extensions>
</trkpt>
<trkpt lat="64.054779053" lon="-20.366662979">
<ele>77.207031</ele>
<time>2012-07-20T18:20:29Z</time>
<speed>2.730000</speed>
<extensions>
<speed>2.7</speed>
<temp>0.00</temp>
<bpm>0</bpm>
<rpm>0.00</rpm>
</extensions>
</trkpt>
<trkpt lat="64.054695129" lon="-20.366920471">
<ele>77.640625</ele>
<time>2012-07-20T18:20:34Z</time>
<speed>3.600000</speed>
<extensions>
<speed>3.6</speed>
<temp>0.00</temp>
<bpm>0</bpm>
<rpm>0.00</rpm>
</extensions>
</trkpt>
<trkpt lat="64.054588318" lon="-20.367227554">
<ele>78.179688</ele>
<time>2012-07-20T18:20:39Z</time>
<speed>4.050000</speed>
<extensions>
<speed>4.0</speed>
<temp>0.00</temp>
<bpm>0</bpm>
<rpm>0.00</rpm>
</extensions>
</trkpt>
<trkpt lat="64.054489136" lon="-20.367561340">
<ele>79.152344</ele>
<time>2012-07-20T18:20:44Z</time>
<speed>3.360000</speed>
<extensions>
<speed>3.4</speed>
<temp>0.00</temp>
<bpm>0</bpm>
<rpm>0.00</rpm>
</extensions>
</trkpt>
<trkpt lat="64.054405212" lon="-20.367856979">
<ele>79.880859</ele>
<time>2012-07-20T18:20:49Z</time>
<speed>3.980000</speed>
<extensions>
<speed>4.0</speed>
<temp>0.00</temp>
<bpm>0</bpm>
<rpm>0.00</rpm>
</extensions>
</trkpt>
<trkpt lat="64.054298401" lon="-20.368211746">
<ele>79.125000</ele>
<time>2012-07-20T18:20:54Z</time>
<speed>4.390000</speed>
<extensions>
<speed>4.4</speed>
<temp>0.00</temp>
<bpm>0</bpm>
<rpm>0.00</rpm>
</extensions>
</trkpt>
<trkpt lat="64.054191589" lon="-20.368623734">
<ele>79.171875</ele>
<time>2012-07-20T18:20:59Z</time>
<speed>4.660000</speed>
<extensions>
<speed>4.7</speed>
<temp>0.00</temp>
<bpm>0</bpm>
<rpm>0.00</rpm>
</extensions>
</trkpt>
<trkpt lat="64.054115295" lon="-20.368982315">
<ele>79.269531</ele>
<time>2012-07-20T18:21:04Z</time>
<speed>3.250000</speed>
<extensions>
<speed>3.2</speed>
<temp>0.00</temp>
<bpm>0</bpm>
<rpm>0.00</rpm>
</extensions>
</trkpt>
<trkpt lat="64.054054260" lon="-20.369272232">
<ele>79.128906</ele>
<time>2012-07-20T18:21:09Z</time>
<speed>3.640000</speed>
<extensions>
<speed>3.6</speed>
<temp>0.00</temp>
<bpm>0</bpm>
<rpm>0.00</rpm>
</extensions>
</trkpt>
<trkpt lat="64.053970337" lon="-20.369647980">
<ele>78.900391</ele>
<time>2012-07-20T18:21:14Z</time>
<speed>4.310000</speed>
<extensions>
<speed>4.3</speed>
<temp>0.00</temp>
<bpm>0</bpm>
<rpm>0.00</rpm>
</extensions>
</trkpt>
<trkpt lat="64.053886414" lon="-20.370069504">
<ele>79.216797</ele>
<time>2012-07-20T18:21:19Z</time>
<speed>4.380000</speed>
<extensions>
<speed>4.4</speed>
<temp>0.00</temp>
<bpm>0</bpm>
<rpm>0.00</rpm>
</extensions>
</trkpt>
<trkpt lat="64.053825378" lon="-20.370435715">
<ele>79.310547</ele>
<time>2012-07-20T18:21:24Z</time>
<speed>3.660000</speed>
<extensions>
<speed>3.7</speed>
<temp>0.00</temp>
<bpm>0</bpm>
<rpm>0.00</rpm>
</extensions>
</trkpt>
<trkpt lat="64.053756714" lon="-20.370777130">
<ele>79.451172</ele>
<time>2012-07-20T18:21:29Z</time>
<speed>3.530000</speed>
<extensions>
<speed>3.5</speed>
<temp>0.00</temp>
<bpm>0</bpm>
<rpm>0.00</rpm>
</extensions>
</trkpt>
<trkpt lat="64.053695679" lon="-20.371141434">
<ele>79.666016</ele>
<time>2012-07-20T18:21:34Z</time>
<speed>4.030000</speed>
<extensions>
<speed>4.0</speed>
<temp>0.00</temp>
<bpm>0</bpm>
<rpm>0.00</rpm>
</extensions>
</trkpt>
<trkpt lat="64.053627014" lon="-20.371530533">
<ele>79.767578</ele>
<time>2012-07-20T18:21:39Z</time>
<speed>4.170000</speed>
<extensions>
<speed>4.2</speed>
<temp>0.00</temp>
<bpm>0</bpm>
<rpm>0.00</rpm>
</extensions>
</trkpt>
<trkpt lat="64.053573608" lon="-20.371881485">
<ele>79.539063</ele>
<time>2012-07-20T18:21:44Z</time>
<speed>2.990000</speed>
<extensions>
<speed>3.0</speed>
<temp>0.00</temp>
<bpm>0</bpm>
<rpm>0.00</rpm>
</extensions>
</trkpt>
<trkpt lat="64.053527832" lon="-20.372112274">
<ele>79.314453</ele>
<time>2012-07-20T18:21:49Z</time>
<speed>2.350000</speed>
<extensions>
<speed>2.4</speed>
<temp>0.00</temp>
<bpm>0</bpm>
<rpm>0.00</rpm>
</extensions>
</trkpt>
<trkpt lat="64.053474426" lon="-20.372402191">
<ele>79.902344</ele>
<time>2012-07-20T18:21:54Z</time>
<speed>3.560000</speed>
<extensions>
<speed>3.6</speed>
<temp>0.00</temp>
<bpm>0</bpm>
<rpm>0.00</rpm>
</extensions>
</trkpt>
<trkpt lat="64.053405762" lon="-20.372779846">
<ele>79.984375</ele>
<time>2012-07-20T18:21:59Z</time>
<speed>4.200000</speed>
<extensions>
<speed>4.2</speed>
<temp>0.00</temp>
<bpm>0</bpm>
<rpm>0.00</rpm>
</extensions>
</trkpt>
<trkpt lat="64.053344727" lon="-20.373174667">
<ele>80.751953</ele>
<time>2012-07-20T18:22:04Z</time>
<speed>4.330000</speed>
<extensions>
<speed>4.3</speed>
<temp>0.00</temp>
<bpm>0</bpm>
<rpm>0.00</rpm>
</extensions>
</trkpt>
<trkpt lat="64.053276062" lon="-20.373601913">
<ele>80.115234</ele>
<time>2012-07-20T18:22:09Z</time>
<speed>4.170000</speed>
<extensions>
<speed>4.2</speed>
<temp>0.00</temp>
<bpm>0</bpm>
<rpm>0.00</rpm>
</extensions>
</trkpt>
<trkpt lat="64.053215027" lon="-20.373958588">
<ele>79.808594</ele>
<time>2012-07-20T18:22:14Z</time>
<speed>3.880000</speed>
<extensions>
<speed>3.9</speed>
<temp>0.00</temp>
<bpm>0</bpm>
<rpm>0.00</rpm>
</extensions>
</trkpt>
<trkpt lat="64.053138733" lon="-20.374349594">
<ele>79.734375</ele>
<time>2012-07-20T18:22:19Z</time>
<speed>4.180000</speed>
<extensions>
<speed>4.2</speed>
<temp>0.00</temp>
<bpm>0</bpm>
<rpm>0.00</rpm>
</extensions>
</trkpt>
<trkpt lat="64.053085327" lon="-20.374689102">
<ele>80.394531</ele>
<time>2012-07-20T18:22:24Z</time>
<speed>3.050000</speed>
<extensions>
<speed>3.0</speed>
<temp>0.00</temp>
<bpm>0</bpm>
<rpm>0.00</rpm>
</extensions>
</trkpt>
<trkpt lat="64.053031921" lon="-20.375001907">
<ele>79.359375</ele>
<time>2012-07-20T18:22:29Z</time>
<speed>3.730000</speed>
<extensions>
<speed>3.7</speed>
<temp>0.00</temp>
<bpm>0</bpm>
<rpm>0.00</rpm>
</extensions>
</trkpt>
<trkpt lat="64.052970886" lon="-20.375368118">
<ele>79.039063</ele>
<time>2012-07-20T18:22:34Z</time>
<speed>3.450000</speed>
<extensions>
<speed>3.5</speed>
<temp>0.00</temp>
<bpm>0</bpm>
<rpm>0.00</rpm>
</extensions>
</trkpt>
<trkpt lat="64.052902222" lon="-20.375709534">
<ele>78.839844</ele>
<time>2012-07-20T18:22:39Z</time>
<speed>4.010000</speed>
<extensions>
<speed>4.0</speed>
<temp>0.00</temp>
<bpm>0</bpm>
<rpm>0.00</rpm>
</extensions>
</trkpt>
<trkpt lat="64.052833557" lon="-20.376100540">
<ele>78.687500</ele>
<time>2012-07-20T18:22:44Z</time>
<speed>3.990000</speed>
<extensions>
<speed>4.0</speed>
<temp>0.00</temp>
<bpm>0</bpm>
<rpm>0.00</rpm>
</extensions>
</trkpt>
<trkpt lat="64.052772522" lon="-20.376447678">
<ele>78.251953</ele>
<time>2012-07-20T18:22:49Z</time>
<speed>3.880000</speed>
<extensions>
<speed>3.9</speed>
<temp>0.00</temp>
<bpm>0</bpm>
<rpm>0.00</rpm>
</extensions>
</trkpt>
<trkpt lat="64.052711487" lon="-20.376825333">
<ele>78.431641</ele>
<time>2012-07-20T18:22:54Z</time>
<speed>3.750000</speed>
<extensions>
<speed>3.8</speed>
<temp>0.00</temp>
<bpm>0</bpm>
<rpm>0.00</rpm>
</extensions>
</trkpt>
<trkpt lat="64.052642822" lon="-20.377193451">
<ele>78.802734</ele>
<time>2012-07-20T18:22:59Z</time>
<speed>4.110000</speed>
<extensions>
<speed>4.1</speed>
<temp>0.00</temp>
<bpm>0</bpm>
<rpm>0.00</rpm>
</extensions>
</trkpt>
<trkpt lat="64.052566528" lon="-20.377584457">
<ele>78.296875</ele>
<time>2012-07-20T18:23:04Z</time>
<speed>4.330000</speed>
<extensions>
<speed>4.3</speed>
<temp>0.00</temp>
<bpm>0</bpm>
<rpm>0.00</rpm>
</extensions>
</trkpt>
<trkpt lat="64.052490234" lon="-20.377996445">
<ele>77.982422</ele>
<time>2012-07-20T18:23:09Z</time>
<speed>3.990000</speed>
<extensions>
<speed>4.0</speed>
<temp>0.00</temp>
<bpm>0</bpm>
<rpm>0.00</rpm>
</extensions>
</trkpt>
<trkpt lat="64.052429199" lon="-20.378343582">
<ele>77.888672</ele>
<time>2012-07-20T18:23:14Z</time>
<speed>3.820000</speed>
<extensions>
<speed>3.8</speed>
<temp>0.00</temp>
<bpm>0</bpm>
<rpm>0.00</rpm>
</extensions>
</trkpt>
<trkpt lat="64.052368164" lon="-20.378732681">
<ele>78.251953</ele>
<time>2012-07-20T18:23:19Z</time>
<speed>4.230000</speed>
<extensions>
<speed>4.2</speed>
<temp>0.00</temp>
<bpm>0</bpm>
<rpm>0.00</rpm>
</extensions>
</trkpt>
<trkpt lat="64.052291870" lon="-20.379158020">
<ele>78.296875</ele>
<time>2012-07-20T18:23:24Z</time>
<speed>4.510000</speed>
<extensions>
<speed>4.5</speed>
<temp>0.00</temp>
<bpm>0</bpm>
<rpm>0.00</rpm>
</extensions>
</trkpt>
<trkpt lat="64.052230835" lon="-20.379550934">
<ele>78.125000</ele>
<time>2012-07-20T18:23:29Z</time>
<speed>3.660000</speed>
<extensions>
<speed>3.7</speed>
<temp>0.00</temp>
<bpm>0</bpm>
<rpm>0.00</rpm>
</extensions>
</trkpt>
<trkpt lat="64.052169800" lon="-20.379873276">
<ele>78.814453</ele>
<time>2012-07-20T18:23:34Z</time>
<speed>3.490000</speed>
<extensions>
<speed>3.5</speed>
<temp>0.00</temp>
<bpm>0</bpm>
<rpm>0.00</rpm>
</extensions>
</trkpt>
<trkpt lat="64.052101135" lon="-20.380235672">
<ele>78.789063</ele>
<time>2012-07-20T18:23:39Z</time>
<speed>3.860000</speed>
<extensions>
<speed>3.9</speed>
<temp>0.00</temp>
<bpm>0</bpm>
<rpm>0.00</rpm>
</extensions>
</trkpt>
<trkpt lat="64.052032471" lon="-20.380603790">
<ele>78.289063</ele>
<time>2012-07-20T18:23:44Z</time>
<speed>3.920000</speed>
<extensions>
<speed>3.9</speed>
<temp>0.00</temp>
<bpm>0</bpm>
<rpm>0.00</rpm>
</extensions>
</trkpt>
<trkpt lat="64.051979065" lon="-20.380931854">
<ele>77.316406</ele>
<time>2012-07-20T18:23:49Z</time>
<speed>2.950000</speed>
<extensions>
<speed>2.9</speed>
<temp>0.00</temp>
<bpm>0</bpm>
<rpm>0.00</rpm>
</extensions>
</trkpt>
<trkpt lat="64.051933289" lon="-20.381208420">
<ele>77.296875</ele>
<time>2012-07-20T18:23:54Z</time>
<speed>3.220000</speed>
<extensions>
<speed>3.2</speed>
<temp>0.00</temp>
<bpm>0</bpm>
<rpm>0.00</rpm>
</extensions>
</trkpt>
<trkpt lat="64.051872253" lon="-20.381555557">
<ele>77.324219</ele>
<time>2012-07-20T18:23:59Z</time>
<speed>3.770000</speed>
<extensions>
<speed>3.8</speed>
<temp>0.00</temp>
<bpm>0</bpm>
<rpm>0.00</rpm>
</extensions>
</trkpt>
<trkpt lat="64.051818848" lon="-20.381900787">
<ele>77.304688</ele>
<time>2012-07-20T18:24:04Z</time>
<speed>3.090000</speed>
<extensions>
<speed>3.1</speed>
<temp>0.00</temp>
<bpm>0</bpm>
<rpm>0.00</rpm>
</extensions>
</trkpt>
<trkpt lat="64.051773071" lon="-20.382167816">
<ele>78.154297</ele>
<time>2012-07-20T18:24:09Z</time>
<speed>3.190000</speed>
<extensions>
<speed>3.2</speed>
<temp>0.00</temp>
<bpm>0</bpm>
<rpm>0.00</rpm>
</extensions>
</trkpt>
<trkpt lat="64.051712036" lon="-20.382495880">
<ele>79.089844</ele>
<time>2012-07-20T18:24:14Z</time>
<speed>3.670000</speed>
<extensions>
<speed>3.7</speed>
<temp>0.00</temp>
<bpm>0</bpm>
<rpm>0.00</rpm>
</extensions>
</trkpt>
<trkpt lat="64.051658630" lon="-20.382835388">
<ele>80.001953</ele>
<time>2012-07-20T18:24:19Z</time>
<speed>3.010000</speed>
<extensions>
<speed>3.0</speed>
<temp>0.00</temp>
<bpm>0</bpm>
<rpm>0.00</rpm>
</extensions>
</trkpt>
<trkpt lat="64.051605225" lon="-20.383089066">
<ele>78.990234</ele>
<time>2012-07-20T18:24:24Z</time>
<speed>3.110000</speed>
<extensions>
<speed>3.1</speed>
<temp>0.00</temp>
<bpm>0</bpm>
<rpm>0.00</rpm>
</extensions>
</trkpt>
<trkpt lat="64.051544189" lon="-20.383419037">
<ele>79.068359</ele>
<time>2012-07-20T18:24:29Z</time>
<speed>3.810000</speed>
<extensions>
<speed>3.8</speed>
<temp>0.00</temp>
<bpm>0</bpm>
<rpm>0.00</rpm>
</extensions>
</trkpt>
<trkpt lat="64.051490784" lon="-20.383737564">
<ele>78.212891</ele>
<time>2012-07-20T18:24:34Z</time>
<speed>2.660000</speed>
<extensions>
<speed>2.7</speed>
<temp>0.00</temp>
<bpm>0</bpm>
<rpm>0.00</rpm>
</extensions>
</trkpt>
<trkpt lat="64.051460266" lon="-20.383941650">
<ele>79.640625</ele>
<time>2012-07-20T18:24:39Z</time>
<speed>2.000000</speed>
<extensions>
<speed>2.0</speed>
<temp>0.00</temp>
<bpm>0</bpm>
<rpm>0.00</rpm>
</extensions>
</trkpt>
<trkpt lat="64.051422119" lon="-20.384170532">
<ele>79.574219</ele>
<time>2012-07-20T18:24:44Z</time>
<speed>2.530000</speed>
<extensions>
<speed>2.5</speed>
<temp>0.00</temp>
<bpm>0</bpm>
<rpm>0.00</rpm>
</extensions>
</trkpt>
<trkpt lat="64.051368713" lon="-20.384466171">
<ele>80.197266</ele>
<time>2012-07-20T18:24:49Z</time>
<speed>3.420000</speed>
<extensions>
<speed>3.4</speed>
<temp>0.00</temp>
<bpm>0</bpm>
<rpm>0.00</rpm>
</extensions>
</trkpt>
<trkpt lat="64.051307678" lon="-20.384805679">
<ele>81.214844</ele>
<time>2012-07-20T18:24:54Z</time>
<speed>3.920000</speed>
<extensions>
<speed>3.9</speed>
<temp>0.00</temp>
<bpm>0</bpm>
<rpm>0.00</rpm>
</extensions>
</trkpt>
<trkpt lat="64.051239014" lon="-20.385183334">
<ele>81.234375</ele>
<time>2012-07-20T18:24:59Z</time>
<speed>3.980000</speed>
<extensions>
<speed>4.0</speed>
<temp>0.00</temp>
<bpm>0</bpm>
<rpm>0.00</rpm>
</extensions>
</trkpt>
<trkpt lat="64.051177979" lon="-20.385547638">
<ele>79.458984</ele>
<time>2012-07-20T18:25:04Z</time>
<speed>3.450000</speed>
<extensions>
<speed>3.5</speed>
<temp>0.00</temp>
<bpm>0</bpm>
<rpm>0.00</rpm>
</extensions>
</trkpt>
<trkpt lat="64.051109314" lon="-20.385877609">
<ele>78.693359</ele>
<time>2012-07-20T18:25:09Z</time>
<speed>3.960000</speed>
<extensions>
<speed>4.0</speed>
<temp>0.00</temp>
<bpm>0</bpm>
<rpm>0.00</rpm>
</extensions>
</trkpt>
<trkpt lat="64.051048279" lon="-20.386259079">
<ele>77.335938</ele>
<time>2012-07-20T18:25:14Z</time>
<speed>4.020000</speed>
<extensions>
<speed>4.0</speed>
<temp>0.00</temp>
<bpm>0</bpm>
<rpm>0.00</rpm>
</extensions>
</trkpt>
<trkpt lat="64.050987244" lon="-20.386613846">
<ele>77.560547</ele>
<time>2012-07-20T18:25:19Z</time>
<speed>3.080000</speed>
<extensions>
<speed>3.1</speed>
<temp>0.00</temp>
<bpm>0</bpm>
<rpm>0.00</rpm>
</extensions>
</trkpt>
<trkpt lat="64.050933838" lon="-20.386877060">
<ele>77.117188</ele>
<time>2012-07-20T18:25:24Z</time>
<speed>3.050000</speed>
<extensions>
<speed>3.0</speed>
<temp>0.00</temp>
<bpm>0</bpm>
<rpm>0.00</rpm>
</extensions>
</trkpt>
<trkpt lat="64.050895691" lon="-20.387172699">
<ele>77.615234</ele>
<time>2012-07-20T18:25:29Z</time>
<speed>2.710000</speed>
<extensions>
<speed>2.7</speed>
<temp>0.00</temp>
<bpm>0</bpm>
<rpm>0.00</rpm>
</extensions>
</trkpt>
<trkpt lat="64.050849915" lon="-20.387426376">
<ele>77.486328</ele>
<time>2012-07-20T18:25:34Z</time>
<speed>2.990000</speed>
<extensions>
<speed>3.0</speed>
<temp>0.00</temp>
<bpm>0</bpm>
<rpm>0.00</rpm>
</extensions>
</trkpt>
<trkpt lat="64.050781250" lon="-20.387739182">
<ele>76.296875</ele>
<time>2012-07-20T18:25:39Z</time>
<speed>4.040000</speed>
<extensions>
<speed>4.0</speed>
<temp>0.00</temp>
<bpm>0</bpm>
<rpm>0.00</rpm>
</extensions>
</trkpt>
<trkpt lat="64.050720215" lon="-20.388061523">
<ele>74.558594</ele>
<time>2012-07-20T18:25:44Z</time>
<speed>2.430000</speed>
<extensions>
<speed>2.4</speed>
<temp>0.00</temp>
<bpm>0</bpm>
<rpm>0.00</rpm>
</extensions>
</trkpt>
<trkpt lat="64.050720215" lon="-20.388099670">
<ele>74.447266</ele>
<time>2012-07-20T18:25:49Z</time>
<speed>0.150000</speed>
<extensions>
<speed>0.2</speed>
<temp>0.00</temp>
<bpm>0</bpm>
<rpm>0.00</rpm>
</extensions>
</trkpt>
<trkpt lat="64.050704956" lon="-20.388202667">
<ele>74.267578</ele>
<time>2012-07-20T18:25:54Z</time>
<speed>1.100000</speed>
<extensions>
<speed>1.1</speed>
<temp>0.00</temp>
<bpm>0</bpm>
<rpm>0.00</rpm>
</extensions>
</trkpt>
<trkpt lat="64.050697327" lon="-20.388240814">
<ele>75.894531</ele>
<time>2012-07-20T18:25:59Z</time>
<speed>0.010000</speed>
<extensions>
<speed>0.0</speed>
<temp>0.00</temp>
<bpm>0</bpm>
<rpm>0.00</rpm>
</extensions>
</trkpt>
<trkpt lat="64.050704956" lon="-20.388238907">
<ele>76.228516</ele>
<time>2012-07-20T18:26:04Z</time>
<speed>0.010000</speed>
<extensions>
<speed>0.0</speed>
<temp>0.00</temp>
<bpm>0</bpm>
<rpm>0.00</rpm>
</extensions>
</trkpt>
<trkpt lat="64.050704956" lon="-20.388237000">
<ele>76.240234</ele>
<time>2012-07-20T18:26:09Z</time>
<speed>0.280000</speed>
<extensions>
<speed>0.3</speed>
<temp>0.00</temp>
<bpm>0</bpm>
<rpm>0.00</rpm>
</extensions>
</trkpt>
<trkpt lat="64.050704956" lon="-20.388238907">
<ele>76.232422</ele>
<time>2012-07-20T18:26:14Z</time>
<extensions>
<speed>0.0</speed>
<temp>0.00</temp>
<bpm>0</bpm>
<rpm>0.00</rpm>
</extensions>
</trkpt>
<trkpt lat="64.050704956" lon="-20.388238907">
<ele>76.228516</ele>
<time>2012-07-20T18:26:19Z</time>
<speed>0.010000</speed>
<extensions>
<speed>0.0</speed>
<temp>0.00</temp>
<bpm>0</bpm>
<rpm>0.00</rpm>
</extensions>
</trkpt>
<trkpt lat="64.050704956" lon="-20.388238907">
<ele>76.216797</ele>
<time>2012-07-20T18:26:24Z</time>
<extensions>
<speed>0.0</speed>
<temp>0.00</temp>
<bpm>0</bpm>
<rpm>0.00</rpm>
</extensions>
</trkpt>
<trkpt lat="64.050704956" lon="-20.388238907">
<ele>76.214844</ele>
<time>2012-07-20T18:26:29Z</time>
<extensions>
<speed>0.0</speed>
<temp>0.00</temp>
<bpm>0</bpm>
<rpm>0.00</rpm>
</extensions>
</trkpt>
<trkpt lat="64.050704956" lon="-20.388238907">
<ele>76.228516</ele>
<time>2012-07-20T18:26:34Z</time>
<speed>0.020000</speed>
<extensions>
<speed>0.0</speed>
<temp>0.00</temp>
<bpm>0</bpm>
<rpm>0.00</rpm>
</extensions>
</trkpt>
<trkpt lat="64.050704956" lon="-20.388238907">
<ele>76.244141</ele>
<time>2012-07-20T18:26:39Z</time>
<speed>0.010000</speed>
<extensions>
<speed>0.0</speed>
<temp>0.00</temp>
<bpm>0</bpm>
<rpm>0.00</rpm>
</extensions>
</trkpt>
<trkpt lat="64.050704956" lon="-20.388244629">
<ele>76.205078</ele>
<time>2012-07-20T18:26:44Z</time>
<speed>1.420000</speed>
<extensions>
<speed>1.4</speed>
<temp>0.00</temp>
<bpm>0</bpm>
<rpm>0.00</rpm>
</extensions>
</trkpt>
<trkpt lat="64.050651550" lon="-20.388500214">
<ele>76.066406</ele>
<time>2012-07-20T18:26:49Z</time>
<speed>3.550000</speed>
<extensions>
<speed>3.5</speed>
<temp>0.00</temp>
<bpm>0</bpm>
<rpm>0.00</rpm>
</extensions>
</trkpt>
<trkpt lat="64.050590515" lon="-20.388916016">
<ele>75.941406</ele>
<time>2012-07-20T18:26:54Z</time>
<speed>4.490000</speed>
<extensions>
<speed>4.5</speed>
<temp>0.00</temp>
<bpm>0</bpm>
<rpm>0.00</rpm>
</extensions>
</trkpt>
<trkpt lat="64.050521851" lon="-20.389328003">
<ele>77.515625</ele>
<time>2012-07-20T18:26:59Z</time>
<speed>4.170000</speed>
<extensions>
<speed>4.2</speed>
<temp>0.00</temp>
<bpm>0</bpm>
<rpm>0.00</rpm>
</extensions>
</trkpt>
<trkpt lat="64.050453186" lon="-20.389717102">
<ele>77.367188</ele>
<time>2012-07-20T18:27:04Z</time>
<speed>3.920000</speed>
<extensions>
<speed>3.9</speed>
<temp>0.00</temp>
<bpm>0</bpm>
<rpm>0.00</rpm>
</extensions>
</trkpt>
<trkpt lat="64.050399780" lon="-20.390077591">
<ele>78.884766</ele>
<time>2012-07-20T18:27:09Z</time>
<speed>3.840000</speed>
<extensions>
<speed>3.8</speed>
<temp>0.00</temp>
<bpm>0</bpm>
<rpm>0.00</rpm>
</extensions>
</trkpt>
<trkpt lat="64.050331116" lon="-20.390474319">
<ele>78.699219</ele>
<time>2012-07-20T18:27:14Z</time>
<speed>4.190000</speed>
<extensions>
<speed>4.2</speed>
<temp>0.00</temp>
<bpm>0</bpm>
<rpm>0.00</rpm>
</extensions>
</trkpt>
<trkpt lat="64.050254822" lon="-20.390829086">
<ele>78.677734</ele>
<time>2012-07-20T18:27:19Z</time>
<speed>3.590000</speed>
<extensions>
<speed>3.6</speed>
<temp>0.00</temp>
<bpm>0</bpm>
<rpm>0.00</rpm>
</extensions>
</trkpt>
<trkpt lat="64.050178528" lon="-20.391178131">
<ele>78.716797</ele>
<time>2012-07-20T18:27:24Z</time>
<speed>4.120000</speed>
<extensions>
<speed>4.1</speed>
<temp>0.00</temp>
<bpm>0</bpm>
<rpm>0.00</rpm>
</extensions>
</trkpt>
<trkpt lat="64.050125122" lon="-20.391540527">
<ele>78.783203</ele>
<time>2012-07-20T18:27:29Z</time>
<speed>3.110000</speed>
<extensions>
<speed>3.1</speed>
<temp>0.00</temp>
<bpm>0</bpm>
<rpm>0.00</rpm>
</extensions>
</trkpt>
<trkpt lat="64.050071716" lon="-20.391843796">
<ele>78.583984</ele>
<time>2012-07-20T18:27:34Z</time>
<speed>3.520000</speed>
<extensions>
<speed>3.5</speed>
<temp>0.00</temp>
<bpm>0</bpm>
<rpm>0.00</rpm>
</extensions>
</trkpt>
<trkpt lat="64.050003052" lon="-20.392219543">
<ele>79.248047</ele>
<time>2012-07-20T18:27:39Z</time>
<speed>4.220000</speed>
<extensions>
<speed>4.2</speed>
<temp>0.00</temp>
<bpm>0</bpm>
<rpm>0.00</rpm>
</extensions>
</trkpt>
<trkpt lat="64.049926758" lon="-20.392641068">
<ele>80.093750</ele>
<time>2012-07-20T18:27:44Z</time>
<speed>4.350000</speed>
<extensions>
<speed>4.3</speed>
<temp>0.00</temp>
<bpm>0</bpm>
<rpm>0.00</rpm>
</extensions>
</trkpt>
<trkpt lat="64.049858093" lon="-20.393056870">
<ele>81.144531</ele>
<time>2012-07-20T18:27:49Z</time>
<speed>4.310000</speed>
<extensions>
<speed>4.3</speed>
<temp>0.00</temp>
<bpm>0</bpm>
<rpm>0.00</rpm>
</extensions>
</trkpt>
<trkpt lat="64.049789429" lon="-20.393466949">
<ele>81.251953</ele>
<time>2012-07-20T18:27:54Z</time>
<speed>4.210000</speed>
<extensions>
<speed>4.2</speed>
<temp>0.00</temp>
<bpm>0</bpm>
<rpm>0.00</rpm>
</extensions>
</trkpt>
<trkpt lat="64.049720764" lon="-20.393850327">
<ele>81.560547</ele>
<time>2012-07-20T18:27:59Z</time>
<speed>4.430000</speed>
<extensions>
<speed>4.4</speed>
<temp>0.00</temp>
<bpm>0</bpm>
<rpm>0.00</rpm>
</extensions>
</trkpt>
<trkpt lat="64.049644470" lon="-20.394279480">
<ele>81.583984</ele>
<time>2012-07-20T18:28:04Z</time>
<speed>4.310000</speed>
<extensions>
<speed>4.3</speed>
<temp>0.00</temp>
<bpm>0</bpm>
<rpm>0.00</rpm>
</extensions>
</trkpt>
<trkpt lat="64.049591064" lon="-20.394624710">
<ele>80.498047</ele>
<time>2012-07-20T18:28:09Z</time>
<speed>2.840000</speed>
<extensions>
<speed>2.8</speed>
<temp>0.00</temp>
<bpm>0</bpm>
<rpm>0.00</rpm>
</extensions>
</trkpt>
<trkpt lat="64.049522400" lon="-20.394964218">
<ele>76.060547</ele>
<time>2012-07-20T18:28:14Z</time>
<speed>3.880000</speed>
<extensions>
<speed>3.9</speed>
<temp>0.00</temp>
<bpm>0</bpm>
<rpm>0.00</rpm>
</extensions>
</trkpt>
<trkpt lat="64.049461365" lon="-20.395311356">
<ele>75.875000</ele>
<time>2012-07-20T18:28:19Z</time>
<speed>3.750000</speed>
<extensions>
<speed>3.8</speed>
<temp>0.00</temp>
<bpm>0</bpm>
<rpm>0.00</rpm>
</extensions>
</trkpt>
<trkpt lat="64.049400330" lon="-20.395675659">
<ele>76.294922</ele>
<time>2012-07-20T18:28:24Z</time>
<speed>3.950000</speed>
<extensions>
<speed>4.0</speed>
<temp>0.00</temp>
<bpm>0</bpm>
<rpm>0.00</rpm>
</extensions>
</trkpt>
<trkpt lat="64.049324036" lon="-20.396047592">
<ele>79.373047</ele>
<time>2012-07-20T18:28:29Z</time>
<speed>3.450000</speed>
<extensions>
<speed>3.5</speed>
<temp>0.00</temp>
<bpm>0</bpm>
<rpm>0.00</rpm>
</extensions>
</trkpt>
<trkpt lat="64.049263000" lon="-20.396429062">
<ele>81.220703</ele>
<time>2012-07-20T18:28:34Z</time>
<speed>4.130000</speed>
<extensions>
<speed>4.1</speed>
<temp>0.00</temp>
<bpm>0</bpm>
<rpm>0.00</rpm>
</extensions>
</trkpt>
<trkpt lat="64.049194336" lon="-20.396827698">
<ele>81.998047</ele>
<time>2012-07-20T18:28:39Z</time>
<speed>4.040000</speed>
<extensions>
<speed>4.0</speed>
<temp>0.00</temp>
<bpm>0</bpm>
<rpm>0.00</rpm>
</extensions>
</trkpt>
<trkpt lat="64.049125671" lon="-20.397235870">
<ele>80.824219</ele>
<time>2012-07-20T18:28:44Z</time>
<speed>4.420000</speed>
<extensions>
<speed>4.4</speed>
<temp>0.00</temp>
<bpm>0</bpm>
<rpm>0.00</rpm>
</extensions>
</trkpt>
<trkpt lat="64.049049377" lon="-20.397663116">
<ele>81.195313</ele>
<time>2012-07-20T18:28:49Z</time>
<speed>4.670000</speed>
<extensions>
<speed>4.7</speed>
<temp>0.00</temp>
<bpm>0</bpm>
<rpm>0.00</rpm>
</extensions>
</trkpt>
<trkpt lat="64.048973083" lon="-20.398105621">
<ele>81.308594</ele>
<time>2012-07-20T18:28:54Z</time>
<speed>4.640000</speed>
<extensions>
<speed>4.6</speed>
<temp>0.00</temp>
<bpm>0</bpm>
<rpm>0.00</rpm>
</extensions>
</trkpt>
<trkpt lat="64.048912048" lon="-20.398492813">
<ele>80.042969</ele>
<time>2012-07-20T18:28:59Z</time>
<speed>3.380000</speed>
<extensions>
<speed>3.4</speed>
<temp>0.00</temp>
<bpm>0</bpm>
<rpm>0.00</rpm>
</extensions>
</trkpt>
<trkpt lat="64.048866272" lon="-20.398773193">
<ele>80.767578</ele>
<time>2012-07-20T18:29:04Z</time>
<speed>3.090000</speed>
<extensions>
<speed>3.1</speed>
<temp>0.00</temp>
<bpm>0</bpm>
<rpm>0.00</rpm>
</extensions>
</trkpt>
<trkpt lat="64.048805237" lon="-20.399072647">
<ele>80.816406</ele>
<time>2012-07-20T18:29:09Z</time>
<speed>3.330000</speed>
<extensions>
<speed>3.3</speed>
<temp>0.00</temp>
<bpm>0</bpm>
<rpm>0.00</rpm>
</extensions>
</trkpt>
<trkpt lat="64.048751831" lon="-20.399415970">
<ele>79.679688</ele>
<time>2012-07-20T18:29:14Z</time>
<speed>3.700000</speed>
<extensions>
<speed>3.7</speed>
<temp>0.00</temp>
<bpm>0</bpm>
<rpm>0.00</rpm>
</extensions>
</trkpt>
<trkpt lat="64.048683167" lon="-20.399784088">
<ele>79.085938</ele>
<time>2012-07-20T18:29:19Z</time>
<speed>4.030000</speed>
<extensions>
<speed>4.0</speed>
<temp>0.00</temp>
<bpm>0</bpm>
<rpm>0.00</rpm>
</extensions>
</trkpt>
<trkpt lat="64.048614502" lon="-20.400196075">
<ele>79.443359</ele>
<time>2012-07-20T18:29:24Z</time>
<speed>4.310000</speed>
<extensions>
<speed>4.3</speed>
<temp>0.00</temp>
<bpm>0</bpm>
<rpm>0.00</rpm>
</extensions>
</trkpt>
<trkpt lat="64.048538208" lon="-20.400600433">
<ele>79.779297</ele>
<time>2012-07-20T18:29:29Z</time>
<speed>4.170000</speed>
<extensions>
<speed>4.2</speed>
<temp>0.00</temp>
<bpm>0</bpm>
<rpm>0.00</rpm>
</extensions>
</trkpt>
<trkpt lat="64.048469543" lon="-20.401006699">
<ele>80.542969</ele>
<time>2012-07-20T18:29:34Z</time>
<speed>4.320000</speed>
<extensions>
<speed>4.3</speed>
<temp>0.00</temp>
<bpm>0</bpm>
<rpm>0.00</rpm>
</extensions>
</trkpt>
<trkpt lat="64.048393250" lon="-20.401414871">
<ele>80.519531</ele>
<time>2012-07-20T18:29:39Z</time>
<speed>4.250000</speed>
<extensions>
<speed>4.3</speed>
<temp>0.00</temp>
<bpm>0</bpm>
<rpm>0.00</rpm>
</extensions>
</trkpt>
<trkpt lat="64.048324585" lon="-20.401817322">
<ele>81.015625</ele>
<time>2012-07-20T18:29:44Z</time>
<speed>4.240000</speed>
<extensions>
<speed>4.2</speed>
<temp>0.00</temp>
<bpm>0</bpm>
<rpm>0.00</rpm>
</extensions>
</trkpt>
<trkpt lat="64.048255920" lon="-20.402233124">
<ele>80.707031</ele>
<time>2012-07-20T18:29:49Z</time>
<speed>4.380000</speed>
<extensions>
<speed>4.4</speed>
<temp>0.00</temp>
<bpm>0</bpm>
<rpm>0.00</rpm>
</extensions>
</trkpt>
<trkpt lat="64.048179626" lon="-20.402627945">
<ele>81.126953</ele>
<time>2012-07-20T18:29:54Z</time>
<speed>3.790000</speed>
<extensions>
<speed>3.8</speed>
<temp>0.00</temp>
<bpm>0</bpm>
<rpm>0.00</rpm>
</extensions>
</trkpt>
<trkpt lat="64.048118591" lon="-20.403009415">
<ele>81.636719</ele>
<time>2012-07-20T18:29:59Z</time>
<speed>4.350000</speed>
<extensions>
<speed>4.3</speed>
<temp>0.00</temp>
<bpm>0</bpm>
<rpm>0.00</rpm>
</extensions>
</trkpt>
<trkpt lat="64.048042297" lon="-20.403425217">
<ele>81.263672</ele>
<time>2012-07-20T18:30:04Z</time>
<speed>4.560000</speed>
<extensions>
<speed>4.6</speed>
<temp>0.00</temp>
<bpm>0</bpm>
<rpm>0.00</rpm>
</extensions>
</trkpt>
<trkpt lat="64.047973633" lon="-20.403800964">
<ele>80.736328</ele>
<time>2012-07-20T18:30:09Z</time>
<speed>3.470000</speed>
<extensions>
<speed>3.5</speed>
<temp>0.00</temp>
<bpm>0</bpm>
<rpm>0.00</rpm>
</extensions>
</trkpt>
<trkpt lat="64.047912598" lon="-20.404054642">
<ele>80.410156</ele>
<time>2012-07-20T18:30:14Z</time>
<speed>2.340000</speed>
<extensions>
<speed>2.3</speed>
<temp>0.00</temp>
<bpm>0</bpm>
<rpm>0.00</rpm>
</extensions>
</trkpt>
<trkpt lat="64.047889709" lon="-20.404184341">
<ele>79.193359</ele>
<time>2012-07-20T18:30:19Z</time>
<speed>0.170000</speed>
<extensions>
<speed>0.2</speed>
<temp>0.00</temp>
<bpm>0</bpm>
<rpm>0.00</rpm>
</extensions>
</trkpt>
<trkpt lat="64.047882080" lon="-20.404182434">
<ele>78.525391</ele>
<time>2012-07-20T18:30:24Z</time>
<speed>0.010000</speed>
<extensions>
<speed>0.0</speed>
<temp>0.00</temp>
<bpm>0</bpm>
<rpm>0.00</rpm>
</extensions>
</trkpt>
<trkpt lat="64.047882080" lon="-20.404182434">
<ele>78.425781</ele>
<time>2012-07-20T18:30:29Z</time>
<extensions>
<speed>0.0</speed>
<temp>0.00</temp>
<bpm>0</bpm>
<rpm>0.00</rpm>
</extensions>
</trkpt>
<trkpt lat="64.047882080" lon="-20.404182434">
<ele>78.367188</ele>
<time>2012-07-20T18:30:34Z</time>
<speed>0.010000</speed>
<extensions>
<speed>0.0</speed>
<temp>0.00</temp>
<bpm>0</bpm>
<rpm>0.00</rpm>
</extensions>
</trkpt>
<trkpt lat="64.047882080" lon="-20.404182434">
<ele>78.332031</ele>
<time>2012-07-20T18:30:39Z</time>
<speed>0.020000</speed>
<extensions>
<speed>0.0</speed>
<temp>0.00</temp>
<bpm>0</bpm>
<rpm>0.00</rpm>
</extensions>
</trkpt>
<trkpt lat="64.047882080" lon="-20.404190063">
<ele>78.279297</ele>
<time>2012-07-20T18:30:44Z</time>
<speed>0.050000</speed>
<extensions>
<speed>0.1</speed>
<temp>0.00</temp>
<bpm>0</bpm>
<rpm>0.00</rpm>
</extensions>
</trkpt>
<trkpt lat="64.047889709" lon="-20.404247284">
<ele>78.330078</ele>
<time>2012-07-20T18:30:49Z</time>
<speed>0.260000</speed>
<extensions>
<speed>0.3</speed>
<temp>0.00</temp>
<bpm>0</bpm>
<rpm>0.00</rpm>
</extensions>
</trkpt>
<trkpt lat="64.047897339" lon="-20.404260635">
<ele>78.574219</ele>
<time>2012-07-20T18:30:54Z</time>
<extensions>
<speed>0.0</speed>
<temp>0.00</temp>
<bpm>0</bpm>
<rpm>0.00</rpm>
</extensions>
</trkpt>
<trkpt lat="64.047897339" lon="-20.404258728">
<ele>78.630859</ele>
<time>2012-07-20T18:30:59Z</time>
<extensions>
<speed>0.0</speed>
<temp>0.00</temp>
<bpm>0</bpm>
<rpm>0.00</rpm>
</extensions>
</trkpt>
<trkpt lat="64.047897339" lon="-20.404258728">
<ele>78.736328</ele>
<time>2012-07-20T18:31:04Z</time>
<speed>0.030000</speed>
<extensions>
<speed>0.0</speed>
<temp>0.00</temp>
<bpm>0</bpm>
<rpm>0.00</rpm>
</extensions>
</trkpt>
<trkpt lat="64.047897339" lon="-20.404258728">
<ele>78.712891</ele>
<time>2012-07-20T18:31:09Z</time>
<extensions>
<speed>0.0</speed>
<temp>0.00</temp>
<bpm>0</bpm>
<rpm>0.00</rpm>
</extensions>
</trkpt>
<trkpt lat="64.047897339" lon="-20.404258728">
<ele>78.695313</ele>
<time>2012-07-20T18:31:14Z</time>
<speed>0.010000</speed>
<extensions>
<speed>0.0</speed>
<temp>0.00</temp>
<bpm>0</bpm>
<rpm>0.00</rpm>
</extensions>
</trkpt>
<trkpt lat="64.047897339" lon="-20.404256821">
<ele>78.716797</ele>
<time>2012-07-20T18:31:19Z</time>
<speed>0.040000</speed>
<extensions>
<speed>0.0</speed>
<temp>0.00</temp>
<bpm>0</bpm>
<rpm>0.00</rpm>
</extensions>
</trkpt>
<trkpt lat="64.047897339" lon="-20.404256821">
<ele>78.712891</ele>
<time>2012-07-20T18:31:24Z</time>
<extensions>
<speed>0.0</speed>
<temp>0.00</temp>
<bpm>0</bpm>
<rpm>0.00</rpm>
</extensions>
</trkpt>
<trkpt lat="64.047897339" lon="-20.404256821">
<ele>78.695313</ele>
<time>2012-07-20T18:31:29Z</time>
<extensions>
<speed>0.0</speed>
<temp>0.00</temp>
<bpm>0</bpm>
<rpm>0.00</rpm>
</extensions>
</trkpt>
<trkpt lat="64.047897339" lon="-20.404256821">
<ele>78.751953</ele>
<time>2012-07-20T18:31:34Z</time>
<speed>0.010000</speed>
<extensions>
<speed>0.0</speed>
<temp>0.00</temp>
<bpm>0</bpm>
<rpm>0.00</rpm>
</extensions>
</trkpt>
<trkpt lat="64.047897339" lon="-20.404256821">
<ele>78.738281</ele>
<time>2012-07-20T18:31:39Z</time>
<extensions>
<speed>0.0</speed>
<temp>0.00</temp>
<bpm>0</bpm>
<rpm>0.00</rpm>
</extensions>
</trkpt>
<trkpt lat="64.047897339" lon="-20.404256821">
<ele>78.703125</ele>
<time>2012-07-20T18:31:44Z</time>
<speed>0.020000</speed>
<extensions>
<speed>0.0</speed>
<temp>0.00</temp>
<bpm>0</bpm>
<rpm>0.00</rpm>
</extensions>
</trkpt>
<trkpt lat="64.047897339" lon="-20.404256821">
<ele>78.683594</ele>
<time>2012-07-20T18:31:49Z</time>
<extensions>
<speed>0.0</speed>
<temp>0.00</temp>
<bpm>0</bpm>
<rpm>0.00</rpm>
</extensions>
</trkpt>
<trkpt lat="64.047897339" lon="-20.404256821">
<ele>78.671875</ele>
<time>2012-07-20T18:31:54Z</time>
<extensions>
<speed>0.0</speed>
<temp>0.00</temp>
<bpm>0</bpm>
<rpm>0.00</rpm>
</extensions>
</trkpt>
<trkpt lat="64.047897339" lon="-20.404258728">
<ele>78.669922</ele>
<time>2012-07-20T18:31:59Z</time>
<extensions>
<speed>0.0</speed>
<temp>0.00</temp>
<bpm>0</bpm>
<rpm>0.00</rpm>
</extensions>
</trkpt>
<trkpt lat="64.047897339" lon="-20.404258728">
<ele>78.652344</ele>
<time>2012-07-20T18:32:04Z</time>
<extensions>
<speed>0.0</speed>
<temp>0.00</temp>
<bpm>0</bpm>
<rpm>0.00</rpm>
</extensions>
</trkpt>
<trkpt lat="64.047897339" lon="-20.404258728">
<ele>78.634766</ele>
<time>2012-07-20T18:32:09Z</time>
<extensions>
<speed>0.0</speed>
<temp>0.00</temp>
<bpm>0</bpm>
<rpm>0.00</rpm>
</extensions>
</trkpt>
<trkpt lat="64.047897339" lon="-20.404258728">
<ele>78.619141</ele>
<time>2012-07-20T18:32:14Z</time>
<extensions>
<speed>0.0</speed>
<temp>0.00</temp>
<bpm>0</bpm>
<rpm>0.00</rpm>
</extensions>
</trkpt>
<trkpt lat="64.047897339" lon="-20.404258728">
<ele>78.601563</ele>
<time>2012-07-20T18:32:19Z</time>
<extensions>
<speed>0.0</speed>
<temp>0.00</temp>
<bpm>0</bpm>
<rpm>0.00</rpm>
</extensions>
</trkpt>
<trkpt lat="64.047897339" lon="-20.404272079">
<ele>78.410156</ele>
<time>2012-07-20T18:32:24Z</time>
<speed>0.070000</speed>
<extensions>
<speed>0.1</speed>
<temp>0.00</temp>
<bpm>0</bpm>
<rpm>0.00</rpm>
</extensions>
</trkpt>
<trkpt lat="64.047874451" lon="-20.404356003">
<ele>79.289063</ele>
<time>2012-07-20T18:32:29Z</time>
<speed>2.240000</speed>
<extensions>
<speed>2.2</speed>
<temp>0.00</temp>
<bpm>0</bpm>
<rpm>0.00</rpm>
</extensions>
</trkpt>
<trkpt lat="64.047828674" lon="-20.404634476">
<ele>80.203125</ele>
<time>2012-07-20T18:32:34Z</time>
<speed>3.200000</speed>
<extensions>
<speed>3.2</speed>
<temp>0.00</temp>
<bpm>0</bpm>
<rpm>0.00</rpm>
</extensions>
</trkpt>
<trkpt lat="64.047775269" lon="-20.404920578">
<ele>80.966797</ele>
<time>2012-07-20T18:32:39Z</time>
<speed>2.750000</speed>
<extensions>
<speed>2.7</speed>
<temp>0.00</temp>
<bpm>0</bpm>
<rpm>0.00</rpm>
</extensions>
</trkpt>
<trkpt lat="64.047721863" lon="-20.405241013">
<ele>80.140625</ele>
<time>2012-07-20T18:32:44Z</time>
<speed>3.430000</speed>
<extensions>
<speed>3.4</speed>
<temp>0.00</temp>
<bpm>0</bpm>
<rpm>0.00</rpm>
</extensions>
</trkpt>
<trkpt lat="64.047660828" lon="-20.405586243">
<ele>79.699219</ele>
<time>2012-07-20T18:32:49Z</time>
<speed>3.820000</speed>
<extensions>
<speed>3.8</speed>
<temp>0.00</temp>
<bpm>0</bpm>
<rpm>0.00</rpm>
</extensions>
</trkpt>
<trkpt lat="64.047592163" lon="-20.405971527">
<ele>78.962891</ele>
<time>2012-07-20T18:32:54Z</time>
<speed>4.070000</speed>
<extensions>
<speed>4.1</speed>
<temp>0.00</temp>
<bpm>0</bpm>
<rpm>0.00</rpm>
</extensions>
</trkpt>
<trkpt lat="64.047523499" lon="-20.406360626">
<ele>79.193359</ele>
<time>2012-07-20T18:32:59Z</time>
<speed>4.130000</speed>
<extensions>
<speed>4.1</speed>
<temp>0.00</temp>
<bpm>0</bpm>
<rpm>0.00</rpm>
</extensions>
</trkpt>
<trkpt lat="64.047454834" lon="-20.406755447">
<ele>80.730469</ele>
<time>2012-07-20T18:33:04Z</time>
<speed>3.800000</speed>
<extensions>
<speed>3.8</speed>
<temp>0.00</temp>
<bpm>0</bpm>
<rpm>0.00</rpm>
</extensions>
</trkpt>
<trkpt lat="64.047386169" lon="-20.407140732">
<ele>81.205078</ele>
<time>2012-07-20T18:33:09Z</time>
<speed>3.930000</speed>
<extensions>
<speed>3.9</speed>
<temp>0.00</temp>
<bpm>0</bpm>
<rpm>0.00</rpm>
</extensions>
</trkpt>
<trkpt lat="64.047325134" lon="-20.407497406">
<ele>81.146484</ele>
<time>2012-07-20T18:33:14Z</time>
<speed>3.300000</speed>
<extensions>
<speed>3.3</speed>
<temp>0.00</temp>
<bpm>0</bpm>
<rpm>0.00</rpm>
</extensions>
</trkpt>
<trkpt lat="64.047264099" lon="-20.407823563">
<ele>83.261719</ele>
<time>2012-07-20T18:33:19Z</time>
<speed>3.480000</speed>
<extensions>
<speed>3.5</speed>
<temp>0.00</temp>
<bpm>0</bpm>
<rpm>0.00</rpm>
</extensions>
</trkpt>
<trkpt lat="64.047195435" lon="-20.408109665">
<ele>83.562500</ele>
<time>2012-07-20T18:33:24Z</time>
<speed>3.340000</speed>
<extensions>
<speed>3.3</speed>
<temp>0.00</temp>
<bpm>0</bpm>
<rpm>0.00</rpm>
</extensions>
</trkpt>
<trkpt lat="64.047119141" lon="-20.408426285">
<ele>82.867188</ele>
<time>2012-07-20T18:33:29Z</time>
<speed>3.460000</speed>
<extensions>
<speed>3.5</speed>
<temp>0.00</temp>
<bpm>0</bpm>
<rpm>0.00</rpm>
</extensions>
</trkpt>
<trkpt lat="64.047050476" lon="-20.408714294">
<ele>83.041016</ele>
<time>2012-07-20T18:33:34Z</time>
<speed>3.340000</speed>
<extensions>
<speed>3.3</speed>
<temp>0.00</temp>
<bpm>0</bpm>
<rpm>0.00</rpm>
</extensions>
</trkpt>
<trkpt lat="64.046974182" lon="-20.409004211">
<ele>83.275391</ele>
<time>2012-07-20T18:33:39Z</time>
<speed>3.470000</speed>
<extensions>
<speed>3.5</speed>
<temp>0.00</temp>
<bpm>0</bpm>
<rpm>0.00</rpm>
</extensions>
</trkpt>
<trkpt lat="64.046882629" lon="-20.409309387">
<ele>82.822266</ele>
<time>2012-07-20T18:33:44Z</time>
<speed>3.660000</speed>
<extensions>
<speed>3.7</speed>
<temp>0.00</temp>
<bpm>0</bpm>
<rpm>0.00</rpm>
</extensions>
</trkpt>
<trkpt lat="64.046806335" lon="-20.409566879">
<ele>81.923828</ele>
<time>2012-07-20T18:33:49Z</time>
<speed>2.880000</speed>
<extensions>
<speed>2.9</speed>
<temp>0.00</temp>
<bpm>0</bpm>
<rpm>0.00</rpm>
</extensions>
</trkpt>
<trkpt lat="64.046714783" lon="-20.409845352">
<ele>81.283203</ele>
<time>2012-07-20T18:33:54Z</time>
<speed>3.720000</speed>
<extensions>
<speed>3.7</speed>
<temp>0.00</temp>
<bpm>0</bpm>
<rpm>0.00</rpm>
</extensions>
</trkpt>
<trkpt lat="64.046607971" lon="-20.410150528">
<ele>81.382813</ele>
<time>2012-07-20T18:33:59Z</time>
<speed>3.880000</speed>
<extensions>
<speed>3.9</speed>
<temp>0.00</temp>
<bpm>0</bpm>
<rpm>0.00</rpm>
</extensions>
</trkpt>
<trkpt lat="64.046485901" lon="-20.410455704">
<ele>80.626953</ele>
<time>2012-07-20T18:34:04Z</time>
<speed>4.020000</speed>
<extensions>
<speed>4.0</speed>
<temp>0.00</temp>
<bpm>0</bpm>
<rpm>0.00</rpm>
</extensions>
</trkpt>
<trkpt lat="64.046379089" lon="-20.410732269">
<ele>80.376953</ele>
<time>2012-07-20T18:34:09Z</time>
<speed>3.350000</speed>
<extensions>
<speed>3.4</speed>
<temp>0.00</temp>
<bpm>0</bpm>
<rpm>0.00</rpm>
</extensions>
</trkpt>
<trkpt lat="64.046272278" lon="-20.410982132">
<ele>80.144531</ele>
<time>2012-07-20T18:34:14Z</time>
<speed>3.440000</speed>
<extensions>
<speed>3.4</speed>
<temp>0.00</temp>
<bpm>0</bpm>
<rpm>0.00</rpm>
</extensions>
</trkpt>
<trkpt lat="64.046180725" lon="-20.411169052">
<ele>80.009766</ele>
<time>2012-07-20T18:34:19Z</time>
<speed>2.200000</speed>
<extensions>
<speed>2.2</speed>
<temp>0.00</temp>
<bpm>0</bpm>
<rpm>0.00</rpm>
</extensions>
</trkpt>
<trkpt lat="64.046127319" lon="-20.411289215">
<ele>79.685547</ele>
<time>2012-07-20T18:34:24Z</time>
<speed>1.490000</speed>
<extensions>
<speed>1.5</speed>
<temp>0.00</temp>
<bpm>0</bpm>
<rpm>0.00</rpm>
</extensions>
</trkpt>
<trkpt lat="64.046073914" lon="-20.411401749">
<ele>79.839844</ele>
<time>2012-07-20T18:34:29Z</time>
<speed>1.070000</speed>
<extensions>
<speed>1.1</speed>
<temp>0.00</temp>
<bpm>0</bpm>
<rpm>0.00</rpm>
</extensions>
</trkpt>
<trkpt lat="64.046043396" lon="-20.411481857">
<ele>80.240234</ele>
<time>2012-07-20T18:34:34Z</time>
<speed>1.280000</speed>
<extensions>
<speed>1.3</speed>
<temp>0.00</temp>
<bpm>0</bpm>
<rpm>0.00</rpm>
</extensions>
</trkpt>
<trkpt lat="64.045982361" lon="-20.411449432">
<ele>81.023438</ele>
<time>2012-07-20T18:34:39Z</time>
<speed>2.260000</speed>
<extensions>
<speed>2.3</speed>
<temp>0.00</temp>
<bpm>0</bpm>
<rpm>0.00</rpm>
</extensions>
</trkpt>
<trkpt lat="64.045906067" lon="-20.411256790">
<ele>79.900391</ele>
<time>2012-07-20T18:34:44Z</time>
<speed>2.420000</speed>
<extensions>
<speed>2.4</speed>
<temp>0.00</temp>
<bpm>0</bpm>
<rpm>0.00</rpm>
</extensions>
</trkpt>
<trkpt lat="64.045837402" lon="-20.411039352">
<ele>79.513672</ele>
<time>2012-07-20T18:34:49Z</time>
<speed>2.600000</speed>
<extensions>
<speed>2.6</speed>
<temp>0.00</temp>
<bpm>0</bpm>
<rpm>0.00</rpm>
</extensions>
</trkpt>
<trkpt lat="64.045791626" lon="-20.410846710">
<ele>77.701172</ele>
<time>2012-07-20T18:34:54Z</time>
<speed>1.540000</speed>
<extensions>
<speed>1.5</speed>
<temp>0.00</temp>
<bpm>0</bpm>
<rpm>0.00</rpm>
</extensions>
</trkpt>
<trkpt lat="64.045791626" lon="-20.410827637">
<ele>77.886719</ele>
<time>2012-07-20T18:34:59Z</time>
<speed>0.050000</speed>
<extensions>
<speed>0.1</speed>
<temp>0.00</temp>
<bpm>0</bpm>
<rpm>0.00</rpm>
</extensions>
</trkpt>
<trkpt lat="64.045791626" lon="-20.410829544">
<ele>77.808594</ele>
<time>2012-07-20T18:35:04Z</time>
<speed>0.020000</speed>
<extensions>
<speed>0.0</speed>
<temp>0.00</temp>
<bpm>0</bpm>
<rpm>0.00</rpm>
</extensions>
</trkpt>
<trkpt lat="64.045791626" lon="-20.410829544">
<ele>77.740234</ele>
<time>2012-07-20T18:35:09Z</time>
<extensions>
<speed>0.0</speed>
<temp>0.00</temp>
<bpm>0</bpm>
<rpm>0.00</rpm>
</extensions>
</trkpt>
<trkpt lat="64.045791626" lon="-20.410829544">
<ele>77.673828</ele>
<time>2012-07-20T18:35:14Z</time>
<extensions>
<speed>0.0</speed>
<temp>0.00</temp>
<bpm>0</bpm>
<rpm>0.00</rpm>
</extensions>
</trkpt>
<trkpt lat="64.045791626" lon="-20.410829544">
<ele>77.697266</ele>
<time>2012-07-20T18:35:19Z</time>
<speed>0.010000</speed>
<extensions>
<speed>0.0</speed>
<temp>0.00</temp>
<bpm>0</bpm>
<rpm>0.00</rpm>
</extensions>
</trkpt>
<trkpt lat="64.045791626" lon="-20.410829544">
<ele>77.648438</ele>
<time>2012-07-20T18:35:24Z</time>
<speed>0.010000</speed>
<extensions>
<speed>0.0</speed>
<temp>0.00</temp>
<bpm>0</bpm>
<rpm>0.00</rpm>
</extensions>
</trkpt>
<trkpt lat="64.045791626" lon="-20.410827637">
<ele>77.601563</ele>
<time>2012-07-20T18:35:29Z</time>
<speed>0.090000</speed>
<extensions>
<speed>0.1</speed>
<temp>0.00</temp>
<bpm>0</bpm>
<rpm>0.00</rpm>
</extensions>
</trkpt>
<trkpt lat="64.045791626" lon="-20.410825729">
<ele>77.580078</ele>
<time>2012-07-20T18:35:34Z</time>
<speed>0.020000</speed>
<extensions>
<speed>0.0</speed>
<temp>0.00</temp>
<bpm>0</bpm>
<rpm>0.00</rpm>
</extensions>
</trkpt>
<trkpt lat="64.045791626" lon="-20.410825729">
<ele>77.572266</ele>
<time>2012-07-20T18:35:39Z</time>
<speed>0.010000</speed>
<extensions>
<speed>0.0</speed>
<temp>0.00</temp>
<bpm>0</bpm>
<rpm>0.00</rpm>
</extensions>
</trkpt>
<trkpt lat="64.045791626" lon="-20.410825729">
<ele>77.552734</ele>
<time>2012-07-20T18:35:44Z</time>
<speed>0.020000</speed>
<extensions>
<speed>0.0</speed>
<temp>0.00</temp>
<bpm>0</bpm>
<rpm>0.00</rpm>
</extensions>
</trkpt>
<trkpt lat="64.045791626" lon="-20.410825729">
<ele>77.535156</ele>
<time>2012-07-20T18:35:49Z</time>
<extensions>
<speed>0.0</speed>
<temp>0.00</temp>
<bpm>0</bpm>
<rpm>0.00</rpm>
</extensions>
</trkpt>
<trkpt lat="64.045791626" lon="-20.410827637">
<ele>77.496094</ele>
<time>2012-07-20T18:35:54Z</time>
<extensions>
<speed>0.0</speed>
<temp>0.00</temp>
<bpm>0</bpm>
<rpm>0.00</rpm>
</extensions>
</trkpt>
<trkpt lat="64.045791626" lon="-20.410827637">
<ele>77.474609</ele>
<time>2012-07-20T18:35:59Z</time>
<extensions>
<speed>0.0</speed>
<temp>0.00</temp>
<bpm>0</bpm>
<rpm>0.00</rpm>
</extensions>
</trkpt>
<trkpt lat="64.045783997" lon="-20.410827637">
<ele>77.457031</ele>
<time>2012-07-20T18:36:04Z</time>
<speed>0.020000</speed>
<extensions>
<speed>0.0</speed>
<temp>0.00</temp>
<bpm>0</bpm>
<rpm>0.00</rpm>
</extensions>
</trkpt>
<trkpt lat="64.045783997" lon="-20.410827637">
<ele>77.429688</ele>
<time>2012-07-20T18:36:09Z</time>
<speed>0.010000</speed>
<extensions>
<speed>0.0</speed>
<temp>0.00</temp>
<bpm>0</bpm>
<rpm>0.00</rpm>
</extensions>
</trkpt>
<trkpt lat="64.045783997" lon="-20.410829544">
<ele>77.406250</ele>
<time>2012-07-20T18:36:14Z</time>
<extensions>
<speed>0.0</speed>
<temp>0.00</temp>
<bpm>0</bpm>
<rpm>0.00</rpm>
</extensions>
</trkpt>
<trkpt lat="64.045783997" lon="-20.410829544">
<ele>77.382813</ele>
<time>2012-07-20T18:36:19Z</time>
<speed>0.030000</speed>
<extensions>
<speed>0.0</speed>
<temp>0.00</temp>
<bpm>0</bpm>
<rpm>0.00</rpm>
</extensions>
</trkpt>
<trkpt lat="64.045783997" lon="-20.410831451">
<ele>77.326172</ele>
<time>2012-07-20T18:36:24Z</time>
<speed>0.020000</speed>
<extensions>
<speed>0.0</speed>
<temp>0.00</temp>
<bpm>0</bpm>
<rpm>0.00</rpm>
</extensions>
</trkpt>
<trkpt lat="64.045783997" lon="-20.410831451">
<ele>77.302734</ele>
<time>2012-07-20T18:36:29Z</time>
<extensions>
<speed>0.0</speed>
<temp>0.00</temp>
<bpm>0</bpm>
<rpm>0.00</rpm>
</extensions>
</trkpt>
<trkpt lat="64.045783997" lon="-20.410831451">
<ele>77.298828</ele>
<time>2012-07-20T18:36:34Z</time>
<extensions>
<speed>0.0</speed>
<temp>0.00</temp>
<bpm>0</bpm>
<rpm>0.00</rpm>
</extensions>
</trkpt>
<trkpt lat="64.045783997" lon="-20.410831451">
<ele>77.300781</ele>
<time>2012-07-20T18:36:39Z</time>
<speed>0.010000</speed>
<extensions>
<speed>0.0</speed>
<temp>0.00</temp>
<bpm>0</bpm>
<rpm>0.00</rpm>
</extensions>
</trkpt>
<trkpt lat="64.045783997" lon="-20.410812378">
<ele>77.242188</ele>
<time>2012-07-20T18:36:44Z</time>
<speed>0.770000</speed>
<extensions>
<speed>0.8</speed>
<temp>0.00</temp>
<bpm>0</bpm>
<rpm>0.00</rpm>
</extensions>
</trkpt>
<trkpt lat="64.045768738" lon="-20.410694122">
<ele>76.330078</ele>
<time>2012-07-20T18:36:49Z</time>
<speed>1.040000</speed>
<extensions>
<speed>1.0</speed>
<temp>0.00</temp>
<bpm>0</bpm>
<rpm>0.00</rpm>
</extensions>
</trkpt>
<trkpt lat="64.045738220" lon="-20.410482407">
<ele>76.902344</ele>
<time>2012-07-20T18:36:54Z</time>
<speed>2.400000</speed>
<extensions>
<speed>2.4</speed>
<temp>0.00</temp>
<bpm>0</bpm>
<rpm>0.00</rpm>
</extensions>
</trkpt>
<trkpt lat="64.045677185" lon="-20.410179138">
<ele>77.789063</ele>
<time>2012-07-20T18:36:59Z</time>
<speed>3.360000</speed>
<extensions>
<speed>3.4</speed>
<temp>0.00</temp>
<bpm>0</bpm>
<rpm>0.00</rpm>
</extensions>
</trkpt>
<trkpt lat="64.045600891" lon="-20.409870148">
<ele>77.833984</ele>
<time>2012-07-20T18:37:04Z</time>
<speed>3.460000</speed>
<extensions>
<speed>3.5</speed>
<temp>0.00</temp>
<bpm>0</bpm>
<rpm>0.00</rpm>
</extensions>
</trkpt>
<trkpt lat="64.045532227" lon="-20.409521103">
<ele>76.787109</ele>
<time>2012-07-20T18:37:09Z</time>
<speed>3.710000</speed>
<extensions>
<speed>3.7</speed>
<temp>0.00</temp>
<bpm>0</bpm>
<rpm>0.00</rpm>
</extensions>
</trkpt>
<trkpt lat="64.045448303" lon="-20.409191132">
<ele>75.460938</ele>
<time>2012-07-20T18:37:14Z</time>
<speed>3.560000</speed>
<extensions>
<speed>3.6</speed>
<temp>0.00</temp>
<bpm>0</bpm>
<rpm>0.00</rpm>
</extensions>
</trkpt>
<trkpt lat="64.045372009" lon="-20.408872604">
<ele>73.361328</ele>
<time>2012-07-20T18:37:19Z</time>
<speed>3.620000</speed>
<extensions>
<speed>3.6</speed>
<temp>0.00</temp>
<bpm>0</bpm>
<rpm>0.00</rpm>
</extensions>
</trkpt>
<trkpt lat="64.045288086" lon="-20.408550262">
<ele>72.019531</ele>
<time>2012-07-20T18:37:24Z</time>
<speed>3.850000</speed>
<extensions>
<speed>3.8</speed>
<temp>0.00</temp>
<bpm>0</bpm>
<rpm>0.00</rpm>
</extensions>
</trkpt>
<trkpt lat="64.045196533" lon="-20.408189774">
<ele>72.300781</ele>
<time>2012-07-20T18:37:29Z</time>
<speed>4.210000</speed>
<extensions>
<speed>4.2</speed>
<temp>0.00</temp>
<bpm>0</bpm>
<rpm>0.00</rpm>
</extensions>
</trkpt>
<trkpt lat="64.045104980" lon="-20.407781601">
<ele>72.511719</ele>
<time>2012-07-20T18:37:34Z</time>
<speed>4.630000</speed>
<extensions>
<speed>4.6</speed>
<temp>0.00</temp>
<bpm>0</bpm>
<rpm>0.00</rpm>
</extensions>
</trkpt>
<trkpt lat="64.044998169" lon="-20.407321930">
<ele>70.546875</ele>
<time>2012-07-20T18:37:39Z</time>
<speed>5.470000</speed>
<extensions>
<speed>5.5</speed>
<temp>0.00</temp>
<bpm>0</bpm>
<rpm>0.00</rpm>
</extensions>
</trkpt>
<trkpt lat="64.044876099" lon="-20.406799316">
<ele>68.005859</ele>
<time>2012-07-20T18:37:44Z</time>
<speed>6.270000</speed>
<extensions>
<speed>6.3</speed>
<temp>0.00</temp>
<bpm>0</bpm>
<rpm>0.00</rpm>
</extensions>
</trkpt>
<trkpt lat="64.044738770" lon="-20.406204224">
<ele>64.318359</ele>
<time>2012-07-20T18:37:49Z</time>
<speed>6.800000</speed>
<extensions>
<speed>6.8</speed>
<temp>0.00</temp>
<bpm>0</bpm>
<rpm>0.00</rpm>
</extensions>
</trkpt>
<trkpt lat="64.044586182" lon="-20.405580521">
<ele>61.298828</ele>
<time>2012-07-20T18:37:54Z</time>
<speed>6.980000</speed>
<extensions>
<speed>7.0</speed>
<temp>0.00</temp>
<bpm>0</bpm>
<rpm>0.00</rpm>
</extensions>
</trkpt>
<trkpt lat="64.044448853" lon="-20.404964447">
<ele>61.818359</ele>
<time>2012-07-20T18:37:59Z</time>
<speed>6.250000</speed>
<extensions>
<speed>6.3</speed>
<temp>0.00</temp>
<bpm>0</bpm>
<rpm>0.00</rpm>
</extensions>
</trkpt>
<trkpt lat="64.044342041" lon="-20.404422760">
<ele>63.894531</ele>
<time>2012-07-20T18:38:04Z</time>
<speed>5.290000</speed>
<extensions>
<speed>5.3</speed>
<temp>0.00</temp>
<bpm>0</bpm>
<rpm>0.00</rpm>
</extensions>
</trkpt>
<trkpt lat="64.044227600" lon="-20.403949738">
<ele>63.022461</ele>
<time>2012-07-20T18:38:09Z</time>
<speed>5.320000</speed>
<extensions>
<speed>5.3</speed>
<temp>0.00</temp>
<bpm>0</bpm>
<rpm>0.00</rpm>
</extensions>
</trkpt>
<trkpt lat="64.044120789" lon="-20.403459549">
<ele>63.199219</ele>
<time>2012-07-20T18:38:14Z</time>
<speed>5.190000</speed>
<extensions>
<speed>5.2</speed>
<temp>0.00</temp>
<bpm>0</bpm>
<rpm>0.00</rpm>
</extensions>
</trkpt>
<trkpt lat="64.044013977" lon="-20.402990341">
<ele>65.269531</ele>
<time>2012-07-20T18:38:19Z</time>
<speed>4.940000</speed>
<extensions>
<speed>4.9</speed>
<temp>0.00</temp>
<bpm>0</bpm>
<rpm>0.00</rpm>
</extensions>
</trkpt>
<trkpt lat="64.043907166" lon="-20.402563095">
<ele>62.867188</ele>
<time>2012-07-20T18:38:24Z</time>
<speed>4.830000</speed>
<extensions>
<speed>4.8</speed>
<temp>0.00</temp>
<bpm>0</bpm>
<rpm>0.00</rpm>
</extensions>
</trkpt>
<trkpt lat="64.043823242" lon="-20.402120590">
<ele>65.119141</ele>
<time>2012-07-20T18:38:29Z</time>
<speed>4.590000</speed>
<extensions>
<speed>4.6</speed>
<temp>0.00</temp>
<bpm>0</bpm>
<rpm>0.00</rpm>
</extensions>
</trkpt>
<trkpt lat="64.043724060" lon="-20.401689529">
<ele>65.613281</ele>
<time>2012-07-20T18:38:34Z</time>
<speed>4.840000</speed>
<extensions>
<speed>4.8</speed>
<temp>0.00</temp>
<bpm>0</bpm>
<rpm>0.00</rpm>
</extensions>
</trkpt>
<trkpt lat="64.043617249" lon="-20.401268005">
<ele>64.261719</ele>
<time>2012-07-20T18:38:39Z</time>
<speed>4.810000</speed>
<extensions>
<speed>4.8</speed>
<temp>0.00</temp>
<bpm>0</bpm>
<rpm>0.00</rpm>
</extensions>
</trkpt>
<trkpt lat="64.043502808" lon="-20.400833130">
<ele>63.536133</ele>
<time>2012-07-20T18:38:44Z</time>
<speed>5.170000</speed>
<extensions>
<speed>5.2</speed>
<temp>0.00</temp>
<bpm>0</bpm>
<rpm>0.00</rpm>
</extensions>
</trkpt>
<trkpt lat="64.043403625" lon="-20.400350571">
<ele>63.625000</ele>
<time>2012-07-20T18:38:49Z</time>
<speed>5.050000</speed>
<extensions>
<speed>5.1</speed>
<temp>0.00</temp>
<bpm>0</bpm>
<rpm>0.00</rpm>
</extensions>
</trkpt>
<trkpt lat="64.043296814" lon="-20.399888992">
<ele>63.814453</ele>
<time>2012-07-20T18:38:54Z</time>
<speed>5.000000</speed>
<extensions>
<speed>5.0</speed>
<temp>0.00</temp>
<bpm>0</bpm>
<rpm>0.00</rpm>
</extensions>
</trkpt>
<trkpt lat="64.043190002" lon="-20.399415970">
<ele>63.844727</ele>
<time>2012-07-20T18:38:59Z</time>
<speed>5.010000</speed>
<extensions>
<speed>5.0</speed>
<temp>0.00</temp>
<bpm>0</bpm>
<rpm>0.00</rpm>
</extensions>
</trkpt>
<trkpt lat="64.043083191" lon="-20.398950577">
<ele>64.759766</ele>
<time>2012-07-20T18:39:04Z</time>
<speed>5.010000</speed>
<extensions>
<speed>5.0</speed>
<temp>0.00</temp>
<bpm>0</bpm>
<rpm>0.00</rpm>
</extensions>
</trkpt>
<trkpt lat="64.042984009" lon="-20.398500443">
<ele>65.126953</ele>
<time>2012-07-20T18:39:09Z</time>
<speed>4.880000</speed>
<extensions>
<speed>4.9</speed>
<temp>0.00</temp>
<bpm>0</bpm>
<rpm>0.00</rpm>
</extensions>
</trkpt>
<trkpt lat="64.042884827" lon="-20.398063660">
<ele>63.625977</ele>
<time>2012-07-20T18:39:14Z</time>
<speed>4.690000</speed>
<extensions>
<speed>4.7</speed>
<temp>0.00</temp>
<bpm>0</bpm>
<rpm>0.00</rpm>
</extensions>
</trkpt>
<trkpt lat="64.042778015" lon="-20.397649765">
<ele>61.036133</ele>
<time>2012-07-20T18:39:19Z</time>
<speed>4.790000</speed>
<extensions>
<speed>4.8</speed>
<temp>0.00</temp>
<bpm>0</bpm>
<rpm>0.00</rpm>
</extensions>
</trkpt>
<trkpt lat="64.042678833" lon="-20.397228241">
<ele>61.617188</ele>
<time>2012-07-20T18:39:24Z</time>
<speed>4.850000</speed>
<extensions>
<speed>4.8</speed>
<temp>0.00</temp>
<bpm>0</bpm>
<rpm>0.00</rpm>
</extensions>
</trkpt>
<trkpt lat="64.042572021" lon="-20.396776199">
<ele>61.371094</ele>
<time>2012-07-20T18:39:29Z</time>
<speed>5.050000</speed>
<extensions>
<speed>5.1</speed>
<temp>0.00</temp>
<bpm>0</bpm>
<rpm>0.00</rpm>
</extensions>
</trkpt>
<trkpt lat="64.042472839" lon="-20.396320343">
<ele>61.500977</ele>
<time>2012-07-20T18:39:34Z</time>
<speed>5.140000</speed>
<extensions>
<speed>5.1</speed>
<temp>0.00</temp>
<bpm>0</bpm>
<rpm>0.00</rpm>
</extensions>
</trkpt>
<trkpt lat="64.042373657" lon="-20.395872116">
<ele>62.609375</ele>
<time>2012-07-20T18:39:39Z</time>
<speed>4.760000</speed>
<extensions>
<speed>4.8</speed>
<temp>0.00</temp>
<bpm>0</bpm>
<rpm>0.00</rpm>
</extensions>
</trkpt>
<trkpt lat="64.042266846" lon="-20.395446777">
<ele>61.374023</ele>
<time>2012-07-20T18:39:44Z</time>
<speed>4.880000</speed>
<extensions>
<speed>4.9</speed>
<temp>0.00</temp>
<bpm>0</bpm>
<rpm>0.00</rpm>
</extensions>
</trkpt>
<trkpt lat="64.042167664" lon="-20.395006180">
<ele>62.060547</ele>
<time>2012-07-20T18:39:49Z</time>
<speed>4.650000</speed>
<extensions>
<speed>4.6</speed>
<temp>0.00</temp>
<bpm>0</bpm>
<rpm>0.00</rpm>
</extensions>
</trkpt>
<trkpt lat="64.042076111" lon="-20.394552231">
<ele>61.607422</ele>
<time>2012-07-20T18:39:54Z</time>
<speed>4.670000</speed>
<extensions>
<speed>4.7</speed>
<temp>0.00</temp>
<bpm>0</bpm>
<rpm>0.00</rpm>
</extensions>
</trkpt>
<trkpt lat="64.041984558" lon="-20.394142151">
<ele>61.402344</ele>
<time>2012-07-20T18:39:59Z</time>
<speed>4.310000</speed>
<extensions>
<speed>4.3</speed>
<temp>0.00</temp>
<bpm>0</bpm>
<rpm>0.00</rpm>
</extensions>
</trkpt>
<trkpt lat="64.041893005" lon="-20.393754959">
<ele>61.644531</ele>
<time>2012-07-20T18:40:04Z</time>
<speed>4.460000</speed>
<extensions>
<speed>4.5</speed>
<temp>0.00</temp>
<bpm>0</bpm>
<rpm>0.00</rpm>
</extensions>
</trkpt>
<trkpt lat="64.041809082" lon="-20.393346786">
<ele>62.596680</ele>
<time>2012-07-20T18:40:09Z</time>
<speed>4.190000</speed>
<extensions>
<speed>4.2</speed>
<temp>0.00</temp>
<bpm>0</bpm>
<rpm>0.00</rpm>
</extensions>
</trkpt>
<trkpt lat="64.041717529" lon="-20.393001556">
<ele>63.734375</ele>
<time>2012-07-20T18:40:14Z</time>
<speed>4.110000</speed>
<extensions>
<speed>4.1</speed>
<temp>0.00</temp>
<bpm>0</bpm>
<rpm>0.00</rpm>
</extensions>
</trkpt>
<trkpt lat="64.041633606" lon="-20.392608643">
<ele>64.998047</ele>
<time>2012-07-20T18:40:19Z</time>
<speed>4.100000</speed>
<extensions>
<speed>4.1</speed>
<temp>0.00</temp>
<bpm>0</bpm>
<rpm>0.00</rpm>
</extensions>
</trkpt>
<trkpt lat="64.041542053" lon="-20.392250061">
<ele>65.587891</ele>
<time>2012-07-20T18:40:24Z</time>
<speed>3.500000</speed>
<extensions>
<speed>3.5</speed>
<temp>0.00</temp>
<bpm>0</bpm>
<rpm>0.00</rpm>
</extensions>
</trkpt>
<trkpt lat="64.041473389" lon="-20.391910553">
<ele>66.816406</ele>
<time>2012-07-20T18:40:29Z</time>
<speed>3.630000</speed>
<extensions>
<speed>3.6</speed>
<temp>0.00</temp>
<bpm>0</bpm>
<rpm>0.00</rpm>
</extensions>
</trkpt>
<trkpt lat="64.041397095" lon="-20.391605377">
<ele>67.945313</ele>
<time>2012-07-20T18:40:34Z</time>
<speed>3.160000</speed>
<extensions>
<speed>3.2</speed>
<temp>0.00</temp>
<bpm>0</bpm>
<rpm>0.00</rpm>
</extensions>
</trkpt>
<trkpt lat="64.041343689" lon="-20.391351700">
<ele>68.871094</ele>
<time>2012-07-20T18:40:39Z</time>
<speed>2.720000</speed>
<extensions>
<speed>2.7</speed>
<temp>0.00</temp>
<bpm>0</bpm>
<rpm>0.00</rpm>
</extensions>
</trkpt>
<trkpt lat="64.041297913" lon="-20.391138077">
<ele>70.333984</ele>
<time>2012-07-20T18:40:44Z</time>
<speed>2.330000</speed>
<extensions>
<speed>2.3</speed>
<temp>0.00</temp>
<bpm>0</bpm>
<rpm>0.00</rpm>
</extensions>
</trkpt>
<trkpt lat="64.041236877" lon="-20.390897751">
<ele>70.912109</ele>
<time>2012-07-20T18:40:49Z</time>
<speed>2.920000</speed>
<extensions>
<speed>2.9</speed>
<temp>0.00</temp>
<bpm>0</bpm>
<rpm>0.00</rpm>
</extensions>
</trkpt>
<trkpt lat="64.041175842" lon="-20.390628815">
<ele>70.701172</ele>
<time>2012-07-20T18:40:54Z</time>
<speed>3.060000</speed>
<extensions>
<speed>3.1</speed>
<temp>0.00</temp>
<bpm>0</bpm>
<rpm>0.00</rpm>
</extensions>
</trkpt>
<trkpt lat="64.041122437" lon="-20.390350342">
<ele>72.224609</ele>
<time>2012-07-20T18:40:59Z</time>
<speed>2.860000</speed>
<extensions>
<speed>2.9</speed>
<temp>0.00</temp>
<bpm>0</bpm>
<rpm>0.00</rpm>
</extensions>
</trkpt>
<trkpt lat="64.041061401" lon="-20.390094757">
<ele>71.714844</ele>
<time>2012-07-20T18:41:04Z</time>
<speed>2.940000</speed>
<extensions>
<speed>2.9</speed>
<temp>0.00</temp>
<bpm>0</bpm>
<rpm>0.00</rpm>
</extensions>
</trkpt>
<trkpt lat="64.040985107" lon="-20.389823914">
<ele>71.833984</ele>
<time>2012-07-20T18:41:09Z</time>
<speed>3.220000</speed>
<extensions>
<speed>3.2</speed>
<temp>0.00</temp>
<bpm>0</bpm>
<rpm>0.00</rpm>
</extensions>
</trkpt>
<trkpt lat="64.040924072" lon="-20.389524460">
<ele>71.093750</ele>
<time>2012-07-20T18:41:14Z</time>
<speed>3.260000</speed>
<extensions>
<speed>3.3</speed>
<temp>0.00</temp>
<bpm>0</bpm>
<rpm>0.00</rpm>
</extensions>
</trkpt>
<trkpt lat="64.040863037" lon="-20.389230728">
<ele>70.960938</ele>
<time>2012-07-20T18:41:19Z</time>
<speed>3.510000</speed>
<extensions>
<speed>3.5</speed>
<temp>0.00</temp>
<bpm>0</bpm>
<rpm>0.00</rpm>
</extensions>
</trkpt>
<trkpt lat="64.040786743" lon="-20.388904572">
<ele>69.867188</ele>
<time>2012-07-20T18:41:24Z</time>
<speed>3.650000</speed>
<extensions>
<speed>3.7</speed>
<temp>0.00</temp>
<bpm>0</bpm>
<rpm>0.00</rpm>
</extensions>
</trkpt>
<trkpt lat="64.040710449" lon="-20.388572693">
<ele>68.962891</ele>
<time>2012-07-20T18:41:29Z</time>
<speed>3.560000</speed>
<extensions>
<speed>3.6</speed>
<temp>0.00</temp>
<bpm>0</bpm>
<rpm>0.00</rpm>
</extensions>
</trkpt>
<trkpt lat="64.040641785" lon="-20.388248444">
<ele>70.255859</ele>
<time>2012-07-20T18:41:34Z</time>
<speed>3.720000</speed>
<extensions>
<speed>3.7</speed>
<temp>0.00</temp>
<bpm>0</bpm>
<rpm>0.00</rpm>
</extensions>
</trkpt>
<trkpt lat="64.040550232" lon="-20.387920380">
<ele>69.875000</ele>
<time>2012-07-20T18:41:39Z</time>
<speed>4.000000</speed>
<extensions>
<speed>4.0</speed>
<temp>0.00</temp>
<bpm>0</bpm>
<rpm>0.00</rpm>
</extensions>
</trkpt>
<trkpt lat="64.040473938" lon="-20.387548447">
<ele>70.951172</ele>
<time>2012-07-20T18:41:44Z</time>
<speed>4.010000</speed>
<extensions>
<speed>4.0</speed>
<temp>0.00</temp>
<bpm>0</bpm>
<rpm>0.00</rpm>
</extensions>
</trkpt>
<trkpt lat="64.040397644" lon="-20.387174606">
<ele>71.878906</ele>
<time>2012-07-20T18:41:49Z</time>
<speed>4.130000</speed>
<extensions>
<speed>4.1</speed>
<temp>0.00</temp>
<bpm>0</bpm>
<rpm>0.00</rpm>
</extensions>
</trkpt>
<trkpt lat="64.040313721" lon="-20.386804581">
<ele>71.892578</ele>
<time>2012-07-20T18:41:54Z</time>
<speed>4.200000</speed>
<extensions>
<speed>4.2</speed>
<temp>0.00</temp>
<bpm>0</bpm>
<rpm>0.00</rpm>
</extensions>
</trkpt>
<trkpt lat="64.040214539" lon="-20.386444092">
<ele>71.408203</ele>
<time>2012-07-20T18:41:59Z</time>
<speed>3.850000</speed>
<extensions>
<speed>3.8</speed>
<temp>0.00</temp>
<bpm>0</bpm>
<rpm>0.00</rpm>
</extensions>
</trkpt>
<trkpt lat="64.040138245" lon="-20.386083603">
<ele>70.916016</ele>
<time>2012-07-20T18:42:04Z</time>
<speed>4.170000</speed>
<extensions>
<speed>4.2</speed>
<temp>0.00</temp>
<bpm>0</bpm>
<rpm>0.00</rpm>
</extensions>
</trkpt>
<trkpt lat="64.040054321" lon="-20.385709763">
<ele>71.169922</ele>
<time>2012-07-20T18:42:09Z</time>
<speed>4.270000</speed>
<extensions>
<speed>4.3</speed>
<temp>0.00</temp>
<bpm>0</bpm>
<rpm>0.00</rpm>
</extensions>
</trkpt>
<trkpt lat="64.039962769" lon="-20.385334015">
<ele>71.443359</ele>
<time>2012-07-20T18:42:14Z</time>
<speed>3.950000</speed>
<extensions>
<speed>4.0</speed>
<temp>0.00</temp>
<bpm>0</bpm>
<rpm>0.00</rpm>
</extensions>
</trkpt>
<trkpt lat="64.039878845" lon="-20.384965897">
<ele>71.373047</ele>
<time>2012-07-20T18:42:19Z</time>
<speed>3.980000</speed>
<extensions>
<speed>4.0</speed>
<temp>0.00</temp>
<bpm>0</bpm>
<rpm>0.00</rpm>
</extensions>
</trkpt>
<trkpt lat="64.039794922" lon="-20.384576797">
<ele>71.234375</ele>
<time>2012-07-20T18:42:24Z</time>
<speed>4.370000</speed>
<extensions>
<speed>4.4</speed>
<temp>0.00</temp>
<bpm>0</bpm>
<rpm>0.00</rpm>
</extensions>
</trkpt>
<trkpt lat="64.039703369" lon="-20.384187698">
<ele>71.144531</ele>
<time>2012-07-20T18:42:29Z</time>
<speed>4.230000</speed>
<extensions>
<speed>4.2</speed>
<temp>0.00</temp>
<bpm>0</bpm>
<rpm>0.00</rpm>
</extensions>
</trkpt>
<trkpt lat="64.039611816" lon="-20.383796692">
<ele>71.082031</ele>
<time>2012-07-20T18:42:34Z</time>
<speed>4.210000</speed>
<extensions>
<speed>4.2</speed>
<temp>0.00</temp>
<bpm>0</bpm>
<rpm>0.00</rpm>
</extensions>
</trkpt>
<trkpt lat="64.039535522" lon="-20.383419037">
<ele>70.839844</ele>
<time>2012-07-20T18:42:39Z</time>
<speed>3.990000</speed>
<extensions>
<speed>4.0</speed>
<temp>0.00</temp>
<bpm>0</bpm>
<rpm>0.00</rpm>
</extensions>
</trkpt>
<trkpt lat="64.039443970" lon="-20.383058548">
<ele>70.412109</ele>
<time>2012-07-20T18:42:44Z</time>
<speed>4.130000</speed>
<extensions>
<speed>4.1</speed>
<temp>0.00</temp>
<bpm>0</bpm>
<rpm>0.00</rpm>
</extensions>
</trkpt>
<trkpt lat="64.039352417" lon="-20.382661819">
<ele>71.138672</ele>
<time>2012-07-20T18:42:49Z</time>
<speed>4.370000</speed>
<extensions>
<speed>4.4</speed>
<temp>0.00</temp>
<bpm>0</bpm>
<rpm>0.00</rpm>
</extensions>
</trkpt>
<trkpt lat="64.039268494" lon="-20.382270813">
<ele>70.628906</ele>
<time>2012-07-20T18:42:54Z</time>
<speed>4.340000</speed>
<extensions>
<speed>4.3</speed>
<temp>0.00</temp>
<bpm>0</bpm>
<rpm>0.00</rpm>
</extensions>
</trkpt>
<trkpt lat="64.039169312" lon="-20.381864548">
<ele>70.400391</ele>
<time>2012-07-20T18:42:59Z</time>
<speed>4.500000</speed>
<extensions>
<speed>4.5</speed>
<temp>0.00</temp>
<bpm>0</bpm>
<rpm>0.00</rpm>
</extensions>
</trkpt>
<trkpt lat="64.039085388" lon="-20.381443024">
<ele>69.361328</ele>
<time>2012-07-20T18:43:04Z</time>
<speed>4.730000</speed>
<extensions>
<speed>4.7</speed>
<temp>0.00</temp>
<bpm>0</bpm>
<rpm>0.00</rpm>
</extensions>
</trkpt>
<trkpt lat="64.038986206" lon="-20.381013870">
<ele>69.068359</ele>
<time>2012-07-20T18:43:09Z</time>
<speed>4.670000</speed>
<extensions>
<speed>4.7</speed>
<temp>0.00</temp>
<bpm>0</bpm>
<rpm>0.00</rpm>
</extensions>
</trkpt>
<trkpt lat="64.038887024" lon="-20.380590439">
<ele>67.693359</ele>
<time>2012-07-20T18:43:14Z</time>
<speed>4.610000</speed>
<extensions>
<speed>4.6</speed>
<temp>0.00</temp>
<bpm>0</bpm>
<rpm>0.00</rpm>
</extensions>
</trkpt>
<trkpt lat="64.038772583" lon="-20.380180359">
<ele>67.748047</ele>
<time>2012-07-20T18:43:19Z</time>
<speed>4.660000</speed>
<extensions>
<speed>4.7</speed>
<temp>0.00</temp>
<bpm>0</bpm>
<rpm>0.00</rpm>
</extensions>
</trkpt>
<trkpt lat="64.038681030" lon="-20.379756927">
<ele>67.708984</ele>
<time>2012-07-20T18:43:24Z</time>
<speed>4.610000</speed>
<extensions>
<speed>4.6</speed>
<temp>0.00</temp>
<bpm>0</bpm>
<rpm>0.00</rpm>
</extensions>
</trkpt>
<trkpt lat="64.038581848" lon="-20.379341125">
<ele>68.541016</ele>
<time>2012-07-20T18:43:29Z</time>
<speed>4.590000</speed>
<extensions>
<speed>4.6</speed>
<temp>0.00</temp>
<bpm>0</bpm>
<rpm>0.00</rpm>
</extensions>
</trkpt>
<trkpt lat="64.038490295" lon="-20.378927231">
<ele>67.931641</ele>
<time>2012-07-20T18:43:34Z</time>
<speed>4.680000</speed>
<extensions>
<speed>4.7</speed>
<temp>0.00</temp>
<bpm>0</bpm>
<rpm>0.00</rpm>
</extensions>
</trkpt>
<trkpt lat="64.038391113" lon="-20.378505707">
<ele>68.371094</ele>
<time>2012-07-20T18:43:39Z</time>
<speed>4.680000</speed>
<extensions>
<speed>4.7</speed>
<temp>0.00</temp>
<bpm>0</bpm>
<rpm>0.00</rpm>
</extensions>
</trkpt>
<trkpt lat="64.038299561" lon="-20.378080368">
<ele>69.486328</ele>
<time>2012-07-20T18:43:44Z</time>
<speed>4.620000</speed>
<extensions>
<speed>4.6</speed>
<temp>0.00</temp>
<bpm>0</bpm>
<rpm>0.00</rpm>
</extensions>
</trkpt>
<trkpt lat="64.038208008" lon="-20.377672195">
<ele>68.771484</ele>
<time>2012-07-20T18:43:49Z</time>
<speed>4.530000</speed>
<extensions>
<speed>4.5</speed>
<temp>0.00</temp>
<bpm>0</bpm>
<rpm>0.00</rpm>
</extensions>
</trkpt>
<trkpt lat="64.038108826" lon="-20.377252579">
<ele>68.562500</ele>
<time>2012-07-20T18:43:54Z</time>
<speed>4.610000</speed>
<extensions>
<speed>4.6</speed>
<temp>0.00</temp>
<bpm>0</bpm>
<rpm>0.00</rpm>
</extensions>
</trkpt>
<trkpt lat="64.038017273" lon="-20.376846313">
<ele>69.164063</ele>
<time>2012-07-20T18:43:59Z</time>
<speed>4.670000</speed>
<extensions>
<speed>4.7</speed>
<temp>0.00</temp>
<bpm>0</bpm>
<rpm>0.00</rpm>
</extensions>
</trkpt>
<trkpt lat="64.037918091" lon="-20.376422882">
<ele>69.390625</ele>
<time>2012-07-20T18:44:04Z</time>
<speed>4.660000</speed>
<extensions>
<speed>4.7</speed>
<temp>0.00</temp>
<bpm>0</bpm>
<rpm>0.00</rpm>
</extensions>
</trkpt>
<trkpt lat="64.037826538" lon="-20.376010895">
<ele>68.623047</ele>
<time>2012-07-20T18:44:09Z</time>
<speed>4.510000</speed>
<extensions>
<speed>4.5</speed>
<temp>0.00</temp>
<bpm>0</bpm>
<rpm>0.00</rpm>
</extensions>
</trkpt>
<trkpt lat="64.037727356" lon="-20.375598907">
<ele>68.062500</ele>
<time>2012-07-20T18:44:14Z</time>
<speed>4.570000</speed>
<extensions>
<speed>4.6</speed>
<temp>0.00</temp>
<bpm>0</bpm>
<rpm>0.00</rpm>
</extensions>
</trkpt>
<trkpt lat="64.037643433" lon="-20.375183105">
<ele>68.691406</ele>
<time>2012-07-20T18:44:19Z</time>
<speed>4.550000</speed>
<extensions>
<speed>4.5</speed>
<temp>0.00</temp>
<bpm>0</bpm>
<rpm>0.00</rpm>
</extensions>
</trkpt>
<trkpt lat="64.037551880" lon="-20.374759674">
<ele>68.423828</ele>
<time>2012-07-20T18:44:24Z</time>
<speed>4.580000</speed>
<extensions>
<speed>4.6</speed>
<temp>0.00</temp>
<bpm>0</bpm>
<rpm>0.00</rpm>
</extensions>
</trkpt>
<trkpt lat="64.037460327" lon="-20.374349594">
<ele>67.912109</ele>
<time>2012-07-20T18:44:29Z</time>
<speed>4.470000</speed>
<extensions>
<speed>4.5</speed>
<temp>0.00</temp>
<bpm>0</bpm>
<rpm>0.00</rpm>
</extensions>
</trkpt>
<trkpt lat="64.037361145" lon="-20.373954773">
<ele>67.904297</ele>
<time>2012-07-20T18:44:34Z</time>
<speed>4.510000</speed>
<extensions>
<speed>4.5</speed>
<temp>0.00</temp>
<bpm>0</bpm>
<rpm>0.00</rpm>
</extensions>
</trkpt>
<trkpt lat="64.037261963" lon="-20.373546600">
<ele>68.451172</ele>
<time>2012-07-20T18:44:39Z</time>
<speed>4.560000</speed>
<extensions>
<speed>4.6</speed>
<temp>0.00</temp>
<bpm>0</bpm>
<rpm>0.00</rpm>
</extensions>
</trkpt>
<trkpt lat="64.037162781" lon="-20.373142242">
<ele>68.158203</ele>
<time>2012-07-20T18:44:44Z</time>
<speed>4.580000</speed>
<extensions>
<speed>4.6</speed>
<temp>0.00</temp>
<bpm>0</bpm>
<rpm>0.00</rpm>
</extensions>
</trkpt>
<trkpt lat="64.037063599" lon="-20.372705460">
<ele>67.839844</ele>
<time>2012-07-20T18:44:49Z</time>
<speed>4.640000</speed>
<extensions>
<speed>4.6</speed>
<temp>0.00</temp>
<bpm>0</bpm>
<rpm>0.00</rpm>
</extensions>
</trkpt>
<trkpt lat="64.036972046" lon="-20.372291565">
<ele>68.875000</ele>
<time>2012-07-20T18:44:54Z</time>
<speed>4.410000</speed>
<extensions>
<speed>4.4</speed>
<temp>0.00</temp>
<bpm>0</bpm>
<rpm>0.00</rpm>
</extensions>
</trkpt>
<trkpt lat="64.036888123" lon="-20.371889114">
<ele>69.488281</ele>
<time>2012-07-20T18:44:59Z</time>
<speed>4.630000</speed>
<extensions>
<speed>4.6</speed>
<temp>0.00</temp>
<bpm>0</bpm>
<rpm>0.00</rpm>
</extensions>
</trkpt>
<trkpt lat="64.036781311" lon="-20.371494293">
<ele>68.695313</ele>
<time>2012-07-20T18:45:04Z</time>
<speed>4.400000</speed>
<extensions>
<speed>4.4</speed>
<temp>0.00</temp>
<bpm>0</bpm>
<rpm>0.00</rpm>
</extensions>
</trkpt>
<trkpt lat="64.036682129" lon="-20.371097565">
<ele>68.244141</ele>
<time>2012-07-20T18:45:09Z</time>
<speed>4.280000</speed>
<extensions>
<speed>4.3</speed>
<temp>0.00</temp>
<bpm>0</bpm>
<rpm>0.00</rpm>
</extensions>
</trkpt>
<trkpt lat="64.036605835" lon="-20.370700836">
<ele>68.861328</ele>
<time>2012-07-20T18:45:14Z</time>
<speed>4.350000</speed>
<extensions>
<speed>4.3</speed>
<temp>0.00</temp>
<bpm>0</bpm>
<rpm>0.00</rpm>
</extensions>
</trkpt>
<trkpt lat="64.036521912" lon="-20.370313644">
<ele>69.250000</ele>
<time>2012-07-20T18:45:19Z</time>
<speed>4.130000</speed>
<extensions>
<speed>4.1</speed>
<temp>0.00</temp>
<bpm>0</bpm>
<rpm>0.00</rpm>
</extensions>
</trkpt>
<trkpt lat="64.036430359" lon="-20.369934082">
<ele>68.253906</ele>
<time>2012-07-20T18:45:24Z</time>
<speed>4.260000</speed>
<extensions>
<speed>4.3</speed>
<temp>0.00</temp>
<bpm>0</bpm>
<rpm>0.00</rpm>
</extensions>
</trkpt>
<trkpt lat="64.036354065" lon="-20.369577408">
<ele>67.130859</ele>
<time>2012-07-20T18:45:29Z</time>
<speed>4.100000</speed>
<extensions>
<speed>4.1</speed>
<temp>0.00</temp>
<bpm>0</bpm>
<rpm>0.00</rpm>
</extensions>
</trkpt>
<trkpt lat="64.036270142" lon="-20.369197845">
<ele>68.277344</ele>
<time>2012-07-20T18:45:34Z</time>
<speed>3.800000</speed>
<extensions>
<speed>3.8</speed>
<temp>0.00</temp>
<bpm>0</bpm>
<rpm>0.00</rpm>
</extensions>
</trkpt>
<trkpt lat="64.036178589" lon="-20.368829727">
<ele>69.410156</ele>
<time>2012-07-20T18:45:39Z</time>
<speed>4.000000</speed>
<extensions>
<speed>4.0</speed>
<temp>0.00</temp>
<bpm>0</bpm>
<rpm>0.00</rpm>
</extensions>
</trkpt>
<trkpt lat="64.036102295" lon="-20.368476868">
<ele>70.527344</ele>
<time>2012-07-20T18:45:44Z</time>
<speed>3.840000</speed>
<extensions>
<speed>3.8</speed>
<temp>0.00</temp>
<bpm>0</bpm>
<rpm>0.00</rpm>
</extensions>
</trkpt>
<trkpt lat="64.036018372" lon="-20.368116379">
<ele>70.542969</ele>
<time>2012-07-20T18:45:49Z</time>
<speed>3.980000</speed>
<extensions>
<speed>4.0</speed>
<temp>0.00</temp>
<bpm>0</bpm>
<rpm>0.00</rpm>
</extensions>
</trkpt>
<trkpt lat="64.035949707" lon="-20.367765427">
<ele>71.134766</ele>
<time>2012-07-20T18:45:54Z</time>
<speed>3.770000</speed>
<extensions>
<speed>3.8</speed>
<temp>0.00</temp>
<bpm>0</bpm>
<rpm>0.00</rpm>
</extensions>
</trkpt>
<trkpt lat="64.035858154" lon="-20.367408752">
<ele>70.812500</ele>
<time>2012-07-20T18:45:59Z</time>
<speed>4.030000</speed>
<extensions>
<speed>4.0</speed>
<temp>0.00</temp>
<bpm>0</bpm>
<rpm>0.00</rpm>
</extensions>
</trkpt>
<trkpt lat="64.035781860" lon="-20.367063522">
<ele>72.160156</ele>
<time>2012-07-20T18:46:04Z</time>
<speed>3.830000</speed>
<extensions>
<speed>3.8</speed>
<temp>0.00</temp>
<bpm>0</bpm>
<rpm>0.00</rpm>
</extensions>
</trkpt>
<trkpt lat="64.035705566" lon="-20.366724014">
<ele>72.519531</ele>
<time>2012-07-20T18:46:09Z</time>
<speed>3.370000</speed>
<extensions>
<speed>3.4</speed>
<temp>0.00</temp>
<bpm>0</bpm>
<rpm>0.00</rpm>
</extensions>
</trkpt>
<trkpt lat="64.035629272" lon="-20.366416931">
<ele>73.869141</ele>
<time>2012-07-20T18:46:14Z</time>
<speed>3.430000</speed>
<extensions>
<speed>3.4</speed>
<temp>0.00</temp>
<bpm>0</bpm>
<rpm>0.00</rpm>
</extensions>
</trkpt>
<trkpt lat="64.035560608" lon="-20.366100311">
<ele>73.511719</ele>
<time>2012-07-20T18:46:19Z</time>
<speed>3.540000</speed>
<extensions>
<speed>3.5</speed>
<temp>0.00</temp>
<bpm>0</bpm>
<rpm>0.00</rpm>
</extensions>
</trkpt>
<trkpt lat="64.035491943" lon="-20.365766525">
<ele>74.103516</ele>
<time>2012-07-20T18:46:24Z</time>
<speed>3.800000</speed>
<extensions>
<speed>3.8</speed>
<temp>0.00</temp>
<bpm>0</bpm>
<rpm>0.00</rpm>
</extensions>
</trkpt>
<trkpt lat="64.035408020" lon="-20.365438461">
<ele>73.468750</ele>
<time>2012-07-20T18:46:29Z</time>
<speed>3.640000</speed>
<extensions>
<speed>3.6</speed>
<temp>0.00</temp>
<bpm>0</bpm>
<rpm>0.00</rpm>
</extensions>
</trkpt>
<trkpt lat="64.035331726" lon="-20.365098953">
<ele>74.328125</ele>
<time>2012-07-20T18:46:34Z</time>
<speed>3.700000</speed>
<extensions>
<speed>3.7</speed>
<temp>0.00</temp>
<bpm>0</bpm>
<rpm>0.00</rpm>
</extensions>
</trkpt>
<trkpt lat="64.035255432" lon="-20.364746094">
<ele>73.544922</ele>
<time>2012-07-20T18:46:39Z</time>
<speed>3.920000</speed>
<extensions>
<speed>3.9</speed>
<temp>0.00</temp>
<bpm>0</bpm>
<rpm>0.00</rpm>
</extensions>
</trkpt>
<trkpt lat="64.035163879" lon="-20.364393234">
<ele>74.353516</ele>
<time>2012-07-20T18:46:44Z</time>
<speed>3.970000</speed>
<extensions>
<speed>4.0</speed>
<temp>0.00</temp>
<bpm>0</bpm>
<rpm>0.00</rpm>
</extensions>
</trkpt>
<trkpt lat="64.035102844" lon="-20.364091873">
<ele>74.197266</ele>
<time>2012-07-20T18:46:49Z</time>
<speed>3.130000</speed>
<extensions>
<speed>3.1</speed>
<temp>0.00</temp>
<bpm>0</bpm>
<rpm>0.00</rpm>
</extensions>
</trkpt>
<trkpt lat="64.035041809" lon="-20.363805771">
<ele>74.779297</ele>
<time>2012-07-20T18:46:54Z</time>
<speed>3.340000</speed>
<extensions>
<speed>3.3</speed>
<temp>0.00</temp>
<bpm>0</bpm>
<rpm>0.00</rpm>
</extensions>
</trkpt>
<trkpt lat="64.034965515" lon="-20.363492966">
<ele>75.511719</ele>
<time>2012-07-20T18:46:59Z</time>
<speed>3.470000</speed>
<extensions>
<speed>3.5</speed>
<temp>0.00</temp>
<bpm>0</bpm>
<rpm>0.00</rpm>
</extensions>
</trkpt>
<trkpt lat="64.034896851" lon="-20.363168716">
<ele>75.250000</ele>
<time>2012-07-20T18:47:04Z</time>
<speed>3.630000</speed>
<extensions>
<speed>3.6</speed>
<temp>0.00</temp>
<bpm>0</bpm>
<rpm>0.00</rpm>
</extensions>
</trkpt>
<trkpt lat="64.034812927" lon="-20.362819672">
<ele>74.144531</ele>
<time>2012-07-20T18:47:09Z</time>
<speed>4.180000</speed>
<extensions>
<speed>4.2</speed>
<temp>0.00</temp>
<bpm>0</bpm>
<rpm>0.00</rpm>
</extensions>
</trkpt>
<trkpt lat="64.034721375" lon="-20.362432480">
<ele>74.642578</ele>
<time>2012-07-20T18:47:14Z</time>
<speed>4.320000</speed>
<extensions>
<speed>4.3</speed>
<temp>0.00</temp>
<bpm>0</bpm>
<rpm>0.00</rpm>
</extensions>
</trkpt>
<trkpt lat="64.034637451" lon="-20.362033844">
<ele>74.677734</ele>
<time>2012-07-20T18:47:19Z</time>
<speed>4.340000</speed>
<extensions>
<speed>4.3</speed>
<temp>0.00</temp>
<bpm>0</bpm>
<rpm>0.00</rpm>
</extensions>
</trkpt>
<trkpt lat="64.034545898" lon="-20.361652374">
<ele>75.673828</ele>
<time>2012-07-20T18:47:24Z</time>
<speed>4.250000</speed>
<extensions>
<speed>4.3</speed>
<temp>0.00</temp>
<bpm>0</bpm>
<rpm>0.00</rpm>
</extensions>
</trkpt>
<trkpt lat="64.034454346" lon="-20.361244202">
<ele>76.218750</ele>
<time>2012-07-20T18:47:29Z</time>
<speed>4.430000</speed>
<extensions>
<speed>4.4</speed>
<temp>0.00</temp>
<bpm>0</bpm>
<rpm>0.00</rpm>
</extensions>
</trkpt>
<trkpt lat="64.034362793" lon="-20.360832214">
<ele>76.515625</ele>
<time>2012-07-20T18:47:34Z</time>
<speed>4.590000</speed>
<extensions>
<speed>4.6</speed>
<temp>0.00</temp>
<bpm>0</bpm>
<rpm>0.00</rpm>
</extensions>
</trkpt>
<trkpt lat="64.034278870" lon="-20.360460281">
<ele>76.466797</ele>
<time>2012-07-20T18:47:39Z</time>
<speed>3.640000</speed>
<extensions>
<speed>3.6</speed>
<temp>0.00</temp>
<bpm>0</bpm>
<rpm>0.00</rpm>
</extensions>
</trkpt>
<trkpt lat="64.034217834" lon="-20.360164642">
<ele>76.601563</ele>
<time>2012-07-20T18:47:44Z</time>
<speed>3.440000</speed>
<extensions>
<speed>3.4</speed>
<temp>0.00</temp>
<bpm>0</bpm>
<rpm>0.00</rpm>
</extensions>
</trkpt>
<trkpt lat="64.034133911" lon="-20.359825134">
<ele>76.636719</ele>
<time>2012-07-20T18:47:49Z</time>
<speed>3.920000</speed>
<extensions>
<speed>3.9</speed>
<temp>0.00</temp>
<bpm>0</bpm>
<rpm>0.00</rpm>
</extensions>
</trkpt>
<trkpt lat="64.034049988" lon="-20.359457016">
<ele>76.642578</ele>
<time>2012-07-20T18:47:54Z</time>
<speed>4.180000</speed>
<extensions>
<speed>4.2</speed>
<temp>0.00</temp>
<bpm>0</bpm>
<rpm>0.00</rpm>
</extensions>
</trkpt>
<trkpt lat="64.033966064" lon="-20.359079361">
<ele>76.955078</ele>
<time>2012-07-20T18:47:59Z</time>
<speed>4.230000</speed>
<extensions>
<speed>4.2</speed>
<temp>0.00</temp>
<bpm>0</bpm>
<rpm>0.00</rpm>
</extensions>
</trkpt>
<trkpt lat="64.033882141" lon="-20.358669281">
<ele>78.466797</ele>
<time>2012-07-20T18:48:04Z</time>
<speed>4.440000</speed>
<extensions>
<speed>4.4</speed>
<temp>0.00</temp>
<bpm>0</bpm>
<rpm>0.00</rpm>
</extensions>
</trkpt>
<trkpt lat="64.033782959" lon="-20.358255386">
<ele>77.833984</ele>
<time>2012-07-20T18:48:09Z</time>
<speed>4.640000</speed>
<extensions>
<speed>4.6</speed>
<temp>0.00</temp>
<bpm>0</bpm>
<rpm>0.00</rpm>
</extensions>
</trkpt>
<trkpt lat="64.033683777" lon="-20.357849121">
<ele>75.964844</ele>
<time>2012-07-20T18:48:14Z</time>
<speed>4.570000</speed>
<extensions>
<speed>4.6</speed>
<temp>0.00</temp>
<bpm>0</bpm>
<rpm>0.00</rpm>
</extensions>
</trkpt>
<trkpt lat="64.033607483" lon="-20.357423782">
<ele>74.619141</ele>
<time>2012-07-20T18:48:19Z</time>
<speed>4.940000</speed>
<extensions>
<speed>4.9</speed>
<temp>0.00</temp>
<bpm>0</bpm>
<rpm>0.00</rpm>
</extensions>
</trkpt>
<trkpt lat="64.033546448" lon="-20.356929779">
<ele>73.406250</ele>
<time>2012-07-20T18:48:24Z</time>
<speed>4.880000</speed>
<extensions>
<speed>4.9</speed>
<temp>0.00</temp>
<bpm>0</bpm>
<rpm>0.00</rpm>
</extensions>
</trkpt>
<trkpt lat="64.033493042" lon="-20.356451035">
<ele>74.687500</ele>
<time>2012-07-20T18:48:29Z</time>
<speed>4.480000</speed>
<extensions>
<speed>4.5</speed>
<temp>0.00</temp>
<bpm>0</bpm>
<rpm>0.00</rpm>
</extensions>
</trkpt>
<trkpt lat="64.033447266" lon="-20.356044769">
<ele>74.958984</ele>
<time>2012-07-20T18:48:34Z</time>
<speed>4.200000</speed>
<extensions>
<speed>4.2</speed>
<temp>0.00</temp>
<bpm>0</bpm>
<rpm>0.00</rpm>
</extensions>
</trkpt>
<trkpt lat="64.033416748" lon="-20.355596542">
<ele>76.083984</ele>
<time>2012-07-20T18:48:39Z</time>
<speed>4.570000</speed>
<extensions>
<speed>4.6</speed>
<temp>0.00</temp>
<bpm>0</bpm>
<rpm>0.00</rpm>
</extensions>
</trkpt>
<trkpt lat="64.033409119" lon="-20.355129242">
<ele>76.974609</ele>
<time>2012-07-20T18:48:44Z</time>
<speed>4.700000</speed>
<extensions>
<speed>4.7</speed>
<temp>0.00</temp>
<bpm>0</bpm>
<rpm>0.00</rpm>
</extensions>
</trkpt>
<trkpt lat="64.033409119" lon="-20.354635239">
<ele>77.560547</ele>
<time>2012-07-20T18:48:49Z</time>
<speed>4.950000</speed>
<extensions>
<speed>4.9</speed>
<temp>0.00</temp>
<bpm>0</bpm>
<rpm>0.00</rpm>
</extensions>
</trkpt>
<trkpt lat="64.033409119" lon="-20.354154587">
<ele>77.589844</ele>
<time>2012-07-20T18:48:54Z</time>
<speed>4.280000</speed>
<extensions>
<speed>4.3</speed>
<temp>0.00</temp>
<bpm>0</bpm>
<rpm>0.00</rpm>
</extensions>
</trkpt>
<trkpt lat="64.033432007" lon="-20.353776932">
<ele>77.865234</ele>
<time>2012-07-20T18:48:59Z</time>
<speed>3.620000</speed>
<extensions>
<speed>3.6</speed>
<temp>0.00</temp>
<bpm>0</bpm>
<rpm>0.00</rpm>
</extensions>
</trkpt>
<trkpt lat="64.033462524" lon="-20.353370667">
<ele>77.419922</ele>
<time>2012-07-20T18:49:04Z</time>
<speed>4.220000</speed>
<extensions>
<speed>4.2</speed>
<temp>0.00</temp>
<bpm>0</bpm>
<rpm>0.00</rpm>
</extensions>
</trkpt>
<trkpt lat="64.033515930" lon="-20.352977753">
<ele>76.644531</ele>
<time>2012-07-20T18:49:09Z</time>
<speed>3.750000</speed>
<extensions>
<speed>3.8</speed>
<temp>0.00</temp>
<bpm>0</bpm>
<rpm>0.00</rpm>
</extensions>
</trkpt>
<trkpt lat="64.033554077" lon="-20.352592468">
<ele>76.402344</ele>
<time>2012-07-20T18:49:14Z</time>
<speed>4.030000</speed>
<extensions>
<speed>4.0</speed>
<temp>0.00</temp>
<bpm>0</bpm>
<rpm>0.00</rpm>
</extensions>
</trkpt>
<trkpt lat="64.033607483" lon="-20.352186203">
<ele>76.718750</ele>
<time>2012-07-20T18:49:19Z</time>
<speed>4.130000</speed>
<extensions>
<speed>4.1</speed>
<temp>0.00</temp>
<bpm>0</bpm>
<rpm>0.00</rpm>
</extensions>
</trkpt>
<trkpt lat="64.033668518" lon="-20.351751328">
<ele>77.402344</ele>
<time>2012-07-20T18:49:24Z</time>
<speed>4.700000</speed>
<extensions>
<speed>4.7</speed>
<temp>0.00</temp>
<bpm>0</bpm>
<rpm>0.00</rpm>
</extensions>
</trkpt>
<trkpt lat="64.033737183" lon="-20.351293564">
<ele>77.734375</ele>
<time>2012-07-20T18:49:29Z</time>
<speed>4.440000</speed>
<extensions>
<speed>4.4</speed>
<temp>0.00</temp>
<bpm>0</bpm>
<rpm>0.00</rpm>
</extensions>
</trkpt>
<trkpt lat="64.033790588" lon="-20.350881577">
<ele>76.937500</ele>
<time>2012-07-20T18:49:34Z</time>
<speed>4.200000</speed>
<extensions>
<speed>4.2</speed>
<temp>0.00</temp>
<bpm>0</bpm>
<rpm>0.00</rpm>
</extensions>
</trkpt>
<trkpt lat="64.033851624" lon="-20.350454330">
<ele>76.173828</ele>
<time>2012-07-20T18:49:39Z</time>
<speed>4.410000</speed>
<extensions>
<speed>4.4</speed>
<temp>0.00</temp>
<bpm>0</bpm>
<rpm>0.00</rpm>
</extensions>
</trkpt>
<trkpt lat="64.033920288" lon="-20.350019455">
<ele>76.525391</ele>
<time>2012-07-20T18:49:44Z</time>
<speed>4.410000</speed>
<extensions>
<speed>4.4</speed>
<temp>0.00</temp>
<bpm>0</bpm>
<rpm>0.00</rpm>
</extensions>
</trkpt>
<trkpt lat="64.033981323" lon="-20.349594116">
<ele>77.078125</ele>
<time>2012-07-20T18:49:49Z</time>
<speed>4.330000</speed>
<extensions>
<speed>4.3</speed>
<temp>0.00</temp>
<bpm>0</bpm>
<rpm>0.00</rpm>
</extensions>
</trkpt>
<trkpt lat="64.034034729" lon="-20.349182129">
<ele>76.994141</ele>
<time>2012-07-20T18:49:54Z</time>
<speed>4.320000</speed>
<extensions>
<speed>4.3</speed>
<temp>0.00</temp>
<bpm>0</bpm>
<rpm>0.00</rpm>
</extensions>
</trkpt>
<trkpt lat="64.034095764" lon="-20.348756790">
<ele>78.167969</ele>
<time>2012-07-20T18:49:59Z</time>
<speed>4.210000</speed>
<extensions>
<speed>4.2</speed>
<temp>0.00</temp>
<bpm>0</bpm>
<rpm>0.00</rpm>
</extensions>
</trkpt>
<trkpt lat="64.034149170" lon="-20.348329544">
<ele>78.431641</ele>
<time>2012-07-20T18:50:04Z</time>
<speed>4.460000</speed>
<extensions>
<speed>4.5</speed>
<temp>0.00</temp>
<bpm>0</bpm>
<rpm>0.00</rpm>
</extensions>
</trkpt>
<trkpt lat="64.034202576" lon="-20.347885132">
<ele>80.126953</ele>
<time>2012-07-20T18:50:09Z</time>
<speed>4.450000</speed>
<extensions>
<speed>4.5</speed>
<temp>0.00</temp>
<bpm>0</bpm>
<rpm>0.00</rpm>
</extensions>
</trkpt>
<trkpt lat="64.034255981" lon="-20.347427368">
<ele>81.619141</ele>
<time>2012-07-20T18:50:14Z</time>
<speed>4.540000</speed>
<extensions>
<speed>4.5</speed>
<temp>0.00</temp>
<bpm>0</bpm>
<rpm>0.00</rpm>
</extensions>
</trkpt>
<trkpt lat="64.034309387" lon="-20.346981049">
<ele>80.453125</ele>
<time>2012-07-20T18:50:19Z</time>
<speed>4.440000</speed>
<extensions>
<speed>4.4</speed>
<temp>0.00</temp>
<bpm>0</bpm>
<rpm>0.00</rpm>
</extensions>
</trkpt>
<trkpt lat="64.034339905" lon="-20.346536636">
<ele>79.462891</ele>
<time>2012-07-20T18:50:24Z</time>
<speed>4.550000</speed>
<extensions>
<speed>4.5</speed>
<temp>0.00</temp>
<bpm>0</bpm>
<rpm>0.00</rpm>
</extensions>
</trkpt>
<trkpt lat="64.034370422" lon="-20.346086502">
<ele>78.681641</ele>
<time>2012-07-20T18:50:29Z</time>
<speed>4.610000</speed>
<extensions>
<speed>4.6</speed>
<temp>0.00</temp>
<bpm>0</bpm>
<rpm>0.00</rpm>
</extensions>
</trkpt>
<trkpt lat="64.034385681" lon="-20.345626831">
<ele>78.376953</ele>
<time>2012-07-20T18:50:34Z</time>
<speed>4.470000</speed>
<extensions>
<speed>4.5</speed>
<temp>0.00</temp>
<bpm>0</bpm>
<rpm>0.00</rpm>
</extensions>
</trkpt>
<trkpt lat="64.034408569" lon="-20.345203400">
<ele>78.335938</ele>
<time>2012-07-20T18:50:39Z</time>
<speed>4.140000</speed>
<extensions>
<speed>4.1</speed>
<temp>0.00</temp>
<bpm>0</bpm>
<rpm>0.00</rpm>
</extensions>
</trkpt>
<trkpt lat="64.034416199" lon="-20.344793320">
<ele>79.064453</ele>
<time>2012-07-20T18:50:44Z</time>
<speed>3.900000</speed>
<extensions>
<speed>3.9</speed>
<temp>0.00</temp>
<bpm>0</bpm>
<rpm>0.00</rpm>
</extensions>
</trkpt>
<trkpt lat="64.034423828" lon="-20.344392776">
<ele>79.642578</ele>
<time>2012-07-20T18:50:49Z</time>
<speed>3.920000</speed>
<extensions>
<speed>3.9</speed>
<temp>0.00</temp>
<bpm>0</bpm>
<rpm>0.00</rpm>
</extensions>
</trkpt>
<trkpt lat="64.034439087" lon="-20.343988419">
<ele>79.148438</ele>
<time>2012-07-20T18:50:54Z</time>
<speed>3.760000</speed>
<extensions>
<speed>3.8</speed>
<temp>0.00</temp>
<bpm>0</bpm>
<rpm>0.00</rpm>
</extensions>
</trkpt>
<trkpt lat="64.034439087" lon="-20.343608856">
<ele>79.023438</ele>
<time>2012-07-20T18:50:59Z</time>
<speed>4.110000</speed>
<extensions>
<speed>4.1</speed>
<temp>0.00</temp>
<bpm>0</bpm>
<rpm>0.00</rpm>
</extensions>
</trkpt>
<trkpt lat="64.034439087" lon="-20.343193054">
<ele>78.917969</ele>
<time>2012-07-20T18:51:04Z</time>
<speed>4.280000</speed>
<extensions>
<speed>4.3</speed>
<temp>0.00</temp>
<bpm>0</bpm>
<rpm>0.00</rpm>
</extensions>
</trkpt>
<trkpt lat="64.034439087" lon="-20.342723846">
<ele>77.919922</ele>
<time>2012-07-20T18:51:09Z</time>
<speed>4.800000</speed>
<extensions>
<speed>4.8</speed>
<temp>0.00</temp>
<bpm>0</bpm>
<rpm>0.00</rpm>
</extensions>
</trkpt>
<trkpt lat="64.034431458" lon="-20.342224121">
<ele>77.408203</ele>
<time>2012-07-20T18:51:14Z</time>
<speed>5.200000</speed>
<extensions>
<speed>5.2</speed>
<temp>0.00</temp>
<bpm>0</bpm>
<rpm>0.00</rpm>
</extensions>
</trkpt>
<trkpt lat="64.034439087" lon="-20.341651917">
<ele>77.220703</ele>
<time>2012-07-20T18:51:19Z</time>
<speed>5.650000</speed>
<extensions>
<speed>5.7</speed>
<temp>0.00</temp>
<bpm>0</bpm>
<rpm>0.00</rpm>
</extensions>
</trkpt>
<trkpt lat="64.034423828" lon="-20.341064453">
<ele>77.494141</ele>
<time>2012-07-20T18:51:24Z</time>
<speed>5.600000</speed>
<extensions>
<speed>5.6</speed>
<temp>0.00</temp>
<bpm>0</bpm>
<rpm>0.00</rpm>
</extensions>
</trkpt>
<trkpt lat="64.034408569" lon="-20.340511322">
<ele>77.583984</ele>
<time>2012-07-20T18:51:29Z</time>
<speed>5.200000</speed>
<extensions>
<speed>5.2</speed>
<temp>0.00</temp>
<bpm>0</bpm>
<rpm>0.00</rpm>
</extensions>
</trkpt>
<trkpt lat="64.034393311" lon="-20.339981079">
<ele>77.519531</ele>
<time>2012-07-20T18:51:34Z</time>
<speed>5.300000</speed>
<extensions>
<speed>5.3</speed>
<temp>0.00</temp>
<bpm>0</bpm>
<rpm>0.00</rpm>
</extensions>
</trkpt>
<trkpt lat="64.034378052" lon="-20.339437485">
<ele>77.869141</ele>
<time>2012-07-20T18:51:39Z</time>
<speed>5.080000</speed>
<extensions>
<speed>5.1</speed>
<temp>0.00</temp>
<bpm>0</bpm>
<rpm>0.00</rpm>
</extensions>
</trkpt>
<trkpt lat="64.034370422" lon="-20.338956833">
<ele>78.708984</ele>
<time>2012-07-20T18:51:44Z</time>
<speed>4.590000</speed>
<extensions>
<speed>4.6</speed>
<temp>0.00</temp>
<bpm>0</bpm>
<rpm>0.00</rpm>
</extensions>
</trkpt>
<trkpt lat="64.034355164" lon="-20.338533401">
<ele>79.447266</ele>
<time>2012-07-20T18:51:49Z</time>
<speed>3.960000</speed>
<extensions>
<speed>4.0</speed>
<temp>0.00</temp>
<bpm>0</bpm>
<rpm>0.00</rpm>
</extensions>
</trkpt>
<trkpt lat="64.034339905" lon="-20.338132858">
<ele>80.142578</ele>
<time>2012-07-20T18:51:54Z</time>
<speed>3.840000</speed>
<extensions>
<speed>3.8</speed>
<temp>0.00</temp>
<bpm>0</bpm>
<rpm>0.00</rpm>
</extensions>
</trkpt>
<trkpt lat="64.034339905" lon="-20.337730408">
<ele>81.527344</ele>
<time>2012-07-20T18:51:59Z</time>
<speed>3.860000</speed>
<extensions>
<speed>3.9</speed>
<temp>0.00</temp>
<bpm>0</bpm>
<rpm>0.00</rpm>
</extensions>
</trkpt>
<trkpt lat="64.034332275" lon="-20.337326050">
<ele>81.869141</ele>
<time>2012-07-20T18:52:04Z</time>
<speed>4.120000</speed>
<extensions>
<speed>4.1</speed>
<temp>0.00</temp>
<bpm>0</bpm>
<rpm>0.00</rpm>
</extensions>
</trkpt>
<trkpt lat="64.034324646" lon="-20.336906433">
<ele>82.296875</ele>
<time>2012-07-20T18:52:09Z</time>
<speed>4.260000</speed>
<extensions>
<speed>4.3</speed>
<temp>0.00</temp>
<bpm>0</bpm>
<rpm>0.00</rpm>
</extensions>
</trkpt>
<trkpt lat="64.034317017" lon="-20.336490631">
<ele>82.496094</ele>
<time>2012-07-20T18:52:14Z</time>
<speed>3.400000</speed>
<extensions>
<speed>3.4</speed>
<temp>0.00</temp>
<bpm>0</bpm>
<rpm>0.00</rpm>
</extensions>
</trkpt>
<trkpt lat="64.034309387" lon="-20.336122513">
<ele>82.720703</ele>
<time>2012-07-20T18:52:19Z</time>
<speed>3.830000</speed>
<extensions>
<speed>3.8</speed>
<temp>0.00</temp>
<bpm>0</bpm>
<rpm>0.00</rpm>
</extensions>
</trkpt>
<trkpt lat="64.034309387" lon="-20.335710526">
<ele>82.478516</ele>
<time>2012-07-20T18:52:24Z</time>
<speed>4.180000</speed>
<extensions>
<speed>4.2</speed>
<temp>0.00</temp>
<bpm>0</bpm>
<rpm>0.00</rpm>
</extensions>
</trkpt>
<trkpt lat="64.034309387" lon="-20.335292816">
<ele>82.330078</ele>
<time>2012-07-20T18:52:29Z</time>
<speed>4.120000</speed>
<extensions>
<speed>4.1</speed>
<temp>0.00</temp>
<bpm>0</bpm>
<rpm>0.00</rpm>
</extensions>
</trkpt>
<trkpt lat="64.034339905" lon="-20.334869385">
<ele>80.951172</ele>
<time>2012-07-20T18:52:34Z</time>
<speed>4.220000</speed>
<extensions>
<speed>4.2</speed>
<temp>0.00</temp>
<bpm>0</bpm>
<rpm>0.00</rpm>
</extensions>
</trkpt>
<trkpt lat="64.034362793" lon="-20.334415436">
<ele>80.019531</ele>
<time>2012-07-20T18:52:39Z</time>
<speed>4.640000</speed>
<extensions>
<speed>4.6</speed>
<temp>0.00</temp>
<bpm>0</bpm>
<rpm>0.00</rpm>
</extensions>
</trkpt>
<trkpt lat="64.034393311" lon="-20.333938599">
<ele>79.431641</ele>
<time>2012-07-20T18:52:44Z</time>
<speed>4.740000</speed>
<extensions>
<speed>4.7</speed>
<temp>0.00</temp>
<bpm>0</bpm>
<rpm>0.00</rpm>
</extensions>
</trkpt>
<trkpt lat="64.034431458" lon="-20.333482742">
<ele>79.343750</ele>
<time>2012-07-20T18:52:49Z</time>
<speed>4.450000</speed>
<extensions>
<speed>4.5</speed>
<temp>0.00</temp>
<bpm>0</bpm>
<rpm>0.00</rpm>
</extensions>
</trkpt>
<trkpt lat="64.034469604" lon="-20.333038330">
<ele>82.052734</ele>
<time>2012-07-20T18:52:54Z</time>
<speed>4.450000</speed>
<extensions>
<speed>4.5</speed>
<temp>0.00</temp>
<bpm>0</bpm>
<rpm>0.00</rpm>
</extensions>
</trkpt>
<trkpt lat="64.034507751" lon="-20.332593918">
<ele>82.626953</ele>
<time>2012-07-20T18:52:59Z</time>
<speed>4.330000</speed>
<extensions>
<speed>4.3</speed>
<temp>0.00</temp>
<bpm>0</bpm>
<rpm>0.00</rpm>
</extensions>
</trkpt>
<trkpt lat="64.034553528" lon="-20.332191467">
<ele>84.232422</ele>
<time>2012-07-20T18:53:04Z</time>
<speed>3.770000</speed>
<extensions>
<speed>3.8</speed>
<temp>0.00</temp>
<bpm>0</bpm>
<rpm>0.00</rpm>
</extensions>
</trkpt>
<trkpt lat="64.034599304" lon="-20.331756592">
<ele>85.093750</ele>
<time>2012-07-20T18:53:09Z</time>
<speed>4.510000</speed>
<extensions>
<speed>4.5</speed>
<temp>0.00</temp>
<bpm>0</bpm>
<rpm>0.00</rpm>
</extensions>
</trkpt>
<trkpt lat="64.034652710" lon="-20.331329346">
<ele>87.029297</ele>
<time>2012-07-20T18:53:14Z</time>
<speed>4.290000</speed>
<extensions>
<speed>4.3</speed>
<temp>0.00</temp>
<bpm>0</bpm>
<rpm>0.00</rpm>
</extensions>
</trkpt>
<trkpt lat="64.034698486" lon="-20.330888748">
<ele>87.263672</ele>
<time>2012-07-20T18:53:19Z</time>
<speed>4.680000</speed>
<extensions>
<speed>4.7</speed>
<temp>0.00</temp>
<bpm>0</bpm>
<rpm>0.00</rpm>
</extensions>
</trkpt>
<trkpt lat="64.034751892" lon="-20.330446243">
<ele>88.435547</ele>
<time>2012-07-20T18:53:24Z</time>
<speed>4.350000</speed>
<extensions>
<speed>4.3</speed>
<temp>0.00</temp>
<bpm>0</bpm>
<rpm>0.00</rpm>
</extensions>
</trkpt>
<trkpt lat="64.034797668" lon="-20.330024719">
<ele>88.958984</ele>
<time>2012-07-20T18:53:29Z</time>
<speed>3.700000</speed>
<extensions>
<speed>3.7</speed>
<temp>0.00</temp>
<bpm>0</bpm>
<rpm>0.00</rpm>
</extensions>
</trkpt>
<trkpt lat="64.034828186" lon="-20.329654694">
<ele>89.474609</ele>
<time>2012-07-20T18:53:34Z</time>
<speed>4.080000</speed>
<extensions>
<speed>4.1</speed>
<temp>0.00</temp>
<bpm>0</bpm>
<rpm>0.00</rpm>
</extensions>
</trkpt>
<trkpt lat="64.034866333" lon="-20.329288483">
<ele>90.515625</ele>
<time>2012-07-20T18:53:39Z</time>
<speed>3.820000</speed>
<extensions>
<speed>3.8</speed>
<temp>0.00</temp>
<bpm>0</bpm>
<rpm>0.00</rpm>
</extensions>
</trkpt>
<trkpt lat="64.034896851" lon="-20.328931808">
<ele>88.580078</ele>
<time>2012-07-20T18:53:44Z</time>
<speed>3.640000</speed>
<extensions>
<speed>3.6</speed>
<temp>0.00</temp>
<bpm>0</bpm>
<rpm>0.00</rpm>
</extensions>
</trkpt>
<trkpt lat="64.034942627" lon="-20.328550339">
<ele>88.509766</ele>
<time>2012-07-20T18:53:49Z</time>
<speed>4.120000</speed>
<extensions>
<speed>4.1</speed>
<temp>0.00</temp>
<bpm>0</bpm>
<rpm>0.00</rpm>
</extensions>
</trkpt>
<trkpt lat="64.034980774" lon="-20.328121185">
<ele>89.632813</ele>
<time>2012-07-20T18:53:54Z</time>
<speed>4.030000</speed>
<extensions>
<speed>4.0</speed>
<temp>0.00</temp>
<bpm>0</bpm>
<rpm>0.00</rpm>
</extensions>
</trkpt>
<trkpt lat="64.035018921" lon="-20.327743530">
<ele>90.798828</ele>
<time>2012-07-20T18:53:59Z</time>
<speed>3.570000</speed>
<extensions>
<speed>3.6</speed>
<temp>0.00</temp>
<bpm>0</bpm>
<rpm>0.00</rpm>
</extensions>
</trkpt>
<trkpt lat="64.035064697" lon="-20.327398300">
<ele>90.105469</ele>
<time>2012-07-20T18:54:04Z</time>
<speed>3.340000</speed>
<extensions>
<speed>3.3</speed>
<temp>0.00</temp>
<bpm>0</bpm>
<rpm>0.00</rpm>
</extensions>
</trkpt>
<trkpt lat="64.035110474" lon="-20.327075958">
<ele>88.705078</ele>
<time>2012-07-20T18:54:09Z</time>
<speed>3.670000</speed>
<extensions>
<speed>3.7</speed>
<temp>0.00</temp>
<bpm>0</bpm>
<rpm>0.00</rpm>
</extensions>
</trkpt>
<trkpt lat="64.035163879" lon="-20.326738358">
<ele>87.873047</ele>
<time>2012-07-20T18:54:14Z</time>
<speed>3.540000</speed>
<extensions>
<speed>3.5</speed>
<temp>0.00</temp>
<bpm>0</bpm>
<rpm>0.00</rpm>
</extensions>
</trkpt>
<trkpt lat="64.035194397" lon="-20.326398849">
<ele>88.132813</ele>
<time>2012-07-20T18:54:19Z</time>
<speed>3.620000</speed>
<extensions>
<speed>3.6</speed>
<temp>0.00</temp>
<bpm>0</bpm>
<rpm>0.00</rpm>
</extensions>
</trkpt>
<trkpt lat="64.035247803" lon="-20.326045990">
<ele>87.589844</ele>
<time>2012-07-20T18:54:24Z</time>
<speed>3.850000</speed>
<extensions>
<speed>3.8</speed>
<temp>0.00</temp>
<bpm>0</bpm>
<rpm>0.00</rpm>
</extensions>
</trkpt>
<trkpt lat="64.035301208" lon="-20.325674057">
<ele>87.949219</ele>
<time>2012-07-20T18:54:29Z</time>
<speed>3.680000</speed>
<extensions>
<speed>3.7</speed>
<temp>0.00</temp>
<bpm>0</bpm>
<rpm>0.00</rpm>
</extensions>
</trkpt>
<trkpt lat="64.035362244" lon="-20.325311661">
<ele>88.173828</ele>
<time>2012-07-20T18:54:34Z</time>
<speed>3.960000</speed>
<extensions>
<speed>4.0</speed>
<temp>0.00</temp>
<bpm>0</bpm>
<rpm>0.00</rpm>
</extensions>
</trkpt>
<trkpt lat="64.035423279" lon="-20.324956894">
<ele>88.609375</ele>
<time>2012-07-20T18:54:39Z</time>
<speed>3.950000</speed>
<extensions>
<speed>4.0</speed>
<temp>0.00</temp>
<bpm>0</bpm>
<rpm>0.00</rpm>
</extensions>
</trkpt>
<trkpt lat="64.035499573" lon="-20.324571609">
<ele>88.210938</ele>
<time>2012-07-20T18:54:44Z</time>
<speed>4.350000</speed>
<extensions>
<speed>4.3</speed>
<temp>0.00</temp>
<bpm>0</bpm>
<rpm>0.00</rpm>
</extensions>
</trkpt>
<trkpt lat="64.035568237" lon="-20.324182510">
<ele>86.697266</ele>
<time>2012-07-20T18:54:49Z</time>
<speed>4.140000</speed>
<extensions>
<speed>4.1</speed>
<temp>0.00</temp>
<bpm>0</bpm>
<rpm>0.00</rpm>
</extensions>
</trkpt>
<trkpt lat="64.035644531" lon="-20.323772430">
<ele>87.132813</ele>
<time>2012-07-20T18:54:54Z</time>
<speed>4.470000</speed>
<extensions>
<speed>4.5</speed>
<temp>0.00</temp>
<bpm>0</bpm>
<rpm>0.00</rpm>
</extensions>
</trkpt>
<trkpt lat="64.035720825" lon="-20.323373795">
<ele>85.767578</ele>
<time>2012-07-20T18:54:59Z</time>
<speed>4.450000</speed>
<extensions>
<speed>4.5</speed>
<temp>0.00</temp>
<bpm>0</bpm>
<rpm>0.00</rpm>
</extensions>
</trkpt>
<trkpt lat="64.035797119" lon="-20.322961807">
<ele>84.996094</ele>
<time>2012-07-20T18:55:04Z</time>
<speed>4.700000</speed>
<extensions>
<speed>4.7</speed>
<temp>0.00</temp>
<bpm>0</bpm>
<rpm>0.00</rpm>
</extensions>
</trkpt>
<trkpt lat="64.035888672" lon="-20.322481155">
<ele>84.017578</ele>
<time>2012-07-20T18:55:09Z</time>
<speed>5.220000</speed>
<extensions>
<speed>5.2</speed>
<temp>0.00</temp>
<bpm>0</bpm>
<rpm>0.00</rpm>
</extensions>
</trkpt>
<trkpt lat="64.035995483" lon="-20.321949005">
<ele>84.033203</ele>
<time>2012-07-20T18:55:14Z</time>
<speed>5.980000</speed>
<extensions>
<speed>6.0</speed>
<temp>0.00</temp>
<bpm>0</bpm>
<rpm>0.00</rpm>
</extensions>
</trkpt>
<trkpt lat="64.036109924" lon="-20.321319580">
<ele>83.960938</ele>
<time>2012-07-20T18:55:19Z</time>
<speed>7.070000</speed>
<extensions>
<speed>7.1</speed>
<temp>0.00</temp>
<bpm>0</bpm>
<rpm>0.00</rpm>
</extensions>
</trkpt>
<trkpt lat="64.036231995" lon="-20.320587158">
<ele>82.064453</ele>
<time>2012-07-20T18:55:24Z</time>
<speed>8.320000</speed>
<extensions>
<speed>8.3</speed>
<temp>0.00</temp>
<bpm>0</bpm>
<rpm>0.00</rpm>
</extensions>
</trkpt>
<trkpt lat="64.036354065" lon="-20.319679260">
<ele>80.992188</ele>
<time>2012-07-20T18:55:29Z</time>
<speed>9.730000</speed>
<extensions>
<speed>9.7</speed>
<temp>0.00</temp>
<bpm>0</bpm>
<rpm>0.00</rpm>
</extensions>
</trkpt>
<trkpt lat="64.036483765" lon="-20.318729401">
<ele>80.814453</ele>
<time>2012-07-20T18:55:34Z</time>
<speed>9.810001</speed>
<extensions>
<speed>9.8</speed>
<temp>0.00</temp>
<bpm>0</bpm>
<rpm>0.00</rpm>
</extensions>
</trkpt>
<trkpt lat="64.036582947" lon="-20.317722321">
<ele>78.835938</ele>
<time>2012-07-20T18:55:39Z</time>
<speed>10.550000</speed>
<extensions>
<speed>10.5</speed>
<temp>0.00</temp>
<bpm>0</bpm>
<rpm>0.00</rpm>
</extensions>
</trkpt>
<trkpt lat="64.036697388" lon="-20.316650391">
<ele>77.716797</ele>
<time>2012-07-20T18:55:44Z</time>
<speed>10.700000</speed>
<extensions>
<speed>10.7</speed>
<temp>0.00</temp>
<bpm>0</bpm>
<rpm>0.00</rpm>
</extensions>
</trkpt>
<trkpt lat="64.036811829" lon="-20.315618515">
<ele>77.242188</ele>
<time>2012-07-20T18:55:49Z</time>
<speed>9.740000</speed>
<extensions>
<speed>9.7</speed>
<temp>0.00</temp>
<bpm>0</bpm>
<rpm>0.00</rpm>
</extensions>
</trkpt>
<trkpt lat="64.036911011" lon="-20.314706802">
<ele>77.308594</ele>
<time>2012-07-20T18:55:54Z</time>
<speed>8.470000</speed>
<extensions>
<speed>8.5</speed>
<temp>0.00</temp>
<bpm>0</bpm>
<rpm>0.00</rpm>
</extensions>
</trkpt>
<trkpt lat="64.037002563" lon="-20.313919067">
<ele>76.681641</ele>
<time>2012-07-20T18:55:59Z</time>
<speed>7.930000</speed>
<extensions>
<speed>7.9</speed>
<temp>0.00</temp>
<bpm>0</bpm>
<rpm>0.00</rpm>
</extensions>
</trkpt>
<trkpt lat="64.037086487" lon="-20.313156128">
<ele>76.443359</ele>
<time>2012-07-20T18:56:04Z</time>
<speed>7.440000</speed>
<extensions>
<speed>7.4</speed>
<temp>0.00</temp>
<bpm>0</bpm>
<rpm>0.00</rpm>
</extensions>
</trkpt>
<trkpt lat="64.037170410" lon="-20.312435150">
<ele>75.492188</ele>
<time>2012-07-20T18:56:09Z</time>
<speed>6.930000</speed>
<extensions>
<speed>6.9</speed>
<temp>0.00</temp>
<bpm>0</bpm>
<rpm>0.00</rpm>
</extensions>
</trkpt>
<trkpt lat="64.037254333" lon="-20.311769485">
<ele>75.175781</ele>
<time>2012-07-20T18:56:14Z</time>
<speed>6.780000</speed>
<extensions>
<speed>6.8</speed>
<temp>0.00</temp>
<bpm>0</bpm>
<rpm>0.00</rpm>
</extensions>
</trkpt>
<trkpt lat="64.037338257" lon="-20.311101913">
<ele>75.126953</ele>
<time>2012-07-20T18:56:19Z</time>
<speed>6.920000</speed>
<extensions>
<speed>6.9</speed>
<temp>0.00</temp>
<bpm>0</bpm>
<rpm>0.00</rpm>
</extensions>
</trkpt>
<trkpt lat="64.037429810" lon="-20.310464859">
<ele>75.281250</ele>
<time>2012-07-20T18:56:24Z</time>
<speed>6.160000</speed>
<extensions>
<speed>6.2</speed>
<temp>0.00</temp>
<bpm>0</bpm>
<rpm>0.00</rpm>
</extensions>
</trkpt>
<trkpt lat="64.037528992" lon="-20.309906006">
<ele>74.738281</ele>
<time>2012-07-20T18:56:29Z</time>
<speed>5.650000</speed>
<extensions>
<speed>5.7</speed>
<temp>0.00</temp>
<bpm>0</bpm>
<rpm>0.00</rpm>
</extensions>
</trkpt>
<trkpt lat="64.037628174" lon="-20.309371948">
<ele>72.132813</ele>
<time>2012-07-20T18:56:34Z</time>
<speed>5.960000</speed>
<extensions>
<speed>6.0</speed>
<temp>0.00</temp>
<bpm>0</bpm>
<rpm>0.00</rpm>
</extensions>
</trkpt>
<trkpt lat="64.037742615" lon="-20.308778763">
<ele>72.888672</ele>
<time>2012-07-20T18:56:39Z</time>
<speed>6.630000</speed>
<extensions>
<speed>6.6</speed>
<temp>0.00</temp>
<bpm>0</bpm>
<rpm>0.00</rpm>
</extensions>
</trkpt>
<trkpt lat="64.037879944" lon="-20.308153152">
<ele>73.175781</ele>
<time>2012-07-20T18:56:44Z</time>
<speed>7.130000</speed>
<extensions>
<speed>7.1</speed>
<temp>0.00</temp>
<bpm>0</bpm>
<rpm>0.00</rpm>
</extensions>
</trkpt>
<trkpt lat="64.038009644" lon="-20.307542801">
<ele>72.654297</ele>
<time>2012-07-20T18:56:49Z</time>
<speed>6.520000</speed>
<extensions>
<speed>6.5</speed>
<temp>0.00</temp>
<bpm>0</bpm>
<rpm>0.00</rpm>
</extensions>
</trkpt>
<trkpt lat="64.038162231" lon="-20.306961060">
<ele>72.126953</ele>
<time>2012-07-20T18:56:54Z</time>
<speed>6.830000</speed>
<extensions>
<speed>6.8</speed>
<temp>0.00</temp>
<bpm>0</bpm>
<rpm>0.00</rpm>
</extensions>
</trkpt>
<trkpt lat="64.038307190" lon="-20.306407928">
<ele>72.068359</ele>
<time>2012-07-20T18:56:59Z</time>
<speed>5.870000</speed>
<extensions>
<speed>5.9</speed>
<temp>0.00</temp>
<bpm>0</bpm>
<rpm>0.00</rpm>
</extensions>
</trkpt>
<trkpt lat="64.038436890" lon="-20.305950165">
<ele>71.501953</ele>
<time>2012-07-20T18:57:04Z</time>
<speed>4.820000</speed>
<extensions>
<speed>4.8</speed>
<temp>0.00</temp>
<bpm>0</bpm>
<rpm>0.00</rpm>
</extensions>
</trkpt>
<trkpt lat="64.038536072" lon="-20.305559158">
<ele>71.648438</ele>
<time>2012-07-20T18:57:09Z</time>
<speed>4.060000</speed>
<extensions>
<speed>4.1</speed>
<temp>0.00</temp>
<bpm>0</bpm>
<rpm>0.00</rpm>
</extensions>
</trkpt>
<trkpt lat="64.038619995" lon="-20.305246353">
<ele>71.927734</ele>
<time>2012-07-20T18:57:14Z</time>
<speed>3.380000</speed>
<extensions>
<speed>3.4</speed>
<temp>0.00</temp>
<bpm>0</bpm>
<rpm>0.00</rpm>
</extensions>
</trkpt>
<trkpt lat="64.038711548" lon="-20.305013657">
<ele>73.261719</ele>
<time>2012-07-20T18:57:19Z</time>
<speed>2.470000</speed>
<extensions>
<speed>2.5</speed>
<temp>0.00</temp>
<bpm>0</bpm>
<rpm>0.00</rpm>
</extensions>
</trkpt>
<trkpt lat="64.038749695" lon="-20.304803848">
<ele>74.050781</ele>
<time>2012-07-20T18:57:24Z</time>
<speed>2.150000</speed>
<extensions>
<speed>2.1</speed>
<temp>0.00</temp>
<bpm>0</bpm>
<rpm>0.00</rpm>
</extensions>
</trkpt>
<trkpt lat="64.038818359" lon="-20.304531097">
<ele>74.955078</ele>
<time>2012-07-20T18:57:29Z</time>
<speed>3.500000</speed>
<extensions>
<speed>3.5</speed>
<temp>0.00</temp>
<bpm>0</bpm>
<rpm>0.00</rpm>
</extensions>
</trkpt>
<trkpt lat="64.038925171" lon="-20.304161072">
<ele>74.750000</ele>
<time>2012-07-20T18:57:34Z</time>
<speed>4.670000</speed>
<extensions>
<speed>4.7</speed>
<temp>0.00</temp>
<bpm>0</bpm>
<rpm>0.00</rpm>
</extensions>
</trkpt>
<trkpt lat="64.039039612" lon="-20.303756714">
<ele>74.958984</ele>
<time>2012-07-20T18:57:39Z</time>
<speed>4.720000</speed>
<extensions>
<speed>4.7</speed>
<temp>0.00</temp>
<bpm>0</bpm>
<rpm>0.00</rpm>
</extensions>
</trkpt>
<trkpt lat="64.039146423" lon="-20.303304672">
<ele>75.095703</ele>
<time>2012-07-20T18:57:44Z</time>
<speed>5.210000</speed>
<extensions>
<speed>5.2</speed>
<temp>0.00</temp>
<bpm>0</bpm>
<rpm>0.00</rpm>
</extensions>
</trkpt>
<trkpt lat="64.039260864" lon="-20.302850723">
<ele>73.847656</ele>
<time>2012-07-20T18:57:49Z</time>
<speed>5.280000</speed>
<extensions>
<speed>5.3</speed>
<temp>0.00</temp>
<bpm>0</bpm>
<rpm>0.00</rpm>
</extensions>
</trkpt>
<trkpt lat="64.039375305" lon="-20.302349091">
<ele>72.812500</ele>
<time>2012-07-20T18:57:54Z</time>
<speed>5.550000</speed>
<extensions>
<speed>5.5</speed>
<temp>0.00</temp>
<bpm>0</bpm>
<rpm>0.00</rpm>
</extensions>
</trkpt>
<trkpt lat="64.039482117" lon="-20.301818848">
<ele>71.617188</ele>
<time>2012-07-20T18:57:59Z</time>
<speed>6.060000</speed>
<extensions>
<speed>6.1</speed>
<temp>0.00</temp>
<bpm>0</bpm>
<rpm>0.00</rpm>
</extensions>
</trkpt>
<trkpt lat="64.039604187" lon="-20.301242828">
<ele>70.644531</ele>
<time>2012-07-20T18:58:04Z</time>
<speed>5.830000</speed>
<extensions>
<speed>5.8</speed>
<temp>0.00</temp>
<bpm>0</bpm>
<rpm>0.00</rpm>
</extensions>
</trkpt>
<trkpt lat="64.039695740" lon="-20.300735474">
<ele>71.166016</ele>
<time>2012-07-20T18:58:09Z</time>
<speed>5.670000</speed>
<extensions>
<speed>5.7</speed>
<temp>0.00</temp>
<bpm>0</bpm>
<rpm>0.00</rpm>
</extensions>
</trkpt>
<trkpt lat="64.039794922" lon="-20.300174713">
<ele>71.916016</ele>
<time>2012-07-20T18:58:14Z</time>
<speed>6.200000</speed>
<extensions>
<speed>6.2</speed>
<temp>0.00</temp>
<bpm>0</bpm>
<rpm>0.00</rpm>
</extensions>
</trkpt>
<trkpt lat="64.039871216" lon="-20.299655914">
<ele>71.130859</ele>
<time>2012-07-20T18:58:19Z</time>
<speed>4.770000</speed>
<extensions>
<speed>4.8</speed>
<temp>0.00</temp>
<bpm>0</bpm>
<rpm>0.00</rpm>
</extensions>
</trkpt>
<trkpt lat="64.039939880" lon="-20.299175262">
<ele>71.466797</ele>
<time>2012-07-20T18:58:24Z</time>
<speed>5.590000</speed>
<extensions>
<speed>5.6</speed>
<temp>0.00</temp>
<bpm>0</bpm>
<rpm>0.00</rpm>
</extensions>
</trkpt>
<trkpt lat="64.040031433" lon="-20.298566818">
<ele>77.429688</ele>
<time>2012-07-20T18:58:29Z</time>
<speed>5.990000</speed>
<extensions>
<speed>6.0</speed>
<temp>0.00</temp>
<bpm>0</bpm>
<rpm>0.00</rpm>
</extensions>
</trkpt>
<trkpt lat="64.040107727" lon="-20.297977448">
<ele>81.310547</ele>
<time>2012-07-20T18:58:34Z</time>
<speed>5.950000</speed>
<extensions>
<speed>6.0</speed>
<temp>0.00</temp>
<bpm>0</bpm>
<rpm>0.00</rpm>
</extensions>
</trkpt>
<trkpt lat="64.040168762" lon="-20.297386169">
<ele>82.646484</ele>
<time>2012-07-20T18:58:39Z</time>
<speed>5.390000</speed>
<extensions>
<speed>5.4</speed>
<temp>0.00</temp>
<bpm>0</bpm>
<rpm>0.00</rpm>
</extensions>
</trkpt>
<trkpt lat="64.040222168" lon="-20.296871185">
<ele>84.220703</ele>
<time>2012-07-20T18:58:44Z</time>
<speed>5.130000</speed>
<extensions>
<speed>5.1</speed>
<temp>0.00</temp>
<bpm>0</bpm>
<rpm>0.00</rpm>
</extensions>
</trkpt>
<trkpt lat="64.040252686" lon="-20.296409607">
<ele>83.757813</ele>
<time>2012-07-20T18:58:49Z</time>
<speed>4.720000</speed>
<extensions>
<speed>4.7</speed>
<temp>0.00</temp>
<bpm>0</bpm>
<rpm>0.00</rpm>
</extensions>
</trkpt>
<trkpt lat="64.040290833" lon="-20.295948029">
<ele>82.669922</ele>
<time>2012-07-20T18:58:54Z</time>
<speed>4.120000</speed>
<extensions>
<speed>4.1</speed>
<temp>0.00</temp>
<bpm>0</bpm>
<rpm>0.00</rpm>
</extensions>
</trkpt>
<trkpt lat="64.040306091" lon="-20.295578003">
<ele>81.488281</ele>
<time>2012-07-20T18:58:59Z</time>
<speed>3.370000</speed>
<extensions>
<speed>3.4</speed>
<temp>0.00</temp>
<bpm>0</bpm>
<rpm>0.00</rpm>
</extensions>
</trkpt>
<trkpt lat="64.040328979" lon="-20.295276642">
<ele>82.580078</ele>
<time>2012-07-20T18:59:04Z</time>
<speed>3.000000</speed>
<extensions>
<speed>3.0</speed>
<temp>0.00</temp>
<bpm>0</bpm>
<rpm>0.00</rpm>
</extensions>
</trkpt>
<trkpt lat="64.040336609" lon="-20.294963837">
<ele>80.607422</ele>
<time>2012-07-20T18:59:09Z</time>
<speed>3.250000</speed>
<extensions>
<speed>3.2</speed>
<temp>0.00</temp>
<bpm>0</bpm>
<rpm>0.00</rpm>
</extensions>
</trkpt>
<trkpt lat="64.040359497" lon="-20.294544220">
<ele>79.695313</ele>
<time>2012-07-20T18:59:14Z</time>
<speed>4.580000</speed>
<extensions>
<speed>4.6</speed>
<temp>0.00</temp>
<bpm>0</bpm>
<rpm>0.00</rpm>
</extensions>
</trkpt>
<trkpt lat="64.040390015" lon="-20.294052124">
<ele>78.128906</ele>
<time>2012-07-20T18:59:19Z</time>
<speed>5.150000</speed>
<extensions>
<speed>5.2</speed>
<temp>0.00</temp>
<bpm>0</bpm>
<rpm>0.00</rpm>
</extensions>
</trkpt>
<trkpt lat="64.040428162" lon="-20.293489456">
<ele>77.509766</ele>
<time>2012-07-20T18:59:24Z</time>
<speed>5.740000</speed>
<extensions>
<speed>5.7</speed>
<temp>0.00</temp>
<bpm>0</bpm>
<rpm>0.00</rpm>
</extensions>
</trkpt>
<trkpt lat="64.040458679" lon="-20.292909622">
<ele>77.972656</ele>
<time>2012-07-20T18:59:29Z</time>
<speed>5.470000</speed>
<extensions>
<speed>5.5</speed>
<temp>0.00</temp>
<bpm>0</bpm>
<rpm>0.00</rpm>
</extensions>
</trkpt>
<trkpt lat="64.040489197" lon="-20.292415619">
<ele>79.583984</ele>
<time>2012-07-20T18:59:34Z</time>
<speed>4.370000</speed>
<extensions>
<speed>4.4</speed>
<temp>0.00</temp>
<bpm>0</bpm>
<rpm>0.00</rpm>
</extensions>
</trkpt>
<trkpt lat="64.040512085" lon="-20.292013168">
<ele>79.869141</ele>
<time>2012-07-20T18:59:39Z</time>
<speed>3.940000</speed>
<extensions>
<speed>3.9</speed>
<temp>0.00</temp>
<bpm>0</bpm>
<rpm>0.00</rpm>
</extensions>
</trkpt>
<trkpt lat="64.040534973" lon="-20.291601181">
<ele>78.621094</ele>
<time>2012-07-20T18:59:44Z</time>
<speed>3.860000</speed>
<extensions>
<speed>3.9</speed>
<temp>0.00</temp>
<bpm>0</bpm>
<rpm>0.00</rpm>
</extensions>
</trkpt>
<trkpt lat="64.040550232" lon="-20.291246414">
<ele>79.234375</ele>
<time>2012-07-20T18:59:49Z</time>
<speed>3.480000</speed>
<extensions>
<speed>3.5</speed>
<temp>0.00</temp>
<bpm>0</bpm>
<rpm>0.00</rpm>
</extensions>
</trkpt>
<trkpt lat="64.040565491" lon="-20.290853500">
<ele>79.841797</ele>
<time>2012-07-20T18:59:54Z</time>
<speed>3.790000</speed>
<extensions>
<speed>3.8</speed>
<temp>0.00</temp>
<bpm>0</bpm>
<rpm>0.00</rpm>
</extensions>
</trkpt>
<trkpt lat="64.040580750" lon="-20.290504456">
<ele>79.802734</ele>
<time>2012-07-20T18:59:59Z</time>
<speed>3.290000</speed>
<extensions>
<speed>3.3</speed>
<temp>0.00</temp>
<bpm>0</bpm>
<rpm>0.00</rpm>
</extensions>
</trkpt>
<trkpt lat="64.040611267" lon="-20.290147781">
<ele>78.308594</ele>
<time>2012-07-20T19:00:04Z</time>
<speed>4.080000</speed>
<extensions>
<speed>4.1</speed>
<temp>0.00</temp>
<bpm>0</bpm>
<rpm>0.00</rpm>
</extensions>
</trkpt>
<trkpt lat="64.040641785" lon="-20.289712906">
<ele>77.257813</ele>
<time>2012-07-20T19:00:09Z</time>
<speed>4.210000</speed>
<extensions>
<speed>4.2</speed>
<temp>0.00</temp>
<bpm>0</bpm>
<rpm>0.00</rpm>
</extensions>
</trkpt>
<trkpt lat="64.040672302" lon="-20.289283752">
<ele>77.714844</ele>
<time>2012-07-20T19:00:14Z</time>
<speed>4.210000</speed>
<extensions>
<speed>4.2</speed>
<temp>0.00</temp>
<bpm>0</bpm>
<rpm>0.00</rpm>
</extensions>
</trkpt>
<trkpt lat="64.040718079" lon="-20.288845062">
<ele>78.201172</ele>
<time>2012-07-20T19:00:19Z</time>
<speed>4.490000</speed>
<extensions>
<speed>4.5</speed>
<temp>0.00</temp>
<bpm>0</bpm>
<rpm>0.00</rpm>
</extensions>
</trkpt>
<trkpt lat="64.040779114" lon="-20.288368225">
<ele>79.736328</ele>
<time>2012-07-20T19:00:24Z</time>
<speed>4.820000</speed>
<extensions>
<speed>4.8</speed>
<temp>0.00</temp>
<bpm>0</bpm>
<rpm>0.00</rpm>
</extensions>
</trkpt>
<trkpt lat="64.040840149" lon="-20.287895203">
<ele>81.126953</ele>
<time>2012-07-20T19:00:29Z</time>
<speed>4.760000</speed>
<extensions>
<speed>4.8</speed>
<temp>0.00</temp>
<bpm>0</bpm>
<rpm>0.00</rpm>
</extensions>
</trkpt>
<trkpt lat="64.040924072" lon="-20.287456512">
<ele>79.818359</ele>
<time>2012-07-20T19:00:34Z</time>
<speed>4.860000</speed>
<extensions>
<speed>4.9</speed>
<temp>0.00</temp>
<bpm>0</bpm>
<rpm>0.00</rpm>
</extensions>
</trkpt>
<trkpt lat="64.041007996" lon="-20.287033081">
<ele>78.621094</ele>
<time>2012-07-20T19:00:39Z</time>
<speed>4.460000</speed>
<extensions>
<speed>4.5</speed>
<temp>0.00</temp>
<bpm>0</bpm>
<rpm>0.00</rpm>
</extensions>
</trkpt>
<trkpt lat="64.041114807" lon="-20.286664963">
<ele>79.498047</ele>
<time>2012-07-20T19:00:44Z</time>
<speed>4.510000</speed>
<extensions>
<speed>4.5</speed>
<temp>0.00</temp>
<bpm>0</bpm>
<rpm>0.00</rpm>
</extensions>
</trkpt>
<trkpt lat="64.041236877" lon="-20.286304474">
<ele>78.722656</ele>
<time>2012-07-20T19:00:49Z</time>
<speed>4.520000</speed>
<extensions>
<speed>4.5</speed>
<temp>0.00</temp>
<bpm>0</bpm>
<rpm>0.00</rpm>
</extensions>
</trkpt>
<trkpt lat="64.041336060" lon="-20.285928726">
<ele>79.201172</ele>
<time>2012-07-20T19:00:54Z</time>
<speed>4.410000</speed>
<extensions>
<speed>4.4</speed>
<temp>0.00</temp>
<bpm>0</bpm>
<rpm>0.00</rpm>
</extensions>
</trkpt>
<trkpt lat="64.041435242" lon="-20.285589218">
<ele>80.193359</ele>
<time>2012-07-20T19:00:59Z</time>
<speed>3.770000</speed>
<extensions>
<speed>3.8</speed>
<temp>0.00</temp>
<bpm>0</bpm>
<rpm>0.00</rpm>
</extensions>
</trkpt>
<trkpt lat="64.041519165" lon="-20.285272598">
<ele>81.085938</ele>
<time>2012-07-20T19:01:04Z</time>
<speed>3.690000</speed>
<extensions>
<speed>3.7</speed>
<temp>0.00</temp>
<bpm>0</bpm>
<rpm>0.00</rpm>
</extensions>
</trkpt>
<trkpt lat="64.041587830" lon="-20.284921646">
<ele>80.623047</ele>
<time>2012-07-20T19:01:09Z</time>
<speed>3.670000</speed>
<extensions>
<speed>3.7</speed>
<temp>0.00</temp>
<bpm>0</bpm>
<rpm>0.00</rpm>
</extensions>
</trkpt>
<trkpt lat="64.041648865" lon="-20.284549713">
<ele>80.296875</ele>
<time>2012-07-20T19:01:14Z</time>
<speed>3.690000</speed>
<extensions>
<speed>3.7</speed>
<temp>0.00</temp>
<bpm>0</bpm>
<rpm>0.00</rpm>
</extensions>
</trkpt>
<trkpt lat="64.041717529" lon="-20.284151077">
<ele>83.205078</ele>
<time>2012-07-20T19:01:19Z</time>
<speed>4.540000</speed>
<extensions>
<speed>4.5</speed>
<temp>0.00</temp>
<bpm>0</bpm>
<rpm>0.00</rpm>
</extensions>
</trkpt>
<trkpt lat="64.041778564" lon="-20.283699036">
<ele>84.140625</ele>
<time>2012-07-20T19:01:24Z</time>
<speed>4.610000</speed>
<extensions>
<speed>4.6</speed>
<temp>0.00</temp>
<bpm>0</bpm>
<rpm>0.00</rpm>
</extensions>
</trkpt>
<trkpt lat="64.041831970" lon="-20.283233643">
<ele>87.427734</ele>
<time>2012-07-20T19:01:29Z</time>
<speed>4.850000</speed>
<extensions>
<speed>4.8</speed>
<temp>0.00</temp>
<bpm>0</bpm>
<rpm>0.00</rpm>
</extensions>
</trkpt>
<trkpt lat="64.041854858" lon="-20.282754898">
<ele>87.822266</ele>
<time>2012-07-20T19:01:34Z</time>
<speed>4.920000</speed>
<extensions>
<speed>4.9</speed>
<temp>0.00</temp>
<bpm>0</bpm>
<rpm>0.00</rpm>
</extensions>
</trkpt>
<trkpt lat="64.041877747" lon="-20.282226563">
<ele>87.384766</ele>
<time>2012-07-20T19:01:39Z</time>
<speed>5.130000</speed>
<extensions>
<speed>5.1</speed>
<temp>0.00</temp>
<bpm>0</bpm>
<rpm>0.00</rpm>
</extensions>
</trkpt>
<trkpt lat="64.041885376" lon="-20.281677246">
<ele>86.992188</ele>
<time>2012-07-20T19:01:44Z</time>
<speed>5.580000</speed>
<extensions>
<speed>5.6</speed>
<temp>0.00</temp>
<bpm>0</bpm>
<rpm>0.00</rpm>
</extensions>
</trkpt>
<trkpt lat="64.041893005" lon="-20.281101227">
<ele>86.501953</ele>
<time>2012-07-20T19:01:49Z</time>
<speed>5.170000</speed>
<extensions>
<speed>5.2</speed>
<temp>0.00</temp>
<bpm>0</bpm>
<rpm>0.00</rpm>
</extensions>
</trkpt>
<trkpt lat="64.041885376" lon="-20.280586243">
<ele>86.945313</ele>
<time>2012-07-20T19:01:54Z</time>
<speed>4.980000</speed>
<extensions>
<speed>5.0</speed>
<temp>0.00</temp>
<bpm>0</bpm>
<rpm>0.00</rpm>
</extensions>
</trkpt>
<trkpt lat="64.041893005" lon="-20.280063629">
<ele>87.792969</ele>
<time>2012-07-20T19:01:59Z</time>
<speed>4.850000</speed>
<extensions>
<speed>4.8</speed>
<temp>0.00</temp>
<bpm>0</bpm>
<rpm>0.00</rpm>
</extensions>
</trkpt>
<trkpt lat="64.041885376" lon="-20.279609680">
<ele>87.691406</ele>
<time>2012-07-20T19:02:04Z</time>
<speed>4.460000</speed>
<extensions>
<speed>4.5</speed>
<temp>0.00</temp>
<bpm>0</bpm>
<rpm>0.00</rpm>
</extensions>
</trkpt>
<trkpt lat="64.041870117" lon="-20.279190063">
<ele>88.099609</ele>
<time>2012-07-20T19:02:09Z</time>
<speed>3.750000</speed>
<extensions>
<speed>3.8</speed>
<temp>0.00</temp>
<bpm>0</bpm>
<rpm>0.00</rpm>
</extensions>
</trkpt>
<trkpt lat="64.041854858" lon="-20.278793335">
<ele>88.400391</ele>
<time>2012-07-20T19:02:14Z</time>
<speed>3.280000</speed>
<extensions>
<speed>3.3</speed>
<temp>0.00</temp>
<bpm>0</bpm>
<rpm>0.00</rpm>
</extensions>
</trkpt>
<trkpt lat="64.041847229" lon="-20.278444290">
<ele>88.933594</ele>
<time>2012-07-20T19:02:19Z</time>
<speed>3.400000</speed>
<extensions>
<speed>3.4</speed>
<temp>0.00</temp>
<bpm>0</bpm>
<rpm>0.00</rpm>
</extensions>
</trkpt>
<trkpt lat="64.041847229" lon="-20.278102875">
<ele>89.535156</ele>
<time>2012-07-20T19:02:24Z</time>
<speed>3.600000</speed>
<extensions>
<speed>3.6</speed>
<temp>0.00</temp>
<bpm>0</bpm>
<rpm>0.00</rpm>
</extensions>
</trkpt>
<trkpt lat="64.041839600" lon="-20.277748108">
<ele>89.603516</ele>
<time>2012-07-20T19:02:29Z</time>
<speed>3.660000</speed>
<extensions>
<speed>3.7</speed>
<temp>0.00</temp>
<bpm>0</bpm>
<rpm>0.00</rpm>
</extensions>
</trkpt>
<trkpt lat="64.041831970" lon="-20.277381897">
<ele>89.812500</ele>
<time>2012-07-20T19:02:34Z</time>
<speed>3.620000</speed>
<extensions>
<speed>3.6</speed>
<temp>0.00</temp>
<bpm>0</bpm>
<rpm>0.00</rpm>
</extensions>
</trkpt>
<trkpt lat="64.041831970" lon="-20.277006149">
<ele>89.882813</ele>
<time>2012-07-20T19:02:39Z</time>
<speed>4.050000</speed>
<extensions>
<speed>4.0</speed>
<temp>0.00</temp>
<bpm>0</bpm>
<rpm>0.00</rpm>
</extensions>
</trkpt>
<trkpt lat="64.041831970" lon="-20.276576996">
<ele>89.705078</ele>
<time>2012-07-20T19:02:44Z</time>
<speed>4.250000</speed>
<extensions>
<speed>4.3</speed>
<temp>0.00</temp>
<bpm>0</bpm>
<rpm>0.00</rpm>
</extensions>
</trkpt>
<trkpt lat="64.041809082" lon="-20.276111603">
<ele>91.302734</ele>
<time>2012-07-20T19:02:49Z</time>
<speed>4.770000</speed>
<extensions>
<speed>4.8</speed>
<temp>0.00</temp>
<bpm>0</bpm>
<rpm>0.00</rpm>
</extensions>
</trkpt>
<trkpt lat="64.041793823" lon="-20.275621414">
<ele>89.802734</ele>
<time>2012-07-20T19:02:54Z</time>
<speed>4.770000</speed>
<extensions>
<speed>4.8</speed>
<temp>0.00</temp>
<bpm>0</bpm>
<rpm>0.00</rpm>
</extensions>
</trkpt>
<trkpt lat="64.041786194" lon="-20.275180817">
<ele>90.013672</ele>
<time>2012-07-20T19:02:59Z</time>
<speed>4.000000</speed>
<extensions>
<speed>4.0</speed>
<temp>0.00</temp>
<bpm>0</bpm>
<rpm>0.00</rpm>
</extensions>
</trkpt>
<trkpt lat="64.041778564" lon="-20.274768829">
<ele>90.488281</ele>
<time>2012-07-20T19:03:04Z</time>
<speed>4.010000</speed>
<extensions>
<speed>4.0</speed>
<temp>0.00</temp>
<bpm>0</bpm>
<rpm>0.00</rpm>
</extensions>
</trkpt>
<trkpt lat="64.041770935" lon="-20.274349213">
<ele>91.779297</ele>
<time>2012-07-20T19:03:09Z</time>
<speed>4.310000</speed>
<extensions>
<speed>4.3</speed>
<temp>0.00</temp>
<bpm>0</bpm>
<rpm>0.00</rpm>
</extensions>
</trkpt>
<trkpt lat="64.041763306" lon="-20.273937225">
<ele>93.480469</ele>
<time>2012-07-20T19:03:14Z</time>
<speed>4.060000</speed>
<extensions>
<speed>4.1</speed>
<temp>0.00</temp>
<bpm>0</bpm>
<rpm>0.00</rpm>
</extensions>
</trkpt>
<trkpt lat="64.041755676" lon="-20.273485184">
<ele>95.144531</ele>
<time>2012-07-20T19:03:19Z</time>
<speed>4.680000</speed>
<extensions>
<speed>4.7</speed>
<temp>0.00</temp>
<bpm>0</bpm>
<rpm>0.00</rpm>
</extensions>
</trkpt>
<trkpt lat="64.041755676" lon="-20.273019791">
<ele>93.658203</ele>
<time>2012-07-20T19:03:24Z</time>
<speed>4.040000</speed>
<extensions>
<speed>4.0</speed>
<temp>0.00</temp>
<bpm>0</bpm>
<rpm>0.00</rpm>
</extensions>
</trkpt>
<trkpt lat="64.041748047" lon="-20.272645950">
<ele>94.376953</ele>
<time>2012-07-20T19:03:29Z</time>
<speed>3.510000</speed>
<extensions>
<speed>3.5</speed>
<temp>0.00</temp>
<bpm>0</bpm>
<rpm>0.00</rpm>
</extensions>
</trkpt>
<trkpt lat="64.041740417" lon="-20.272241592">
<ele>94.419922</ele>
<time>2012-07-20T19:03:34Z</time>
<speed>4.070000</speed>
<extensions>
<speed>4.1</speed>
<temp>0.00</temp>
<bpm>0</bpm>
<rpm>0.00</rpm>
</extensions>
</trkpt>
<trkpt lat="64.041732788" lon="-20.271837234">
<ele>93.796875</ele>
<time>2012-07-20T19:03:39Z</time>
<speed>3.850000</speed>
<extensions>
<speed>3.8</speed>
<temp>0.00</temp>
<bpm>0</bpm>
<rpm>0.00</rpm>
</extensions>
</trkpt>
<trkpt lat="64.041725159" lon="-20.271427155">
<ele>92.970703</ele>
<time>2012-07-20T19:03:44Z</time>
<speed>4.470000</speed>
<extensions>
<speed>4.5</speed>
<temp>0.00</temp>
<bpm>0</bpm>
<rpm>0.00</rpm>
</extensions>
</trkpt>
<trkpt lat="64.041717529" lon="-20.270938873">
<ele>92.587891</ele>
<time>2012-07-20T19:03:49Z</time>
<speed>5.200000</speed>
<extensions>
<speed>5.2</speed>
<temp>0.00</temp>
<bpm>0</bpm>
<rpm>0.00</rpm>
</extensions>
</trkpt>
<trkpt lat="64.041709900" lon="-20.270412445">
<ele>91.591797</ele>
<time>2012-07-20T19:03:54Z</time>
<speed>5.280000</speed>
<extensions>
<speed>5.3</speed>
<temp>0.00</temp>
<bpm>0</bpm>
<rpm>0.00</rpm>
</extensions>
</trkpt>
<trkpt lat="64.041687012" lon="-20.269830704">
<ele>91.255859</ele>
<time>2012-07-20T19:03:59Z</time>
<speed>6.290000</speed>
<extensions>
<speed>6.3</speed>
<temp>0.00</temp>
<bpm>0</bpm>
<rpm>0.00</rpm>
</extensions>
</trkpt>
<trkpt lat="64.041664124" lon="-20.269176483">
<ele>90.496094</ele>
<time>2012-07-20T19:04:04Z</time>
<speed>6.650000</speed>
<extensions>
<speed>6.7</speed>
<temp>0.00</temp>
<bpm>0</bpm>
<rpm>0.00</rpm>
</extensions>
</trkpt>
<trkpt lat="64.041618347" lon="-20.268484116">
<ele>90.740234</ele>
<time>2012-07-20T19:04:09Z</time>
<speed>6.530000</speed>
<extensions>
<speed>6.5</speed>
<temp>0.00</temp>
<bpm>0</bpm>
<rpm>0.00</rpm>
</extensions>
</trkpt>
<trkpt lat="64.041587830" lon="-20.267847061">
<ele>89.142578</ele>
<time>2012-07-20T19:04:14Z</time>
<speed>5.740000</speed>
<extensions>
<speed>5.7</speed>
<temp>0.00</temp>
<bpm>0</bpm>
<rpm>0.00</rpm>
</extensions>
</trkpt>
<trkpt lat="64.041557312" lon="-20.267303467">
<ele>88.031250</ele>
<time>2012-07-20T19:04:19Z</time>
<speed>5.310000</speed>
<extensions>
<speed>5.3</speed>
<temp>0.00</temp>
<bpm>0</bpm>
<rpm>0.00</rpm>
</extensions>
</trkpt>
<trkpt lat="64.041534424" lon="-20.266775131">
<ele>88.535156</ele>
<time>2012-07-20T19:04:24Z</time>
<speed>4.980000</speed>
<extensions>
<speed>5.0</speed>
<temp>0.00</temp>
<bpm>0</bpm>
<rpm>0.00</rpm>
</extensions>
</trkpt>
<trkpt lat="64.041511536" lon="-20.266300201">
<ele>89.826172</ele>
<time>2012-07-20T19:04:29Z</time>
<speed>4.370000</speed>
<extensions>
<speed>4.4</speed>
<temp>0.00</temp>
<bpm>0</bpm>
<rpm>0.00</rpm>
</extensions>
</trkpt>
<trkpt lat="64.041488647" lon="-20.265871048">
<ele>88.404297</ele>
<time>2012-07-20T19:04:34Z</time>
<speed>4.410000</speed>
<extensions>
<speed>4.4</speed>
<temp>0.00</temp>
<bpm>0</bpm>
<rpm>0.00</rpm>
</extensions>
</trkpt>
<trkpt lat="64.041465759" lon="-20.265413284">
<ele>88.552734</ele>
<time>2012-07-20T19:04:39Z</time>
<speed>4.080000</speed>
<extensions>
<speed>4.1</speed>
<temp>0.00</temp>
<bpm>0</bpm>
<rpm>0.00</rpm>
</extensions>
</trkpt>
<trkpt lat="64.041458130" lon="-20.264970779">
<ele>87.697266</ele>
<time>2012-07-20T19:04:44Z</time>
<speed>4.460000</speed>
<extensions>
<speed>4.5</speed>
<temp>0.00</temp>
<bpm>0</bpm>
<rpm>0.00</rpm>
</extensions>
</trkpt>
<trkpt lat="64.041427612" lon="-20.264537811">
<ele>89.285156</ele>
<time>2012-07-20T19:04:49Z</time>
<speed>4.280000</speed>
<extensions>
<speed>4.3</speed>
<temp>0.00</temp>
<bpm>0</bpm>
<rpm>0.00</rpm>
</extensions>
</trkpt>
<trkpt lat="64.041397095" lon="-20.264104843">
<ele>90.250000</ele>
<time>2012-07-20T19:04:54Z</time>
<speed>4.410000</speed>
<extensions>
<speed>4.4</speed>
<temp>0.00</temp>
<bpm>0</bpm>
<rpm>0.00</rpm>
</extensions>
</trkpt>
<trkpt lat="64.041366577" lon="-20.263668060">
<ele>93.113281</ele>
<time>2012-07-20T19:04:59Z</time>
<speed>4.240000</speed>
<extensions>
<speed>4.2</speed>
<temp>0.00</temp>
<bpm>0</bpm>
<rpm>0.00</rpm>
</extensions>
</trkpt>
<trkpt lat="64.041358948" lon="-20.263244629">
<ele>94.458984</ele>
<time>2012-07-20T19:05:04Z</time>
<speed>4.320000</speed>
<extensions>
<speed>4.3</speed>
<temp>0.00</temp>
<bpm>0</bpm>
<rpm>0.00</rpm>
</extensions>
</trkpt>
<trkpt lat="64.041336060" lon="-20.262825012">
<ele>95.515625</ele>
<time>2012-07-20T19:05:09Z</time>
<speed>4.340000</speed>
<extensions>
<speed>4.3</speed>
<temp>0.00</temp>
<bpm>0</bpm>
<rpm>0.00</rpm>
</extensions>
</trkpt>
<trkpt lat="64.041313171" lon="-20.262384415">
<ele>96.974609</ele>
<time>2012-07-20T19:05:14Z</time>
<speed>4.060000</speed>
<extensions>
<speed>4.1</speed>
<temp>0.00</temp>
<bpm>0</bpm>
<rpm>0.00</rpm>
</extensions>
</trkpt>
<trkpt lat="64.041297913" lon="-20.261945724">
<ele>99.527344</ele>
<time>2012-07-20T19:05:19Z</time>
<speed>3.970000</speed>
<extensions>
<speed>4.0</speed>
<temp>0.00</temp>
<bpm>0</bpm>
<rpm>0.00</rpm>
</extensions>
</trkpt>
<trkpt lat="64.041267395" lon="-20.261568069">
<ele>98.396484</ele>
<time>2012-07-20T19:05:24Z</time>
<speed>3.600000</speed>
<extensions>
<speed>3.6</speed>
<temp>0.00</temp>
<bpm>0</bpm>
<rpm>0.00</rpm>
</extensions>
</trkpt>
<trkpt lat="64.041244507" lon="-20.261173248">
<ele>98.314453</ele>
<time>2012-07-20T19:05:29Z</time>
<speed>4.400000</speed>
<extensions>
<speed>4.4</speed>
<temp>0.00</temp>
<bpm>0</bpm>
<rpm>0.00</rpm>
</extensions>
</trkpt>
<trkpt lat="64.041213989" lon="-20.260694504">
<ele>97.505859</ele>
<time>2012-07-20T19:05:34Z</time>
<speed>4.630000</speed>
<extensions>
<speed>4.6</speed>
<temp>0.00</temp>
<bpm>0</bpm>
<rpm>0.00</rpm>
</extensions>
</trkpt>
<trkpt lat="64.041198730" lon="-20.260227203">
<ele>98.433594</ele>
<time>2012-07-20T19:05:39Z</time>
<speed>4.020000</speed>
<extensions>
<speed>4.0</speed>
<temp>0.00</temp>
<bpm>0</bpm>
<rpm>0.00</rpm>
</extensions>
</trkpt>
<trkpt lat="64.041183472" lon="-20.259860992">
<ele>98.033203</ele>
<time>2012-07-20T19:05:44Z</time>
<speed>3.720000</speed>
<extensions>
<speed>3.7</speed>
<temp>0.00</temp>
<bpm>0</bpm>
<rpm>0.00</rpm>
</extensions>
</trkpt>
<trkpt lat="64.041160583" lon="-20.259450912">
<ele>98.554688</ele>
<time>2012-07-20T19:05:49Z</time>
<speed>3.990000</speed>
<extensions>
<speed>4.0</speed>
<temp>0.00</temp>
<bpm>0</bpm>
<rpm>0.00</rpm>
</extensions>
</trkpt>
<trkpt lat="64.041145325" lon="-20.259031296">
<ele>99.044922</ele>
<time>2012-07-20T19:05:54Z</time>
<speed>4.350000</speed>
<extensions>
<speed>4.3</speed>
<temp>0.00</temp>
<bpm>0</bpm>
<rpm>0.00</rpm>
</extensions>
</trkpt>
<trkpt lat="64.041122437" lon="-20.258615494">
<ele>104.007813</ele>
<time>2012-07-20T19:05:59Z</time>
<speed>3.860000</speed>
<extensions>
<speed>3.9</speed>
<temp>0.00</temp>
<bpm>0</bpm>
<rpm>0.00</rpm>
</extensions>
</trkpt>
<trkpt lat="64.041099548" lon="-20.258159637">
<ele>102.529297</ele>
<time>2012-07-20T19:06:04Z</time>
<speed>4.600000</speed>
<extensions>
<speed>4.6</speed>
<temp>0.00</temp>
<bpm>0</bpm>
<rpm>0.00</rpm>
</extensions>
</trkpt>
<trkpt lat="64.041076660" lon="-20.257728577">
<ele>103.353516</ele>
<time>2012-07-20T19:06:09Z</time>
<speed>4.150000</speed>
<extensions>
<speed>4.1</speed>
<temp>0.00</temp>
<bpm>0</bpm>
<rpm>0.00</rpm>
</extensions>
</trkpt>
<trkpt lat="64.041053772" lon="-20.257307053">
<ele>103.062500</ele>
<time>2012-07-20T19:06:14Z</time>
<speed>4.140000</speed>
<extensions>
<speed>4.1</speed>
<temp>0.00</temp>
<bpm>0</bpm>
<rpm>0.00</rpm>
</extensions>
</trkpt>
<trkpt lat="64.041038513" lon="-20.256900787">
<ele>102.923828</ele>
<time>2012-07-20T19:06:19Z</time>
<speed>4.040000</speed>
<extensions>
<speed>4.0</speed>
<temp>0.00</temp>
<bpm>0</bpm>
<rpm>0.00</rpm>
</extensions>
</trkpt>
<trkpt lat="64.041015625" lon="-20.256467819">
<ele>101.886719</ele>
<time>2012-07-20T19:06:24Z</time>
<speed>4.080000</speed>
<extensions>
<speed>4.1</speed>
<temp>0.00</temp>
<bpm>0</bpm>
<rpm>0.00</rpm>
</extensions>
</trkpt>
<trkpt lat="64.041007996" lon="-20.256034851">
<ele>100.781250</ele>
<time>2012-07-20T19:06:29Z</time>
<speed>4.110000</speed>
<extensions>
<speed>4.1</speed>
<temp>0.00</temp>
<bpm>0</bpm>
<rpm>0.00</rpm>
</extensions>
</trkpt>
<trkpt lat="64.040992737" lon="-20.255603790">
<ele>99.277344</ele>
<time>2012-07-20T19:06:34Z</time>
<speed>4.360000</speed>
<extensions>
<speed>4.4</speed>
<temp>0.00</temp>
<bpm>0</bpm>
<rpm>0.00</rpm>
</extensions>
</trkpt>
<trkpt lat="64.040992737" lon="-20.255155563">
<ele>98.183594</ele>
<time>2012-07-20T19:06:39Z</time>
<speed>4.630000</speed>
<extensions>
<speed>4.6</speed>
<temp>0.00</temp>
<bpm>0</bpm>
<rpm>0.00</rpm>
</extensions>
</trkpt>
<trkpt lat="64.040977478" lon="-20.254682541">
<ele>97.886719</ele>
<time>2012-07-20T19:06:44Z</time>
<speed>4.750000</speed>
<extensions>
<speed>4.8</speed>
<temp>0.00</temp>
<bpm>0</bpm>
<rpm>0.00</rpm>
</extensions>
</trkpt>
<trkpt lat="64.040969849" lon="-20.254220963">
<ele>96.675781</ele>
<time>2012-07-20T19:06:49Z</time>
<speed>4.340000</speed>
<extensions>
<speed>4.3</speed>
<temp>0.00</temp>
<bpm>0</bpm>
<rpm>0.00</rpm>
</extensions>
</trkpt>
<trkpt lat="64.040977478" lon="-20.253765106">
<ele>97.363281</ele>
<time>2012-07-20T19:06:54Z</time>
<speed>4.530000</speed>
<extensions>
<speed>4.5</speed>
<temp>0.00</temp>
<bpm>0</bpm>
<rpm>0.00</rpm>
</extensions>
</trkpt>
<trkpt lat="64.040969849" lon="-20.253292084">
<ele>97.699219</ele>
<time>2012-07-20T19:06:59Z</time>
<speed>4.570000</speed>
<extensions>
<speed>4.6</speed>
<temp>0.00</temp>
<bpm>0</bpm>
<rpm>0.00</rpm>
</extensions>
</trkpt>
<trkpt lat="64.040969849" lon="-20.252861023">
<ele>97.103516</ele>
<time>2012-07-20T19:07:04Z</time>
<speed>4.200000</speed>
<extensions>
<speed>4.2</speed>
<temp>0.00</temp>
<bpm>0</bpm>
<rpm>0.00</rpm>
</extensions>
</trkpt>
<trkpt lat="64.040962219" lon="-20.252466202">
<ele>97.490234</ele>
<time>2012-07-20T19:07:09Z</time>
<speed>3.520000</speed>
<extensions>
<speed>3.5</speed>
<temp>0.00</temp>
<bpm>0</bpm>
<rpm>0.00</rpm>
</extensions>
</trkpt>
<trkpt lat="64.040962219" lon="-20.252147675">
<ele>97.246094</ele>
<time>2012-07-20T19:07:14Z</time>
<speed>3.000000</speed>
<extensions>
<speed>3.0</speed>
<temp>0.00</temp>
<bpm>0</bpm>
<rpm>0.00</rpm>
</extensions>
</trkpt>
<trkpt lat="64.040954590" lon="-20.251850128">
<ele>95.966797</ele>
<time>2012-07-20T19:07:19Z</time>
<speed>3.320000</speed>
<extensions>
<speed>3.3</speed>
<temp>0.00</temp>
<bpm>0</bpm>
<rpm>0.00</rpm>
</extensions>
</trkpt>
<trkpt lat="64.040954590" lon="-20.251518250">
<ele>95.914063</ele>
<time>2012-07-20T19:07:24Z</time>
<speed>3.100000</speed>
<extensions>
<speed>3.1</speed>
<temp>0.00</temp>
<bpm>0</bpm>
<rpm>0.00</rpm>
</extensions>
</trkpt>
<trkpt lat="64.040962219" lon="-20.251186371">
<ele>95.634766</ele>
<time>2012-07-20T19:07:29Z</time>
<speed>3.410000</speed>
<extensions>
<speed>3.4</speed>
<temp>0.00</temp>
<bpm>0</bpm>
<rpm>0.00</rpm>
</extensions>
</trkpt>
<trkpt lat="64.040969849" lon="-20.250850677">
<ele>95.500000</ele>
<time>2012-07-20T19:07:34Z</time>
<speed>3.180000</speed>
<extensions>
<speed>3.2</speed>
<temp>0.00</temp>
<bpm>0</bpm>
<rpm>0.00</rpm>
</extensions>
</trkpt>
<trkpt lat="64.040969849" lon="-20.250503540">
<ele>94.638672</ele>
<time>2012-07-20T19:07:39Z</time>
<speed>3.570000</speed>
<extensions>
<speed>3.6</speed>
<temp>0.00</temp>
<bpm>0</bpm>
<rpm>0.00</rpm>
</extensions>
</trkpt>
<trkpt lat="64.040969849" lon="-20.250143051">
<ele>94.449219</ele>
<time>2012-07-20T19:07:44Z</time>
<speed>3.360000</speed>
<extensions>
<speed>3.4</speed>
<temp>0.00</temp>
<bpm>0</bpm>
<rpm>0.00</rpm>
</extensions>
</trkpt>
<trkpt lat="64.040969849" lon="-20.249826431">
<ele>94.949219</ele>
<time>2012-07-20T19:07:49Z</time>
<speed>3.190000</speed>
<extensions>
<speed>3.2</speed>
<temp>0.00</temp>
<bpm>0</bpm>
<rpm>0.00</rpm>
</extensions>
</trkpt>
<trkpt lat="64.040969849" lon="-20.249458313">
<ele>94.345703</ele>
<time>2012-07-20T19:07:54Z</time>
<speed>3.990000</speed>
<extensions>
<speed>4.0</speed>
<temp>0.00</temp>
<bpm>0</bpm>
<rpm>0.00</rpm>
</extensions>
</trkpt>
<trkpt lat="64.040962219" lon="-20.248998642">
<ele>94.750000</ele>
<time>2012-07-20T19:07:59Z</time>
<speed>4.660000</speed>
<extensions>
<speed>4.7</speed>
<temp>0.00</temp>
<bpm>0</bpm>
<rpm>0.00</rpm>
</extensions>
</trkpt>
<trkpt lat="64.040969849" lon="-20.248498917">
<ele>94.748047</ele>
<time>2012-07-20T19:08:04Z</time>
<speed>4.930000</speed>
<extensions>
<speed>4.9</speed>
<temp>0.00</temp>
<bpm>0</bpm>
<rpm>0.00</rpm>
</extensions>
</trkpt>
<trkpt lat="64.040969849" lon="-20.247983932">
<ele>94.658203</ele>
<time>2012-07-20T19:08:09Z</time>
<speed>5.190000</speed>
<extensions>
<speed>5.2</speed>
<temp>0.00</temp>
<bpm>0</bpm>
<rpm>0.00</rpm>
</extensions>
</trkpt>
<trkpt lat="64.040969849" lon="-20.247449875">
<ele>94.359375</ele>
<time>2012-07-20T19:08:14Z</time>
<speed>5.450000</speed>
<extensions>
<speed>5.5</speed>
<temp>0.00</temp>
<bpm>0</bpm>
<rpm>0.00</rpm>
</extensions>
</trkpt>
<trkpt lat="64.040969849" lon="-20.246887207">
<ele>94.083984</ele>
<time>2012-07-20T19:08:19Z</time>
<speed>5.360000</speed>
<extensions>
<speed>5.4</speed>
<temp>0.00</temp>
<bpm>0</bpm>
<rpm>0.00</rpm>
</extensions>
</trkpt>
<trkpt lat="64.040977478" lon="-20.246341705">
<ele>94.312500</ele>
<time>2012-07-20T19:08:24Z</time>
<speed>5.420000</speed>
<extensions>
<speed>5.4</speed>
<temp>0.00</temp>
<bpm>0</bpm>
<rpm>0.00</rpm>
</extensions>
</trkpt>
<trkpt lat="64.040977478" lon="-20.245794296">
<ele>94.316406</ele>
<time>2012-07-20T19:08:29Z</time>
<speed>4.890000</speed>
<extensions>
<speed>4.9</speed>
<temp>0.00</temp>
<bpm>0</bpm>
<rpm>0.00</rpm>
</extensions>
</trkpt>
<trkpt lat="64.040969849" lon="-20.245302200">
<ele>94.349609</ele>
<time>2012-07-20T19:08:34Z</time>
<speed>4.760000</speed>
<extensions>
<speed>4.8</speed>
<temp>0.00</temp>
<bpm>0</bpm>
<rpm>0.00</rpm>
</extensions>
</trkpt>
<trkpt lat="64.040969849" lon="-20.244827271">
<ele>94.910156</ele>
<time>2012-07-20T19:08:39Z</time>
<speed>4.650000</speed>
<extensions>
<speed>4.6</speed>
<temp>0.00</temp>
<bpm>0</bpm>
<rpm>0.00</rpm>
</extensions>
</trkpt>
<trkpt lat="64.040969849" lon="-20.244346619">
<ele>95.162109</ele>
<time>2012-07-20T19:08:44Z</time>
<speed>4.810000</speed>
<extensions>
<speed>4.8</speed>
<temp>0.00</temp>
<bpm>0</bpm>
<rpm>0.00</rpm>
</extensions>
</trkpt>
<trkpt lat="64.040977478" lon="-20.243862152">
<ele>95.494141</ele>
<time>2012-07-20T19:08:49Z</time>
<speed>4.750000</speed>
<extensions>
<speed>4.8</speed>
<temp>0.00</temp>
<bpm>0</bpm>
<rpm>0.00</rpm>
</extensions>
</trkpt>
<trkpt lat="64.040969849" lon="-20.243368149">
<ele>95.728516</ele>
<time>2012-07-20T19:08:54Z</time>
<speed>4.900000</speed>
<extensions>
<speed>4.9</speed>
<temp>0.00</temp>
<bpm>0</bpm>
<rpm>0.00</rpm>
</extensions>
</trkpt>
<trkpt lat="64.040977478" lon="-20.242876053">
<ele>95.646484</ele>
<time>2012-07-20T19:08:59Z</time>
<speed>4.750000</speed>
<extensions>
<speed>4.8</speed>
<temp>0.00</temp>
<bpm>0</bpm>
<rpm>0.00</rpm>
</extensions>
</trkpt>
<trkpt lat="64.040992737" lon="-20.242403030">
<ele>96.857422</ele>
<time>2012-07-20T19:09:04Z</time>
<speed>4.350000</speed>
<extensions>
<speed>4.3</speed>
<temp>0.00</temp>
<bpm>0</bpm>
<rpm>0.00</rpm>
</extensions>
</trkpt>
<trkpt lat="64.040992737" lon="-20.241956711">
<ele>96.919922</ele>
<time>2012-07-20T19:09:09Z</time>
<speed>4.170000</speed>
<extensions>
<speed>4.2</speed>
<temp>0.00</temp>
<bpm>0</bpm>
<rpm>0.00</rpm>
</extensions>
</trkpt>
<trkpt lat="64.040992737" lon="-20.241518021">
<ele>96.994141</ele>
<time>2012-07-20T19:09:14Z</time>
<speed>4.310000</speed>
<extensions>
<speed>4.3</speed>
<temp>0.00</temp>
<bpm>0</bpm>
<rpm>0.00</rpm>
</extensions>
</trkpt>
<trkpt lat="64.040985107" lon="-20.241071701">
<ele>97.462891</ele>
<time>2012-07-20T19:09:19Z</time>
<speed>4.130000</speed>
<extensions>
<speed>4.1</speed>
<temp>0.00</temp>
<bpm>0</bpm>
<rpm>0.00</rpm>
</extensions>
</trkpt>
<trkpt lat="64.040992737" lon="-20.240682602">
<ele>97.332031</ele>
<time>2012-07-20T19:09:24Z</time>
<speed>3.910000</speed>
<extensions>
<speed>3.9</speed>
<temp>0.00</temp>
<bpm>0</bpm>
<rpm>0.00</rpm>
</extensions>
</trkpt>
<trkpt lat="64.040985107" lon="-20.240274429">
<ele>97.195313</ele>
<time>2012-07-20T19:09:29Z</time>
<speed>3.880000</speed>
<extensions>
<speed>3.9</speed>
<temp>0.00</temp>
<bpm>0</bpm>
<rpm>0.00</rpm>
</extensions>
</trkpt>
<trkpt lat="64.040992737" lon="-20.239868164">
<ele>97.058594</ele>
<time>2012-07-20T19:09:34Z</time>
<speed>3.940000</speed>
<extensions>
<speed>3.9</speed>
<temp>0.00</temp>
<bpm>0</bpm>
<rpm>0.00</rpm>
</extensions>
</trkpt>
<trkpt lat="64.040992737" lon="-20.239509583">
<ele>97.347656</ele>
<time>2012-07-20T19:09:39Z</time>
<speed>3.630000</speed>
<extensions>
<speed>3.6</speed>
<temp>0.00</temp>
<bpm>0</bpm>
<rpm>0.00</rpm>
</extensions>
</trkpt>
<trkpt lat="64.040992737" lon="-20.239131927">
<ele>97.544922</ele>
<time>2012-07-20T19:09:44Z</time>
<speed>3.710000</speed>
<extensions>
<speed>3.7</speed>
<temp>0.00</temp>
<bpm>0</bpm>
<rpm>0.00</rpm>
</extensions>
</trkpt>
<trkpt lat="64.040992737" lon="-20.238758087">
<ele>98.275391</ele>
<time>2012-07-20T19:09:49Z</time>
<speed>3.710000</speed>
<extensions>
<speed>3.7</speed>
<temp>0.00</temp>
<bpm>0</bpm>
<rpm>0.00</rpm>
</extensions>
</trkpt>
<trkpt lat="64.040992737" lon="-20.238359451">
<ele>98.587891</ele>
<time>2012-07-20T19:09:54Z</time>
<speed>4.100000</speed>
<extensions>
<speed>4.1</speed>
<temp>0.00</temp>
<bpm>0</bpm>
<rpm>0.00</rpm>
</extensions>
</trkpt>
<trkpt lat="64.040992737" lon="-20.237945557">
<ele>99.060547</ele>
<time>2012-07-20T19:09:59Z</time>
<speed>3.910000</speed>
<extensions>
<speed>3.9</speed>
<temp>0.00</temp>
<bpm>0</bpm>
<rpm>0.00</rpm>
</extensions>
</trkpt>
<trkpt lat="64.040992737" lon="-20.237518311">
<ele>99.039063</ele>
<time>2012-07-20T19:10:04Z</time>
<speed>4.200000</speed>
<extensions>
<speed>4.2</speed>
<temp>0.00</temp>
<bpm>0</bpm>
<rpm>0.00</rpm>
</extensions>
</trkpt>
<trkpt lat="64.041000366" lon="-20.237062454">
<ele>99.037109</ele>
<time>2012-07-20T19:10:09Z</time>
<speed>4.590000</speed>
<extensions>
<speed>4.6</speed>
<temp>0.00</temp>
<bpm>0</bpm>
<rpm>0.00</rpm>
</extensions>
</trkpt>
<trkpt lat="64.041000366" lon="-20.236640930">
<ele>99.771484</ele>
<time>2012-07-20T19:10:14Z</time>
<speed>3.810000</speed>
<extensions>
<speed>3.8</speed>
<temp>0.00</temp>
<bpm>0</bpm>
<rpm>0.00</rpm>
</extensions>
</trkpt>
<trkpt lat="64.041007996" lon="-20.236263275">
<ele>100.304688</ele>
<time>2012-07-20T19:10:19Z</time>
<speed>3.960000</speed>
<extensions>
<speed>4.0</speed>
<temp>0.00</temp>
<bpm>0</bpm>
<rpm>0.00</rpm>
</extensions>
</trkpt>
<trkpt lat="64.041007996" lon="-20.235815048">
<ele>100.261719</ele>
<time>2012-07-20T19:10:24Z</time>
<speed>4.530000</speed>
<extensions>
<speed>4.5</speed>
<temp>0.00</temp>
<bpm>0</bpm>
<rpm>0.00</rpm>
</extensions>
</trkpt>
<trkpt lat="64.041007996" lon="-20.235336304">
<ele>99.626953</ele>
<time>2012-07-20T19:10:29Z</time>
<speed>4.720000</speed>
<extensions>
<speed>4.7</speed>
<temp>0.00</temp>
<bpm>0</bpm>
<rpm>0.00</rpm>
</extensions>
</trkpt>
<trkpt lat="64.040992737" lon="-20.234859467">
<ele>100.445313</ele>
<time>2012-07-20T19:10:34Z</time>
<speed>4.570000</speed>
<extensions>
<speed>4.6</speed>
<temp>0.00</temp>
<bpm>0</bpm>
<rpm>0.00</rpm>
</extensions>
</trkpt>
<trkpt lat="64.040992737" lon="-20.234395981">
<ele>100.208984</ele>
<time>2012-07-20T19:10:39Z</time>
<speed>4.650000</speed>
<extensions>
<speed>4.6</speed>
<temp>0.00</temp>
<bpm>0</bpm>
<rpm>0.00</rpm>
</extensions>
</trkpt>
<trkpt lat="64.040992737" lon="-20.233926773">
<ele>99.921875</ele>
<time>2012-07-20T19:10:44Z</time>
<speed>4.530000</speed>
<extensions>
<speed>4.5</speed>
<temp>0.00</temp>
<bpm>0</bpm>
<rpm>0.00</rpm>
</extensions>
</trkpt>
<trkpt lat="64.041000366" lon="-20.233472824">
<ele>99.830078</ele>
<time>2012-07-20T19:10:49Z</time>
<speed>4.350000</speed>
<extensions>
<speed>4.3</speed>
<temp>0.00</temp>
<bpm>0</bpm>
<rpm>0.00</rpm>
</extensions>
</trkpt>
<trkpt lat="64.041000366" lon="-20.233032227">
<ele>100.199219</ele>
<time>2012-07-20T19:10:54Z</time>
<speed>4.240000</speed>
<extensions>
<speed>4.2</speed>
<temp>0.00</temp>
<bpm>0</bpm>
<rpm>0.00</rpm>
</extensions>
</trkpt>
<trkpt lat="64.041000366" lon="-20.232597351">
<ele>100.890625</ele>
<time>2012-07-20T19:10:59Z</time>
<speed>4.280000</speed>
<extensions>
<speed>4.3</speed>
<temp>0.00</temp>
<bpm>0</bpm>
<rpm>0.00</rpm>
</extensions>
</trkpt>
<trkpt lat="64.041000366" lon="-20.232160568">
<ele>101.134766</ele>
<time>2012-07-20T19:11:04Z</time>
<speed>4.430000</speed>
<extensions>
<speed>4.4</speed>
<temp>0.00</temp>
<bpm>0</bpm>
<rpm>0.00</rpm>
</extensions>
</trkpt>
<trkpt lat="64.041000366" lon="-20.231721878">
<ele>101.224609</ele>
<time>2012-07-20T19:11:09Z</time>
<speed>4.360000</speed>
<extensions>
<speed>4.4</speed>
<temp>0.00</temp>
<bpm>0</bpm>
<rpm>0.00</rpm>
</extensions>
</trkpt>
<trkpt lat="64.041000366" lon="-20.231287003">
<ele>101.835938</ele>
<time>2012-07-20T19:11:14Z</time>
<speed>4.130000</speed>
<extensions>
<speed>4.1</speed>
<temp>0.00</temp>
<bpm>0</bpm>
<rpm>0.00</rpm>
</extensions>
</trkpt>
<trkpt lat="64.041015625" lon="-20.230875015">
<ele>102.796875</ele>
<time>2012-07-20T19:11:19Z</time>
<speed>4.090000</speed>
<extensions>
<speed>4.1</speed>
<temp>0.00</temp>
<bpm>0</bpm>
<rpm>0.00</rpm>
</extensions>
</trkpt>
<trkpt lat="64.041015625" lon="-20.230447769">
<ele>102.658203</ele>
<time>2012-07-20T19:11:24Z</time>
<speed>4.340000</speed>
<extensions>
<speed>4.3</speed>
<temp>0.00</temp>
<bpm>0</bpm>
<rpm>0.00</rpm>
</extensions>
</trkpt>
<trkpt lat="64.041007996" lon="-20.230012894">
<ele>102.779297</ele>
<time>2012-07-20T19:11:29Z</time>
<speed>4.140000</speed>
<extensions>
<speed>4.1</speed>
<temp>0.00</temp>
<bpm>0</bpm>
<rpm>0.00</rpm>
</extensions>
</trkpt>
<trkpt lat="64.041000366" lon="-20.229587555">
<ele>103.134766</ele>
<time>2012-07-20T19:11:34Z</time>
<speed>4.270000</speed>
<extensions>
<speed>4.3</speed>
<temp>0.00</temp>
<bpm>0</bpm>
<rpm>0.00</rpm>
</extensions>
</trkpt>
<trkpt lat="64.041007996" lon="-20.229150772">
<ele>103.867188</ele>
<time>2012-07-20T19:11:39Z</time>
<speed>4.110000</speed>
<extensions>
<speed>4.1</speed>
<temp>0.00</temp>
<bpm>0</bpm>
<rpm>0.00</rpm>
</extensions>
</trkpt>
<trkpt lat="64.041015625" lon="-20.228719711">
<ele>103.363281</ele>
<time>2012-07-20T19:11:44Z</time>
<speed>4.310000</speed>
<extensions>
<speed>4.3</speed>
<temp>0.00</temp>
<bpm>0</bpm>
<rpm>0.00</rpm>
</extensions>
</trkpt>
<trkpt lat="64.041015625" lon="-20.228265762">
<ele>103.892578</ele>
<time>2012-07-20T19:11:49Z</time>
<speed>4.370000</speed>
<extensions>
<speed>4.4</speed>
<temp>0.00</temp>
<bpm>0</bpm>
<rpm>0.00</rpm>
</extensions>
</trkpt>
<trkpt lat="64.041015625" lon="-20.227817535">
<ele>104.345703</ele>
<time>2012-07-20T19:11:54Z</time>
<speed>4.450000</speed>
<extensions>
<speed>4.5</speed>
<temp>0.00</temp>
<bpm>0</bpm>
<rpm>0.00</rpm>
</extensions>
</trkpt>
<trkpt lat="64.041023254" lon="-20.227363586">
<ele>104.302734</ele>
<time>2012-07-20T19:11:59Z</time>
<speed>4.510000</speed>
<extensions>
<speed>4.5</speed>
<temp>0.00</temp>
<bpm>0</bpm>
<rpm>0.00</rpm>
</extensions>
</trkpt>
<trkpt lat="64.041015625" lon="-20.226886749">
<ele>104.603516</ele>
<time>2012-07-20T19:12:04Z</time>
<speed>4.520000</speed>
<extensions>
<speed>4.5</speed>
<temp>0.00</temp>
<bpm>0</bpm>
<rpm>0.00</rpm>
</extensions>
</trkpt>
<trkpt lat="64.041023254" lon="-20.226442337">
<ele>104.791016</ele>
<time>2012-07-20T19:12:09Z</time>
<speed>4.440000</speed>
<extensions>
<speed>4.4</speed>
<temp>0.00</temp>
<bpm>0</bpm>
<rpm>0.00</rpm>
</extensions>
</trkpt>
<trkpt lat="64.041015625" lon="-20.225992203">
<ele>104.425781</ele>
<time>2012-07-20T19:12:14Z</time>
<speed>4.250000</speed>
<extensions>
<speed>4.3</speed>
<temp>0.00</temp>
<bpm>0</bpm>
<rpm>0.00</rpm>
</extensions>
</trkpt>
<trkpt lat="64.041023254" lon="-20.225561142">
<ele>104.257813</ele>
<time>2012-07-20T19:12:19Z</time>
<speed>4.340000</speed>
<extensions>
<speed>4.3</speed>
<temp>0.00</temp>
<bpm>0</bpm>
<rpm>0.00</rpm>
</extensions>
</trkpt>
<trkpt lat="64.041030884" lon="-20.225112915">
<ele>104.085938</ele>
<time>2012-07-20T19:12:24Z</time>
<speed>4.410000</speed>
<extensions>
<speed>4.4</speed>
<temp>0.00</temp>
<bpm>0</bpm>
<rpm>0.00</rpm>
</extensions>
</trkpt>
<trkpt lat="64.041030884" lon="-20.224658966">
<ele>103.458984</ele>
<time>2012-07-20T19:12:29Z</time>
<speed>4.490000</speed>
<extensions>
<speed>4.5</speed>
<temp>0.00</temp>
<bpm>0</bpm>
<rpm>0.00</rpm>
</extensions>
</trkpt>
<trkpt lat="64.041030884" lon="-20.224208832">
<ele>102.914063</ele>
<time>2012-07-20T19:12:34Z</time>
<speed>4.340000</speed>
<extensions>
<speed>4.3</speed>
<temp>0.00</temp>
<bpm>0</bpm>
<rpm>0.00</rpm>
</extensions>
</trkpt>
<trkpt lat="64.041030884" lon="-20.223754883">
<ele>102.572266</ele>
<time>2012-07-20T19:12:39Z</time>
<speed>4.270000</speed>
<extensions>
<speed>4.3</speed>
<temp>0.00</temp>
<bpm>0</bpm>
<rpm>0.00</rpm>
</extensions>
</trkpt>
<trkpt lat="64.041038513" lon="-20.223308563">
<ele>102.373047</ele>
<time>2012-07-20T19:12:44Z</time>
<speed>4.440000</speed>
<extensions>
<speed>4.4</speed>
<temp>0.00</temp>
<bpm>0</bpm>
<rpm>0.00</rpm>
</extensions>
</trkpt>
<trkpt lat="64.041038513" lon="-20.222850800">
<ele>102.339844</ele>
<time>2012-07-20T19:12:49Z</time>
<speed>4.460000</speed>
<extensions>
<speed>4.5</speed>
<temp>0.00</temp>
<bpm>0</bpm>
<rpm>0.00</rpm>
</extensions>
</trkpt>
<trkpt lat="64.041030884" lon="-20.222381592">
<ele>102.054688</ele>
<time>2012-07-20T19:12:54Z</time>
<speed>4.570000</speed>
<extensions>
<speed>4.6</speed>
<temp>0.00</temp>
<bpm>0</bpm>
<rpm>0.00</rpm>
</extensions>
</trkpt>
<trkpt lat="64.041038513" lon="-20.221916199">
<ele>101.835938</ele>
<time>2012-07-20T19:12:59Z</time>
<speed>4.550000</speed>
<extensions>
<speed>4.5</speed>
<temp>0.00</temp>
<bpm>0</bpm>
<rpm>0.00</rpm>
</extensions>
</trkpt>
<trkpt lat="64.041038513" lon="-20.221445084">
<ele>101.292969</ele>
<time>2012-07-20T19:13:04Z</time>
<speed>4.620000</speed>
<extensions>
<speed>4.6</speed>
<temp>0.00</temp>
<bpm>0</bpm>
<rpm>0.00</rpm>
</extensions>
</trkpt>
<trkpt lat="64.041038513" lon="-20.220962524">
<ele>101.699219</ele>
<time>2012-07-20T19:13:09Z</time>
<speed>4.700000</speed>
<extensions>
<speed>4.7</speed>
<temp>0.00</temp>
<bpm>0</bpm>
<rpm>0.00</rpm>
</extensions>
</trkpt>
<trkpt lat="64.041038513" lon="-20.220470428">
<ele>101.990234</ele>
<time>2012-07-20T19:13:14Z</time>
<speed>4.620000</speed>
<extensions>
<speed>4.6</speed>
<temp>0.00</temp>
<bpm>0</bpm>
<rpm>0.00</rpm>
</extensions>
</trkpt>
<trkpt lat="64.041038513" lon="-20.219997406">
<ele>102.025391</ele>
<time>2012-07-20T19:13:19Z</time>
<speed>4.680000</speed>
<extensions>
<speed>4.7</speed>
<temp>0.00</temp>
<bpm>0</bpm>
<rpm>0.00</rpm>
</extensions>
</trkpt>
<trkpt lat="64.041046143" lon="-20.219591141">
<ele>102.570313</ele>
<time>2012-07-20T19:13:24Z</time>
<speed>3.580000</speed>
<extensions>
<speed>3.6</speed>
<temp>0.00</temp>
<bpm>0</bpm>
<rpm>0.00</rpm>
</extensions>
</trkpt>
<trkpt lat="64.041046143" lon="-20.219215393">
<ele>101.695313</ele>
<time>2012-07-20T19:13:29Z</time>
<speed>3.510000</speed>
<extensions>
<speed>3.5</speed>
<temp>0.00</temp>
<bpm>0</bpm>
<rpm>0.00</rpm>
</extensions>
</trkpt>
<trkpt lat="64.041053772" lon="-20.218801498">
<ele>100.576172</ele>
<time>2012-07-20T19:13:34Z</time>
<speed>4.150000</speed>
<extensions>
<speed>4.1</speed>
<temp>0.00</temp>
<bpm>0</bpm>
<rpm>0.00</rpm>
</extensions>
</trkpt>
<trkpt lat="64.041053772" lon="-20.218379974">
<ele>101.058594</ele>
<time>2012-07-20T19:13:39Z</time>
<speed>3.950000</speed>
<extensions>
<speed>4.0</speed>
<temp>0.00</temp>
<bpm>0</bpm>
<rpm>0.00</rpm>
</extensions>
</trkpt>
<trkpt lat="64.041046143" lon="-20.217967987">
<ele>101.558594</ele>
<time>2012-07-20T19:13:44Z</time>
<speed>4.150000</speed>
<extensions>
<speed>4.1</speed>
<temp>0.00</temp>
<bpm>0</bpm>
<rpm>0.00</rpm>
</extensions>
</trkpt>
<trkpt lat="64.041053772" lon="-20.217535019">
<ele>101.962891</ele>
<time>2012-07-20T19:13:49Z</time>
<speed>4.140000</speed>
<extensions>
<speed>4.1</speed>
<temp>0.00</temp>
<bpm>0</bpm>
<rpm>0.00</rpm>
</extensions>
</trkpt>
<trkpt lat="64.041053772" lon="-20.217105865">
<ele>101.570313</ele>
<time>2012-07-20T19:13:54Z</time>
<speed>3.930000</speed>
<extensions>
<speed>3.9</speed>
<temp>0.00</temp>
<bpm>0</bpm>
<rpm>0.00</rpm>
</extensions>
</trkpt>
<trkpt lat="64.041046143" lon="-20.216701508">
<ele>101.486328</ele>
<time>2012-07-20T19:13:59Z</time>
<speed>3.930000</speed>
<extensions>
<speed>3.9</speed>
<temp>0.00</temp>
<bpm>0</bpm>
<rpm>0.00</rpm>
</extensions>
</trkpt>
<trkpt lat="64.041053772" lon="-20.216310501">
<ele>101.347656</ele>
<time>2012-07-20T19:14:04Z</time>
<speed>3.830000</speed>
<extensions>
<speed>3.8</speed>
<temp>0.00</temp>
<bpm>0</bpm>
<rpm>0.00</rpm>
</extensions>
</trkpt>
<trkpt lat="64.041046143" lon="-20.215911865">
<ele>101.675781</ele>
<time>2012-07-20T19:14:09Z</time>
<speed>3.880000</speed>
<extensions>
<speed>3.9</speed>
<temp>0.00</temp>
<bpm>0</bpm>
<rpm>0.00</rpm>
</extensions>
</trkpt>
<trkpt lat="64.041053772" lon="-20.215509415">
<ele>101.285156</ele>
<time>2012-07-20T19:14:14Z</time>
<speed>4.180000</speed>
<extensions>
<speed>4.2</speed>
<temp>0.00</temp>
<bpm>0</bpm>
<rpm>0.00</rpm>
</extensions>
</trkpt>
<trkpt lat="64.041053772" lon="-20.215063095">
<ele>101.013672</ele>
<time>2012-07-20T19:14:19Z</time>
<speed>4.150000</speed>
<extensions>
<speed>4.1</speed>
<temp>0.00</temp>
<bpm>0</bpm>
<rpm>0.00</rpm>
</extensions>
</trkpt>
<trkpt lat="64.041053772" lon="-20.214612961">
<ele>101.250000</ele>
<time>2012-07-20T19:14:24Z</time>
<speed>4.060000</speed>
<extensions>
<speed>4.1</speed>
<temp>0.00</temp>
<bpm>0</bpm>
<rpm>0.00</rpm>
</extensions>
</trkpt>
<trkpt lat="64.041053772" lon="-20.214153290">
<ele>101.984375</ele>
<time>2012-07-20T19:14:29Z</time>
<speed>4.380000</speed>
<extensions>
<speed>4.4</speed>
<temp>0.00</temp>
<bpm>0</bpm>
<rpm>0.00</rpm>
</extensions>
</trkpt>
<trkpt lat="64.041061401" lon="-20.213712692">
<ele>102.349609</ele>
<time>2012-07-20T19:14:34Z</time>
<speed>4.370000</speed>
<extensions>
<speed>4.4</speed>
<temp>0.00</temp>
<bpm>0</bpm>
<rpm>0.00</rpm>
</extensions>
</trkpt>
<trkpt lat="64.041061401" lon="-20.213266373">
<ele>102.933594</ele>
<time>2012-07-20T19:14:39Z</time>
<speed>4.050000</speed>
<extensions>
<speed>4.0</speed>
<temp>0.00</temp>
<bpm>0</bpm>
<rpm>0.00</rpm>
</extensions>
</trkpt>
<trkpt lat="64.041069031" lon="-20.212837219">
<ele>103.355469</ele>
<time>2012-07-20T19:14:44Z</time>
<speed>4.480000</speed>
<extensions>
<speed>4.5</speed>
<temp>0.00</temp>
<bpm>0</bpm>
<rpm>0.00</rpm>
</extensions>
</trkpt>
<trkpt lat="64.041061401" lon="-20.212385178">
<ele>104.119141</ele>
<time>2012-07-20T19:14:49Z</time>
<speed>4.610000</speed>
<extensions>
<speed>4.6</speed>
<temp>0.00</temp>
<bpm>0</bpm>
<rpm>0.00</rpm>
</extensions>
</trkpt>
<trkpt lat="64.041061401" lon="-20.211910248">
<ele>104.507813</ele>
<time>2012-07-20T19:14:54Z</time>
<speed>4.760000</speed>
<extensions>
<speed>4.8</speed>
<temp>0.00</temp>
<bpm>0</bpm>
<rpm>0.00</rpm>
</extensions>
</trkpt>
<trkpt lat="64.041053772" lon="-20.211462021">
<ele>104.998047</ele>
<time>2012-07-20T19:14:59Z</time>
<speed>4.300000</speed>
<extensions>
<speed>4.3</speed>
<temp>0.00</temp>
<bpm>0</bpm>
<rpm>0.00</rpm>
</extensions>
</trkpt>
<trkpt lat="64.041053772" lon="-20.211006165">
<ele>105.449219</ele>
<time>2012-07-20T19:15:04Z</time>
<speed>4.510000</speed>
<extensions>
<speed>4.5</speed>
<temp>0.00</temp>
<bpm>0</bpm>
<rpm>0.00</rpm>
</extensions>
</trkpt>
<trkpt lat="64.041061401" lon="-20.210540771">
<ele>105.347656</ele>
<time>2012-07-20T19:15:09Z</time>
<speed>4.430000</speed>
<extensions>
<speed>4.4</speed>
<temp>0.00</temp>
<bpm>0</bpm>
<rpm>0.00</rpm>
</extensions>
</trkpt>
<trkpt lat="64.041061401" lon="-20.210098267">
<ele>105.554688</ele>
<time>2012-07-20T19:15:14Z</time>
<speed>4.320000</speed>
<extensions>
<speed>4.3</speed>
<temp>0.00</temp>
<bpm>0</bpm>
<rpm>0.00</rpm>
</extensions>
</trkpt>
<trkpt lat="64.041069031" lon="-20.209655762">
<ele>105.490234</ele>
<time>2012-07-20T19:15:19Z</time>
<speed>4.340000</speed>
<extensions>
<speed>4.3</speed>
<temp>0.00</temp>
<bpm>0</bpm>
<rpm>0.00</rpm>
</extensions>
</trkpt>
<trkpt lat="64.041061401" lon="-20.209196091">
<ele>105.150391</ele>
<time>2012-07-20T19:15:24Z</time>
<speed>4.530000</speed>
<extensions>
<speed>4.5</speed>
<temp>0.00</temp>
<bpm>0</bpm>
<rpm>0.00</rpm>
</extensions>
</trkpt>
<trkpt lat="64.041069031" lon="-20.208728790">
<ele>104.960938</ele>
<time>2012-07-20T19:15:29Z</time>
<speed>4.590000</speed>
<extensions>
<speed>4.6</speed>
<temp>0.00</temp>
<bpm>0</bpm>
<rpm>0.00</rpm>
</extensions>
</trkpt>
<trkpt lat="64.041076660" lon="-20.208255768">
<ele>105.283203</ele>
<time>2012-07-20T19:15:34Z</time>
<speed>4.580000</speed>
<extensions>
<speed>4.6</speed>
<temp>0.00</temp>
<bpm>0</bpm>
<rpm>0.00</rpm>
</extensions>
</trkpt>
<trkpt lat="64.041076660" lon="-20.207765579">
<ele>104.900391</ele>
<time>2012-07-20T19:15:39Z</time>
<speed>4.670000</speed>
<extensions>
<speed>4.7</speed>
<temp>0.00</temp>
<bpm>0</bpm>
<rpm>0.00</rpm>
</extensions>
</trkpt>
<trkpt lat="64.041084290" lon="-20.207279205">
<ele>104.919922</ele>
<time>2012-07-20T19:15:44Z</time>
<speed>4.870000</speed>
<extensions>
<speed>4.9</speed>
<temp>0.00</temp>
<bpm>0</bpm>
<rpm>0.00</rpm>
</extensions>
</trkpt>
<trkpt lat="64.041091919" lon="-20.206796646">
<ele>105.285156</ele>
<time>2012-07-20T19:15:49Z</time>
<speed>4.430000</speed>
<extensions>
<speed>4.4</speed>
<temp>0.00</temp>
<bpm>0</bpm>
<rpm>0.00</rpm>
</extensions>
</trkpt>
<trkpt lat="64.041099548" lon="-20.206323624">
<ele>105.007813</ele>
<time>2012-07-20T19:15:54Z</time>
<speed>4.830000</speed>
<extensions>
<speed>4.8</speed>
<temp>0.00</temp>
<bpm>0</bpm>
<rpm>0.00</rpm>
</extensions>
</trkpt>
<trkpt lat="64.041122437" lon="-20.205816269">
<ele>104.626953</ele>
<time>2012-07-20T19:15:59Z</time>
<speed>4.710000</speed>
<extensions>
<speed>4.7</speed>
<temp>0.00</temp>
<bpm>0</bpm>
<rpm>0.00</rpm>
</extensions>
</trkpt>
<trkpt lat="64.041130066" lon="-20.205341339">
<ele>104.935547</ele>
<time>2012-07-20T19:16:04Z</time>
<speed>4.390000</speed>
<extensions>
<speed>4.4</speed>
<temp>0.00</temp>
<bpm>0</bpm>
<rpm>0.00</rpm>
</extensions>
</trkpt>
<trkpt lat="64.041152954" lon="-20.204900742">
<ele>104.984375</ele>
<time>2012-07-20T19:16:09Z</time>
<speed>4.360000</speed>
<extensions>
<speed>4.4</speed>
<temp>0.00</temp>
<bpm>0</bpm>
<rpm>0.00</rpm>
</extensions>
</trkpt>
<trkpt lat="64.041175842" lon="-20.204458237">
<ele>105.529297</ele>
<time>2012-07-20T19:16:14Z</time>
<speed>4.460000</speed>
<extensions>
<speed>4.5</speed>
<temp>0.00</temp>
<bpm>0</bpm>
<rpm>0.00</rpm>
</extensions>
</trkpt>
<trkpt lat="64.041206360" lon="-20.204002380">
<ele>105.861328</ele>
<time>2012-07-20T19:16:19Z</time>
<speed>4.490000</speed>
<extensions>
<speed>4.5</speed>
<temp>0.00</temp>
<bpm>0</bpm>
<rpm>0.00</rpm>
</extensions>
</trkpt>
<trkpt lat="64.041229248" lon="-20.203538895">
<ele>106.242188</ele>
<time>2012-07-20T19:16:24Z</time>
<speed>4.500000</speed>
<extensions>
<speed>4.5</speed>
<temp>0.00</temp>
<bpm>0</bpm>
<rpm>0.00</rpm>
</extensions>
</trkpt>
<trkpt lat="64.041252136" lon="-20.203086853">
<ele>105.800781</ele>
<time>2012-07-20T19:16:29Z</time>
<speed>4.450000</speed>
<extensions>
<speed>4.5</speed>
<temp>0.00</temp>
<bpm>0</bpm>
<rpm>0.00</rpm>
</extensions>
</trkpt>
<trkpt lat="64.041275024" lon="-20.202621460">
<ele>105.712891</ele>
<time>2012-07-20T19:16:34Z</time>
<speed>4.560000</speed>
<extensions>
<speed>4.6</speed>
<temp>0.00</temp>
<bpm>0</bpm>
<rpm>0.00</rpm>
</extensions>
</trkpt>
<trkpt lat="64.041305542" lon="-20.202163696">
<ele>105.984375</ele>
<time>2012-07-20T19:16:39Z</time>
<speed>4.380000</speed>
<extensions>
<speed>4.4</speed>
<temp>0.00</temp>
<bpm>0</bpm>
<rpm>0.00</rpm>
</extensions>
</trkpt>
<trkpt lat="64.041336060" lon="-20.201707840">
<ele>105.988281</ele>
<time>2012-07-20T19:16:44Z</time>
<speed>4.730000</speed>
<extensions>
<speed>4.7</speed>
<temp>0.00</temp>
<bpm>0</bpm>
<rpm>0.00</rpm>
</extensions>
</trkpt>
<trkpt lat="64.041374207" lon="-20.201227188">
<ele>105.953125</ele>
<time>2012-07-20T19:16:49Z</time>
<speed>4.660000</speed>
<extensions>
<speed>4.7</speed>
<temp>0.00</temp>
<bpm>0</bpm>
<rpm>0.00</rpm>
</extensions>
</trkpt>
<trkpt lat="64.041412354" lon="-20.200767517">
<ele>106.207031</ele>
<time>2012-07-20T19:16:54Z</time>
<speed>4.590000</speed>
<extensions>
<speed>4.6</speed>
<temp>0.00</temp>
<bpm>0</bpm>
<rpm>0.00</rpm>
</extensions>
</trkpt>
<trkpt lat="64.041458130" lon="-20.200317383">
<ele>105.888672</ele>
<time>2012-07-20T19:16:59Z</time>
<speed>4.580000</speed>
<extensions>
<speed>4.6</speed>
<temp>0.00</temp>
<bpm>0</bpm>
<rpm>0.00</rpm>
</extensions>
</trkpt>
<trkpt lat="64.041488647" lon="-20.199876785">
<ele>106.554688</ele>
<time>2012-07-20T19:17:04Z</time>
<speed>4.300000</speed>
<extensions>
<speed>4.3</speed>
<temp>0.00</temp>
<bpm>0</bpm>
<rpm>0.00</rpm>
</extensions>
</trkpt>
<trkpt lat="64.041534424" lon="-20.199430466">
<ele>106.152344</ele>
<time>2012-07-20T19:17:09Z</time>
<speed>4.580000</speed>
<extensions>
<speed>4.6</speed>
<temp>0.00</temp>
<bpm>0</bpm>
<rpm>0.00</rpm>
</extensions>
</trkpt>
<trkpt lat="64.041580200" lon="-20.198966980">
<ele>106.873047</ele>
<time>2012-07-20T19:17:14Z</time>
<speed>4.570000</speed>
<extensions>
<speed>4.6</speed>
<temp>0.00</temp>
<bpm>0</bpm>
<rpm>0.00</rpm>
</extensions>
</trkpt>
<trkpt lat="64.041618347" lon="-20.198511124">
<ele>106.812500</ele>
<time>2012-07-20T19:17:19Z</time>
<speed>4.570000</speed>
<extensions>
<speed>4.6</speed>
<temp>0.00</temp>
<bpm>0</bpm>
<rpm>0.00</rpm>
</extensions>
</trkpt>
<trkpt lat="64.041656494" lon="-20.198055267">
<ele>106.857422</ele>
<time>2012-07-20T19:17:24Z</time>
<speed>4.600000</speed>
<extensions>
<speed>4.6</speed>
<temp>0.00</temp>
<bpm>0</bpm>
<rpm>0.00</rpm>
</extensions>
</trkpt>
<trkpt lat="64.041702271" lon="-20.197605133">
<ele>108.121094</ele>
<time>2012-07-20T19:17:29Z</time>
<speed>4.790000</speed>
<extensions>
<speed>4.8</speed>
<temp>0.00</temp>
<bpm>0</bpm>
<rpm>0.00</rpm>
</extensions>
</trkpt>
<trkpt lat="64.041748047" lon="-20.197128296">
<ele>108.574219</ele>
<time>2012-07-20T19:17:34Z</time>
<speed>4.790000</speed>
<extensions>
<speed>4.8</speed>
<temp>0.00</temp>
<bpm>0</bpm>
<rpm>0.00</rpm>
</extensions>
</trkpt>
<trkpt lat="64.041801453" lon="-20.196662903">
<ele>109.123047</ele>
<time>2012-07-20T19:17:39Z</time>
<speed>4.410000</speed>
<extensions>
<speed>4.4</speed>
<temp>0.00</temp>
<bpm>0</bpm>
<rpm>0.00</rpm>
</extensions>
</trkpt>
<trkpt lat="64.041847229" lon="-20.196210861">
<ele>111.003906</ele>
<time>2012-07-20T19:17:44Z</time>
<speed>4.570000</speed>
<extensions>
<speed>4.6</speed>
<temp>0.00</temp>
<bpm>0</bpm>
<rpm>0.00</rpm>
</extensions>
</trkpt>
<trkpt lat="64.041885376" lon="-20.195766449">
<ele>110.453125</ele>
<time>2012-07-20T19:17:49Z</time>
<speed>4.150000</speed>
<extensions>
<speed>4.1</speed>
<temp>0.00</temp>
<bpm>0</bpm>
<rpm>0.00</rpm>
</extensions>
</trkpt>
<trkpt lat="64.041915894" lon="-20.195386887">
<ele>107.089844</ele>
<time>2012-07-20T19:17:54Z</time>
<speed>4.150000</speed>
<extensions>
<speed>4.1</speed>
<temp>0.00</temp>
<bpm>0</bpm>
<rpm>0.00</rpm>
</extensions>
</trkpt>
<trkpt lat="64.041954041" lon="-20.194967270">
<ele>108.169922</ele>
<time>2012-07-20T19:17:59Z</time>
<speed>4.170000</speed>
<extensions>
<speed>4.2</speed>
<temp>0.00</temp>
<bpm>0</bpm>
<rpm>0.00</rpm>
</extensions>
</trkpt>
<trkpt lat="64.041999817" lon="-20.194549561">
<ele>110.232422</ele>
<time>2012-07-20T19:18:04Z</time>
<speed>4.210000</speed>
<extensions>
<speed>4.2</speed>
<temp>0.00</temp>
<bpm>0</bpm>
<rpm>0.00</rpm>
</extensions>
</trkpt>
<trkpt lat="64.042045593" lon="-20.194122314">
<ele>110.830078</ele>
<time>2012-07-20T19:18:09Z</time>
<speed>4.260000</speed>
<extensions>
<speed>4.3</speed>
<temp>0.00</temp>
<bpm>0</bpm>
<rpm>0.00</rpm>
</extensions>
</trkpt>
<trkpt lat="64.042091370" lon="-20.193706512">
<ele>113.304688</ele>
<time>2012-07-20T19:18:14Z</time>
<speed>4.330000</speed>
<extensions>
<speed>4.3</speed>
<temp>0.00</temp>
<bpm>0</bpm>
<rpm>0.00</rpm>
</extensions>
</trkpt>
<trkpt lat="64.042137146" lon="-20.193265915">
<ele>110.884766</ele>
<time>2012-07-20T19:18:19Z</time>
<speed>4.530000</speed>
<extensions>
<speed>4.5</speed>
<temp>0.00</temp>
<bpm>0</bpm>
<rpm>0.00</rpm>
</extensions>
</trkpt>
<trkpt lat="64.042175293" lon="-20.192813873">
<ele>108.320313</ele>
<time>2012-07-20T19:18:24Z</time>
<speed>4.620000</speed>
<extensions>
<speed>4.6</speed>
<temp>0.00</temp>
<bpm>0</bpm>
<rpm>0.00</rpm>
</extensions>
</trkpt>
<trkpt lat="64.042205811" lon="-20.192350388">
<ele>107.294922</ele>
<time>2012-07-20T19:18:29Z</time>
<speed>4.650000</speed>
<extensions>
<speed>4.6</speed>
<temp>0.00</temp>
<bpm>0</bpm>
<rpm>0.00</rpm>
</extensions>
</trkpt>
<trkpt lat="64.042243958" lon="-20.191919327">
<ele>107.041016</ele>
<time>2012-07-20T19:18:34Z</time>
<speed>4.220000</speed>
<extensions>
<speed>4.2</speed>
<temp>0.00</temp>
<bpm>0</bpm>
<rpm>0.00</rpm>
</extensions>
</trkpt>
<trkpt lat="64.042297363" lon="-20.191459656">
<ele>108.326172</ele>
<time>2012-07-20T19:18:39Z</time>
<speed>4.650000</speed>
<extensions>
<speed>4.6</speed>
<temp>0.00</temp>
<bpm>0</bpm>
<rpm>0.00</rpm>
</extensions>
</trkpt>
<trkpt lat="64.042343140" lon="-20.191005707">
<ele>111.935547</ele>
<time>2012-07-20T19:18:44Z</time>
<speed>4.760000</speed>
<extensions>
<speed>4.8</speed>
<temp>0.00</temp>
<bpm>0</bpm>
<rpm>0.00</rpm>
</extensions>
</trkpt>
<trkpt lat="64.042388916" lon="-20.190546036">
<ele>113.615234</ele>
<time>2012-07-20T19:18:49Z</time>
<speed>4.470000</speed>
<extensions>
<speed>4.5</speed>
<temp>0.00</temp>
<bpm>0</bpm>
<rpm>0.00</rpm>
</extensions>
</trkpt>
<trkpt lat="64.042427063" lon="-20.190078735">
<ele>114.406250</ele>
<time>2012-07-20T19:18:54Z</time>
<speed>4.710000</speed>
<extensions>
<speed>4.7</speed>
<temp>0.00</temp>
<bpm>0</bpm>
<rpm>0.00</rpm>
</extensions>
</trkpt>
<trkpt lat="64.042472839" lon="-20.189609528">
<ele>116.693359</ele>
<time>2012-07-20T19:18:59Z</time>
<speed>4.600000</speed>
<extensions>
<speed>4.6</speed>
<temp>0.00</temp>
<bpm>0</bpm>
<rpm>0.00</rpm>
</extensions>
</trkpt>
<trkpt lat="64.042518616" lon="-20.189146042">
<ele>116.841797</ele>
<time>2012-07-20T19:19:04Z</time>
<speed>4.680000</speed>
<extensions>
<speed>4.7</speed>
<temp>0.00</temp>
<bpm>0</bpm>
<rpm>0.00</rpm>
</extensions>
</trkpt>
<trkpt lat="64.042564392" lon="-20.188678741">
<ele>116.699219</ele>
<time>2012-07-20T19:19:09Z</time>
<speed>4.680000</speed>
<extensions>
<speed>4.7</speed>
<temp>0.00</temp>
<bpm>0</bpm>
<rpm>0.00</rpm>
</extensions>
</trkpt>
<trkpt lat="64.042617798" lon="-20.188209534">
<ele>115.357422</ele>
<time>2012-07-20T19:19:14Z</time>
<speed>4.720000</speed>
<extensions>
<speed>4.7</speed>
<temp>0.00</temp>
<bpm>0</bpm>
<rpm>0.00</rpm>
</extensions>
</trkpt>
<trkpt lat="64.042663574" lon="-20.187723160">
<ele>117.863281</ele>
<time>2012-07-20T19:19:19Z</time>
<speed>4.920000</speed>
<extensions>
<speed>4.9</speed>
<temp>0.00</temp>
<bpm>0</bpm>
<rpm>0.00</rpm>
</extensions>
</trkpt>
<trkpt lat="64.042709351" lon="-20.187219620">
<ele>115.970703</ele>
<time>2012-07-20T19:19:24Z</time>
<speed>4.930000</speed>
<extensions>
<speed>4.9</speed>
<temp>0.00</temp>
<bpm>0</bpm>
<rpm>0.00</rpm>
</extensions>
</trkpt>
<trkpt lat="64.042747498" lon="-20.186733246">
<ele>114.208984</ele>
<time>2012-07-20T19:19:29Z</time>
<speed>4.600000</speed>
<extensions>
<speed>4.6</speed>
<temp>0.00</temp>
<bpm>0</bpm>
<rpm>0.00</rpm>
</extensions>
</trkpt>
<trkpt lat="64.042785645" lon="-20.186271667">
<ele>113.388672</ele>
<time>2012-07-20T19:19:34Z</time>
<speed>4.810000</speed>
<extensions>
<speed>4.8</speed>
<temp>0.00</temp>
<bpm>0</bpm>
<rpm>0.00</rpm>
</extensions>
</trkpt>
<trkpt lat="64.042831421" lon="-20.185810089">
<ele>113.281250</ele>
<time>2012-07-20T19:19:39Z</time>
<speed>4.750000</speed>
<extensions>
<speed>4.8</speed>
<temp>0.00</temp>
<bpm>0</bpm>
<rpm>0.00</rpm>
</extensions>
</trkpt>
<trkpt lat="64.042877197" lon="-20.185340881">
<ele>112.365234</ele>
<time>2012-07-20T19:19:44Z</time>
<speed>4.660000</speed>
<extensions>
<speed>4.7</speed>
<temp>0.00</temp>
<bpm>0</bpm>
<rpm>0.00</rpm>
</extensions>
</trkpt>
<trkpt lat="64.042922974" lon="-20.184875488">
<ele>112.154297</ele>
<time>2012-07-20T19:19:49Z</time>
<speed>4.890000</speed>
<extensions>
<speed>4.9</speed>
<temp>0.00</temp>
<bpm>0</bpm>
<rpm>0.00</rpm>
</extensions>
</trkpt>
<trkpt lat="64.042961121" lon="-20.184394836">
<ele>112.527344</ele>
<time>2012-07-20T19:19:54Z</time>
<speed>4.880000</speed>
<extensions>
<speed>4.9</speed>
<temp>0.00</temp>
<bpm>0</bpm>
<rpm>0.00</rpm>
</extensions>
</trkpt>
<trkpt lat="64.043006897" lon="-20.183881760">
<ele>113.617188</ele>
<time>2012-07-20T19:19:59Z</time>
<speed>5.260000</speed>
<extensions>
<speed>5.3</speed>
<temp>0.00</temp>
<bpm>0</bpm>
<rpm>0.00</rpm>
</extensions>
</trkpt>
<trkpt lat="64.043060303" lon="-20.183355331">
<ele>113.626953</ele>
<time>2012-07-20T19:20:04Z</time>
<speed>4.910000</speed>
<extensions>
<speed>4.9</speed>
<temp>0.00</temp>
<bpm>0</bpm>
<rpm>0.00</rpm>
</extensions>
</trkpt>
<trkpt lat="64.043113708" lon="-20.182849884">
<ele>110.945313</ele>
<time>2012-07-20T19:20:09Z</time>
<speed>5.120000</speed>
<extensions>
<speed>5.1</speed>
<temp>0.00</temp>
<bpm>0</bpm>
<rpm>0.00</rpm>
</extensions>
</trkpt>
<trkpt lat="64.043159485" lon="-20.182352066">
<ele>109.833984</ele>
<time>2012-07-20T19:20:14Z</time>
<speed>4.500000</speed>
<extensions>
<speed>4.5</speed>
<temp>0.00</temp>
<bpm>0</bpm>
<rpm>0.00</rpm>
</extensions>
</trkpt>
<trkpt lat="64.043190002" lon="-20.181907654">
<ele>110.853516</ele>
<time>2012-07-20T19:20:19Z</time>
<speed>4.500000</speed>
<extensions>
<speed>4.5</speed>
<temp>0.00</temp>
<bpm>0</bpm>
<rpm>0.00</rpm>
</extensions>
</trkpt>
<trkpt lat="64.043235779" lon="-20.181465149">
<ele>112.273438</ele>
<time>2012-07-20T19:20:24Z</time>
<speed>4.080000</speed>
<extensions>
<speed>4.1</speed>
<temp>0.00</temp>
<bpm>0</bpm>
<rpm>0.00</rpm>
</extensions>
</trkpt>
<trkpt lat="64.043273926" lon="-20.181043625">
<ele>111.460938</ele>
<time>2012-07-20T19:20:29Z</time>
<speed>4.310000</speed>
<extensions>
<speed>4.3</speed>
<temp>0.00</temp>
<bpm>0</bpm>
<rpm>0.00</rpm>
</extensions>
</trkpt>
<trkpt lat="64.043304443" lon="-20.180624008">
<ele>112.580078</ele>
<time>2012-07-20T19:20:34Z</time>
<speed>4.240000</speed>
<extensions>
<speed>4.2</speed>
<temp>0.00</temp>
<bpm>0</bpm>
<rpm>0.00</rpm>
</extensions>
</trkpt>
<trkpt lat="64.043357849" lon="-20.180168152">
<ele>112.001953</ele>
<time>2012-07-20T19:20:39Z</time>
<speed>4.490000</speed>
<extensions>
<speed>4.5</speed>
<temp>0.00</temp>
<bpm>0</bpm>
<rpm>0.00</rpm>
</extensions>
</trkpt>
<trkpt lat="64.043395996" lon="-20.179725647">
<ele>113.148438</ele>
<time>2012-07-20T19:20:44Z</time>
<speed>4.600000</speed>
<extensions>
<speed>4.6</speed>
<temp>0.00</temp>
<bpm>0</bpm>
<rpm>0.00</rpm>
</extensions>
</trkpt>
<trkpt lat="64.043449402" lon="-20.179252625">
<ele>115.744141</ele>
<time>2012-07-20T19:20:49Z</time>
<speed>4.810000</speed>
<extensions>
<speed>4.8</speed>
<temp>0.00</temp>
<bpm>0</bpm>
<rpm>0.00</rpm>
</extensions>
</trkpt>
<trkpt lat="64.043495178" lon="-20.178770065">
<ele>115.191406</ele>
<time>2012-07-20T19:20:54Z</time>
<speed>4.820000</speed>
<extensions>
<speed>4.8</speed>
<temp>0.00</temp>
<bpm>0</bpm>
<rpm>0.00</rpm>
</extensions>
</trkpt>
<trkpt lat="64.043548584" lon="-20.178300858">
<ele>114.416016</ele>
<time>2012-07-20T19:20:59Z</time>
<speed>4.890000</speed>
<extensions>
<speed>4.9</speed>
<temp>0.00</temp>
<bpm>0</bpm>
<rpm>0.00</rpm>
</extensions>
</trkpt>
<trkpt lat="64.043586731" lon="-20.177799225">
<ele>113.271484</ele>
<time>2012-07-20T19:21:04Z</time>
<speed>5.120000</speed>
<extensions>
<speed>5.1</speed>
<temp>0.00</temp>
<bpm>0</bpm>
<rpm>0.00</rpm>
</extensions>
</trkpt>
<trkpt lat="64.043640137" lon="-20.177268982">
<ele>113.488281</ele>
<time>2012-07-20T19:21:09Z</time>
<speed>5.240000</speed>
<extensions>
<speed>5.2</speed>
<temp>0.00</temp>
<bpm>0</bpm>
<rpm>0.00</rpm>
</extensions>
</trkpt>
<trkpt lat="64.043685913" lon="-20.176731110">
<ele>112.390625</ele>
<time>2012-07-20T19:21:14Z</time>
<speed>4.990000</speed>
<extensions>
<speed>5.0</speed>
<temp>0.00</temp>
<bpm>0</bpm>
<rpm>0.00</rpm>
</extensions>
</trkpt>
<trkpt lat="64.043739319" lon="-20.176221848">
<ele>112.173828</ele>
<time>2012-07-20T19:21:19Z</time>
<speed>5.120000</speed>
<extensions>
<speed>5.1</speed>
<temp>0.00</temp>
<bpm>0</bpm>
<rpm>0.00</rpm>
</extensions>
</trkpt>
<trkpt lat="64.043785095" lon="-20.175678253">
<ele>111.953125</ele>
<time>2012-07-20T19:21:24Z</time>
<speed>5.630000</speed>
<extensions>
<speed>5.6</speed>
<temp>0.00</temp>
<bpm>0</bpm>
<rpm>0.00</rpm>
</extensions>
</trkpt>
<trkpt lat="64.043846130" lon="-20.175125122">
<ele>111.345703</ele>
<time>2012-07-20T19:21:29Z</time>
<speed>5.080000</speed>
<extensions>
<speed>5.1</speed>
<temp>0.00</temp>
<bpm>0</bpm>
<rpm>0.00</rpm>
</extensions>
</trkpt>
<trkpt lat="64.043884277" lon="-20.174640656">
<ele>111.869141</ele>
<time>2012-07-20T19:21:34Z</time>
<speed>4.460000</speed>
<extensions>
<speed>4.5</speed>
<temp>0.00</temp>
<bpm>0</bpm>
<rpm>0.00</rpm>
</extensions>
</trkpt>
<trkpt lat="64.043922424" lon="-20.174188614">
<ele>112.001953</ele>
<time>2012-07-20T19:21:39Z</time>
<speed>4.460000</speed>
<extensions>
<speed>4.5</speed>
<temp>0.00</temp>
<bpm>0</bpm>
<rpm>0.00</rpm>
</extensions>
</trkpt>
<trkpt lat="64.043960571" lon="-20.173749924">
<ele>112.283203</ele>
<time>2012-07-20T19:21:44Z</time>
<speed>4.460000</speed>
<extensions>
<speed>4.5</speed>
<temp>0.00</temp>
<bpm>0</bpm>
<rpm>0.00</rpm>
</extensions>
</trkpt>
<trkpt lat="64.044006348" lon="-20.173336029">
<ele>112.496094</ele>
<time>2012-07-20T19:21:49Z</time>
<speed>4.230000</speed>
<extensions>
<speed>4.2</speed>
<temp>0.00</temp>
<bpm>0</bpm>
<rpm>0.00</rpm>
</extensions>
</trkpt>
<trkpt lat="64.044052124" lon="-20.172904968">
<ele>112.859375</ele>
<time>2012-07-20T19:21:54Z</time>
<speed>4.200000</speed>
<extensions>
<speed>4.2</speed>
<temp>0.00</temp>
<bpm>0</bpm>
<rpm>0.00</rpm>
</extensions>
</trkpt>
<trkpt lat="64.044090271" lon="-20.172472000">
<ele>112.992188</ele>
<time>2012-07-20T19:21:59Z</time>
<speed>4.370000</speed>
<extensions>
<speed>4.4</speed>
<temp>0.00</temp>
<bpm>0</bpm>
<rpm>0.00</rpm>
</extensions>
</trkpt>
<trkpt lat="64.044128418" lon="-20.172039032">
<ele>113.484375</ele>
<time>2012-07-20T19:22:04Z</time>
<speed>4.300000</speed>
<extensions>
<speed>4.3</speed>
<temp>0.00</temp>
<bpm>0</bpm>
<rpm>0.00</rpm>
</extensions>
</trkpt>
<trkpt lat="64.044174194" lon="-20.171609879">
<ele>113.052734</ele>
<time>2012-07-20T19:22:09Z</time>
<speed>4.550000</speed>
<extensions>
<speed>4.5</speed>
<temp>0.00</temp>
<bpm>0</bpm>
<rpm>0.00</rpm>
</extensions>
</trkpt>
<trkpt lat="64.044219971" lon="-20.171169281">
<ele>112.335938</ele>
<time>2012-07-20T19:22:14Z</time>
<speed>4.560000</speed>
<extensions>
<speed>4.6</speed>
<temp>0.00</temp>
<bpm>0</bpm>
<rpm>0.00</rpm>
</extensions>
</trkpt>
<trkpt lat="64.044273376" lon="-20.170722961">
<ele>113.210938</ele>
<time>2012-07-20T19:22:19Z</time>
<speed>4.320000</speed>
<extensions>
<speed>4.3</speed>
<temp>0.00</temp>
<bpm>0</bpm>
<rpm>0.00</rpm>
</extensions>
</trkpt>
<trkpt lat="64.044319153" lon="-20.170282364">
<ele>113.341797</ele>
<time>2012-07-20T19:22:24Z</time>
<speed>4.710000</speed>
<extensions>
<speed>4.7</speed>
<temp>0.00</temp>
<bpm>0</bpm>
<rpm>0.00</rpm>
</extensions>
</trkpt>
<trkpt lat="64.044372559" lon="-20.169836044">
<ele>113.142578</ele>
<time>2012-07-20T19:22:29Z</time>
<speed>4.490000</speed>
<extensions>
<speed>4.5</speed>
<temp>0.00</temp>
<bpm>0</bpm>
<rpm>0.00</rpm>
</extensions>
</trkpt>
<trkpt lat="64.044425964" lon="-20.169387817">
<ele>112.679688</ele>
<time>2012-07-20T19:22:34Z</time>
<speed>4.510000</speed>
<extensions>
<speed>4.5</speed>
<temp>0.00</temp>
<bpm>0</bpm>
<rpm>0.00</rpm>
</extensions>
</trkpt>
<trkpt lat="64.044471741" lon="-20.168943405">
<ele>112.630859</ele>
<time>2012-07-20T19:22:39Z</time>
<speed>4.150000</speed>
<extensions>
<speed>4.1</speed>
<temp>0.00</temp>
<bpm>0</bpm>
<rpm>0.00</rpm>
</extensions>
</trkpt>
<trkpt lat="64.044525146" lon="-20.168508530">
<ele>112.771484</ele>
<time>2012-07-20T19:22:44Z</time>
<speed>4.410000</speed>
<extensions>
<speed>4.4</speed>
<temp>0.00</temp>
<bpm>0</bpm>
<rpm>0.00</rpm>
</extensions>
</trkpt>
<trkpt lat="64.044586182" lon="-20.168056488">
<ele>113.896484</ele>
<time>2012-07-20T19:22:49Z</time>
<speed>5.110000</speed>
<extensions>
<speed>5.1</speed>
<temp>0.00</temp>
<bpm>0</bpm>
<rpm>0.00</rpm>
</extensions>
</trkpt>
<trkpt lat="64.044647217" lon="-20.167591095">
<ele>114.277344</ele>
<time>2012-07-20T19:22:54Z</time>
<speed>4.390000</speed>
<extensions>
<speed>4.4</speed>
<temp>0.00</temp>
<bpm>0</bpm>
<rpm>0.00</rpm>
</extensions>
</trkpt>
<trkpt lat="64.044708252" lon="-20.167186737">
<ele>114.617188</ele>
<time>2012-07-20T19:22:59Z</time>
<speed>4.390000</speed>
<extensions>
<speed>4.4</speed>
<temp>0.00</temp>
<bpm>0</bpm>
<rpm>0.00</rpm>
</extensions>
</trkpt>
<trkpt lat="64.044769287" lon="-20.166772842">
<ele>114.916016</ele>
<time>2012-07-20T19:23:04Z</time>
<speed>4.400000</speed>
<extensions>
<speed>4.4</speed>
<temp>0.00</temp>
<bpm>0</bpm>
<rpm>0.00</rpm>
</extensions>
</trkpt>
<trkpt lat="64.044830322" lon="-20.166328430">
<ele>115.359375</ele>
<time>2012-07-20T19:23:09Z</time>
<speed>4.340000</speed>
<extensions>
<speed>4.3</speed>
<temp>0.00</temp>
<bpm>0</bpm>
<rpm>0.00</rpm>
</extensions>
</trkpt>
<trkpt lat="64.044906616" lon="-20.165872574">
<ele>115.312500</ele>
<time>2012-07-20T19:23:14Z</time>
<speed>4.770000</speed>
<extensions>
<speed>4.8</speed>
<temp>0.00</temp>
<bpm>0</bpm>
<rpm>0.00</rpm>
</extensions>
</trkpt>
<trkpt lat="64.044975281" lon="-20.165439606">
<ele>115.798828</ele>
<time>2012-07-20T19:23:19Z</time>
<speed>4.630000</speed>
<extensions>
<speed>4.6</speed>
<temp>0.00</temp>
<bpm>0</bpm>
<rpm>0.00</rpm>
</extensions>
</trkpt>
<trkpt lat="64.045051575" lon="-20.164999008">
<ele>115.419922</ele>
<time>2012-07-20T19:23:24Z</time>
<speed>4.530000</speed>
<extensions>
<speed>4.5</speed>
<temp>0.00</temp>
<bpm>0</bpm>
<rpm>0.00</rpm>
</extensions>
</trkpt>
<trkpt lat="64.045120239" lon="-20.164550781">
<ele>114.568359</ele>
<time>2012-07-20T19:23:29Z</time>
<speed>4.960000</speed>
<extensions>
<speed>5.0</speed>
<temp>0.00</temp>
<bpm>0</bpm>
<rpm>0.00</rpm>
</extensions>
</trkpt>
<trkpt lat="64.045188904" lon="-20.164068222">
<ele>113.755859</ele>
<time>2012-07-20T19:23:34Z</time>
<speed>5.020000</speed>
<extensions>
<speed>5.0</speed>
<temp>0.00</temp>
<bpm>0</bpm>
<rpm>0.00</rpm>
</extensions>
</trkpt>
<trkpt lat="64.045265198" lon="-20.163581848">
<ele>113.718750</ele>
<time>2012-07-20T19:23:39Z</time>
<speed>4.840000</speed>
<extensions>
<speed>4.8</speed>
<temp>0.00</temp>
<bpm>0</bpm>
<rpm>0.00</rpm>
</extensions>
</trkpt>
<trkpt lat="64.045349121" lon="-20.163080215">
<ele>113.511719</ele>
<time>2012-07-20T19:23:44Z</time>
<speed>5.190000</speed>
<extensions>
<speed>5.2</speed>
<temp>0.00</temp>
<bpm>0</bpm>
<rpm>0.00</rpm>
</extensions>
</trkpt>
<trkpt lat="64.045433044" lon="-20.162586212">
<ele>113.220703</ele>
<time>2012-07-20T19:23:49Z</time>
<speed>5.020000</speed>
<extensions>
<speed>5.0</speed>
<temp>0.00</temp>
<bpm>0</bpm>
<rpm>0.00</rpm>
</extensions>
</trkpt>
<trkpt lat="64.045516968" lon="-20.162120819">
<ele>111.939453</ele>
<time>2012-07-20T19:23:54Z</time>
<speed>4.870000</speed>
<extensions>
<speed>4.9</speed>
<temp>0.00</temp>
<bpm>0</bpm>
<rpm>0.00</rpm>
</extensions>
</trkpt>
<trkpt lat="64.045593262" lon="-20.161689758">
<ele>111.884766</ele>
<time>2012-07-20T19:23:59Z</time>
<speed>4.680000</speed>
<extensions>
<speed>4.7</speed>
<temp>0.00</temp>
<bpm>0</bpm>
<rpm>0.00</rpm>
</extensions>
</trkpt>
<trkpt lat="64.045654297" lon="-20.161254883">
<ele>112.210938</ele>
<time>2012-07-20T19:24:04Z</time>
<speed>4.450000</speed>
<extensions>
<speed>4.5</speed>
<temp>0.00</temp>
<bpm>0</bpm>
<rpm>0.00</rpm>
</extensions>
</trkpt>
<trkpt lat="64.045730591" lon="-20.160882950">
<ele>113.408203</ele>
<time>2012-07-20T19:24:09Z</time>
<speed>4.000000</speed>
<extensions>
<speed>4.0</speed>
<temp>0.00</temp>
<bpm>0</bpm>
<rpm>0.00</rpm>
</extensions>
</trkpt>
<trkpt lat="64.045791626" lon="-20.160530090">
<ele>114.904297</ele>
<time>2012-07-20T19:24:14Z</time>
<speed>3.800000</speed>
<extensions>
<speed>3.8</speed>
<temp>0.00</temp>
<bpm>0</bpm>
<rpm>0.00</rpm>
</extensions>
</trkpt>
<trkpt lat="64.045845032" lon="-20.160234451">
<ele>116.640625</ele>
<time>2012-07-20T19:24:19Z</time>
<speed>2.680000</speed>
<extensions>
<speed>2.7</speed>
<temp>0.00</temp>
<bpm>0</bpm>
<rpm>0.00</rpm>
</extensions>
</trkpt>
<trkpt lat="64.045890808" lon="-20.160015106">
<ele>118.300781</ele>
<time>2012-07-20T19:24:24Z</time>
<speed>2.780000</speed>
<extensions>
<speed>2.8</speed>
<temp>0.00</temp>
<bpm>0</bpm>
<rpm>0.00</rpm>
</extensions>
</trkpt>
<trkpt lat="64.045913696" lon="-20.159816742">
<ele>119.681641</ele>
<time>2012-07-20T19:24:29Z</time>
<speed>1.640000</speed>
<extensions>
<speed>1.6</speed>
<temp>0.00</temp>
<bpm>0</bpm>
<rpm>0.00</rpm>
</extensions>
</trkpt>
<trkpt lat="64.045913696" lon="-20.159801483">
<ele>120.126953</ele>
<time>2012-07-20T19:24:34Z</time>
<speed>0.890000</speed>
<extensions>
<speed>0.9</speed>
<temp>0.00</temp>
<bpm>0</bpm>
<rpm>0.00</rpm>
</extensions>
</trkpt>
<trkpt lat="64.045928955" lon="-20.159690857">
<ele>120.431641</ele>
<time>2012-07-20T19:24:39Z</time>
<speed>1.150000</speed>
<extensions>
<speed>1.1</speed>
<temp>0.00</temp>
<bpm>0</bpm>
<rpm>0.00</rpm>
</extensions>
</trkpt>
<trkpt lat="64.045951843" lon="-20.159580231">
<ele>121.521484</ele>
<time>2012-07-20T19:24:44Z</time>
<speed>1.160000</speed>
<extensions>
<speed>1.2</speed>
<temp>0.00</temp>
<bpm>0</bpm>
<rpm>0.00</rpm>
</extensions>
</trkpt>
<trkpt lat="64.045967102" lon="-20.159456253">
<ele>121.810547</ele>
<time>2012-07-20T19:24:49Z</time>
<speed>1.000000</speed>
<extensions>
<speed>1.0</speed>
<temp>0.00</temp>
<bpm>0</bpm>
<rpm>0.00</rpm>
</extensions>
</trkpt>
<trkpt lat="64.045982361" lon="-20.159366608">
<ele>122.388672</ele>
<time>2012-07-20T19:24:54Z</time>
<speed>1.050000</speed>
<extensions>
<speed>1.0</speed>
<temp>0.00</temp>
<bpm>0</bpm>
<rpm>0.00</rpm>
</extensions>
</trkpt>
<trkpt lat="64.046005249" lon="-20.159263611">
<ele>123.494141</ele>
<time>2012-07-20T19:24:59Z</time>
<speed>1.130000</speed>
<extensions>
<speed>1.1</speed>
<temp>0.00</temp>
<bpm>0</bpm>
<rpm>0.00</rpm>
</extensions>
</trkpt>
<trkpt lat="64.046012878" lon="-20.159156799">
<ele>124.248047</ele>
<time>2012-07-20T19:25:04Z</time>
<speed>1.070000</speed>
<extensions>
<speed>1.1</speed>
<temp>0.00</temp>
<bpm>0</bpm>
<rpm>0.00</rpm>
</extensions>
</trkpt>
<trkpt lat="64.046035767" lon="-20.159042358">
<ele>124.191406</ele>
<time>2012-07-20T19:25:09Z</time>
<speed>1.120000</speed>
<extensions>
<speed>1.1</speed>
<temp>0.00</temp>
<bpm>0</bpm>
<rpm>0.00</rpm>
</extensions>
</trkpt>
<trkpt lat="64.046051025" lon="-20.158941269">
<ele>124.365234</ele>
<time>2012-07-20T19:25:14Z</time>
<speed>1.200000</speed>
<extensions>
<speed>1.2</speed>
<temp>0.00</temp>
<bpm>0</bpm>
<rpm>0.00</rpm>
</extensions>
</trkpt>
<trkpt lat="64.046073914" lon="-20.158821106">
<ele>124.664063</ele>
<time>2012-07-20T19:25:19Z</time>
<speed>1.130000</speed>
<extensions>
<speed>1.1</speed>
<temp>0.00</temp>
<bpm>0</bpm>
<rpm>0.00</rpm>
</extensions>
</trkpt>
<trkpt lat="64.046089172" lon="-20.158718109">
<ele>124.765625</ele>
<time>2012-07-20T19:25:24Z</time>
<speed>1.070000</speed>
<extensions>
<speed>1.1</speed>
<temp>0.00</temp>
<bpm>0</bpm>
<rpm>0.00</rpm>
</extensions>
</trkpt>
<trkpt lat="64.046112061" lon="-20.158609390">
<ele>124.337891</ele>
<time>2012-07-20T19:25:29Z</time>
<speed>1.050000</speed>
<extensions>
<speed>1.0</speed>
<temp>0.00</temp>
<bpm>0</bpm>
<rpm>0.00</rpm>
</extensions>
</trkpt>
<trkpt lat="64.046127319" lon="-20.158494949">
<ele>124.900391</ele>
<time>2012-07-20T19:25:34Z</time>
<speed>1.260000</speed>
<extensions>
<speed>1.3</speed>
<temp>0.00</temp>
<bpm>0</bpm>
<rpm>0.00</rpm>
</extensions>
</trkpt>
<trkpt lat="64.046150208" lon="-20.158407211">
<ele>126.726563</ele>
<time>2012-07-20T19:25:39Z</time>
<speed>0.920000</speed>
<extensions>
<speed>0.9</speed>
<temp>0.00</temp>
<bpm>0</bpm>
<rpm>0.00</rpm>
</extensions>
</trkpt>
<trkpt lat="64.046165466" lon="-20.158296585">
<ele>127.123047</ele>
<time>2012-07-20T19:25:44Z</time>
<speed>1.220000</speed>
<extensions>
<speed>1.2</speed>
<temp>0.00</temp>
<bpm>0</bpm>
<rpm>0.00</rpm>
</extensions>
</trkpt>
<trkpt lat="64.046180725" lon="-20.158189774">
<ele>127.150391</ele>
<time>2012-07-20T19:25:49Z</time>
<speed>1.080000</speed>
<extensions>
<speed>1.1</speed>
<temp>0.00</temp>
<bpm>0</bpm>
<rpm>0.00</rpm>
</extensions>
</trkpt>
<trkpt lat="64.046195984" lon="-20.158081055">
<ele>127.572266</ele>
<time>2012-07-20T19:25:54Z</time>
<speed>1.050000</speed>
<extensions>
<speed>1.0</speed>
<temp>0.00</temp>
<bpm>0</bpm>
<rpm>0.00</rpm>
</extensions>
</trkpt>
<trkpt lat="64.046218872" lon="-20.157989502">
<ele>127.927734</ele>
<time>2012-07-20T19:25:59Z</time>
<speed>1.050000</speed>
<extensions>
<speed>1.0</speed>
<temp>0.00</temp>
<bpm>0</bpm>
<rpm>0.00</rpm>
</extensions>
</trkpt>
<trkpt lat="64.046241760" lon="-20.157865524">
<ele>126.121094</ele>
<time>2012-07-20T19:26:04Z</time>
<speed>1.280000</speed>
<extensions>
<speed>1.3</speed>
<temp>0.00</temp>
<bpm>0</bpm>
<rpm>0.00</rpm>
</extensions>
</trkpt>
<trkpt lat="64.046264648" lon="-20.157754898">
<ele>125.302734</ele>
<time>2012-07-20T19:26:09Z</time>
<speed>1.080000</speed>
<extensions>
<speed>1.1</speed>
<temp>0.00</temp>
<bpm>0</bpm>
<rpm>0.00</rpm>
</extensions>
</trkpt>
<trkpt lat="64.046279907" lon="-20.157657623">
<ele>125.232422</ele>
<time>2012-07-20T19:26:14Z</time>
<speed>1.070000</speed>
<extensions>
<speed>1.1</speed>
<temp>0.00</temp>
<bpm>0</bpm>
<rpm>0.00</rpm>
</extensions>
</trkpt>
<trkpt lat="64.046302795" lon="-20.157546997">
<ele>123.226563</ele>
<time>2012-07-20T19:26:19Z</time>
<speed>1.120000</speed>
<extensions>
<speed>1.1</speed>
<temp>0.00</temp>
<bpm>0</bpm>
<rpm>0.00</rpm>
</extensions>
</trkpt>
<trkpt lat="64.046318054" lon="-20.157461166">
<ele>123.060547</ele>
<time>2012-07-20T19:26:24Z</time>
<speed>1.110000</speed>
<extensions>
<speed>1.1</speed>
<temp>0.00</temp>
<bpm>0</bpm>
<rpm>0.00</rpm>
</extensions>
</trkpt>
<trkpt lat="64.046333313" lon="-20.157342911">
<ele>123.576172</ele>
<time>2012-07-20T19:26:29Z</time>
<speed>1.100000</speed>
<extensions>
<speed>1.1</speed>
<temp>0.00</temp>
<bpm>0</bpm>
<rpm>0.00</rpm>
</extensions>
</trkpt>
<trkpt lat="64.046348572" lon="-20.157215118">
<ele>123.468750</ele>
<time>2012-07-20T19:26:34Z</time>
<speed>1.130000</speed>
<extensions>
<speed>1.1</speed>
<temp>0.00</temp>
<bpm>0</bpm>
<rpm>0.00</rpm>
</extensions>
</trkpt>
<trkpt lat="64.046363831" lon="-20.157091141">
<ele>124.732422</ele>
<time>2012-07-20T19:26:39Z</time>
<speed>1.260000</speed>
<extensions>
<speed>1.3</speed>
<temp>0.00</temp>
<bpm>0</bpm>
<rpm>0.00</rpm>
</extensions>
</trkpt>
<trkpt lat="64.046379089" lon="-20.156984329">
<ele>125.367188</ele>
<time>2012-07-20T19:26:44Z</time>
<speed>1.250000</speed>
<extensions>
<speed>1.3</speed>
<temp>0.00</temp>
<bpm>0</bpm>
<rpm>0.00</rpm>
</extensions>
</trkpt>
<trkpt lat="64.046394348" lon="-20.156879425">
<ele>125.841797</ele>
<time>2012-07-20T19:26:49Z</time>
<speed>1.310000</speed>
<extensions>
<speed>1.3</speed>
<temp>0.00</temp>
<bpm>0</bpm>
<rpm>0.00</rpm>
</extensions>
</trkpt>
<trkpt lat="64.046417236" lon="-20.156757355">
<ele>125.673828</ele>
<time>2012-07-20T19:26:54Z</time>
<speed>1.310000</speed>
<extensions>
<speed>1.3</speed>
<temp>0.00</temp>
<bpm>0</bpm>
<rpm>0.00</rpm>
</extensions>
</trkpt>
<trkpt lat="64.046440125" lon="-20.156639099">
<ele>126.140625</ele>
<time>2012-07-20T19:26:59Z</time>
<speed>1.290000</speed>
<extensions>
<speed>1.3</speed>
<temp>0.00</temp>
<bpm>0</bpm>
<rpm>0.00</rpm>
</extensions>
</trkpt>
<trkpt lat="64.046463013" lon="-20.156492233">
<ele>126.232422</ele>
<time>2012-07-20T19:27:04Z</time>
<speed>1.460000</speed>
<extensions>
<speed>1.5</speed>
<temp>0.00</temp>
<bpm>0</bpm>
<rpm>0.00</rpm>
</extensions>
</trkpt>
<trkpt lat="64.046485901" lon="-20.156366348">
<ele>126.576172</ele>
<time>2012-07-20T19:27:09Z</time>
<speed>1.210000</speed>
<extensions>
<speed>1.2</speed>
<temp>0.00</temp>
<bpm>0</bpm>
<rpm>0.00</rpm>
</extensions>
</trkpt>
<trkpt lat="64.046508789" lon="-20.156248093">
<ele>127.552734</ele>
<time>2012-07-20T19:27:14Z</time>
<speed>1.280000</speed>
<extensions>
<speed>1.3</speed>
<temp>0.00</temp>
<bpm>0</bpm>
<rpm>0.00</rpm>
</extensions>
</trkpt>
<trkpt lat="64.046524048" lon="-20.156112671">
<ele>127.339844</ele>
<time>2012-07-20T19:27:19Z</time>
<speed>0.790000</speed>
<extensions>
<speed>0.8</speed>
<temp>0.00</temp>
<bpm>0</bpm>
<rpm>0.00</rpm>
</extensions>
</trkpt>
<trkpt lat="64.046531677" lon="-20.156061172">
<ele>127.410156</ele>
<time>2012-07-20T19:27:24Z</time>
<speed>1.240000</speed>
<extensions>
<speed>1.2</speed>
<temp>0.00</temp>
<bpm>0</bpm>
<rpm>0.00</rpm>
</extensions>
</trkpt>
<trkpt lat="64.046554565" lon="-20.155941010">
<ele>127.453125</ele>
<time>2012-07-20T19:27:29Z</time>
<speed>1.260000</speed>
<extensions>
<speed>1.3</speed>
<temp>0.00</temp>
<bpm>0</bpm>
<rpm>0.00</rpm>
</extensions>
</trkpt>
<trkpt lat="64.046569824" lon="-20.155815125">
<ele>127.921875</ele>
<time>2012-07-20T19:27:34Z</time>
<speed>1.320000</speed>
<extensions>
<speed>1.3</speed>
<temp>0.00</temp>
<bpm>0</bpm>
<rpm>0.00</rpm>
</extensions>
</trkpt>
<trkpt lat="64.046592712" lon="-20.155694962">
<ele>128.492188</ele>
<time>2012-07-20T19:27:39Z</time>
<speed>1.290000</speed>
<extensions>
<speed>1.3</speed>
<temp>0.00</temp>
<bpm>0</bpm>
<rpm>0.00</rpm>
</extensions>
</trkpt>
<trkpt lat="64.046615601" lon="-20.155574799">
<ele>128.285156</ele>
<time>2012-07-20T19:27:44Z</time>
<speed>1.370000</speed>
<extensions>
<speed>1.4</speed>
<temp>0.00</temp>
<bpm>0</bpm>
<rpm>0.00</rpm>
</extensions>
</trkpt>
<trkpt lat="64.046623230" lon="-20.155452728">
<ele>128.980469</ele>
<time>2012-07-20T19:27:49Z</time>
<speed>1.330000</speed>
<extensions>
<speed>1.3</speed>
<temp>0.00</temp>
<bpm>0</bpm>
<rpm>0.00</rpm>
</extensions>
</trkpt>
<trkpt lat="64.046653748" lon="-20.155351639">
<ele>129.050781</ele>
<time>2012-07-20T19:27:54Z</time>
<speed>0.560000</speed>
<extensions>
<speed>0.6</speed>
<temp>0.00</temp>
<bpm>0</bpm>
<rpm>0.00</rpm>
</extensions>
</trkpt>
<trkpt lat="64.046676636" lon="-20.155225754">
<ele>130.707031</ele>
<time>2012-07-20T19:27:59Z</time>
<speed>1.340000</speed>
<extensions>
<speed>1.3</speed>
<temp>0.00</temp>
<bpm>0</bpm>
<rpm>0.00</rpm>
</extensions>
</trkpt>
<trkpt lat="64.046707153" lon="-20.155088425">
<ele>131.105469</ele>
<time>2012-07-20T19:28:04Z</time>
<speed>1.220000</speed>
<extensions>
<speed>1.2</speed>
<temp>0.00</temp>
<bpm>0</bpm>
<rpm>0.00</rpm>
</extensions>
</trkpt>
<trkpt lat="64.046730042" lon="-20.154958725">
<ele>132.023438</ele>
<time>2012-07-20T19:28:09Z</time>
<speed>1.330000</speed>
<extensions>
<speed>1.3</speed>
<temp>0.00</temp>
<bpm>0</bpm>
<rpm>0.00</rpm>
</extensions>
</trkpt>
<trkpt lat="64.046752930" lon="-20.154846191">
<ele>131.683594</ele>
<time>2012-07-20T19:28:14Z</time>
<speed>1.300000</speed>
<extensions>
<speed>1.3</speed>
<temp>0.00</temp>
<bpm>0</bpm>
<rpm>0.00</rpm>
</extensions>
</trkpt>
<trkpt lat="64.046775818" lon="-20.154705048">
<ele>132.265625</ele>
<time>2012-07-20T19:28:19Z</time>
<speed>1.460000</speed>
<extensions>
<speed>1.5</speed>
<temp>0.00</temp>
<bpm>0</bpm>
<rpm>0.00</rpm>
</extensions>
</trkpt>
<trkpt lat="64.046798706" lon="-20.154588699">
<ele>133.152344</ele>
<time>2012-07-20T19:28:24Z</time>
<speed>1.340000</speed>
<extensions>
<speed>1.3</speed>
<temp>0.00</temp>
<bpm>0</bpm>
<rpm>0.00</rpm>
</extensions>
</trkpt>
<trkpt lat="64.046829224" lon="-20.154472351">
<ele>133.414063</ele>
<time>2012-07-20T19:28:29Z</time>
<speed>1.320000</speed>
<extensions>
<speed>1.3</speed>
<temp>0.00</temp>
<bpm>0</bpm>
<rpm>0.00</rpm>
</extensions>
</trkpt>
<trkpt lat="64.046852112" lon="-20.154331207">
<ele>134.179688</ele>
<time>2012-07-20T19:28:34Z</time>
<speed>1.320000</speed>
<extensions>
<speed>1.3</speed>
<temp>0.00</temp>
<bpm>0</bpm>
<rpm>0.00</rpm>
</extensions>
</trkpt>
<trkpt lat="64.046875000" lon="-20.154201508">
<ele>133.937500</ele>
<time>2012-07-20T19:28:39Z</time>
<speed>1.480000</speed>
<extensions>
<speed>1.5</speed>
<temp>0.00</temp>
<bpm>0</bpm>
<rpm>0.00</rpm>
</extensions>
</trkpt>
<trkpt lat="64.046905518" lon="-20.154073715">
<ele>134.789063</ele>
<time>2012-07-20T19:28:44Z</time>
<speed>1.300000</speed>
<extensions>
<speed>1.3</speed>
<temp>0.00</temp>
<bpm>0</bpm>
<rpm>0.00</rpm>
</extensions>
</trkpt>
<trkpt lat="64.046928406" lon="-20.153955460">
<ele>133.835938</ele>
<time>2012-07-20T19:28:49Z</time>
<speed>1.310000</speed>
<extensions>
<speed>1.3</speed>
<temp>0.00</temp>
<bpm>0</bpm>
<rpm>0.00</rpm>
</extensions>
</trkpt>
<trkpt lat="64.046943665" lon="-20.153821945">
<ele>132.828125</ele>
<time>2012-07-20T19:28:54Z</time>
<speed>1.350000</speed>
<extensions>
<speed>1.4</speed>
<temp>0.00</temp>
<bpm>0</bpm>
<rpm>0.00</rpm>
</extensions>
</trkpt>
<trkpt lat="64.046974182" lon="-20.153709412">
<ele>133.039063</ele>
<time>2012-07-20T19:28:59Z</time>
<speed>1.390000</speed>
<extensions>
<speed>1.4</speed>
<temp>0.00</temp>
<bpm>0</bpm>
<rpm>0.00</rpm>
</extensions>
</trkpt>
<trkpt lat="64.046981812" lon="-20.153570175">
<ele>131.488281</ele>
<time>2012-07-20T19:29:04Z</time>
<speed>1.390000</speed>
<extensions>
<speed>1.4</speed>
<temp>0.00</temp>
<bpm>0</bpm>
<rpm>0.00</rpm>
</extensions>
</trkpt>
<trkpt lat="64.047012329" lon="-20.153453827">
<ele>132.585938</ele>
<time>2012-07-20T19:29:09Z</time>
<speed>1.400000</speed>
<extensions>
<speed>1.4</speed>
<temp>0.00</temp>
<bpm>0</bpm>
<rpm>0.00</rpm>
</extensions>
</trkpt>
<trkpt lat="64.047035217" lon="-20.153301239">
<ele>132.132813</ele>
<time>2012-07-20T19:29:14Z</time>
<speed>1.410000</speed>
<extensions>
<speed>1.4</speed>
<temp>0.00</temp>
<bpm>0</bpm>
<rpm>0.00</rpm>
</extensions>
</trkpt>
<trkpt lat="64.047065735" lon="-20.153156281">
<ele>131.738281</ele>
<time>2012-07-20T19:29:19Z</time>
<speed>1.410000</speed>
<extensions>
<speed>1.4</speed>
<temp>0.00</temp>
<bpm>0</bpm>
<rpm>0.00</rpm>
</extensions>
</trkpt>
<trkpt lat="64.047088623" lon="-20.153043747">
<ele>132.945313</ele>
<time>2012-07-20T19:29:24Z</time>
<speed>1.320000</speed>
<extensions>
<speed>1.3</speed>
<temp>0.00</temp>
<bpm>0</bpm>
<rpm>0.00</rpm>
</extensions>
</trkpt>
<trkpt lat="64.047103882" lon="-20.152921677">
<ele>132.843750</ele>
<time>2012-07-20T19:29:29Z</time>
<speed>1.410000</speed>
<extensions>
<speed>1.4</speed>
<temp>0.00</temp>
<bpm>0</bpm>
<rpm>0.00</rpm>
</extensions>
</trkpt>
<trkpt lat="64.047119141" lon="-20.152769089">
<ele>131.402344</ele>
<time>2012-07-20T19:29:34Z</time>
<speed>1.390000</speed>
<extensions>
<speed>1.4</speed>
<temp>0.00</temp>
<bpm>0</bpm>
<rpm>0.00</rpm>
</extensions>
</trkpt>
<trkpt lat="64.047142029" lon="-20.152650833">
<ele>129.804688</ele>
<time>2012-07-20T19:29:39Z</time>
<speed>1.360000</speed>
<extensions>
<speed>1.4</speed>
<temp>0.00</temp>
<bpm>0</bpm>
<rpm>0.00</rpm>
</extensions>
</trkpt>
<trkpt lat="64.047172546" lon="-20.152521133">
<ele>130.203125</ele>
<time>2012-07-20T19:29:44Z</time>
<speed>1.360000</speed>
<extensions>
<speed>1.4</speed>
<temp>0.00</temp>
<bpm>0</bpm>
<rpm>0.00</rpm>
</extensions>
</trkpt>
<trkpt lat="64.047210693" lon="-20.152416229">
<ele>131.406250</ele>
<time>2012-07-20T19:29:49Z</time>
<speed>1.430000</speed>
<extensions>
<speed>1.4</speed>
<temp>0.00</temp>
<bpm>0</bpm>
<rpm>0.00</rpm>
</extensions>
</trkpt>
<trkpt lat="64.047248840" lon="-20.152296066">
<ele>132.128906</ele>
<time>2012-07-20T19:29:54Z</time>
<speed>1.370000</speed>
<extensions>
<speed>1.4</speed>
<temp>0.00</temp>
<bpm>0</bpm>
<rpm>0.00</rpm>
</extensions>
</trkpt>
<trkpt lat="64.047279358" lon="-20.152183533">
<ele>133.488281</ele>
<time>2012-07-20T19:29:59Z</time>
<speed>1.370000</speed>
<extensions>
<speed>1.4</speed>
<temp>0.00</temp>
<bpm>0</bpm>
<rpm>0.00</rpm>
</extensions>
</trkpt>
<trkpt lat="64.047309875" lon="-20.152050018">
<ele>133.503906</ele>
<time>2012-07-20T19:30:04Z</time>
<speed>2.100000</speed>
<extensions>
<speed>2.1</speed>
<temp>0.00</temp>
<bpm>0</bpm>
<rpm>0.00</rpm>
</extensions>
</trkpt>
<trkpt lat="64.047340393" lon="-20.151906967">
<ele>133.996094</ele>
<time>2012-07-20T19:30:09Z</time>
<speed>1.380000</speed>
<extensions>
<speed>1.4</speed>
<temp>0.00</temp>
<bpm>0</bpm>
<rpm>0.00</rpm>
</extensions>
</trkpt>
<trkpt lat="64.047363281" lon="-20.151779175">
<ele>134.160156</ele>
<time>2012-07-20T19:30:14Z</time>
<speed>1.200000</speed>
<extensions>
<speed>1.2</speed>
<temp>0.00</temp>
<bpm>0</bpm>
<rpm>0.00</rpm>
</extensions>
</trkpt>
<trkpt lat="64.047386169" lon="-20.151645660">
<ele>133.496094</ele>
<time>2012-07-20T19:30:19Z</time>
<speed>1.370000</speed>
<extensions>
<speed>1.4</speed>
<temp>0.00</temp>
<bpm>0</bpm>
<rpm>0.00</rpm>
</extensions>
</trkpt>
<trkpt lat="64.047409058" lon="-20.151548386">
<ele>133.933594</ele>
<time>2012-07-20T19:30:24Z</time>
<speed>0.590000</speed>
<extensions>
<speed>0.6</speed>
<temp>0.00</temp>
<bpm>0</bpm>
<rpm>0.00</rpm>
</extensions>
</trkpt>
<trkpt lat="64.047424316" lon="-20.151580811">
<ele>135.507813</ele>
<time>2012-07-20T19:30:29Z</time>
<extensions>
<speed>0.0</speed>
<temp>0.00</temp>
<bpm>0</bpm>
<rpm>0.00</rpm>
</extensions>
</trkpt>
<trkpt lat="64.047424316" lon="-20.151576996">
<ele>135.585938</ele>
<time>2012-07-20T19:30:34Z</time>
<speed>0.010000</speed>
<extensions>
<speed>0.0</speed>
<temp>0.00</temp>
<bpm>0</bpm>
<rpm>0.00</rpm>
</extensions>
</trkpt>
<trkpt lat="64.047439575" lon="-20.151525497">
<ele>135.500000</ele>
<time>2012-07-20T19:30:39Z</time>
<speed>1.480000</speed>
<extensions>
<speed>1.5</speed>
<temp>0.00</temp>
<bpm>0</bpm>
<rpm>0.00</rpm>
</extensions>
</trkpt>
<trkpt lat="64.047492981" lon="-20.151365280">
<ele>136.621094</ele>
<time>2012-07-20T19:30:44Z</time>
<speed>2.000000</speed>
<extensions>
<speed>2.0</speed>
<temp>0.00</temp>
<bpm>0</bpm>
<rpm>0.00</rpm>
</extensions>
</trkpt>
<trkpt lat="64.047554016" lon="-20.151124954">
<ele>136.699219</ele>
<time>2012-07-20T19:30:49Z</time>
<speed>2.840000</speed>
<extensions>
<speed>2.8</speed>
<temp>0.00</temp>
<bpm>0</bpm>
<rpm>0.00</rpm>
</extensions>
</trkpt>
<trkpt lat="64.047630310" lon="-20.150869370">
<ele>137.289063</ele>
<time>2012-07-20T19:30:54Z</time>
<speed>2.980000</speed>
<extensions>
<speed>3.0</speed>
<temp>0.00</temp>
<bpm>0</bpm>
<rpm>0.00</rpm>
</extensions>
</trkpt>
<trkpt lat="64.047721863" lon="-20.150625229">
<ele>137.738281</ele>
<time>2012-07-20T19:30:59Z</time>
<speed>3.360000</speed>
<extensions>
<speed>3.4</speed>
<temp>0.00</temp>
<bpm>0</bpm>
<rpm>0.00</rpm>
</extensions>
</trkpt>
<trkpt lat="64.047821045" lon="-20.150373459">
<ele>138.074219</ele>
<time>2012-07-20T19:31:04Z</time>
<speed>3.150000</speed>
<extensions>
<speed>3.2</speed>
<temp>0.00</temp>
<bpm>0</bpm>
<rpm>0.00</rpm>
</extensions>
</trkpt>
<trkpt lat="64.047912598" lon="-20.150117874">
<ele>138.242188</ele>
<time>2012-07-20T19:31:09Z</time>
<speed>3.310000</speed>
<extensions>
<speed>3.3</speed>
<temp>0.00</temp>
<bpm>0</bpm>
<rpm>0.00</rpm>
</extensions>
</trkpt>
<trkpt lat="64.048011780" lon="-20.149864197">
<ele>138.468750</ele>
<time>2012-07-20T19:31:14Z</time>
<speed>3.500000</speed>
<extensions>
<speed>3.5</speed>
<temp>0.00</temp>
<bpm>0</bpm>
<rpm>0.00</rpm>
</extensions>
</trkpt>
<trkpt lat="64.048118591" lon="-20.149578094">
<ele>139.066406</ele>
<time>2012-07-20T19:31:19Z</time>
<speed>3.700000</speed>
<extensions>
<speed>3.7</speed>
<temp>0.00</temp>
<bpm>0</bpm>
<rpm>0.00</rpm>
</extensions>
</trkpt>
<trkpt lat="64.048202515" lon="-20.149368286">
<ele>138.812500</ele>
<time>2012-07-20T19:31:24Z</time>
<speed>2.090000</speed>
<extensions>
<speed>2.1</speed>
<temp>0.00</temp>
<bpm>0</bpm>
<rpm>0.00</rpm>
</extensions>
</trkpt>
<trkpt lat="64.048316956" lon="-20.149166107">
<ele>138.824219</ele>
<time>2012-07-20T19:31:29Z</time>
<speed>3.740000</speed>
<extensions>
<speed>3.7</speed>
<temp>0.00</temp>
<bpm>0</bpm>
<rpm>0.00</rpm>
</extensions>
</trkpt>
<trkpt lat="64.048423767" lon="-20.148893356">
<ele>139.378906</ele>
<time>2012-07-20T19:31:34Z</time>
<speed>3.430000</speed>
<extensions>
<speed>3.4</speed>
<temp>0.00</temp>
<bpm>0</bpm>
<rpm>0.00</rpm>
</extensions>
</trkpt>
<trkpt lat="64.048530579" lon="-20.148614883">
<ele>139.507813</ele>
<time>2012-07-20T19:31:39Z</time>
<speed>3.800000</speed>
<extensions>
<speed>3.8</speed>
<temp>0.00</temp>
<bpm>0</bpm>
<rpm>0.00</rpm>
</extensions>
</trkpt>
<trkpt lat="64.048660278" lon="-20.148336411">
<ele>139.187500</ele>
<time>2012-07-20T19:31:44Z</time>
<speed>4.020000</speed>
<extensions>
<speed>4.0</speed>
<temp>0.00</temp>
<bpm>0</bpm>
<rpm>0.00</rpm>
</extensions>
</trkpt>
<trkpt lat="64.048797607" lon="-20.148046494">
<ele>138.898438</ele>
<time>2012-07-20T19:31:49Z</time>
<speed>4.130000</speed>
<extensions>
<speed>4.1</speed>
<temp>0.00</temp>
<bpm>0</bpm>
<rpm>0.00</rpm>
</extensions>
</trkpt>
<trkpt lat="64.048934937" lon="-20.147754669">
<ele>138.082031</ele>
<time>2012-07-20T19:31:54Z</time>
<speed>4.290000</speed>
<extensions>
<speed>4.3</speed>
<temp>0.00</temp>
<bpm>0</bpm>
<rpm>0.00</rpm>
</extensions>
</trkpt>
<trkpt lat="64.049087524" lon="-20.147409439">
<ele>137.289063</ele>
<time>2012-07-20T19:31:59Z</time>
<speed>4.880000</speed>
<extensions>
<speed>4.9</speed>
<temp>0.00</temp>
<bpm>0</bpm>
<rpm>0.00</rpm>
</extensions>
</trkpt>
<trkpt lat="64.049247742" lon="-20.147047043">
<ele>136.699219</ele>
<time>2012-07-20T19:32:04Z</time>
<speed>5.500000</speed>
<extensions>
<speed>5.5</speed>
<temp>0.00</temp>
<bpm>0</bpm>
<rpm>0.00</rpm>
</extensions>
</trkpt>
<trkpt lat="64.049438477" lon="-20.146614075">
<ele>136.226563</ele>
<time>2012-07-20T19:32:09Z</time>
<speed>6.520000</speed>
<extensions>
<speed>6.5</speed>
<temp>0.00</temp>
<bpm>0</bpm>
<rpm>0.00</rpm>
</extensions>
</trkpt>
<trkpt lat="64.049652100" lon="-20.146114349">
<ele>135.855469</ele>
<time>2012-07-20T19:32:14Z</time>
<speed>6.750000</speed>
<extensions>
<speed>6.7</speed>
<temp>0.00</temp>
<bpm>0</bpm>
<rpm>0.00</rpm>
</extensions>
</trkpt>
<trkpt lat="64.049858093" lon="-20.145603180">
<ele>135.285156</ele>
<time>2012-07-20T19:32:19Z</time>
<speed>6.780000</speed>
<extensions>
<speed>6.8</speed>
<temp>0.00</temp>
<bpm>0</bpm>
<rpm>0.00</rpm>
</extensions>
</trkpt>
<trkpt lat="64.050056458" lon="-20.145074844">
<ele>134.082031</ele>
<time>2012-07-20T19:32:24Z</time>
<speed>6.620000</speed>
<extensions>
<speed>6.6</speed>
<temp>0.00</temp>
<bpm>0</bpm>
<rpm>0.00</rpm>
</extensions>
</trkpt>
<trkpt lat="64.050247192" lon="-20.144575119">
<ele>133.554688</ele>
<time>2012-07-20T19:32:29Z</time>
<speed>6.280000</speed>
<extensions>
<speed>6.3</speed>
<temp>0.00</temp>
<bpm>0</bpm>
<rpm>0.00</rpm>
</extensions>
</trkpt>
<trkpt lat="64.050422668" lon="-20.144096375">
<ele>133.429688</ele>
<time>2012-07-20T19:32:34Z</time>
<speed>6.070000</speed>
<extensions>
<speed>6.1</speed>
<temp>0.00</temp>
<bpm>0</bpm>
<rpm>0.00</rpm>
</extensions>
</trkpt>
<trkpt lat="64.050605774" lon="-20.143627167">
<ele>133.457031</ele>
<time>2012-07-20T19:32:39Z</time>
<speed>6.200000</speed>
<extensions>
<speed>6.2</speed>
<temp>0.00</temp>
<bpm>0</bpm>
<rpm>0.00</rpm>
</extensions>
</trkpt>
<trkpt lat="64.050781250" lon="-20.143157959">
<ele>133.835938</ele>
<time>2012-07-20T19:32:44Z</time>
<speed>5.780000</speed>
<extensions>
<speed>5.8</speed>
<temp>0.00</temp>
<bpm>0</bpm>
<rpm>0.00</rpm>
</extensions>
</trkpt>
<trkpt lat="64.050949097" lon="-20.142744064">
<ele>133.832031</ele>
<time>2012-07-20T19:32:49Z</time>
<speed>5.420000</speed>
<extensions>
<speed>5.4</speed>
<temp>0.00</temp>
<bpm>0</bpm>
<rpm>0.00</rpm>
</extensions>
</trkpt>
<trkpt lat="64.051109314" lon="-20.142305374">
<ele>133.230469</ele>
<time>2012-07-20T19:32:54Z</time>
<speed>5.740000</speed>
<extensions>
<speed>5.7</speed>
<temp>0.00</temp>
<bpm>0</bpm>
<rpm>0.00</rpm>
</extensions>
</trkpt>
<trkpt lat="64.051277161" lon="-20.141876221">
<ele>133.558594</ele>
<time>2012-07-20T19:32:59Z</time>
<speed>5.980000</speed>
<extensions>
<speed>6.0</speed>
<temp>0.00</temp>
<bpm>0</bpm>
<rpm>0.00</rpm>
</extensions>
</trkpt>
<trkpt lat="64.051445007" lon="-20.141416550">
<ele>133.554688</ele>
<time>2012-07-20T19:33:04Z</time>
<speed>5.990000</speed>
<extensions>
<speed>6.0</speed>
<temp>0.00</temp>
<bpm>0</bpm>
<rpm>0.00</rpm>
</extensions>
</trkpt>
<trkpt lat="64.051620483" lon="-20.140962601">
<ele>133.253906</ele>
<time>2012-07-20T19:33:09Z</time>
<speed>5.780000</speed>
<extensions>
<speed>5.8</speed>
<temp>0.00</temp>
<bpm>0</bpm>
<rpm>0.00</rpm>
</extensions>
</trkpt>
<trkpt lat="64.051803589" lon="-20.140508652">
<ele>133.359375</ele>
<time>2012-07-20T19:33:14Z</time>
<speed>5.890000</speed>
<extensions>
<speed>5.9</speed>
<temp>0.00</temp>
<bpm>0</bpm>
<rpm>0.00</rpm>
</extensions>
</trkpt>
<trkpt lat="64.051979065" lon="-20.140039444">
<ele>133.121094</ele>
<time>2012-07-20T19:33:19Z</time>
<speed>6.240000</speed>
<extensions>
<speed>6.2</speed>
<temp>0.00</temp>
<bpm>0</bpm>
<rpm>0.00</rpm>
</extensions>
</trkpt>
<trkpt lat="64.052162170" lon="-20.139537811">
<ele>132.902344</ele>
<time>2012-07-20T19:33:24Z</time>
<speed>6.350000</speed>
<extensions>
<speed>6.4</speed>
<temp>0.00</temp>
<bpm>0</bpm>
<rpm>0.00</rpm>
</extensions>
</trkpt>
<trkpt lat="64.052337646" lon="-20.139060974">
<ele>133.195313</ele>
<time>2012-07-20T19:33:29Z</time>
<speed>6.160000</speed>
<extensions>
<speed>6.2</speed>
<temp>0.00</temp>
<bpm>0</bpm>
<rpm>0.00</rpm>
</extensions>
</trkpt>
<trkpt lat="64.052513123" lon="-20.138586044">
<ele>133.695313</ele>
<time>2012-07-20T19:33:34Z</time>
<speed>5.760000</speed>
<extensions>
<speed>5.8</speed>
<temp>0.00</temp>
<bpm>0</bpm>
<rpm>0.00</rpm>
</extensions>
</trkpt>
<trkpt lat="64.052688599" lon="-20.138149261">
<ele>134.179688</ele>
<time>2012-07-20T19:33:39Z</time>
<speed>5.630000</speed>
<extensions>
<speed>5.6</speed>
<temp>0.00</temp>
<bpm>0</bpm>
<rpm>0.00</rpm>
</extensions>
</trkpt>
<trkpt lat="64.052856445" lon="-20.137720108">
<ele>133.703125</ele>
<time>2012-07-20T19:33:44Z</time>
<speed>5.540000</speed>
<extensions>
<speed>5.5</speed>
<temp>0.00</temp>
<bpm>0</bpm>
<rpm>0.00</rpm>
</extensions>
</trkpt>
<trkpt lat="64.053016663" lon="-20.137310028">
<ele>133.492188</ele>
<time>2012-07-20T19:33:49Z</time>
<speed>5.480000</speed>
<extensions>
<speed>5.5</speed>
<temp>0.00</temp>
<bpm>0</bpm>
<rpm>0.00</rpm>
</extensions>
</trkpt>
<trkpt lat="64.053176880" lon="-20.136888504">
<ele>133.589844</ele>
<time>2012-07-20T19:33:54Z</time>
<speed>5.520000</speed>
<extensions>
<speed>5.5</speed>
<temp>0.00</temp>
<bpm>0</bpm>
<rpm>0.00</rpm>
</extensions>
</trkpt>
<trkpt lat="64.053344727" lon="-20.136463165">
<ele>133.546875</ele>
<time>2012-07-20T19:33:59Z</time>
<speed>5.480000</speed>
<extensions>
<speed>5.5</speed>
<temp>0.00</temp>
<bpm>0</bpm>
<rpm>0.00</rpm>
</extensions>
</trkpt>
<trkpt lat="64.053497314" lon="-20.136049271">
<ele>133.144531</ele>
<time>2012-07-20T19:34:04Z</time>
<speed>5.250000</speed>
<extensions>
<speed>5.2</speed>
<temp>0.00</temp>
<bpm>0</bpm>
<rpm>0.00</rpm>
</extensions>
</trkpt>
<trkpt lat="64.053657532" lon="-20.135631561">
<ele>132.929688</ele>
<time>2012-07-20T19:34:09Z</time>
<speed>5.270000</speed>
<extensions>
<speed>5.3</speed>
<temp>0.00</temp>
<bpm>0</bpm>
<rpm>0.00</rpm>
</extensions>
</trkpt>
<trkpt lat="64.053817749" lon="-20.135211945">
<ele>132.070313</ele>
<time>2012-07-20T19:34:14Z</time>
<speed>5.580000</speed>
<extensions>
<speed>5.6</speed>
<temp>0.00</temp>
<bpm>0</bpm>
<rpm>0.00</rpm>
</extensions>
</trkpt>
<trkpt lat="64.053985596" lon="-20.134775162">
<ele>131.628906</ele>
<time>2012-07-20T19:34:19Z</time>
<speed>5.870000</speed>
<extensions>
<speed>5.9</speed>
<temp>0.00</temp>
<bpm>0</bpm>
<rpm>0.00</rpm>
</extensions>
</trkpt>
<trkpt lat="64.054176331" lon="-20.134281158">
<ele>130.468750</ele>
<time>2012-07-20T19:34:24Z</time>
<speed>6.730000</speed>
<extensions>
<speed>6.7</speed>
<temp>0.00</temp>
<bpm>0</bpm>
<rpm>0.00</rpm>
</extensions>
</trkpt>
<trkpt lat="64.054382324" lon="-20.133749008">
<ele>129.589844</ele>
<time>2012-07-20T19:34:29Z</time>
<speed>7.210000</speed>
<extensions>
<speed>7.2</speed>
<temp>0.00</temp>
<bpm>0</bpm>
<rpm>0.00</rpm>
</extensions>
</trkpt>
<trkpt lat="64.054603577" lon="-20.133167267">
<ele>128.492188</ele>
<time>2012-07-20T19:34:34Z</time>
<speed>7.790000</speed>
<extensions>
<speed>7.8</speed>
<temp>0.00</temp>
<bpm>0</bpm>
<rpm>0.00</rpm>
</extensions>
</trkpt>
<trkpt lat="64.054840088" lon="-20.132555008">
<ele>127.675781</ele>
<time>2012-07-20T19:34:39Z</time>
<speed>7.930000</speed>
<extensions>
<speed>7.9</speed>
<temp>0.00</temp>
<bpm>0</bpm>
<rpm>0.00</rpm>
</extensions>
</trkpt>
<trkpt lat="64.055068970" lon="-20.131942749">
<ele>126.880859</ele>
<time>2012-07-20T19:34:44Z</time>
<speed>8.040000</speed>
<extensions>
<speed>8.0</speed>
<temp>0.00</temp>
<bpm>0</bpm>
<rpm>0.00</rpm>
</extensions>
</trkpt>
<trkpt lat="64.055305481" lon="-20.131284714">
<ele>125.937500</ele>
<time>2012-07-20T19:34:49Z</time>
<speed>8.190000</speed>
<extensions>
<speed>8.2</speed>
<temp>0.00</temp>
<bpm>0</bpm>
<rpm>0.00</rpm>
</extensions>
</trkpt>
<trkpt lat="64.055526733" lon="-20.130619049">
<ele>124.619141</ele>
<time>2012-07-20T19:34:54Z</time>
<speed>8.330000</speed>
<extensions>
<speed>8.3</speed>
<temp>0.00</temp>
<bpm>0</bpm>
<rpm>0.00</rpm>
</extensions>
</trkpt>
<trkpt lat="64.055755615" lon="-20.129934311">
<ele>123.017578</ele>
<time>2012-07-20T19:34:59Z</time>
<speed>8.610000</speed>
<extensions>
<speed>8.6</speed>
<temp>0.00</temp>
<bpm>0</bpm>
<rpm>0.00</rpm>
</extensions>
</trkpt>
<trkpt lat="64.055992126" lon="-20.129243851">
<ele>122.212891</ele>
<time>2012-07-20T19:35:04Z</time>
<speed>8.170000</speed>
<extensions>
<speed>8.2</speed>
<temp>0.00</temp>
<bpm>0</bpm>
<rpm>0.00</rpm>
</extensions>
</trkpt>
<trkpt lat="64.056221008" lon="-20.128578186">
<ele>121.990234</ele>
<time>2012-07-20T19:35:09Z</time>
<speed>8.060000</speed>
<extensions>
<speed>8.1</speed>
<temp>0.00</temp>
<bpm>0</bpm>
<rpm>0.00</rpm>
</extensions>
</trkpt>
<trkpt lat="64.056442261" lon="-20.127935410">
<ele>122.048828</ele>
<time>2012-07-20T19:35:14Z</time>
<speed>7.790000</speed>
<extensions>
<speed>7.8</speed>
<temp>0.00</temp>
<bpm>0</bpm>
<rpm>0.00</rpm>
</extensions>
</trkpt>
<trkpt lat="64.056648254" lon="-20.127325058">
<ele>122.685547</ele>
<time>2012-07-20T19:35:19Z</time>
<speed>7.050000</speed>
<extensions>
<speed>7.0</speed>
<temp>0.00</temp>
<bpm>0</bpm>
<rpm>0.00</rpm>
</extensions>
</trkpt>
<trkpt lat="64.056831360" lon="-20.126798630">
<ele>122.849609</ele>
<time>2012-07-20T19:35:24Z</time>
<speed>6.180000</speed>
<extensions>
<speed>6.2</speed>
<temp>0.00</temp>
<bpm>0</bpm>
<rpm>0.00</rpm>
</extensions>
</trkpt>
<trkpt lat="64.056983948" lon="-20.126340866">
<ele>122.474609</ele>
<time>2012-07-20T19:35:29Z</time>
<speed>5.430000</speed>
<extensions>
<speed>5.4</speed>
<temp>0.00</temp>
<bpm>0</bpm>
<rpm>0.00</rpm>
</extensions>
</trkpt>
<trkpt lat="64.057136536" lon="-20.125913620">
<ele>122.498047</ele>
<time>2012-07-20T19:35:34Z</time>
<speed>5.550000</speed>
<extensions>
<speed>5.5</speed>
<temp>0.00</temp>
<bpm>0</bpm>
<rpm>0.00</rpm>
</extensions>
</trkpt>
<trkpt lat="64.057296753" lon="-20.125467300">
<ele>122.455078</ele>
<time>2012-07-20T19:35:39Z</time>
<speed>5.590000</speed>
<extensions>
<speed>5.6</speed>
<temp>0.00</temp>
<bpm>0</bpm>
<rpm>0.00</rpm>
</extensions>
</trkpt>
<trkpt lat="64.057441711" lon="-20.125024796">
<ele>122.337891</ele>
<time>2012-07-20T19:35:44Z</time>
<speed>5.430000</speed>
<extensions>
<speed>5.4</speed>
<temp>0.00</temp>
<bpm>0</bpm>
<rpm>0.00</rpm>
</extensions>
</trkpt>
<trkpt lat="64.057586670" lon="-20.124586105">
<ele>122.369141</ele>
<time>2012-07-20T19:35:49Z</time>
<speed>5.520000</speed>
<extensions>
<speed>5.5</speed>
<temp>0.00</temp>
<bpm>0</bpm>
<rpm>0.00</rpm>
</extensions>
</trkpt>
<trkpt lat="64.057746887" lon="-20.124155045">
<ele>121.888672</ele>
<time>2012-07-20T19:35:54Z</time>
<speed>5.330000</speed>
<extensions>
<speed>5.3</speed>
<temp>0.00</temp>
<bpm>0</bpm>
<rpm>0.00</rpm>
</extensions>
</trkpt>
<trkpt lat="64.057891846" lon="-20.123737335">
<ele>121.919922</ele>
<time>2012-07-20T19:35:59Z</time>
<speed>5.290000</speed>
<extensions>
<speed>5.3</speed>
<temp>0.00</temp>
<bpm>0</bpm>
<rpm>0.00</rpm>
</extensions>
</trkpt>
<trkpt lat="64.058029175" lon="-20.123332977">
<ele>122.933594</ele>
<time>2012-07-20T19:36:04Z</time>
<speed>4.040000</speed>
<extensions>
<speed>4.0</speed>
<temp>0.00</temp>
<bpm>0</bpm>
<rpm>0.00</rpm>
</extensions>
</trkpt>
<trkpt lat="64.058174133" lon="-20.122955322">
<ele>123.871094</ele>
<time>2012-07-20T19:36:09Z</time>
<speed>4.750000</speed>
<extensions>
<speed>4.8</speed>
<temp>0.00</temp>
<bpm>0</bpm>
<rpm>0.00</rpm>
</extensions>
</trkpt>
<trkpt lat="64.058303833" lon="-20.122591019">
<ele>123.923828</ele>
<time>2012-07-20T19:36:14Z</time>
<speed>4.650000</speed>
<extensions>
<speed>4.6</speed>
<temp>0.00</temp>
<bpm>0</bpm>
<rpm>0.00</rpm>
</extensions>
</trkpt>
<trkpt lat="64.058448792" lon="-20.122236252">
<ele>124.386719</ele>
<time>2012-07-20T19:36:19Z</time>
<speed>4.660000</speed>
<extensions>
<speed>4.7</speed>
<temp>0.00</temp>
<bpm>0</bpm>
<rpm>0.00</rpm>
</extensions>
</trkpt>
<trkpt lat="64.058601379" lon="-20.121849060">
<ele>124.128906</ele>
<time>2012-07-20T19:36:24Z</time>
<speed>5.050000</speed>
<extensions>
<speed>5.1</speed>
<temp>0.00</temp>
<bpm>0</bpm>
<rpm>0.00</rpm>
</extensions>
</trkpt>
<trkpt lat="64.058753967" lon="-20.121490479">
<ele>124.292969</ele>
<time>2012-07-20T19:36:29Z</time>
<speed>4.700000</speed>
<extensions>
<speed>4.7</speed>
<temp>0.00</temp>
<bpm>0</bpm>
<rpm>0.00</rpm>
</extensions>
</trkpt>
<trkpt lat="64.058906555" lon="-20.121150970">
<ele>123.591797</ele>
<time>2012-07-20T19:36:34Z</time>
<speed>4.810000</speed>
<extensions>
<speed>4.8</speed>
<temp>0.00</temp>
<bpm>0</bpm>
<rpm>0.00</rpm>
</extensions>
</trkpt>
<trkpt lat="64.059066772" lon="-20.120820999">
<ele>123.082031</ele>
<time>2012-07-20T19:36:39Z</time>
<speed>4.820000</speed>
<extensions>
<speed>4.8</speed>
<temp>0.00</temp>
<bpm>0</bpm>
<rpm>0.00</rpm>
</extensions>
</trkpt>
<trkpt lat="64.059226990" lon="-20.120491028">
<ele>123.210938</ele>
<time>2012-07-20T19:36:44Z</time>
<speed>4.990000</speed>
<extensions>
<speed>5.0</speed>
<temp>0.00</temp>
<bpm>0</bpm>
<rpm>0.00</rpm>
</extensions>
</trkpt>
<trkpt lat="64.059387207" lon="-20.120155334">
<ele>123.570313</ele>
<time>2012-07-20T19:36:49Z</time>
<speed>4.720000</speed>
<extensions>
<speed>4.7</speed>
<temp>0.00</temp>
<bpm>0</bpm>
<rpm>0.00</rpm>
</extensions>
</trkpt>
<trkpt lat="64.059555054" lon="-20.119834900">
<ele>123.593750</ele>
<time>2012-07-20T19:36:54Z</time>
<speed>5.000000</speed>
<extensions>
<speed>5.0</speed>
<temp>0.00</temp>
<bpm>0</bpm>
<rpm>0.00</rpm>
</extensions>
</trkpt>
<trkpt lat="64.059738159" lon="-20.119527817">
<ele>123.968750</ele>
<time>2012-07-20T19:36:59Z</time>
<speed>4.710000</speed>
<extensions>
<speed>4.7</speed>
<temp>0.00</temp>
<bpm>0</bpm>
<rpm>0.00</rpm>
</extensions>
</trkpt>
<trkpt lat="64.059898376" lon="-20.119266510">
<ele>124.275391</ele>
<time>2012-07-20T19:37:04Z</time>
<speed>4.590000</speed>
<extensions>
<speed>4.6</speed>
<temp>0.00</temp>
<bpm>0</bpm>
<rpm>0.00</rpm>
</extensions>
</trkpt>
<trkpt lat="64.060066223" lon="-20.119001389">
<ele>124.371094</ele>
<time>2012-07-20T19:37:09Z</time>
<speed>4.500000</speed>
<extensions>
<speed>4.5</speed>
<temp>0.00</temp>
<bpm>0</bpm>
<rpm>0.00</rpm>
</extensions>
</trkpt>
<trkpt lat="64.060241699" lon="-20.118734360">
<ele>125.250000</ele>
<time>2012-07-20T19:37:14Z</time>
<speed>4.760000</speed>
<extensions>
<speed>4.8</speed>
<temp>0.00</temp>
<bpm>0</bpm>
<rpm>0.00</rpm>
</extensions>
</trkpt>
<trkpt lat="64.060424805" lon="-20.118484497">
<ele>125.267578</ele>
<time>2012-07-20T19:37:19Z</time>
<speed>4.870000</speed>
<extensions>
<speed>4.9</speed>
<temp>0.00</temp>
<bpm>0</bpm>
<rpm>0.00</rpm>
</extensions>
</trkpt>
<trkpt lat="64.060615540" lon="-20.118206024">
<ele>125.138672</ele>
<time>2012-07-20T19:37:24Z</time>
<speed>4.990000</speed>
<extensions>
<speed>5.0</speed>
<temp>0.00</temp>
<bpm>0</bpm>
<rpm>0.00</rpm>
</extensions>
</trkpt>
<trkpt lat="64.060791016" lon="-20.117946625">
<ele>125.625000</ele>
<time>2012-07-20T19:37:29Z</time>
<speed>4.860000</speed>
<extensions>
<speed>4.9</speed>
<temp>0.00</temp>
<bpm>0</bpm>
<rpm>0.00</rpm>
</extensions>
</trkpt>
<trkpt lat="64.060981750" lon="-20.117679596">
<ele>125.345703</ele>
<time>2012-07-20T19:37:34Z</time>
<speed>4.850000</speed>
<extensions>
<speed>4.8</speed>
<temp>0.00</temp>
<bpm>0</bpm>
<rpm>0.00</rpm>
</extensions>
</trkpt>
<trkpt lat="64.061164856" lon="-20.117433548">
<ele>125.312500</ele>
<time>2012-07-20T19:37:39Z</time>
<speed>4.240000</speed>
<extensions>
<speed>4.2</speed>
<temp>0.00</temp>
<bpm>0</bpm>
<rpm>0.00</rpm>
</extensions>
</trkpt>
<trkpt lat="64.061332703" lon="-20.117216110">
<ele>125.093750</ele>
<time>2012-07-20T19:37:44Z</time>
<speed>4.160000</speed>
<extensions>
<speed>4.2</speed>
<temp>0.00</temp>
<bpm>0</bpm>
<rpm>0.00</rpm>
</extensions>
</trkpt>
<trkpt lat="64.061485291" lon="-20.117008209">
<ele>124.695313</ele>
<time>2012-07-20T19:37:49Z</time>
<speed>3.840000</speed>
<extensions>
<speed>3.8</speed>
<temp>0.00</temp>
<bpm>0</bpm>
<rpm>0.00</rpm>
</extensions>
</trkpt>
<trkpt lat="64.061622620" lon="-20.116811752">
<ele>124.517578</ele>
<time>2012-07-20T19:37:54Z</time>
<speed>3.510000</speed>
<extensions>
<speed>3.5</speed>
<temp>0.00</temp>
<bpm>0</bpm>
<rpm>0.00</rpm>
</extensions>
</trkpt>
<trkpt lat="64.061744690" lon="-20.116659164">
<ele>124.480469</ele>
<time>2012-07-20T19:37:59Z</time>
<speed>3.400000</speed>
<extensions>
<speed>3.4</speed>
<temp>0.00</temp>
<bpm>0</bpm>
<rpm>0.00</rpm>
</extensions>
</trkpt>
<trkpt lat="64.061897278" lon="-20.116439819">
<ele>123.546875</ele>
<time>2012-07-20T19:38:04Z</time>
<speed>4.140000</speed>
<extensions>
<speed>4.1</speed>
<temp>0.00</temp>
<bpm>0</bpm>
<rpm>0.00</rpm>
</extensions>
</trkpt>
<trkpt lat="64.062057495" lon="-20.116231918">
<ele>123.242188</ele>
<time>2012-07-20T19:38:09Z</time>
<speed>4.400000</speed>
<extensions>
<speed>4.4</speed>
<temp>0.00</temp>
<bpm>0</bpm>
<rpm>0.00</rpm>
</extensions>
</trkpt>
<trkpt lat="64.062240601" lon="-20.115970612">
<ele>123.625000</ele>
<time>2012-07-20T19:38:14Z</time>
<speed>4.970000</speed>
<extensions>
<speed>5.0</speed>
<temp>0.00</temp>
<bpm>0</bpm>
<rpm>0.00</rpm>
</extensions>
</trkpt>
<trkpt lat="64.062431335" lon="-20.115724564">
<ele>123.681641</ele>
<time>2012-07-20T19:38:19Z</time>
<speed>4.910000</speed>
<extensions>
<speed>4.9</speed>
<temp>0.00</temp>
<bpm>0</bpm>
<rpm>0.00</rpm>
</extensions>
</trkpt>
<trkpt lat="64.062614441" lon="-20.115440369">
<ele>123.457031</ele>
<time>2012-07-20T19:38:24Z</time>
<speed>5.060000</speed>
<extensions>
<speed>5.1</speed>
<temp>0.00</temp>
<bpm>0</bpm>
<rpm>0.00</rpm>
</extensions>
</trkpt>
<trkpt lat="64.062805176" lon="-20.115167618">
<ele>124.654297</ele>
<time>2012-07-20T19:38:29Z</time>
<speed>4.880000</speed>
<extensions>
<speed>4.9</speed>
<temp>0.00</temp>
<bpm>0</bpm>
<rpm>0.00</rpm>
</extensions>
</trkpt>
<trkpt lat="64.063003540" lon="-20.114923477">
<ele>124.974609</ele>
<time>2012-07-20T19:38:34Z</time>
<speed>4.990000</speed>
<extensions>
<speed>5.0</speed>
<temp>0.00</temp>
<bpm>0</bpm>
<rpm>0.00</rpm>
</extensions>
</trkpt>
<trkpt lat="64.063194275" lon="-20.114637375">
<ele>124.515625</ele>
<time>2012-07-20T19:38:39Z</time>
<speed>4.890000</speed>
<extensions>
<speed>4.9</speed>
<temp>0.00</temp>
<bpm>0</bpm>
<rpm>0.00</rpm>
</extensions>
</trkpt>
<trkpt lat="64.063377380" lon="-20.114355087">
<ele>124.314453</ele>
<time>2012-07-20T19:38:44Z</time>
<speed>5.020000</speed>
<extensions>
<speed>5.0</speed>
<temp>0.00</temp>
<bpm>0</bpm>
<rpm>0.00</rpm>
</extensions>
</trkpt>
<trkpt lat="64.063545227" lon="-20.114017487">
<ele>124.125000</ele>
<time>2012-07-20T19:38:49Z</time>
<speed>5.190000</speed>
<extensions>
<speed>5.2</speed>
<temp>0.00</temp>
<bpm>0</bpm>
<rpm>0.00</rpm>
</extensions>
</trkpt>
<trkpt lat="64.063690186" lon="-20.113636017">
<ele>124.580078</ele>
<time>2012-07-20T19:38:54Z</time>
<speed>5.160000</speed>
<extensions>
<speed>5.2</speed>
<temp>0.00</temp>
<bpm>0</bpm>
<rpm>0.00</rpm>
</extensions>
</trkpt>
<trkpt lat="64.063819885" lon="-20.113185883">
<ele>124.880859</ele>
<time>2012-07-20T19:38:59Z</time>
<speed>5.130000</speed>
<extensions>
<speed>5.1</speed>
<temp>0.00</temp>
<bpm>0</bpm>
<rpm>0.00</rpm>
</extensions>
</trkpt>
<trkpt lat="64.063919067" lon="-20.112731934">
<ele>125.085938</ele>
<time>2012-07-20T19:39:04Z</time>
<speed>4.870000</speed>
<extensions>
<speed>4.9</speed>
<temp>0.00</temp>
<bpm>0</bpm>
<rpm>0.00</rpm>
</extensions>
</trkpt>
<trkpt lat="64.063995361" lon="-20.112220764">
<ele>124.574219</ele>
<time>2012-07-20T19:39:09Z</time>
<speed>5.010000</speed>
<extensions>
<speed>5.0</speed>
<temp>0.00</temp>
<bpm>0</bpm>
<rpm>0.00</rpm>
</extensions>
</trkpt>
<trkpt lat="64.064018250" lon="-20.111719131">
<ele>124.962891</ele>
<time>2012-07-20T19:39:14Z</time>
<speed>4.670000</speed>
<extensions>
<speed>4.7</speed>
<temp>0.00</temp>
<bpm>0</bpm>
<rpm>0.00</rpm>
</extensions>
</trkpt>
<trkpt lat="64.064025879" lon="-20.111248016">
<ele>124.648438</ele>
<time>2012-07-20T19:39:19Z</time>
<speed>4.460000</speed>
<extensions>
<speed>4.5</speed>
<temp>0.00</temp>
<bpm>0</bpm>
<rpm>0.00</rpm>
</extensions>
</trkpt>
<trkpt lat="64.064018250" lon="-20.110858917">
<ele>123.916016</ele>
<time>2012-07-20T19:39:24Z</time>
<speed>3.610000</speed>
<extensions>
<speed>3.6</speed>
<temp>0.00</temp>
<bpm>0</bpm>
<rpm>0.00</rpm>
</extensions>
</trkpt>
<trkpt lat="64.064002991" lon="-20.110532761">
<ele>122.994141</ele>
<time>2012-07-20T19:39:29Z</time>
<speed>3.180000</speed>
<extensions>
<speed>3.2</speed>
<temp>0.00</temp>
<bpm>0</bpm>
<rpm>0.00</rpm>
</extensions>
</trkpt>
<trkpt lat="64.063987732" lon="-20.110239029">
<ele>123.443359</ele>
<time>2012-07-20T19:39:34Z</time>
<speed>2.640000</speed>
<extensions>
<speed>2.6</speed>
<temp>0.00</temp>
<bpm>0</bpm>
<rpm>0.00</rpm>
</extensions>
</trkpt>
<trkpt lat="64.063972473" lon="-20.109979630">
<ele>123.412109</ele>
<time>2012-07-20T19:39:39Z</time>
<speed>2.650000</speed>
<extensions>
<speed>2.6</speed>
<temp>0.00</temp>
<bpm>0</bpm>
<rpm>0.00</rpm>
</extensions>
</trkpt>
<trkpt lat="64.063941956" lon="-20.109745026">
<ele>124.501953</ele>
<time>2012-07-20T19:39:44Z</time>
<speed>2.890000</speed>
<extensions>
<speed>2.9</speed>
<temp>0.00</temp>
<bpm>0</bpm>
<rpm>0.00</rpm>
</extensions>
</trkpt>
<trkpt lat="64.063926697" lon="-20.109476089">
<ele>124.892578</ele>
<time>2012-07-20T19:39:49Z</time>
<speed>2.640000</speed>
<extensions>
<speed>2.6</speed>
<temp>0.00</temp>
<bpm>0</bpm>
<rpm>0.00</rpm>
</extensions>
</trkpt>
<trkpt lat="64.063888550" lon="-20.109268188">
<ele>125.343750</ele>
<time>2012-07-20T19:39:54Z</time>
<speed>1.820000</speed>
<extensions>
<speed>1.8</speed>
<temp>0.00</temp>
<bpm>0</bpm>
<rpm>0.00</rpm>
</extensions>
</trkpt>
<trkpt lat="64.063880920" lon="-20.109066010">
<ele>126.005859</ele>
<time>2012-07-20T19:39:59Z</time>
<speed>2.430000</speed>
<extensions>
<speed>2.4</speed>
<temp>0.00</temp>
<bpm>0</bpm>
<rpm>0.00</rpm>
</extensions>
</trkpt>
<trkpt lat="64.063835144" lon="-20.108787537">
<ele>126.179688</ele>
<time>2012-07-20T19:40:04Z</time>
<speed>3.170000</speed>
<extensions>
<speed>3.2</speed>
<temp>0.00</temp>
<bpm>0</bpm>
<rpm>0.00</rpm>
</extensions>
</trkpt>
<trkpt lat="64.063812256" lon="-20.108438492">
<ele>125.093750</ele>
<time>2012-07-20T19:40:09Z</time>
<speed>3.220000</speed>
<extensions>
<speed>3.2</speed>
<temp>0.00</temp>
<bpm>0</bpm>
<rpm>0.00</rpm>
</extensions>
</trkpt>
<trkpt lat="64.063774109" lon="-20.108095169">
<ele>124.673828</ele>
<time>2012-07-20T19:40:14Z</time>
<speed>3.480000</speed>
<extensions>
<speed>3.5</speed>
<temp>0.00</temp>
<bpm>0</bpm>
<rpm>0.00</rpm>
</extensions>
</trkpt>
<trkpt lat="64.063743591" lon="-20.107746124">
<ele>124.109375</ele>
<time>2012-07-20T19:40:19Z</time>
<speed>3.460000</speed>
<extensions>
<speed>3.5</speed>
<temp>0.00</temp>
<bpm>0</bpm>
<rpm>0.00</rpm>
</extensions>
</trkpt>
<trkpt lat="64.063705444" lon="-20.107395172">
<ele>124.738281</ele>
<time>2012-07-20T19:40:24Z</time>
<speed>3.470000</speed>
<extensions>
<speed>3.5</speed>
<temp>0.00</temp>
<bpm>0</bpm>
<rpm>0.00</rpm>
</extensions>
</trkpt>
<trkpt lat="64.063682556" lon="-20.107099533">
<ele>125.431641</ele>
<time>2012-07-20T19:40:29Z</time>
<speed>3.120000</speed>
<extensions>
<speed>3.1</speed>
<temp>0.00</temp>
<bpm>0</bpm>
<rpm>0.00</rpm>
</extensions>
</trkpt>
<trkpt lat="64.063659668" lon="-20.106729507">
<ele>125.601563</ele>
<time>2012-07-20T19:40:34Z</time>
<speed>4.020000</speed>
<extensions>
<speed>4.0</speed>
<temp>0.00</temp>
<bpm>0</bpm>
<rpm>0.00</rpm>
</extensions>
</trkpt>
<trkpt lat="64.063636780" lon="-20.106338501">
<ele>124.878906</ele>
<time>2012-07-20T19:40:39Z</time>
<speed>3.550000</speed>
<extensions>
<speed>3.5</speed>
<temp>0.00</temp>
<bpm>0</bpm>
<rpm>0.00</rpm>
</extensions>
</trkpt>
<trkpt lat="64.063629150" lon="-20.106012344">
<ele>125.927734</ele>
<time>2012-07-20T19:40:44Z</time>
<speed>3.660000</speed>
<extensions>
<speed>3.7</speed>
<temp>0.00</temp>
<bpm>0</bpm>
<rpm>0.00</rpm>
</extensions>
</trkpt>
<trkpt lat="64.063636780" lon="-20.105651855">
<ele>126.369141</ele>
<time>2012-07-20T19:40:49Z</time>
<speed>3.120000</speed>
<extensions>
<speed>3.1</speed>
<temp>0.00</temp>
<bpm>0</bpm>
<rpm>0.00</rpm>
</extensions>
</trkpt>
<trkpt lat="64.063636780" lon="-20.105384827">
<ele>126.257813</ele>
<time>2012-07-20T19:40:54Z</time>
<speed>2.010000</speed>
<extensions>
<speed>2.0</speed>
<temp>0.00</temp>
<bpm>0</bpm>
<rpm>0.00</rpm>
</extensions>
</trkpt>
<trkpt lat="64.063629150" lon="-20.105356216">
<ele>126.849609</ele>
<time>2012-07-20T19:40:59Z</time>
<speed>0.020000</speed>
<extensions>
<speed>0.0</speed>
<temp>0.00</temp>
<bpm>0</bpm>
<rpm>0.00</rpm>
</extensions>
</trkpt>
<trkpt lat="64.063629150" lon="-20.105346680">
<ele>126.876953</ele>
<time>2012-07-20T19:41:04Z</time>
<speed>0.570000</speed>
<extensions>
<speed>0.6</speed>
<temp>0.00</temp>
<bpm>0</bpm>
<rpm>0.00</rpm>
</extensions>
</trkpt>
<trkpt lat="64.063621521" lon="-20.105325699">
<ele>126.769531</ele>
<time>2012-07-20T19:41:09Z</time>
<speed>0.020000</speed>
<extensions>
<speed>0.0</speed>
<temp>0.00</temp>
<bpm>0</bpm>
<rpm>0.00</rpm>
</extensions>
</trkpt>
<trkpt lat="64.063621521" lon="-20.105325699">
<ele>126.791016</ele>
<time>2012-07-20T19:41:14Z</time>
<extensions>
<speed>0.0</speed>
<temp>0.00</temp>
<bpm>0</bpm>
<rpm>0.00</rpm>
</extensions>
</trkpt>
<trkpt lat="64.063621521" lon="-20.105325699">
<ele>126.773438</ele>
<time>2012-07-20T19:41:19Z</time>
<extensions>
<speed>0.0</speed>
<temp>0.00</temp>
<bpm>0</bpm>
<rpm>0.00</rpm>
</extensions>
</trkpt>
<trkpt lat="64.063621521" lon="-20.105325699">
<ele>126.748047</ele>
<time>2012-07-20T19:41:24Z</time>
<extensions>
<speed>0.0</speed>
<temp>0.00</temp>
<bpm>0</bpm>
<rpm>0.00</rpm>
</extensions>
</trkpt>
<trkpt lat="64.063621521" lon="-20.105325699">
<ele>126.726563</ele>
<time>2012-07-20T19:41:29Z</time>
<extensions>
<speed>0.0</speed>
<temp>0.00</temp>
<bpm>0</bpm>
<rpm>0.00</rpm>
</extensions>
</trkpt>
<trkpt lat="64.063621521" lon="-20.105325699">
<ele>126.751953</ele>
<time>2012-07-20T19:41:34Z</time>
<speed>0.010000</speed>
<extensions>
<speed>0.0</speed>
<temp>0.00</temp>
<bpm>0</bpm>
<rpm>0.00</rpm>
</extensions>
</trkpt>
<trkpt lat="64.063621521" lon="-20.105325699">
<ele>126.748047</ele>
<time>2012-07-20T19:41:39Z</time>
<speed>0.010000</speed>
<extensions>
<speed>0.0</speed>
<temp>0.00</temp>
<bpm>0</bpm>
<rpm>0.00</rpm>
</extensions>
</trkpt>
<trkpt lat="64.063629150" lon="-20.105293274">
<ele>126.347656</ele>
<time>2012-07-20T19:41:44Z</time>
<speed>0.100000</speed>
<extensions>
<speed>0.1</speed>
<temp>0.00</temp>
<bpm>0</bpm>
<rpm>0.00</rpm>
</extensions>
</trkpt>
<trkpt lat="64.063644409" lon="-20.105251312">
<ele>126.367188</ele>
<time>2012-07-20T19:41:49Z</time>
<speed>1.850000</speed>
<extensions>
<speed>1.8</speed>
<temp>0.00</temp>
<bpm>0</bpm>
<rpm>0.00</rpm>
</extensions>
</trkpt>
<trkpt lat="64.063652039" lon="-20.104953766">
<ele>126.580078</ele>
<time>2012-07-20T19:41:54Z</time>
<speed>3.450000</speed>
<extensions>
<speed>3.5</speed>
<temp>0.00</temp>
<bpm>0</bpm>
<rpm>0.00</rpm>
</extensions>
</trkpt>
<trkpt lat="64.063667297" lon="-20.104549408">
<ele>126.083984</ele>
<time>2012-07-20T19:41:59Z</time>
<speed>4.270000</speed>
<extensions>
<speed>4.3</speed>
<temp>0.00</temp>
<bpm>0</bpm>
<rpm>0.00</rpm>
</extensions>
</trkpt>
<trkpt lat="64.063728333" lon="-20.104103088">
<ele>126.832031</ele>
<time>2012-07-20T19:42:04Z</time>
<speed>4.730000</speed>
<extensions>
<speed>4.7</speed>
<temp>0.00</temp>
<bpm>0</bpm>
<rpm>0.00</rpm>
</extensions>
</trkpt>
<trkpt lat="64.063796997" lon="-20.103652954">
<ele>126.980469</ele>
<time>2012-07-20T19:42:09Z</time>
<speed>4.340000</speed>
<extensions>
<speed>4.3</speed>
<temp>0.00</temp>
<bpm>0</bpm>
<rpm>0.00</rpm>
</extensions>
</trkpt>
<trkpt lat="64.063865662" lon="-20.103212357">
<ele>127.082031</ele>
<time>2012-07-20T19:42:14Z</time>
<speed>5.050000</speed>
<extensions>
<speed>5.1</speed>
<temp>0.00</temp>
<bpm>0</bpm>
<rpm>0.00</rpm>
</extensions>
</trkpt>
<trkpt lat="64.063957214" lon="-20.102830887">
<ele>127.841797</ele>
<time>2012-07-20T19:42:19Z</time>
<speed>3.160000</speed>
<extensions>
<speed>3.2</speed>
<temp>0.00</temp>
<bpm>0</bpm>
<rpm>0.00</rpm>
</extensions>
</trkpt>
<trkpt lat="64.063995361" lon="-20.102571487">
<ele>127.873047</ele>
<time>2012-07-20T19:42:24Z</time>
<speed>2.220000</speed>
<extensions>
<speed>2.2</speed>
<temp>0.00</temp>
<bpm>0</bpm>
<rpm>0.00</rpm>
</extensions>
</trkpt>
<trkpt lat="64.064018250" lon="-20.102304459">
<ele>125.835938</ele>
<time>2012-07-20T19:42:29Z</time>
<speed>3.020000</speed>
<extensions>
<speed>3.0</speed>
<temp>0.00</temp>
<bpm>0</bpm>
<rpm>0.00</rpm>
</extensions>
</trkpt>
<trkpt lat="64.064056396" lon="-20.101968765">
<ele>125.830078</ele>
<time>2012-07-20T19:42:34Z</time>
<speed>3.580000</speed>
<extensions>
<speed>3.6</speed>
<temp>0.00</temp>
<bpm>0</bpm>
<rpm>0.00</rpm>
</extensions>
</trkpt>
<trkpt lat="64.064102173" lon="-20.101581573">
<ele>125.220703</ele>
<time>2012-07-20T19:42:39Z</time>
<speed>3.670000</speed>
<extensions>
<speed>3.7</speed>
<temp>0.00</temp>
<bpm>0</bpm>
<rpm>0.00</rpm>
</extensions>
</trkpt>
<trkpt lat="64.064140320" lon="-20.101207733">
<ele>125.324219</ele>
<time>2012-07-20T19:42:44Z</time>
<speed>4.220000</speed>
<extensions>
<speed>4.2</speed>
<temp>0.00</temp>
<bpm>0</bpm>
<rpm>0.00</rpm>
</extensions>
</trkpt>
<trkpt lat="64.064155579" lon="-20.100748062">
<ele>125.816406</ele>
<time>2012-07-20T19:42:49Z</time>
<speed>4.440000</speed>
<extensions>
<speed>4.4</speed>
<temp>0.00</temp>
<bpm>0</bpm>
<rpm>0.00</rpm>
</extensions>
</trkpt>
<trkpt lat="64.064178467" lon="-20.100313187">
<ele>126.269531</ele>
<time>2012-07-20T19:42:54Z</time>
<speed>4.130000</speed>
<extensions>
<speed>4.1</speed>
<temp>0.00</temp>
<bpm>0</bpm>
<rpm>0.00</rpm>
</extensions>
</trkpt>
<trkpt lat="64.064178467" lon="-20.099920273">
<ele>126.115234</ele>
<time>2012-07-20T19:42:59Z</time>
<speed>3.650000</speed>
<extensions>
<speed>3.7</speed>
<temp>0.00</temp>
<bpm>0</bpm>
<rpm>0.00</rpm>
</extensions>
</trkpt>
<trkpt lat="64.064170837" lon="-20.099542618">
<ele>126.753906</ele>
<time>2012-07-20T19:43:04Z</time>
<speed>3.870000</speed>
<extensions>
<speed>3.9</speed>
<temp>0.00</temp>
<bpm>0</bpm>
<rpm>0.00</rpm>
</extensions>
</trkpt>
<trkpt lat="64.064170837" lon="-20.099130630">
<ele>127.320313</ele>
<time>2012-07-20T19:43:09Z</time>
<speed>3.710000</speed>
<extensions>
<speed>3.7</speed>
<temp>0.00</temp>
<bpm>0</bpm>
<rpm>0.00</rpm>
</extensions>
</trkpt>
<trkpt lat="64.064155579" lon="-20.098785400">
<ele>127.679688</ele>
<time>2012-07-20T19:43:14Z</time>
<speed>3.170000</speed>
<extensions>
<speed>3.2</speed>
<temp>0.00</temp>
<bpm>0</bpm>
<rpm>0.00</rpm>
</extensions>
</trkpt>
<trkpt lat="64.064140320" lon="-20.098482132">
<ele>127.781250</ele>
<time>2012-07-20T19:43:19Z</time>
<speed>2.810000</speed>
<extensions>
<speed>2.8</speed>
<temp>0.00</temp>
<bpm>0</bpm>
<rpm>0.00</rpm>
</extensions>
</trkpt>
<trkpt lat="64.064117432" lon="-20.098205566">
<ele>128.046875</ele>
<time>2012-07-20T19:43:24Z</time>
<speed>2.720000</speed>
<extensions>
<speed>2.7</speed>
<temp>0.00</temp>
<bpm>0</bpm>
<rpm>0.00</rpm>
</extensions>
</trkpt>
<trkpt lat="64.064094543" lon="-20.097965240">
<ele>128.281250</ele>
<time>2012-07-20T19:43:29Z</time>
<speed>2.400000</speed>
<extensions>
<speed>2.4</speed>
<temp>0.00</temp>
<bpm>0</bpm>
<rpm>0.00</rpm>
</extensions>
</trkpt>
<trkpt lat="64.064079285" lon="-20.097698212">
<ele>128.742188</ele>
<time>2012-07-20T19:43:34Z</time>
<speed>2.550000</speed>
<extensions>
<speed>2.6</speed>
<temp>0.00</temp>
<bpm>0</bpm>
<rpm>0.00</rpm>
</extensions>
</trkpt>
<trkpt lat="64.064056396" lon="-20.097421646">
<ele>128.832031</ele>
<time>2012-07-20T19:43:39Z</time>
<speed>2.780000</speed>
<extensions>
<speed>2.8</speed>
<temp>0.00</temp>
<bpm>0</bpm>
<rpm>0.00</rpm>
</extensions>
</trkpt>
<trkpt lat="64.064025879" lon="-20.097112656">
<ele>128.343750</ele>
<time>2012-07-20T19:43:44Z</time>
<speed>3.280000</speed>
<extensions>
<speed>3.3</speed>
<temp>0.00</temp>
<bpm>0</bpm>
<rpm>0.00</rpm>
</extensions>
</trkpt>
<trkpt lat="64.063995361" lon="-20.096813202">
<ele>127.363281</ele>
<time>2012-07-20T19:43:49Z</time>
<speed>2.980000</speed>
<extensions>
<speed>3.0</speed>
<temp>0.00</temp>
<bpm>0</bpm>
<rpm>0.00</rpm>
</extensions>
</trkpt>
<trkpt lat="64.063972473" lon="-20.096513748">
<ele>126.330078</ele>
<time>2012-07-20T19:43:54Z</time>
<speed>2.810000</speed>
<extensions>
<speed>2.8</speed>
<temp>0.00</temp>
<bpm>0</bpm>
<rpm>0.00</rpm>
</extensions>
</trkpt>
<trkpt lat="64.063964844" lon="-20.096199036">
<ele>125.392578</ele>
<time>2012-07-20T19:43:59Z</time>
<speed>3.370000</speed>
<extensions>
<speed>3.4</speed>
<temp>0.00</temp>
<bpm>0</bpm>
<rpm>0.00</rpm>
</extensions>
</trkpt>
<trkpt lat="64.063926697" lon="-20.095880508">
<ele>124.148438</ele>
<time>2012-07-20T19:44:04Z</time>
<speed>3.090000</speed>
<extensions>
<speed>3.1</speed>
<temp>0.00</temp>
<bpm>0</bpm>
<rpm>0.00</rpm>
</extensions>
</trkpt>
<trkpt lat="64.063903809" lon="-20.095579147">
<ele>123.320313</ele>
<time>2012-07-20T19:44:09Z</time>
<speed>2.910000</speed>
<extensions>
<speed>2.9</speed>
<temp>0.00</temp>
<bpm>0</bpm>
<rpm>0.00</rpm>
</extensions>
</trkpt>
<trkpt lat="64.063888550" lon="-20.095293045">
<ele>122.875000</ele>
<time>2012-07-20T19:44:14Z</time>
<speed>2.620000</speed>
<extensions>
<speed>2.6</speed>
<temp>0.00</temp>
<bpm>0</bpm>
<rpm>0.00</rpm>
</extensions>
</trkpt>
<trkpt lat="64.063873291" lon="-20.095008850">
<ele>122.724609</ele>
<time>2012-07-20T19:44:19Z</time>
<speed>2.630000</speed>
<extensions>
<speed>2.6</speed>
<temp>0.00</temp>
<bpm>0</bpm>
<rpm>0.00</rpm>
</extensions>
</trkpt>
<trkpt lat="64.063850403" lon="-20.094760895">
<ele>122.628906</ele>
<time>2012-07-20T19:44:24Z</time>
<speed>2.480000</speed>
<extensions>
<speed>2.5</speed>
<temp>0.00</temp>
<bpm>0</bpm>
<rpm>0.00</rpm>
</extensions>
</trkpt>
<trkpt lat="64.063835144" lon="-20.094528198">
<ele>122.507813</ele>
<time>2012-07-20T19:44:29Z</time>
<speed>2.640000</speed>
<extensions>
<speed>2.6</speed>
<temp>0.00</temp>
<bpm>0</bpm>
<rpm>0.00</rpm>
</extensions>
</trkpt>
<trkpt lat="64.063827515" lon="-20.094232559">
<ele>121.777344</ele>
<time>2012-07-20T19:44:34Z</time>
<speed>3.010000</speed>
<extensions>
<speed>3.0</speed>
<temp>0.00</temp>
<bpm>0</bpm>
<rpm>0.00</rpm>
</extensions>
</trkpt>
<trkpt lat="64.063812256" lon="-20.093898773">
<ele>123.031250</ele>
<time>2012-07-20T19:44:39Z</time>
<speed>3.230000</speed>
<extensions>
<speed>3.2</speed>
<temp>0.00</temp>
<bpm>0</bpm>
<rpm>0.00</rpm>
</extensions>
</trkpt>
<trkpt lat="64.063804626" lon="-20.093570709">
<ele>122.564453</ele>
<time>2012-07-20T19:44:44Z</time>
<speed>3.310000</speed>
<extensions>
<speed>3.3</speed>
<temp>0.00</temp>
<bpm>0</bpm>
<rpm>0.00</rpm>
</extensions>
</trkpt>
<trkpt lat="64.063789368" lon="-20.093227386">
<ele>122.103516</ele>
<time>2012-07-20T19:44:49Z</time>
<speed>3.110000</speed>
<extensions>
<speed>3.1</speed>
<temp>0.00</temp>
<bpm>0</bpm>
<rpm>0.00</rpm>
</extensions>
</trkpt>
<trkpt lat="64.063789368" lon="-20.092918396">
<ele>122.849609</ele>
<time>2012-07-20T19:44:54Z</time>
<speed>3.230000</speed>
<extensions>
<speed>3.2</speed>
<temp>0.00</temp>
<bpm>0</bpm>
<rpm>0.00</rpm>
</extensions>
</trkpt>
<trkpt lat="64.063789368" lon="-20.092571259">
<ele>125.218750</ele>
<time>2012-07-20T19:44:59Z</time>
<speed>3.310000</speed>
<extensions>
<speed>3.3</speed>
<temp>0.00</temp>
<bpm>0</bpm>
<rpm>0.00</rpm>
</extensions>
</trkpt>
<trkpt lat="64.063781738" lon="-20.092237473">
<ele>125.142578</ele>
<time>2012-07-20T19:45:04Z</time>
<speed>3.420000</speed>
<extensions>
<speed>3.4</speed>
<temp>0.00</temp>
<bpm>0</bpm>
<rpm>0.00</rpm>
</extensions>
</trkpt>
<trkpt lat="64.063781738" lon="-20.091903687">
<ele>124.833984</ele>
<time>2012-07-20T19:45:09Z</time>
<speed>3.000000</speed>
<extensions>
<speed>3.0</speed>
<temp>0.00</temp>
<bpm>0</bpm>
<rpm>0.00</rpm>
</extensions>
</trkpt>
<trkpt lat="64.063796997" lon="-20.091608047">
<ele>125.933594</ele>
<time>2012-07-20T19:45:14Z</time>
<speed>2.980000</speed>
<extensions>
<speed>3.0</speed>
<temp>0.00</temp>
<bpm>0</bpm>
<rpm>0.00</rpm>
</extensions>
</trkpt>
<trkpt lat="64.063796997" lon="-20.091306686">
<ele>124.812500</ele>
<time>2012-07-20T19:45:19Z</time>
<speed>2.750000</speed>
<extensions>
<speed>2.7</speed>
<temp>0.00</temp>
<bpm>0</bpm>
<rpm>0.00</rpm>
</extensions>
</trkpt>
<trkpt lat="64.063804626" lon="-20.091056824">
<ele>124.587891</ele>
<time>2012-07-20T19:45:24Z</time>
<speed>2.340000</speed>
<extensions>
<speed>2.3</speed>
<temp>0.00</temp>
<bpm>0</bpm>
<rpm>0.00</rpm>
</extensions>
</trkpt>
<trkpt lat="64.063819885" lon="-20.090795517">
<ele>123.867188</ele>
<time>2012-07-20T19:45:29Z</time>
<speed>2.410000</speed>
<extensions>
<speed>2.4</speed>
<temp>0.00</temp>
<bpm>0</bpm>
<rpm>0.00</rpm>
</extensions>
</trkpt>
<trkpt lat="64.063819885" lon="-20.090541840">
<ele>122.472656</ele>
<time>2012-07-20T19:45:34Z</time>
<speed>2.410000</speed>
<extensions>
<speed>2.4</speed>
<temp>0.00</temp>
<bpm>0</bpm>
<rpm>0.00</rpm>
</extensions>
</trkpt>
<trkpt lat="64.063827515" lon="-20.090263367">
<ele>121.269531</ele>
<time>2012-07-20T19:45:39Z</time>
<speed>2.770000</speed>
<extensions>
<speed>2.8</speed>
<temp>0.00</temp>
<bpm>0</bpm>
<rpm>0.00</rpm>
</extensions>
</trkpt>
<trkpt lat="64.063842773" lon="-20.090019226">
<ele>118.562500</ele>
<time>2012-07-20T19:45:44Z</time>
<speed>2.380000</speed>
<extensions>
<speed>2.4</speed>
<temp>0.00</temp>
<bpm>0</bpm>
<rpm>0.00</rpm>
</extensions>
</trkpt>
<trkpt lat="64.063858032" lon="-20.089689255">
<ele>115.119141</ele>
<time>2012-07-20T19:45:49Z</time>
<speed>2.910000</speed>
<extensions>
<speed>2.9</speed>
<temp>0.00</temp>
<bpm>0</bpm>
<rpm>0.00</rpm>
</extensions>
</trkpt>
<trkpt lat="64.063865662" lon="-20.089439392">
<ele>116.496094</ele>
<time>2012-07-20T19:45:54Z</time>
<speed>1.780000</speed>
<extensions>
<speed>1.8</speed>
<temp>0.00</temp>
<bpm>0</bpm>
<rpm>0.00</rpm>
</extensions>
</trkpt>
<trkpt lat="64.063873291" lon="-20.089408875">
<ele>117.726563</ele>
<time>2012-07-20T19:45:59Z</time>
<speed>0.040000</speed>
<extensions>
<speed>0.0</speed>
<temp>0.00</temp>
<bpm>0</bpm>
<rpm>0.00</rpm>
</extensions>
</trkpt>
<trkpt lat="64.063873291" lon="-20.089408875">
<ele>117.740234</ele>
<time>2012-07-20T19:46:04Z</time>
<extensions>
<speed>0.0</speed>
<temp>0.00</temp>
<bpm>0</bpm>
<rpm>0.00</rpm>
</extensions>
</trkpt>
<trkpt lat="64.063873291" lon="-20.089408875">
<ele>117.736328</ele>
<time>2012-07-20T19:46:09Z</time>
<extensions>
<speed>0.0</speed>
<temp>0.00</temp>
<bpm>0</bpm>
<rpm>0.00</rpm>
</extensions>
</trkpt>
<trkpt lat="64.063873291" lon="-20.089408875">
<ele>117.949219</ele>
<time>2012-07-20T19:46:14Z</time>
<speed>0.040000</speed>
<extensions>
<speed>0.0</speed>
<temp>0.00</temp>
<bpm>0</bpm>
<rpm>0.00</rpm>
</extensions>
</trkpt>
<trkpt lat="64.063873291" lon="-20.089410782">
<ele>118.406250</ele>
<time>2012-07-20T19:46:19Z</time>
<extensions>
<speed>0.0</speed>
<temp>0.00</temp>
<bpm>0</bpm>
<rpm>0.00</rpm>
</extensions>
</trkpt>
<trkpt lat="64.063873291" lon="-20.089408875">
<ele>118.402344</ele>
<time>2012-07-20T19:46:24Z</time>
<extensions>
<speed>0.0</speed>
<temp>0.00</temp>
<bpm>0</bpm>
<rpm>0.00</rpm>
</extensions>
</trkpt>
<trkpt lat="64.063865662" lon="-20.089410782">
<ele>118.679688</ele>
<time>2012-07-20T19:46:29Z</time>
<speed>0.040000</speed>
<extensions>
<speed>0.0</speed>
<temp>0.00</temp>
<bpm>0</bpm>
<rpm>0.00</rpm>
</extensions>
</trkpt>
<trkpt lat="64.063873291" lon="-20.089410782">
<ele>119.015625</ele>
<time>2012-07-20T19:46:34Z</time>
<extensions>
<speed>0.0</speed>
<temp>0.00</temp>
<bpm>0</bpm>
<rpm>0.00</rpm>
</extensions>
</trkpt>
<trkpt lat="64.063873291" lon="-20.089410782">
<ele>119.013672</ele>
<time>2012-07-20T19:46:39Z</time>
<speed>0.010000</speed>
<extensions>
<speed>0.0</speed>
<temp>0.00</temp>
<bpm>0</bpm>
<rpm>0.00</rpm>
</extensions>
</trkpt>
<trkpt lat="64.063865662" lon="-20.089393616">
<ele>118.929688</ele>
<time>2012-07-20T19:46:44Z</time>
<speed>1.050000</speed>
<extensions>
<speed>1.0</speed>
<temp>0.00</temp>
<bpm>0</bpm>
<rpm>0.00</rpm>
</extensions>
</trkpt>
<trkpt lat="64.063880920" lon="-20.089199066">
<ele>119.210938</ele>
<time>2012-07-20T19:46:49Z</time>
<speed>2.530000</speed>
<extensions>
<speed>2.5</speed>
<temp>0.00</temp>
<bpm>0</bpm>
<rpm>0.00</rpm>
</extensions>
</trkpt>
<trkpt lat="64.063903809" lon="-20.088956833">
<ele>119.820313</ele>
<time>2012-07-20T19:46:54Z</time>
<speed>2.630000</speed>
<extensions>
<speed>2.6</speed>
<temp>0.00</temp>
<bpm>0</bpm>
<rpm>0.00</rpm>
</extensions>
</trkpt>
<trkpt lat="64.063926697" lon="-20.088670731">
<ele>120.398438</ele>
<time>2012-07-20T19:46:59Z</time>
<speed>2.800000</speed>
<extensions>
<speed>2.8</speed>
<temp>0.00</temp>
<bpm>0</bpm>
<rpm>0.00</rpm>
</extensions>
</trkpt>
<trkpt lat="64.063964844" lon="-20.088378906">
<ele>121.542969</ele>
<time>2012-07-20T19:47:04Z</time>
<speed>2.910000</speed>
<extensions>
<speed>2.9</speed>
<temp>0.00</temp>
<bpm>0</bpm>
<rpm>0.00</rpm>
</extensions>
</trkpt>
<trkpt lat="64.063995361" lon="-20.088108063">
<ele>122.214844</ele>
<time>2012-07-20T19:47:09Z</time>
<speed>2.710000</speed>
<extensions>
<speed>2.7</speed>
<temp>0.00</temp>
<bpm>0</bpm>
<rpm>0.00</rpm>
</extensions>
</trkpt>
<trkpt lat="64.064018250" lon="-20.087797165">
<ele>122.080078</ele>
<time>2012-07-20T19:47:14Z</time>
<speed>2.990000</speed>
<extensions>
<speed>3.0</speed>
<temp>0.00</temp>
<bpm>0</bpm>
<rpm>0.00</rpm>
</extensions>
</trkpt>
<trkpt lat="64.064033508" lon="-20.087480545">
<ele>121.115234</ele>
<time>2012-07-20T19:47:19Z</time>
<speed>3.570000</speed>
<extensions>
<speed>3.6</speed>
<temp>0.00</temp>
<bpm>0</bpm>
<rpm>0.00</rpm>
</extensions>
</trkpt>
<trkpt lat="64.064064026" lon="-20.087072372">
<ele>119.593750</ele>
<time>2012-07-20T19:47:24Z</time>
<speed>4.220000</speed>
<extensions>
<speed>4.2</speed>
<temp>0.00</temp>
<bpm>0</bpm>
<rpm>0.00</rpm>
</extensions>
</trkpt>
<trkpt lat="64.064094543" lon="-20.086637497">
<ele>119.824219</ele>
<time>2012-07-20T19:47:29Z</time>
<speed>4.000000</speed>
<extensions>
<speed>4.0</speed>
<temp>0.00</temp>
<bpm>0</bpm>
<rpm>0.00</rpm>
</extensions>
</trkpt>
<trkpt lat="64.064125061" lon="-20.086235046">
<ele>120.281250</ele>
<time>2012-07-20T19:47:34Z</time>
<speed>3.980000</speed>
<extensions>
<speed>4.0</speed>
<temp>0.00</temp>
<bpm>0</bpm>
<rpm>0.00</rpm>
</extensions>
</trkpt>
<trkpt lat="64.064163208" lon="-20.085815430">
<ele>120.349609</ele>
<time>2012-07-20T19:47:39Z</time>
<speed>4.300000</speed>
<extensions>
<speed>4.3</speed>
<temp>0.00</temp>
<bpm>0</bpm>
<rpm>0.00</rpm>
</extensions>
</trkpt>
<trkpt lat="64.064193726" lon="-20.085376740">
<ele>120.507813</ele>
<time>2012-07-20T19:47:44Z</time>
<speed>4.000000</speed>
<extensions>
<speed>4.0</speed>
<temp>0.00</temp>
<bpm>0</bpm>
<rpm>0.00</rpm>
</extensions>
</trkpt>
<trkpt lat="64.064239502" lon="-20.084968567">
<ele>121.537109</ele>
<time>2012-07-20T19:47:49Z</time>
<speed>3.820000</speed>
<extensions>
<speed>3.8</speed>
<temp>0.00</temp>
<bpm>0</bpm>
<rpm>0.00</rpm>
</extensions>
</trkpt>
<trkpt lat="64.064262390" lon="-20.084596634">
<ele>122.417969</ele>
<time>2012-07-20T19:47:54Z</time>
<speed>3.710000</speed>
<extensions>
<speed>3.7</speed>
<temp>0.00</temp>
<bpm>0</bpm>
<rpm>0.00</rpm>
</extensions>
</trkpt>
<trkpt lat="64.064285278" lon="-20.084224701">
<ele>121.578125</ele>
<time>2012-07-20T19:47:59Z</time>
<speed>3.840000</speed>
<extensions>
<speed>3.8</speed>
<temp>0.00</temp>
<bpm>0</bpm>
<rpm>0.00</rpm>
</extensions>
</trkpt>
<trkpt lat="64.064315796" lon="-20.083829880">
<ele>121.919922</ele>
<time>2012-07-20T19:48:04Z</time>
<speed>3.790000</speed>
<extensions>
<speed>3.8</speed>
<temp>0.00</temp>
<bpm>0</bpm>
<rpm>0.00</rpm>
</extensions>
</trkpt>
<trkpt lat="64.064346313" lon="-20.083427429">
<ele>121.914063</ele>
<time>2012-07-20T19:48:09Z</time>
<speed>3.850000</speed>
<extensions>
<speed>3.8</speed>
<temp>0.00</temp>
<bpm>0</bpm>
<rpm>0.00</rpm>
</extensions>
</trkpt>
<trkpt lat="64.064369202" lon="-20.083015442">
<ele>121.136719</ele>
<time>2012-07-20T19:48:14Z</time>
<speed>4.200000</speed>
<extensions>
<speed>4.2</speed>
<temp>0.00</temp>
<bpm>0</bpm>
<rpm>0.00</rpm>
</extensions>
</trkpt>
<trkpt lat="64.064392090" lon="-20.082595825">
<ele>121.439453</ele>
<time>2012-07-20T19:48:19Z</time>
<speed>4.130000</speed>
<extensions>
<speed>4.1</speed>
<temp>0.00</temp>
<bpm>0</bpm>
<rpm>0.00</rpm>
</extensions>
</trkpt>
<trkpt lat="64.064414978" lon="-20.082181931">
<ele>121.685547</ele>
<time>2012-07-20T19:48:24Z</time>
<speed>4.080000</speed>
<extensions>
<speed>4.1</speed>
<temp>0.00</temp>
<bpm>0</bpm>
<rpm>0.00</rpm>
</extensions>
</trkpt>
<trkpt lat="64.064430237" lon="-20.081726074">
<ele>121.046875</ele>
<time>2012-07-20T19:48:29Z</time>
<speed>4.150000</speed>
<extensions>
<speed>4.1</speed>
<temp>0.00</temp>
<bpm>0</bpm>
<rpm>0.00</rpm>
</extensions>
</trkpt>
<trkpt lat="64.064437866" lon="-20.081340790">
<ele>120.685547</ele>
<time>2012-07-20T19:48:34Z</time>
<speed>3.690000</speed>
<extensions>
<speed>3.7</speed>
<temp>0.00</temp>
<bpm>0</bpm>
<rpm>0.00</rpm>
</extensions>
</trkpt>
<trkpt lat="64.064445496" lon="-20.080934525">
<ele>121.949219</ele>
<time>2012-07-20T19:48:39Z</time>
<speed>4.010000</speed>
<extensions>
<speed>4.0</speed>
<temp>0.00</temp>
<bpm>0</bpm>
<rpm>0.00</rpm>
</extensions>
</trkpt>
<trkpt lat="64.064453125" lon="-20.080501556">
<ele>122.716797</ele>
<time>2012-07-20T19:48:44Z</time>
<speed>4.250000</speed>
<extensions>
<speed>4.3</speed>
<temp>0.00</temp>
<bpm>0</bpm>
<rpm>0.00</rpm>
</extensions>
</trkpt>
<trkpt lat="64.064460754" lon="-20.080049515">
<ele>123.378906</ele>
<time>2012-07-20T19:48:49Z</time>
<speed>4.410000</speed>
<extensions>
<speed>4.4</speed>
<temp>0.00</temp>
<bpm>0</bpm>
<rpm>0.00</rpm>
</extensions>
</trkpt>
<trkpt lat="64.064468384" lon="-20.079593658">
<ele>123.806641</ele>
<time>2012-07-20T19:48:54Z</time>
<speed>4.450000</speed>
<extensions>
<speed>4.5</speed>
<temp>0.00</temp>
<bpm>0</bpm>
<rpm>0.00</rpm>
</extensions>
</trkpt>
<trkpt lat="64.064460754" lon="-20.079133987">
<ele>124.550781</ele>
<time>2012-07-20T19:48:59Z</time>
<speed>4.440000</speed>
<extensions>
<speed>4.4</speed>
<temp>0.00</temp>
<bpm>0</bpm>
<rpm>0.00</rpm>
</extensions>
</trkpt>
<trkpt lat="64.064460754" lon="-20.078714371">
<ele>125.185547</ele>
<time>2012-07-20T19:49:04Z</time>
<speed>3.820000</speed>
<extensions>
<speed>3.8</speed>
<temp>0.00</temp>
<bpm>0</bpm>
<rpm>0.00</rpm>
</extensions>
</trkpt>
<trkpt lat="64.064445496" lon="-20.078315735">
<ele>125.625000</ele>
<time>2012-07-20T19:49:09Z</time>
<speed>4.110000</speed>
<extensions>
<speed>4.1</speed>
<temp>0.00</temp>
<bpm>0</bpm>
<rpm>0.00</rpm>
</extensions>
</trkpt>
<trkpt lat="64.064445496" lon="-20.077880859">
<ele>126.320313</ele>
<time>2012-07-20T19:49:14Z</time>
<speed>4.160000</speed>
<extensions>
<speed>4.2</speed>
<temp>0.00</temp>
<bpm>0</bpm>
<rpm>0.00</rpm>
</extensions>
</trkpt>
<trkpt lat="64.064437866" lon="-20.077440262">
<ele>126.765625</ele>
<time>2012-07-20T19:49:19Z</time>
<speed>4.200000</speed>
<extensions>
<speed>4.2</speed>
<temp>0.00</temp>
<bpm>0</bpm>
<rpm>0.00</rpm>
</extensions>
</trkpt>
<trkpt lat="64.064430237" lon="-20.077005386">
<ele>127.726563</ele>
<time>2012-07-20T19:49:24Z</time>
<speed>4.280000</speed>
<extensions>
<speed>4.3</speed>
<temp>0.00</temp>
<bpm>0</bpm>
<rpm>0.00</rpm>
</extensions>
</trkpt>
<trkpt lat="64.064430237" lon="-20.076560974">
<ele>128.046875</ele>
<time>2012-07-20T19:49:29Z</time>
<speed>4.450000</speed>
<extensions>
<speed>4.5</speed>
<temp>0.00</temp>
<bpm>0</bpm>
<rpm>0.00</rpm>
</extensions>
</trkpt>
<trkpt lat="64.064407349" lon="-20.076084137">
<ele>127.822266</ele>
<time>2012-07-20T19:49:34Z</time>
<speed>4.720000</speed>
<extensions>
<speed>4.7</speed>
<temp>0.00</temp>
<bpm>0</bpm>
<rpm>0.00</rpm>
</extensions>
</trkpt>
<trkpt lat="64.064399719" lon="-20.075576782">
<ele>127.931641</ele>
<time>2012-07-20T19:49:39Z</time>
<speed>4.930000</speed>
<extensions>
<speed>4.9</speed>
<temp>0.00</temp>
<bpm>0</bpm>
<rpm>0.00</rpm>
</extensions>
</trkpt>
<trkpt lat="64.064392090" lon="-20.075054169">
<ele>127.968750</ele>
<time>2012-07-20T19:49:44Z</time>
<speed>5.160000</speed>
<extensions>
<speed>5.2</speed>
<temp>0.00</temp>
<bpm>0</bpm>
<rpm>0.00</rpm>
</extensions>
</trkpt>
<trkpt lat="64.064384460" lon="-20.074525833">
<ele>127.541016</ele>
<time>2012-07-20T19:49:49Z</time>
<speed>4.920000</speed>
<extensions>
<speed>4.9</speed>
<temp>0.00</temp>
<bpm>0</bpm>
<rpm>0.00</rpm>
</extensions>
</trkpt>
<trkpt lat="64.064384460" lon="-20.074043274">
<ele>127.677734</ele>
<time>2012-07-20T19:49:54Z</time>
<speed>4.880000</speed>
<extensions>
<speed>4.9</speed>
<temp>0.00</temp>
<bpm>0</bpm>
<rpm>0.00</rpm>
</extensions>
</trkpt>
<trkpt lat="64.064392090" lon="-20.073543549">
<ele>126.970703</ele>
<time>2012-07-20T19:49:59Z</time>
<speed>4.860000</speed>
<extensions>
<speed>4.9</speed>
<temp>0.00</temp>
<bpm>0</bpm>
<rpm>0.00</rpm>
</extensions>
</trkpt>
<trkpt lat="64.064407349" lon="-20.073055267">
<ele>126.537109</ele>
<time>2012-07-20T19:50:04Z</time>
<speed>4.830000</speed>
<extensions>
<speed>4.8</speed>
<temp>0.00</temp>
<bpm>0</bpm>
<rpm>0.00</rpm>
</extensions>
</trkpt>
<trkpt lat="64.064445496" lon="-20.072542191">
<ele>125.710938</ele>
<time>2012-07-20T19:50:09Z</time>
<speed>5.270000</speed>
<extensions>
<speed>5.3</speed>
<temp>0.00</temp>
<bpm>0</bpm>
<rpm>0.00</rpm>
</extensions>
</trkpt>
<trkpt lat="64.064491272" lon="-20.072019577">
<ele>124.884766</ele>
<time>2012-07-20T19:50:14Z</time>
<speed>4.760000</speed>
<extensions>
<speed>4.8</speed>
<temp>0.00</temp>
<bpm>0</bpm>
<rpm>0.00</rpm>
</extensions>
</trkpt>
<trkpt lat="64.064537048" lon="-20.071611404">
<ele>124.875000</ele>
<time>2012-07-20T19:50:19Z</time>
<speed>3.760000</speed>
<extensions>
<speed>3.8</speed>
<temp>0.00</temp>
<bpm>0</bpm>
<rpm>0.00</rpm>
</extensions>
</trkpt>
<trkpt lat="64.064582825" lon="-20.071249008">
<ele>125.343750</ele>
<time>2012-07-20T19:50:24Z</time>
<speed>3.850000</speed>
<extensions>
<speed>3.8</speed>
<temp>0.00</temp>
<bpm>0</bpm>
<rpm>0.00</rpm>
</extensions>
</trkpt>
<trkpt lat="64.064636230" lon="-20.070905685">
<ele>124.005859</ele>
<time>2012-07-20T19:50:29Z</time>
<speed>3.760000</speed>
<extensions>
<speed>3.8</speed>
<temp>0.00</temp>
<bpm>0</bpm>
<rpm>0.00</rpm>
</extensions>
</trkpt>
<trkpt lat="64.064697266" lon="-20.070558548">
<ele>127.062500</ele>
<time>2012-07-20T19:50:34Z</time>
<speed>3.830000</speed>
<extensions>
<speed>3.8</speed>
<temp>0.00</temp>
<bpm>0</bpm>
<rpm>0.00</rpm>
</extensions>
</trkpt>
<trkpt lat="64.064765930" lon="-20.070207596">
<ele>127.818359</ele>
<time>2012-07-20T19:50:39Z</time>
<speed>3.580000</speed>
<extensions>
<speed>3.6</speed>
<temp>0.00</temp>
<bpm>0</bpm>
<rpm>0.00</rpm>
</extensions>
</trkpt>
<trkpt lat="64.064826965" lon="-20.069850922">
<ele>129.890625</ele>
<time>2012-07-20T19:50:44Z</time>
<speed>3.960000</speed>
<extensions>
<speed>4.0</speed>
<temp>0.00</temp>
<bpm>0</bpm>
<rpm>0.00</rpm>
</extensions>
</trkpt>
<trkpt lat="64.064903259" lon="-20.069475174">
<ele>132.464844</ele>
<time>2012-07-20T19:50:49Z</time>
<speed>4.290000</speed>
<extensions>
<speed>4.3</speed>
<temp>0.00</temp>
<bpm>0</bpm>
<rpm>0.00</rpm>
</extensions>
</trkpt>
<trkpt lat="64.064979553" lon="-20.069061279">
<ele>131.742188</ele>
<time>2012-07-20T19:50:54Z</time>
<speed>4.000000</speed>
<extensions>
<speed>4.0</speed>
<temp>0.00</temp>
<bpm>0</bpm>
<rpm>0.00</rpm>
</extensions>
</trkpt>
<trkpt lat="64.065071106" lon="-20.068674088">
<ele>131.785156</ele>
<time>2012-07-20T19:50:59Z</time>
<speed>4.480000</speed>
<extensions>
<speed>4.5</speed>
<temp>0.00</temp>
<bpm>0</bpm>
<rpm>0.00</rpm>
</extensions>
</trkpt>
<trkpt lat="64.065155029" lon="-20.068229675">
<ele>132.589844</ele>
<time>2012-07-20T19:51:04Z</time>
<speed>4.510000</speed>
<extensions>
<speed>4.5</speed>
<temp>0.00</temp>
<bpm>0</bpm>
<rpm>0.00</rpm>
</extensions>
</trkpt>
<trkpt lat="64.065238953" lon="-20.067865372">
<ele>133.359375</ele>
<time>2012-07-20T19:51:09Z</time>
<speed>3.880000</speed>
<extensions>
<speed>3.9</speed>
<temp>0.00</temp>
<bpm>0</bpm>
<rpm>0.00</rpm>
</extensions>
</trkpt>
<trkpt lat="64.065322876" lon="-20.067472458">
<ele>133.074219</ele>
<time>2012-07-20T19:51:14Z</time>
<speed>4.200000</speed>
<extensions>
<speed>4.2</speed>
<temp>0.00</temp>
<bpm>0</bpm>
<rpm>0.00</rpm>
</extensions>
</trkpt>
<trkpt lat="64.065406799" lon="-20.067062378">
<ele>132.117188</ele>
<time>2012-07-20T19:51:19Z</time>
<speed>4.270000</speed>
<extensions>
<speed>4.3</speed>
<temp>0.00</temp>
<bpm>0</bpm>
<rpm>0.00</rpm>
</extensions>
</trkpt>
<trkpt lat="64.065475464" lon="-20.066694260">
<ele>131.488281</ele>
<time>2012-07-20T19:51:24Z</time>
<speed>4.040000</speed>
<extensions>
<speed>4.0</speed>
<temp>0.00</temp>
<bpm>0</bpm>
<rpm>0.00</rpm>
</extensions>
</trkpt>
<trkpt lat="64.065551758" lon="-20.066295624">
<ele>130.992188</ele>
<time>2012-07-20T19:51:29Z</time>
<speed>4.290000</speed>
<extensions>
<speed>4.3</speed>
<temp>0.00</temp>
<bpm>0</bpm>
<rpm>0.00</rpm>
</extensions>
</trkpt>
<trkpt lat="64.065620422" lon="-20.065898895">
<ele>129.875000</ele>
<time>2012-07-20T19:51:34Z</time>
<speed>4.020000</speed>
<extensions>
<speed>4.0</speed>
<temp>0.00</temp>
<bpm>0</bpm>
<rpm>0.00</rpm>
</extensions>
</trkpt>
<trkpt lat="64.065711975" lon="-20.065481186">
<ele>130.671875</ele>
<time>2012-07-20T19:51:39Z</time>
<speed>5.270000</speed>
<extensions>
<speed>5.3</speed>
<temp>0.00</temp>
<bpm>0</bpm>
<rpm>0.00</rpm>
</extensions>
</trkpt>
<trkpt lat="64.065803528" lon="-20.065008163">
<ele>130.476563</ele>
<time>2012-07-20T19:51:44Z</time>
<speed>5.120000</speed>
<extensions>
<speed>5.1</speed>
<temp>0.00</temp>
<bpm>0</bpm>
<rpm>0.00</rpm>
</extensions>
</trkpt>
<trkpt lat="64.065910339" lon="-20.064498901">
<ele>130.964844</ele>
<time>2012-07-20T19:51:49Z</time>
<speed>5.680000</speed>
<extensions>
<speed>5.7</speed>
<temp>0.00</temp>
<bpm>0</bpm>
<rpm>0.00</rpm>
</extensions>
</trkpt>
<trkpt lat="64.066017151" lon="-20.063982010">
<ele>131.183594</ele>
<time>2012-07-20T19:51:54Z</time>
<speed>5.480000</speed>
<extensions>
<speed>5.5</speed>
<temp>0.00</temp>
<bpm>0</bpm>
<rpm>0.00</rpm>
</extensions>
</trkpt>
<trkpt lat="64.066116333" lon="-20.063476563">
<ele>130.398438</ele>
<time>2012-07-20T19:51:59Z</time>
<speed>5.180000</speed>
<extensions>
<speed>5.2</speed>
<temp>0.00</temp>
<bpm>0</bpm>
<rpm>0.00</rpm>
</extensions>
</trkpt>
<trkpt lat="64.066200256" lon="-20.063016891">
<ele>129.332031</ele>
<time>2012-07-20T19:52:04Z</time>
<speed>4.700000</speed>
<extensions>
<speed>4.7</speed>
<temp>0.00</temp>
<bpm>0</bpm>
<rpm>0.00</rpm>
</extensions>
</trkpt>
<trkpt lat="64.066284180" lon="-20.062559128">
<ele>129.031250</ele>
<time>2012-07-20T19:52:09Z</time>
<speed>5.070000</speed>
<extensions>
<speed>5.1</speed>
<temp>0.00</temp>
<bpm>0</bpm>
<rpm>0.00</rpm>
</extensions>
</trkpt>
<trkpt lat="64.066383362" lon="-20.062072754">
<ele>128.972656</ele>
<time>2012-07-20T19:52:14Z</time>
<speed>5.500000</speed>
<extensions>
<speed>5.5</speed>
<temp>0.00</temp>
<bpm>0</bpm>
<rpm>0.00</rpm>
</extensions>
</trkpt>
<trkpt lat="64.066482544" lon="-20.061569214">
<ele>127.720703</ele>
<time>2012-07-20T19:52:19Z</time>
<speed>5.160000</speed>
<extensions>
<speed>5.2</speed>
<temp>0.00</temp>
<bpm>0</bpm>
<rpm>0.00</rpm>
</extensions>
</trkpt>
<trkpt lat="64.066581726" lon="-20.061086655">
<ele>127.726563</ele>
<time>2012-07-20T19:52:24Z</time>
<speed>5.390000</speed>
<extensions>
<speed>5.4</speed>
<temp>0.00</temp>
<bpm>0</bpm>
<rpm>0.00</rpm>
</extensions>
</trkpt>
<trkpt lat="64.066688538" lon="-20.060594559">
<ele>128.324219</ele>
<time>2012-07-20T19:52:29Z</time>
<speed>5.500000</speed>
<extensions>
<speed>5.5</speed>
<temp>0.00</temp>
<bpm>0</bpm>
<rpm>0.00</rpm>
</extensions>
</trkpt>
<trkpt lat="64.066780090" lon="-20.060115814">
<ele>129.000000</ele>
<time>2012-07-20T19:52:34Z</time>
<speed>5.090000</speed>
<extensions>
<speed>5.1</speed>
<temp>0.00</temp>
<bpm>0</bpm>
<rpm>0.00</rpm>
</extensions>
</trkpt>
<trkpt lat="64.066879272" lon="-20.059637070">
<ele>130.039063</ele>
<time>2012-07-20T19:52:39Z</time>
<speed>4.670000</speed>
<extensions>
<speed>4.7</speed>
<temp>0.00</temp>
<bpm>0</bpm>
<rpm>0.00</rpm>
</extensions>
</trkpt>
<trkpt lat="64.066963196" lon="-20.059179306">
<ele>128.824219</ele>
<time>2012-07-20T19:52:44Z</time>
<speed>4.780000</speed>
<extensions>
<speed>4.8</speed>
<temp>0.00</temp>
<bpm>0</bpm>
<rpm>0.00</rpm>
</extensions>
</trkpt>
<trkpt lat="64.067062378" lon="-20.058713913">
<ele>126.431641</ele>
<time>2012-07-20T19:52:49Z</time>
<speed>4.750000</speed>
<extensions>
<speed>4.8</speed>
<temp>0.00</temp>
<bpm>0</bpm>
<rpm>0.00</rpm>
</extensions>
</trkpt>
<trkpt lat="64.067138672" lon="-20.058288574">
<ele>128.218750</ele>
<time>2012-07-20T19:52:54Z</time>
<speed>4.660000</speed>
<extensions>
<speed>4.7</speed>
<temp>0.00</temp>
<bpm>0</bpm>
<rpm>0.00</rpm>
</extensions>
</trkpt>
<trkpt lat="64.067230225" lon="-20.057891846">
<ele>130.542969</ele>
<time>2012-07-20T19:52:59Z</time>
<speed>4.400000</speed>
<extensions>
<speed>4.4</speed>
<temp>0.00</temp>
<bpm>0</bpm>
<rpm>0.00</rpm>
</extensions>
</trkpt>
<trkpt lat="64.067314148" lon="-20.057456970">
<ele>130.343750</ele>
<time>2012-07-20T19:53:04Z</time>
<speed>4.540000</speed>
<extensions>
<speed>4.5</speed>
<temp>0.00</temp>
<bpm>0</bpm>
<rpm>0.00</rpm>
</extensions>
</trkpt>
<trkpt lat="64.067390442" lon="-20.057044983">
<ele>129.871094</ele>
<time>2012-07-20T19:53:09Z</time>
<speed>4.450000</speed>
<extensions>
<speed>4.5</speed>
<temp>0.00</temp>
<bpm>0</bpm>
<rpm>0.00</rpm>
</extensions>
</trkpt>
<trkpt lat="64.067474365" lon="-20.056612015">
<ele>129.773438</ele>
<time>2012-07-20T19:53:14Z</time>
<speed>4.540000</speed>
<extensions>
<speed>4.5</speed>
<temp>0.00</temp>
<bpm>0</bpm>
<rpm>0.00</rpm>
</extensions>
</trkpt>
<trkpt lat="64.067558289" lon="-20.056211472">
<ele>129.019531</ele>
<time>2012-07-20T19:53:19Z</time>
<speed>4.470000</speed>
<extensions>
<speed>4.5</speed>
<temp>0.00</temp>
<bpm>0</bpm>
<rpm>0.00</rpm>
</extensions>
</trkpt>
<trkpt lat="64.067634583" lon="-20.055809021">
<ele>129.523438</ele>
<time>2012-07-20T19:53:24Z</time>
<speed>4.190000</speed>
<extensions>
<speed>4.2</speed>
<temp>0.00</temp>
<bpm>0</bpm>
<rpm>0.00</rpm>
</extensions>
</trkpt>
<trkpt lat="64.067718506" lon="-20.055397034">
<ele>128.363281</ele>
<time>2012-07-20T19:53:29Z</time>
<speed>4.580000</speed>
<extensions>
<speed>4.6</speed>
<temp>0.00</temp>
<bpm>0</bpm>
<rpm>0.00</rpm>
</extensions>
</trkpt>
<trkpt lat="64.067802429" lon="-20.054967880">
<ele>127.886719</ele>
<time>2012-07-20T19:53:34Z</time>
<speed>4.640000</speed>
<extensions>
<speed>4.6</speed>
<temp>0.00</temp>
<bpm>0</bpm>
<rpm>0.00</rpm>
</extensions>
</trkpt>
<trkpt lat="64.067878723" lon="-20.054523468">
<ele>126.199219</ele>
<time>2012-07-20T19:53:39Z</time>
<speed>4.660000</speed>
<extensions>
<speed>4.7</speed>
<temp>0.00</temp>
<bpm>0</bpm>
<rpm>0.00</rpm>
</extensions>
</trkpt>
<trkpt lat="64.067962646" lon="-20.054084778">
<ele>125.617188</ele>
<time>2012-07-20T19:53:44Z</time>
<speed>4.630000</speed>
<extensions>
<speed>4.6</speed>
<temp>0.00</temp>
<bpm>0</bpm>
<rpm>0.00</rpm>
</extensions>
</trkpt>
<trkpt lat="64.068038940" lon="-20.053667068">
<ele>124.425781</ele>
<time>2012-07-20T19:53:49Z</time>
<speed>4.450000</speed>
<extensions>
<speed>4.5</speed>
<temp>0.00</temp>
<bpm>0</bpm>
<rpm>0.00</rpm>
</extensions>
</trkpt>
<trkpt lat="64.068130493" lon="-20.053270340">
<ele>125.367188</ele>
<time>2012-07-20T19:53:54Z</time>
<speed>4.390000</speed>
<extensions>
<speed>4.4</speed>
<temp>0.00</temp>
<bpm>0</bpm>
<rpm>0.00</rpm>
</extensions>
</trkpt>
<trkpt lat="64.068222046" lon="-20.052875519">
<ele>125.441406</ele>
<time>2012-07-20T19:53:59Z</time>
<speed>4.450000</speed>
<extensions>
<speed>4.5</speed>
<temp>0.00</temp>
<bpm>0</bpm>
<rpm>0.00</rpm>
</extensions>
</trkpt>
<trkpt lat="64.068298340" lon="-20.052457809">
<ele>123.589844</ele>
<time>2012-07-20T19:54:04Z</time>
<speed>4.070000</speed>
<extensions>
<speed>4.1</speed>
<temp>0.00</temp>
<bpm>0</bpm>
<rpm>0.00</rpm>
</extensions>
</trkpt>
<trkpt lat="64.068382263" lon="-20.052074432">
<ele>121.771484</ele>
<time>2012-07-20T19:54:09Z</time>
<speed>3.830000</speed>
<extensions>
<speed>3.8</speed>
<temp>0.00</temp>
<bpm>0</bpm>
<rpm>0.00</rpm>
</extensions>
</trkpt>
<trkpt lat="64.068458557" lon="-20.051683426">
<ele>120.816406</ele>
<time>2012-07-20T19:54:14Z</time>
<speed>3.950000</speed>
<extensions>
<speed>4.0</speed>
<temp>0.00</temp>
<bpm>0</bpm>
<rpm>0.00</rpm>
</extensions>
</trkpt>
<trkpt lat="64.068542480" lon="-20.051334381">
<ele>122.476563</ele>
<time>2012-07-20T19:54:19Z</time>
<speed>4.210000</speed>
<extensions>
<speed>4.2</speed>
<temp>0.00</temp>
<bpm>0</bpm>
<rpm>0.00</rpm>
</extensions>
</trkpt>
<trkpt lat="64.068626404" lon="-20.050924301">
<ele>121.767578</ele>
<time>2012-07-20T19:54:24Z</time>
<speed>4.580000</speed>
<extensions>
<speed>4.6</speed>
<temp>0.00</temp>
<bpm>0</bpm>
<rpm>0.00</rpm>
</extensions>
</trkpt>
<trkpt lat="64.068733215" lon="-20.050477982">
<ele>123.292969</ele>
<time>2012-07-20T19:54:29Z</time>
<speed>4.940000</speed>
<extensions>
<speed>4.9</speed>
<temp>0.00</temp>
<bpm>0</bpm>
<rpm>0.00</rpm>
</extensions>
</trkpt>
<trkpt lat="64.068840027" lon="-20.050010681">
<ele>123.125000</ele>
<time>2012-07-20T19:54:34Z</time>
<speed>5.420000</speed>
<extensions>
<speed>5.4</speed>
<temp>0.00</temp>
<bpm>0</bpm>
<rpm>0.00</rpm>
</extensions>
</trkpt>
<trkpt lat="64.068962097" lon="-20.049503326">
<ele>123.205078</ele>
<time>2012-07-20T19:54:39Z</time>
<speed>5.810000</speed>
<extensions>
<speed>5.8</speed>
<temp>0.00</temp>
<bpm>0</bpm>
<rpm>0.00</rpm>
</extensions>
</trkpt>
<trkpt lat="64.069091797" lon="-20.048944473">
<ele>122.794922</ele>
<time>2012-07-20T19:54:44Z</time>
<speed>6.550000</speed>
<extensions>
<speed>6.5</speed>
<temp>0.00</temp>
<bpm>0</bpm>
<rpm>0.00</rpm>
</extensions>
</trkpt>
<trkpt lat="64.069206238" lon="-20.048339844">
<ele>124.529297</ele>
<time>2012-07-20T19:54:49Z</time>
<speed>6.610000</speed>
<extensions>
<speed>6.6</speed>
<temp>0.00</temp>
<bpm>0</bpm>
<rpm>0.00</rpm>
</extensions>
</trkpt>
<trkpt lat="64.069351196" lon="-20.047725677">
<ele>125.607422</ele>
<time>2012-07-20T19:54:54Z</time>
<speed>7.100000</speed>
<extensions>
<speed>7.1</speed>
<temp>0.00</temp>
<bpm>0</bpm>
<rpm>0.00</rpm>
</extensions>
</trkpt>
<trkpt lat="64.069488525" lon="-20.047105789">
<ele>126.369141</ele>
<time>2012-07-20T19:54:59Z</time>
<speed>6.500000</speed>
<extensions>
<speed>6.5</speed>
<temp>0.00</temp>
<bpm>0</bpm>
<rpm>0.00</rpm>
</extensions>
</trkpt>
<trkpt lat="64.069625854" lon="-20.046543121">
<ele>126.460938</ele>
<time>2012-07-20T19:55:04Z</time>
<speed>6.050000</speed>
<extensions>
<speed>6.1</speed>
<temp>0.00</temp>
<bpm>0</bpm>
<rpm>0.00</rpm>
</extensions>
</trkpt>
<trkpt lat="64.069755554" lon="-20.046009064">
<ele>126.867188</ele>
<time>2012-07-20T19:55:09Z</time>
<speed>6.060000</speed>
<extensions>
<speed>6.1</speed>
<temp>0.00</temp>
<bpm>0</bpm>
<rpm>0.00</rpm>
</extensions>
</trkpt>
<trkpt lat="64.069900513" lon="-20.045475006">
<ele>125.300781</ele>
<time>2012-07-20T19:55:14Z</time>
<speed>5.980000</speed>
<extensions>
<speed>6.0</speed>
<temp>0.00</temp>
<bpm>0</bpm>
<rpm>0.00</rpm>
</extensions>
</trkpt>
<trkpt lat="64.070022583" lon="-20.044956207">
<ele>125.750000</ele>
<time>2012-07-20T19:55:19Z</time>
<speed>5.830000</speed>
<extensions>
<speed>5.8</speed>
<temp>0.00</temp>
<bpm>0</bpm>
<rpm>0.00</rpm>
</extensions>
</trkpt>
<trkpt lat="64.070159912" lon="-20.044416428">
<ele>126.128906</ele>
<time>2012-07-20T19:55:24Z</time>
<speed>6.310000</speed>
<extensions>
<speed>6.3</speed>
<temp>0.00</temp>
<bpm>0</bpm>
<rpm>0.00</rpm>
</extensions>
</trkpt>
<trkpt lat="64.070312500" lon="-20.043817520">
<ele>126.255859</ele>
<time>2012-07-20T19:55:29Z</time>
<speed>7.030000</speed>
<extensions>
<speed>7.0</speed>
<temp>0.00</temp>
<bpm>0</bpm>
<rpm>0.00</rpm>
</extensions>
</trkpt>
<trkpt lat="64.070457458" lon="-20.043207169">
<ele>127.464844</ele>
<time>2012-07-20T19:55:34Z</time>
<speed>6.740000</speed>
<extensions>
<speed>6.7</speed>
<temp>0.00</temp>
<bpm>0</bpm>
<rpm>0.00</rpm>
</extensions>
</trkpt>
<trkpt lat="64.070602417" lon="-20.042625427">
<ele>126.767578</ele>
<time>2012-07-20T19:55:39Z</time>
<speed>6.230000</speed>
<extensions>
<speed>6.2</speed>
<temp>0.00</temp>
<bpm>0</bpm>
<rpm>0.00</rpm>
</extensions>
</trkpt>
<trkpt lat="64.070762634" lon="-20.042055130">
<ele>126.642578</ele>
<time>2012-07-20T19:55:44Z</time>
<speed>6.240000</speed>
<extensions>
<speed>6.2</speed>
<temp>0.00</temp>
<bpm>0</bpm>
<rpm>0.00</rpm>
</extensions>
</trkpt>
<trkpt lat="64.070922852" lon="-20.041498184">
<ele>126.181641</ele>
<time>2012-07-20T19:55:49Z</time>
<speed>6.550000</speed>
<extensions>
<speed>6.5</speed>
<temp>0.00</temp>
<bpm>0</bpm>
<rpm>0.00</rpm>
</extensions>
</trkpt>
<trkpt lat="64.071075439" lon="-20.040897369">
<ele>126.064453</ele>
<time>2012-07-20T19:55:54Z</time>
<speed>6.390000</speed>
<extensions>
<speed>6.4</speed>
<temp>0.00</temp>
<bpm>0</bpm>
<rpm>0.00</rpm>
</extensions>
</trkpt>
<trkpt lat="64.071197510" lon="-20.040369034">
<ele>127.519531</ele>
<time>2012-07-20T19:55:59Z</time>
<speed>6.200000</speed>
<extensions>
<speed>6.2</speed>
<temp>0.00</temp>
<bpm>0</bpm>
<rpm>0.00</rpm>
</extensions>
</trkpt>
<trkpt lat="64.071350098" lon="-20.039823532">
<ele>128.339844</ele>
<time>2012-07-20T19:56:04Z</time>
<speed>6.590000</speed>
<extensions>
<speed>6.6</speed>
<temp>0.00</temp>
<bpm>0</bpm>
<rpm>0.00</rpm>
</extensions>
</trkpt>
<trkpt lat="64.071502686" lon="-20.039247513">
<ele>128.312500</ele>
<time>2012-07-20T19:56:09Z</time>
<speed>6.320000</speed>
<extensions>
<speed>6.3</speed>
<temp>0.00</temp>
<bpm>0</bpm>
<rpm>0.00</rpm>
</extensions>
</trkpt>
<trkpt lat="64.071640015" lon="-20.038757324">
<ele>129.660156</ele>
<time>2012-07-20T19:56:14Z</time>
<speed>4.820000</speed>
<extensions>
<speed>4.8</speed>
<temp>0.00</temp>
<bpm>0</bpm>
<rpm>0.00</rpm>
</extensions>
</trkpt>
<trkpt lat="64.071762085" lon="-20.038322449">
<ele>129.851563</ele>
<time>2012-07-20T19:56:19Z</time>
<speed>5.280000</speed>
<extensions>
<speed>5.3</speed>
<temp>0.00</temp>
<bpm>0</bpm>
<rpm>0.00</rpm>
</extensions>
</trkpt>
<trkpt lat="64.071876526" lon="-20.037874222">
<ele>128.941406</ele>
<time>2012-07-20T19:56:24Z</time>
<speed>5.040000</speed>
<extensions>
<speed>5.0</speed>
<temp>0.00</temp>
<bpm>0</bpm>
<rpm>0.00</rpm>
</extensions>
</trkpt>
<trkpt lat="64.071998596" lon="-20.037477493">
<ele>128.984375</ele>
<time>2012-07-20T19:56:29Z</time>
<speed>4.210000</speed>
<extensions>
<speed>4.2</speed>
<temp>0.00</temp>
<bpm>0</bpm>
<rpm>0.00</rpm>
</extensions>
</trkpt>
<trkpt lat="64.072090149" lon="-20.037155151">
<ele>129.324219</ele>
<time>2012-07-20T19:56:34Z</time>
<speed>3.350000</speed>
<extensions>
<speed>3.4</speed>
<temp>0.00</temp>
<bpm>0</bpm>
<rpm>0.00</rpm>
</extensions>
</trkpt>
<trkpt lat="64.072174072" lon="-20.036855698">
<ele>129.574219</ele>
<time>2012-07-20T19:56:39Z</time>
<speed>4.180000</speed>
<extensions>
<speed>4.2</speed>
<temp>0.00</temp>
<bpm>0</bpm>
<rpm>0.00</rpm>
</extensions>
</trkpt>
<trkpt lat="64.072288513" lon="-20.036449432">
<ele>129.167969</ele>
<time>2012-07-20T19:56:44Z</time>
<speed>5.300000</speed>
<extensions>
<speed>5.3</speed>
<temp>0.00</temp>
<bpm>0</bpm>
<rpm>0.00</rpm>
</extensions>
</trkpt>
<trkpt lat="64.072402954" lon="-20.036005020">
<ele>130.156250</ele>
<time>2012-07-20T19:56:49Z</time>
<speed>4.680000</speed>
<extensions>
<speed>4.7</speed>
<temp>0.00</temp>
<bpm>0</bpm>
<rpm>0.00</rpm>
</extensions>
</trkpt>
<trkpt lat="64.072525024" lon="-20.035551071">
<ele>130.886719</ele>
<time>2012-07-20T19:56:54Z</time>
<speed>4.990000</speed>
<extensions>
<speed>5.0</speed>
<temp>0.00</temp>
<bpm>0</bpm>
<rpm>0.00</rpm>
</extensions>
</trkpt>
<trkpt lat="64.072654724" lon="-20.035108566">
<ele>131.457031</ele>
<time>2012-07-20T19:56:59Z</time>
<speed>4.900000</speed>
<extensions>
<speed>4.9</speed>
<temp>0.00</temp>
<bpm>0</bpm>
<rpm>0.00</rpm>
</extensions>
</trkpt>
<trkpt lat="64.072776794" lon="-20.034660339">
<ele>132.414063</ele>
<time>2012-07-20T19:57:04Z</time>
<speed>5.300000</speed>
<extensions>
<speed>5.3</speed>
<temp>0.00</temp>
<bpm>0</bpm>
<rpm>0.00</rpm>
</extensions>
</trkpt>
<trkpt lat="64.072898865" lon="-20.034204483">
<ele>132.976563</ele>
<time>2012-07-20T19:57:09Z</time>
<speed>5.120000</speed>
<extensions>
<speed>5.1</speed>
<temp>0.00</temp>
<bpm>0</bpm>
<rpm>0.00</rpm>
</extensions>
</trkpt>
<trkpt lat="64.073013306" lon="-20.033771515">
<ele>133.402344</ele>
<time>2012-07-20T19:57:14Z</time>
<speed>5.410000</speed>
<extensions>
<speed>5.4</speed>
<temp>0.00</temp>
<bpm>0</bpm>
<rpm>0.00</rpm>
</extensions>
</trkpt>
<trkpt lat="64.073135376" lon="-20.033275604">
<ele>133.554688</ele>
<time>2012-07-20T19:57:19Z</time>
<speed>5.480000</speed>
<extensions>
<speed>5.5</speed>
<temp>0.00</temp>
<bpm>0</bpm>
<rpm>0.00</rpm>
</extensions>
</trkpt>
<trkpt lat="64.073257446" lon="-20.032814026">
<ele>133.058594</ele>
<time>2012-07-20T19:57:24Z</time>
<speed>5.390000</speed>
<extensions>
<speed>5.4</speed>
<temp>0.00</temp>
<bpm>0</bpm>
<rpm>0.00</rpm>
</extensions>
</trkpt>
<trkpt lat="64.073402405" lon="-20.032325745">
<ele>133.375000</ele>
<time>2012-07-20T19:57:29Z</time>
<speed>5.590000</speed>
<extensions>
<speed>5.6</speed>
<temp>0.00</temp>
<bpm>0</bpm>
<rpm>0.00</rpm>
</extensions>
</trkpt>
<trkpt lat="64.073532104" lon="-20.031890869">
<ele>133.375000</ele>
<time>2012-07-20T19:57:34Z</time>
<speed>5.010000</speed>
<extensions>
<speed>5.0</speed>
<temp>0.00</temp>
<bpm>0</bpm>
<rpm>0.00</rpm>
</extensions>
</trkpt>
<trkpt lat="64.073654175" lon="-20.031406403">
<ele>132.710938</ele>
<time>2012-07-20T19:57:39Z</time>
<speed>6.030000</speed>
<extensions>
<speed>6.0</speed>
<temp>0.00</temp>
<bpm>0</bpm>
<rpm>0.00</rpm>
</extensions>
</trkpt>
<trkpt lat="64.073799133" lon="-20.030876160">
<ele>131.843750</ele>
<time>2012-07-20T19:57:44Z</time>
<speed>5.740000</speed>
<extensions>
<speed>5.7</speed>
<temp>0.00</temp>
<bpm>0</bpm>
<rpm>0.00</rpm>
</extensions>
</trkpt>
<trkpt lat="64.073921204" lon="-20.030382156">
<ele>131.144531</ele>
<time>2012-07-20T19:57:49Z</time>
<speed>5.350000</speed>
<extensions>
<speed>5.4</speed>
<temp>0.00</temp>
<bpm>0</bpm>
<rpm>0.00</rpm>
</extensions>
</trkpt>
<trkpt lat="64.074058533" lon="-20.029935837">
<ele>130.867188</ele>
<time>2012-07-20T19:57:54Z</time>
<speed>5.130000</speed>
<extensions>
<speed>5.1</speed>
<temp>0.00</temp>
<bpm>0</bpm>
<rpm>0.00</rpm>
</extensions>
</trkpt>
<trkpt lat="64.074195862" lon="-20.029499054">
<ele>129.929688</ele>
<time>2012-07-20T19:57:59Z</time>
<speed>5.620000</speed>
<extensions>
<speed>5.6</speed>
<temp>0.00</temp>
<bpm>0</bpm>
<rpm>0.00</rpm>
</extensions>
</trkpt>
<trkpt lat="64.074378967" lon="-20.028999329">
<ele>128.765625</ele>
<time>2012-07-20T19:58:04Z</time>
<speed>6.370000</speed>
<extensions>
<speed>6.4</speed>
<temp>0.00</temp>
<bpm>0</bpm>
<rpm>0.00</rpm>
</extensions>
</trkpt>
<trkpt lat="64.074569702" lon="-20.028526306">
<ele>128.773438</ele>
<time>2012-07-20T19:58:09Z</time>
<speed>6.270000</speed>
<extensions>
<speed>6.3</speed>
<temp>0.00</temp>
<bpm>0</bpm>
<rpm>0.00</rpm>
</extensions>
</trkpt>
<trkpt lat="64.074752808" lon="-20.028053284">
<ele>128.445313</ele>
<time>2012-07-20T19:58:14Z</time>
<speed>6.690000</speed>
<extensions>
<speed>6.7</speed>
<temp>0.00</temp>
<bpm>0</bpm>
<rpm>0.00</rpm>
</extensions>
</trkpt>
<trkpt lat="64.074981689" lon="-20.027559280">
<ele>128.433594</ele>
<time>2012-07-20T19:58:19Z</time>
<speed>7.080000</speed>
<extensions>
<speed>7.1</speed>
<temp>0.00</temp>
<bpm>0</bpm>
<rpm>0.00</rpm>
</extensions>
</trkpt>
<trkpt lat="64.075225830" lon="-20.027086258">
<ele>128.304688</ele>
<time>2012-07-20T19:58:24Z</time>
<speed>6.900000</speed>
<extensions>
<speed>6.9</speed>
<temp>0.00</temp>
<bpm>0</bpm>
<rpm>0.00</rpm>
</extensions>
</trkpt>
<trkpt lat="64.075447083" lon="-20.026622772">
<ele>128.097656</ele>
<time>2012-07-20T19:58:29Z</time>
<speed>6.670000</speed>
<extensions>
<speed>6.7</speed>
<temp>0.00</temp>
<bpm>0</bpm>
<rpm>0.00</rpm>
</extensions>
</trkpt>
<trkpt lat="64.075675964" lon="-20.026187897">
<ele>127.921875</ele>
<time>2012-07-20T19:58:34Z</time>
<speed>6.390000</speed>
<extensions>
<speed>6.4</speed>
<temp>0.00</temp>
<bpm>0</bpm>
<rpm>0.00</rpm>
</extensions>
</trkpt>
<trkpt lat="64.075927734" lon="-20.025939941">
<ele>127.943359</ele>
<time>2012-07-20T19:58:39Z</time>
<speed>5.830000</speed>
<extensions>
<speed>5.8</speed>
<temp>0.00</temp>
<bpm>0</bpm>
<rpm>0.00</rpm>
</extensions>
</trkpt>
<trkpt lat="64.076141357" lon="-20.026260376">
<ele>127.859375</ele>
<time>2012-07-20T19:58:44Z</time>
<speed>5.040000</speed>
<extensions>
<speed>5.0</speed>
<temp>0.00</temp>
<bpm>0</bpm>
<rpm>0.00</rpm>
</extensions>
</trkpt>
<trkpt lat="64.076324463" lon="-20.026365280">
<ele>128.648438</ele>
<time>2012-07-20T19:58:49Z</time>
<speed>3.770000</speed>
<extensions>
<speed>3.8</speed>
<temp>0.00</temp>
<bpm>0</bpm>
<rpm>0.00</rpm>
</extensions>
</trkpt>
<trkpt lat="64.076438904" lon="-20.026138306">
<ele>129.968750</ele>
<time>2012-07-20T19:58:54Z</time>
<speed>3.150000</speed>
<extensions>
<speed>3.2</speed>
<temp>0.00</temp>
<bpm>0</bpm>
<rpm>0.00</rpm>
</extensions>
</trkpt>
<trkpt lat="64.076530457" lon="-20.025936127">
<ele>130.937500</ele>
<time>2012-07-20T19:58:59Z</time>
<speed>2.810000</speed>
<extensions>
<speed>2.8</speed>
<temp>0.00</temp>
<bpm>0</bpm>
<rpm>0.00</rpm>
</extensions>
</trkpt>
<trkpt lat="64.076629639" lon="-20.025714874">
<ele>131.242188</ele>
<time>2012-07-20T19:59:04Z</time>
<speed>3.270000</speed>
<extensions>
<speed>3.3</speed>
<temp>0.00</temp>
<bpm>0</bpm>
<rpm>0.00</rpm>
</extensions>
</trkpt>
<trkpt lat="64.076736450" lon="-20.025478363">
<ele>131.746094</ele>
<time>2012-07-20T19:59:09Z</time>
<speed>3.290000</speed>
<extensions>
<speed>3.3</speed>
<temp>0.00</temp>
<bpm>0</bpm>
<rpm>0.00</rpm>
</extensions>
</trkpt>
<trkpt lat="64.076850891" lon="-20.025249481">
<ele>131.257813</ele>
<time>2012-07-20T19:59:14Z</time>
<speed>3.500000</speed>
<extensions>
<speed>3.5</speed>
<temp>0.00</temp>
<bpm>0</bpm>
<rpm>0.00</rpm>
</extensions>
</trkpt>
<trkpt lat="64.076972961" lon="-20.025009155">
<ele>132.316406</ele>
<time>2012-07-20T19:59:19Z</time>
<speed>3.450000</speed>
<extensions>
<speed>3.5</speed>
<temp>0.00</temp>
<bpm>0</bpm>
<rpm>0.00</rpm>
</extensions>
</trkpt>
<trkpt lat="64.077087402" lon="-20.024770737">
<ele>133.277344</ele>
<time>2012-07-20T19:59:24Z</time>
<speed>3.390000</speed>
<extensions>
<speed>3.4</speed>
<temp>0.00</temp>
<bpm>0</bpm>
<rpm>0.00</rpm>
</extensions>
</trkpt>
<trkpt lat="64.077186584" lon="-20.024562836">
<ele>134.125000</ele>
<time>2012-07-20T19:59:29Z</time>
<speed>2.700000</speed>
<extensions>
<speed>2.7</speed>
<temp>0.00</temp>
<bpm>0</bpm>
<rpm>0.00</rpm>
</extensions>
</trkpt>
<trkpt lat="64.077255249" lon="-20.024446487">
<ele>135.527344</ele>
<time>2012-07-20T19:59:34Z</time>
<speed>2.090000</speed>
<extensions>
<speed>2.1</speed>
<temp>0.00</temp>
<bpm>0</bpm>
<rpm>0.00</rpm>
</extensions>
</trkpt>
<trkpt lat="64.077308655" lon="-20.024303436">
<ele>135.496094</ele>
<time>2012-07-20T19:59:39Z</time>
<speed>2.160000</speed>
<extensions>
<speed>2.2</speed>
<temp>0.00</temp>
<bpm>0</bpm>
<rpm>0.00</rpm>
</extensions>
</trkpt>
<trkpt lat="64.077377319" lon="-20.024150848">
<ele>136.605469</ele>
<time>2012-07-20T19:59:44Z</time>
<speed>2.080000</speed>
<extensions>
<speed>2.1</speed>
<temp>0.00</temp>
<bpm>0</bpm>
<rpm>0.00</rpm>
</extensions>
</trkpt>
<trkpt lat="64.077445984" lon="-20.024007797">
<ele>138.480469</ele>
<time>2012-07-20T19:59:49Z</time>
<speed>2.160000</speed>
<extensions>
<speed>2.2</speed>
<temp>0.00</temp>
<bpm>0</bpm>
<rpm>0.00</rpm>
</extensions>
</trkpt>
<trkpt lat="64.077499390" lon="-20.023855209">
<ele>139.835938</ele>
<time>2012-07-20T19:59:54Z</time>
<speed>2.050000</speed>
<extensions>
<speed>2.1</speed>
<temp>0.00</temp>
<bpm>0</bpm>
<rpm>0.00</rpm>
</extensions>
</trkpt>
<trkpt lat="64.077560425" lon="-20.023683548">
<ele>141.105469</ele>
<time>2012-07-20T19:59:59Z</time>
<speed>2.010000</speed>
<extensions>
<speed>2.0</speed>
<temp>0.00</temp>
<bpm>0</bpm>
<rpm>0.00</rpm>
</extensions>
</trkpt>
<trkpt lat="64.077613831" lon="-20.023517609">
<ele>141.531250</ele>
<time>2012-07-20T20:00:04Z</time>
<speed>2.230000</speed>
<extensions>
<speed>2.2</speed>
<temp>0.00</temp>
<bpm>0</bpm>
<rpm>0.00</rpm>
</extensions>
</trkpt>
<trkpt lat="64.077674866" lon="-20.023389816">
<ele>141.828125</ele>
<time>2012-07-20T20:00:09Z</time>
<speed>1.910000</speed>
<extensions>
<speed>1.9</speed>
<temp>0.00</temp>
<bpm>0</bpm>
<rpm>0.00</rpm>
</extensions>
</trkpt>
<trkpt lat="64.077743530" lon="-20.023214340">
<ele>141.898438</ele>
<time>2012-07-20T20:00:14Z</time>
<speed>1.820000</speed>
<extensions>
<speed>1.8</speed>
<temp>0.00</temp>
<bpm>0</bpm>
<rpm>0.00</rpm>
</extensions>
</trkpt>
<trkpt lat="64.077789307" lon="-20.023113251">
<ele>142.644531</ele>
<time>2012-07-20T20:00:19Z</time>
<speed>1.710000</speed>
<extensions>
<speed>1.7</speed>
<temp>0.00</temp>
<bpm>0</bpm>
<rpm>0.00</rpm>
</extensions>
</trkpt>
<trkpt lat="64.077857971" lon="-20.022985458">
<ele>143.187500</ele>
<time>2012-07-20T20:00:24Z</time>
<speed>2.080000</speed>
<extensions>
<speed>2.1</speed>
<temp>0.00</temp>
<bpm>0</bpm>
<rpm>0.00</rpm>
</extensions>
</trkpt>
<trkpt lat="64.077934265" lon="-20.022859573">
<ele>143.738281</ele>
<time>2012-07-20T20:00:29Z</time>
<speed>2.080000</speed>
<extensions>
<speed>2.1</speed>
<temp>0.00</temp>
<bpm>0</bpm>
<rpm>0.00</rpm>
</extensions>
</trkpt>
<trkpt lat="64.078002930" lon="-20.022726059">
<ele>144.628906</ele>
<time>2012-07-20T20:00:34Z</time>
<speed>1.990000</speed>
<extensions>
<speed>2.0</speed>
<temp>0.00</temp>
<bpm>0</bpm>
<rpm>0.00</rpm>
</extensions>
</trkpt>
<trkpt lat="64.078086853" lon="-20.022617340">
<ele>144.812500</ele>
<time>2012-07-20T20:00:39Z</time>
<speed>0.230000</speed>
<extensions>
<speed>0.2</speed>
<temp>0.00</temp>
<bpm>0</bpm>
<rpm>0.00</rpm>
</extensions>
</trkpt>
<trkpt lat="64.078079224" lon="-20.022621155">
<ele>144.746094</ele>
<time>2012-07-20T20:00:44Z</time>
<speed>0.040000</speed>
<extensions>
<speed>0.0</speed>
<temp>0.00</temp>
<bpm>0</bpm>
<rpm>0.00</rpm>
</extensions>
</trkpt>
<trkpt lat="64.078102112" lon="-20.022584915">
<ele>144.519531</ele>
<time>2012-07-20T20:00:49Z</time>
<speed>1.360000</speed>
<extensions>
<speed>1.4</speed>
<temp>0.00</temp>
<bpm>0</bpm>
<rpm>0.00</rpm>
</extensions>
</trkpt>
<trkpt lat="64.078147888" lon="-20.022506714">
<ele>144.917969</ele>
<time>2012-07-20T20:00:54Z</time>
<speed>1.170000</speed>
<extensions>
<speed>1.2</speed>
<temp>0.00</temp>
<bpm>0</bpm>
<rpm>0.00</rpm>
</extensions>
</trkpt>
<trkpt lat="64.078201294" lon="-20.022434235">
<ele>145.093750</ele>
<time>2012-07-20T20:00:59Z</time>
<speed>1.260000</speed>
<extensions>
<speed>1.3</speed>
<temp>0.00</temp>
<bpm>0</bpm>
<rpm>0.00</rpm>
</extensions>
</trkpt>
<trkpt lat="64.078247070" lon="-20.022373199">
<ele>145.453125</ele>
<time>2012-07-20T20:01:04Z</time>
<speed>1.110000</speed>
<extensions>
<speed>1.1</speed>
<temp>0.00</temp>
<bpm>0</bpm>
<rpm>0.00</rpm>
</extensions>
</trkpt>
<trkpt lat="64.078285217" lon="-20.022308350">
<ele>146.609375</ele>
<time>2012-07-20T20:01:09Z</time>
<speed>1.200000</speed>
<extensions>
<speed>1.2</speed>
<temp>0.00</temp>
<bpm>0</bpm>
<rpm>0.00</rpm>
</extensions>
</trkpt>
<trkpt lat="64.078330994" lon="-20.022237778">
<ele>146.890625</ele>
<time>2012-07-20T20:01:14Z</time>
<speed>1.220000</speed>
<extensions>
<speed>1.2</speed>
<temp>0.00</temp>
<bpm>0</bpm>
<rpm>0.00</rpm>
</extensions>
</trkpt>
<trkpt lat="64.078376770" lon="-20.022172928">
<ele>148.378906</ele>
<time>2012-07-20T20:01:19Z</time>
<speed>1.100000</speed>
<extensions>
<speed>1.1</speed>
<temp>0.00</temp>
<bpm>0</bpm>
<rpm>0.00</rpm>
</extensions>
</trkpt>
<trkpt lat="64.078430176" lon="-20.022100449">
<ele>149.464844</ele>
<time>2012-07-20T20:01:24Z</time>
<speed>1.280000</speed>
<extensions>
<speed>1.3</speed>
<temp>0.00</temp>
<bpm>0</bpm>
<rpm>0.00</rpm>
</extensions>
</trkpt>
<trkpt lat="64.078468323" lon="-20.022016525">
<ele>149.648438</ele>
<time>2012-07-20T20:01:29Z</time>
<speed>1.170000</speed>
<extensions>
<speed>1.2</speed>
<temp>0.00</temp>
<bpm>0</bpm>
<rpm>0.00</rpm>
</extensions>
</trkpt>
<trkpt lat="64.078498840" lon="-20.021932602">
<ele>150.796875</ele>
<time>2012-07-20T20:01:34Z</time>
<speed>1.320000</speed>
<extensions>
<speed>1.3</speed>
<temp>0.00</temp>
<bpm>0</bpm>
<rpm>0.00</rpm>
</extensions>
</trkpt>
<trkpt lat="64.078536987" lon="-20.021850586">
<ele>150.898438</ele>
<time>2012-07-20T20:01:39Z</time>
<speed>1.220000</speed>
<extensions>
<speed>1.2</speed>
<temp>0.00</temp>
<bpm>0</bpm>
<rpm>0.00</rpm>
</extensions>
</trkpt>
<trkpt lat="64.078582764" lon="-20.021764755">
<ele>150.878906</ele>
<time>2012-07-20T20:01:44Z</time>
<speed>1.230000</speed>
<extensions>
<speed>1.2</speed>
<temp>0.00</temp>
<bpm>0</bpm>
<rpm>0.00</rpm>
</extensions>
</trkpt>
<trkpt lat="64.078613281" lon="-20.021677017">
<ele>150.949219</ele>
<time>2012-07-20T20:01:49Z</time>
<speed>1.140000</speed>
<extensions>
<speed>1.1</speed>
<temp>0.00</temp>
<bpm>0</bpm>
<rpm>0.00</rpm>
</extensions>
</trkpt>
<trkpt lat="64.078651428" lon="-20.021602631">
<ele>152.070313</ele>
<time>2012-07-20T20:01:54Z</time>
<speed>1.310000</speed>
<extensions>
<speed>1.3</speed>
<temp>0.00</temp>
<bpm>0</bpm>
<rpm>0.00</rpm>
</extensions>
</trkpt>
<trkpt lat="64.078697205" lon="-20.021499634">
<ele>152.253906</ele>
<time>2012-07-20T20:01:59Z</time>
<speed>1.340000</speed>
<extensions>
<speed>1.3</speed>
<temp>0.00</temp>
<bpm>0</bpm>
<rpm>0.00</rpm>
</extensions>
</trkpt>
<trkpt lat="64.078735352" lon="-20.021400452">
<ele>153.074219</ele>
<time>2012-07-20T20:02:04Z</time>
<speed>1.330000</speed>
<extensions>
<speed>1.3</speed>
<temp>0.00</temp>
<bpm>0</bpm>
<rpm>0.00</rpm>
</extensions>
</trkpt>
<trkpt lat="64.078788757" lon="-20.021295547">
<ele>153.781250</ele>
<time>2012-07-20T20:02:09Z</time>
<speed>1.340000</speed>
<extensions>
<speed>1.3</speed>
<temp>0.00</temp>
<bpm>0</bpm>
<rpm>0.00</rpm>
</extensions>
</trkpt>
<trkpt lat="64.078842163" lon="-20.021188736">
<ele>155.664063</ele>
<time>2012-07-20T20:02:14Z</time>
<speed>1.350000</speed>
<extensions>
<speed>1.4</speed>
<temp>0.00</temp>
<bpm>0</bpm>
<rpm>0.00</rpm>
</extensions>
</trkpt>
<trkpt lat="64.078880310" lon="-20.021093369">
<ele>156.433594</ele>
<time>2012-07-20T20:02:19Z</time>
<speed>1.370000</speed>
<extensions>
<speed>1.4</speed>
<temp>0.00</temp>
<bpm>0</bpm>
<rpm>0.00</rpm>
</extensions>
</trkpt>
<trkpt lat="64.078926086" lon="-20.021005630">
<ele>157.640625</ele>
<time>2012-07-20T20:02:24Z</time>
<speed>1.440000</speed>
<extensions>
<speed>1.4</speed>
<temp>0.00</temp>
<bpm>0</bpm>
<rpm>0.00</rpm>
</extensions>
</trkpt>
<trkpt lat="64.078971863" lon="-20.020908356">
<ele>158.816406</ele>
<time>2012-07-20T20:02:29Z</time>
<speed>1.400000</speed>
<extensions>
<speed>1.4</speed>
<temp>0.00</temp>
<bpm>0</bpm>
<rpm>0.00</rpm>
</extensions>
</trkpt>
<trkpt lat="64.078987122" lon="-20.020870209">
<ele>159.734375</ele>
<time>2012-07-20T20:02:34Z</time>
<speed>0.060000</speed>
<extensions>
<speed>0.1</speed>
<temp>0.00</temp>
<bpm>0</bpm>
<rpm>0.00</rpm>
</extensions>
</trkpt>
<trkpt lat="64.078979492" lon="-20.020868301">
<ele>159.859375</ele>
<time>2012-07-20T20:02:39Z</time>
<speed>0.040000</speed>
<extensions>
<speed>0.0</speed>
<temp>0.00</temp>
<bpm>0</bpm>
<rpm>0.00</rpm>
</extensions>
</trkpt>
<trkpt lat="64.078979492" lon="-20.020868301">
<ele>159.835938</ele>
<time>2012-07-20T20:02:44Z</time>
<speed>0.020000</speed>
<extensions>
<speed>0.0</speed>
<temp>0.00</temp>
<bpm>0</bpm>
<rpm>0.00</rpm>
</extensions>
</trkpt>
<trkpt lat="64.078979492" lon="-20.020870209">
<ele>159.820313</ele>
<time>2012-07-20T20:02:49Z</time>
<speed>0.020000</speed>
<extensions>
<speed>0.0</speed>
<temp>0.00</temp>
<bpm>0</bpm>
<rpm>0.00</rpm>
</extensions>
</trkpt>
<trkpt lat="64.078979492" lon="-20.020870209">
<ele>159.820313</ele>
<time>2012-07-20T20:02:54Z</time>
<extensions>
<speed>0.0</speed>
<temp>0.00</temp>
<bpm>0</bpm>
<rpm>0.00</rpm>
</extensions>
</trkpt>
<trkpt lat="64.078979492" lon="-20.020870209">
<ele>159.812500</ele>
<time>2012-07-20T20:02:59Z</time>
<extensions>
<speed>0.0</speed>
<temp>0.00</temp>
<bpm>0</bpm>
<rpm>0.00</rpm>
</extensions>
</trkpt>
<trkpt lat="64.078979492" lon="-20.020870209">
<ele>159.804688</ele>
<time>2012-07-20T20:03:04Z</time>
<extensions>
<speed>0.0</speed>
<temp>0.00</temp>
<bpm>0</bpm>
<rpm>0.00</rpm>
</extensions>
</trkpt>
<trkpt lat="64.078979492" lon="-20.020870209">
<ele>159.796875</ele>
<time>2012-07-20T20:03:09Z</time>
<speed>0.010000</speed>
<extensions>
<speed>0.0</speed>
<temp>0.00</temp>
<bpm>0</bpm>
<rpm>0.00</rpm>
</extensions>
</trkpt>
<trkpt lat="64.078994751" lon="-20.020851135">
<ele>159.925781</ele>
<time>2012-07-20T20:03:14Z</time>
<speed>1.180000</speed>
<extensions>
<speed>1.2</speed>
<temp>0.00</temp>
<bpm>0</bpm>
<rpm>0.00</rpm>
</extensions>
</trkpt>
<trkpt lat="64.079048157" lon="-20.020771027">
<ele>160.589844</ele>
<time>2012-07-20T20:03:19Z</time>
<speed>1.340000</speed>
<extensions>
<speed>1.3</speed>
<temp>0.00</temp>
<bpm>0</bpm>
<rpm>0.00</rpm>
</extensions>
</trkpt>
<trkpt lat="64.079093933" lon="-20.020679474">
<ele>161.023438</ele>
<time>2012-07-20T20:03:24Z</time>
<speed>1.310000</speed>
<extensions>
<speed>1.3</speed>
<temp>0.00</temp>
<bpm>0</bpm>
<rpm>0.00</rpm>
</extensions>
</trkpt>
<trkpt lat="64.079139709" lon="-20.020620346">
<ele>161.203125</ele>
<time>2012-07-20T20:03:29Z</time>
<speed>0.790000</speed>
<extensions>
<speed>0.8</speed>
<temp>0.00</temp>
<bpm>0</bpm>
<rpm>0.00</rpm>
</extensions>
</trkpt>
<trkpt lat="64.079177856" lon="-20.020549774">
<ele>161.390625</ele>
<time>2012-07-20T20:03:34Z</time>
<speed>1.370000</speed>
<extensions>
<speed>1.4</speed>
<temp>0.00</temp>
<bpm>0</bpm>
<rpm>0.00</rpm>
</extensions>
</trkpt>
<trkpt lat="64.079231262" lon="-20.020471573">
<ele>161.742188</ele>
<time>2012-07-20T20:03:39Z</time>
<speed>1.280000</speed>
<extensions>
<speed>1.3</speed>
<temp>0.00</temp>
<bpm>0</bpm>
<rpm>0.00</rpm>
</extensions>
</trkpt>
<trkpt lat="64.079292297" lon="-20.020408630">
<ele>162.519531</ele>
<time>2012-07-20T20:03:44Z</time>
<speed>1.210000</speed>
<extensions>
<speed>1.2</speed>
<temp>0.00</temp>
<bpm>0</bpm>
<rpm>0.00</rpm>
</extensions>
</trkpt>
<trkpt lat="64.079338074" lon="-20.020339966">
<ele>163.375000</ele>
<time>2012-07-20T20:03:49Z</time>
<speed>1.310000</speed>
<extensions>
<speed>1.3</speed>
<temp>0.00</temp>
<bpm>0</bpm>
<rpm>0.00</rpm>
</extensions>
</trkpt>
<trkpt lat="64.079383850" lon="-20.020273209">
<ele>164.132813</ele>
<time>2012-07-20T20:03:54Z</time>
<speed>1.090000</speed>
<extensions>
<speed>1.1</speed>
<temp>0.00</temp>
<bpm>0</bpm>
<rpm>0.00</rpm>
</extensions>
</trkpt>
<trkpt lat="64.079429626" lon="-20.020229340">
<ele>164.988281</ele>
<time>2012-07-20T20:03:59Z</time>
<speed>1.020000</speed>
<extensions>
<speed>1.0</speed>
<temp>0.00</temp>
<bpm>0</bpm>
<rpm>0.00</rpm>
</extensions>
</trkpt>
<trkpt lat="64.079475403" lon="-20.020170212">
<ele>165.621094</ele>
<time>2012-07-20T20:04:04Z</time>
<speed>1.000000</speed>
<extensions>
<speed>1.0</speed>
<temp>0.00</temp>
<bpm>0</bpm>
<rpm>0.00</rpm>
</extensions>
</trkpt>
<trkpt lat="64.079521179" lon="-20.020120621">
<ele>166.769531</ele>
<time>2012-07-20T20:04:09Z</time>
<speed>1.160000</speed>
<extensions>
<speed>1.2</speed>
<temp>0.00</temp>
<bpm>0</bpm>
<rpm>0.00</rpm>
</extensions>
</trkpt>
<trkpt lat="64.079566956" lon="-20.020061493">
<ele>168.214844</ele>
<time>2012-07-20T20:04:14Z</time>
<speed>1.040000</speed>
<extensions>
<speed>1.0</speed>
<temp>0.00</temp>
<bpm>0</bpm>
<rpm>0.00</rpm>
</extensions>
</trkpt>
<trkpt lat="64.079620361" lon="-20.019996643">
<ele>169.558594</ele>
<time>2012-07-20T20:04:19Z</time>
<speed>1.190000</speed>
<extensions>
<speed>1.2</speed>
<temp>0.00</temp>
<bpm>0</bpm>
<rpm>0.00</rpm>
</extensions>
</trkpt>
<trkpt lat="64.079650879" lon="-20.019948959">
<ele>171.554688</ele>
<time>2012-07-20T20:04:24Z</time>
<speed>0.970000</speed>
<extensions>
<speed>1.0</speed>
<temp>0.00</temp>
<bpm>0</bpm>
<rpm>0.00</rpm>
</extensions>
</trkpt>
<trkpt lat="64.079681396" lon="-20.019895554">
<ele>173.558594</ele>
<time>2012-07-20T20:04:29Z</time>
<speed>1.030000</speed>
<extensions>
<speed>1.0</speed>
<temp>0.00</temp>
<bpm>0</bpm>
<rpm>0.00</rpm>
</extensions>
</trkpt>
<trkpt lat="64.079704285" lon="-20.019836426">
<ele>175.308594</ele>
<time>2012-07-20T20:04:34Z</time>
<speed>0.140000</speed>
<extensions>
<speed>0.1</speed>
<temp>0.00</temp>
<bpm>0</bpm>
<rpm>0.00</rpm>
</extensions>
</trkpt>
<trkpt lat="64.079757690" lon="-20.019769669">
<ele>177.203125</ele>
<time>2012-07-20T20:04:39Z</time>
<speed>2.110000</speed>
<extensions>
<speed>2.1</speed>
<temp>0.00</temp>
<bpm>0</bpm>
<rpm>0.00</rpm>
</extensions>
</trkpt>
<trkpt lat="64.079856873" lon="-20.019613266">
<ele>179.253906</ele>
<time>2012-07-20T20:04:44Z</time>
<speed>2.310000</speed>
<extensions>
<speed>2.3</speed>
<temp>0.00</temp>
<bpm>0</bpm>
<rpm>0.00</rpm>
</extensions>
</trkpt>
<trkpt lat="64.079940796" lon="-20.019445419">
<ele>180.433594</ele>
<time>2012-07-20T20:04:49Z</time>
<speed>2.520000</speed>
<extensions>
<speed>2.5</speed>
<temp>0.00</temp>
<bpm>0</bpm>
<rpm>0.00</rpm>
</extensions>
</trkpt>
<trkpt lat="64.080039978" lon="-20.019254684">
<ele>182.660156</ele>
<time>2012-07-20T20:04:54Z</time>
<speed>3.460000</speed>
<extensions>
<speed>3.5</speed>
<temp>0.00</temp>
<bpm>0</bpm>
<rpm>0.00</rpm>
</extensions>
</trkpt>
<trkpt lat="64.080123901" lon="-20.019069672">
<ele>182.750000</ele>
<time>2012-07-20T20:04:59Z</time>
<speed>2.190000</speed>
<extensions>
<speed>2.2</speed>
<temp>0.00</temp>
<bpm>0</bpm>
<rpm>0.00</rpm>
</extensions>
</trkpt>
<trkpt lat="64.080215454" lon="-20.018899918">
<ele>183.742188</ele>
<time>2012-07-20T20:05:04Z</time>
<speed>3.200000</speed>
<extensions>
<speed>3.2</speed>
<temp>0.00</temp>
<bpm>0</bpm>
<rpm>0.00</rpm>
</extensions>
</trkpt>
<trkpt lat="64.080329895" lon="-20.018671036">
<ele>185.300781</ele>
<time>2012-07-20T20:05:09Z</time>
<speed>3.600000</speed>
<extensions>
<speed>3.6</speed>
<temp>0.00</temp>
<bpm>0</bpm>
<rpm>0.00</rpm>
</extensions>
</trkpt>
<trkpt lat="64.080436707" lon="-20.018510818">
<ele>185.566406</ele>
<time>2012-07-20T20:05:14Z</time>
<speed>2.910000</speed>
<extensions>
<speed>2.9</speed>
<temp>0.00</temp>
<bpm>0</bpm>
<rpm>0.00</rpm>
</extensions>
</trkpt>
<trkpt lat="64.080558777" lon="-20.018360138">
<ele>186.875000</ele>
<time>2012-07-20T20:05:19Z</time>
<speed>3.030000</speed>
<extensions>
<speed>3.0</speed>
<temp>0.00</temp>
<bpm>0</bpm>
<rpm>0.00</rpm>
</extensions>
</trkpt>
<trkpt lat="64.080680847" lon="-20.018213272">
<ele>186.375000</ele>
<time>2012-07-20T20:05:24Z</time>
<speed>2.930000</speed>
<extensions>
<speed>2.9</speed>
<temp>0.00</temp>
<bpm>0</bpm>
<rpm>0.00</rpm>
</extensions>
</trkpt>
<trkpt lat="64.080772400" lon="-20.018074036">
<ele>185.191406</ele>
<time>2012-07-20T20:05:29Z</time>
<speed>2.840000</speed>
<extensions>
<speed>2.8</speed>
<temp>0.00</temp>
<bpm>0</bpm>
<rpm>0.00</rpm>
</extensions>
</trkpt>
<trkpt lat="64.080841064" lon="-20.017934799">
<ele>184.414063</ele>
<time>2012-07-20T20:05:34Z</time>
<speed>1.560000</speed>
<extensions>
<speed>1.6</speed>
<temp>0.00</temp>
<bpm>0</bpm>
<rpm>0.00</rpm>
</extensions>
</trkpt>
<trkpt lat="64.080825806" lon="-20.017726898">
<ele>182.191406</ele>
<time>2012-07-20T20:05:39Z</time>
<speed>1.670000</speed>
<extensions>
<speed>1.7</speed>
<temp>0.00</temp>
<bpm>0</bpm>
<rpm>0.00</rpm>
</extensions>
</trkpt>
<trkpt lat="64.080818176" lon="-20.017656326">
<ele>180.425781</ele>
<time>2012-07-20T20:05:44Z</time>
<speed>0.120000</speed>
<extensions>
<speed>0.1</speed>
<temp>0.00</temp>
<bpm>0</bpm>
<rpm>0.00</rpm>
</extensions>
</trkpt>
<trkpt lat="64.080810547" lon="-20.017648697">
<ele>180.597656</ele>
<time>2012-07-20T20:05:49Z</time>
<speed>0.090000</speed>
<extensions>
<speed>0.1</speed>
<temp>0.00</temp>
<bpm>0</bpm>
<rpm>0.00</rpm>
</extensions>
</trkpt>
<trkpt lat="64.080810547" lon="-20.017648697">
<ele>180.667969</ele>
<time>2012-07-20T20:05:54Z</time>
<speed>0.010000</speed>
<extensions>
<speed>0.0</speed>
<temp>0.00</temp>
<bpm>0</bpm>
<rpm>0.00</rpm>
</extensions>
</trkpt>
<trkpt lat="64.080810547" lon="-20.017648697">
<ele>180.710938</ele>
<time>2012-07-20T20:05:59Z</time>
<extensions>
<speed>0.0</speed>
<temp>0.00</temp>
<bpm>0</bpm>
<rpm>0.00</rpm>
</extensions>
</trkpt>
<trkpt lat="64.080810547" lon="-20.017648697">
<ele>180.703125</ele>
<time>2012-07-20T20:06:04Z</time>
<extensions>
<speed>0.0</speed>
<temp>0.00</temp>
<bpm>0</bpm>
<rpm>0.00</rpm>
</extensions>
</trkpt>
<trkpt lat="64.080810547" lon="-20.017648697">
<ele>180.675781</ele>
<time>2012-07-20T20:06:09Z</time>
<extensions>
<speed>0.0</speed>
<temp>0.00</temp>
<bpm>0</bpm>
<rpm>0.00</rpm>
</extensions>
</trkpt>
<trkpt lat="64.080810547" lon="-20.017648697">
<ele>180.640625</ele>
<time>2012-07-20T20:06:14Z</time>
<speed>0.010000</speed>
<extensions>
<speed>0.0</speed>
<temp>0.00</temp>
<bpm>0</bpm>
<rpm>0.00</rpm>
</extensions>
</trkpt>
<trkpt lat="64.080810547" lon="-20.017648697">
<ele>180.613281</ele>
<time>2012-07-20T20:06:19Z</time>
<speed>0.040000</speed>
<extensions>
<speed>0.0</speed>
<temp>0.00</temp>
<bpm>0</bpm>
<rpm>0.00</rpm>
</extensions>
</trkpt>
<trkpt lat="64.080810547" lon="-20.017641068">
<ele>180.320313</ele>
<time>2012-07-20T20:06:24Z</time>
<speed>0.070000</speed>
<extensions>
<speed>0.1</speed>
<temp>0.00</temp>
<bpm>0</bpm>
<rpm>0.00</rpm>
</extensions>
</trkpt>
<trkpt lat="64.080810547" lon="-20.017635345">
<ele>180.386719</ele>
<time>2012-07-20T20:06:29Z</time>
<speed>0.030000</speed>
<extensions>
<speed>0.0</speed>
<temp>0.00</temp>
<bpm>0</bpm>
<rpm>0.00</rpm>
</extensions>
</trkpt>
<trkpt lat="64.080810547" lon="-20.017633438">
<ele>180.281250</ele>
<time>2012-07-20T20:06:34Z</time>
<speed>0.020000</speed>
<extensions>
<speed>0.0</speed>
<temp>0.00</temp>
<bpm>0</bpm>
<rpm>0.00</rpm>
</extensions>
</trkpt>
<trkpt lat="64.080810547" lon="-20.017637253">
<ele>180.066406</ele>
<time>2012-07-20T20:06:39Z</time>
<speed>0.020000</speed>
<extensions>
<speed>0.0</speed>
<temp>0.00</temp>
<bpm>0</bpm>
<rpm>0.00</rpm>
</extensions>
</trkpt>
<trkpt lat="64.080810547" lon="-20.017637253">
<ele>180.050781</ele>
<time>2012-07-20T20:06:44Z</time>
<extensions>
<speed>0.0</speed>
<temp>0.00</temp>
<bpm>0</bpm>
<rpm>0.00</rpm>
</extensions>
</trkpt>
<trkpt lat="64.080810547" lon="-20.017637253">
<ele>180.007813</ele>
<time>2012-07-20T20:06:49Z</time>
<extensions>
<speed>0.0</speed>
<temp>0.00</temp>
<bpm>0</bpm>
<rpm>0.00</rpm>
</extensions>
</trkpt>
<trkpt lat="64.080810547" lon="-20.017637253">
<ele>179.976563</ele>
<time>2012-07-20T20:06:54Z</time>
<speed>0.020000</speed>
<extensions>
<speed>0.0</speed>
<temp>0.00</temp>
<bpm>0</bpm>
<rpm>0.00</rpm>
</extensions>
</trkpt>
<trkpt lat="64.080810547" lon="-20.017637253">
<ele>179.937500</ele>
<time>2012-07-20T20:06:59Z</time>
<speed>0.010000</speed>
<extensions>
<speed>0.0</speed>
<temp>0.00</temp>
<bpm>0</bpm>
<rpm>0.00</rpm>
</extensions>
</trkpt>
<trkpt lat="64.080810547" lon="-20.017639160">
<ele>179.898438</ele>
<time>2012-07-20T20:07:04Z</time>
<speed>0.010000</speed>
<extensions>
<speed>0.0</speed>
<temp>0.00</temp>
<bpm>0</bpm>
<rpm>0.00</rpm>
</extensions>
</trkpt>
<trkpt lat="64.080810547" lon="-20.017639160">
<ele>179.867188</ele>
<time>2012-07-20T20:07:09Z</time>
<speed>0.010000</speed>
<extensions>
<speed>0.0</speed>
<temp>0.00</temp>
<bpm>0</bpm>
<rpm>0.00</rpm>
</extensions>
</trkpt>
<trkpt lat="64.080810547" lon="-20.017639160">
<ele>179.843750</ele>
<time>2012-07-20T20:07:14Z</time>
<speed>0.020000</speed>
<extensions>
<speed>0.0</speed>
<temp>0.00</temp>
<bpm>0</bpm>
<rpm>0.00</rpm>
</extensions>
</trkpt>
<trkpt lat="64.080810547" lon="-20.017639160">
<ele>179.824219</ele>
<time>2012-07-20T20:07:19Z</time>
<extensions>
<speed>0.0</speed>
<temp>0.00</temp>
<bpm>0</bpm>
<rpm>0.00</rpm>
</extensions>
</trkpt>
<trkpt lat="64.080810547" lon="-20.017639160">
<ele>179.800781</ele>
<time>2012-07-20T20:07:24Z</time>
<speed>0.010000</speed>
<extensions>
<speed>0.0</speed>
<temp>0.00</temp>
<bpm>0</bpm>
<rpm>0.00</rpm>
</extensions>
</trkpt>
<trkpt lat="64.080810547" lon="-20.017641068">
<ele>179.761719</ele>
<time>2012-07-20T20:07:29Z</time>
<speed>0.020000</speed>
<extensions>
<speed>0.0</speed>
<temp>0.00</temp>
<bpm>0</bpm>
<rpm>0.00</rpm>
</extensions>
</trkpt>
<trkpt lat="64.080810547" lon="-20.017641068">
<ele>179.734375</ele>
<time>2012-07-20T20:07:34Z</time>
<extensions>
<speed>0.0</speed>
<temp>0.00</temp>
<bpm>0</bpm>
<rpm>0.00</rpm>
</extensions>
</trkpt>
<trkpt lat="64.080810547" lon="-20.017641068">
<ele>179.695313</ele>
<time>2012-07-20T20:07:39Z</time>
<speed>0.010000</speed>
<extensions>
<speed>0.0</speed>
<temp>0.00</temp>
<bpm>0</bpm>
<rpm>0.00</rpm>
</extensions>
</trkpt>
<trkpt lat="64.080810547" lon="-20.017641068">
<ele>179.656250</ele>
<time>2012-07-20T20:07:44Z</time>
<speed>0.010000</speed>
<extensions>
<speed>0.0</speed>
<temp>0.00</temp>
<bpm>0</bpm>
<rpm>0.00</rpm>
</extensions>
</trkpt>
<trkpt lat="64.080810547" lon="-20.017641068">
<ele>179.617188</ele>
<time>2012-07-20T20:07:49Z</time>
<speed>0.010000</speed>
<extensions>
<speed>0.0</speed>
<temp>0.00</temp>
<bpm>0</bpm>
<rpm>0.00</rpm>
</extensions>
</trkpt>
<trkpt lat="64.080810547" lon="-20.017641068">
<ele>179.609375</ele>
<time>2012-07-20T20:07:54Z</time>
<speed>0.030000</speed>
<extensions>
<speed>0.0</speed>
<temp>0.00</temp>
<bpm>0</bpm>
<rpm>0.00</rpm>
</extensions>
</trkpt>
<trkpt lat="64.080810547" lon="-20.017639160">
<ele>179.597656</ele>
<time>2012-07-20T20:07:59Z</time>
<extensions>
<speed>0.0</speed>
<temp>0.00</temp>
<bpm>0</bpm>
<rpm>0.00</rpm>
</extensions>
</trkpt>
<trkpt lat="64.080810547" lon="-20.017639160">
<ele>179.562500</ele>
<time>2012-07-20T20:08:04Z</time>
<extensions>
<speed>0.0</speed>
<temp>0.00</temp>
<bpm>0</bpm>
<rpm>0.00</rpm>
</extensions>
</trkpt>
<trkpt lat="64.080810547" lon="-20.017639160">
<ele>179.562500</ele>
<time>2012-07-20T20:08:09Z</time>
<extensions>
<speed>0.0</speed>
<temp>0.00</temp>
<bpm>0</bpm>
<rpm>0.00</rpm>
</extensions>
</trkpt>
<trkpt lat="64.080810547" lon="-20.017639160">
<ele>179.550781</ele>
<time>2012-07-20T20:08:14Z</time>
<speed>0.010000</speed>
<extensions>
<speed>0.0</speed>
<temp>0.00</temp>
<bpm>0</bpm>
<rpm>0.00</rpm>
</extensions>
</trkpt>
<trkpt lat="64.080810547" lon="-20.017641068">
<ele>179.527344</ele>
<time>2012-07-20T20:08:19Z</time>
<extensions>
<speed>0.0</speed>
<temp>0.00</temp>
<bpm>0</bpm>
<rpm>0.00</rpm>
</extensions>
</trkpt>
<trkpt lat="64.080810547" lon="-20.017641068">
<ele>179.484375</ele>
<time>2012-07-20T20:08:24Z</time>
<speed>0.010000</speed>
<extensions>
<speed>0.0</speed>
<temp>0.00</temp>
<bpm>0</bpm>
<rpm>0.00</rpm>
</extensions>
</trkpt>
<trkpt lat="64.080810547" lon="-20.017641068">
<ele>179.468750</ele>
<time>2012-07-20T20:08:29Z</time>
<extensions>
<speed>0.0</speed>
<temp>0.00</temp>
<bpm>0</bpm>
<rpm>0.00</rpm>
</extensions>
</trkpt>
<trkpt lat="64.080810547" lon="-20.017641068">
<ele>179.433594</ele>
<time>2012-07-20T20:08:34Z</time>
<extensions>
<speed>0.0</speed>
<temp>0.00</temp>
<bpm>0</bpm>
<rpm>0.00</rpm>
</extensions>
</trkpt>
<trkpt lat="64.080810547" lon="-20.017641068">
<ele>179.371094</ele>
<time>2012-07-20T20:08:39Z</time>
<extensions>
<speed>0.0</speed>
<temp>0.00</temp>
<bpm>0</bpm>
<rpm>0.00</rpm>
</extensions>
</trkpt>
<trkpt lat="64.080810547" lon="-20.017642975">
<ele>179.324219</ele>
<time>2012-07-20T20:08:44Z</time>
<extensions>
<speed>0.0</speed>
<temp>0.00</temp>
<bpm>0</bpm>
<rpm>0.00</rpm>
</extensions>
</trkpt>
<trkpt lat="64.080810547" lon="-20.017642975">
<ele>179.300781</ele>
<time>2012-07-20T20:08:49Z</time>
<speed>0.020000</speed>
<extensions>
<speed>0.0</speed>
<temp>0.00</temp>
<bpm>0</bpm>
<rpm>0.00</rpm>
</extensions>
</trkpt>
<trkpt lat="64.080810547" lon="-20.017642975">
<ele>179.257813</ele>
<time>2012-07-20T20:08:54Z</time>
<speed>0.010000</speed>
<extensions>
<speed>0.0</speed>
<temp>0.00</temp>
<bpm>0</bpm>
<rpm>0.00</rpm>
</extensions>
</trkpt>
<trkpt lat="64.080810547" lon="-20.017644882">
<ele>179.234375</ele>
<time>2012-07-20T20:08:59Z</time>
<speed>0.010000</speed>
<extensions>
<speed>0.0</speed>
<temp>0.00</temp>
<bpm>0</bpm>
<rpm>0.00</rpm>
</extensions>
</trkpt>
<trkpt lat="64.080810547" lon="-20.017644882">
<ele>179.210938</ele>
<time>2012-07-20T20:09:04Z</time>
<speed>0.010000</speed>
<extensions>
<speed>0.0</speed>
<temp>0.00</temp>
<bpm>0</bpm>
<rpm>0.00</rpm>
</extensions>
</trkpt>
<trkpt lat="64.080810547" lon="-20.017644882">
<ele>179.203125</ele>
<time>2012-07-20T20:09:09Z</time>
<speed>0.030000</speed>
<extensions>
<speed>0.0</speed>
<temp>0.00</temp>
<bpm>0</bpm>
<rpm>0.00</rpm>
</extensions>
</trkpt>
<trkpt lat="64.080810547" lon="-20.017646790">
<ele>179.203125</ele>
<time>2012-07-20T20:09:14Z</time>
<speed>0.010000</speed>
<extensions>
<speed>0.0</speed>
<temp>0.00</temp>
<bpm>0</bpm>
<rpm>0.00</rpm>
</extensions>
</trkpt>
<trkpt lat="64.080810547" lon="-20.017646790">
<ele>179.164063</ele>
<time>2012-07-20T20:09:19Z</time>
<extensions>
<speed>0.0</speed>
<temp>0.00</temp>
<bpm>0</bpm>
<rpm>0.00</rpm>
</extensions>
</trkpt>
<trkpt lat="64.080810547" lon="-20.017646790">
<ele>179.148438</ele>
<time>2012-07-20T20:09:24Z</time>
<speed>0.010000</speed>
<extensions>
<speed>0.0</speed>
<temp>0.00</temp>
<bpm>0</bpm>
<rpm>0.00</rpm>
</extensions>
</trkpt>
<trkpt lat="64.080810547" lon="-20.017646790">
<ele>179.109375</ele>
<time>2012-07-20T20:09:29Z</time>
<extensions>
<speed>0.0</speed>
<temp>0.00</temp>
<bpm>0</bpm>
<rpm>0.00</rpm>
</extensions>
</trkpt>
<trkpt lat="64.080810547" lon="-20.017644882">
<ele>179.066406</ele>
<time>2012-07-20T20:09:34Z</time>
<speed>0.010000</speed>
<extensions>
<speed>0.0</speed>
<temp>0.00</temp>
<bpm>0</bpm>
<rpm>0.00</rpm>
</extensions>
</trkpt>
<trkpt lat="64.080810547" lon="-20.017644882">
<ele>179.023438</ele>
<time>2012-07-20T20:09:39Z</time>
<extensions>
<speed>0.0</speed>
<temp>0.00</temp>
<bpm>0</bpm>
<rpm>0.00</rpm>
</extensions>
</trkpt>
<trkpt lat="64.080810547" lon="-20.017646790">
<ele>179.003906</ele>
<time>2012-07-20T20:09:44Z</time>
<speed>0.010000</speed>
<extensions>
<speed>0.0</speed>
<temp>0.00</temp>
<bpm>0</bpm>
<rpm>0.00</rpm>
</extensions>
</trkpt>
<trkpt lat="64.080810547" lon="-20.017646790">
<ele>178.972656</ele>
<time>2012-07-20T20:09:49Z</time>
<speed>0.010000</speed>
<extensions>
<speed>0.0</speed>
<temp>0.00</temp>
<bpm>0</bpm>
<rpm>0.00</rpm>
</extensions>
</trkpt>
<trkpt lat="64.080810547" lon="-20.017648697">
<ele>178.953125</ele>
<time>2012-07-20T20:09:54Z</time>
<speed>0.010000</speed>
<extensions>
<speed>0.0</speed>
<temp>0.00</temp>
<bpm>0</bpm>
<rpm>0.00</rpm>
</extensions>
</trkpt>
<trkpt lat="64.080810547" lon="-20.017648697">
<ele>178.921875</ele>
<time>2012-07-20T20:09:59Z</time>
<speed>0.020000</speed>
<extensions>
<speed>0.0</speed>
<temp>0.00</temp>
<bpm>0</bpm>
<rpm>0.00</rpm>
</extensions>
</trkpt>
<trkpt lat="64.080810547" lon="-20.017648697">
<ele>178.886719</ele>
<time>2012-07-20T20:10:04Z</time>
<extensions>
<speed>0.0</speed>
<temp>0.00</temp>
<bpm>0</bpm>
<rpm>0.00</rpm>
</extensions>
</trkpt>
<trkpt lat="64.080810547" lon="-20.017648697">
<ele>178.867188</ele>
<time>2012-07-20T20:10:09Z</time>
<speed>0.020000</speed>
<extensions>
<speed>0.0</speed>
<temp>0.00</temp>
<bpm>0</bpm>
<rpm>0.00</rpm>
</extensions>
</trkpt>
<trkpt lat="64.080810547" lon="-20.017650604">
<ele>178.824219</ele>
<time>2012-07-20T20:10:14Z</time>
<speed>0.020000</speed>
<extensions>
<speed>0.0</speed>
<temp>0.00</temp>
<bpm>0</bpm>
<rpm>0.00</rpm>
</extensions>
</trkpt>
<trkpt lat="64.080810547" lon="-20.017650604">
<ele>178.808594</ele>
<time>2012-07-20T20:10:19Z</time>
<speed>0.010000</speed>
<extensions>
<speed>0.0</speed>
<temp>0.00</temp>
<bpm>0</bpm>
<rpm>0.00</rpm>
</extensions>
</trkpt>
<trkpt lat="64.080810547" lon="-20.017650604">
<ele>178.777344</ele>
<time>2012-07-20T20:10:24Z</time>
<speed>0.010000</speed>
<extensions>
<speed>0.0</speed>
<temp>0.00</temp>
<bpm>0</bpm>
<rpm>0.00</rpm>
</extensions>
</trkpt>
<trkpt lat="64.080810547" lon="-20.017650604">
<ele>178.750000</ele>
<time>2012-07-20T20:10:29Z</time>
<speed>0.010000</speed>
<extensions>
<speed>0.0</speed>
<temp>0.00</temp>
<bpm>0</bpm>
<rpm>0.00</rpm>
</extensions>
</trkpt>
<trkpt lat="64.080810547" lon="-20.017652512">
<ele>178.722656</ele>
<time>2012-07-20T20:10:34Z</time>
<speed>0.010000</speed>
<extensions>
<speed>0.0</speed>
<temp>0.00</temp>
<bpm>0</bpm>
<rpm>0.00</rpm>
</extensions>
</trkpt>
<trkpt lat="64.080810547" lon="-20.017652512">
<ele>178.679688</ele>
<time>2012-07-20T20:10:39Z</time>
<speed>0.010000</speed>
<extensions>
<speed>0.0</speed>
<temp>0.00</temp>
<bpm>0</bpm>
<rpm>0.00</rpm>
</extensions>
</trkpt>
<trkpt lat="64.080810547" lon="-20.017652512">
<ele>178.652344</ele>
<time>2012-07-20T20:10:44Z</time>
<extensions>
<speed>0.0</speed>
<temp>0.00</temp>
<bpm>0</bpm>
<rpm>0.00</rpm>
</extensions>
</trkpt>
<trkpt lat="64.080810547" lon="-20.017652512">
<ele>178.621094</ele>
<time>2012-07-20T20:10:49Z</time>
<extensions>
<speed>0.0</speed>
<temp>0.00</temp>
<bpm>0</bpm>
<rpm>0.00</rpm>
</extensions>
</trkpt>
<trkpt lat="64.080810547" lon="-20.017652512">
<ele>178.589844</ele>
<time>2012-07-20T20:10:54Z</time>
<extensions>
<speed>0.0</speed>
<temp>0.00</temp>
<bpm>0</bpm>
<rpm>0.00</rpm>
</extensions>
</trkpt>
<trkpt lat="64.080810547" lon="-20.017652512">
<ele>178.562500</ele>
<time>2012-07-20T20:10:59Z</time>
<extensions>
<speed>0.0</speed>
<temp>0.00</temp>
<bpm>0</bpm>
<rpm>0.00</rpm>
</extensions>
</trkpt>
<trkpt lat="64.080810547" lon="-20.017654419">
<ele>178.546875</ele>
<time>2012-07-20T20:11:04Z</time>
<speed>0.020000</speed>
<extensions>
<speed>0.0</speed>
<temp>0.00</temp>
<bpm>0</bpm>
<rpm>0.00</rpm>
</extensions>
</trkpt>
<trkpt lat="64.080810547" lon="-20.017654419">
<ele>178.535156</ele>
<time>2012-07-20T20:11:09Z</time>
<extensions>
<speed>0.0</speed>
<temp>0.00</temp>
<bpm>0</bpm>
<rpm>0.00</rpm>
</extensions>
</trkpt>
<trkpt lat="64.080810547" lon="-20.017654419">
<ele>178.519531</ele>
<time>2012-07-20T20:11:14Z</time>
<extensions>
<speed>0.0</speed>
<temp>0.00</temp>
<bpm>0</bpm>
<rpm>0.00</rpm>
</extensions>
</trkpt>
<trkpt lat="64.080810547" lon="-20.017654419">
<ele>178.500000</ele>
<time>2012-07-20T20:11:19Z</time>
<extensions>
<speed>0.0</speed>
<temp>0.00</temp>
<bpm>0</bpm>
<rpm>0.00</rpm>
</extensions>
</trkpt>
<trkpt lat="64.080810547" lon="-20.017654419">
<ele>178.488281</ele>
<time>2012-07-20T20:11:24Z</time>
<extensions>
<speed>0.0</speed>
<temp>0.00</temp>
<bpm>0</bpm>
<rpm>0.00</rpm>
</extensions>
</trkpt>
<trkpt lat="64.080810547" lon="-20.017654419">
<ele>178.453125</ele>
<time>2012-07-20T20:11:29Z</time>
<extensions>
<speed>0.0</speed>
<temp>0.00</temp>
<bpm>0</bpm>
<rpm>0.00</rpm>
</extensions>
</trkpt>
<trkpt lat="64.080810547" lon="-20.017654419">
<ele>178.421875</ele>
<time>2012-07-20T20:11:34Z</time>
<speed>0.010000</speed>
<extensions>
<speed>0.0</speed>
<temp>0.00</temp>
<bpm>0</bpm>
<rpm>0.00</rpm>
</extensions>
</trkpt>
<trkpt lat="64.080810547" lon="-20.017654419">
<ele>178.382813</ele>
<time>2012-07-20T20:11:39Z</time>
<extensions>
<speed>0.0</speed>
<temp>0.00</temp>
<bpm>0</bpm>
<rpm>0.00</rpm>
</extensions>
</trkpt>
<trkpt lat="64.080810547" lon="-20.017654419">
<ele>178.351563</ele>
<time>2012-07-20T20:11:44Z</time>
<extensions>
<speed>0.0</speed>
<temp>0.00</temp>
<bpm>0</bpm>
<rpm>0.00</rpm>
</extensions>
</trkpt>
<trkpt lat="64.080810547" lon="-20.017654419">
<ele>178.320313</ele>
<time>2012-07-20T20:11:49Z</time>
<speed>0.010000</speed>
<extensions>
<speed>0.0</speed>
<temp>0.00</temp>
<bpm>0</bpm>
<rpm>0.00</rpm>
</extensions>
</trkpt>
<trkpt lat="64.080810547" lon="-20.017654419">
<ele>178.296875</ele>
<time>2012-07-20T20:11:54Z</time>
<extensions>
<speed>0.0</speed>
<temp>0.00</temp>
<bpm>0</bpm>
<rpm>0.00</rpm>
</extensions>
</trkpt>
<trkpt lat="64.080810547" lon="-20.017654419">
<ele>178.273438</ele>
<time>2012-07-20T20:11:59Z</time>
<extensions>
<speed>0.0</speed>
<temp>0.00</temp>
<bpm>0</bpm>
<rpm>0.00</rpm>
</extensions>
</trkpt>
<trkpt lat="64.080810547" lon="-20.017654419">
<ele>178.257813</ele>
<time>2012-07-20T20:12:04Z</time>
<speed>0.010000</speed>
<extensions>
<speed>0.0</speed>
<temp>0.00</temp>
<bpm>0</bpm>
<rpm>0.00</rpm>
</extensions>
</trkpt>
<trkpt lat="64.080810547" lon="-20.017656326">
<ele>178.242188</ele>
<time>2012-07-20T20:12:09Z</time>
<extensions>
<speed>0.0</speed>
<temp>0.00</temp>
<bpm>0</bpm>
<rpm>0.00</rpm>
</extensions>
</trkpt>
<trkpt lat="64.080810547" lon="-20.017656326">
<ele>178.230469</ele>
<time>2012-07-20T20:12:14Z</time>
<extensions>
<speed>0.0</speed>
<temp>0.00</temp>
<bpm>0</bpm>
<rpm>0.00</rpm>
</extensions>
</trkpt>
<trkpt lat="64.080810547" lon="-20.017656326">
<ele>178.222656</ele>
<time>2012-07-20T20:12:19Z</time>
<extensions>
<speed>0.0</speed>
<temp>0.00</temp>
<bpm>0</bpm>
<rpm>0.00</rpm>
</extensions>
</trkpt>
<trkpt lat="64.080810547" lon="-20.017656326">
<ele>178.207031</ele>
<time>2012-07-20T20:12:24Z</time>
<extensions>
<speed>0.0</speed>
<temp>0.00</temp>
<bpm>0</bpm>
<rpm>0.00</rpm>
</extensions>
</trkpt>
<trkpt lat="64.080810547" lon="-20.017656326">
<ele>178.175781</ele>
<time>2012-07-20T20:12:29Z</time>
<extensions>
<speed>0.0</speed>
<temp>0.00</temp>
<bpm>0</bpm>
<rpm>0.00</rpm>
</extensions>
</trkpt>
<trkpt lat="64.080810547" lon="-20.017656326">
<ele>178.148438</ele>
<time>2012-07-20T20:12:34Z</time>
<speed>0.010000</speed>
<extensions>
<speed>0.0</speed>
<temp>0.00</temp>
<bpm>0</bpm>
<rpm>0.00</rpm>
</extensions>
</trkpt>
<trkpt lat="64.080810547" lon="-20.017656326">
<ele>178.121094</ele>
<time>2012-07-20T20:12:39Z</time>
<speed>0.010000</speed>
<extensions>
<speed>0.0</speed>
<temp>0.00</temp>
<bpm>0</bpm>
<rpm>0.00</rpm>
</extensions>
</trkpt>
<trkpt lat="64.080810547" lon="-20.017656326">
<ele>178.093750</ele>
<time>2012-07-20T20:12:44Z</time>
<speed>0.010000</speed>
<extensions>
<speed>0.0</speed>
<temp>0.00</temp>
<bpm>0</bpm>
<rpm>0.00</rpm>
</extensions>
</trkpt>
<trkpt lat="64.080810547" lon="-20.017656326">
<ele>178.066406</ele>
<time>2012-07-20T20:12:49Z</time>
<speed>0.010000</speed>
<extensions>
<speed>0.0</speed>
<temp>0.00</temp>
<bpm>0</bpm>
<rpm>0.00</rpm>
</extensions>
</trkpt>
<trkpt lat="64.080810547" lon="-20.017658234">
<ele>178.042969</ele>
<time>2012-07-20T20:12:54Z</time>
<speed>0.010000</speed>
<extensions>
<speed>0.0</speed>
<temp>0.00</temp>
<bpm>0</bpm>
<rpm>0.00</rpm>
</extensions>
</trkpt>
<trkpt lat="64.080810547" lon="-20.017658234">
<ele>178.039063</ele>
<time>2012-07-20T20:12:59Z</time>
<extensions>
<speed>0.0</speed>
<temp>0.00</temp>
<bpm>0</bpm>
<rpm>0.00</rpm>
</extensions>
</trkpt>
<trkpt lat="64.080810547" lon="-20.017658234">
<ele>178.023438</ele>
<time>2012-07-20T20:13:04Z</time>
<speed>0.010000</speed>
<extensions>
<speed>0.0</speed>
<temp>0.00</temp>
<bpm>0</bpm>
<rpm>0.00</rpm>
</extensions>
</trkpt>
<trkpt lat="64.080810547" lon="-20.017658234">
<ele>178.007813</ele>
<time>2012-07-20T20:13:09Z</time>
<speed>0.020000</speed>
<extensions>
<speed>0.0</speed>
<temp>0.00</temp>
<bpm>0</bpm>
<rpm>0.00</rpm>
</extensions>
</trkpt>
<trkpt lat="64.080810547" lon="-20.017660141">
<ele>177.976563</ele>
<time>2012-07-20T20:13:14Z</time>
<speed>0.010000</speed>
<extensions>
<speed>0.0</speed>
<temp>0.00</temp>
<bpm>0</bpm>
<rpm>0.00</rpm>
</extensions>
</trkpt>
<trkpt lat="64.080810547" lon="-20.017660141">
<ele>177.960938</ele>
<time>2012-07-20T20:13:19Z</time>
<speed>0.020000</speed>
<extensions>
<speed>0.0</speed>
<temp>0.00</temp>
<bpm>0</bpm>
<rpm>0.00</rpm>
</extensions>
</trkpt>
<trkpt lat="64.080810547" lon="-20.017660141">
<ele>177.957031</ele>
<time>2012-07-20T20:13:24Z</time>
<speed>0.030000</speed>
<extensions>
<speed>0.0</speed>
<temp>0.00</temp>
<bpm>0</bpm>
<rpm>0.00</rpm>
</extensions>
</trkpt>
<trkpt lat="64.080810547" lon="-20.017660141">
<ele>177.929688</ele>
<time>2012-07-20T20:13:29Z</time>
<extensions>
<speed>0.0</speed>
<temp>0.00</temp>
<bpm>0</bpm>
<rpm>0.00</rpm>
</extensions>
</trkpt>
<trkpt lat="64.080810547" lon="-20.017660141">
<ele>177.906250</ele>
<time>2012-07-20T20:13:34Z</time>
<extensions>
<speed>0.0</speed>
<temp>0.00</temp>
<bpm>0</bpm>
<rpm>0.00</rpm>
</extensions>
</trkpt>
<trkpt lat="64.080810547" lon="-20.017660141">
<ele>177.859375</ele>
<time>2012-07-20T20:13:39Z</time>
<speed>0.020000</speed>
<extensions>
<speed>0.0</speed>
<temp>0.00</temp>
<bpm>0</bpm>
<rpm>0.00</rpm>
</extensions>
</trkpt>
<trkpt lat="64.080810547" lon="-20.017660141">
<ele>177.828125</ele>
<time>2012-07-20T20:13:44Z</time>
<extensions>
<speed>0.0</speed>
<temp>0.00</temp>
<bpm>0</bpm>
<rpm>0.00</rpm>
</extensions>
</trkpt>
<trkpt lat="64.080810547" lon="-20.017660141">
<ele>177.808594</ele>
<time>2012-07-20T20:13:49Z</time>
<speed>0.020000</speed>
<extensions>
<speed>0.0</speed>
<temp>0.00</temp>
<bpm>0</bpm>
<rpm>0.00</rpm>
</extensions>
</trkpt>
<trkpt lat="64.080810547" lon="-20.017660141">
<ele>177.800781</ele>
<time>2012-07-20T20:13:54Z</time>
<speed>0.010000</speed>
<extensions>
<speed>0.0</speed>
<temp>0.00</temp>
<bpm>0</bpm>
<rpm>0.00</rpm>
</extensions>
</trkpt>
<trkpt lat="64.080810547" lon="-20.017660141">
<ele>177.765625</ele>
<time>2012-07-20T20:13:59Z</time>
<speed>0.010000</speed>
<extensions>
<speed>0.0</speed>
<temp>0.00</temp>
<bpm>0</bpm>
<rpm>0.00</rpm>
</extensions>
</trkpt>
<trkpt lat="64.080810547" lon="-20.017658234">
<ele>177.750000</ele>
<time>2012-07-20T20:14:04Z</time>
<speed>0.020000</speed>
<extensions>
<speed>0.0</speed>
<temp>0.00</temp>
<bpm>0</bpm>
<rpm>0.00</rpm>
</extensions>
</trkpt>
<trkpt lat="64.080810547" lon="-20.017658234">
<ele>177.746094</ele>
<time>2012-07-20T20:14:09Z</time>
<speed>0.020000</speed>
<extensions>
<speed>0.0</speed>
<temp>0.00</temp>
<bpm>0</bpm>
<rpm>0.00</rpm>
</extensions>
</trkpt>
<trkpt lat="64.080810547" lon="-20.017658234">
<ele>177.750000</ele>
<time>2012-07-20T20:14:14Z</time>
<extensions>
<speed>0.0</speed>
<temp>0.00</temp>
<bpm>0</bpm>
<rpm>0.00</rpm>
</extensions>
</trkpt>
<trkpt lat="64.080810547" lon="-20.017658234">
<ele>177.734375</ele>
<time>2012-07-20T20:14:19Z</time>
<extensions>
<speed>0.0</speed>
<temp>0.00</temp>
<bpm>0</bpm>
<rpm>0.00</rpm>
</extensions>
</trkpt>
<trkpt lat="64.080810547" lon="-20.017658234">
<ele>177.718750</ele>
<time>2012-07-20T20:14:24Z</time>
<speed>0.010000</speed>
<extensions>
<speed>0.0</speed>
<temp>0.00</temp>
<bpm>0</bpm>
<rpm>0.00</rpm>
</extensions>
</trkpt>
<trkpt lat="64.080810547" lon="-20.017658234">
<ele>177.707031</ele>
<time>2012-07-20T20:14:29Z</time>
<speed>0.010000</speed>
<extensions>
<speed>0.0</speed>
<temp>0.00</temp>
<bpm>0</bpm>
<rpm>0.00</rpm>
</extensions>
</trkpt>
<trkpt lat="64.080810547" lon="-20.017658234">
<ele>177.664063</ele>
<time>2012-07-20T20:14:34Z</time>
<speed>0.010000</speed>
<extensions>
<speed>0.0</speed>
<temp>0.00</temp>
<bpm>0</bpm>
<rpm>0.00</rpm>
</extensions>
</trkpt>
<trkpt lat="64.080810547" lon="-20.017656326">
<ele>177.609375</ele>
<time>2012-07-20T20:14:39Z</time>
<speed>0.030000</speed>
<extensions>
<speed>0.0</speed>
<temp>0.00</temp>
<bpm>0</bpm>
<rpm>0.00</rpm>
</extensions>
</trkpt>
<trkpt lat="64.080810547" lon="-20.017656326">
<ele>177.578125</ele>
<time>2012-07-20T20:14:44Z</time>
<speed>0.010000</speed>
<extensions>
<speed>0.0</speed>
<temp>0.00</temp>
<bpm>0</bpm>
<rpm>0.00</rpm>
</extensions>
</trkpt>
<trkpt lat="64.080810547" lon="-20.017656326">
<ele>177.566406</ele>
<time>2012-07-20T20:14:49Z</time>
<speed>0.010000</speed>
<extensions>
<speed>0.0</speed>
<temp>0.00</temp>
<bpm>0</bpm>
<rpm>0.00</rpm>
</extensions>
</trkpt>
<trkpt lat="64.080810547" lon="-20.017656326">
<ele>177.550781</ele>
<time>2012-07-20T20:14:54Z</time>
<speed>0.020000</speed>
<extensions>
<speed>0.0</speed>
<temp>0.00</temp>
<bpm>0</bpm>
<rpm>0.00</rpm>
</extensions>
</trkpt>
<trkpt lat="64.080810547" lon="-20.017656326">
<ele>177.539063</ele>
<time>2012-07-20T20:14:59Z</time>
<speed>0.020000</speed>
<extensions>
<speed>0.0</speed>
<temp>0.00</temp>
<bpm>0</bpm>
<rpm>0.00</rpm>
</extensions>
</trkpt>
<trkpt lat="64.080810547" lon="-20.017656326">
<ele>177.546875</ele>
<time>2012-07-20T20:15:04Z</time>
<speed>0.020000</speed>
<extensions>
<speed>0.0</speed>
<temp>0.00</temp>
<bpm>0</bpm>
<rpm>0.00</rpm>
</extensions>
</trkpt>
<trkpt lat="64.080810547" lon="-20.017656326">
<ele>177.546875</ele>
<time>2012-07-20T20:15:09Z</time>
<extensions>
<speed>0.0</speed>
<temp>0.00</temp>
<bpm>0</bpm>
<rpm>0.00</rpm>
</extensions>
</trkpt>
<trkpt lat="64.080810547" lon="-20.017656326">
<ele>177.542969</ele>
<time>2012-07-20T20:15:14Z</time>
<speed>0.020000</speed>
<extensions>
<speed>0.0</speed>
<temp>0.00</temp>
<bpm>0</bpm>
<rpm>0.00</rpm>
</extensions>
</trkpt>
<trkpt lat="64.080810547" lon="-20.017654419">
<ele>177.531250</ele>
<time>2012-07-20T20:15:19Z</time>
<speed>0.010000</speed>
<extensions>
<speed>0.0</speed>
<temp>0.00</temp>
<bpm>0</bpm>
<rpm>0.00</rpm>
</extensions>
</trkpt>
<trkpt lat="64.080810547" lon="-20.017654419">
<ele>177.531250</ele>
<time>2012-07-20T20:15:24Z</time>
<extensions>
<speed>0.0</speed>
<temp>0.00</temp>
<bpm>0</bpm>
<rpm>0.00</rpm>
</extensions>
</trkpt>
<trkpt lat="64.080810547" lon="-20.017654419">
<ele>177.476563</ele>
<time>2012-07-20T20:15:29Z</time>
<speed>0.030000</speed>
<extensions>
<speed>0.0</speed>
<temp>0.00</temp>
<bpm>0</bpm>
<rpm>0.00</rpm>
</extensions>
</trkpt>
<trkpt lat="64.080810547" lon="-20.017646790">
<ele>177.394531</ele>
<time>2012-07-20T20:15:34Z</time>
<speed>1.520000</speed>
<extensions>
<speed>1.5</speed>
<temp>0.00</temp>
<bpm>0</bpm>
<rpm>0.00</rpm>
</extensions>
</trkpt>
<trkpt lat="64.080825806" lon="-20.017662048">
<ele>176.191406</ele>
<time>2012-07-20T20:15:39Z</time>
<speed>0.080000</speed>
<extensions>
<speed>0.1</speed>
<temp>0.00</temp>
<bpm>0</bpm>
<rpm>0.00</rpm>
</extensions>
</trkpt>
<trkpt lat="64.080848694" lon="-20.017755508">
<ele>175.375000</ele>
<time>2012-07-20T20:15:44Z</time>
<speed>1.910000</speed>
<extensions>
<speed>1.9</speed>
<temp>0.00</temp>
<bpm>0</bpm>
<rpm>0.00</rpm>
</extensions>
</trkpt>
<trkpt lat="64.080947876" lon="-20.017782211">
<ele>175.839844</ele>
<time>2012-07-20T20:15:49Z</time>
<speed>2.710000</speed>
<extensions>
<speed>2.7</speed>
<temp>0.00</temp>
<bpm>0</bpm>
<rpm>0.00</rpm>
</extensions>
</trkpt>
<trkpt lat="64.081069946" lon="-20.017692566">
<ele>175.527344</ele>
<time>2012-07-20T20:15:54Z</time>
<speed>2.950000</speed>
<extensions>
<speed>2.9</speed>
<temp>0.00</temp>
<bpm>0</bpm>
<rpm>0.00</rpm>
</extensions>
</trkpt>
<trkpt lat="64.081192017" lon="-20.017595291">
<ele>175.890625</ele>
<time>2012-07-20T20:15:59Z</time>
<speed>2.950000</speed>
<extensions>
<speed>2.9</speed>
<temp>0.00</temp>
<bpm>0</bpm>
<rpm>0.00</rpm>
</extensions>
</trkpt>
<trkpt lat="64.081321716" lon="-20.017393112">
<ele>175.281250</ele>
<time>2012-07-20T20:16:04Z</time>
<speed>3.440000</speed>
<extensions>
<speed>3.4</speed>
<temp>0.00</temp>
<bpm>0</bpm>
<rpm>0.00</rpm>
</extensions>
</trkpt>
<trkpt lat="64.081436157" lon="-20.017116547">
<ele>174.398438</ele>
<time>2012-07-20T20:16:09Z</time>
<speed>3.470000</speed>
<extensions>
<speed>3.5</speed>
<temp>0.00</temp>
<bpm>0</bpm>
<rpm>0.00</rpm>
</extensions>
</trkpt>
<trkpt lat="64.081558228" lon="-20.016828537">
<ele>173.906250</ele>
<time>2012-07-20T20:16:14Z</time>
<speed>3.890000</speed>
<extensions>
<speed>3.9</speed>
<temp>0.00</temp>
<bpm>0</bpm>
<rpm>0.00</rpm>
</extensions>
</trkpt>
<trkpt lat="64.081665039" lon="-20.016571045">
<ele>173.222656</ele>
<time>2012-07-20T20:16:19Z</time>
<speed>3.670000</speed>
<extensions>
<speed>3.7</speed>
<temp>0.00</temp>
<bpm>0</bpm>
<rpm>0.00</rpm>
</extensions>
</trkpt>
<trkpt lat="64.081779480" lon="-20.016330719">
<ele>172.460938</ele>
<time>2012-07-20T20:16:24Z</time>
<speed>4.020000</speed>
<extensions>
<speed>4.0</speed>
<temp>0.00</temp>
<bpm>0</bpm>
<rpm>0.00</rpm>
</extensions>
</trkpt>
<trkpt lat="64.081924438" lon="-20.016021729">
<ele>172.441406</ele>
<time>2012-07-20T20:16:29Z</time>
<speed>4.550000</speed>
<extensions>
<speed>4.5</speed>
<temp>0.00</temp>
<bpm>0</bpm>
<rpm>0.00</rpm>
</extensions>
</trkpt>
<trkpt lat="64.082084656" lon="-20.015710831">
<ele>171.699219</ele>
<time>2012-07-20T20:16:34Z</time>
<speed>4.380000</speed>
<extensions>
<speed>4.4</speed>
<temp>0.00</temp>
<bpm>0</bpm>
<rpm>0.00</rpm>
</extensions>
</trkpt>
<trkpt lat="64.082229614" lon="-20.015411377">
<ele>170.714844</ele>
<time>2012-07-20T20:16:39Z</time>
<speed>4.100000</speed>
<extensions>
<speed>4.1</speed>
<temp>0.00</temp>
<bpm>0</bpm>
<rpm>0.00</rpm>
</extensions>
</trkpt>
<trkpt lat="64.082382202" lon="-20.015129089">
<ele>169.289063</ele>
<time>2012-07-20T20:16:44Z</time>
<speed>4.300000</speed>
<extensions>
<speed>4.3</speed>
<temp>0.00</temp>
<bpm>0</bpm>
<rpm>0.00</rpm>
</extensions>
</trkpt>
<trkpt lat="64.082557678" lon="-20.014804840">
<ele>170.035156</ele>
<time>2012-07-20T20:16:49Z</time>
<speed>6.070000</speed>
<extensions>
<speed>6.1</speed>
<temp>0.00</temp>
<bpm>0</bpm>
<rpm>0.00</rpm>
</extensions>
</trkpt>
<trkpt lat="64.082763672" lon="-20.014402390">
<ele>168.121094</ele>
<time>2012-07-20T20:16:54Z</time>
<speed>6.400000</speed>
<extensions>
<speed>6.4</speed>
<temp>0.00</temp>
<bpm>0</bpm>
<rpm>0.00</rpm>
</extensions>
</trkpt>
<trkpt lat="64.082984924" lon="-20.013940811">
<ele>165.617188</ele>
<time>2012-07-20T20:16:59Z</time>
<speed>6.240000</speed>
<extensions>
<speed>6.2</speed>
<temp>0.00</temp>
<bpm>0</bpm>
<rpm>0.00</rpm>
</extensions>
</trkpt>
<trkpt lat="64.083244324" lon="-20.013433456">
<ele>158.347656</ele>
<time>2012-07-20T20:17:04Z</time>
<speed>8.280000</speed>
<extensions>
<speed>8.3</speed>
<temp>0.00</temp>
<bpm>0</bpm>
<rpm>0.00</rpm>
</extensions>
</trkpt>
<trkpt lat="64.083534241" lon="-20.012865067">
<ele>152.929688</ele>
<time>2012-07-20T20:17:09Z</time>
<speed>8.890000</speed>
<extensions>
<speed>8.9</speed>
<temp>0.00</temp>
<bpm>0</bpm>
<rpm>0.00</rpm>
</extensions>
</trkpt>
<trkpt lat="64.083824158" lon="-20.012186050">
<ele>148.859375</ele>
<time>2012-07-20T20:17:14Z</time>
<speed>8.750000</speed>
<extensions>
<speed>8.8</speed>
<temp>0.00</temp>
<bpm>0</bpm>
<rpm>0.00</rpm>
</extensions>
</trkpt>
<trkpt lat="64.084030151" lon="-20.011598587">
<ele>146.355469</ele>
<time>2012-07-20T20:17:19Z</time>
<speed>6.520000</speed>
<extensions>
<speed>6.5</speed>
<temp>0.00</temp>
<bpm>0</bpm>
<rpm>0.00</rpm>
</extensions>
</trkpt>
<trkpt lat="64.084228516" lon="-20.011026382">
<ele>143.007813</ele>
<time>2012-07-20T20:17:24Z</time>
<speed>7.120000</speed>
<extensions>
<speed>7.1</speed>
<temp>0.00</temp>
<bpm>0</bpm>
<rpm>0.00</rpm>
</extensions>
</trkpt>
<trkpt lat="64.084472656" lon="-20.010471344">
<ele>138.109375</ele>
<time>2012-07-20T20:17:29Z</time>
<speed>8.650000</speed>
<extensions>
<speed>8.6</speed>
<temp>0.00</temp>
<bpm>0</bpm>
<rpm>0.00</rpm>
</extensions>
</trkpt>
<trkpt lat="64.084793091" lon="-20.009983063">
<ele>132.769531</ele>
<time>2012-07-20T20:17:34Z</time>
<speed>8.310000</speed>
<extensions>
<speed>8.3</speed>
<temp>0.00</temp>
<bpm>0</bpm>
<rpm>0.00</rpm>
</extensions>
</trkpt>
<trkpt lat="64.085113525" lon="-20.009679794">
<ele>129.921875</ele>
<time>2012-07-20T20:17:39Z</time>
<speed>6.240000</speed>
<extensions>
<speed>6.2</speed>
<temp>0.00</temp>
<bpm>0</bpm>
<rpm>0.00</rpm>
</extensions>
</trkpt>
<trkpt lat="64.085281372" lon="-20.009315491">
<ele>132.449219</ele>
<time>2012-07-20T20:17:44Z</time>
<speed>5.520000</speed>
<extensions>
<speed>5.5</speed>
<temp>0.00</temp>
<bpm>0</bpm>
<rpm>0.00</rpm>
</extensions>
</trkpt>
<trkpt lat="64.085266113" lon="-20.008640289">
<ele>130.656250</ele>
<time>2012-07-20T20:17:49Z</time>
<speed>5.990000</speed>
<extensions>
<speed>6.0</speed>
<temp>0.00</temp>
<bpm>0</bpm>
<rpm>0.00</rpm>
</extensions>
</trkpt>
<trkpt lat="64.085273743" lon="-20.008108139">
<ele>132.019531</ele>
<time>2012-07-20T20:17:54Z</time>
<speed>3.710000</speed>
<extensions>
<speed>3.7</speed>
<temp>0.00</temp>
<bpm>0</bpm>
<rpm>0.00</rpm>
</extensions>
</trkpt>
<trkpt lat="64.085403442" lon="-20.007881165">
<ele>130.460938</ele>
<time>2012-07-20T20:17:59Z</time>
<speed>4.150000</speed>
<extensions>
<speed>4.1</speed>
<temp>0.00</temp>
<bpm>0</bpm>
<rpm>0.00</rpm>
</extensions>
</trkpt>
<trkpt lat="64.085563660" lon="-20.007749557">
<ele>129.097656</ele>
<time>2012-07-20T20:18:04Z</time>
<speed>3.250000</speed>
<extensions>
<speed>3.2</speed>
<temp>0.00</temp>
<bpm>0</bpm>
<rpm>0.00</rpm>
</extensions>
</trkpt>
<trkpt lat="64.085731506" lon="-20.007581711">
<ele>130.406250</ele>
<time>2012-07-20T20:18:09Z</time>
<speed>3.530000</speed>
<extensions>
<speed>3.5</speed>
<temp>0.00</temp>
<bpm>0</bpm>
<rpm>0.00</rpm>
</extensions>
</trkpt>
<trkpt lat="64.085884094" lon="-20.007415771">
<ele>130.632813</ele>
<time>2012-07-20T20:18:14Z</time>
<speed>4.650000</speed>
<extensions>
<speed>4.6</speed>
<temp>0.00</temp>
<bpm>0</bpm>
<rpm>0.00</rpm>
</extensions>
</trkpt>
<trkpt lat="64.086082458" lon="-20.007236481">
<ele>131.929688</ele>
<time>2012-07-20T20:18:19Z</time>
<speed>4.060000</speed>
<extensions>
<speed>4.1</speed>
<temp>0.00</temp>
<bpm>0</bpm>
<rpm>0.00</rpm>
</extensions>
</trkpt>
<trkpt lat="64.086273193" lon="-20.007043839">
<ele>132.058594</ele>
<time>2012-07-20T20:18:24Z</time>
<speed>4.380000</speed>
<extensions>
<speed>4.4</speed>
<temp>0.00</temp>
<bpm>0</bpm>
<rpm>0.00</rpm>
</extensions>
</trkpt>
<trkpt lat="64.086425781" lon="-20.006875992">
<ele>129.378906</ele>
<time>2012-07-20T20:18:29Z</time>
<speed>4.310000</speed>
<extensions>
<speed>4.3</speed>
<temp>0.00</temp>
<bpm>0</bpm>
<rpm>0.00</rpm>
</extensions>
</trkpt>
<trkpt lat="64.086601257" lon="-20.006660461">
<ele>128.031250</ele>
<time>2012-07-20T20:18:34Z</time>
<speed>4.120000</speed>
<extensions>
<speed>4.1</speed>
<temp>0.00</temp>
<bpm>0</bpm>
<rpm>0.00</rpm>
</extensions>
</trkpt>
<trkpt lat="64.086761475" lon="-20.006477356">
<ele>128.515625</ele>
<time>2012-07-20T20:18:39Z</time>
<speed>3.720000</speed>
<extensions>
<speed>3.7</speed>
<temp>0.00</temp>
<bpm>0</bpm>
<rpm>0.00</rpm>
</extensions>
</trkpt>
<trkpt lat="64.086921692" lon="-20.006277084">
<ele>128.855469</ele>
<time>2012-07-20T20:18:44Z</time>
<speed>3.850000</speed>
<extensions>
<speed>3.8</speed>
<temp>0.00</temp>
<bpm>0</bpm>
<rpm>0.00</rpm>
</extensions>
</trkpt>
<trkpt lat="64.087097168" lon="-20.006019592">
<ele>127.294922</ele>
<time>2012-07-20T20:18:49Z</time>
<speed>4.280000</speed>
<extensions>
<speed>4.3</speed>
<temp>0.00</temp>
<bpm>0</bpm>
<rpm>0.00</rpm>
</extensions>
</trkpt>
<trkpt lat="64.087280273" lon="-20.005794525">
<ele>127.388672</ele>
<time>2012-07-20T20:18:54Z</time>
<speed>4.570000</speed>
<extensions>
<speed>4.6</speed>
<temp>0.00</temp>
<bpm>0</bpm>
<rpm>0.00</rpm>
</extensions>
</trkpt>
<trkpt lat="64.087463379" lon="-20.005512238">
<ele>127.212891</ele>
<time>2012-07-20T20:18:59Z</time>
<speed>5.050000</speed>
<extensions>
<speed>5.1</speed>
<temp>0.00</temp>
<bpm>0</bpm>
<rpm>0.00</rpm>
</extensions>
</trkpt>
<trkpt lat="64.087669373" lon="-20.005203247">
<ele>125.326172</ele>
<time>2012-07-20T20:19:04Z</time>
<speed>5.210000</speed>
<extensions>
<speed>5.2</speed>
<temp>0.00</temp>
<bpm>0</bpm>
<rpm>0.00</rpm>
</extensions>
</trkpt>
<trkpt lat="64.087860107" lon="-20.004926682">
<ele>124.980469</ele>
<time>2012-07-20T20:19:09Z</time>
<speed>4.710000</speed>
<extensions>
<speed>4.7</speed>
<temp>0.00</temp>
<bpm>0</bpm>
<rpm>0.00</rpm>
</extensions>
</trkpt>
<trkpt lat="64.088058472" lon="-20.004623413">
<ele>125.117188</ele>
<time>2012-07-20T20:19:14Z</time>
<speed>4.930000</speed>
<extensions>
<speed>4.9</speed>
<temp>0.00</temp>
<bpm>0</bpm>
<rpm>0.00</rpm>
</extensions>
</trkpt>
<trkpt lat="64.088241577" lon="-20.004306793">
<ele>125.460938</ele>
<time>2012-07-20T20:19:19Z</time>
<speed>5.840000</speed>
<extensions>
<speed>5.8</speed>
<temp>0.00</temp>
<bpm>0</bpm>
<rpm>0.00</rpm>
</extensions>
</trkpt>
<trkpt lat="64.088409424" lon="-20.003969193">
<ele>124.310547</ele>
<time>2012-07-20T20:19:24Z</time>
<speed>4.960000</speed>
<extensions>
<speed>5.0</speed>
<temp>0.00</temp>
<bpm>0</bpm>
<rpm>0.00</rpm>
</extensions>
</trkpt>
<trkpt lat="64.088562012" lon="-20.003671646">
<ele>124.044922</ele>
<time>2012-07-20T20:19:29Z</time>
<speed>5.020000</speed>
<extensions>
<speed>5.0</speed>
<temp>0.00</temp>
<bpm>0</bpm>
<rpm>0.00</rpm>
</extensions>
</trkpt>
<trkpt lat="64.088729858" lon="-20.003324509">
<ele>123.283203</ele>
<time>2012-07-20T20:19:34Z</time>
<speed>5.580000</speed>
<extensions>
<speed>5.6</speed>
<temp>0.00</temp>
<bpm>0</bpm>
<rpm>0.00</rpm>
</extensions>
</trkpt>
<trkpt lat="64.088905334" lon="-20.002964020">
<ele>122.115234</ele>
<time>2012-07-20T20:19:39Z</time>
<speed>5.090000</speed>
<extensions>
<speed>5.1</speed>
<temp>0.00</temp>
<bpm>0</bpm>
<rpm>0.00</rpm>
</extensions>
</trkpt>
<trkpt lat="64.089088440" lon="-20.002595901">
<ele>121.240234</ele>
<time>2012-07-20T20:19:44Z</time>
<speed>5.670000</speed>
<extensions>
<speed>5.7</speed>
<temp>0.00</temp>
<bpm>0</bpm>
<rpm>0.00</rpm>
</extensions>
</trkpt>
<trkpt lat="64.089271545" lon="-20.002193451">
<ele>121.195313</ele>
<time>2012-07-20T20:19:49Z</time>
<speed>5.320000</speed>
<extensions>
<speed>5.3</speed>
<temp>0.00</temp>
<bpm>0</bpm>
<rpm>0.00</rpm>
</extensions>
</trkpt>
<trkpt lat="64.089447021" lon="-20.001844406">
<ele>125.490234</ele>
<time>2012-07-20T20:19:54Z</time>
<speed>4.790000</speed>
<extensions>
<speed>4.8</speed>
<temp>0.00</temp>
<bpm>0</bpm>
<rpm>0.00</rpm>
</extensions>
</trkpt>
<trkpt lat="64.089614868" lon="-20.001413345">
<ele>126.941406</ele>
<time>2012-07-20T20:19:59Z</time>
<speed>5.930000</speed>
<extensions>
<speed>5.9</speed>
<temp>0.00</temp>
<bpm>0</bpm>
<rpm>0.00</rpm>
</extensions>
</trkpt>
<trkpt lat="64.089790344" lon="-20.000980377">
<ele>127.126953</ele>
<time>2012-07-20T20:20:04Z</time>
<speed>5.450000</speed>
<extensions>
<speed>5.5</speed>
<temp>0.00</temp>
<bpm>0</bpm>
<rpm>0.00</rpm>
</extensions>
</trkpt>
<trkpt lat="64.089950562" lon="-20.000530243">
<ele>125.671875</ele>
<time>2012-07-20T20:20:09Z</time>
<speed>6.140000</speed>
<extensions>
<speed>6.1</speed>
<temp>0.00</temp>
<bpm>0</bpm>
<rpm>0.00</rpm>
</extensions>
</trkpt>
<trkpt lat="64.090118408" lon="-20.000099182">
<ele>125.046875</ele>
<time>2012-07-20T20:20:14Z</time>
<speed>5.270000</speed>
<extensions>
<speed>5.3</speed>
<temp>0.00</temp>
<bpm>0</bpm>
<rpm>0.00</rpm>
</extensions>
</trkpt>
<trkpt lat="64.090286255" lon="-19.999645233">
<ele>125.746094</ele>
<time>2012-07-20T20:20:19Z</time>
<speed>6.080000</speed>
<extensions>
<speed>6.1</speed>
<temp>0.00</temp>
<bpm>0</bpm>
<rpm>0.00</rpm>
</extensions>
</trkpt>
<trkpt lat="64.090461731" lon="-19.999143600">
<ele>126.039063</ele>
<time>2012-07-20T20:20:24Z</time>
<speed>6.170000</speed>
<extensions>
<speed>6.2</speed>
<temp>0.00</temp>
<bpm>0</bpm>
<rpm>0.00</rpm>
</extensions>
</trkpt>
<trkpt lat="64.090621948" lon="-19.998653412">
<ele>126.691406</ele>
<time>2012-07-20T20:20:29Z</time>
<speed>5.830000</speed>
<extensions>
<speed>5.8</speed>
<temp>0.00</temp>
<bpm>0</bpm>
<rpm>0.00</rpm>
</extensions>
</trkpt>
<trkpt lat="64.090789795" lon="-19.998182297">
<ele>127.306641</ele>
<time>2012-07-20T20:20:34Z</time>
<speed>5.890000</speed>
<extensions>
<speed>5.9</speed>
<temp>0.00</temp>
<bpm>0</bpm>
<rpm>0.00</rpm>
</extensions>
</trkpt>
<trkpt lat="64.090965271" lon="-19.997720718">
<ele>129.523438</ele>
<time>2012-07-20T20:20:39Z</time>
<speed>5.940000</speed>
<extensions>
<speed>5.9</speed>
<temp>0.00</temp>
<bpm>0</bpm>
<rpm>0.00</rpm>
</extensions>
</trkpt>
<trkpt lat="64.091125488" lon="-19.997224808">
<ele>130.550781</ele>
<time>2012-07-20T20:20:44Z</time>
<speed>5.890000</speed>
<extensions>
<speed>5.9</speed>
<temp>0.00</temp>
<bpm>0</bpm>
<rpm>0.00</rpm>
</extensions>
</trkpt>
<trkpt lat="64.091262817" lon="-19.996776581">
<ele>131.503906</ele>
<time>2012-07-20T20:20:49Z</time>
<speed>4.910000</speed>
<extensions>
<speed>4.9</speed>
<temp>0.00</temp>
<bpm>0</bpm>
<rpm>0.00</rpm>
</extensions>
</trkpt>
<trkpt lat="64.091400146" lon="-19.996389389">
<ele>131.066406</ele>
<time>2012-07-20T20:20:54Z</time>
<speed>4.840000</speed>
<extensions>
<speed>4.8</speed>
<temp>0.00</temp>
<bpm>0</bpm>
<rpm>0.00</rpm>
</extensions>
</trkpt>
<trkpt lat="64.091537476" lon="-19.995994568">
<ele>132.976563</ele>
<time>2012-07-20T20:20:59Z</time>
<speed>4.950000</speed>
<extensions>
<speed>4.9</speed>
<temp>0.00</temp>
<bpm>0</bpm>
<rpm>0.00</rpm>
</extensions>
</trkpt>
<trkpt lat="64.091674805" lon="-19.995576859">
<ele>134.726563</ele>
<time>2012-07-20T20:21:04Z</time>
<speed>5.360000</speed>
<extensions>
<speed>5.4</speed>
<temp>0.00</temp>
<bpm>0</bpm>
<rpm>0.00</rpm>
</extensions>
</trkpt>
<trkpt lat="64.091835022" lon="-19.995161057">
<ele>134.593750</ele>
<time>2012-07-20T20:21:09Z</time>
<speed>5.180000</speed>
<extensions>
<speed>5.2</speed>
<temp>0.00</temp>
<bpm>0</bpm>
<rpm>0.00</rpm>
</extensions>
</trkpt>
<trkpt lat="64.091972351" lon="-19.994735718">
<ele>134.308594</ele>
<time>2012-07-20T20:21:14Z</time>
<speed>5.440000</speed>
<extensions>
<speed>5.4</speed>
<temp>0.00</temp>
<bpm>0</bpm>
<rpm>0.00</rpm>
</extensions>
</trkpt>
<trkpt lat="64.092124939" lon="-19.994293213">
<ele>134.921875</ele>
<time>2012-07-20T20:21:19Z</time>
<speed>5.520000</speed>
<extensions>
<speed>5.5</speed>
<temp>0.00</temp>
<bpm>0</bpm>
<rpm>0.00</rpm>
</extensions>
</trkpt>
<trkpt lat="64.092285156" lon="-19.993850708">
<ele>135.074219</ele>
<time>2012-07-20T20:21:24Z</time>
<speed>5.710000</speed>
<extensions>
<speed>5.7</speed>
<temp>0.00</temp>
<bpm>0</bpm>
<rpm>0.00</rpm>
</extensions>
</trkpt>
<trkpt lat="64.092445374" lon="-19.993391037">
<ele>135.500000</ele>
<time>2012-07-20T20:21:29Z</time>
<speed>5.820000</speed>
<extensions>
<speed>5.8</speed>
<temp>0.00</temp>
<bpm>0</bpm>
<rpm>0.00</rpm>
</extensions>
</trkpt>
<trkpt lat="64.092620850" lon="-19.992925644">
<ele>135.109375</ele>
<time>2012-07-20T20:21:34Z</time>
<speed>5.930000</speed>
<extensions>
<speed>5.9</speed>
<temp>0.00</temp>
<bpm>0</bpm>
<rpm>0.00</rpm>
</extensions>
</trkpt>
<trkpt lat="64.092788696" lon="-19.992490768">
<ele>135.132813</ele>
<time>2012-07-20T20:21:39Z</time>
<speed>5.490000</speed>
<extensions>
<speed>5.5</speed>
<temp>0.00</temp>
<bpm>0</bpm>
<rpm>0.00</rpm>
</extensions>
</trkpt>
<trkpt lat="64.092964172" lon="-19.992086411">
<ele>134.621094</ele>
<time>2012-07-20T20:21:44Z</time>
<speed>5.570000</speed>
<extensions>
<speed>5.6</speed>
<temp>0.00</temp>
<bpm>0</bpm>
<rpm>0.00</rpm>
</extensions>
</trkpt>
<trkpt lat="64.093124390" lon="-19.991720200">
<ele>134.621094</ele>
<time>2012-07-20T20:21:49Z</time>
<speed>4.820000</speed>
<extensions>
<speed>4.8</speed>
<temp>0.00</temp>
<bpm>0</bpm>
<rpm>0.00</rpm>
</extensions>
</trkpt>
<trkpt lat="64.093261719" lon="-19.991430283">
<ele>134.378906</ele>
<time>2012-07-20T20:21:54Z</time>
<speed>4.070000</speed>
<extensions>
<speed>4.1</speed>
<temp>0.00</temp>
<bpm>0</bpm>
<rpm>0.00</rpm>
</extensions>
</trkpt>
<trkpt lat="64.093383789" lon="-19.991155624">
<ele>134.570313</ele>
<time>2012-07-20T20:21:59Z</time>
<speed>4.060000</speed>
<extensions>
<speed>4.1</speed>
<temp>0.00</temp>
<bpm>0</bpm>
<rpm>0.00</rpm>
</extensions>
</trkpt>
<trkpt lat="64.093528748" lon="-19.990861893">
<ele>135.527344</ele>
<time>2012-07-20T20:22:04Z</time>
<speed>4.470000</speed>
<extensions>
<speed>4.5</speed>
<temp>0.00</temp>
<bpm>0</bpm>
<rpm>0.00</rpm>
</extensions>
</trkpt>
<trkpt lat="64.093688965" lon="-19.990545273">
<ele>135.195313</ele>
<time>2012-07-20T20:22:09Z</time>
<speed>4.670000</speed>
<extensions>
<speed>4.7</speed>
<temp>0.00</temp>
<bpm>0</bpm>
<rpm>0.00</rpm>
</extensions>
</trkpt>
<trkpt lat="64.093856812" lon="-19.990221024">
<ele>135.472656</ele>
<time>2012-07-20T20:22:14Z</time>
<speed>4.920000</speed>
<extensions>
<speed>4.9</speed>
<temp>0.00</temp>
<bpm>0</bpm>
<rpm>0.00</rpm>
</extensions>
</trkpt>
<trkpt lat="64.094024658" lon="-19.989906311">
<ele>135.554688</ele>
<time>2012-07-20T20:22:19Z</time>
<speed>4.740000</speed>
<extensions>
<speed>4.7</speed>
<temp>0.00</temp>
<bpm>0</bpm>
<rpm>0.00</rpm>
</extensions>
</trkpt>
<trkpt lat="64.094200134" lon="-19.989627838">
<ele>136.085938</ele>
<time>2012-07-20T20:22:24Z</time>
<speed>4.370000</speed>
<extensions>
<speed>4.4</speed>
<temp>0.00</temp>
<bpm>0</bpm>
<rpm>0.00</rpm>
</extensions>
</trkpt>
<trkpt lat="64.094360352" lon="-19.989379883">
<ele>136.875000</ele>
<time>2012-07-20T20:22:29Z</time>
<speed>4.340000</speed>
<extensions>
<speed>4.3</speed>
<temp>0.00</temp>
<bpm>0</bpm>
<rpm>0.00</rpm>
</extensions>
</trkpt>
<trkpt lat="64.094512939" lon="-19.989139557">
<ele>136.578125</ele>
<time>2012-07-20T20:22:34Z</time>
<speed>4.290000</speed>
<extensions>
<speed>4.3</speed>
<temp>0.00</temp>
<bpm>0</bpm>
<rpm>0.00</rpm>
</extensions>
</trkpt>
<trkpt lat="64.094665527" lon="-19.988893509">
<ele>136.507813</ele>
<time>2012-07-20T20:22:39Z</time>
<speed>3.850000</speed>
<extensions>
<speed>3.8</speed>
<temp>0.00</temp>
<bpm>0</bpm>
<rpm>0.00</rpm>
</extensions>
</trkpt>
<trkpt lat="64.094779968" lon="-19.988681793">
<ele>136.121094</ele>
<time>2012-07-20T20:22:44Z</time>
<speed>3.700000</speed>
<extensions>
<speed>3.7</speed>
<temp>0.00</temp>
<bpm>0</bpm>
<rpm>0.00</rpm>
</extensions>
</trkpt>
<trkpt lat="64.094924927" lon="-19.988458633">
<ele>136.656250</ele>
<time>2012-07-20T20:22:49Z</time>
<speed>3.630000</speed>
<extensions>
<speed>3.6</speed>
<temp>0.00</temp>
<bpm>0</bpm>
<rpm>0.00</rpm>
</extensions>
</trkpt>
<trkpt lat="64.095062256" lon="-19.988258362">
<ele>140.996094</ele>
<time>2012-07-20T20:22:54Z</time>
<speed>3.100000</speed>
<extensions>
<speed>3.1</speed>
<temp>0.00</temp>
<bpm>0</bpm>
<rpm>0.00</rpm>
</extensions>
</trkpt>
<trkpt lat="64.095146179" lon="-19.988143921">
<ele>140.937500</ele>
<time>2012-07-20T20:22:59Z</time>
<speed>1.540000</speed>
<extensions>
<speed>1.5</speed>
<temp>0.00</temp>
<bpm>0</bpm>
<rpm>0.00</rpm>
</extensions>
</trkpt>
<trkpt lat="64.095199585" lon="-19.988052368">
<ele>141.527344</ele>
<time>2012-07-20T20:23:04Z</time>
<speed>1.450000</speed>
<extensions>
<speed>1.4</speed>
<temp>0.00</temp>
<bpm>0</bpm>
<rpm>0.00</rpm>
</extensions>
</trkpt>
<trkpt lat="64.095275879" lon="-19.987894058">
<ele>142.660156</ele>
<time>2012-07-20T20:23:09Z</time>
<speed>2.970000</speed>
<extensions>
<speed>3.0</speed>
<temp>0.00</temp>
<bpm>0</bpm>
<rpm>0.00</rpm>
</extensions>
</trkpt>
<trkpt lat="64.095344543" lon="-19.987728119">
<ele>141.234375</ele>
<time>2012-07-20T20:23:14Z</time>
<speed>1.870000</speed>
<extensions>
<speed>1.9</speed>
<temp>0.00</temp>
<bpm>0</bpm>
<rpm>0.00</rpm>
</extensions>
</trkpt>
<trkpt lat="64.095436096" lon="-19.987567902">
<ele>139.417969</ele>
<time>2012-07-20T20:23:19Z</time>
<speed>3.200000</speed>
<extensions>
<speed>3.2</speed>
<temp>0.00</temp>
<bpm>0</bpm>
<rpm>0.00</rpm>
</extensions>
</trkpt>
<trkpt lat="64.095558167" lon="-19.987335205">
<ele>138.691406</ele>
<time>2012-07-20T20:23:24Z</time>
<speed>3.520000</speed>
<extensions>
<speed>3.5</speed>
<temp>0.00</temp>
<bpm>0</bpm>
<rpm>0.00</rpm>
</extensions>
</trkpt>
<trkpt lat="64.095680237" lon="-19.987092972">
<ele>138.687500</ele>
<time>2012-07-20T20:23:29Z</time>
<speed>3.090000</speed>
<extensions>
<speed>3.1</speed>
<temp>0.00</temp>
<bpm>0</bpm>
<rpm>0.00</rpm>
</extensions>
</trkpt>
<trkpt lat="64.095787048" lon="-19.986864090">
<ele>137.601563</ele>
<time>2012-07-20T20:23:34Z</time>
<speed>4.040000</speed>
<extensions>
<speed>4.0</speed>
<temp>0.00</temp>
<bpm>0</bpm>
<rpm>0.00</rpm>
</extensions>
</trkpt>
<trkpt lat="64.095924377" lon="-19.986553192">
<ele>136.812500</ele>
<time>2012-07-20T20:23:39Z</time>
<speed>4.230000</speed>
<extensions>
<speed>4.2</speed>
<temp>0.00</temp>
<bpm>0</bpm>
<rpm>0.00</rpm>
</extensions>
</trkpt>
<trkpt lat="64.096061707" lon="-19.986261368">
<ele>137.257813</ele>
<time>2012-07-20T20:23:44Z</time>
<speed>4.290000</speed>
<extensions>
<speed>4.3</speed>
<temp>0.00</temp>
<bpm>0</bpm>
<rpm>0.00</rpm>
</extensions>
</trkpt>
<trkpt lat="64.096199036" lon="-19.985954285">
<ele>137.042969</ele>
<time>2012-07-20T20:23:49Z</time>
<speed>4.130000</speed>
<extensions>
<speed>4.1</speed>
<temp>0.00</temp>
<bpm>0</bpm>
<rpm>0.00</rpm>
</extensions>
</trkpt>
<trkpt lat="64.096343994" lon="-19.985609055">
<ele>137.746094</ele>
<time>2012-07-20T20:23:54Z</time>
<speed>4.770000</speed>
<extensions>
<speed>4.8</speed>
<temp>0.00</temp>
<bpm>0</bpm>
<rpm>0.00</rpm>
</extensions>
</trkpt>
<trkpt lat="64.096473694" lon="-19.985260010">
<ele>137.000000</ele>
<time>2012-07-20T20:23:59Z</time>
<speed>4.630000</speed>
<extensions>
<speed>4.6</speed>
<temp>0.00</temp>
<bpm>0</bpm>
<rpm>0.00</rpm>
</extensions>
</trkpt>
<trkpt lat="64.096595764" lon="-19.984893799">
<ele>137.050781</ele>
<time>2012-07-20T20:24:04Z</time>
<speed>5.050000</speed>
<extensions>
<speed>5.1</speed>
<temp>0.00</temp>
<bpm>0</bpm>
<rpm>0.00</rpm>
</extensions>
</trkpt>
<trkpt lat="64.096725464" lon="-19.984495163">
<ele>137.328125</ele>
<time>2012-07-20T20:24:09Z</time>
<speed>4.550000</speed>
<extensions>
<speed>4.5</speed>
<temp>0.00</temp>
<bpm>0</bpm>
<rpm>0.00</rpm>
</extensions>
</trkpt>
<trkpt lat="64.096862793" lon="-19.984079361">
<ele>136.238281</ele>
<time>2012-07-20T20:24:14Z</time>
<speed>5.470000</speed>
<extensions>
<speed>5.5</speed>
<temp>0.00</temp>
<bpm>0</bpm>
<rpm>0.00</rpm>
</extensions>
</trkpt>
<trkpt lat="64.097000122" lon="-19.983657837">
<ele>135.480469</ele>
<time>2012-07-20T20:24:19Z</time>
<speed>5.210000</speed>
<extensions>
<speed>5.2</speed>
<temp>0.00</temp>
<bpm>0</bpm>
<rpm>0.00</rpm>
</extensions>
</trkpt>
<trkpt lat="64.097129822" lon="-19.983190536">
<ele>135.343750</ele>
<time>2012-07-20T20:24:24Z</time>
<speed>5.480000</speed>
<extensions>
<speed>5.5</speed>
<temp>0.00</temp>
<bpm>0</bpm>
<rpm>0.00</rpm>
</extensions>
</trkpt>
<trkpt lat="64.097282410" lon="-19.982667923">
<ele>134.453125</ele>
<time>2012-07-20T20:24:29Z</time>
<speed>5.780000</speed>
<extensions>
<speed>5.8</speed>
<temp>0.00</temp>
<bpm>0</bpm>
<rpm>0.00</rpm>
</extensions>
</trkpt>
<trkpt lat="64.097412109" lon="-19.982181549">
<ele>134.371094</ele>
<time>2012-07-20T20:24:34Z</time>
<speed>5.990000</speed>
<extensions>
<speed>6.0</speed>
<temp>0.00</temp>
<bpm>0</bpm>
<rpm>0.00</rpm>
</extensions>
</trkpt>
<trkpt lat="64.097572327" lon="-19.981643677">
<ele>134.234375</ele>
<time>2012-07-20T20:24:39Z</time>
<speed>6.430000</speed>
<extensions>
<speed>6.4</speed>
<temp>0.00</temp>
<bpm>0</bpm>
<rpm>0.00</rpm>
</extensions>
</trkpt>
<trkpt lat="64.097732544" lon="-19.981065750">
<ele>134.671875</ele>
<time>2012-07-20T20:24:44Z</time>
<speed>6.580000</speed>
<extensions>
<speed>6.6</speed>
<temp>0.00</temp>
<bpm>0</bpm>
<rpm>0.00</rpm>
</extensions>
</trkpt>
<trkpt lat="64.097877502" lon="-19.980539322">
<ele>134.457031</ele>
<time>2012-07-20T20:24:49Z</time>
<speed>6.140000</speed>
<extensions>
<speed>6.1</speed>
<temp>0.00</temp>
<bpm>0</bpm>
<rpm>0.00</rpm>
</extensions>
</trkpt>
<trkpt lat="64.098037720" lon="-19.979990005">
<ele>133.988281</ele>
<time>2012-07-20T20:24:54Z</time>
<speed>6.460000</speed>
<extensions>
<speed>6.5</speed>
<temp>0.00</temp>
<bpm>0</bpm>
<rpm>0.00</rpm>
</extensions>
</trkpt>
<trkpt lat="64.098175049" lon="-19.979440689">
<ele>134.054688</ele>
<time>2012-07-20T20:24:59Z</time>
<speed>6.160000</speed>
<extensions>
<speed>6.2</speed>
<temp>0.00</temp>
<bpm>0</bpm>
<rpm>0.00</rpm>
</extensions>
</trkpt>
<trkpt lat="64.098327637" lon="-19.978910446">
<ele>133.585938</ele>
<time>2012-07-20T20:25:04Z</time>
<speed>6.330000</speed>
<extensions>
<speed>6.3</speed>
<temp>0.00</temp>
<bpm>0</bpm>
<rpm>0.00</rpm>
</extensions>
</trkpt>
<trkpt lat="64.098487854" lon="-19.978387833">
<ele>132.546875</ele>
<time>2012-07-20T20:25:09Z</time>
<speed>6.280000</speed>
<extensions>
<speed>6.3</speed>
<temp>0.00</temp>
<bpm>0</bpm>
<rpm>0.00</rpm>
</extensions>
</trkpt>
<trkpt lat="64.098632813" lon="-19.977863312">
<ele>133.031250</ele>
<time>2012-07-20T20:25:14Z</time>
<speed>6.010000</speed>
<extensions>
<speed>6.0</speed>
<temp>0.00</temp>
<bpm>0</bpm>
<rpm>0.00</rpm>
</extensions>
</trkpt>
<trkpt lat="64.098770142" lon="-19.977346420">
<ele>132.894531</ele>
<time>2012-07-20T20:25:19Z</time>
<speed>5.840000</speed>
<extensions>
<speed>5.8</speed>
<temp>0.00</temp>
<bpm>0</bpm>
<rpm>0.00</rpm>
</extensions>
</trkpt>
<trkpt lat="64.098922729" lon="-19.976831436">
<ele>132.828125</ele>
<time>2012-07-20T20:25:24Z</time>
<speed>5.780000</speed>
<extensions>
<speed>5.8</speed>
<temp>0.00</temp>
<bpm>0</bpm>
<rpm>0.00</rpm>
</extensions>
</trkpt>
<trkpt lat="64.099067688" lon="-19.976325989">
<ele>132.878906</ele>
<time>2012-07-20T20:25:29Z</time>
<speed>5.900000</speed>
<extensions>
<speed>5.9</speed>
<temp>0.00</temp>
<bpm>0</bpm>
<rpm>0.00</rpm>
</extensions>
</trkpt>
<trkpt lat="64.099205017" lon="-19.975782394">
<ele>132.617188</ele>
<time>2012-07-20T20:25:34Z</time>
<speed>6.180000</speed>
<extensions>
<speed>6.2</speed>
<temp>0.00</temp>
<bpm>0</bpm>
<rpm>0.00</rpm>
</extensions>
</trkpt>
<trkpt lat="64.099327087" lon="-19.975263596">
<ele>132.765625</ele>
<time>2012-07-20T20:25:39Z</time>
<speed>5.630000</speed>
<extensions>
<speed>5.6</speed>
<temp>0.00</temp>
<bpm>0</bpm>
<rpm>0.00</rpm>
</extensions>
</trkpt>
<trkpt lat="64.099449158" lon="-19.974695206">
<ele>133.183594</ele>
<time>2012-07-20T20:25:44Z</time>
<speed>6.520000</speed>
<extensions>
<speed>6.5</speed>
<temp>0.00</temp>
<bpm>0</bpm>
<rpm>0.00</rpm>
</extensions>
</trkpt>
<trkpt lat="64.099563599" lon="-19.974058151">
<ele>132.578125</ele>
<time>2012-07-20T20:25:49Z</time>
<speed>6.570000</speed>
<extensions>
<speed>6.6</speed>
<temp>0.00</temp>
<bpm>0</bpm>
<rpm>0.00</rpm>
</extensions>
</trkpt>
<trkpt lat="64.099655151" lon="-19.973478317">
<ele>132.312500</ele>
<time>2012-07-20T20:25:54Z</time>
<speed>5.620000</speed>
<extensions>
<speed>5.6</speed>
<temp>0.00</temp>
<bpm>0</bpm>
<rpm>0.00</rpm>
</extensions>
</trkpt>
<trkpt lat="64.099731445" lon="-19.972894669">
<ele>132.191406</ele>
<time>2012-07-20T20:25:59Z</time>
<speed>5.970000</speed>
<extensions>
<speed>6.0</speed>
<temp>0.00</temp>
<bpm>0</bpm>
<rpm>0.00</rpm>
</extensions>
</trkpt>
<trkpt lat="64.099800110" lon="-19.972333908">
<ele>131.300781</ele>
<time>2012-07-20T20:26:04Z</time>
<speed>5.440000</speed>
<extensions>
<speed>5.4</speed>
<temp>0.00</temp>
<bpm>0</bpm>
<rpm>0.00</rpm>
</extensions>
</trkpt>
<trkpt lat="64.099853516" lon="-19.971794128">
<ele>131.273438</ele>
<time>2012-07-20T20:26:09Z</time>
<speed>5.840000</speed>
<extensions>
<speed>5.8</speed>
<temp>0.00</temp>
<bpm>0</bpm>
<rpm>0.00</rpm>
</extensions>
</trkpt>
<trkpt lat="64.099899292" lon="-19.971178055">
<ele>131.433594</ele>
<time>2012-07-20T20:26:14Z</time>
<speed>5.810000</speed>
<extensions>
<speed>5.8</speed>
<temp>0.00</temp>
<bpm>0</bpm>
<rpm>0.00</rpm>
</extensions>
</trkpt>
<trkpt lat="64.099929810" lon="-19.970615387">
<ele>131.710938</ele>
<time>2012-07-20T20:26:19Z</time>
<speed>5.530000</speed>
<extensions>
<speed>5.5</speed>
<temp>0.00</temp>
<bpm>0</bpm>
<rpm>0.00</rpm>
</extensions>
</trkpt>
<trkpt lat="64.099952698" lon="-19.970016479">
<ele>130.785156</ele>
<time>2012-07-20T20:26:24Z</time>
<speed>5.870000</speed>
<extensions>
<speed>5.9</speed>
<temp>0.00</temp>
<bpm>0</bpm>
<rpm>0.00</rpm>
</extensions>
</trkpt>
<trkpt lat="64.099967957" lon="-19.969409943">
<ele>129.445313</ele>
<time>2012-07-20T20:26:29Z</time>
<speed>5.660000</speed>
<extensions>
<speed>5.7</speed>
<temp>0.00</temp>
<bpm>0</bpm>
<rpm>0.00</rpm>
</extensions>
</trkpt>
<trkpt lat="64.099975586" lon="-19.968860626">
<ele>128.515625</ele>
<time>2012-07-20T20:26:34Z</time>
<speed>5.370000</speed>
<extensions>
<speed>5.4</speed>
<temp>0.00</temp>
<bpm>0</bpm>
<rpm>0.00</rpm>
</extensions>
</trkpt>
<trkpt lat="64.099983215" lon="-19.968301773">
<ele>121.039063</ele>
<time>2012-07-20T20:26:39Z</time>
<speed>5.160000</speed>
<extensions>
<speed>5.2</speed>
<temp>0.00</temp>
<bpm>0</bpm>
<rpm>0.00</rpm>
</extensions>
</trkpt>
<trkpt lat="64.099983215" lon="-19.967723846">
<ele>117.724609</ele>
<time>2012-07-20T20:26:44Z</time>
<speed>5.340000</speed>
<extensions>
<speed>5.3</speed>
<temp>0.00</temp>
<bpm>0</bpm>
<rpm>0.00</rpm>
</extensions>
</trkpt>
<trkpt lat="64.099975586" lon="-19.967226028">
<ele>116.781250</ele>
<time>2012-07-20T20:26:49Z</time>
<speed>3.770000</speed>
<extensions>
<speed>3.8</speed>
<temp>0.00</temp>
<bpm>0</bpm>
<rpm>0.00</rpm>
</extensions>
</trkpt>
<trkpt lat="64.099967957" lon="-19.966852188">
<ele>122.496094</ele>
<time>2012-07-20T20:26:54Z</time>
<speed>3.770000</speed>
<extensions>
<speed>3.8</speed>
<temp>0.00</temp>
<bpm>0</bpm>
<rpm>0.00</rpm>
</extensions>
</trkpt>
<trkpt lat="64.099967957" lon="-19.966474533">
<ele>126.318359</ele>
<time>2012-07-20T20:26:59Z</time>
<speed>3.940000</speed>
<extensions>
<speed>3.9</speed>
<temp>0.00</temp>
<bpm>0</bpm>
<rpm>0.00</rpm>
</extensions>
</trkpt>
<trkpt lat="64.099967957" lon="-19.966117859">
<ele>127.753906</ele>
<time>2012-07-20T20:27:04Z</time>
<speed>2.320000</speed>
<extensions>
<speed>2.3</speed>
<temp>0.00</temp>
<bpm>0</bpm>
<rpm>0.00</rpm>
</extensions>
</trkpt>
<trkpt lat="64.099967957" lon="-19.965898514">
<ele>130.128906</ele>
<time>2012-07-20T20:27:09Z</time>
<speed>2.400000</speed>
<extensions>
<speed>2.4</speed>
<temp>0.00</temp>
<bpm>0</bpm>
<rpm>0.00</rpm>
</extensions>
</trkpt>
<trkpt lat="64.099975586" lon="-19.965599060">
<ele>131.511719</ele>
<time>2012-07-20T20:27:14Z</time>
<speed>2.600000</speed>
<extensions>
<speed>2.6</speed>
<temp>0.00</temp>
<bpm>0</bpm>
<rpm>0.00</rpm>
</extensions>
</trkpt>
<trkpt lat="64.099983215" lon="-19.965318680">
<ele>132.546875</ele>
<time>2012-07-20T20:27:19Z</time>
<speed>2.860000</speed>
<extensions>
<speed>2.9</speed>
<temp>0.00</temp>
<bpm>0</bpm>
<rpm>0.00</rpm>
</extensions>
</trkpt>
<trkpt lat="64.099990845" lon="-19.964990616">
<ele>133.886719</ele>
<time>2012-07-20T20:27:24Z</time>
<speed>3.710000</speed>
<extensions>
<speed>3.7</speed>
<temp>0.00</temp>
<bpm>0</bpm>
<rpm>0.00</rpm>
</extensions>
</trkpt>
<trkpt lat="64.100006104" lon="-19.964605331">
<ele>135.367188</ele>
<time>2012-07-20T20:27:29Z</time>
<speed>3.400000</speed>
<extensions>
<speed>3.4</speed>
<temp>0.00</temp>
<bpm>0</bpm>
<rpm>0.00</rpm>
</extensions>
</trkpt>
<trkpt lat="64.100021362" lon="-19.964242935">
<ele>136.269531</ele>
<time>2012-07-20T20:27:34Z</time>
<speed>3.590000</speed>
<extensions>
<speed>3.6</speed>
<temp>0.00</temp>
<bpm>0</bpm>
<rpm>0.00</rpm>
</extensions>
</trkpt>
<trkpt lat="64.100036621" lon="-19.963840485">
<ele>139.796875</ele>
<time>2012-07-20T20:27:39Z</time>
<speed>3.610000</speed>
<extensions>
<speed>3.6</speed>
<temp>0.00</temp>
<bpm>0</bpm>
<rpm>0.00</rpm>
</extensions>
</trkpt>
<trkpt lat="64.100044250" lon="-19.963563919">
<ele>140.109375</ele>
<time>2012-07-20T20:27:44Z</time>
<speed>2.240000</speed>
<extensions>
<speed>2.2</speed>
<temp>0.00</temp>
<bpm>0</bpm>
<rpm>0.00</rpm>
</extensions>
</trkpt>
<trkpt lat="64.100059509" lon="-19.963308334">
<ele>139.175781</ele>
<time>2012-07-20T20:27:49Z</time>
<speed>2.950000</speed>
<extensions>
<speed>2.9</speed>
<temp>0.00</temp>
<bpm>0</bpm>
<rpm>0.00</rpm>
</extensions>
</trkpt>
<trkpt lat="64.100074768" lon="-19.962974548">
<ele>139.550781</ele>
<time>2012-07-20T20:27:54Z</time>
<speed>3.390000</speed>
<extensions>
<speed>3.4</speed>
<temp>0.00</temp>
<bpm>0</bpm>
<rpm>0.00</rpm>
</extensions>
</trkpt>
<trkpt lat="64.100090027" lon="-19.962617874">
<ele>141.589844</ele>
<time>2012-07-20T20:27:59Z</time>
<speed>3.360000</speed>
<extensions>
<speed>3.4</speed>
<temp>0.00</temp>
<bpm>0</bpm>
<rpm>0.00</rpm>
</extensions>
</trkpt>
<trkpt lat="64.100120544" lon="-19.962249756">
<ele>139.632813</ele>
<time>2012-07-20T20:28:04Z</time>
<speed>3.800000</speed>
<extensions>
<speed>3.8</speed>
<temp>0.00</temp>
<bpm>0</bpm>
<rpm>0.00</rpm>
</extensions>
</trkpt>
<trkpt lat="64.100158691" lon="-19.961854935">
<ele>139.871094</ele>
<time>2012-07-20T20:28:09Z</time>
<speed>3.970000</speed>
<extensions>
<speed>4.0</speed>
<temp>0.00</temp>
<bpm>0</bpm>
<rpm>0.00</rpm>
</extensions>
</trkpt>
<trkpt lat="64.100204468" lon="-19.961462021">
<ele>139.417969</ele>
<time>2012-07-20T20:28:14Z</time>
<speed>4.200000</speed>
<extensions>
<speed>4.2</speed>
<temp>0.00</temp>
<bpm>0</bpm>
<rpm>0.00</rpm>
</extensions>
</trkpt>
<trkpt lat="64.100257874" lon="-19.961034775">
<ele>138.332031</ele>
<time>2012-07-20T20:28:19Z</time>
<speed>4.410000</speed>
<extensions>
<speed>4.4</speed>
<temp>0.00</temp>
<bpm>0</bpm>
<rpm>0.00</rpm>
</extensions>
</trkpt>
<trkpt lat="64.100318909" lon="-19.960609436">
<ele>141.347656</ele>
<time>2012-07-20T20:28:24Z</time>
<speed>3.970000</speed>
<extensions>
<speed>4.0</speed>
<temp>0.00</temp>
<bpm>0</bpm>
<rpm>0.00</rpm>
</extensions>
</trkpt>
<trkpt lat="64.100387573" lon="-19.960218430">
<ele>141.265625</ele>
<time>2012-07-20T20:28:29Z</time>
<speed>4.300000</speed>
<extensions>
<speed>4.3</speed>
<temp>0.00</temp>
<bpm>0</bpm>
<rpm>0.00</rpm>
</extensions>
</trkpt>
<trkpt lat="64.100448608" lon="-19.959785461">
<ele>142.515625</ele>
<time>2012-07-20T20:28:34Z</time>
<speed>4.500000</speed>
<extensions>
<speed>4.5</speed>
<temp>0.00</temp>
<bpm>0</bpm>
<rpm>0.00</rpm>
</extensions>
</trkpt>
<trkpt lat="64.100524902" lon="-19.959386826">
<ele>144.226563</ele>
<time>2012-07-20T20:28:39Z</time>
<speed>3.660000</speed>
<extensions>
<speed>3.7</speed>
<temp>0.00</temp>
<bpm>0</bpm>
<rpm>0.00</rpm>
</extensions>
</trkpt>
<trkpt lat="64.100585938" lon="-19.959005356">
<ele>145.109375</ele>
<time>2012-07-20T20:28:44Z</time>
<speed>4.340000</speed>
<extensions>
<speed>4.3</speed>
<temp>0.00</temp>
<bpm>0</bpm>
<rpm>0.00</rpm>
</extensions>
</trkpt>
<trkpt lat="64.100669861" lon="-19.958580017">
<ele>144.222656</ele>
<time>2012-07-20T20:28:49Z</time>
<speed>4.660000</speed>
<extensions>
<speed>4.7</speed>
<temp>0.00</temp>
<bpm>0</bpm>
<rpm>0.00</rpm>
</extensions>
</trkpt>
<trkpt lat="64.100761414" lon="-19.958158493">
<ele>142.214844</ele>
<time>2012-07-20T20:28:54Z</time>
<speed>4.640000</speed>
<extensions>
<speed>4.6</speed>
<temp>0.00</temp>
<bpm>0</bpm>
<rpm>0.00</rpm>
</extensions>
</trkpt>
<trkpt lat="64.100868225" lon="-19.957723618">
<ele>141.265625</ele>
<time>2012-07-20T20:28:59Z</time>
<speed>5.060000</speed>
<extensions>
<speed>5.1</speed>
<temp>0.00</temp>
<bpm>0</bpm>
<rpm>0.00</rpm>
</extensions>
</trkpt>
<trkpt lat="64.100982666" lon="-19.957263947">
<ele>142.273438</ele>
<time>2012-07-20T20:29:04Z</time>
<speed>5.330000</speed>
<extensions>
<speed>5.3</speed>
<temp>0.00</temp>
<bpm>0</bpm>
<rpm>0.00</rpm>
</extensions>
</trkpt>
<trkpt lat="64.101112366" lon="-19.956789017">
<ele>142.929688</ele>
<time>2012-07-20T20:29:09Z</time>
<speed>5.630000</speed>
<extensions>
<speed>5.6</speed>
<temp>0.00</temp>
<bpm>0</bpm>
<rpm>0.00</rpm>
</extensions>
</trkpt>
<trkpt lat="64.101242065" lon="-19.956357956">
<ele>142.839844</ele>
<time>2012-07-20T20:29:14Z</time>
<speed>4.500000</speed>
<extensions>
<speed>4.5</speed>
<temp>0.00</temp>
<bpm>0</bpm>
<rpm>0.00</rpm>
</extensions>
</trkpt>
<trkpt lat="64.101379395" lon="-19.955965042">
<ele>143.605469</ele>
<time>2012-07-20T20:29:19Z</time>
<speed>4.820000</speed>
<extensions>
<speed>4.8</speed>
<temp>0.00</temp>
<bpm>0</bpm>
<rpm>0.00</rpm>
</extensions>
</trkpt>
<trkpt lat="64.101493835" lon="-19.955598831">
<ele>143.847656</ele>
<time>2012-07-20T20:29:24Z</time>
<speed>4.510000</speed>
<extensions>
<speed>4.5</speed>
<temp>0.00</temp>
<bpm>0</bpm>
<rpm>0.00</rpm>
</extensions>
</trkpt>
<trkpt lat="64.101631165" lon="-19.955215454">
<ele>144.726563</ele>
<time>2012-07-20T20:29:29Z</time>
<speed>5.140000</speed>
<extensions>
<speed>5.1</speed>
<temp>0.00</temp>
<bpm>0</bpm>
<rpm>0.00</rpm>
</extensions>
</trkpt>
<trkpt lat="64.101791382" lon="-19.954799652">
<ele>145.562500</ele>
<time>2012-07-20T20:29:34Z</time>
<speed>5.190000</speed>
<extensions>
<speed>5.2</speed>
<temp>0.00</temp>
<bpm>0</bpm>
<rpm>0.00</rpm>
</extensions>
</trkpt>
<trkpt lat="64.101936340" lon="-19.954387665">
<ele>146.425781</ele>
<time>2012-07-20T20:29:39Z</time>
<speed>5.020000</speed>
<extensions>
<speed>5.0</speed>
<temp>0.00</temp>
<bpm>0</bpm>
<rpm>0.00</rpm>
</extensions>
</trkpt>
<trkpt lat="64.102088928" lon="-19.954021454">
<ele>146.562500</ele>
<time>2012-07-20T20:29:44Z</time>
<speed>4.540000</speed>
<extensions>
<speed>4.5</speed>
<temp>0.00</temp>
<bpm>0</bpm>
<rpm>0.00</rpm>
</extensions>
</trkpt>
<trkpt lat="64.102226257" lon="-19.953659058">
<ele>146.789063</ele>
<time>2012-07-20T20:29:49Z</time>
<speed>4.990000</speed>
<extensions>
<speed>5.0</speed>
<temp>0.00</temp>
<bpm>0</bpm>
<rpm>0.00</rpm>
</extensions>
</trkpt>
<trkpt lat="64.102378845" lon="-19.953310013">
<ele>146.910156</ele>
<time>2012-07-20T20:29:54Z</time>
<speed>4.440000</speed>
<extensions>
<speed>4.4</speed>
<temp>0.00</temp>
<bpm>0</bpm>
<rpm>0.00</rpm>
</extensions>
</trkpt>
<trkpt lat="64.102523804" lon="-19.952945709">
<ele>147.140625</ele>
<time>2012-07-20T20:29:59Z</time>
<speed>5.050000</speed>
<extensions>
<speed>5.1</speed>
<temp>0.00</temp>
<bpm>0</bpm>
<rpm>0.00</rpm>
</extensions>
</trkpt>
<trkpt lat="64.102684021" lon="-19.952533722">
<ele>147.203125</ele>
<time>2012-07-20T20:30:04Z</time>
<speed>5.450000</speed>
<extensions>
<speed>5.5</speed>
<temp>0.00</temp>
<bpm>0</bpm>
<rpm>0.00</rpm>
</extensions>
</trkpt>
<trkpt lat="64.102836609" lon="-19.952159882">
<ele>147.070313</ele>
<time>2012-07-20T20:30:09Z</time>
<speed>4.330000</speed>
<extensions>
<speed>4.3</speed>
<temp>0.00</temp>
<bpm>0</bpm>
<rpm>0.00</rpm>
</extensions>
</trkpt>
<trkpt lat="64.102966309" lon="-19.951837540">
<ele>147.015625</ele>
<time>2012-07-20T20:30:14Z</time>
<speed>4.440000</speed>
<extensions>
<speed>4.4</speed>
<temp>0.00</temp>
<bpm>0</bpm>
<rpm>0.00</rpm>
</extensions>
</trkpt>
<trkpt lat="64.103103638" lon="-19.951524734">
<ele>146.945313</ele>
<time>2012-07-20T20:30:19Z</time>
<speed>4.050000</speed>
<extensions>
<speed>4.0</speed>
<temp>0.00</temp>
<bpm>0</bpm>
<rpm>0.00</rpm>
</extensions>
</trkpt>
<trkpt lat="64.103233337" lon="-19.951339722">
<ele>147.097656</ele>
<time>2012-07-20T20:30:24Z</time>
<speed>2.290000</speed>
<extensions>
<speed>2.3</speed>
<temp>0.00</temp>
<bpm>0</bpm>
<rpm>0.00</rpm>
</extensions>
</trkpt>
<trkpt lat="64.103347778" lon="-19.951368332">
<ele>147.167969</ele>
<time>2012-07-20T20:30:29Z</time>
<speed>3.430000</speed>
<extensions>
<speed>3.4</speed>
<temp>0.00</temp>
<bpm>0</bpm>
<rpm>0.00</rpm>
</extensions>
</trkpt>
<trkpt lat="64.103469849" lon="-19.951534271">
<ele>145.660156</ele>
<time>2012-07-20T20:30:34Z</time>
<speed>2.870000</speed>
<extensions>
<speed>2.9</speed>
<temp>0.00</temp>
<bpm>0</bpm>
<rpm>0.00</rpm>
</extensions>
</trkpt>
<trkpt lat="64.103591919" lon="-19.951713562">
<ele>145.761719</ele>
<time>2012-07-20T20:30:39Z</time>
<speed>3.590000</speed>
<extensions>
<speed>3.6</speed>
<temp>0.00</temp>
<bpm>0</bpm>
<rpm>0.00</rpm>
</extensions>
</trkpt>
<trkpt lat="64.103729248" lon="-19.951913834">
<ele>145.589844</ele>
<time>2012-07-20T20:30:44Z</time>
<speed>3.570000</speed>
<extensions>
<speed>3.6</speed>
<temp>0.00</temp>
<bpm>0</bpm>
<rpm>0.00</rpm>
</extensions>
</trkpt>
<trkpt lat="64.103858948" lon="-19.952093124">
<ele>145.261719</ele>
<time>2012-07-20T20:30:49Z</time>
<speed>3.590000</speed>
<extensions>
<speed>3.6</speed>
<temp>0.00</temp>
<bpm>0</bpm>
<rpm>0.00</rpm>
</extensions>
</trkpt>
<trkpt lat="64.103981018" lon="-19.952243805">
<ele>146.101563</ele>
<time>2012-07-20T20:30:54Z</time>
<speed>2.060000</speed>
<extensions>
<speed>2.1</speed>
<temp>0.00</temp>
<bpm>0</bpm>
<rpm>0.00</rpm>
</extensions>
</trkpt>
<trkpt lat="64.104042053" lon="-19.952346802">
<ele>146.933594</ele>
<time>2012-07-20T20:30:59Z</time>
<speed>1.550000</speed>
<extensions>
<speed>1.5</speed>
<temp>0.00</temp>
<bpm>0</bpm>
<rpm>0.00</rpm>
</extensions>
</trkpt>
<trkpt lat="64.104141235" lon="-19.952472687">
<ele>148.851563</ele>
<time>2012-07-20T20:31:04Z</time>
<speed>2.030000</speed>
<extensions>
<speed>2.0</speed>
<temp>0.00</temp>
<bpm>0</bpm>
<rpm>0.00</rpm>
</extensions>
</trkpt>
<trkpt lat="64.104209900" lon="-19.952579498">
<ele>148.132813</ele>
<time>2012-07-20T20:31:09Z</time>
<speed>2.300000</speed>
<extensions>
<speed>2.3</speed>
<temp>0.00</temp>
<bpm>0</bpm>
<rpm>0.00</rpm>
</extensions>
</trkpt>
<trkpt lat="64.104309082" lon="-19.952735901">
<ele>147.191406</ele>
<time>2012-07-20T20:31:14Z</time>
<speed>3.780000</speed>
<extensions>
<speed>3.8</speed>
<temp>0.00</temp>
<bpm>0</bpm>
<rpm>0.00</rpm>
</extensions>
</trkpt>
<trkpt lat="64.104446411" lon="-19.952936172">
<ele>146.238281</ele>
<time>2012-07-20T20:31:19Z</time>
<speed>3.770000</speed>
<extensions>
<speed>3.8</speed>
<temp>0.00</temp>
<bpm>0</bpm>
<rpm>0.00</rpm>
</extensions>
</trkpt>
<trkpt lat="64.104606628" lon="-19.953098297">
<ele>145.714844</ele>
<time>2012-07-20T20:31:24Z</time>
<speed>3.830000</speed>
<extensions>
<speed>3.8</speed>
<temp>0.00</temp>
<bpm>0</bpm>
<rpm>0.00</rpm>
</extensions>
</trkpt>
<trkpt lat="64.104759216" lon="-19.953218460">
<ele>146.296875</ele>
<time>2012-07-20T20:31:29Z</time>
<speed>3.510000</speed>
<extensions>
<speed>3.5</speed>
<temp>0.00</temp>
<bpm>0</bpm>
<rpm>0.00</rpm>
</extensions>
</trkpt>
<trkpt lat="64.104881287" lon="-19.953367233">
<ele>145.644531</ele>
<time>2012-07-20T20:31:34Z</time>
<speed>2.890000</speed>
<extensions>
<speed>2.9</speed>
<temp>0.00</temp>
<bpm>0</bpm>
<rpm>0.00</rpm>
</extensions>
</trkpt>
<trkpt lat="64.104927063" lon="-19.953630447">
<ele>146.121094</ele>
<time>2012-07-20T20:31:39Z</time>
<speed>2.370000</speed>
<extensions>
<speed>2.4</speed>
<temp>0.00</temp>
<bpm>0</bpm>
<rpm>0.00</rpm>
</extensions>
</trkpt>
<trkpt lat="64.104911804" lon="-19.953876495">
<ele>146.246094</ele>
<time>2012-07-20T20:31:44Z</time>
<speed>2.640000</speed>
<extensions>
<speed>2.6</speed>
<temp>0.00</temp>
<bpm>0</bpm>
<rpm>0.00</rpm>
</extensions>
</trkpt>
<trkpt lat="64.104927063" lon="-19.954198837">
<ele>145.550781</ele>
<time>2012-07-20T20:31:49Z</time>
<speed>2.650000</speed>
<extensions>
<speed>2.6</speed>
<temp>0.00</temp>
<bpm>0</bpm>
<rpm>0.00</rpm>
</extensions>
</trkpt>
<trkpt lat="64.104972839" lon="-19.954399109">
<ele>144.300781</ele>
<time>2012-07-20T20:31:54Z</time>
<speed>1.830000</speed>
<extensions>
<speed>1.8</speed>
<temp>0.00</temp>
<bpm>0</bpm>
<rpm>0.00</rpm>
</extensions>
</trkpt>
<trkpt lat="64.104980469" lon="-19.954500198">
<ele>144.308594</ele>
<time>2012-07-20T20:31:59Z</time>
<speed>1.420000</speed>
<extensions>
<speed>1.4</speed>
<temp>0.00</temp>
<bpm>0</bpm>
<rpm>0.00</rpm>
</extensions>
</trkpt>
<trkpt lat="64.104934692" lon="-19.954250336">
<ele>144.875000</ele>
<time>2012-07-20T20:32:04Z</time>
<speed>2.870000</speed>
<extensions>
<speed>2.9</speed>
<temp>0.00</temp>
<bpm>0</bpm>
<rpm>0.00</rpm>
</extensions>
</trkpt>
<trkpt lat="64.104904175" lon="-19.953910828">
<ele>145.335938</ele>
<time>2012-07-20T20:32:09Z</time>
<speed>3.460000</speed>
<extensions>
<speed>3.5</speed>
<temp>0.00</temp>
<bpm>0</bpm>
<rpm>0.00</rpm>
</extensions>
</trkpt>
<trkpt lat="64.104934692" lon="-19.953561783">
<ele>144.460938</ele>
<time>2012-07-20T20:32:14Z</time>
<speed>3.180000</speed>
<extensions>
<speed>3.2</speed>
<temp>0.00</temp>
<bpm>0</bpm>
<rpm>0.00</rpm>
</extensions>
</trkpt>
<trkpt lat="64.105033875" lon="-19.953369141">
<ele>145.148438</ele>
<time>2012-07-20T20:32:19Z</time>
<speed>1.820000</speed>
<extensions>
<speed>1.8</speed>
<temp>0.00</temp>
<bpm>0</bpm>
<rpm>0.00</rpm>
</extensions>
</trkpt>
<trkpt lat="64.105064392" lon="-19.953365326">
<ele>145.906250</ele>
<time>2012-07-20T20:32:24Z</time>
<speed>0.160000</speed>
<extensions>
<speed>0.2</speed>
<temp>0.00</temp>
<bpm>0</bpm>
<rpm>0.00</rpm>
</extensions>
</trkpt>
<trkpt lat="64.105064392" lon="-19.953357697">
<ele>146.066406</ele>
<time>2012-07-20T20:32:29Z</time>
<speed>0.040000</speed>
<extensions>
<speed>0.0</speed>
<temp>0.00</temp>
<bpm>0</bpm>
<rpm>0.00</rpm>
</extensions>
</trkpt>
<trkpt lat="64.105064392" lon="-19.953357697">
<ele>146.175781</ele>
<time>2012-07-20T20:32:34Z</time>
<extensions>
<speed>0.0</speed>
<temp>0.00</temp>
<bpm>0</bpm>
<rpm>0.00</rpm>
</extensions>
</trkpt>
<trkpt lat="64.105072021" lon="-19.953359604">
<ele>146.222656</ele>
<time>2012-07-20T20:32:39Z</time>
<speed>0.010000</speed>
<extensions>
<speed>0.0</speed>
<temp>0.00</temp>
<bpm>0</bpm>
<rpm>0.00</rpm>
</extensions>
</trkpt>
<trkpt lat="64.105072021" lon="-19.953359604">
<ele>146.246094</ele>
<time>2012-07-20T20:32:44Z</time>
<speed>0.060000</speed>
<extensions>
<speed>0.1</speed>
<temp>0.00</temp>
<bpm>0</bpm>
<rpm>0.00</rpm>
</extensions>
</trkpt>
<trkpt lat="64.105072021" lon="-19.953359604">
<ele>146.261719</ele>
<time>2012-07-20T20:32:49Z</time>
<speed>0.160000</speed>
<extensions>
<speed>0.2</speed>
<temp>0.00</temp>
<bpm>0</bpm>
<rpm>0.00</rpm>
</extensions>
</trkpt>
<trkpt lat="64.105064392" lon="-19.953361511">
<ele>146.273438</ele>
<time>2012-07-20T20:32:54Z</time>
<speed>0.100000</speed>
<extensions>
<speed>0.1</speed>
<temp>0.00</temp>
<bpm>0</bpm>
<rpm>0.00</rpm>
</extensions>
</trkpt>
<trkpt lat="64.105056763" lon="-19.953359604">
<ele>146.273438</ele>
<time>2012-07-20T20:32:59Z</time>
<speed>0.060000</speed>
<extensions>
<speed>0.1</speed>
<temp>0.00</temp>
<bpm>0</bpm>
<rpm>0.00</rpm>
</extensions>
</trkpt>
<trkpt lat="64.105049133" lon="-19.953357697">
<ele>146.281250</ele>
<time>2012-07-20T20:33:04Z</time>
<speed>0.300000</speed>
<extensions>
<speed>0.3</speed>
<temp>0.00</temp>
<bpm>0</bpm>
<rpm>0.00</rpm>
</extensions>
</trkpt>
<trkpt lat="64.105041504" lon="-19.953357697">
<ele>146.312500</ele>
<time>2012-07-20T20:33:09Z</time>
<speed>0.170000</speed>
<extensions>
<speed>0.2</speed>
<temp>0.00</temp>
<bpm>0</bpm>
<rpm>0.00</rpm>
</extensions>
</trkpt>
<trkpt lat="64.105033875" lon="-19.953351974">
<ele>146.347656</ele>
<time>2012-07-20T20:33:14Z</time>
<speed>0.110000</speed>
<extensions>
<speed>0.1</speed>
<temp>0.00</temp>
<bpm>0</bpm>
<rpm>0.00</rpm>
</extensions>
</trkpt>
<trkpt lat="64.105033875" lon="-19.953346252">
<ele>146.378906</ele>
<time>2012-07-20T20:33:19Z</time>
<speed>0.020000</speed>
<extensions>
<speed>0.0</speed>
<temp>0.00</temp>
<bpm>0</bpm>
<rpm>0.00</rpm>
</extensions>
</trkpt>
<trkpt lat="64.105033875" lon="-19.953346252">
<ele>146.406250</ele>
<time>2012-07-20T20:33:24Z</time>
<speed>0.030000</speed>
<extensions>
<speed>0.0</speed>
<temp>0.00</temp>
<bpm>0</bpm>
<rpm>0.00</rpm>
</extensions>
</trkpt>
<trkpt lat="64.105033875" lon="-19.953346252">
<ele>146.433594</ele>
<time>2012-07-20T20:33:29Z</time>
<speed>0.090000</speed>
<extensions>
<speed>0.1</speed>
<temp>0.00</temp>
<bpm>0</bpm>
<rpm>0.00</rpm>
</extensions>
</trkpt>
<trkpt lat="64.105033875" lon="-19.953346252">
<ele>146.441406</ele>
<time>2012-07-20T20:33:34Z</time>
<speed>0.010000</speed>
<extensions>
<speed>0.0</speed>
<temp>0.00</temp>
<bpm>0</bpm>
<rpm>0.00</rpm>
</extensions>
</trkpt>
<trkpt lat="64.105033875" lon="-19.953346252">
<ele>146.449219</ele>
<time>2012-07-20T20:33:39Z</time>
<speed>0.020000</speed>
<extensions>
<speed>0.0</speed>
<temp>0.00</temp>
<bpm>0</bpm>
<rpm>0.00</rpm>
</extensions>
</trkpt>
<trkpt lat="64.105033875" lon="-19.953346252">
<ele>146.445313</ele>
<time>2012-07-20T20:33:44Z</time>
<extensions>
<speed>0.0</speed>
<temp>0.00</temp>
<bpm>0</bpm>
<rpm>0.00</rpm>
</extensions>
</trkpt>
<trkpt lat="64.105033875" lon="-19.953346252">
<ele>146.449219</ele>
<time>2012-07-20T20:33:49Z</time>
<extensions>
<speed>0.0</speed>
<temp>0.00</temp>
<bpm>0</bpm>
<rpm>0.00</rpm>
</extensions>
</trkpt>
<trkpt lat="64.105033875" lon="-19.953346252">
<ele>146.457031</ele>
<time>2012-07-20T20:33:54Z</time>
<extensions>
<speed>0.0</speed>
<temp>0.00</temp>
<bpm>0</bpm>
<rpm>0.00</rpm>
</extensions>
</trkpt>
<trkpt lat="64.105033875" lon="-19.953346252">
<ele>146.464844</ele>
<time>2012-07-20T20:33:59Z</time>
<speed>0.020000</speed>
<extensions>
<speed>0.0</speed>
<temp>0.00</temp>
<bpm>0</bpm>
<rpm>0.00</rpm>
</extensions>
</trkpt>
<trkpt lat="64.105033875" lon="-19.953346252">
<ele>146.496094</ele>
<time>2012-07-20T20:34:04Z</time>
<speed>0.020000</speed>
<extensions>
<speed>0.0</speed>
<temp>0.00</temp>
<bpm>0</bpm>
<rpm>0.00</rpm>
</extensions>
</trkpt>
<trkpt lat="64.105033875" lon="-19.953346252">
<ele>146.480469</ele>
<time>2012-07-20T20:34:09Z</time>
<extensions>
<speed>0.0</speed>
<temp>0.00</temp>
<bpm>0</bpm>
<rpm>0.00</rpm>
</extensions>
</trkpt>
<trkpt lat="64.105033875" lon="-19.953346252">
<ele>146.468750</ele>
<time>2012-07-20T20:34:14Z</time>
<extensions>
<speed>0.0</speed>
<temp>0.00</temp>
<bpm>0</bpm>
<rpm>0.00</rpm>
</extensions>
</trkpt>
<trkpt lat="64.105033875" lon="-19.953346252">
<ele>146.484375</ele>
<time>2012-07-20T20:34:19Z</time>
<speed>0.030000</speed>
<extensions>
<speed>0.0</speed>
<temp>0.00</temp>
<bpm>0</bpm>
<rpm>0.00</rpm>
</extensions>
</trkpt>
<trkpt lat="64.105033875" lon="-19.953346252">
<ele>146.496094</ele>
<time>2012-07-20T20:34:24Z</time>
<speed>0.020000</speed>
<extensions>
<speed>0.0</speed>
<temp>0.00</temp>
<bpm>0</bpm>
<rpm>0.00</rpm>
</extensions>
</trkpt>
<trkpt lat="64.105033875" lon="-19.953346252">
<ele>146.519531</ele>
<time>2012-07-20T20:34:29Z</time>
<extensions>
<speed>0.0</speed>
<temp>0.00</temp>
<bpm>0</bpm>
<rpm>0.00</rpm>
</extensions>
</trkpt>
<trkpt lat="64.105033875" lon="-19.953348160">
<ele>146.496094</ele>
<time>2012-07-20T20:34:34Z</time>
<speed>0.010000</speed>
<extensions>
<speed>0.0</speed>
<temp>0.00</temp>
<bpm>0</bpm>
<rpm>0.00</rpm>
</extensions>
</trkpt>
<trkpt lat="64.105033875" lon="-19.953348160">
<ele>146.515625</ele>
<time>2012-07-20T20:34:39Z</time>
<extensions>
<speed>0.0</speed>
<temp>0.00</temp>
<bpm>0</bpm>
<rpm>0.00</rpm>
</extensions>
</trkpt>
<trkpt lat="64.105033875" lon="-19.953348160">
<ele>146.558594</ele>
<time>2012-07-20T20:34:44Z</time>
<extensions>
<speed>0.0</speed>
<temp>0.00</temp>
<bpm>0</bpm>
<rpm>0.00</rpm>
</extensions>
</trkpt>
<trkpt lat="64.105033875" lon="-19.953348160">
<ele>146.578125</ele>
<time>2012-07-20T20:34:49Z</time>
<speed>0.010000</speed>
<extensions>
<speed>0.0</speed>
<temp>0.00</temp>
<bpm>0</bpm>
<rpm>0.00</rpm>
</extensions>
</trkpt>
<trkpt lat="64.105033875" lon="-19.953348160">
<ele>146.589844</ele>
<time>2012-07-20T20:34:54Z</time>
<speed>0.010000</speed>
<extensions>
<speed>0.0</speed>
<temp>0.00</temp>
<bpm>0</bpm>
<rpm>0.00</rpm>
</extensions>
</trkpt>
<trkpt lat="64.105033875" lon="-19.953348160">
<ele>146.613281</ele>
<time>2012-07-20T20:34:59Z</time>
<speed>0.040000</speed>
<extensions>
<speed>0.0</speed>
<temp>0.00</temp>
<bpm>0</bpm>
<rpm>0.00</rpm>
</extensions>
</trkpt>
<trkpt lat="64.105033875" lon="-19.953348160">
<ele>146.640625</ele>
<time>2012-07-20T20:35:04Z</time>
<extensions>
<speed>0.0</speed>
<temp>0.00</temp>
<bpm>0</bpm>
<rpm>0.00</rpm>
</extensions>
</trkpt>
<trkpt lat="64.105033875" lon="-19.953348160">
<ele>146.644531</ele>
<time>2012-07-20T20:35:09Z</time>
<speed>0.020000</speed>
<extensions>
<speed>0.0</speed>
<temp>0.00</temp>
<bpm>0</bpm>
<rpm>0.00</rpm>
</extensions>
</trkpt>
<trkpt lat="64.105033875" lon="-19.953348160">
<ele>146.644531</ele>
<time>2012-07-20T20:35:14Z</time>
<speed>0.010000</speed>
<extensions>
<speed>0.0</speed>
<temp>0.00</temp>
<bpm>0</bpm>
<rpm>0.00</rpm>
</extensions>
</trkpt>
<trkpt lat="64.105033875" lon="-19.953348160">
<ele>146.636719</ele>
<time>2012-07-20T20:35:19Z</time>
<extensions>
<speed>0.0</speed>
<temp>0.00</temp>
<bpm>0</bpm>
<rpm>0.00</rpm>
</extensions>
</trkpt>
<trkpt lat="64.105033875" lon="-19.953350067">
<ele>146.617188</ele>
<time>2012-07-20T20:35:24Z</time>
<extensions>
<speed>0.0</speed>
<temp>0.00</temp>
<bpm>0</bpm>
<rpm>0.00</rpm>
</extensions>
</trkpt>
<trkpt lat="64.105033875" lon="-19.953350067">
<ele>146.605469</ele>
<time>2012-07-20T20:35:29Z</time>
<extensions>
<speed>0.0</speed>
<temp>0.00</temp>
<bpm>0</bpm>
<rpm>0.00</rpm>
</extensions>
</trkpt>
<trkpt lat="64.105033875" lon="-19.953350067">
<ele>146.613281</ele>
<time>2012-07-20T20:35:34Z</time>
<speed>0.010000</speed>
<extensions>
<speed>0.0</speed>
<temp>0.00</temp>
<bpm>0</bpm>
<rpm>0.00</rpm>
</extensions>
</trkpt>
<trkpt lat="64.105033875" lon="-19.953350067">
<ele>146.621094</ele>
<time>2012-07-20T20:35:39Z</time>
<speed>0.010000</speed>
<extensions>
<speed>0.0</speed>
<temp>0.00</temp>
<bpm>0</bpm>
<rpm>0.00</rpm>
</extensions>
</trkpt>
<trkpt lat="64.105033875" lon="-19.953350067">
<ele>146.601563</ele>
<time>2012-07-20T20:35:44Z</time>
<speed>0.010000</speed>
<extensions>
<speed>0.0</speed>
<temp>0.00</temp>
<bpm>0</bpm>
<rpm>0.00</rpm>
</extensions>
</trkpt>
<trkpt lat="64.105033875" lon="-19.953350067">
<ele>146.597656</ele>
<time>2012-07-20T20:35:49Z</time>
<speed>0.010000</speed>
<extensions>
<speed>0.0</speed>
<temp>0.00</temp>
<bpm>0</bpm>
<rpm>0.00</rpm>
</extensions>
</trkpt>
<trkpt lat="64.105033875" lon="-19.953350067">
<ele>146.593750</ele>
<time>2012-07-20T20:35:54Z</time>
<speed>0.020000</speed>
<extensions>
<speed>0.0</speed>
<temp>0.00</temp>
<bpm>0</bpm>
<rpm>0.00</rpm>
</extensions>
</trkpt>
<trkpt lat="64.105033875" lon="-19.953351974">
<ele>146.582031</ele>
<time>2012-07-20T20:35:59Z</time>
<speed>0.010000</speed>
<extensions>
<speed>0.0</speed>
<temp>0.00</temp>
<bpm>0</bpm>
<rpm>0.00</rpm>
</extensions>
</trkpt>
<trkpt lat="64.105033875" lon="-19.953351974">
<ele>146.589844</ele>
<time>2012-07-20T20:36:04Z</time>
<speed>0.030000</speed>
<extensions>
<speed>0.0</speed>
<temp>0.00</temp>
<bpm>0</bpm>
<rpm>0.00</rpm>
</extensions>
</trkpt>
<trkpt lat="64.105033875" lon="-19.953351974">
<ele>146.585938</ele>
<time>2012-07-20T20:36:09Z</time>
<extensions>
<speed>0.0</speed>
<temp>0.00</temp>
<bpm>0</bpm>
<rpm>0.00</rpm>
</extensions>
</trkpt>
<trkpt lat="64.105033875" lon="-19.953351974">
<ele>146.574219</ele>
<time>2012-07-20T20:36:14Z</time>
<speed>0.010000</speed>
<extensions>
<speed>0.0</speed>
<temp>0.00</temp>
<bpm>0</bpm>
<rpm>0.00</rpm>
</extensions>
</trkpt>
<trkpt lat="64.105033875" lon="-19.953351974">
<ele>146.574219</ele>
<time>2012-07-20T20:36:19Z</time>
<extensions>
<speed>0.0</speed>
<temp>0.00</temp>
<bpm>0</bpm>
<rpm>0.00</rpm>
</extensions>
</trkpt>
<trkpt lat="64.105033875" lon="-19.953351974">
<ele>146.578125</ele>
<time>2012-07-20T20:36:24Z</time>
<speed>0.210000</speed>
<extensions>
<speed>0.2</speed>
<temp>0.00</temp>
<bpm>0</bpm>
<rpm>0.00</rpm>
</extensions>
</trkpt>
<trkpt lat="64.105033875" lon="-19.953351974">
<ele>146.632813</ele>
<time>2012-07-20T20:36:29Z</time>
<extensions>
<speed>0.0</speed>
<temp>0.00</temp>
<bpm>0</bpm>
<rpm>0.00</rpm>
</extensions>
</trkpt>
<trkpt lat="64.105033875" lon="-19.953351974">
<ele>146.667969</ele>
<time>2012-07-20T20:36:34Z</time>
<speed>0.020000</speed>
<extensions>
<speed>0.0</speed>
<temp>0.00</temp>
<bpm>0</bpm>
<rpm>0.00</rpm>
</extensions>
</trkpt>
<trkpt lat="64.105033875" lon="-19.953351974">
<ele>146.691406</ele>
<time>2012-07-20T20:36:39Z</time>
<speed>0.010000</speed>
<extensions>
<speed>0.0</speed>
<temp>0.00</temp>
<bpm>0</bpm>
<rpm>0.00</rpm>
</extensions>
</trkpt>
<trkpt lat="64.105033875" lon="-19.953351974">
<ele>146.707031</ele>
<time>2012-07-20T20:36:44Z</time>
<speed>0.050000</speed>
<extensions>
<speed>0.1</speed>
<temp>0.00</temp>
<bpm>0</bpm>
<rpm>0.00</rpm>
</extensions>
</trkpt>
<trkpt lat="64.105033875" lon="-19.953353882">
<ele>146.789063</ele>
<time>2012-07-20T20:36:49Z</time>
<speed>0.400000</speed>
<extensions>
<speed>0.4</speed>
<temp>0.00</temp>
<bpm>0</bpm>
<rpm>0.00</rpm>
</extensions>
</trkpt>
<trkpt lat="64.105010986" lon="-19.953371048">
<ele>146.835938</ele>
<time>2012-07-20T20:36:54Z</time>
<speed>0.010000</speed>
<extensions>
<speed>0.0</speed>
<temp>0.00</temp>
<bpm>0</bpm>
<rpm>0.00</rpm>
</extensions>
</trkpt>
<trkpt lat="64.105026245" lon="-19.953365326">
<ele>146.765625</ele>
<time>2012-07-20T20:36:59Z</time>
<speed>0.520000</speed>
<extensions>
<speed>0.5</speed>
<temp>0.00</temp>
<bpm>0</bpm>
<rpm>0.00</rpm>
</extensions>
</trkpt>
<trkpt lat="64.105064392" lon="-19.953329086">
<ele>147.261719</ele>
<time>2012-07-20T20:37:04Z</time>
<speed>0.860000</speed>
<extensions>
<speed>0.9</speed>
<temp>0.00</temp>
<bpm>0</bpm>
<rpm>0.00</rpm>
</extensions>
</trkpt>
<trkpt lat="64.105079651" lon="-19.953329086">
<ele>148.558594</ele>
<time>2012-07-20T20:37:09Z</time>
<extensions>
<speed>0.0</speed>
<temp>0.00</temp>
<bpm>0</bpm>
<rpm>0.00</rpm>
</extensions>
</trkpt>
<trkpt lat="64.105079651" lon="-19.953323364">
<ele>147.898438</ele>
<time>2012-07-20T20:37:14Z</time>
<speed>0.300000</speed>
<extensions>
<speed>0.3</speed>
<temp>0.00</temp>
<bpm>0</bpm>
<rpm>0.00</rpm>
</extensions>
</trkpt>
<trkpt lat="64.105041504" lon="-19.953367233">
<ele>147.761719</ele>
<time>2012-07-20T20:37:19Z</time>
<speed>1.190000</speed>
<extensions>
<speed>1.2</speed>
<temp>0.00</temp>
<bpm>0</bpm>
<rpm>0.00</rpm>
</extensions>
</trkpt>
<trkpt lat="64.105003357" lon="-19.953464508">
<ele>147.632813</ele>
<time>2012-07-20T20:37:24Z</time>
<speed>1.240000</speed>
<extensions>
<speed>1.2</speed>
<temp>0.00</temp>
<bpm>0</bpm>
<rpm>0.00</rpm>
</extensions>
</trkpt>
<trkpt lat="64.104980469" lon="-19.953523636">
<ele>147.339844</ele>
<time>2012-07-20T20:37:29Z</time>
<speed>0.080000</speed>
<extensions>
<speed>0.1</speed>
<temp>0.00</temp>
<bpm>0</bpm>
<rpm>0.00</rpm>
</extensions>
</trkpt>
<trkpt lat="64.104949951" lon="-19.953605652">
<ele>146.757813</ele>
<time>2012-07-20T20:37:34Z</time>
<speed>1.850000</speed>
<extensions>
<speed>1.8</speed>
<temp>0.00</temp>
<bpm>0</bpm>
<rpm>0.00</rpm>
</extensions>
</trkpt>
<trkpt lat="64.104904175" lon="-19.953790665">
<ele>146.832031</ele>
<time>2012-07-20T20:37:39Z</time>
<speed>2.040000</speed>
<extensions>
<speed>2.0</speed>
<temp>0.00</temp>
<bpm>0</bpm>
<rpm>0.00</rpm>
</extensions>
</trkpt>
<trkpt lat="64.104827881" lon="-19.954040527">
<ele>146.917969</ele>
<time>2012-07-20T20:37:44Z</time>
<speed>3.300000</speed>
<extensions>
<speed>3.3</speed>
<temp>0.00</temp>
<bpm>0</bpm>
<rpm>0.00</rpm>
</extensions>
</trkpt>
<trkpt lat="64.104743958" lon="-19.954341888">
<ele>146.089844</ele>
<time>2012-07-20T20:37:49Z</time>
<speed>3.780000</speed>
<extensions>
<speed>3.8</speed>
<temp>0.00</temp>
<bpm>0</bpm>
<rpm>0.00</rpm>
</extensions>
</trkpt>
<trkpt lat="64.104621887" lon="-19.954591751">
<ele>142.308594</ele>
<time>2012-07-20T20:37:54Z</time>
<speed>3.550000</speed>
<extensions>
<speed>3.5</speed>
<temp>0.00</temp>
<bpm>0</bpm>
<rpm>0.00</rpm>
</extensions>
</trkpt>
<trkpt lat="64.104499817" lon="-19.954772949">
<ele>141.265625</ele>
<time>2012-07-20T20:37:59Z</time>
<speed>2.810000</speed>
<extensions>
<speed>2.8</speed>
<temp>0.00</temp>
<bpm>0</bpm>
<rpm>0.00</rpm>
</extensions>
</trkpt>
<trkpt lat="64.104370117" lon="-19.954881668">
<ele>141.101563</ele>
<time>2012-07-20T20:38:04Z</time>
<speed>3.400000</speed>
<extensions>
<speed>3.4</speed>
<temp>0.00</temp>
<bpm>0</bpm>
<rpm>0.00</rpm>
</extensions>
</trkpt>
<trkpt lat="64.104232788" lon="-19.955020905">
<ele>141.437500</ele>
<time>2012-07-20T20:38:09Z</time>
<speed>3.530000</speed>
<extensions>
<speed>3.5</speed>
<temp>0.00</temp>
<bpm>0</bpm>
<rpm>0.00</rpm>
</extensions>
</trkpt>
<trkpt lat="64.104087830" lon="-19.955224991">
<ele>143.152344</ele>
<time>2012-07-20T20:38:14Z</time>
<speed>4.130000</speed>
<extensions>
<speed>4.1</speed>
<temp>0.00</temp>
<bpm>0</bpm>
<rpm>0.00</rpm>
</extensions>
</trkpt>
<trkpt lat="64.103950500" lon="-19.955451965">
<ele>145.472656</ele>
<time>2012-07-20T20:38:19Z</time>
<speed>3.720000</speed>
<extensions>
<speed>3.7</speed>
<temp>0.00</temp>
<bpm>0</bpm>
<rpm>0.00</rpm>
</extensions>
</trkpt>
<trkpt lat="64.103797913" lon="-19.955778122">
<ele>144.031250</ele>
<time>2012-07-20T20:38:24Z</time>
<speed>4.290000</speed>
<extensions>
<speed>4.3</speed>
<temp>0.00</temp>
<bpm>0</bpm>
<rpm>0.00</rpm>
</extensions>
</trkpt>
<trkpt lat="64.103645325" lon="-19.956071854">
<ele>142.292969</ele>
<time>2012-07-20T20:38:29Z</time>
<speed>4.250000</speed>
<extensions>
<speed>4.3</speed>
<temp>0.00</temp>
<bpm>0</bpm>
<rpm>0.00</rpm>
</extensions>
</trkpt>
<trkpt lat="64.103515625" lon="-19.956289291">
<ele>143.406250</ele>
<time>2012-07-20T20:38:34Z</time>
<speed>3.530000</speed>
<extensions>
<speed>3.5</speed>
<temp>0.00</temp>
<bpm>0</bpm>
<rpm>0.00</rpm>
</extensions>
</trkpt>
<trkpt lat="64.103401184" lon="-19.956483841">
<ele>142.300781</ele>
<time>2012-07-20T20:38:39Z</time>
<speed>2.390000</speed>
<extensions>
<speed>2.4</speed>
<temp>0.00</temp>
<bpm>0</bpm>
<rpm>0.00</rpm>
</extensions>
</trkpt>
<trkpt lat="64.103370667" lon="-19.956672668">
<ele>143.039063</ele>
<time>2012-07-20T20:38:44Z</time>
<speed>1.880000</speed>
<extensions>
<speed>1.9</speed>
<temp>0.00</temp>
<bpm>0</bpm>
<rpm>0.00</rpm>
</extensions>
</trkpt>
<trkpt lat="64.103431702" lon="-19.956695557">
<ele>143.019531</ele>
<time>2012-07-20T20:38:49Z</time>
<speed>1.590000</speed>
<extensions>
<speed>1.6</speed>
<temp>0.00</temp>
<bpm>0</bpm>
<rpm>0.00</rpm>
</extensions>
</trkpt>
<trkpt lat="64.103530884" lon="-19.956657410">
<ele>143.367188</ele>
<time>2012-07-20T20:38:54Z</time>
<speed>1.920000</speed>
<extensions>
<speed>1.9</speed>
<temp>0.00</temp>
<bpm>0</bpm>
<rpm>0.00</rpm>
</extensions>
</trkpt>
<trkpt lat="64.103576660" lon="-19.956596375">
<ele>142.707031</ele>
<time>2012-07-20T20:38:59Z</time>
<speed>0.170000</speed>
<extensions>
<speed>0.2</speed>
<temp>0.00</temp>
<bpm>0</bpm>
<rpm>0.00</rpm>
</extensions>
</trkpt>
<trkpt lat="64.103561401" lon="-19.956594467">
<ele>143.164063</ele>
<time>2012-07-20T20:39:04Z</time>
<speed>0.280000</speed>
<extensions>
<speed>0.3</speed>
<temp>0.00</temp>
<bpm>0</bpm>
<rpm>0.00</rpm>
</extensions>
</trkpt>
<trkpt lat="64.103569031" lon="-19.956628799">
<ele>143.246094</ele>
<time>2012-07-20T20:39:09Z</time>
<speed>0.030000</speed>
<extensions>
<speed>0.0</speed>
<temp>0.00</temp>
<bpm>0</bpm>
<rpm>0.00</rpm>
</extensions>
</trkpt>
<trkpt lat="64.103546143" lon="-19.956645966">
<ele>143.390625</ele>
<time>2012-07-20T20:39:14Z</time>
<speed>1.200000</speed>
<extensions>
<speed>1.2</speed>
<temp>0.00</temp>
<bpm>0</bpm>
<rpm>0.00</rpm>
</extensions>
</trkpt>
<trkpt lat="64.103530884" lon="-19.956628799">
<ele>144.312500</ele>
<time>2012-07-20T20:39:19Z</time>
<speed>0.050000</speed>
<extensions>
<speed>0.1</speed>
<temp>0.00</temp>
<bpm>0</bpm>
<rpm>0.00</rpm>
</extensions>
</trkpt>
<trkpt lat="64.103530884" lon="-19.956632614">
<ele>144.652344</ele>
<time>2012-07-20T20:39:24Z</time>
<extensions>
<speed>0.0</speed>
<temp>0.00</temp>
<bpm>0</bpm>
<rpm>0.00</rpm>
</extensions>
</trkpt>
<trkpt lat="64.103530884" lon="-19.956632614">
<ele>144.667969</ele>
<time>2012-07-20T20:39:29Z</time>
<speed>0.010000</speed>
<extensions>
<speed>0.0</speed>
<temp>0.00</temp>
<bpm>0</bpm>
<rpm>0.00</rpm>
</extensions>
</trkpt>
<trkpt lat="64.103530884" lon="-19.956634521">
<ele>144.679688</ele>
<time>2012-07-20T20:39:34Z</time>
<extensions>
<speed>0.0</speed>
<temp>0.00</temp>
<bpm>0</bpm>
<rpm>0.00</rpm>
</extensions>
</trkpt>
<trkpt lat="64.103530884" lon="-19.956634521">
<ele>144.695313</ele>
<time>2012-07-20T20:39:39Z</time>
<extensions>
<speed>0.0</speed>
<temp>0.00</temp>
<bpm>0</bpm>
<rpm>0.00</rpm>
</extensions>
</trkpt>
<trkpt lat="64.103530884" lon="-19.956634521">
<ele>144.718750</ele>
<time>2012-07-20T20:39:44Z</time>
<speed>0.090000</speed>
<extensions>
<speed>0.1</speed>
<temp>0.00</temp>
<bpm>0</bpm>
<rpm>0.00</rpm>
</extensions>
</trkpt>
<trkpt lat="64.103530884" lon="-19.956687927">
<ele>144.632813</ele>
<time>2012-07-20T20:39:49Z</time>
<speed>1.090000</speed>
<extensions>
<speed>1.1</speed>
<temp>0.00</temp>
<bpm>0</bpm>
<rpm>0.00</rpm>
</extensions>
</trkpt>
<trkpt lat="64.103523254" lon="-19.956689835">
<ele>145.625000</ele>
<time>2012-07-20T20:39:54Z</time>
<speed>0.290000</speed>
<extensions>
<speed>0.3</speed>
<temp>0.00</temp>
<bpm>0</bpm>
<rpm>0.00</rpm>
</extensions>
</trkpt>
<trkpt lat="64.103462219" lon="-19.956674576">
<ele>146.617188</ele>
<time>2012-07-20T20:39:59Z</time>
<speed>1.760000</speed>
<extensions>
<speed>1.8</speed>
<temp>0.00</temp>
<bpm>0</bpm>
<rpm>0.00</rpm>
</extensions>
</trkpt>
<trkpt lat="64.103347778" lon="-19.956735611">
<ele>147.507813</ele>
<time>2012-07-20T20:40:04Z</time>
<speed>2.510000</speed>
<extensions>
<speed>2.5</speed>
<temp>0.00</temp>
<bpm>0</bpm>
<rpm>0.00</rpm>
</extensions>
</trkpt>
<trkpt lat="64.103218079" lon="-19.956920624">
<ele>147.871094</ele>
<time>2012-07-20T20:40:09Z</time>
<speed>3.470000</speed>
<extensions>
<speed>3.5</speed>
<temp>0.00</temp>
<bpm>0</bpm>
<rpm>0.00</rpm>
</extensions>
</trkpt>
<trkpt lat="64.103096008" lon="-19.957160950">
<ele>146.839844</ele>
<time>2012-07-20T20:40:14Z</time>
<speed>3.440000</speed>
<extensions>
<speed>3.4</speed>
<temp>0.00</temp>
<bpm>0</bpm>
<rpm>0.00</rpm>
</extensions>
</trkpt>
<trkpt lat="64.102935791" lon="-19.957443237">
<ele>144.410156</ele>
<time>2012-07-20T20:40:19Z</time>
<speed>3.840000</speed>
<extensions>
<speed>3.8</speed>
<temp>0.00</temp>
<bpm>0</bpm>
<rpm>0.00</rpm>
</extensions>
</trkpt>
<trkpt lat="64.102806091" lon="-19.957736969">
<ele>145.648438</ele>
<time>2012-07-20T20:40:24Z</time>
<speed>3.900000</speed>
<extensions>
<speed>3.9</speed>
<temp>0.00</temp>
<bpm>0</bpm>
<rpm>0.00</rpm>
</extensions>
</trkpt>
<trkpt lat="64.102622986" lon="-19.957981110">
<ele>145.335938</ele>
<time>2012-07-20T20:40:29Z</time>
<speed>4.360000</speed>
<extensions>
<speed>4.4</speed>
<temp>0.00</temp>
<bpm>0</bpm>
<rpm>0.00</rpm>
</extensions>
</trkpt>
<trkpt lat="64.102455139" lon="-19.958148956">
<ele>143.820313</ele>
<time>2012-07-20T20:40:34Z</time>
<speed>3.020000</speed>
<extensions>
<speed>3.0</speed>
<temp>0.00</temp>
<bpm>0</bpm>
<rpm>0.00</rpm>
</extensions>
</trkpt>
<trkpt lat="64.102348328" lon="-19.958179474">
<ele>144.226563</ele>
<time>2012-07-20T20:40:39Z</time>
<speed>2.050000</speed>
<extensions>
<speed>2.1</speed>
<temp>0.00</temp>
<bpm>0</bpm>
<rpm>0.00</rpm>
</extensions>
</trkpt>
<trkpt lat="64.102287292" lon="-19.958290100">
<ele>143.953125</ele>
<time>2012-07-20T20:40:44Z</time>
<speed>1.590000</speed>
<extensions>
<speed>1.6</speed>
<temp>0.00</temp>
<bpm>0</bpm>
<rpm>0.00</rpm>
</extensions>
</trkpt>
<trkpt lat="64.102355957" lon="-19.958316803">
<ele>144.210938</ele>
<time>2012-07-20T20:40:49Z</time>
<speed>2.520000</speed>
<extensions>
<speed>2.5</speed>
<temp>0.00</temp>
<bpm>0</bpm>
<rpm>0.00</rpm>
</extensions>
</trkpt>
<trkpt lat="64.102470398" lon="-19.958150864">
<ele>144.824219</ele>
<time>2012-07-20T20:40:54Z</time>
<speed>3.230000</speed>
<extensions>
<speed>3.2</speed>
<temp>0.00</temp>
<bpm>0</bpm>
<rpm>0.00</rpm>
</extensions>
</trkpt>
<trkpt lat="64.102607727" lon="-19.958005905">
<ele>146.015625</ele>
<time>2012-07-20T20:40:59Z</time>
<speed>3.830000</speed>
<extensions>
<speed>3.8</speed>
<temp>0.00</temp>
<bpm>0</bpm>
<rpm>0.00</rpm>
</extensions>
</trkpt>
<trkpt lat="64.102760315" lon="-19.957811356">
<ele>147.000000</ele>
<time>2012-07-20T20:41:04Z</time>
<speed>3.930000</speed>
<extensions>
<speed>3.9</speed>
<temp>0.00</temp>
<bpm>0</bpm>
<rpm>0.00</rpm>
</extensions>
</trkpt>
<trkpt lat="64.102905273" lon="-19.957542419">
<ele>147.378906</ele>
<time>2012-07-20T20:41:09Z</time>
<speed>3.830000</speed>
<extensions>
<speed>3.8</speed>
<temp>0.00</temp>
<bpm>0</bpm>
<rpm>0.00</rpm>
</extensions>
</trkpt>
<trkpt lat="64.103042603" lon="-19.957231522">
<ele>149.328125</ele>
<time>2012-07-20T20:41:14Z</time>
<speed>4.100000</speed>
<extensions>
<speed>4.1</speed>
<temp>0.00</temp>
<bpm>0</bpm>
<rpm>0.00</rpm>
</extensions>
</trkpt>
<trkpt lat="64.103187561" lon="-19.956939697">
<ele>150.488281</ele>
<time>2012-07-20T20:41:19Z</time>
<speed>4.370000</speed>
<extensions>
<speed>4.4</speed>
<temp>0.00</temp>
<bpm>0</bpm>
<rpm>0.00</rpm>
</extensions>
</trkpt>
<trkpt lat="64.103340149" lon="-19.956747055">
<ele>152.582031</ele>
<time>2012-07-20T20:41:24Z</time>
<speed>3.550000</speed>
<extensions>
<speed>3.5</speed>
<temp>0.00</temp>
<bpm>0</bpm>
<rpm>0.00</rpm>
</extensions>
</trkpt>
<trkpt lat="64.103523254" lon="-19.956705093">
<ele>148.925781</ele>
<time>2012-07-20T20:41:29Z</time>
<speed>3.390000</speed>
<extensions>
<speed>3.4</speed>
<temp>0.00</temp>
<bpm>0</bpm>
<rpm>0.00</rpm>
</extensions>
</trkpt>
<trkpt lat="64.103645325" lon="-19.956729889">
<ele>148.566406</ele>
<time>2012-07-20T20:41:34Z</time>
<speed>1.740000</speed>
<extensions>
<speed>1.7</speed>
<temp>0.00</temp>
<bpm>0</bpm>
<rpm>0.00</rpm>
</extensions>
</trkpt>
<trkpt lat="64.103668213" lon="-19.956937790">
<ele>146.378906</ele>
<time>2012-07-20T20:41:39Z</time>
<speed>2.350000</speed>
<extensions>
<speed>2.4</speed>
<temp>0.00</temp>
<bpm>0</bpm>
<rpm>0.00</rpm>
</extensions>
</trkpt>
<trkpt lat="64.103599548" lon="-19.956966400">
<ele>147.488281</ele>
<time>2012-07-20T20:41:44Z</time>
<speed>0.150000</speed>
<extensions>
<speed>0.2</speed>
<temp>0.00</temp>
<bpm>0</bpm>
<rpm>0.00</rpm>
</extensions>
</trkpt>
<trkpt lat="64.103599548" lon="-19.956966400">
<ele>147.226563</ele>
<time>2012-07-20T20:41:49Z</time>
<speed>0.040000</speed>
<extensions>
<speed>0.0</speed>
<temp>0.00</temp>
<bpm>0</bpm>
<rpm>0.00</rpm>
</extensions>
</trkpt>
<trkpt lat="64.103599548" lon="-19.956964493">
<ele>147.210938</ele>
<time>2012-07-20T20:41:54Z</time>
<speed>0.060000</speed>
<extensions>
<speed>0.1</speed>
<temp>0.00</temp>
<bpm>0</bpm>
<rpm>0.00</rpm>
</extensions>
</trkpt>
<trkpt lat="64.103599548" lon="-19.956964493">
<ele>147.187500</ele>
<time>2012-07-20T20:41:59Z</time>
<extensions>
<speed>0.0</speed>
<temp>0.00</temp>
<bpm>0</bpm>
<rpm>0.00</rpm>
</extensions>
</trkpt>
<trkpt lat="64.103599548" lon="-19.956964493">
<ele>147.148438</ele>
<time>2012-07-20T20:42:04Z</time>
<speed>0.010000</speed>
<extensions>
<speed>0.0</speed>
<temp>0.00</temp>
<bpm>0</bpm>
<rpm>0.00</rpm>
</extensions>
</trkpt>
<trkpt lat="64.103599548" lon="-19.956964493">
<ele>147.121094</ele>
<time>2012-07-20T20:42:09Z</time>
<extensions>
<speed>0.0</speed>
<temp>0.00</temp>
<bpm>0</bpm>
<rpm>0.00</rpm>
</extensions>
</trkpt>
<trkpt lat="64.103599548" lon="-19.956962585">
<ele>147.078125</ele>
<time>2012-07-20T20:42:14Z</time>
<extensions>
<speed>0.0</speed>
<temp>0.00</temp>
<bpm>0</bpm>
<rpm>0.00</rpm>
</extensions>
</trkpt>
<trkpt lat="64.103599548" lon="-19.956962585">
<ele>147.031250</ele>
<time>2012-07-20T20:42:19Z</time>
<speed>0.010000</speed>
<extensions>
<speed>0.0</speed>
<temp>0.00</temp>
<bpm>0</bpm>
<rpm>0.00</rpm>
</extensions>
</trkpt>
<trkpt lat="64.103599548" lon="-19.956964493">
<ele>146.808594</ele>
<time>2012-07-20T20:42:24Z</time>
<extensions>
<speed>0.0</speed>
<temp>0.00</temp>
<bpm>0</bpm>
<rpm>0.00</rpm>
</extensions>
</trkpt>
<trkpt lat="64.103599548" lon="-19.956964493">
<ele>146.796875</ele>
<time>2012-07-20T20:42:29Z</time>
<extensions>
<speed>0.0</speed>
<temp>0.00</temp>
<bpm>0</bpm>
<rpm>0.00</rpm>
</extensions>
</trkpt>
<trkpt lat="64.103599548" lon="-19.956964493">
<ele>146.781250</ele>
<time>2012-07-20T20:42:34Z</time>
<speed>0.030000</speed>
<extensions>
<speed>0.0</speed>
<temp>0.00</temp>
<bpm>0</bpm>
<rpm>0.00</rpm>
</extensions>
</trkpt>
<trkpt lat="64.103599548" lon="-19.956964493">
<ele>146.738281</ele>
<time>2012-07-20T20:42:39Z</time>
<speed>0.020000</speed>
<extensions>
<speed>0.0</speed>
<temp>0.00</temp>
<bpm>0</bpm>
<rpm>0.00</rpm>
</extensions>
</trkpt>
<trkpt lat="64.103599548" lon="-19.956962585">
<ele>146.714844</ele>
<time>2012-07-20T20:42:44Z</time>
<extensions>
<speed>0.0</speed>
<temp>0.00</temp>
<bpm>0</bpm>
<rpm>0.00</rpm>
</extensions>
</trkpt>
<trkpt lat="64.103599548" lon="-19.956962585">
<ele>146.695313</ele>
<time>2012-07-20T20:42:49Z</time>
<speed>0.020000</speed>
<extensions>
<speed>0.0</speed>
<temp>0.00</temp>
<bpm>0</bpm>
<rpm>0.00</rpm>
</extensions>
</trkpt>
<trkpt lat="64.103599548" lon="-19.956962585">
<ele>146.679688</ele>
<time>2012-07-20T20:42:54Z</time>
<extensions>
<speed>0.0</speed>
<temp>0.00</temp>
<bpm>0</bpm>
<rpm>0.00</rpm>
</extensions>
</trkpt>
<trkpt lat="64.103599548" lon="-19.956962585">
<ele>146.660156</ele>
<time>2012-07-20T20:42:59Z</time>
<speed>0.070000</speed>
<extensions>
<speed>0.1</speed>
<temp>0.00</temp>
<bpm>0</bpm>
<rpm>0.00</rpm>
</extensions>
</trkpt>
<trkpt lat="64.103599548" lon="-19.956962585">
<ele>146.648438</ele>
<time>2012-07-20T20:43:04Z</time>
<speed>0.010000</speed>
<extensions>
<speed>0.0</speed>
<temp>0.00</temp>
<bpm>0</bpm>
<rpm>0.00</rpm>
</extensions>
</trkpt>
<trkpt lat="64.103599548" lon="-19.956962585">
<ele>146.640625</ele>
<time>2012-07-20T20:43:09Z</time>
<extensions>
<speed>0.0</speed>
<temp>0.00</temp>
<bpm>0</bpm>
<rpm>0.00</rpm>
</extensions>
</trkpt>
<trkpt lat="64.103599548" lon="-19.956962585">
<ele>146.632813</ele>
<time>2012-07-20T20:43:14Z</time>
<extensions>
<speed>0.0</speed>
<temp>0.00</temp>
<bpm>0</bpm>
<rpm>0.00</rpm>
</extensions>
</trkpt>
<trkpt lat="64.103599548" lon="-19.956962585">
<ele>146.625000</ele>
<time>2012-07-20T20:43:19Z</time>
<speed>0.020000</speed>
<extensions>
<speed>0.0</speed>
<temp>0.00</temp>
<bpm>0</bpm>
<rpm>0.00</rpm>
</extensions>
</trkpt>
<trkpt lat="64.103599548" lon="-19.956962585">
<ele>146.617188</ele>
<time>2012-07-20T20:43:24Z</time>
<speed>0.010000</speed>
<extensions>
<speed>0.0</speed>
<temp>0.00</temp>
<bpm>0</bpm>
<rpm>0.00</rpm>
</extensions>
</trkpt>
<trkpt lat="64.103599548" lon="-19.956962585">
<ele>146.609375</ele>
<time>2012-07-20T20:43:29Z</time>
<speed>0.020000</speed>
<extensions>
<speed>0.0</speed>
<temp>0.00</temp>
<bpm>0</bpm>
<rpm>0.00</rpm>
</extensions>
</trkpt>
<trkpt lat="64.103599548" lon="-19.956962585">
<ele>146.605469</ele>
<time>2012-07-20T20:43:34Z</time>
<speed>0.010000</speed>
<extensions>
<speed>0.0</speed>
<temp>0.00</temp>
<bpm>0</bpm>
<rpm>0.00</rpm>
</extensions>
</trkpt>
<trkpt lat="64.103599548" lon="-19.956962585">
<ele>146.597656</ele>
<time>2012-07-20T20:43:39Z</time>
<extensions>
<speed>0.0</speed>
<temp>0.00</temp>
<bpm>0</bpm>
<rpm>0.00</rpm>
</extensions>
</trkpt>
<trkpt lat="64.103599548" lon="-19.956962585">
<ele>146.593750</ele>
<time>2012-07-20T20:43:44Z</time>
<extensions>
<speed>0.0</speed>
<temp>0.00</temp>
<bpm>0</bpm>
<rpm>0.00</rpm>
</extensions>
</trkpt>
<trkpt lat="64.103599548" lon="-19.956962585">
<ele>146.589844</ele>
<time>2012-07-20T20:43:49Z</time>
<extensions>
<speed>0.0</speed>
<temp>0.00</temp>
<bpm>0</bpm>
<rpm>0.00</rpm>
</extensions>
</trkpt>
<trkpt lat="64.103599548" lon="-19.956962585">
<ele>146.582031</ele>
<time>2012-07-20T20:43:54Z</time>
<extensions>
<speed>0.0</speed>
<temp>0.00</temp>
<bpm>0</bpm>
<rpm>0.00</rpm>
</extensions>
</trkpt>
<trkpt lat="64.103599548" lon="-19.956962585">
<ele>146.574219</ele>
<time>2012-07-20T20:43:59Z</time>
<extensions>
<speed>0.0</speed>
<temp>0.00</temp>
<bpm>0</bpm>
<rpm>0.00</rpm>
</extensions>
</trkpt>
<trkpt lat="64.103599548" lon="-19.956962585">
<ele>146.562500</ele>
<time>2012-07-20T20:44:04Z</time>
<extensions>
<speed>0.0</speed>
<temp>0.00</temp>
<bpm>0</bpm>
<rpm>0.00</rpm>
</extensions>
</trkpt>
<trkpt lat="64.103599548" lon="-19.956962585">
<ele>146.550781</ele>
<time>2012-07-20T20:44:09Z</time>
<extensions>
<speed>0.0</speed>
<temp>0.00</temp>
<bpm>0</bpm>
<rpm>0.00</rpm>
</extensions>
</trkpt>
<trkpt lat="64.103599548" lon="-19.956960678">
<ele>146.539063</ele>
<time>2012-07-20T20:44:14Z</time>
<extensions>
<speed>0.0</speed>
<temp>0.00</temp>
<bpm>0</bpm>
<rpm>0.00</rpm>
</extensions>
</trkpt>
<trkpt lat="64.103599548" lon="-19.956960678">
<ele>146.539063</ele>
<time>2012-07-20T20:44:19Z</time>
<extensions>
<speed>0.0</speed>
<temp>0.00</temp>
<bpm>0</bpm>
<rpm>0.00</rpm>
</extensions>
</trkpt>
<trkpt lat="64.103599548" lon="-19.956960678">
<ele>146.535156</ele>
<time>2012-07-20T20:44:24Z</time>
<extensions>
<speed>0.0</speed>
<temp>0.00</temp>
<bpm>0</bpm>
<rpm>0.00</rpm>
</extensions>
</trkpt>
<trkpt lat="64.103599548" lon="-19.956960678">
<ele>146.531250</ele>
<time>2012-07-20T20:44:29Z</time>
<extensions>
<speed>0.0</speed>
<temp>0.00</temp>
<bpm>0</bpm>
<rpm>0.00</rpm>
</extensions>
</trkpt>
<trkpt lat="64.103599548" lon="-19.956960678">
<ele>146.531250</ele>
<time>2012-07-20T20:44:34Z</time>
<extensions>
<speed>0.0</speed>
<temp>0.00</temp>
<bpm>0</bpm>
<rpm>0.00</rpm>
</extensions>
</trkpt>
<trkpt lat="64.103599548" lon="-19.956960678">
<ele>146.535156</ele>
<time>2012-07-20T20:44:39Z</time>
<extensions>
<speed>0.0</speed>
<temp>0.00</temp>
<bpm>0</bpm>
<rpm>0.00</rpm>
</extensions>
</trkpt>
<trkpt lat="64.103599548" lon="-19.956960678">
<ele>146.542969</ele>
<time>2012-07-20T20:44:44Z</time>
<extensions>
<speed>0.0</speed>
<temp>0.00</temp>
<bpm>0</bpm>
<rpm>0.00</rpm>
</extensions>
</trkpt>
<trkpt lat="64.103599548" lon="-19.956958771">
<ele>146.546875</ele>
<time>2012-07-20T20:44:49Z</time>
<speed>0.010000</speed>
<extensions>
<speed>0.0</speed>
<temp>0.00</temp>
<bpm>0</bpm>
<rpm>0.00</rpm>
</extensions>
</trkpt>
<trkpt lat="64.103599548" lon="-19.956958771">
<ele>146.554688</ele>
<time>2012-07-20T20:44:54Z</time>
<extensions>
<speed>0.0</speed>
<temp>0.00</temp>
<bpm>0</bpm>
<rpm>0.00</rpm>
</extensions>
</trkpt>
<trkpt lat="64.103599548" lon="-19.956958771">
<ele>146.550781</ele>
<time>2012-07-20T20:44:59Z</time>
<extensions>
<speed>0.0</speed>
<temp>0.00</temp>
<bpm>0</bpm>
<rpm>0.00</rpm>
</extensions>
</trkpt>
<trkpt lat="64.103599548" lon="-19.956958771">
<ele>146.546875</ele>
<time>2012-07-20T20:45:04Z</time>
<extensions>
<speed>0.0</speed>
<temp>0.00</temp>
<bpm>0</bpm>
<rpm>0.00</rpm>
</extensions>
</trkpt>
<trkpt lat="64.103599548" lon="-19.956958771">
<ele>146.539063</ele>
<time>2012-07-20T20:45:09Z</time>
<extensions>
<speed>0.0</speed>
<temp>0.00</temp>
<bpm>0</bpm>
<rpm>0.00</rpm>
</extensions>
</trkpt>
<trkpt lat="64.103599548" lon="-19.956956863">
<ele>146.535156</ele>
<time>2012-07-20T20:45:14Z</time>
<extensions>
<speed>0.0</speed>
<temp>0.00</temp>
<bpm>0</bpm>
<rpm>0.00</rpm>
</extensions>
</trkpt>
<trkpt lat="64.103599548" lon="-19.956956863">
<ele>146.535156</ele>
<time>2012-07-20T20:45:19Z</time>
<speed>0.010000</speed>
<extensions>
<speed>0.0</speed>
<temp>0.00</temp>
<bpm>0</bpm>
<rpm>0.00</rpm>
</extensions>
</trkpt>
<trkpt lat="64.103599548" lon="-19.956956863">
<ele>146.531250</ele>
<time>2012-07-20T20:45:24Z</time>
<extensions>
<speed>0.0</speed>
<temp>0.00</temp>
<bpm>0</bpm>
<rpm>0.00</rpm>
</extensions>
</trkpt>
<trkpt lat="64.103599548" lon="-19.956956863">
<ele>146.523438</ele>
<time>2012-07-20T20:45:29Z</time>
<extensions>
<speed>0.0</speed>
<temp>0.00</temp>
<bpm>0</bpm>
<rpm>0.00</rpm>
</extensions>
</trkpt>
<trkpt lat="64.103599548" lon="-19.956954956">
<ele>146.515625</ele>
<time>2012-07-20T20:45:34Z</time>
<extensions>
<speed>0.0</speed>
<temp>0.00</temp>
<bpm>0</bpm>
<rpm>0.00</rpm>
</extensions>
</trkpt>
<trkpt lat="64.103599548" lon="-19.956954956">
<ele>146.507813</ele>
<time>2012-07-20T20:45:39Z</time>
<extensions>
<speed>0.0</speed>
<temp>0.00</temp>
<bpm>0</bpm>
<rpm>0.00</rpm>
</extensions>
</trkpt>
<trkpt lat="64.103599548" lon="-19.956954956">
<ele>146.500000</ele>
<time>2012-07-20T20:45:44Z</time>
<speed>0.010000</speed>
<extensions>
<speed>0.0</speed>
<temp>0.00</temp>
<bpm>0</bpm>
<rpm>0.00</rpm>
</extensions>
</trkpt>
<trkpt lat="64.103599548" lon="-19.956954956">
<ele>146.488281</ele>
<time>2012-07-20T20:45:49Z</time>
<extensions>
<speed>0.0</speed>
<temp>0.00</temp>
<bpm>0</bpm>
<rpm>0.00</rpm>
</extensions>
</trkpt>
<trkpt lat="64.103599548" lon="-19.956954956">
<ele>146.468750</ele>
<time>2012-07-20T20:45:54Z</time>
<speed>0.010000</speed>
<extensions>
<speed>0.0</speed>
<temp>0.00</temp>
<bpm>0</bpm>
<rpm>0.00</rpm>
</extensions>
</trkpt>
<trkpt lat="64.103599548" lon="-19.956953049">
<ele>146.457031</ele>
<time>2012-07-20T20:45:59Z</time>
<speed>0.020000</speed>
<extensions>
<speed>0.0</speed>
<temp>0.00</temp>
<bpm>0</bpm>
<rpm>0.00</rpm>
</extensions>
</trkpt>
<trkpt lat="64.103599548" lon="-19.956953049">
<ele>146.449219</ele>
<time>2012-07-20T20:46:04Z</time>
<speed>0.010000</speed>
<extensions>
<speed>0.0</speed>
<temp>0.00</temp>
<bpm>0</bpm>
<rpm>0.00</rpm>
</extensions>
</trkpt>
<trkpt lat="64.103599548" lon="-19.956953049">
<ele>146.425781</ele>
<time>2012-07-20T20:46:09Z</time>
<extensions>
<speed>0.0</speed>
<temp>0.00</temp>
<bpm>0</bpm>
<rpm>0.00</rpm>
</extensions>
</trkpt>
<trkpt lat="64.103599548" lon="-19.956953049">
<ele>146.390625</ele>
<time>2012-07-20T20:46:14Z</time>
<speed>0.010000</speed>
<extensions>
<speed>0.0</speed>
<temp>0.00</temp>
<bpm>0</bpm>
<rpm>0.00</rpm>
</extensions>
</trkpt>
<trkpt lat="64.103599548" lon="-19.956953049">
<ele>146.359375</ele>
<time>2012-07-20T20:46:19Z</time>
<speed>0.010000</speed>
<extensions>
<speed>0.0</speed>
<temp>0.00</temp>
<bpm>0</bpm>
<rpm>0.00</rpm>
</extensions>
</trkpt>
<trkpt lat="64.103591919" lon="-19.956953049">
<ele>146.324219</ele>
<time>2012-07-20T20:46:24Z</time>
<extensions>
<speed>0.0</speed>
<temp>0.00</temp>
<bpm>0</bpm>
<rpm>0.00</rpm>
</extensions>
</trkpt>
<trkpt lat="64.103599548" lon="-19.956953049">
<ele>146.312500</ele>
<time>2012-07-20T20:46:29Z</time>
<extensions>
<speed>0.0</speed>
<temp>0.00</temp>
<bpm>0</bpm>
<rpm>0.00</rpm>
</extensions>
</trkpt>
<trkpt lat="64.103599548" lon="-19.956951141">
<ele>146.312500</ele>
<time>2012-07-20T20:46:34Z</time>
<speed>0.010000</speed>
<extensions>
<speed>0.0</speed>
<temp>0.00</temp>
<bpm>0</bpm>
<rpm>0.00</rpm>
</extensions>
</trkpt>
<trkpt lat="64.103591919" lon="-19.956951141">
<ele>146.332031</ele>
<time>2012-07-20T20:46:39Z</time>
<extensions>
<speed>0.0</speed>
<temp>0.00</temp>
<bpm>0</bpm>
<rpm>0.00</rpm>
</extensions>
</trkpt>
</trkseg>
</trk>
</gpx>